<?xml version="1.0" encoding="UTF-8" standalone="no" ?>
<gpx xmlns="http://www.topografix.com/GPX/1/1" xmlns:xsi="http://www.w3.org/2001/XMLSchema-instance" xsi:schemaLocation="http://www.topografix.com/GPX/1/1 http://www.topografix.com/GPX/1/1/gpx.xsd" version="1.1" creator="VisuGPX - https://www.visugpx.com">
  <metadata>
    <name>Boucle Sandillon/vienne/marcilly/stcyr</name>
  </metadata>
  <trk>
    <name><![CDATA[Boucle Sandillon/vienne/marcilly/stcyr_1]]></name>
    <trkseg>
      <trkpt lat="47.84551" lon="2.02277">
        <ele>95.9</ele>
      </trkpt>
      <trkpt lat="47.84476" lon="2.02288">
        <ele>95.5</ele>
      </trkpt>
      <trkpt lat="47.84468" lon="2.02355">
        <ele>95.8</ele>
      </trkpt>
      <trkpt lat="47.84486" lon="2.02475">
        <ele>95.2</ele>
      </trkpt>
      <trkpt lat="47.84541" lon="2.02662">
        <ele>96.4</ele>
      </trkpt>
      <trkpt lat="47.84614" lon="2.02818">
        <ele>98.7</ele>
      </trkpt>
      <trkpt lat="47.84558" lon="2.02994">
        <ele>98.5</ele>
      </trkpt>
      <trkpt lat="47.84553" lon="2.03102">
        <ele>98.7</ele>
      </trkpt>
      <trkpt lat="47.84556" lon="2.03302">
        <ele>98.2</ele>
      </trkpt>
      <trkpt lat="47.84377" lon="2.03393">
        <ele>96.5</ele>
      </trkpt>
      <trkpt lat="47.83963" lon="2.03551">
        <ele>96.5</ele>
      </trkpt>
      <trkpt lat="47.83731" lon="2.0354">
        <ele>97.3</ele>
      </trkpt>
      <trkpt lat="47.83553" lon="2.03478">
        <ele>96.8</ele>
      </trkpt>
      <trkpt lat="47.83378" lon="2.03506">
        <ele>95.5</ele>
      </trkpt>
      <trkpt lat="47.83077" lon="2.03444">
        <ele>94.8</ele>
      </trkpt>
      <trkpt lat="47.83067" lon="2.03466">
        <ele>144</ele>
        <time>2015-11-01T10:35:32.070Z</time>
      </trkpt>
      <trkpt lat="47.83066" lon="2.03476">
        <ele>145</ele>
        <time>2015-11-01T10:35:31.030Z</time>
      </trkpt>
      <trkpt lat="47.83066" lon="2.03485">
        <ele>145</ele>
        <time>2015-11-01T10:35:30.062Z</time>
      </trkpt>
      <trkpt lat="47.83065" lon="2.03496">
        <ele>144</ele>
        <time>2015-11-01T10:35:29.138Z</time>
      </trkpt>
      <trkpt lat="47.83065" lon="2.03505">
        <ele>144</ele>
        <time>2015-11-01T10:35:28.075Z</time>
      </trkpt>
      <trkpt lat="47.83064" lon="2.03515">
        <ele>144</ele>
        <time>2015-11-01T10:35:27.044Z</time>
      </trkpt>
      <trkpt lat="47.83064" lon="2.03524">
        <ele>144</ele>
        <time>2015-11-01T10:35:26.074Z</time>
      </trkpt>
      <trkpt lat="47.83063" lon="2.03534">
        <ele>144</ele>
        <time>2015-11-01T10:35:25.045Z</time>
      </trkpt>
      <trkpt lat="47.83062" lon="2.03543">
        <ele>144</ele>
        <time>2015-11-01T10:35:24.121Z</time>
      </trkpt>
      <trkpt lat="47.83062" lon="2.03553">
        <ele>144</ele>
        <time>2015-11-01T10:35:23.054Z</time>
      </trkpt>
      <trkpt lat="47.83062" lon="2.03563">
        <ele>144</ele>
        <time>2015-11-01T10:35:22.065Z</time>
      </trkpt>
      <trkpt lat="47.83061" lon="2.03572">
        <ele>144</ele>
        <time>2015-11-01T10:35:21.043Z</time>
      </trkpt>
      <trkpt lat="47.83061" lon="2.03581">
        <ele>144</ele>
        <time>2015-11-01T10:35:20.219Z</time>
      </trkpt>
      <trkpt lat="47.8306" lon="2.0359">
        <ele>144</ele>
        <time>2015-11-01T10:35:19.037Z</time>
      </trkpt>
      <trkpt lat="47.8306" lon="2.03599">
        <ele>144</ele>
        <time>2015-11-01T10:35:18.067Z</time>
      </trkpt>
      <trkpt lat="47.83059" lon="2.03609">
        <ele>144</ele>
        <time>2015-11-01T10:35:17.038Z</time>
      </trkpt>
      <trkpt lat="47.83059" lon="2.03618">
        <ele>144</ele>
        <time>2015-11-01T10:35:16.069Z</time>
      </trkpt>
      <trkpt lat="47.83058" lon="2.03627">
        <ele>144</ele>
        <time>2015-11-01T10:35:15.036Z</time>
      </trkpt>
      <trkpt lat="47.83058" lon="2.03636">
        <ele>144</ele>
        <time>2015-11-01T10:35:14.066Z</time>
      </trkpt>
      <trkpt lat="47.83057" lon="2.03645">
        <ele>144</ele>
        <time>2015-11-01T10:35:13.033Z</time>
      </trkpt>
      <trkpt lat="47.83057" lon="2.03653">
        <ele>144</ele>
        <time>2015-11-01T10:35:12.069Z</time>
      </trkpt>
      <trkpt lat="47.83056" lon="2.03662">
        <ele>144</ele>
        <time>2015-11-01T10:35:11.034Z</time>
      </trkpt>
      <trkpt lat="47.83055" lon="2.03671">
        <ele>144</ele>
        <time>2015-11-01T10:35:10.059Z</time>
      </trkpt>
      <trkpt lat="47.83055" lon="2.03679">
        <ele>144</ele>
        <time>2015-11-01T10:35:09.032Z</time>
      </trkpt>
      <trkpt lat="47.83054" lon="2.03688">
        <ele>144</ele>
        <time>2015-11-01T10:35:08.070Z</time>
      </trkpt>
      <trkpt lat="47.83054" lon="2.03696">
        <ele>143</ele>
        <time>2015-11-01T10:35:07.035Z</time>
      </trkpt>
      <trkpt lat="47.83056" lon="2.03702">
        <ele>143</ele>
        <time>2015-11-01T10:35:06.070Z</time>
      </trkpt>
      <trkpt lat="47.83061" lon="2.03707">
        <ele>143</ele>
        <time>2015-11-01T10:35:05.035Z</time>
      </trkpt>
      <trkpt lat="47.83067" lon="2.03708">
        <ele>143</ele>
        <time>2015-11-01T10:35:04.074Z</time>
      </trkpt>
      <trkpt lat="47.83073" lon="2.03709">
        <ele>143</ele>
        <time>2015-11-01T10:35:03.035Z</time>
      </trkpt>
      <trkpt lat="47.83079" lon="2.0371">
        <ele>143</ele>
        <time>2015-11-01T10:35:02.087Z</time>
      </trkpt>
      <trkpt lat="47.83086" lon="2.03711">
        <ele>144</ele>
        <time>2015-11-01T10:35:01.039Z</time>
      </trkpt>
      <trkpt lat="47.83093" lon="2.03712">
        <ele>144</ele>
        <time>2015-11-01T10:35:00.109Z</time>
      </trkpt>
      <trkpt lat="47.83099" lon="2.03713">
        <ele>144</ele>
        <time>2015-11-01T10:34:59.042Z</time>
      </trkpt>
      <trkpt lat="47.83106" lon="2.03715">
        <ele>144</ele>
        <time>2015-11-01T10:34:58.096Z</time>
      </trkpt>
      <trkpt lat="47.83112" lon="2.03716">
        <ele>144</ele>
        <time>2015-11-01T10:34:57.035Z</time>
      </trkpt>
      <trkpt lat="47.83119" lon="2.03717">
        <ele>144</ele>
        <time>2015-11-01T10:34:56.051Z</time>
      </trkpt>
      <trkpt lat="47.83125" lon="2.03719">
        <ele>144</ele>
        <time>2015-11-01T10:34:55.030Z</time>
      </trkpt>
      <trkpt lat="47.83132" lon="2.0372">
        <ele>144</ele>
        <time>2015-11-01T10:34:54.065Z</time>
      </trkpt>
      <trkpt lat="47.83138" lon="2.03721">
        <ele>144</ele>
        <time>2015-11-01T10:34:53.033Z</time>
      </trkpt>
      <trkpt lat="47.83144" lon="2.03722">
        <ele>144</ele>
        <time>2015-11-01T10:34:52.071Z</time>
      </trkpt>
      <trkpt lat="47.8315" lon="2.03723">
        <ele>144</ele>
        <time>2015-11-01T10:34:51.036Z</time>
      </trkpt>
      <trkpt lat="47.83156" lon="2.03724">
        <ele>144</ele>
        <time>2015-11-01T10:34:50.071Z</time>
      </trkpt>
      <trkpt lat="47.83162" lon="2.03725">
        <ele>145</ele>
        <time>2015-11-01T10:34:49.037Z</time>
      </trkpt>
      <trkpt lat="47.83168" lon="2.03726">
        <ele>145</ele>
        <time>2015-11-01T10:34:48.068Z</time>
      </trkpt>
      <trkpt lat="47.83173" lon="2.03729">
        <ele>145</ele>
        <time>2015-11-01T10:34:47.033Z</time>
      </trkpt>
      <trkpt lat="47.83178" lon="2.03734">
        <ele>145</ele>
        <time>2015-11-01T10:34:46.097Z</time>
      </trkpt>
      <trkpt lat="47.83181" lon="2.03739">
        <ele>145</ele>
        <time>2015-11-01T10:34:45.035Z</time>
      </trkpt>
      <trkpt lat="47.83183" lon="2.03748">
        <ele>145</ele>
        <time>2015-11-01T10:34:44.234Z</time>
      </trkpt>
      <trkpt lat="47.83184" lon="2.03756">
        <ele>144</ele>
        <time>2015-11-01T10:34:43.035Z</time>
      </trkpt>
      <trkpt lat="47.83184" lon="2.03765">
        <ele>144</ele>
        <time>2015-11-01T10:34:42.070Z</time>
      </trkpt>
      <trkpt lat="47.83185" lon="2.03774">
        <ele>144</ele>
        <time>2015-11-01T10:34:41.037Z</time>
      </trkpt>
      <trkpt lat="47.83186" lon="2.03784">
        <ele>144</ele>
        <time>2015-11-01T10:34:40.072Z</time>
      </trkpt>
      <trkpt lat="47.83187" lon="2.03794">
        <ele>144</ele>
        <time>2015-11-01T10:34:39.034Z</time>
      </trkpt>
      <trkpt lat="47.83188" lon="2.03803">
        <ele>144</ele>
        <time>2015-11-01T10:34:38.068Z</time>
      </trkpt>
      <trkpt lat="47.83189" lon="2.03812">
        <ele>143</ele>
        <time>2015-11-01T10:34:37.035Z</time>
      </trkpt>
      <trkpt lat="47.8319" lon="2.03821">
        <ele>143</ele>
        <time>2015-11-01T10:34:36.096Z</time>
      </trkpt>
      <trkpt lat="47.83191" lon="2.03831">
        <ele>144</ele>
        <time>2015-11-01T10:34:35.039Z</time>
      </trkpt>
      <trkpt lat="47.83192" lon="2.0384">
        <ele>144</ele>
        <time>2015-11-01T10:34:34.072Z</time>
      </trkpt>
      <trkpt lat="47.83194" lon="2.03849">
        <ele>143</ele>
        <time>2015-11-01T10:34:33.033Z</time>
      </trkpt>
      <trkpt lat="47.83196" lon="2.03858">
        <ele>143</ele>
        <time>2015-11-01T10:34:32.249Z</time>
      </trkpt>
      <trkpt lat="47.83198" lon="2.03866">
        <ele>144</ele>
        <time>2015-11-01T10:34:31.037Z</time>
      </trkpt>
      <trkpt lat="47.832" lon="2.03875">
        <ele>144</ele>
        <time>2015-11-01T10:34:30.078Z</time>
      </trkpt>
      <trkpt lat="47.83203" lon="2.03884">
        <ele>144</ele>
        <time>2015-11-01T10:34:29.039Z</time>
      </trkpt>
      <trkpt lat="47.83206" lon="2.03893">
        <ele>143</ele>
        <time>2015-11-01T10:34:28.075Z</time>
      </trkpt>
      <trkpt lat="47.83208" lon="2.03901">
        <ele>144</ele>
        <time>2015-11-01T10:34:27.036Z</time>
      </trkpt>
      <trkpt lat="47.83211" lon="2.03909">
        <ele>144</ele>
        <time>2015-11-01T10:34:26.069Z</time>
      </trkpt>
      <trkpt lat="47.83214" lon="2.03916">
        <ele>144</ele>
        <time>2015-11-01T10:34:25.060Z</time>
      </trkpt>
      <trkpt lat="47.83217" lon="2.03924">
        <ele>145</ele>
        <time>2015-11-01T10:34:24.069Z</time>
      </trkpt>
      <trkpt lat="47.8322" lon="2.0393">
        <ele>145</ele>
        <time>2015-11-01T10:34:23.033Z</time>
      </trkpt>
      <trkpt lat="47.83223" lon="2.03935">
        <ele>145</ele>
        <time>2015-11-01T10:34:22.116Z</time>
      </trkpt>
      <trkpt lat="47.83224" lon="2.03948">
        <ele>146</ele>
        <time>2015-11-01T10:34:20.034Z</time>
      </trkpt>
      <trkpt lat="47.83221" lon="2.03953">
        <ele>146</ele>
        <time>2015-11-01T10:34:19.069Z</time>
      </trkpt>
      <trkpt lat="47.83217" lon="2.03957">
        <ele>146</ele>
        <time>2015-11-01T10:34:18.034Z</time>
      </trkpt>
      <trkpt lat="47.83212" lon="2.0396">
        <ele>146</ele>
        <time>2015-11-01T10:34:17.068Z</time>
      </trkpt>
      <trkpt lat="47.83208" lon="2.03964">
        <ele>146</ele>
        <time>2015-11-01T10:34:16.033Z</time>
      </trkpt>
      <trkpt lat="47.83203" lon="2.03967">
        <ele>146</ele>
        <time>2015-11-01T10:34:15.068Z</time>
      </trkpt>
      <trkpt lat="47.83198" lon="2.03971">
        <ele>146</ele>
        <time>2015-11-01T10:34:14.034Z</time>
      </trkpt>
      <trkpt lat="47.83193" lon="2.03975">
        <ele>146</ele>
        <time>2015-11-01T10:34:13.070Z</time>
      </trkpt>
      <trkpt lat="47.83187" lon="2.03979">
        <ele>146</ele>
        <time>2015-11-01T10:34:12.034Z</time>
      </trkpt>
      <trkpt lat="47.83182" lon="2.03984">
        <ele>146</ele>
        <time>2015-11-01T10:34:11.069Z</time>
      </trkpt>
      <trkpt lat="47.83176" lon="2.03988">
        <ele>146</ele>
        <time>2015-11-01T10:34:10.035Z</time>
      </trkpt>
      <trkpt lat="47.8317" lon="2.03993">
        <ele>146</ele>
        <time>2015-11-01T10:34:09.088Z</time>
      </trkpt>
      <trkpt lat="47.83164" lon="2.03998">
        <ele>146</ele>
        <time>2015-11-01T10:34:08.036Z</time>
      </trkpt>
      <trkpt lat="47.83158" lon="2.04003">
        <ele>146</ele>
        <time>2015-11-01T10:34:07.212Z</time>
      </trkpt>
      <trkpt lat="47.83152" lon="2.04008">
        <ele>146</ele>
        <time>2015-11-01T10:34:06.033Z</time>
      </trkpt>
      <trkpt lat="47.83146" lon="2.04013">
        <ele>146</ele>
        <time>2015-11-01T10:34:05.070Z</time>
      </trkpt>
      <trkpt lat="47.8314" lon="2.04019">
        <ele>147</ele>
        <time>2015-11-01T10:34:04.035Z</time>
      </trkpt>
      <trkpt lat="47.83134" lon="2.04023">
        <ele>146</ele>
        <time>2015-11-01T10:34:03.071Z</time>
      </trkpt>
      <trkpt lat="47.83128" lon="2.04029">
        <ele>146</ele>
        <time>2015-11-01T10:34:02.035Z</time>
      </trkpt>
      <trkpt lat="47.83121" lon="2.04033">
        <ele>146</ele>
        <time>2015-11-01T10:34:01.070Z</time>
      </trkpt>
      <trkpt lat="47.83115" lon="2.04038">
        <ele>146</ele>
        <time>2015-11-01T10:34:00.069Z</time>
      </trkpt>
      <trkpt lat="47.83109" lon="2.04042">
        <ele>146</ele>
        <time>2015-11-01T10:33:59.070Z</time>
      </trkpt>
      <trkpt lat="47.83103" lon="2.04047">
        <ele>146</ele>
        <time>2015-11-01T10:33:58.034Z</time>
      </trkpt>
      <trkpt lat="47.83097" lon="2.04052">
        <ele>146</ele>
        <time>2015-11-01T10:33:57.070Z</time>
      </trkpt>
      <trkpt lat="47.83091" lon="2.04056">
        <ele>146</ele>
        <time>2015-11-01T10:33:56.036Z</time>
      </trkpt>
      <trkpt lat="47.83085" lon="2.04061">
        <ele>147</ele>
        <time>2015-11-01T10:33:55.070Z</time>
      </trkpt>
      <trkpt lat="47.83079" lon="2.04065">
        <ele>147</ele>
        <time>2015-11-01T10:33:54.035Z</time>
      </trkpt>
      <trkpt lat="47.83073" lon="2.0407">
        <ele>147</ele>
        <time>2015-11-01T10:33:53.237Z</time>
      </trkpt>
      <trkpt lat="47.83067" lon="2.04074">
        <ele>147</ele>
        <time>2015-11-01T10:33:52.033Z</time>
      </trkpt>
      <trkpt lat="47.83062" lon="2.04079">
        <ele>147</ele>
        <time>2015-11-01T10:33:51.093Z</time>
      </trkpt>
      <trkpt lat="47.83056" lon="2.04083">
        <ele>148</ele>
        <time>2015-11-01T10:33:50.033Z</time>
      </trkpt>
      <trkpt lat="47.8305" lon="2.04088">
        <ele>148</ele>
        <time>2015-11-01T10:33:49.069Z</time>
      </trkpt>
      <trkpt lat="47.83044" lon="2.04092">
        <ele>148</ele>
        <time>2015-11-01T10:33:48.035Z</time>
      </trkpt>
      <trkpt lat="47.83038" lon="2.04097">
        <ele>148</ele>
        <time>2015-11-01T10:33:47.068Z</time>
      </trkpt>
      <trkpt lat="47.83032" lon="2.04102">
        <ele>148</ele>
        <time>2015-11-01T10:33:46.033Z</time>
      </trkpt>
      <trkpt lat="47.83027" lon="2.04107">
        <ele>148</ele>
        <time>2015-11-01T10:33:45.062Z</time>
      </trkpt>
      <trkpt lat="47.83021" lon="2.04112">
        <ele>148</ele>
        <time>2015-11-01T10:33:44.031Z</time>
      </trkpt>
      <trkpt lat="47.83015" lon="2.04117">
        <ele>148</ele>
        <time>2015-11-01T10:33:43.065Z</time>
      </trkpt>
      <trkpt lat="47.83008" lon="2.04121">
        <ele>148</ele>
        <time>2015-11-01T10:33:42.070Z</time>
      </trkpt>
      <trkpt lat="47.83001" lon="2.04126">
        <ele>148</ele>
        <time>2015-11-01T10:33:41.225Z</time>
      </trkpt>
      <trkpt lat="47.82995" lon="2.04131">
        <ele>148</ele>
        <time>2015-11-01T10:33:40.033Z</time>
      </trkpt>
      <trkpt lat="47.82988" lon="2.04136">
        <ele>147</ele>
        <time>2015-11-01T10:33:39.073Z</time>
      </trkpt>
      <trkpt lat="47.82982" lon="2.04141">
        <ele>147</ele>
        <time>2015-11-01T10:33:38.037Z</time>
      </trkpt>
      <trkpt lat="47.82975" lon="2.04147">
        <ele>147</ele>
        <time>2015-11-01T10:33:37.091Z</time>
      </trkpt>
      <trkpt lat="47.82969" lon="2.04152">
        <ele>147</ele>
        <time>2015-11-01T10:33:36.029Z</time>
      </trkpt>
      <trkpt lat="47.82962" lon="2.04156">
        <ele>147</ele>
        <time>2015-11-01T10:33:35.070Z</time>
      </trkpt>
      <trkpt lat="47.82956" lon="2.0416">
        <ele>147</ele>
        <time>2015-11-01T10:33:34.034Z</time>
      </trkpt>
      <trkpt lat="47.8295" lon="2.04163">
        <ele>147</ele>
        <time>2015-11-01T10:33:33.070Z</time>
      </trkpt>
      <trkpt lat="47.82943" lon="2.04166">
        <ele>147</ele>
        <time>2015-11-01T10:33:32.036Z</time>
      </trkpt>
      <trkpt lat="47.82937" lon="2.04169">
        <ele>147</ele>
        <time>2015-11-01T10:33:31.064Z</time>
      </trkpt>
      <trkpt lat="47.8293" lon="2.04172">
        <ele>147</ele>
        <time>2015-11-01T10:33:30.035Z</time>
      </trkpt>
      <trkpt lat="47.82924" lon="2.04175">
        <ele>147</ele>
        <time>2015-11-01T10:33:29.074Z</time>
      </trkpt>
      <trkpt lat="47.82917" lon="2.04178">
        <ele>147</ele>
        <time>2015-11-01T10:33:28.034Z</time>
      </trkpt>
      <trkpt lat="47.82911" lon="2.0418">
        <ele>147</ele>
        <time>2015-11-01T10:33:27.099Z</time>
      </trkpt>
      <trkpt lat="47.82905" lon="2.04183">
        <ele>147</ele>
        <time>2015-11-01T10:33:26.034Z</time>
      </trkpt>
      <trkpt lat="47.82898" lon="2.04186">
        <ele>147</ele>
        <time>2015-11-01T10:33:25.088Z</time>
      </trkpt>
      <trkpt lat="47.82892" lon="2.04188">
        <ele>147</ele>
        <time>2015-11-01T10:33:24.038Z</time>
      </trkpt>
      <trkpt lat="47.82885" lon="2.04191">
        <ele>147</ele>
        <time>2015-11-01T10:33:23.066Z</time>
      </trkpt>
      <trkpt lat="47.82879" lon="2.04193">
        <ele>147</ele>
        <time>2015-11-01T10:33:22.032Z</time>
      </trkpt>
      <trkpt lat="47.82872" lon="2.04195">
        <ele>147</ele>
        <time>2015-11-01T10:33:21.081Z</time>
      </trkpt>
      <trkpt lat="47.82866" lon="2.04197">
        <ele>147</ele>
        <time>2015-11-01T10:33:20.031Z</time>
      </trkpt>
      <trkpt lat="47.82859" lon="2.042">
        <ele>147</ele>
        <time>2015-11-01T10:33:19.060Z</time>
      </trkpt>
      <trkpt lat="47.82853" lon="2.04203">
        <ele>147</ele>
        <time>2015-11-01T10:33:18.037Z</time>
      </trkpt>
      <trkpt lat="47.82847" lon="2.04205">
        <ele>147</ele>
        <time>2015-11-01T10:33:17.070Z</time>
      </trkpt>
      <trkpt lat="47.8284" lon="2.04208">
        <ele>146</ele>
        <time>2015-11-01T10:33:16.034Z</time>
      </trkpt>
      <trkpt lat="47.82834" lon="2.0421">
        <ele>146</ele>
        <time>2015-11-01T10:33:15.069Z</time>
      </trkpt>
      <trkpt lat="47.82827" lon="2.04212">
        <ele>147</ele>
        <time>2015-11-01T10:33:14.033Z</time>
      </trkpt>
      <trkpt lat="47.82821" lon="2.04215">
        <ele>146</ele>
        <time>2015-11-01T10:33:13.067Z</time>
      </trkpt>
      <trkpt lat="47.82815" lon="2.04217">
        <ele>146</ele>
        <time>2015-11-01T10:33:12.025Z</time>
      </trkpt>
      <trkpt lat="47.82808" lon="2.0422">
        <ele>146</ele>
        <time>2015-11-01T10:33:11.055Z</time>
      </trkpt>
      <trkpt lat="47.82802" lon="2.04223">
        <ele>147</ele>
        <time>2015-11-01T10:33:10.025Z</time>
      </trkpt>
      <trkpt lat="47.82795" lon="2.04226">
        <ele>147</ele>
        <time>2015-11-01T10:33:09.056Z</time>
      </trkpt>
      <trkpt lat="47.82788" lon="2.04228">
        <ele>147</ele>
        <time>2015-11-01T10:33:08.027Z</time>
      </trkpt>
      <trkpt lat="47.82782" lon="2.04231">
        <ele>147</ele>
        <time>2015-11-01T10:33:07.056Z</time>
      </trkpt>
      <trkpt lat="47.82775" lon="2.04233">
        <ele>147</ele>
        <time>2015-11-01T10:33:06.027Z</time>
      </trkpt>
      <trkpt lat="47.82768" lon="2.04235">
        <ele>147</ele>
        <time>2015-11-01T10:33:05.067Z</time>
      </trkpt>
      <trkpt lat="47.82762" lon="2.04238">
        <ele>147</ele>
        <time>2015-11-01T10:33:04.025Z</time>
      </trkpt>
      <trkpt lat="47.82756" lon="2.0424">
        <ele>147</ele>
        <time>2015-11-01T10:33:03.059Z</time>
      </trkpt>
      <trkpt lat="47.82749" lon="2.04243">
        <ele>147</ele>
        <time>2015-11-01T10:33:02.025Z</time>
      </trkpt>
      <trkpt lat="47.82743" lon="2.04244">
        <ele>147</ele>
        <time>2015-11-01T10:33:01.055Z</time>
      </trkpt>
      <trkpt lat="47.82736" lon="2.04246">
        <ele>147</ele>
        <time>2015-11-01T10:33:00.025Z</time>
      </trkpt>
      <trkpt lat="47.8273" lon="2.04249">
        <ele>147</ele>
        <time>2015-11-01T10:32:59.059Z</time>
      </trkpt>
      <trkpt lat="47.82724" lon="2.04252">
        <ele>147</ele>
        <time>2015-11-01T10:32:58.031Z</time>
      </trkpt>
      <trkpt lat="47.82718" lon="2.04254">
        <ele>147</ele>
        <time>2015-11-01T10:32:57.055Z</time>
      </trkpt>
      <trkpt lat="47.82711" lon="2.04257">
        <ele>147</ele>
        <time>2015-11-01T10:32:56.028Z</time>
      </trkpt>
      <trkpt lat="47.82705" lon="2.04259">
        <ele>147</ele>
        <time>2015-11-01T10:32:55.056Z</time>
      </trkpt>
      <trkpt lat="47.82699" lon="2.04262">
        <ele>147</ele>
        <time>2015-11-01T10:32:54.040Z</time>
      </trkpt>
      <trkpt lat="47.82692" lon="2.04264">
        <ele>147</ele>
        <time>2015-11-01T10:32:53.216Z</time>
      </trkpt>
      <trkpt lat="47.82686" lon="2.04266">
        <ele>146</ele>
        <time>2015-11-01T10:32:52.034Z</time>
      </trkpt>
      <trkpt lat="47.8268" lon="2.04269">
        <ele>146</ele>
        <time>2015-11-01T10:32:51.070Z</time>
      </trkpt>
      <trkpt lat="47.82674" lon="2.04272">
        <ele>147</ele>
        <time>2015-11-01T10:32:50.036Z</time>
      </trkpt>
      <trkpt lat="47.82667" lon="2.04274">
        <ele>147</ele>
        <time>2015-11-01T10:32:49.091Z</time>
      </trkpt>
      <trkpt lat="47.82661" lon="2.04276">
        <ele>147</ele>
        <time>2015-11-01T10:32:48.029Z</time>
      </trkpt>
      <trkpt lat="47.82654" lon="2.04279">
        <ele>146</ele>
        <time>2015-11-01T10:32:47.068Z</time>
      </trkpt>
      <trkpt lat="47.82648" lon="2.04281">
        <ele>146</ele>
        <time>2015-11-01T10:32:46.031Z</time>
      </trkpt>
      <trkpt lat="47.82641" lon="2.04284">
        <ele>146</ele>
        <time>2015-11-01T10:32:45.071Z</time>
      </trkpt>
      <trkpt lat="47.82635" lon="2.04287">
        <ele>146</ele>
        <time>2015-11-01T10:32:44.033Z</time>
      </trkpt>
      <trkpt lat="47.82629" lon="2.04289">
        <ele>147</ele>
        <time>2015-11-01T10:32:43.060Z</time>
      </trkpt>
      <trkpt lat="47.82622" lon="2.04292">
        <ele>147</ele>
        <time>2015-11-01T10:32:42.035Z</time>
      </trkpt>
      <trkpt lat="47.82615" lon="2.04295">
        <ele>147</ele>
        <time>2015-11-01T10:32:41.068Z</time>
      </trkpt>
      <trkpt lat="47.82609" lon="2.04297">
        <ele>147</ele>
        <time>2015-11-01T10:32:40.034Z</time>
      </trkpt>
      <trkpt lat="47.82603" lon="2.043">
        <ele>147</ele>
        <time>2015-11-01T10:32:39.226Z</time>
      </trkpt>
      <trkpt lat="47.82596" lon="2.04303">
        <ele>147</ele>
        <time>2015-11-01T10:32:38.067Z</time>
      </trkpt>
      <trkpt lat="47.8259" lon="2.04305">
        <ele>147</ele>
        <time>2015-11-01T10:32:37.066Z</time>
      </trkpt>
      <trkpt lat="47.82583" lon="2.04308">
        <ele>147</ele>
        <time>2015-11-01T10:32:36.033Z</time>
      </trkpt>
      <trkpt lat="47.82577" lon="2.0431">
        <ele>147</ele>
        <time>2015-11-01T10:32:35.069Z</time>
      </trkpt>
      <trkpt lat="47.8257" lon="2.04313">
        <ele>148</ele>
        <time>2015-11-01T10:32:34.035Z</time>
      </trkpt>
      <trkpt lat="47.82564" lon="2.04315">
        <ele>147</ele>
        <time>2015-11-01T10:32:33.097Z</time>
      </trkpt>
      <trkpt lat="47.82558" lon="2.04318">
        <ele>147</ele>
        <time>2015-11-01T10:32:32.035Z</time>
      </trkpt>
      <trkpt lat="47.82552" lon="2.0432">
        <ele>147</ele>
        <time>2015-11-01T10:32:31.056Z</time>
      </trkpt>
      <trkpt lat="47.82546" lon="2.04323">
        <ele>147</ele>
        <time>2015-11-01T10:32:30.030Z</time>
      </trkpt>
      <trkpt lat="47.82539" lon="2.04325">
        <ele>147</ele>
        <time>2015-11-01T10:32:29.069Z</time>
      </trkpt>
      <trkpt lat="47.82533" lon="2.04327">
        <ele>147</ele>
        <time>2015-11-01T10:32:28.035Z</time>
      </trkpt>
      <trkpt lat="47.82527" lon="2.04329">
        <ele>147</ele>
        <time>2015-11-01T10:32:27.070Z</time>
      </trkpt>
      <trkpt lat="47.82521" lon="2.04332">
        <ele>147</ele>
        <time>2015-11-01T10:32:26.034Z</time>
      </trkpt>
      <trkpt lat="47.82515" lon="2.04334">
        <ele>147</ele>
        <time>2015-11-01T10:32:25.070Z</time>
      </trkpt>
      <trkpt lat="47.82509" lon="2.04336">
        <ele>147</ele>
        <time>2015-11-01T10:32:24.052Z</time>
      </trkpt>
      <trkpt lat="47.82503" lon="2.04338">
        <ele>147</ele>
        <time>2015-11-01T10:32:23.069Z</time>
      </trkpt>
      <trkpt lat="47.82497" lon="2.0434">
        <ele>147</ele>
        <time>2015-11-01T10:32:22.036Z</time>
      </trkpt>
      <trkpt lat="47.82491" lon="2.04343">
        <ele>147</ele>
        <time>2015-11-01T10:32:21.067Z</time>
      </trkpt>
      <trkpt lat="47.82485" lon="2.04345">
        <ele>147</ele>
        <time>2015-11-01T10:32:20.036Z</time>
      </trkpt>
      <trkpt lat="47.8248" lon="2.04347">
        <ele>147</ele>
        <time>2015-11-01T10:32:19.070Z</time>
      </trkpt>
      <trkpt lat="47.82474" lon="2.04349">
        <ele>147</ele>
        <time>2015-11-01T10:32:18.034Z</time>
      </trkpt>
      <trkpt lat="47.82468" lon="2.0435">
        <ele>147</ele>
        <time>2015-11-01T10:32:17.090Z</time>
      </trkpt>
      <trkpt lat="47.82463" lon="2.04351">
        <ele>147</ele>
        <time>2015-11-01T10:32:16.029Z</time>
      </trkpt>
      <trkpt lat="47.82457" lon="2.04352">
        <ele>148</ele>
        <time>2015-11-01T10:32:15.069Z</time>
      </trkpt>
      <trkpt lat="47.82451" lon="2.04353">
        <ele>147</ele>
        <time>2015-11-01T10:32:14.031Z</time>
      </trkpt>
      <trkpt lat="47.82445" lon="2.04353">
        <ele>147</ele>
        <time>2015-11-01T10:32:13.071Z</time>
      </trkpt>
      <trkpt lat="47.8244" lon="2.04354">
        <ele>147</ele>
        <time>2015-11-01T10:32:12.035Z</time>
      </trkpt>
      <trkpt lat="47.82434" lon="2.04354">
        <ele>147</ele>
        <time>2015-11-01T10:32:11.069Z</time>
      </trkpt>
      <trkpt lat="47.82429" lon="2.04354">
        <ele>147</ele>
        <time>2015-11-01T10:32:10.034Z</time>
      </trkpt>
      <trkpt lat="47.82423" lon="2.04353">
        <ele>147</ele>
        <time>2015-11-01T10:32:09.069Z</time>
      </trkpt>
      <trkpt lat="47.82417" lon="2.04353">
        <ele>147</ele>
        <time>2015-11-01T10:32:08.033Z</time>
      </trkpt>
      <trkpt lat="47.82411" lon="2.04352">
        <ele>147</ele>
        <time>2015-11-01T10:32:07.070Z</time>
      </trkpt>
      <trkpt lat="47.82406" lon="2.04352">
        <ele>146</ele>
        <time>2015-11-01T10:32:06.033Z</time>
      </trkpt>
      <trkpt lat="47.824" lon="2.04352">
        <ele>146</ele>
        <time>2015-11-01T10:32:05.066Z</time>
      </trkpt>
      <trkpt lat="47.82394" lon="2.04352">
        <ele>146</ele>
        <time>2015-11-01T10:32:04.033Z</time>
      </trkpt>
      <trkpt lat="47.82389" lon="2.04351">
        <ele>146</ele>
        <time>2015-11-01T10:32:03.258Z</time>
      </trkpt>
      <trkpt lat="47.82383" lon="2.04351">
        <ele>146</ele>
        <time>2015-11-01T10:32:02.032Z</time>
      </trkpt>
      <trkpt lat="47.82378" lon="2.04351">
        <ele>146</ele>
        <time>2015-11-01T10:32:01.080Z</time>
      </trkpt>
      <trkpt lat="47.82372" lon="2.04351">
        <ele>147</ele>
        <time>2015-11-01T10:32:00.068Z</time>
      </trkpt>
      <trkpt lat="47.82366" lon="2.0435">
        <ele>147</ele>
        <time>2015-11-01T10:31:59.056Z</time>
      </trkpt>
      <trkpt lat="47.82361" lon="2.0435">
        <ele>146</ele>
        <time>2015-11-01T10:31:58.025Z</time>
      </trkpt>
      <trkpt lat="47.82355" lon="2.0435">
        <ele>146</ele>
        <time>2015-11-01T10:31:57.067Z</time>
      </trkpt>
      <trkpt lat="47.8235" lon="2.04349">
        <ele>146</ele>
        <time>2015-11-01T10:31:56.025Z</time>
      </trkpt>
      <trkpt lat="47.82344" lon="2.04349">
        <ele>146</ele>
        <time>2015-11-01T10:31:55.053Z</time>
      </trkpt>
      <trkpt lat="47.82339" lon="2.04349">
        <ele>145</ele>
        <time>2015-11-01T10:31:54.025Z</time>
      </trkpt>
      <trkpt lat="47.82333" lon="2.04349">
        <ele>145</ele>
        <time>2015-11-01T10:31:53.054Z</time>
      </trkpt>
      <trkpt lat="47.82328" lon="2.04349">
        <ele>145</ele>
        <time>2015-11-01T10:31:52.026Z</time>
      </trkpt>
      <trkpt lat="47.82322" lon="2.04348">
        <ele>145</ele>
        <time>2015-11-01T10:31:51.055Z</time>
      </trkpt>
      <trkpt lat="47.82317" lon="2.04348">
        <ele>145</ele>
        <time>2015-11-01T10:31:50.029Z</time>
      </trkpt>
      <trkpt lat="47.82312" lon="2.04347">
        <ele>145</ele>
        <time>2015-11-01T10:31:49.217Z</time>
      </trkpt>
      <trkpt lat="47.82306" lon="2.04347">
        <ele>145</ele>
        <time>2015-11-01T10:31:48.032Z</time>
      </trkpt>
      <trkpt lat="47.82301" lon="2.04346">
        <ele>144</ele>
        <time>2015-11-01T10:31:47.067Z</time>
      </trkpt>
      <trkpt lat="47.82296" lon="2.04346">
        <ele>144</ele>
        <time>2015-11-01T10:31:46.033Z</time>
      </trkpt>
      <trkpt lat="47.82291" lon="2.04345">
        <ele>144</ele>
        <time>2015-11-01T10:31:45.094Z</time>
      </trkpt>
      <trkpt lat="47.82286" lon="2.04346">
        <ele>144</ele>
        <time>2015-11-01T10:31:44.033Z</time>
      </trkpt>
      <trkpt lat="47.82281" lon="2.04345">
        <ele>144</ele>
        <time>2015-11-01T10:31:43.067Z</time>
      </trkpt>
      <trkpt lat="47.82276" lon="2.04345">
        <ele>144</ele>
        <time>2015-11-01T10:31:42.030Z</time>
      </trkpt>
      <trkpt lat="47.82271" lon="2.04345">
        <ele>144</ele>
        <time>2015-11-01T10:31:41.069Z</time>
      </trkpt>
      <trkpt lat="47.82266" lon="2.04344">
        <ele>144</ele>
        <time>2015-11-01T10:31:40.033Z</time>
      </trkpt>
      <trkpt lat="47.82261" lon="2.04344">
        <ele>143</ele>
        <time>2015-11-01T10:31:39.065Z</time>
      </trkpt>
      <trkpt lat="47.82257" lon="2.04343">
        <ele>144</ele>
        <time>2015-11-01T10:31:38.028Z</time>
      </trkpt>
      <trkpt lat="47.82252" lon="2.04343">
        <ele>143</ele>
        <time>2015-11-01T10:31:37.066Z</time>
      </trkpt>
      <trkpt lat="47.82245" lon="2.04348">
        <ele>143</ele>
        <time>2015-11-01T10:31:35.026Z</time>
      </trkpt>
      <trkpt lat="47.82243" lon="2.04352">
        <ele>144</ele>
        <time>2015-11-01T10:31:34.056Z</time>
      </trkpt>
      <trkpt lat="47.8224" lon="2.04364">
        <ele>143</ele>
        <time>2015-11-01T10:31:32.027Z</time>
      </trkpt>
      <trkpt lat="47.82239" lon="2.04371">
        <ele>143</ele>
        <time>2015-11-01T10:31:31.056Z</time>
      </trkpt>
      <trkpt lat="47.82239" lon="2.04378">
        <ele>143</ele>
        <time>2015-11-01T10:31:30.026Z</time>
      </trkpt>
      <trkpt lat="47.82238" lon="2.04385">
        <ele>143</ele>
        <time>2015-11-01T10:31:29.075Z</time>
      </trkpt>
      <trkpt lat="47.82238" lon="2.04392">
        <ele>143</ele>
        <time>2015-11-01T10:31:28.025Z</time>
      </trkpt>
      <trkpt lat="47.82238" lon="2.044">
        <ele>143</ele>
        <time>2015-11-01T10:31:27.055Z</time>
      </trkpt>
      <trkpt lat="47.82237" lon="2.04408">
        <ele>143</ele>
        <time>2015-11-01T10:31:26.029Z</time>
      </trkpt>
      <trkpt lat="47.82237" lon="2.04417">
        <ele>143</ele>
        <time>2015-11-01T10:31:25.062Z</time>
      </trkpt>
      <trkpt lat="47.82236" lon="2.04425">
        <ele>142</ele>
        <time>2015-11-01T10:31:24.029Z</time>
      </trkpt>
      <trkpt lat="47.82235" lon="2.04433">
        <ele>142</ele>
        <time>2015-11-01T10:31:23.063Z</time>
      </trkpt>
      <trkpt lat="47.82234" lon="2.04441">
        <ele>142</ele>
        <time>2015-11-01T10:31:22.035Z</time>
      </trkpt>
      <trkpt lat="47.82234" lon="2.0445">
        <ele>142</ele>
        <time>2015-11-01T10:31:21.070Z</time>
      </trkpt>
      <trkpt lat="47.82233" lon="2.04458">
        <ele>142</ele>
        <time>2015-11-01T10:31:20.035Z</time>
      </trkpt>
      <trkpt lat="47.82233" lon="2.04467">
        <ele>142</ele>
        <time>2015-11-01T10:31:19.070Z</time>
      </trkpt>
      <trkpt lat="47.82232" lon="2.04475">
        <ele>142</ele>
        <time>2015-11-01T10:31:18.034Z</time>
      </trkpt>
      <trkpt lat="47.82232" lon="2.04483">
        <ele>142</ele>
        <time>2015-11-01T10:31:17.067Z</time>
      </trkpt>
      <trkpt lat="47.82231" lon="2.04491">
        <ele>142</ele>
        <time>2015-11-01T10:31:16.034Z</time>
      </trkpt>
      <trkpt lat="47.82231" lon="2.04499">
        <ele>142</ele>
        <time>2015-11-01T10:31:15.070Z</time>
      </trkpt>
      <trkpt lat="47.8223" lon="2.04507">
        <ele>142</ele>
        <time>2015-11-01T10:31:14.033Z</time>
      </trkpt>
      <trkpt lat="47.82229" lon="2.04515">
        <ele>142</ele>
        <time>2015-11-01T10:31:13.231Z</time>
      </trkpt>
      <trkpt lat="47.82228" lon="2.04523">
        <ele>142</ele>
        <time>2015-11-01T10:31:12.034Z</time>
      </trkpt>
      <trkpt lat="47.82228" lon="2.04531">
        <ele>142</ele>
        <time>2015-11-01T10:31:11.068Z</time>
      </trkpt>
      <trkpt lat="47.82227" lon="2.04539">
        <ele>142</ele>
        <time>2015-11-01T10:31:10.031Z</time>
      </trkpt>
      <trkpt lat="47.82227" lon="2.04548">
        <ele>142</ele>
        <time>2015-11-01T10:31:09.069Z</time>
      </trkpt>
      <trkpt lat="47.82226" lon="2.04556">
        <ele>143</ele>
        <time>2015-11-01T10:31:08.035Z</time>
      </trkpt>
      <trkpt lat="47.82226" lon="2.04564">
        <ele>143</ele>
        <time>2015-11-01T10:31:07.070Z</time>
      </trkpt>
      <trkpt lat="47.82225" lon="2.04572">
        <ele>143</ele>
        <time>2015-11-01T10:31:06.034Z</time>
      </trkpt>
      <trkpt lat="47.82225" lon="2.0458">
        <ele>143</ele>
        <time>2015-11-01T10:31:05.071Z</time>
      </trkpt>
      <trkpt lat="47.82224" lon="2.04589">
        <ele>143</ele>
        <time>2015-11-01T10:31:04.034Z</time>
      </trkpt>
      <trkpt lat="47.82223" lon="2.04597">
        <ele>143</ele>
        <time>2015-11-01T10:31:03.071Z</time>
      </trkpt>
      <trkpt lat="47.82223" lon="2.04605">
        <ele>143</ele>
        <time>2015-11-01T10:31:02.034Z</time>
      </trkpt>
      <trkpt lat="47.82222" lon="2.04613">
        <ele>143</ele>
        <time>2015-11-01T10:31:01.066Z</time>
      </trkpt>
      <trkpt lat="47.82221" lon="2.04622">
        <ele>143</ele>
        <time>2015-11-01T10:31:00.071Z</time>
      </trkpt>
      <trkpt lat="47.82221" lon="2.0463">
        <ele>143</ele>
        <time>2015-11-01T10:30:59.226Z</time>
      </trkpt>
      <trkpt lat="47.8222" lon="2.04637">
        <ele>143</ele>
        <time>2015-11-01T10:30:58.036Z</time>
      </trkpt>
      <trkpt lat="47.82219" lon="2.04645">
        <ele>143</ele>
        <time>2015-11-01T10:30:57.095Z</time>
      </trkpt>
      <trkpt lat="47.82219" lon="2.04653">
        <ele>143</ele>
        <time>2015-11-01T10:30:56.035Z</time>
      </trkpt>
      <trkpt lat="47.82218" lon="2.04662">
        <ele>143</ele>
        <time>2015-11-01T10:30:55.067Z</time>
      </trkpt>
      <trkpt lat="47.82218" lon="2.04671">
        <ele>143</ele>
        <time>2015-11-01T10:30:54.031Z</time>
      </trkpt>
      <trkpt lat="47.82217" lon="2.04679">
        <ele>143</ele>
        <time>2015-11-01T10:30:53.070Z</time>
      </trkpt>
      <trkpt lat="47.82217" lon="2.04688">
        <ele>143</ele>
        <time>2015-11-01T10:30:52.035Z</time>
      </trkpt>
      <trkpt lat="47.82216" lon="2.04697">
        <ele>143</ele>
        <time>2015-11-01T10:30:51.070Z</time>
      </trkpt>
      <trkpt lat="47.82215" lon="2.04707">
        <ele>143</ele>
        <time>2015-11-01T10:30:50.035Z</time>
      </trkpt>
      <trkpt lat="47.82215" lon="2.04716">
        <ele>143</ele>
        <time>2015-11-01T10:30:49.092Z</time>
      </trkpt>
      <trkpt lat="47.82214" lon="2.04725">
        <ele>143</ele>
        <time>2015-11-01T10:30:48.035Z</time>
      </trkpt>
      <trkpt lat="47.82214" lon="2.04734">
        <ele>143</ele>
        <time>2015-11-01T10:30:47.223Z</time>
      </trkpt>
      <trkpt lat="47.82213" lon="2.04743">
        <ele>143</ele>
        <time>2015-11-01T10:30:46.035Z</time>
      </trkpt>
      <trkpt lat="47.82213" lon="2.04751">
        <ele>143</ele>
        <time>2015-11-01T10:30:45.065Z</time>
      </trkpt>
      <trkpt lat="47.82212" lon="2.0476">
        <ele>143</ele>
        <time>2015-11-01T10:30:44.033Z</time>
      </trkpt>
      <trkpt lat="47.82212" lon="2.04769">
        <ele>143</ele>
        <time>2015-11-01T10:30:43.070Z</time>
      </trkpt>
      <trkpt lat="47.82212" lon="2.04778">
        <ele>143</ele>
        <time>2015-11-01T10:30:42.032Z</time>
      </trkpt>
      <trkpt lat="47.82211" lon="2.04787">
        <ele>143</ele>
        <time>2015-11-01T10:30:41.094Z</time>
      </trkpt>
      <trkpt lat="47.8221" lon="2.04795">
        <ele>143</ele>
        <time>2015-11-01T10:30:40.034Z</time>
      </trkpt>
      <trkpt lat="47.8221" lon="2.04804">
        <ele>143</ele>
        <time>2015-11-01T10:30:39.067Z</time>
      </trkpt>
      <trkpt lat="47.82209" lon="2.04813">
        <ele>143</ele>
        <time>2015-11-01T10:30:38.030Z</time>
      </trkpt>
      <trkpt lat="47.82208" lon="2.04822">
        <ele>144</ele>
        <time>2015-11-01T10:30:37.070Z</time>
      </trkpt>
      <trkpt lat="47.82208" lon="2.0483">
        <ele>144</ele>
        <time>2015-11-01T10:30:36.035Z</time>
      </trkpt>
      <trkpt lat="47.82207" lon="2.04839">
        <ele>144</ele>
        <time>2015-11-01T10:30:35.070Z</time>
      </trkpt>
      <trkpt lat="47.82206" lon="2.04847">
        <ele>144</ele>
        <time>2015-11-01T10:30:34.034Z</time>
      </trkpt>
      <trkpt lat="47.82205" lon="2.04856">
        <ele>143</ele>
        <time>2015-11-01T10:30:33.069Z</time>
      </trkpt>
      <trkpt lat="47.82205" lon="2.04865">
        <ele>143</ele>
        <time>2015-11-01T10:30:32.033Z</time>
      </trkpt>
      <trkpt lat="47.82204" lon="2.04874">
        <ele>143</ele>
        <time>2015-11-01T10:30:31.067Z</time>
      </trkpt>
      <trkpt lat="47.82204" lon="2.04882">
        <ele>143</ele>
        <time>2015-11-01T10:30:30.033Z</time>
      </trkpt>
      <trkpt lat="47.82203" lon="2.0489">
        <ele>143</ele>
        <time>2015-11-01T10:30:29.068Z</time>
      </trkpt>
      <trkpt lat="47.82202" lon="2.04898">
        <ele>144</ele>
        <time>2015-11-01T10:30:28.034Z</time>
      </trkpt>
      <trkpt lat="47.82202" lon="2.04907">
        <ele>144</ele>
        <time>2015-11-01T10:30:27.070Z</time>
      </trkpt>
      <trkpt lat="47.82202" lon="2.04916">
        <ele>144</ele>
        <time>2015-11-01T10:30:26.037Z</time>
      </trkpt>
      <trkpt lat="47.82201" lon="2.04926">
        <ele>144</ele>
        <time>2015-11-01T10:30:25.094Z</time>
      </trkpt>
      <trkpt lat="47.82202" lon="2.04935">
        <ele>144</ele>
        <time>2015-11-01T10:30:24.038Z</time>
      </trkpt>
      <trkpt lat="47.82201" lon="2.04945">
        <ele>143</ele>
        <time>2015-11-01T10:30:23.230Z</time>
      </trkpt>
      <trkpt lat="47.822" lon="2.04954">
        <ele>143</ele>
        <time>2015-11-01T10:30:22.030Z</time>
      </trkpt>
      <trkpt lat="47.82199" lon="2.04964">
        <ele>143</ele>
        <time>2015-11-01T10:30:21.071Z</time>
      </trkpt>
      <trkpt lat="47.82199" lon="2.04973">
        <ele>143</ele>
        <time>2015-11-01T10:30:20.034Z</time>
      </trkpt>
      <trkpt lat="47.82197" lon="2.04983">
        <ele>143</ele>
        <time>2015-11-01T10:30:19.071Z</time>
      </trkpt>
      <trkpt lat="47.82196" lon="2.04993">
        <ele>143</ele>
        <time>2015-11-01T10:30:18.035Z</time>
      </trkpt>
      <trkpt lat="47.82196" lon="2.05003">
        <ele>143</ele>
        <time>2015-11-01T10:30:17.070Z</time>
      </trkpt>
      <trkpt lat="47.82195" lon="2.05013">
        <ele>143</ele>
        <time>2015-11-01T10:30:16.035Z</time>
      </trkpt>
      <trkpt lat="47.82194" lon="2.05022">
        <ele>144</ele>
        <time>2015-11-01T10:30:15.121Z</time>
      </trkpt>
      <trkpt lat="47.82194" lon="2.05032">
        <ele>144</ele>
        <time>2015-11-01T10:30:14.035Z</time>
      </trkpt>
      <trkpt lat="47.82193" lon="2.05041">
        <ele>143</ele>
        <time>2015-11-01T10:30:13.067Z</time>
      </trkpt>
      <trkpt lat="47.82192" lon="2.0505">
        <ele>143</ele>
        <time>2015-11-01T10:30:12.034Z</time>
      </trkpt>
      <trkpt lat="47.82192" lon="2.05059">
        <ele>143</ele>
        <time>2015-11-01T10:30:11.070Z</time>
      </trkpt>
      <trkpt lat="47.82191" lon="2.05068">
        <ele>143</ele>
        <time>2015-11-01T10:30:10.035Z</time>
      </trkpt>
      <trkpt lat="47.82191" lon="2.05077">
        <ele>143</ele>
        <time>2015-11-01T10:30:09.071Z</time>
      </trkpt>
      <trkpt lat="47.82191" lon="2.05086">
        <ele>143</ele>
        <time>2015-11-01T10:30:08.035Z</time>
      </trkpt>
      <trkpt lat="47.8219" lon="2.05095">
        <ele>143</ele>
        <time>2015-11-01T10:30:07.068Z</time>
      </trkpt>
      <trkpt lat="47.8219" lon="2.05104">
        <ele>143</ele>
        <time>2015-11-01T10:30:06.030Z</time>
      </trkpt>
      <trkpt lat="47.82189" lon="2.05113">
        <ele>143</ele>
        <time>2015-11-01T10:30:05.069Z</time>
      </trkpt>
      <trkpt lat="47.82189" lon="2.05122">
        <ele>143</ele>
        <time>2015-11-01T10:30:04.034Z</time>
      </trkpt>
      <trkpt lat="47.82188" lon="2.05131">
        <ele>144</ele>
        <time>2015-11-01T10:30:03.069Z</time>
      </trkpt>
      <trkpt lat="47.82188" lon="2.0514">
        <ele>144</ele>
        <time>2015-11-01T10:30:02.035Z</time>
      </trkpt>
      <trkpt lat="47.82186" lon="2.05149">
        <ele>144</ele>
        <time>2015-11-01T10:30:01.070Z</time>
      </trkpt>
      <trkpt lat="47.82183" lon="2.05158">
        <ele>144</ele>
        <time>2015-11-01T10:30:00.071Z</time>
      </trkpt>
      <trkpt lat="47.8218" lon="2.05167">
        <ele>144</ele>
        <time>2015-11-01T10:29:59.095Z</time>
      </trkpt>
      <trkpt lat="47.82177" lon="2.05175">
        <ele>144</ele>
        <time>2015-11-01T10:29:58.035Z</time>
      </trkpt>
      <trkpt lat="47.82173" lon="2.05183">
        <ele>144</ele>
        <time>2015-11-01T10:29:57.069Z</time>
      </trkpt>
      <trkpt lat="47.82169" lon="2.05191">
        <ele>144</ele>
        <time>2015-11-01T10:29:56.036Z</time>
      </trkpt>
      <trkpt lat="47.82165" lon="2.05199">
        <ele>144</ele>
        <time>2015-11-01T10:29:55.070Z</time>
      </trkpt>
      <trkpt lat="47.82161" lon="2.05207">
        <ele>144</ele>
        <time>2015-11-01T10:29:54.035Z</time>
      </trkpt>
      <trkpt lat="47.82156" lon="2.05214">
        <ele>144</ele>
        <time>2015-11-01T10:29:53.071Z</time>
      </trkpt>
      <trkpt lat="47.82152" lon="2.05222">
        <ele>145</ele>
        <time>2015-11-01T10:29:52.036Z</time>
      </trkpt>
      <trkpt lat="47.82148" lon="2.05229">
        <ele>145</ele>
        <time>2015-11-01T10:29:51.070Z</time>
      </trkpt>
      <trkpt lat="47.82144" lon="2.05237">
        <ele>145</ele>
        <time>2015-11-01T10:29:50.031Z</time>
      </trkpt>
      <trkpt lat="47.8214" lon="2.05244">
        <ele>145</ele>
        <time>2015-11-01T10:29:49.071Z</time>
      </trkpt>
      <trkpt lat="47.82136" lon="2.05251">
        <ele>145</ele>
        <time>2015-11-01T10:29:48.035Z</time>
      </trkpt>
      <trkpt lat="47.82132" lon="2.05259">
        <ele>145</ele>
        <time>2015-11-01T10:29:47.069Z</time>
      </trkpt>
      <trkpt lat="47.82128" lon="2.05267">
        <ele>145</ele>
        <time>2015-11-01T10:29:46.036Z</time>
      </trkpt>
      <trkpt lat="47.82124" lon="2.05274">
        <ele>145</ele>
        <time>2015-11-01T10:29:45.068Z</time>
      </trkpt>
      <trkpt lat="47.8212" lon="2.05282">
        <ele>146</ele>
        <time>2015-11-01T10:29:44.030Z</time>
      </trkpt>
      <trkpt lat="47.82116" lon="2.0529">
        <ele>145</ele>
        <time>2015-11-01T10:29:43.076Z</time>
      </trkpt>
      <trkpt lat="47.82111" lon="2.05299">
        <ele>145</ele>
        <time>2015-11-01T10:29:42.026Z</time>
      </trkpt>
      <trkpt lat="47.82106" lon="2.05307">
        <ele>146</ele>
        <time>2015-11-01T10:29:41.056Z</time>
      </trkpt>
      <trkpt lat="47.82102" lon="2.05315">
        <ele>146</ele>
        <time>2015-11-01T10:29:40.028Z</time>
      </trkpt>
      <trkpt lat="47.82098" lon="2.05323">
        <ele>146</ele>
        <time>2015-11-01T10:29:39.056Z</time>
      </trkpt>
      <trkpt lat="47.82093" lon="2.05331">
        <ele>146</ele>
        <time>2015-11-01T10:29:38.027Z</time>
      </trkpt>
      <trkpt lat="47.82089" lon="2.05339">
        <ele>146</ele>
        <time>2015-11-01T10:29:37.055Z</time>
      </trkpt>
      <trkpt lat="47.82085" lon="2.05347">
        <ele>145</ele>
        <time>2015-11-01T10:29:36.026Z</time>
      </trkpt>
      <trkpt lat="47.8208" lon="2.05355">
        <ele>146</ele>
        <time>2015-11-01T10:29:35.109Z</time>
      </trkpt>
      <trkpt lat="47.82076" lon="2.05363">
        <ele>146</ele>
        <time>2015-11-01T10:29:34.033Z</time>
      </trkpt>
      <trkpt lat="47.82072" lon="2.05371">
        <ele>146</ele>
        <time>2015-11-01T10:29:33.071Z</time>
      </trkpt>
      <trkpt lat="47.82068" lon="2.05379">
        <ele>146</ele>
        <time>2015-11-01T10:29:32.041Z</time>
      </trkpt>
      <trkpt lat="47.82064" lon="2.05386">
        <ele>146</ele>
        <time>2015-11-01T10:29:31.185Z</time>
      </trkpt>
      <trkpt lat="47.82059" lon="2.05394">
        <ele>146</ele>
        <time>2015-11-01T10:29:30.034Z</time>
      </trkpt>
      <trkpt lat="47.82055" lon="2.05401">
        <ele>146</ele>
        <time>2015-11-01T10:29:29.071Z</time>
      </trkpt>
      <trkpt lat="47.82051" lon="2.05409">
        <ele>146</ele>
        <time>2015-11-01T10:29:28.034Z</time>
      </trkpt>
      <trkpt lat="47.82047" lon="2.05417">
        <ele>146</ele>
        <time>2015-11-01T10:29:27.102Z</time>
      </trkpt>
      <trkpt lat="47.82043" lon="2.05425">
        <ele>146</ele>
        <time>2015-11-01T10:29:26.038Z</time>
      </trkpt>
      <trkpt lat="47.82039" lon="2.05433">
        <ele>146</ele>
        <time>2015-11-01T10:29:25.075Z</time>
      </trkpt>
      <trkpt lat="47.82034" lon="2.05441">
        <ele>146</ele>
        <time>2015-11-01T10:29:24.036Z</time>
      </trkpt>
      <trkpt lat="47.82031" lon="2.05448">
        <ele>146</ele>
        <time>2015-11-01T10:29:23.069Z</time>
      </trkpt>
      <trkpt lat="47.82026" lon="2.05456">
        <ele>146</ele>
        <time>2015-11-01T10:29:22.034Z</time>
      </trkpt>
      <trkpt lat="47.82022" lon="2.05463">
        <ele>146</ele>
        <time>2015-11-01T10:29:21.071Z</time>
      </trkpt>
      <trkpt lat="47.82018" lon="2.05471">
        <ele>146</ele>
        <time>2015-11-01T10:29:20.035Z</time>
      </trkpt>
      <trkpt lat="47.82014" lon="2.05479">
        <ele>146</ele>
        <time>2015-11-01T10:29:19.089Z</time>
      </trkpt>
      <trkpt lat="47.8201" lon="2.05486">
        <ele>146</ele>
        <time>2015-11-01T10:29:18.030Z</time>
      </trkpt>
      <trkpt lat="47.82006" lon="2.05493">
        <ele>145</ele>
        <time>2015-11-01T10:29:17.071Z</time>
      </trkpt>
      <trkpt lat="47.82002" lon="2.05501">
        <ele>145</ele>
        <time>2015-11-01T10:29:16.034Z</time>
      </trkpt>
      <trkpt lat="47.81998" lon="2.05508">
        <ele>145</ele>
        <time>2015-11-01T10:29:15.068Z</time>
      </trkpt>
      <trkpt lat="47.81994" lon="2.05515">
        <ele>145</ele>
        <time>2015-11-01T10:29:14.035Z</time>
      </trkpt>
      <trkpt lat="47.8199" lon="2.05523">
        <ele>145</ele>
        <time>2015-11-01T10:29:13.071Z</time>
      </trkpt>
      <trkpt lat="47.81986" lon="2.0553">
        <ele>145</ele>
        <time>2015-11-01T10:29:12.035Z</time>
      </trkpt>
      <trkpt lat="47.81982" lon="2.05537">
        <ele>145</ele>
        <time>2015-11-01T10:29:11.093Z</time>
      </trkpt>
      <trkpt lat="47.81978" lon="2.05545">
        <ele>145</ele>
        <time>2015-11-01T10:29:10.035Z</time>
      </trkpt>
      <trkpt lat="47.81974" lon="2.05552">
        <ele>145</ele>
        <time>2015-11-01T10:29:09.067Z</time>
      </trkpt>
      <trkpt lat="47.8197" lon="2.05559">
        <ele>145</ele>
        <time>2015-11-01T10:29:08.034Z</time>
      </trkpt>
      <trkpt lat="47.81966" lon="2.05567">
        <ele>145</ele>
        <time>2015-11-01T10:29:07.070Z</time>
      </trkpt>
      <trkpt lat="47.81962" lon="2.05574">
        <ele>145</ele>
        <time>2015-11-01T10:29:06.036Z</time>
      </trkpt>
      <trkpt lat="47.81958" lon="2.05582">
        <ele>145</ele>
        <time>2015-11-01T10:29:05.071Z</time>
      </trkpt>
      <trkpt lat="47.81954" lon="2.05589">
        <ele>145</ele>
        <time>2015-11-01T10:29:04.035Z</time>
      </trkpt>
      <trkpt lat="47.8195" lon="2.05596">
        <ele>146</ele>
        <time>2015-11-01T10:29:03.069Z</time>
      </trkpt>
      <trkpt lat="47.81946" lon="2.05604">
        <ele>146</ele>
        <time>2015-11-01T10:29:02.031Z</time>
      </trkpt>
      <trkpt lat="47.81942" lon="2.05611">
        <ele>146</ele>
        <time>2015-11-01T10:29:01.069Z</time>
      </trkpt>
      <trkpt lat="47.81938" lon="2.05619">
        <ele>146</ele>
        <time>2015-11-01T10:29:00.071Z</time>
      </trkpt>
      <trkpt lat="47.81934" lon="2.05626">
        <ele>146</ele>
        <time>2015-11-01T10:28:59.069Z</time>
      </trkpt>
      <trkpt lat="47.81931" lon="2.05633">
        <ele>146</ele>
        <time>2015-11-01T10:28:58.034Z</time>
      </trkpt>
      <trkpt lat="47.81927" lon="2.05641">
        <ele>146</ele>
        <time>2015-11-01T10:28:57.093Z</time>
      </trkpt>
      <trkpt lat="47.81923" lon="2.05648">
        <ele>146</ele>
        <time>2015-11-01T10:28:56.034Z</time>
      </trkpt>
      <trkpt lat="47.81919" lon="2.05655">
        <ele>146</ele>
        <time>2015-11-01T10:28:55.229Z</time>
      </trkpt>
      <trkpt lat="47.81915" lon="2.05663">
        <ele>146</ele>
        <time>2015-11-01T10:28:54.033Z</time>
      </trkpt>
      <trkpt lat="47.81911" lon="2.0567">
        <ele>146</ele>
        <time>2015-11-01T10:28:53.067Z</time>
      </trkpt>
      <trkpt lat="47.81907" lon="2.05678">
        <ele>145</ele>
        <time>2015-11-01T10:28:52.045Z</time>
      </trkpt>
      <trkpt lat="47.81903" lon="2.05685">
        <ele>145</ele>
        <time>2015-11-01T10:28:51.069Z</time>
      </trkpt>
      <trkpt lat="47.81899" lon="2.05692">
        <ele>145</ele>
        <time>2015-11-01T10:28:50.035Z</time>
      </trkpt>
      <trkpt lat="47.81895" lon="2.057">
        <ele>145</ele>
        <time>2015-11-01T10:28:49.068Z</time>
      </trkpt>
      <trkpt lat="47.81891" lon="2.05707">
        <ele>145</ele>
        <time>2015-11-01T10:28:48.035Z</time>
      </trkpt>
      <trkpt lat="47.81888" lon="2.05715">
        <ele>146</ele>
        <time>2015-11-01T10:28:47.068Z</time>
      </trkpt>
      <trkpt lat="47.81883" lon="2.05721">
        <ele>146</ele>
        <time>2015-11-01T10:28:46.030Z</time>
      </trkpt>
      <trkpt lat="47.8188" lon="2.05729">
        <ele>146</ele>
        <time>2015-11-01T10:28:45.064Z</time>
      </trkpt>
      <trkpt lat="47.81876" lon="2.05736">
        <ele>146</ele>
        <time>2015-11-01T10:28:44.031Z</time>
      </trkpt>
      <trkpt lat="47.81871" lon="2.05742">
        <ele>146</ele>
        <time>2015-11-01T10:28:43.064Z</time>
      </trkpt>
      <trkpt lat="47.81866" lon="2.05746">
        <ele>146</ele>
        <time>2015-11-01T10:28:42.030Z</time>
      </trkpt>
      <trkpt lat="47.8186" lon="2.05748">
        <ele>146</ele>
        <time>2015-11-01T10:28:41.225Z</time>
      </trkpt>
      <trkpt lat="47.81854" lon="2.05747">
        <ele>146</ele>
        <time>2015-11-01T10:28:40.059Z</time>
      </trkpt>
      <trkpt lat="47.81848" lon="2.05745">
        <ele>145</ele>
        <time>2015-11-01T10:28:39.069Z</time>
      </trkpt>
      <trkpt lat="47.81842" lon="2.05742">
        <ele>145</ele>
        <time>2015-11-01T10:28:38.035Z</time>
      </trkpt>
      <trkpt lat="47.81836" lon="2.0574">
        <ele>145</ele>
        <time>2015-11-01T10:28:37.065Z</time>
      </trkpt>
      <trkpt lat="47.8183" lon="2.05739">
        <ele>145</ele>
        <time>2015-11-01T10:28:36.036Z</time>
      </trkpt>
      <trkpt lat="47.81824" lon="2.05736">
        <ele>145</ele>
        <time>2015-11-01T10:28:35.070Z</time>
      </trkpt>
      <trkpt lat="47.81818" lon="2.05735">
        <ele>145</ele>
        <time>2015-11-01T10:28:34.034Z</time>
      </trkpt>
      <trkpt lat="47.81812" lon="2.05733">
        <ele>145</ele>
        <time>2015-11-01T10:28:33.091Z</time>
      </trkpt>
      <trkpt lat="47.81806" lon="2.0573">
        <ele>145</ele>
        <time>2015-11-01T10:28:32.035Z</time>
      </trkpt>
      <trkpt lat="47.81799" lon="2.05728">
        <ele>145</ele>
        <time>2015-11-01T10:28:31.068Z</time>
      </trkpt>
      <trkpt lat="47.81793" lon="2.05726">
        <ele>145</ele>
        <time>2015-11-01T10:28:30.031Z</time>
      </trkpt>
      <trkpt lat="47.81787" lon="2.05724">
        <ele>145</ele>
        <time>2015-11-01T10:28:29.223Z</time>
      </trkpt>
      <trkpt lat="47.81781" lon="2.05722">
        <ele>145</ele>
        <time>2015-11-01T10:28:28.039Z</time>
      </trkpt>
      <trkpt lat="47.81775" lon="2.05721">
        <ele>145</ele>
        <time>2015-11-01T10:28:27.077Z</time>
      </trkpt>
      <trkpt lat="47.81769" lon="2.05718">
        <ele>145</ele>
        <time>2015-11-01T10:28:26.037Z</time>
      </trkpt>
      <trkpt lat="47.81763" lon="2.05717">
        <ele>144</ele>
        <time>2015-11-01T10:28:25.074Z</time>
      </trkpt>
      <trkpt lat="47.81758" lon="2.05715">
        <ele>144</ele>
        <time>2015-11-01T10:28:24.035Z</time>
      </trkpt>
      <trkpt lat="47.81752" lon="2.05713">
        <ele>144</ele>
        <time>2015-11-01T10:28:23.070Z</time>
      </trkpt>
      <trkpt lat="47.81746" lon="2.05711">
        <ele>144</ele>
        <time>2015-11-01T10:28:22.033Z</time>
      </trkpt>
      <trkpt lat="47.81741" lon="2.05709">
        <ele>144</ele>
        <time>2015-11-01T10:28:21.065Z</time>
      </trkpt>
      <trkpt lat="47.81736" lon="2.05707">
        <ele>145</ele>
        <time>2015-11-01T10:28:20.033Z</time>
      </trkpt>
      <trkpt lat="47.81731" lon="2.05704">
        <ele>144</ele>
        <time>2015-11-01T10:28:19.095Z</time>
      </trkpt>
      <trkpt lat="47.81725" lon="2.05702">
        <ele>144</ele>
        <time>2015-11-01T10:28:18.035Z</time>
      </trkpt>
      <trkpt lat="47.8172" lon="2.05703">
        <ele>144</ele>
        <time>2015-11-01T10:28:17.070Z</time>
      </trkpt>
      <trkpt lat="47.81716" lon="2.05709">
        <ele>144</ele>
        <time>2015-11-01T10:28:16.035Z</time>
      </trkpt>
      <trkpt lat="47.81713" lon="2.05716">
        <ele>144</ele>
        <time>2015-11-01T10:28:15.066Z</time>
      </trkpt>
      <trkpt lat="47.81712" lon="2.05725">
        <ele>144</ele>
        <time>2015-11-01T10:28:14.029Z</time>
      </trkpt>
      <trkpt lat="47.81711" lon="2.05734">
        <ele>144</ele>
        <time>2015-11-01T10:28:13.069Z</time>
      </trkpt>
      <trkpt lat="47.81709" lon="2.05744">
        <ele>144</ele>
        <time>2015-11-01T10:28:12.035Z</time>
      </trkpt>
      <trkpt lat="47.81708" lon="2.05753">
        <ele>144</ele>
        <time>2015-11-01T10:28:11.067Z</time>
      </trkpt>
      <trkpt lat="47.81707" lon="2.05762">
        <ele>144</ele>
        <time>2015-11-01T10:28:10.029Z</time>
      </trkpt>
      <trkpt lat="47.81705" lon="2.05772">
        <ele>144</ele>
        <time>2015-11-01T10:28:09.072Z</time>
      </trkpt>
      <trkpt lat="47.81703" lon="2.05781">
        <ele>144</ele>
        <time>2015-11-01T10:28:08.033Z</time>
      </trkpt>
      <trkpt lat="47.81702" lon="2.05791">
        <ele>144</ele>
        <time>2015-11-01T10:28:07.069Z</time>
      </trkpt>
      <trkpt lat="47.817" lon="2.058">
        <ele>144</ele>
        <time>2015-11-01T10:28:06.034Z</time>
      </trkpt>
      <trkpt lat="47.81699" lon="2.0581">
        <ele>144</ele>
        <time>2015-11-01T10:28:05.221Z</time>
      </trkpt>
      <trkpt lat="47.81697" lon="2.0582">
        <ele>143</ele>
        <time>2015-11-01T10:28:04.034Z</time>
      </trkpt>
      <trkpt lat="47.81696" lon="2.05829">
        <ele>144</ele>
        <time>2015-11-01T10:28:03.094Z</time>
      </trkpt>
      <trkpt lat="47.81694" lon="2.05838">
        <ele>144</ele>
        <time>2015-11-01T10:28:02.034Z</time>
      </trkpt>
      <trkpt lat="47.81692" lon="2.05847">
        <ele>144</ele>
        <time>2015-11-01T10:28:01.069Z</time>
      </trkpt>
      <trkpt lat="47.81692" lon="2.05857">
        <ele>143</ele>
        <time>2015-11-01T10:28:00.072Z</time>
      </trkpt>
      <trkpt lat="47.81692" lon="2.05866">
        <ele>143</ele>
        <time>2015-11-01T10:27:59.069Z</time>
      </trkpt>
      <trkpt lat="47.81693" lon="2.05875">
        <ele>143</ele>
        <time>2015-11-01T10:27:58.028Z</time>
      </trkpt>
      <trkpt lat="47.81694" lon="2.05884">
        <ele>143</ele>
        <time>2015-11-01T10:27:57.057Z</time>
      </trkpt>
      <trkpt lat="47.81696" lon="2.05892">
        <ele>143</ele>
        <time>2015-11-01T10:27:56.026Z</time>
      </trkpt>
      <trkpt lat="47.81697" lon="2.05901">
        <ele>143</ele>
        <time>2015-11-01T10:27:55.055Z</time>
      </trkpt>
      <trkpt lat="47.81699" lon="2.05909">
        <ele>143</ele>
        <time>2015-11-01T10:27:54.026Z</time>
      </trkpt>
      <trkpt lat="47.817" lon="2.05919">
        <ele>143</ele>
        <time>2015-11-01T10:27:53.055Z</time>
      </trkpt>
      <trkpt lat="47.81702" lon="2.05928">
        <ele>142</ele>
        <time>2015-11-01T10:27:52.025Z</time>
      </trkpt>
      <trkpt lat="47.81703" lon="2.05938">
        <ele>143</ele>
        <time>2015-11-01T10:27:51.055Z</time>
      </trkpt>
      <trkpt lat="47.81704" lon="2.05947">
        <ele>143</ele>
        <time>2015-11-01T10:27:50.026Z</time>
      </trkpt>
      <trkpt lat="47.81706" lon="2.05957">
        <ele>144</ele>
        <time>2015-11-01T10:27:49.062Z</time>
      </trkpt>
      <trkpt lat="47.81708" lon="2.05966">
        <ele>144</ele>
        <time>2015-11-01T10:27:48.034Z</time>
      </trkpt>
      <trkpt lat="47.8171" lon="2.05975">
        <ele>144</ele>
        <time>2015-11-01T10:27:47.114Z</time>
      </trkpt>
      <trkpt lat="47.81711" lon="2.05984">
        <ele>144</ele>
        <time>2015-11-01T10:27:46.038Z</time>
      </trkpt>
      <trkpt lat="47.81712" lon="2.05993">
        <ele>144</ele>
        <time>2015-11-01T10:27:45.074Z</time>
      </trkpt>
      <trkpt lat="47.81713" lon="2.06002">
        <ele>143</ele>
        <time>2015-11-01T10:27:44.038Z</time>
      </trkpt>
      <trkpt lat="47.81715" lon="2.06011">
        <ele>143</ele>
        <time>2015-11-01T10:27:43.230Z</time>
      </trkpt>
      <trkpt lat="47.81716" lon="2.06021">
        <ele>143</ele>
        <time>2015-11-01T10:27:42.032Z</time>
      </trkpt>
      <trkpt lat="47.81718" lon="2.06031">
        <ele>143</ele>
        <time>2015-11-01T10:27:41.074Z</time>
      </trkpt>
      <trkpt lat="47.81719" lon="2.06041">
        <ele>143</ele>
        <time>2015-11-01T10:27:40.035Z</time>
      </trkpt>
      <trkpt lat="47.8172" lon="2.06052">
        <ele>143</ele>
        <time>2015-11-01T10:27:39.071Z</time>
      </trkpt>
      <trkpt lat="47.81722" lon="2.06061">
        <ele>143</ele>
        <time>2015-11-01T10:27:38.038Z</time>
      </trkpt>
      <trkpt lat="47.81723" lon="2.06072">
        <ele>143</ele>
        <time>2015-11-01T10:27:37.072Z</time>
      </trkpt>
      <trkpt lat="47.81725" lon="2.06081">
        <ele>143</ele>
        <time>2015-11-01T10:27:36.036Z</time>
      </trkpt>
      <trkpt lat="47.81726" lon="2.06091">
        <ele>143</ele>
        <time>2015-11-01T10:27:35.070Z</time>
      </trkpt>
      <trkpt lat="47.81728" lon="2.06101">
        <ele>142</ele>
        <time>2015-11-01T10:27:34.036Z</time>
      </trkpt>
      <trkpt lat="47.81729" lon="2.06111">
        <ele>143</ele>
        <time>2015-11-01T10:27:33.068Z</time>
      </trkpt>
      <trkpt lat="47.81731" lon="2.06121">
        <ele>143</ele>
        <time>2015-11-01T10:27:32.032Z</time>
      </trkpt>
      <trkpt lat="47.81733" lon="2.06131">
        <ele>143</ele>
        <time>2015-11-01T10:27:31.096Z</time>
      </trkpt>
      <trkpt lat="47.81734" lon="2.06141">
        <ele>143</ele>
        <time>2015-11-01T10:27:30.035Z</time>
      </trkpt>
      <trkpt lat="47.81736" lon="2.06151">
        <ele>143</ele>
        <time>2015-11-01T10:27:29.076Z</time>
      </trkpt>
      <trkpt lat="47.81737" lon="2.06162">
        <ele>143</ele>
        <time>2015-11-01T10:27:28.038Z</time>
      </trkpt>
      <trkpt lat="47.81739" lon="2.06174">
        <ele>143</ele>
        <time>2015-11-01T10:27:27.074Z</time>
      </trkpt>
      <trkpt lat="47.81741" lon="2.06185">
        <ele>143</ele>
        <time>2015-11-01T10:27:26.031Z</time>
      </trkpt>
      <trkpt lat="47.81743" lon="2.06197">
        <ele>144</ele>
        <time>2015-11-01T10:27:25.068Z</time>
      </trkpt>
      <trkpt lat="47.81744" lon="2.06208">
        <ele>143</ele>
        <time>2015-11-01T10:27:24.025Z</time>
      </trkpt>
      <trkpt lat="47.81743" lon="2.0622">
        <ele>143</ele>
        <time>2015-11-01T10:27:23.056Z</time>
      </trkpt>
      <trkpt lat="47.81741" lon="2.06231">
        <ele>143</ele>
        <time>2015-11-01T10:27:22.027Z</time>
      </trkpt>
      <trkpt lat="47.81736" lon="2.0624">
        <ele>143</ele>
        <time>2015-11-01T10:27:21.057Z</time>
      </trkpt>
      <trkpt lat="47.81731" lon="2.06248">
        <ele>143</ele>
        <time>2015-11-01T10:27:20.028Z</time>
      </trkpt>
      <trkpt lat="47.81726" lon="2.06256">
        <ele>143</ele>
        <time>2015-11-01T10:27:19.137Z</time>
      </trkpt>
      <trkpt lat="47.8172" lon="2.06265">
        <ele>143</ele>
        <time>2015-11-01T10:27:18.026Z</time>
      </trkpt>
      <trkpt lat="47.81715" lon="2.06274">
        <ele>144</ele>
        <time>2015-11-01T10:27:17.056Z</time>
      </trkpt>
      <trkpt lat="47.8171" lon="2.06282">
        <ele>143</ele>
        <time>2015-11-01T10:27:16.025Z</time>
      </trkpt>
      <trkpt lat="47.81704" lon="2.0629">
        <ele>144</ele>
        <time>2015-11-01T10:27:15.079Z</time>
      </trkpt>
      <trkpt lat="47.81698" lon="2.06299">
        <ele>144</ele>
        <time>2015-11-01T10:27:14.035Z</time>
      </trkpt>
      <trkpt lat="47.81693" lon="2.06308">
        <ele>143</ele>
        <time>2015-11-01T10:27:13.069Z</time>
      </trkpt>
      <trkpt lat="47.81688" lon="2.06316">
        <ele>143</ele>
        <time>2015-11-01T10:27:12.035Z</time>
      </trkpt>
      <trkpt lat="47.81682" lon="2.06324">
        <ele>143</ele>
        <time>2015-11-01T10:27:11.068Z</time>
      </trkpt>
      <trkpt lat="47.81677" lon="2.06333">
        <ele>144</ele>
        <time>2015-11-01T10:27:10.031Z</time>
      </trkpt>
      <trkpt lat="47.81671" lon="2.06342">
        <ele>143</ele>
        <time>2015-11-01T10:27:09.071Z</time>
      </trkpt>
      <trkpt lat="47.81666" lon="2.06351">
        <ele>143</ele>
        <time>2015-11-01T10:27:08.034Z</time>
      </trkpt>
      <trkpt lat="47.8166" lon="2.06359">
        <ele>143</ele>
        <time>2015-11-01T10:27:07.071Z</time>
      </trkpt>
      <trkpt lat="47.81655" lon="2.06368">
        <ele>143</ele>
        <time>2015-11-01T10:27:06.032Z</time>
      </trkpt>
      <trkpt lat="47.81649" lon="2.06377">
        <ele>143</ele>
        <time>2015-11-01T10:27:05.068Z</time>
      </trkpt>
      <trkpt lat="47.81644" lon="2.06385">
        <ele>143</ele>
        <time>2015-11-01T10:27:04.034Z</time>
      </trkpt>
      <trkpt lat="47.81638" lon="2.06394">
        <ele>143</ele>
        <time>2015-11-01T10:27:03.069Z</time>
      </trkpt>
      <trkpt lat="47.81632" lon="2.06403">
        <ele>143</ele>
        <time>2015-11-01T10:27:02.035Z</time>
      </trkpt>
      <trkpt lat="47.81626" lon="2.06412">
        <ele>143</ele>
        <time>2015-11-01T10:27:01.066Z</time>
      </trkpt>
      <trkpt lat="47.81621" lon="2.0642">
        <ele>143</ele>
        <time>2015-11-01T10:27:00.069Z</time>
      </trkpt>
      <trkpt lat="47.81615" lon="2.06429">
        <ele>143</ele>
        <time>2015-11-01T10:26:59.093Z</time>
      </trkpt>
      <trkpt lat="47.8161" lon="2.06438">
        <ele>143</ele>
        <time>2015-11-01T10:26:58.033Z</time>
      </trkpt>
      <trkpt lat="47.81604" lon="2.06447">
        <ele>143</ele>
        <time>2015-11-01T10:26:57.069Z</time>
      </trkpt>
      <trkpt lat="47.81599" lon="2.06456">
        <ele>143</ele>
        <time>2015-11-01T10:26:56.034Z</time>
      </trkpt>
      <trkpt lat="47.81593" lon="2.06465">
        <ele>143</ele>
        <time>2015-11-01T10:26:55.072Z</time>
      </trkpt>
      <trkpt lat="47.81587" lon="2.06474">
        <ele>143</ele>
        <time>2015-11-01T10:26:54.028Z</time>
      </trkpt>
      <trkpt lat="47.81582" lon="2.06483">
        <ele>143</ele>
        <time>2015-11-01T10:26:53.057Z</time>
      </trkpt>
      <trkpt lat="47.81576" lon="2.06492">
        <ele>143</ele>
        <time>2015-11-01T10:26:52.026Z</time>
      </trkpt>
      <trkpt lat="47.81571" lon="2.065">
        <ele>143</ele>
        <time>2015-11-01T10:26:51.056Z</time>
      </trkpt>
      <trkpt lat="47.81566" lon="2.06509">
        <ele>143</ele>
        <time>2015-11-01T10:26:50.027Z</time>
      </trkpt>
      <trkpt lat="47.8156" lon="2.06518">
        <ele>144</ele>
        <time>2015-11-01T10:26:49.056Z</time>
      </trkpt>
      <trkpt lat="47.81554" lon="2.06526">
        <ele>144</ele>
        <time>2015-11-01T10:26:48.027Z</time>
      </trkpt>
      <trkpt lat="47.81549" lon="2.06535">
        <ele>144</ele>
        <time>2015-11-01T10:26:47.056Z</time>
      </trkpt>
      <trkpt lat="47.81543" lon="2.06543">
        <ele>144</ele>
        <time>2015-11-01T10:26:46.024Z</time>
      </trkpt>
      <trkpt lat="47.81538" lon="2.06551">
        <ele>144</ele>
        <time>2015-11-01T10:26:45.055Z</time>
      </trkpt>
      <trkpt lat="47.81533" lon="2.0656">
        <ele>144</ele>
        <time>2015-11-01T10:26:44.032Z</time>
      </trkpt>
      <trkpt lat="47.81527" lon="2.06568">
        <ele>144</ele>
        <time>2015-11-01T10:26:43.097Z</time>
      </trkpt>
      <trkpt lat="47.81522" lon="2.06577">
        <ele>144</ele>
        <time>2015-11-01T10:26:42.036Z</time>
      </trkpt>
      <trkpt lat="47.81517" lon="2.06585">
        <ele>143</ele>
        <time>2015-11-01T10:26:41.230Z</time>
      </trkpt>
      <trkpt lat="47.81512" lon="2.06594">
        <ele>143</ele>
        <time>2015-11-01T10:26:40.034Z</time>
      </trkpt>
      <trkpt lat="47.81506" lon="2.06602">
        <ele>143</ele>
        <time>2015-11-01T10:26:39.069Z</time>
      </trkpt>
      <trkpt lat="47.81501" lon="2.0661">
        <ele>143</ele>
        <time>2015-11-01T10:26:38.031Z</time>
      </trkpt>
      <trkpt lat="47.81495" lon="2.06619">
        <ele>143</ele>
        <time>2015-11-01T10:26:37.070Z</time>
      </trkpt>
      <trkpt lat="47.8149" lon="2.06628">
        <ele>143</ele>
        <time>2015-11-01T10:26:36.033Z</time>
      </trkpt>
      <trkpt lat="47.81484" lon="2.06636">
        <ele>143</ele>
        <time>2015-11-01T10:26:35.073Z</time>
      </trkpt>
      <trkpt lat="47.81478" lon="2.06644">
        <ele>143</ele>
        <time>2015-11-01T10:26:34.036Z</time>
      </trkpt>
      <trkpt lat="47.81472" lon="2.06652">
        <ele>143</ele>
        <time>2015-11-01T10:26:33.123Z</time>
      </trkpt>
      <trkpt lat="47.81465" lon="2.06659">
        <ele>143</ele>
        <time>2015-11-01T10:26:32.034Z</time>
      </trkpt>
      <trkpt lat="47.81459" lon="2.06666">
        <ele>143</ele>
        <time>2015-11-01T10:26:31.072Z</time>
      </trkpt>
      <trkpt lat="47.81453" lon="2.06673">
        <ele>143</ele>
        <time>2015-11-01T10:26:30.028Z</time>
      </trkpt>
      <trkpt lat="47.81447" lon="2.0668">
        <ele>143</ele>
        <time>2015-11-01T10:26:29.074Z</time>
      </trkpt>
      <trkpt lat="47.81441" lon="2.06688">
        <ele>143</ele>
        <time>2015-11-01T10:26:28.037Z</time>
      </trkpt>
      <trkpt lat="47.81436" lon="2.06697">
        <ele>143</ele>
        <time>2015-11-01T10:26:27.101Z</time>
      </trkpt>
      <trkpt lat="47.8143" lon="2.06706">
        <ele>143</ele>
        <time>2015-11-01T10:26:26.033Z</time>
      </trkpt>
      <trkpt lat="47.81426" lon="2.06715">
        <ele>143</ele>
        <time>2015-11-01T10:26:25.071Z</time>
      </trkpt>
      <trkpt lat="47.81422" lon="2.06725">
        <ele>143</ele>
        <time>2015-11-01T10:26:24.034Z</time>
      </trkpt>
      <trkpt lat="47.81418" lon="2.06735">
        <ele>143</ele>
        <time>2015-11-01T10:26:23.069Z</time>
      </trkpt>
      <trkpt lat="47.81413" lon="2.06745">
        <ele>143</ele>
        <time>2015-11-01T10:26:22.030Z</time>
      </trkpt>
      <trkpt lat="47.8141" lon="2.06755">
        <ele>143</ele>
        <time>2015-11-01T10:26:21.072Z</time>
      </trkpt>
      <trkpt lat="47.81406" lon="2.06764">
        <ele>143</ele>
        <time>2015-11-01T10:26:20.030Z</time>
      </trkpt>
      <trkpt lat="47.81403" lon="2.06775">
        <ele>143</ele>
        <time>2015-11-01T10:26:19.082Z</time>
      </trkpt>
      <trkpt lat="47.814" lon="2.06785">
        <ele>143</ele>
        <time>2015-11-01T10:26:18.034Z</time>
      </trkpt>
      <trkpt lat="47.81397" lon="2.06795">
        <ele>143</ele>
        <time>2015-11-01T10:26:17.071Z</time>
      </trkpt>
      <trkpt lat="47.81394" lon="2.06806">
        <ele>143</ele>
        <time>2015-11-01T10:26:16.035Z</time>
      </trkpt>
      <trkpt lat="47.8139" lon="2.06815">
        <ele>143</ele>
        <time>2015-11-01T10:26:15.072Z</time>
      </trkpt>
      <trkpt lat="47.81387" lon="2.06825">
        <ele>143</ele>
        <time>2015-11-01T10:26:14.033Z</time>
      </trkpt>
      <trkpt lat="47.81384" lon="2.06836">
        <ele>143</ele>
        <time>2015-11-01T10:26:13.069Z</time>
      </trkpt>
      <trkpt lat="47.81381" lon="2.06846">
        <ele>143</ele>
        <time>2015-11-01T10:26:12.033Z</time>
      </trkpt>
      <trkpt lat="47.81378" lon="2.06856">
        <ele>143</ele>
        <time>2015-11-01T10:26:11.099Z</time>
      </trkpt>
      <trkpt lat="47.81375" lon="2.06866">
        <ele>143</ele>
        <time>2015-11-01T10:26:10.034Z</time>
      </trkpt>
      <trkpt lat="47.81372" lon="2.06876">
        <ele>143</ele>
        <time>2015-11-01T10:26:09.070Z</time>
      </trkpt>
      <trkpt lat="47.81369" lon="2.06886">
        <ele>143</ele>
        <time>2015-11-01T10:26:08.035Z</time>
      </trkpt>
      <trkpt lat="47.81366" lon="2.06895">
        <ele>143</ele>
        <time>2015-11-01T10:26:07.241Z</time>
      </trkpt>
      <trkpt lat="47.81363" lon="2.06906">
        <ele>143</ele>
        <time>2015-11-01T10:26:06.031Z</time>
      </trkpt>
      <trkpt lat="47.8136" lon="2.06916">
        <ele>143</ele>
        <time>2015-11-01T10:26:05.072Z</time>
      </trkpt>
      <trkpt lat="47.81356" lon="2.06926">
        <ele>143</ele>
        <time>2015-11-01T10:26:04.034Z</time>
      </trkpt>
      <trkpt lat="47.81353" lon="2.06936">
        <ele>143</ele>
        <time>2015-11-01T10:26:03.072Z</time>
      </trkpt>
      <trkpt lat="47.8135" lon="2.06946">
        <ele>143</ele>
        <time>2015-11-01T10:26:02.035Z</time>
      </trkpt>
      <trkpt lat="47.81347" lon="2.06956">
        <ele>143</ele>
        <time>2015-11-01T10:26:01.070Z</time>
      </trkpt>
      <trkpt lat="47.81344" lon="2.06966">
        <ele>143</ele>
        <time>2015-11-01T10:26:00.072Z</time>
      </trkpt>
      <trkpt lat="47.81341" lon="2.06976">
        <ele>143</ele>
        <time>2015-11-01T10:25:59.070Z</time>
      </trkpt>
      <trkpt lat="47.81338" lon="2.06986">
        <ele>143</ele>
        <time>2015-11-01T10:25:58.034Z</time>
      </trkpt>
      <trkpt lat="47.81335" lon="2.06996">
        <ele>143</ele>
        <time>2015-11-01T10:25:57.090Z</time>
      </trkpt>
      <trkpt lat="47.81332" lon="2.07006">
        <ele>143</ele>
        <time>2015-11-01T10:25:56.034Z</time>
      </trkpt>
      <trkpt lat="47.81328" lon="2.07015">
        <ele>143</ele>
        <time>2015-11-01T10:25:55.095Z</time>
      </trkpt>
      <trkpt lat="47.81325" lon="2.07024">
        <ele>143</ele>
        <time>2015-11-01T10:25:54.033Z</time>
      </trkpt>
      <trkpt lat="47.81322" lon="2.07035">
        <ele>143</ele>
        <time>2015-11-01T10:25:53.068Z</time>
      </trkpt>
      <trkpt lat="47.8132" lon="2.07045">
        <ele>143</ele>
        <time>2015-11-01T10:25:52.035Z</time>
      </trkpt>
      <trkpt lat="47.81317" lon="2.07054">
        <ele>143</ele>
        <time>2015-11-01T10:25:51.068Z</time>
      </trkpt>
      <trkpt lat="47.81314" lon="2.07064">
        <ele>143</ele>
        <time>2015-11-01T10:25:50.029Z</time>
      </trkpt>
      <trkpt lat="47.81311" lon="2.07073">
        <ele>143</ele>
        <time>2015-11-01T10:25:49.069Z</time>
      </trkpt>
      <trkpt lat="47.81308" lon="2.07083">
        <ele>143</ele>
        <time>2015-11-01T10:25:48.025Z</time>
      </trkpt>
      <trkpt lat="47.81305" lon="2.07093">
        <ele>143</ele>
        <time>2015-11-01T10:25:47.059Z</time>
      </trkpt>
      <trkpt lat="47.81302" lon="2.07103">
        <ele>143</ele>
        <time>2015-11-01T10:25:46.026Z</time>
      </trkpt>
      <trkpt lat="47.81299" lon="2.07113">
        <ele>143</ele>
        <time>2015-11-01T10:25:45.058Z</time>
      </trkpt>
      <trkpt lat="47.81296" lon="2.07123">
        <ele>144</ele>
        <time>2015-11-01T10:25:44.025Z</time>
      </trkpt>
      <trkpt lat="47.81292" lon="2.07134">
        <ele>144</ele>
        <time>2015-11-01T10:25:43.056Z</time>
      </trkpt>
      <trkpt lat="47.81289" lon="2.07143">
        <ele>144</ele>
        <time>2015-11-01T10:25:42.027Z</time>
      </trkpt>
      <trkpt lat="47.81286" lon="2.07153">
        <ele>144</ele>
        <time>2015-11-01T10:25:41.057Z</time>
      </trkpt>
      <trkpt lat="47.81283" lon="2.07162">
        <ele>144</ele>
        <time>2015-11-01T10:25:40.025Z</time>
      </trkpt>
      <trkpt lat="47.8128" lon="2.07169">
        <ele>144</ele>
        <time>2015-11-01T10:25:39.062Z</time>
      </trkpt>
      <trkpt lat="47.81277" lon="2.07176">
        <ele>144</ele>
        <time>2015-11-01T10:25:38.033Z</time>
      </trkpt>
      <trkpt lat="47.81276" lon="2.07183">
        <ele>143</ele>
        <time>2015-11-01T10:25:37.058Z</time>
      </trkpt>
      <trkpt lat="47.81278" lon="2.0719">
        <ele>143</ele>
        <time>2015-11-01T10:25:36.026Z</time>
      </trkpt>
      <trkpt lat="47.81281" lon="2.07195">
        <ele>143</ele>
        <time>2015-11-01T10:25:35.058Z</time>
      </trkpt>
      <trkpt lat="47.81286" lon="2.07197">
        <ele>143</ele>
        <time>2015-11-01T10:25:34.024Z</time>
      </trkpt>
      <trkpt lat="47.81291" lon="2.07199">
        <ele>143</ele>
        <time>2015-11-01T10:25:33.056Z</time>
      </trkpt>
      <trkpt lat="47.81297" lon="2.07201">
        <ele>143</ele>
        <time>2015-11-01T10:25:32.025Z</time>
      </trkpt>
      <trkpt lat="47.81303" lon="2.07202">
        <ele>143</ele>
        <time>2015-11-01T10:25:31.075Z</time>
      </trkpt>
      <trkpt lat="47.81309" lon="2.07203">
        <ele>143</ele>
        <time>2015-11-01T10:25:30.024Z</time>
      </trkpt>
      <trkpt lat="47.81315" lon="2.07205">
        <ele>143</ele>
        <time>2015-11-01T10:25:29.065Z</time>
      </trkpt>
      <trkpt lat="47.81322" lon="2.07206">
        <ele>143</ele>
        <time>2015-11-01T10:25:28.035Z</time>
      </trkpt>
      <trkpt lat="47.81328" lon="2.07208">
        <ele>143</ele>
        <time>2015-11-01T10:25:27.065Z</time>
      </trkpt>
      <trkpt lat="47.81335" lon="2.0721">
        <ele>143</ele>
        <time>2015-11-01T10:25:26.060Z</time>
      </trkpt>
      <trkpt lat="47.81342" lon="2.07212">
        <ele>143</ele>
        <time>2015-11-01T10:25:25.059Z</time>
      </trkpt>
      <trkpt lat="47.81349" lon="2.07213">
        <ele>143</ele>
        <time>2015-11-01T10:25:24.032Z</time>
      </trkpt>
      <trkpt lat="47.81356" lon="2.07214">
        <ele>143</ele>
        <time>2015-11-01T10:25:23.073Z</time>
      </trkpt>
      <trkpt lat="47.81363" lon="2.07216">
        <ele>143</ele>
        <time>2015-11-01T10:25:22.034Z</time>
      </trkpt>
      <trkpt lat="47.8137" lon="2.07218">
        <ele>143</ele>
        <time>2015-11-01T10:25:21.073Z</time>
      </trkpt>
      <trkpt lat="47.81377" lon="2.0722">
        <ele>143</ele>
        <time>2015-11-01T10:25:20.034Z</time>
      </trkpt>
      <trkpt lat="47.81384" lon="2.07222">
        <ele>143</ele>
        <time>2015-11-01T10:25:19.073Z</time>
      </trkpt>
      <trkpt lat="47.81391" lon="2.07224">
        <ele>143</ele>
        <time>2015-11-01T10:25:18.034Z</time>
      </trkpt>
      <trkpt lat="47.81398" lon="2.07225">
        <ele>143</ele>
        <time>2015-11-01T10:25:17.071Z</time>
      </trkpt>
      <trkpt lat="47.81405" lon="2.07227">
        <ele>143</ele>
        <time>2015-11-01T10:25:16.026Z</time>
      </trkpt>
      <trkpt lat="47.81412" lon="2.07229">
        <ele>143</ele>
        <time>2015-11-01T10:25:15.062Z</time>
      </trkpt>
      <trkpt lat="47.8142" lon="2.0723">
        <ele>143</ele>
        <time>2015-11-01T10:25:14.035Z</time>
      </trkpt>
      <trkpt lat="47.81427" lon="2.07232">
        <ele>143</ele>
        <time>2015-11-01T10:25:13.072Z</time>
      </trkpt>
      <trkpt lat="47.81434" lon="2.07235">
        <ele>143</ele>
        <time>2015-11-01T10:25:12.034Z</time>
      </trkpt>
      <trkpt lat="47.81442" lon="2.07237">
        <ele>143</ele>
        <time>2015-11-01T10:25:11.071Z</time>
      </trkpt>
      <trkpt lat="47.81449" lon="2.07238">
        <ele>143</ele>
        <time>2015-11-01T10:25:10.033Z</time>
      </trkpt>
      <trkpt lat="47.81456" lon="2.0724">
        <ele>143</ele>
        <time>2015-11-01T10:25:09.063Z</time>
      </trkpt>
      <trkpt lat="47.81462" lon="2.07241">
        <ele>143</ele>
        <time>2015-11-01T10:25:08.061Z</time>
      </trkpt>
      <trkpt lat="47.81469" lon="2.07243">
        <ele>143</ele>
        <time>2015-11-01T10:25:07.074Z</time>
      </trkpt>
      <trkpt lat="47.81476" lon="2.07245">
        <ele>143</ele>
        <time>2015-11-01T10:25:06.036Z</time>
      </trkpt>
      <trkpt lat="47.81483" lon="2.07247">
        <ele>144</ele>
        <time>2015-11-01T10:25:05.062Z</time>
      </trkpt>
      <trkpt lat="47.8149" lon="2.07249">
        <ele>144</ele>
        <time>2015-11-01T10:25:04.034Z</time>
      </trkpt>
      <trkpt lat="47.81497" lon="2.07251">
        <ele>144</ele>
        <time>2015-11-01T10:25:03.071Z</time>
      </trkpt>
      <trkpt lat="47.81504" lon="2.07253">
        <ele>144</ele>
        <time>2015-11-01T10:25:02.034Z</time>
      </trkpt>
      <trkpt lat="47.81511" lon="2.07255">
        <ele>144</ele>
        <time>2015-11-01T10:25:01.071Z</time>
      </trkpt>
      <trkpt lat="47.81518" lon="2.07256">
        <ele>144</ele>
        <time>2015-11-01T10:25:00.066Z</time>
      </trkpt>
      <trkpt lat="47.81525" lon="2.07258">
        <ele>144</ele>
        <time>2015-11-01T10:24:59.069Z</time>
      </trkpt>
      <trkpt lat="47.81532" lon="2.0726">
        <ele>144</ele>
        <time>2015-11-01T10:24:58.036Z</time>
      </trkpt>
      <trkpt lat="47.8154" lon="2.07262">
        <ele>143</ele>
        <time>2015-11-01T10:24:57.071Z</time>
      </trkpt>
      <trkpt lat="47.81547" lon="2.07264">
        <ele>144</ele>
        <time>2015-11-01T10:24:56.030Z</time>
      </trkpt>
      <trkpt lat="47.81554" lon="2.07266">
        <ele>144</ele>
        <time>2015-11-01T10:24:55.071Z</time>
      </trkpt>
      <trkpt lat="47.81561" lon="2.07268">
        <ele>144</ele>
        <time>2015-11-01T10:24:54.030Z</time>
      </trkpt>
      <trkpt lat="47.81569" lon="2.07269">
        <ele>144</ele>
        <time>2015-11-01T10:24:53.070Z</time>
      </trkpt>
      <trkpt lat="47.81576" lon="2.07271">
        <ele>144</ele>
        <time>2015-11-01T10:24:52.035Z</time>
      </trkpt>
      <trkpt lat="47.81583" lon="2.07273">
        <ele>144</ele>
        <time>2015-11-01T10:24:51.071Z</time>
      </trkpt>
      <trkpt lat="47.81591" lon="2.07275">
        <ele>144</ele>
        <time>2015-11-01T10:24:50.033Z</time>
      </trkpt>
      <trkpt lat="47.81598" lon="2.07276">
        <ele>144</ele>
        <time>2015-11-01T10:24:49.075Z</time>
      </trkpt>
      <trkpt lat="47.81605" lon="2.07277">
        <ele>144</ele>
        <time>2015-11-01T10:24:48.033Z</time>
      </trkpt>
      <trkpt lat="47.81612" lon="2.07279">
        <ele>145</ele>
        <time>2015-11-01T10:24:47.092Z</time>
      </trkpt>
      <trkpt lat="47.81619" lon="2.07281">
        <ele>144</ele>
        <time>2015-11-01T10:24:46.034Z</time>
      </trkpt>
      <trkpt lat="47.81626" lon="2.07283">
        <ele>145</ele>
        <time>2015-11-01T10:24:45.076Z</time>
      </trkpt>
      <trkpt lat="47.81634" lon="2.07285">
        <ele>144</ele>
        <time>2015-11-01T10:24:44.017Z</time>
      </trkpt>
      <trkpt lat="47.81641" lon="2.07287">
        <ele>145</ele>
        <time>2015-11-01T10:24:43.055Z</time>
      </trkpt>
      <trkpt lat="47.81648" lon="2.07289">
        <ele>145</ele>
        <time>2015-11-01T10:24:42.026Z</time>
      </trkpt>
      <trkpt lat="47.81656" lon="2.07291">
        <ele>145</ele>
        <time>2015-11-01T10:24:41.076Z</time>
      </trkpt>
      <trkpt lat="47.81663" lon="2.07293">
        <ele>145</ele>
        <time>2015-11-01T10:24:40.027Z</time>
      </trkpt>
      <trkpt lat="47.8167" lon="2.07295">
        <ele>144</ele>
        <time>2015-11-01T10:24:39.058Z</time>
      </trkpt>
      <trkpt lat="47.81677" lon="2.07296">
        <ele>144</ele>
        <time>2015-11-01T10:24:38.025Z</time>
      </trkpt>
      <trkpt lat="47.81684" lon="2.07298">
        <ele>145</ele>
        <time>2015-11-01T10:24:37.059Z</time>
      </trkpt>
      <trkpt lat="47.81691" lon="2.073">
        <ele>145</ele>
        <time>2015-11-01T10:24:36.028Z</time>
      </trkpt>
      <trkpt lat="47.81698" lon="2.07302">
        <ele>145</ele>
        <time>2015-11-01T10:24:35.077Z</time>
      </trkpt>
      <trkpt lat="47.81705" lon="2.07304">
        <ele>145</ele>
        <time>2015-11-01T10:24:34.030Z</time>
      </trkpt>
      <trkpt lat="47.81711" lon="2.07306">
        <ele>145</ele>
        <time>2015-11-01T10:24:33.072Z</time>
      </trkpt>
      <trkpt lat="47.81718" lon="2.07307">
        <ele>145</ele>
        <time>2015-11-01T10:24:32.034Z</time>
      </trkpt>
      <trkpt lat="47.81725" lon="2.07308">
        <ele>145</ele>
        <time>2015-11-01T10:24:31.130Z</time>
      </trkpt>
      <trkpt lat="47.81732" lon="2.0731">
        <ele>144</ele>
        <time>2015-11-01T10:24:30.030Z</time>
      </trkpt>
      <trkpt lat="47.81739" lon="2.07311">
        <ele>145</ele>
        <time>2015-11-01T10:24:29.077Z</time>
      </trkpt>
      <trkpt lat="47.81746" lon="2.07312">
        <ele>144</ele>
        <time>2015-11-01T10:24:28.034Z</time>
      </trkpt>
      <trkpt lat="47.81753" lon="2.07314">
        <ele>145</ele>
        <time>2015-11-01T10:24:27.075Z</time>
      </trkpt>
      <trkpt lat="47.8176" lon="2.07316">
        <ele>144</ele>
        <time>2015-11-01T10:24:26.033Z</time>
      </trkpt>
      <trkpt lat="47.81768" lon="2.07318">
        <ele>144</ele>
        <time>2015-11-01T10:24:25.069Z</time>
      </trkpt>
      <trkpt lat="47.81775" lon="2.07319">
        <ele>144</ele>
        <time>2015-11-01T10:24:24.032Z</time>
      </trkpt>
      <trkpt lat="47.81782" lon="2.07321">
        <ele>144</ele>
        <time>2015-11-01T10:24:23.069Z</time>
      </trkpt>
      <trkpt lat="47.8179" lon="2.07323">
        <ele>144</ele>
        <time>2015-11-01T10:24:22.035Z</time>
      </trkpt>
      <trkpt lat="47.81797" lon="2.07325">
        <ele>144</ele>
        <time>2015-11-01T10:24:21.068Z</time>
      </trkpt>
      <trkpt lat="47.81804" lon="2.07327">
        <ele>144</ele>
        <time>2015-11-01T10:24:20.034Z</time>
      </trkpt>
      <trkpt lat="47.81812" lon="2.07329">
        <ele>144</ele>
        <time>2015-11-01T10:24:19.070Z</time>
      </trkpt>
      <trkpt lat="47.81819" lon="2.07331">
        <ele>144</ele>
        <time>2015-11-01T10:24:18.034Z</time>
      </trkpt>
      <trkpt lat="47.81826" lon="2.07333">
        <ele>144</ele>
        <time>2015-11-01T10:24:17.068Z</time>
      </trkpt>
      <trkpt lat="47.81834" lon="2.07334">
        <ele>144</ele>
        <time>2015-11-01T10:24:16.029Z</time>
      </trkpt>
      <trkpt lat="47.81841" lon="2.07337">
        <ele>144</ele>
        <time>2015-11-01T10:24:15.068Z</time>
      </trkpt>
      <trkpt lat="47.81847" lon="2.07341">
        <ele>144</ele>
        <time>2015-11-01T10:24:14.030Z</time>
      </trkpt>
      <trkpt lat="47.81852" lon="2.07347">
        <ele>144</ele>
        <time>2015-11-01T10:24:13.070Z</time>
      </trkpt>
      <trkpt lat="47.81857" lon="2.07355">
        <ele>144</ele>
        <time>2015-11-01T10:24:12.035Z</time>
      </trkpt>
      <trkpt lat="47.81861" lon="2.07363">
        <ele>144</ele>
        <time>2015-11-01T10:24:11.072Z</time>
      </trkpt>
      <trkpt lat="47.81865" lon="2.07372">
        <ele>144</ele>
        <time>2015-11-01T10:24:10.057Z</time>
      </trkpt>
      <trkpt lat="47.8187" lon="2.07381">
        <ele>144</ele>
        <time>2015-11-01T10:24:09.062Z</time>
      </trkpt>
      <trkpt lat="47.81874" lon="2.07389">
        <ele>144</ele>
        <time>2015-11-01T10:24:08.031Z</time>
      </trkpt>
      <trkpt lat="47.81878" lon="2.07398">
        <ele>144</ele>
        <time>2015-11-01T10:24:07.219Z</time>
      </trkpt>
      <trkpt lat="47.81882" lon="2.07407">
        <ele>143</ele>
        <time>2015-11-01T10:24:06.034Z</time>
      </trkpt>
      <trkpt lat="47.81887" lon="2.07416">
        <ele>143</ele>
        <time>2015-11-01T10:24:05.068Z</time>
      </trkpt>
      <trkpt lat="47.81891" lon="2.07425">
        <ele>143</ele>
        <time>2015-11-01T10:24:04.036Z</time>
      </trkpt>
      <trkpt lat="47.81895" lon="2.07434">
        <ele>143</ele>
        <time>2015-11-01T10:24:03.070Z</time>
      </trkpt>
      <trkpt lat="47.81899" lon="2.07443">
        <ele>143</ele>
        <time>2015-11-01T10:24:02.035Z</time>
      </trkpt>
      <trkpt lat="47.81903" lon="2.07452">
        <ele>144</ele>
        <time>2015-11-01T10:24:01.071Z</time>
      </trkpt>
      <trkpt lat="47.81907" lon="2.07461">
        <ele>144</ele>
        <time>2015-11-01T10:24:00.062Z</time>
      </trkpt>
      <trkpt lat="47.81911" lon="2.0747">
        <ele>143</ele>
        <time>2015-11-01T10:23:59.092Z</time>
      </trkpt>
      <trkpt lat="47.81915" lon="2.07479">
        <ele>143</ele>
        <time>2015-11-01T10:23:58.031Z</time>
      </trkpt>
      <trkpt lat="47.81919" lon="2.07487">
        <ele>143</ele>
        <time>2015-11-01T10:23:57.069Z</time>
      </trkpt>
      <trkpt lat="47.81923" lon="2.07496">
        <ele>143</ele>
        <time>2015-11-01T10:23:56.036Z</time>
      </trkpt>
      <trkpt lat="47.81927" lon="2.07505">
        <ele>144</ele>
        <time>2015-11-01T10:23:55.072Z</time>
      </trkpt>
      <trkpt lat="47.81931" lon="2.07514">
        <ele>144</ele>
        <time>2015-11-01T10:23:54.035Z</time>
      </trkpt>
      <trkpt lat="47.81936" lon="2.07522">
        <ele>144</ele>
        <time>2015-11-01T10:23:53.094Z</time>
      </trkpt>
      <trkpt lat="47.8194" lon="2.07531">
        <ele>144</ele>
        <time>2015-11-01T10:23:52.036Z</time>
      </trkpt>
      <trkpt lat="47.81944" lon="2.0754">
        <ele>144</ele>
        <time>2015-11-01T10:23:51.071Z</time>
      </trkpt>
      <trkpt lat="47.81948" lon="2.07548">
        <ele>144</ele>
        <time>2015-11-01T10:23:50.037Z</time>
      </trkpt>
      <trkpt lat="47.81952" lon="2.07557">
        <ele>144</ele>
        <time>2015-11-01T10:23:49.123Z</time>
      </trkpt>
      <trkpt lat="47.81957" lon="2.07566">
        <ele>144</ele>
        <time>2015-11-01T10:23:48.035Z</time>
      </trkpt>
      <trkpt lat="47.81961" lon="2.07575">
        <ele>144</ele>
        <time>2015-11-01T10:23:47.071Z</time>
      </trkpt>
      <trkpt lat="47.81965" lon="2.07583">
        <ele>144</ele>
        <time>2015-11-01T10:23:46.034Z</time>
      </trkpt>
      <trkpt lat="47.81969" lon="2.07592">
        <ele>144</ele>
        <time>2015-11-01T10:23:45.063Z</time>
      </trkpt>
      <trkpt lat="47.81974" lon="2.07602">
        <ele>144</ele>
        <time>2015-11-01T10:23:44.032Z</time>
      </trkpt>
      <trkpt lat="47.81978" lon="2.0761">
        <ele>144</ele>
        <time>2015-11-01T10:23:43.064Z</time>
      </trkpt>
      <trkpt lat="47.81983" lon="2.07619">
        <ele>144</ele>
        <time>2015-11-01T10:23:42.031Z</time>
      </trkpt>
      <trkpt lat="47.81987" lon="2.07629">
        <ele>144</ele>
        <time>2015-11-01T10:23:41.226Z</time>
      </trkpt>
      <trkpt lat="47.81991" lon="2.07638">
        <ele>144</ele>
        <time>2015-11-01T10:23:40.035Z</time>
      </trkpt>
      <trkpt lat="47.81996" lon="2.07647">
        <ele>144</ele>
        <time>2015-11-01T10:23:39.071Z</time>
      </trkpt>
      <trkpt lat="47.82" lon="2.07656">
        <ele>144</ele>
        <time>2015-11-01T10:23:38.035Z</time>
      </trkpt>
      <trkpt lat="47.82004" lon="2.07665">
        <ele>144</ele>
        <time>2015-11-01T10:23:37.068Z</time>
      </trkpt>
      <trkpt lat="47.82009" lon="2.07674">
        <ele>144</ele>
        <time>2015-11-01T10:23:36.036Z</time>
      </trkpt>
      <trkpt lat="47.82013" lon="2.07683">
        <ele>144</ele>
        <time>2015-11-01T10:23:35.068Z</time>
      </trkpt>
      <trkpt lat="47.82017" lon="2.07693">
        <ele>144</ele>
        <time>2015-11-01T10:23:34.030Z</time>
      </trkpt>
      <trkpt lat="47.82022" lon="2.07702">
        <ele>144</ele>
        <time>2015-11-01T10:23:33.091Z</time>
      </trkpt>
      <trkpt lat="47.82026" lon="2.07711">
        <ele>144</ele>
        <time>2015-11-01T10:23:32.034Z</time>
      </trkpt>
      <trkpt lat="47.82031" lon="2.0772">
        <ele>144</ele>
        <time>2015-11-01T10:23:31.076Z</time>
      </trkpt>
      <trkpt lat="47.82035" lon="2.0773">
        <ele>144</ele>
        <time>2015-11-01T10:23:30.036Z</time>
      </trkpt>
      <trkpt lat="47.82039" lon="2.0774">
        <ele>144</ele>
        <time>2015-11-01T10:23:29.077Z</time>
      </trkpt>
      <trkpt lat="47.82043" lon="2.0775">
        <ele>144</ele>
        <time>2015-11-01T10:23:28.034Z</time>
      </trkpt>
      <trkpt lat="47.82047" lon="2.0776">
        <ele>144</ele>
        <time>2015-11-01T10:23:27.069Z</time>
      </trkpt>
      <trkpt lat="47.82051" lon="2.07769">
        <ele>144</ele>
        <time>2015-11-01T10:23:26.029Z</time>
      </trkpt>
      <trkpt lat="47.82056" lon="2.07779">
        <ele>144</ele>
        <time>2015-11-01T10:23:25.070Z</time>
      </trkpt>
      <trkpt lat="47.82059" lon="2.07789">
        <ele>144</ele>
        <time>2015-11-01T10:23:24.036Z</time>
      </trkpt>
      <trkpt lat="47.82062" lon="2.07799">
        <ele>144</ele>
        <time>2015-11-01T10:23:23.066Z</time>
      </trkpt>
      <trkpt lat="47.82064" lon="2.0781">
        <ele>144</ele>
        <time>2015-11-01T10:23:22.034Z</time>
      </trkpt>
      <trkpt lat="47.82067" lon="2.0782">
        <ele>144</ele>
        <time>2015-11-01T10:23:21.070Z</time>
      </trkpt>
      <trkpt lat="47.82071" lon="2.07829">
        <ele>144</ele>
        <time>2015-11-01T10:23:20.033Z</time>
      </trkpt>
      <trkpt lat="47.82075" lon="2.07838">
        <ele>144</ele>
        <time>2015-11-01T10:23:19.071Z</time>
      </trkpt>
      <trkpt lat="47.82079" lon="2.07848">
        <ele>143</ele>
        <time>2015-11-01T10:23:18.036Z</time>
      </trkpt>
      <trkpt lat="47.82082" lon="2.07858">
        <ele>143</ele>
        <time>2015-11-01T10:23:17.241Z</time>
      </trkpt>
      <trkpt lat="47.82085" lon="2.07868">
        <ele>143</ele>
        <time>2015-11-01T10:23:16.036Z</time>
      </trkpt>
      <trkpt lat="47.82088" lon="2.07879">
        <ele>143</ele>
        <time>2015-11-01T10:23:15.071Z</time>
      </trkpt>
      <trkpt lat="47.82091" lon="2.07889">
        <ele>143</ele>
        <time>2015-11-01T10:23:14.035Z</time>
      </trkpt>
      <trkpt lat="47.82094" lon="2.079">
        <ele>143</ele>
        <time>2015-11-01T10:23:13.091Z</time>
      </trkpt>
      <trkpt lat="47.82096" lon="2.07911">
        <ele>143</ele>
        <time>2015-11-01T10:23:12.035Z</time>
      </trkpt>
      <trkpt lat="47.82097" lon="2.07923">
        <ele>143</ele>
        <time>2015-11-01T10:23:11.067Z</time>
      </trkpt>
      <trkpt lat="47.82097" lon="2.07934">
        <ele>144</ele>
        <time>2015-11-01T10:23:10.030Z</time>
      </trkpt>
      <trkpt lat="47.82098" lon="2.07946">
        <ele>144</ele>
        <time>2015-11-01T10:23:09.070Z</time>
      </trkpt>
      <trkpt lat="47.82099" lon="2.07957">
        <ele>144</ele>
        <time>2015-11-01T10:23:08.033Z</time>
      </trkpt>
      <trkpt lat="47.82099" lon="2.07969">
        <ele>143</ele>
        <time>2015-11-01T10:23:07.095Z</time>
      </trkpt>
      <trkpt lat="47.821" lon="2.07981">
        <ele>143</ele>
        <time>2015-11-01T10:23:06.035Z</time>
      </trkpt>
      <trkpt lat="47.821" lon="2.07992">
        <ele>144</ele>
        <time>2015-11-01T10:23:05.226Z</time>
      </trkpt>
      <trkpt lat="47.821" lon="2.08003">
        <ele>144</ele>
        <time>2015-11-01T10:23:04.035Z</time>
      </trkpt>
      <trkpt lat="47.82101" lon="2.08015">
        <ele>144</ele>
        <time>2015-11-01T10:23:03.069Z</time>
      </trkpt>
      <trkpt lat="47.82102" lon="2.08026">
        <ele>144</ele>
        <time>2015-11-01T10:23:02.036Z</time>
      </trkpt>
      <trkpt lat="47.82102" lon="2.08038">
        <ele>144</ele>
        <time>2015-11-01T10:23:01.088Z</time>
      </trkpt>
      <trkpt lat="47.82103" lon="2.08049">
        <ele>144</ele>
        <time>2015-11-01T10:23:00.064Z</time>
      </trkpt>
      <trkpt lat="47.82104" lon="2.08061">
        <ele>144</ele>
        <time>2015-11-01T10:22:59.069Z</time>
      </trkpt>
      <trkpt lat="47.82106" lon="2.08072">
        <ele>144</ele>
        <time>2015-11-01T10:22:58.034Z</time>
      </trkpt>
      <trkpt lat="47.82108" lon="2.08084">
        <ele>144</ele>
        <time>2015-11-01T10:22:57.068Z</time>
      </trkpt>
      <trkpt lat="47.82111" lon="2.08094">
        <ele>144</ele>
        <time>2015-11-01T10:22:56.035Z</time>
      </trkpt>
      <trkpt lat="47.82114" lon="2.08105">
        <ele>144</ele>
        <time>2015-11-01T10:22:55.070Z</time>
      </trkpt>
      <trkpt lat="47.82118" lon="2.08113">
        <ele>144</ele>
        <time>2015-11-01T10:22:54.031Z</time>
      </trkpt>
      <trkpt lat="47.82122" lon="2.08123">
        <ele>144</ele>
        <time>2015-11-01T10:22:53.056Z</time>
      </trkpt>
      <trkpt lat="47.82127" lon="2.08132">
        <ele>144</ele>
        <time>2015-11-01T10:22:52.035Z</time>
      </trkpt>
      <trkpt lat="47.82131" lon="2.08142">
        <ele>144</ele>
        <time>2015-11-01T10:22:51.070Z</time>
      </trkpt>
      <trkpt lat="47.82135" lon="2.08152">
        <ele>144</ele>
        <time>2015-11-01T10:22:50.033Z</time>
      </trkpt>
      <trkpt lat="47.8214" lon="2.08161">
        <ele>144</ele>
        <time>2015-11-01T10:22:49.071Z</time>
      </trkpt>
      <trkpt lat="47.82144" lon="2.08171">
        <ele>144</ele>
        <time>2015-11-01T10:22:48.034Z</time>
      </trkpt>
      <trkpt lat="47.82148" lon="2.08181">
        <ele>144</ele>
        <time>2015-11-01T10:22:47.072Z</time>
      </trkpt>
      <trkpt lat="47.82153" lon="2.0819">
        <ele>144</ele>
        <time>2015-11-01T10:22:46.035Z</time>
      </trkpt>
      <trkpt lat="47.82157" lon="2.082">
        <ele>144</ele>
        <time>2015-11-01T10:22:45.092Z</time>
      </trkpt>
      <trkpt lat="47.82162" lon="2.08209">
        <ele>144</ele>
        <time>2015-11-01T10:22:44.035Z</time>
      </trkpt>
      <trkpt lat="47.82166" lon="2.08219">
        <ele>144</ele>
        <time>2015-11-01T10:22:43.072Z</time>
      </trkpt>
      <trkpt lat="47.8217" lon="2.08228">
        <ele>144</ele>
        <time>2015-11-01T10:22:42.035Z</time>
      </trkpt>
      <trkpt lat="47.82175" lon="2.08238">
        <ele>145</ele>
        <time>2015-11-01T10:22:41.069Z</time>
      </trkpt>
      <trkpt lat="47.82179" lon="2.08247">
        <ele>145</ele>
        <time>2015-11-01T10:22:40.036Z</time>
      </trkpt>
      <trkpt lat="47.82183" lon="2.08256">
        <ele>145</ele>
        <time>2015-11-01T10:22:39.069Z</time>
      </trkpt>
      <trkpt lat="47.82188" lon="2.08265">
        <ele>145</ele>
        <time>2015-11-01T10:22:38.031Z</time>
      </trkpt>
      <trkpt lat="47.82192" lon="2.08275">
        <ele>145</ele>
        <time>2015-11-01T10:22:37.071Z</time>
      </trkpt>
      <trkpt lat="47.82196" lon="2.08284">
        <ele>144</ele>
        <time>2015-11-01T10:22:36.034Z</time>
      </trkpt>
      <trkpt lat="47.82201" lon="2.08293">
        <ele>145</ele>
        <time>2015-11-01T10:22:35.085Z</time>
      </trkpt>
      <trkpt lat="47.82205" lon="2.08302">
        <ele>145</ele>
        <time>2015-11-01T10:22:34.034Z</time>
      </trkpt>
      <trkpt lat="47.82209" lon="2.08312">
        <ele>145</ele>
        <time>2015-11-01T10:22:33.070Z</time>
      </trkpt>
      <trkpt lat="47.82213" lon="2.08322">
        <ele>144</ele>
        <time>2015-11-01T10:22:32.038Z</time>
      </trkpt>
      <trkpt lat="47.82218" lon="2.08331">
        <ele>145</ele>
        <time>2015-11-01T10:22:31.072Z</time>
      </trkpt>
      <trkpt lat="47.82222" lon="2.08341">
        <ele>145</ele>
        <time>2015-11-01T10:22:30.038Z</time>
      </trkpt>
      <trkpt lat="47.82226" lon="2.0835">
        <ele>145</ele>
        <time>2015-11-01T10:22:29.097Z</time>
      </trkpt>
      <trkpt lat="47.82231" lon="2.08359">
        <ele>144</ele>
        <time>2015-11-01T10:22:28.034Z</time>
      </trkpt>
      <trkpt lat="47.82235" lon="2.08368">
        <ele>144</ele>
        <time>2015-11-01T10:22:27.069Z</time>
      </trkpt>
      <trkpt lat="47.82239" lon="2.08377">
        <ele>145</ele>
        <time>2015-11-01T10:22:26.034Z</time>
      </trkpt>
      <trkpt lat="47.82243" lon="2.08386">
        <ele>145</ele>
        <time>2015-11-01T10:22:25.069Z</time>
      </trkpt>
      <trkpt lat="47.82248" lon="2.08395">
        <ele>145</ele>
        <time>2015-11-01T10:22:24.032Z</time>
      </trkpt>
      <trkpt lat="47.82252" lon="2.08404">
        <ele>145</ele>
        <time>2015-11-01T10:22:23.069Z</time>
      </trkpt>
      <trkpt lat="47.82256" lon="2.08414">
        <ele>145</ele>
        <time>2015-11-01T10:22:22.030Z</time>
      </trkpt>
      <trkpt lat="47.82261" lon="2.08423">
        <ele>145</ele>
        <time>2015-11-01T10:22:21.071Z</time>
      </trkpt>
      <trkpt lat="47.82265" lon="2.08433">
        <ele>145</ele>
        <time>2015-11-01T10:22:20.036Z</time>
      </trkpt>
      <trkpt lat="47.82269" lon="2.08442">
        <ele>145</ele>
        <time>2015-11-01T10:22:19.071Z</time>
      </trkpt>
      <trkpt lat="47.82273" lon="2.08451">
        <ele>145</ele>
        <time>2015-11-01T10:22:18.036Z</time>
      </trkpt>
      <trkpt lat="47.82277" lon="2.0846">
        <ele>145</ele>
        <time>2015-11-01T10:22:17.070Z</time>
      </trkpt>
      <trkpt lat="47.82281" lon="2.08469">
        <ele>145</ele>
        <time>2015-11-01T10:22:16.036Z</time>
      </trkpt>
      <trkpt lat="47.82285" lon="2.08478">
        <ele>145</ele>
        <time>2015-11-01T10:22:15.069Z</time>
      </trkpt>
      <trkpt lat="47.82289" lon="2.08486">
        <ele>145</ele>
        <time>2015-11-01T10:22:14.034Z</time>
      </trkpt>
      <trkpt lat="47.82293" lon="2.08495">
        <ele>145</ele>
        <time>2015-11-01T10:22:13.090Z</time>
      </trkpt>
      <trkpt lat="47.82298" lon="2.08504">
        <ele>145</ele>
        <time>2015-11-01T10:22:12.033Z</time>
      </trkpt>
      <trkpt lat="47.82302" lon="2.08513">
        <ele>145</ele>
        <time>2015-11-01T10:22:11.071Z</time>
      </trkpt>
      <trkpt lat="47.82306" lon="2.08522">
        <ele>145</ele>
        <time>2015-11-01T10:22:10.034Z</time>
      </trkpt>
      <trkpt lat="47.8231" lon="2.08531">
        <ele>145</ele>
        <time>2015-11-01T10:22:09.070Z</time>
      </trkpt>
      <trkpt lat="47.82315" lon="2.08541">
        <ele>145</ele>
        <time>2015-11-01T10:22:08.035Z</time>
      </trkpt>
      <trkpt lat="47.82319" lon="2.0855">
        <ele>145</ele>
        <time>2015-11-01T10:22:07.067Z</time>
      </trkpt>
      <trkpt lat="47.82323" lon="2.0856">
        <ele>145</ele>
        <time>2015-11-01T10:22:06.031Z</time>
      </trkpt>
      <trkpt lat="47.82328" lon="2.08569">
        <ele>145</ele>
        <time>2015-11-01T10:22:05.070Z</time>
      </trkpt>
      <trkpt lat="47.82332" lon="2.08579">
        <ele>145</ele>
        <time>2015-11-01T10:22:04.035Z</time>
      </trkpt>
      <trkpt lat="47.82337" lon="2.08587">
        <ele>145</ele>
        <time>2015-11-01T10:22:03.071Z</time>
      </trkpt>
      <trkpt lat="47.82341" lon="2.08596">
        <ele>145</ele>
        <time>2015-11-01T10:22:02.035Z</time>
      </trkpt>
      <trkpt lat="47.82345" lon="2.08606">
        <ele>145</ele>
        <time>2015-11-01T10:22:01.072Z</time>
      </trkpt>
      <trkpt lat="47.82349" lon="2.08615">
        <ele>145</ele>
        <time>2015-11-01T10:22:00.140Z</time>
      </trkpt>
      <trkpt lat="47.82353" lon="2.08623">
        <ele>145</ele>
        <time>2015-11-01T10:21:59.124Z</time>
      </trkpt>
      <trkpt lat="47.82357" lon="2.08632">
        <ele>145</ele>
        <time>2015-11-01T10:21:58.033Z</time>
      </trkpt>
      <trkpt lat="47.82361" lon="2.08641">
        <ele>145</ele>
        <time>2015-11-01T10:21:57.089Z</time>
      </trkpt>
      <trkpt lat="47.82365" lon="2.0865">
        <ele>146</ele>
        <time>2015-11-01T10:21:56.035Z</time>
      </trkpt>
      <trkpt lat="47.82369" lon="2.08659">
        <ele>146</ele>
        <time>2015-11-01T10:21:55.069Z</time>
      </trkpt>
      <trkpt lat="47.82373" lon="2.08668">
        <ele>146</ele>
        <time>2015-11-01T10:21:54.034Z</time>
      </trkpt>
      <trkpt lat="47.82377" lon="2.08677">
        <ele>146</ele>
        <time>2015-11-01T10:21:53.071Z</time>
      </trkpt>
      <trkpt lat="47.82381" lon="2.08685">
        <ele>146</ele>
        <time>2015-11-01T10:21:52.035Z</time>
      </trkpt>
      <trkpt lat="47.82385" lon="2.08694">
        <ele>146</ele>
        <time>2015-11-01T10:21:51.069Z</time>
      </trkpt>
      <trkpt lat="47.82389" lon="2.08703">
        <ele>146</ele>
        <time>2015-11-01T10:21:50.031Z</time>
      </trkpt>
      <trkpt lat="47.82393" lon="2.08712">
        <ele>146</ele>
        <time>2015-11-01T10:21:49.071Z</time>
      </trkpt>
      <trkpt lat="47.82397" lon="2.0872">
        <ele>146</ele>
        <time>2015-11-01T10:21:48.035Z</time>
      </trkpt>
      <trkpt lat="47.82401" lon="2.08729">
        <ele>146</ele>
        <time>2015-11-01T10:21:47.070Z</time>
      </trkpt>
      <trkpt lat="47.82405" lon="2.08738">
        <ele>146</ele>
        <time>2015-11-01T10:21:46.035Z</time>
      </trkpt>
      <trkpt lat="47.8241" lon="2.08747">
        <ele>146</ele>
        <time>2015-11-01T10:21:45.069Z</time>
      </trkpt>
      <trkpt lat="47.82414" lon="2.08756">
        <ele>146</ele>
        <time>2015-11-01T10:21:44.035Z</time>
      </trkpt>
      <trkpt lat="47.82418" lon="2.08764">
        <ele>145</ele>
        <time>2015-11-01T10:21:43.070Z</time>
      </trkpt>
      <trkpt lat="47.82422" lon="2.08773">
        <ele>145</ele>
        <time>2015-11-01T10:21:42.035Z</time>
      </trkpt>
      <trkpt lat="47.82426" lon="2.08782">
        <ele>145</ele>
        <time>2015-11-01T10:21:41.090Z</time>
      </trkpt>
      <trkpt lat="47.8243" lon="2.0879">
        <ele>145</ele>
        <time>2015-11-01T10:21:40.034Z</time>
      </trkpt>
      <trkpt lat="47.82435" lon="2.08799">
        <ele>145</ele>
        <time>2015-11-01T10:21:39.071Z</time>
      </trkpt>
      <trkpt lat="47.82439" lon="2.08808">
        <ele>145</ele>
        <time>2015-11-01T10:21:38.033Z</time>
      </trkpt>
      <trkpt lat="47.82443" lon="2.08816">
        <ele>145</ele>
        <time>2015-11-01T10:21:37.070Z</time>
      </trkpt>
      <trkpt lat="47.82447" lon="2.08825">
        <ele>145</ele>
        <time>2015-11-01T10:21:36.034Z</time>
      </trkpt>
      <trkpt lat="47.82451" lon="2.08834">
        <ele>145</ele>
        <time>2015-11-01T10:21:35.068Z</time>
      </trkpt>
      <trkpt lat="47.82455" lon="2.08842">
        <ele>145</ele>
        <time>2015-11-01T10:21:34.030Z</time>
      </trkpt>
      <trkpt lat="47.82459" lon="2.08851">
        <ele>145</ele>
        <time>2015-11-01T10:21:33.075Z</time>
      </trkpt>
      <trkpt lat="47.82463" lon="2.08859">
        <ele>144</ele>
        <time>2015-11-01T10:21:32.036Z</time>
      </trkpt>
      <trkpt lat="47.82467" lon="2.08869">
        <ele>144</ele>
        <time>2015-11-01T10:21:31.074Z</time>
      </trkpt>
      <trkpt lat="47.82471" lon="2.08877">
        <ele>144</ele>
        <time>2015-11-01T10:21:30.036Z</time>
      </trkpt>
      <trkpt lat="47.82475" lon="2.08886">
        <ele>144</ele>
        <time>2015-11-01T10:21:29.071Z</time>
      </trkpt>
      <trkpt lat="47.82479" lon="2.08895">
        <ele>144</ele>
        <time>2015-11-01T10:21:28.034Z</time>
      </trkpt>
      <trkpt lat="47.82483" lon="2.08903">
        <ele>144</ele>
        <time>2015-11-01T10:21:27.070Z</time>
      </trkpt>
      <trkpt lat="47.82487" lon="2.08912">
        <ele>144</ele>
        <time>2015-11-01T10:21:26.034Z</time>
      </trkpt>
      <trkpt lat="47.82491" lon="2.08921">
        <ele>144</ele>
        <time>2015-11-01T10:21:25.119Z</time>
      </trkpt>
      <trkpt lat="47.82494" lon="2.08929">
        <ele>143</ele>
        <time>2015-11-01T10:21:24.033Z</time>
      </trkpt>
      <trkpt lat="47.82498" lon="2.08938">
        <ele>143</ele>
        <time>2015-11-01T10:21:23.070Z</time>
      </trkpt>
      <trkpt lat="47.82502" lon="2.08946">
        <ele>143</ele>
        <time>2015-11-01T10:21:22.033Z</time>
      </trkpt>
      <trkpt lat="47.82506" lon="2.08954">
        <ele>144</ele>
        <time>2015-11-01T10:21:21.057Z</time>
      </trkpt>
      <trkpt lat="47.8251" lon="2.08962">
        <ele>143</ele>
        <time>2015-11-01T10:21:20.026Z</time>
      </trkpt>
      <trkpt lat="47.82514" lon="2.08971">
        <ele>143</ele>
        <time>2015-11-01T10:21:19.056Z</time>
      </trkpt>
      <trkpt lat="47.82518" lon="2.08979">
        <ele>143</ele>
        <time>2015-11-01T10:21:18.027Z</time>
      </trkpt>
      <trkpt lat="47.82522" lon="2.08987">
        <ele>143</ele>
        <time>2015-11-01T10:21:17.057Z</time>
      </trkpt>
      <trkpt lat="47.82526" lon="2.08996">
        <ele>143</ele>
        <time>2015-11-01T10:21:16.025Z</time>
      </trkpt>
      <trkpt lat="47.8253" lon="2.09004">
        <ele>143</ele>
        <time>2015-11-01T10:21:15.078Z</time>
      </trkpt>
      <trkpt lat="47.82534" lon="2.09012">
        <ele>144</ele>
        <time>2015-11-01T10:21:14.027Z</time>
      </trkpt>
      <trkpt lat="47.82538" lon="2.0902">
        <ele>143</ele>
        <time>2015-11-01T10:21:13.211Z</time>
      </trkpt>
      <trkpt lat="47.82541" lon="2.09028">
        <ele>143</ele>
        <time>2015-11-01T10:21:12.031Z</time>
      </trkpt>
      <trkpt lat="47.82545" lon="2.09037">
        <ele>143</ele>
        <time>2015-11-01T10:21:11.063Z</time>
      </trkpt>
      <trkpt lat="47.82549" lon="2.09045">
        <ele>143</ele>
        <time>2015-11-01T10:21:10.034Z</time>
      </trkpt>
      <trkpt lat="47.82553" lon="2.09053">
        <ele>143</ele>
        <time>2015-11-01T10:21:09.068Z</time>
      </trkpt>
      <trkpt lat="47.82557" lon="2.09061">
        <ele>143</ele>
        <time>2015-11-01T10:21:08.035Z</time>
      </trkpt>
      <trkpt lat="47.82561" lon="2.09069">
        <ele>143</ele>
        <time>2015-11-01T10:21:07.071Z</time>
      </trkpt>
      <trkpt lat="47.82565" lon="2.09078">
        <ele>143</ele>
        <time>2015-11-01T10:21:06.034Z</time>
      </trkpt>
      <trkpt lat="47.82569" lon="2.09086">
        <ele>143</ele>
        <time>2015-11-01T10:21:05.070Z</time>
      </trkpt>
      <trkpt lat="47.82573" lon="2.09094">
        <ele>144</ele>
        <time>2015-11-01T10:21:04.035Z</time>
      </trkpt>
      <trkpt lat="47.82576" lon="2.09103">
        <ele>144</ele>
        <time>2015-11-01T10:21:03.067Z</time>
      </trkpt>
      <trkpt lat="47.82579" lon="2.09112">
        <ele>144</ele>
        <time>2015-11-01T10:21:02.031Z</time>
      </trkpt>
      <trkpt lat="47.82582" lon="2.09121">
        <ele>144</ele>
        <time>2015-11-01T10:21:01.071Z</time>
      </trkpt>
      <trkpt lat="47.82585" lon="2.09131">
        <ele>144</ele>
        <time>2015-11-01T10:21:00.064Z</time>
      </trkpt>
      <trkpt lat="47.82586" lon="2.0914">
        <ele>144</ele>
        <time>2015-11-01T10:20:59.140Z</time>
      </trkpt>
      <trkpt lat="47.82587" lon="2.0915">
        <ele>144</ele>
        <time>2015-11-01T10:20:58.034Z</time>
      </trkpt>
      <trkpt lat="47.82587" lon="2.0916">
        <ele>144</ele>
        <time>2015-11-01T10:20:57.093Z</time>
      </trkpt>
      <trkpt lat="47.82587" lon="2.09169">
        <ele>144</ele>
        <time>2015-11-01T10:20:56.034Z</time>
      </trkpt>
      <trkpt lat="47.82587" lon="2.09178">
        <ele>144</ele>
        <time>2015-11-01T10:20:55.069Z</time>
      </trkpt>
      <trkpt lat="47.82588" lon="2.09186">
        <ele>144</ele>
        <time>2015-11-01T10:20:54.033Z</time>
      </trkpt>
      <trkpt lat="47.82588" lon="2.09196">
        <ele>144</ele>
        <time>2015-11-01T10:20:53.067Z</time>
      </trkpt>
      <trkpt lat="47.82589" lon="2.09204">
        <ele>144</ele>
        <time>2015-11-01T10:20:52.035Z</time>
      </trkpt>
      <trkpt lat="47.82589" lon="2.09213">
        <ele>144</ele>
        <time>2015-11-01T10:20:51.069Z</time>
      </trkpt>
      <trkpt lat="47.8259" lon="2.09223">
        <ele>144</ele>
        <time>2015-11-01T10:20:50.033Z</time>
      </trkpt>
      <trkpt lat="47.82591" lon="2.09233">
        <ele>144</ele>
        <time>2015-11-01T10:20:49.067Z</time>
      </trkpt>
      <trkpt lat="47.82591" lon="2.09243">
        <ele>144</ele>
        <time>2015-11-01T10:20:48.034Z</time>
      </trkpt>
      <trkpt lat="47.82592" lon="2.09253">
        <ele>144</ele>
        <time>2015-11-01T10:20:47.137Z</time>
      </trkpt>
      <trkpt lat="47.82593" lon="2.09263">
        <ele>144</ele>
        <time>2015-11-01T10:20:46.079Z</time>
      </trkpt>
      <trkpt lat="47.82593" lon="2.09273">
        <ele>144</ele>
        <time>2015-11-01T10:20:45.070Z</time>
      </trkpt>
      <trkpt lat="47.82594" lon="2.09283">
        <ele>144</ele>
        <time>2015-11-01T10:20:44.033Z</time>
      </trkpt>
      <trkpt lat="47.82595" lon="2.09293">
        <ele>144</ele>
        <time>2015-11-01T10:20:43.093Z</time>
      </trkpt>
      <trkpt lat="47.82596" lon="2.09302">
        <ele>144</ele>
        <time>2015-11-01T10:20:42.034Z</time>
      </trkpt>
      <trkpt lat="47.82597" lon="2.09312">
        <ele>144</ele>
        <time>2015-11-01T10:20:41.070Z</time>
      </trkpt>
      <trkpt lat="47.82598" lon="2.09322">
        <ele>144</ele>
        <time>2015-11-01T10:20:40.034Z</time>
      </trkpt>
      <trkpt lat="47.826" lon="2.09332">
        <ele>144</ele>
        <time>2015-11-01T10:20:39.068Z</time>
      </trkpt>
      <trkpt lat="47.82601" lon="2.09342">
        <ele>144</ele>
        <time>2015-11-01T10:20:38.034Z</time>
      </trkpt>
      <trkpt lat="47.82601" lon="2.09352">
        <ele>144</ele>
        <time>2015-11-01T10:20:37.068Z</time>
      </trkpt>
      <trkpt lat="47.82602" lon="2.09362">
        <ele>144</ele>
        <time>2015-11-01T10:20:36.034Z</time>
      </trkpt>
      <trkpt lat="47.82603" lon="2.09372">
        <ele>144</ele>
        <time>2015-11-01T10:20:35.065Z</time>
      </trkpt>
      <trkpt lat="47.82604" lon="2.09382">
        <ele>144</ele>
        <time>2015-11-01T10:20:34.038Z</time>
      </trkpt>
      <trkpt lat="47.82605" lon="2.09391">
        <ele>145</ele>
        <time>2015-11-01T10:20:33.078Z</time>
      </trkpt>
      <trkpt lat="47.82606" lon="2.09401">
        <ele>144</ele>
        <time>2015-11-01T10:20:32.037Z</time>
      </trkpt>
      <trkpt lat="47.82607" lon="2.09411">
        <ele>144</ele>
        <time>2015-11-01T10:20:31.056Z</time>
      </trkpt>
      <trkpt lat="47.82607" lon="2.09421">
        <ele>144</ele>
        <time>2015-11-01T10:20:30.031Z</time>
      </trkpt>
      <trkpt lat="47.82608" lon="2.09431">
        <ele>144</ele>
        <time>2015-11-01T10:20:29.070Z</time>
      </trkpt>
      <trkpt lat="47.82608" lon="2.09441">
        <ele>145</ele>
        <time>2015-11-01T10:20:28.035Z</time>
      </trkpt>
      <trkpt lat="47.82609" lon="2.09451">
        <ele>144</ele>
        <time>2015-11-01T10:20:27.094Z</time>
      </trkpt>
      <trkpt lat="47.8261" lon="2.0946">
        <ele>145</ele>
        <time>2015-11-01T10:20:26.034Z</time>
      </trkpt>
      <trkpt lat="47.8261" lon="2.0947">
        <ele>145</ele>
        <time>2015-11-01T10:20:25.071Z</time>
      </trkpt>
      <trkpt lat="47.82611" lon="2.0948">
        <ele>145</ele>
        <time>2015-11-01T10:20:24.034Z</time>
      </trkpt>
      <trkpt lat="47.8261" lon="2.0949">
        <ele>145</ele>
        <time>2015-11-01T10:20:23.227Z</time>
      </trkpt>
      <trkpt lat="47.8261" lon="2.095">
        <ele>145</ele>
        <time>2015-11-01T10:20:22.034Z</time>
      </trkpt>
      <trkpt lat="47.82609" lon="2.09509">
        <ele>145</ele>
        <time>2015-11-01T10:20:21.067Z</time>
      </trkpt>
      <trkpt lat="47.82608" lon="2.09519">
        <ele>145</ele>
        <time>2015-11-01T10:20:20.034Z</time>
      </trkpt>
      <trkpt lat="47.82607" lon="2.09528">
        <ele>145</ele>
        <time>2015-11-01T10:20:19.072Z</time>
      </trkpt>
      <trkpt lat="47.82605" lon="2.09538">
        <ele>145</ele>
        <time>2015-11-01T10:20:18.036Z</time>
      </trkpt>
      <trkpt lat="47.82603" lon="2.09547">
        <ele>145</ele>
        <time>2015-11-01T10:20:17.070Z</time>
      </trkpt>
      <trkpt lat="47.82601" lon="2.09557">
        <ele>145</ele>
        <time>2015-11-01T10:20:16.035Z</time>
      </trkpt>
      <trkpt lat="47.82599" lon="2.09567">
        <ele>145</ele>
        <time>2015-11-01T10:20:15.069Z</time>
      </trkpt>
      <trkpt lat="47.82598" lon="2.09577">
        <ele>145</ele>
        <time>2015-11-01T10:20:14.031Z</time>
      </trkpt>
      <trkpt lat="47.82596" lon="2.09586">
        <ele>145</ele>
        <time>2015-11-01T10:20:13.070Z</time>
      </trkpt>
      <trkpt lat="47.82594" lon="2.09595">
        <ele>145</ele>
        <time>2015-11-01T10:20:12.034Z</time>
      </trkpt>
      <trkpt lat="47.82592" lon="2.09605">
        <ele>145</ele>
        <time>2015-11-01T10:20:11.255Z</time>
      </trkpt>
      <trkpt lat="47.8259" lon="2.09614">
        <ele>145</ele>
        <time>2015-11-01T10:20:10.034Z</time>
      </trkpt>
      <trkpt lat="47.82588" lon="2.09624">
        <ele>146</ele>
        <time>2015-11-01T10:20:09.071Z</time>
      </trkpt>
      <trkpt lat="47.82586" lon="2.09634">
        <ele>146</ele>
        <time>2015-11-01T10:20:08.035Z</time>
      </trkpt>
      <trkpt lat="47.82583" lon="2.09643">
        <ele>146</ele>
        <time>2015-11-01T10:20:07.070Z</time>
      </trkpt>
      <trkpt lat="47.82581" lon="2.09653">
        <ele>146</ele>
        <time>2015-11-01T10:20:06.034Z</time>
      </trkpt>
      <trkpt lat="47.82578" lon="2.09662">
        <ele>146</ele>
        <time>2015-11-01T10:20:05.067Z</time>
      </trkpt>
      <trkpt lat="47.82575" lon="2.09671">
        <ele>146</ele>
        <time>2015-11-01T10:20:04.035Z</time>
      </trkpt>
      <trkpt lat="47.82572" lon="2.09679">
        <ele>145</ele>
        <time>2015-11-01T10:20:03.070Z</time>
      </trkpt>
      <trkpt lat="47.82569" lon="2.09688">
        <ele>145</ele>
        <time>2015-11-01T10:20:02.034Z</time>
      </trkpt>
      <trkpt lat="47.82566" lon="2.09697">
        <ele>145</ele>
        <time>2015-11-01T10:20:01.068Z</time>
      </trkpt>
      <trkpt lat="47.82563" lon="2.09705">
        <ele>145</ele>
        <time>2015-11-01T10:20:00.065Z</time>
      </trkpt>
      <trkpt lat="47.8256" lon="2.09714">
        <ele>145</ele>
        <time>2015-11-01T10:19:59.070Z</time>
      </trkpt>
      <trkpt lat="47.82558" lon="2.09721">
        <ele>145</ele>
        <time>2015-11-01T10:19:58.031Z</time>
      </trkpt>
      <trkpt lat="47.82554" lon="2.09729">
        <ele>145</ele>
        <time>2015-11-01T10:19:57.071Z</time>
      </trkpt>
      <trkpt lat="47.82551" lon="2.09736">
        <ele>145</ele>
        <time>2015-11-01T10:19:56.035Z</time>
      </trkpt>
      <trkpt lat="47.82548" lon="2.09743">
        <ele>145</ele>
        <time>2015-11-01T10:19:55.093Z</time>
      </trkpt>
      <trkpt lat="47.82545" lon="2.0975">
        <ele>146</ele>
        <time>2015-11-01T10:19:54.034Z</time>
      </trkpt>
      <trkpt lat="47.82542" lon="2.09758">
        <ele>146</ele>
        <time>2015-11-01T10:19:53.071Z</time>
      </trkpt>
      <trkpt lat="47.82539" lon="2.09765">
        <ele>146</ele>
        <time>2015-11-01T10:19:52.034Z</time>
      </trkpt>
      <trkpt lat="47.82537" lon="2.09772">
        <ele>146</ele>
        <time>2015-11-01T10:19:51.070Z</time>
      </trkpt>
      <trkpt lat="47.82535" lon="2.09779">
        <ele>146</ele>
        <time>2015-11-01T10:19:50.036Z</time>
      </trkpt>
      <trkpt lat="47.82533" lon="2.09786">
        <ele>146</ele>
        <time>2015-11-01T10:19:49.070Z</time>
      </trkpt>
      <trkpt lat="47.8253" lon="2.09792">
        <ele>146</ele>
        <time>2015-11-01T10:19:48.036Z</time>
      </trkpt>
      <trkpt lat="47.82528" lon="2.09797">
        <ele>146</ele>
        <time>2015-11-01T10:19:47.070Z</time>
      </trkpt>
      <trkpt lat="47.82523" lon="2.09809">
        <ele>146</ele>
        <time>2015-11-01T10:19:45.035Z</time>
      </trkpt>
      <trkpt lat="47.82521" lon="2.09815">
        <ele>147</ele>
        <time>2015-11-01T10:19:44.240Z</time>
      </trkpt>
      <trkpt lat="47.82518" lon="2.09822">
        <ele>147</ele>
        <time>2015-11-01T10:19:43.032Z</time>
      </trkpt>
      <trkpt lat="47.82515" lon="2.09829">
        <ele>147</ele>
        <time>2015-11-01T10:19:42.065Z</time>
      </trkpt>
      <trkpt lat="47.82512" lon="2.09836">
        <ele>147</ele>
        <time>2015-11-01T10:19:41.034Z</time>
      </trkpt>
      <trkpt lat="47.82509" lon="2.09844">
        <ele>147</ele>
        <time>2015-11-01T10:19:40.070Z</time>
      </trkpt>
      <trkpt lat="47.82506" lon="2.09852">
        <ele>147</ele>
        <time>2015-11-01T10:19:39.035Z</time>
      </trkpt>
      <trkpt lat="47.82504" lon="2.09859">
        <ele>147</ele>
        <time>2015-11-01T10:19:38.071Z</time>
      </trkpt>
      <trkpt lat="47.82501" lon="2.09867">
        <ele>147</ele>
        <time>2015-11-01T10:19:37.035Z</time>
      </trkpt>
      <trkpt lat="47.82498" lon="2.09875">
        <ele>147</ele>
        <time>2015-11-01T10:19:36.059Z</time>
      </trkpt>
      <trkpt lat="47.82495" lon="2.09883">
        <ele>147</ele>
        <time>2015-11-01T10:19:35.038Z</time>
      </trkpt>
      <trkpt lat="47.82492" lon="2.09891">
        <ele>147</ele>
        <time>2015-11-01T10:19:34.077Z</time>
      </trkpt>
      <trkpt lat="47.82489" lon="2.09899">
        <ele>147</ele>
        <time>2015-11-01T10:19:33.038Z</time>
      </trkpt>
      <trkpt lat="47.82486" lon="2.09907">
        <ele>147</ele>
        <time>2015-11-01T10:19:32.069Z</time>
      </trkpt>
      <trkpt lat="47.82484" lon="2.09915">
        <ele>147</ele>
        <time>2015-11-01T10:19:31.035Z</time>
      </trkpt>
      <trkpt lat="47.8248" lon="2.09922">
        <ele>147</ele>
        <time>2015-11-01T10:19:30.073Z</time>
      </trkpt>
      <trkpt lat="47.82478" lon="2.0993">
        <ele>147</ele>
        <time>2015-11-01T10:19:29.035Z</time>
      </trkpt>
      <trkpt lat="47.82475" lon="2.09938">
        <ele>147</ele>
        <time>2015-11-01T10:19:28.072Z</time>
      </trkpt>
      <trkpt lat="47.82471" lon="2.09945">
        <ele>147</ele>
        <time>2015-11-01T10:19:27.032Z</time>
      </trkpt>
      <trkpt lat="47.82469" lon="2.09954">
        <ele>147</ele>
        <time>2015-11-01T10:19:26.087Z</time>
      </trkpt>
      <trkpt lat="47.82466" lon="2.09961">
        <ele>147</ele>
        <time>2015-11-01T10:19:25.034Z</time>
      </trkpt>
      <trkpt lat="47.82463" lon="2.09969">
        <ele>147</ele>
        <time>2015-11-01T10:19:24.074Z</time>
      </trkpt>
      <trkpt lat="47.8246" lon="2.09977">
        <ele>147</ele>
        <time>2015-11-01T10:19:23.026Z</time>
      </trkpt>
      <trkpt lat="47.82457" lon="2.09985">
        <ele>147</ele>
        <time>2015-11-01T10:19:22.055Z</time>
      </trkpt>
      <trkpt lat="47.82453" lon="2.09993">
        <ele>147</ele>
        <time>2015-11-01T10:19:21.027Z</time>
      </trkpt>
      <trkpt lat="47.8245" lon="2.1">
        <ele>147</ele>
        <time>2015-11-01T10:19:20.058Z</time>
      </trkpt>
      <trkpt lat="47.82447" lon="2.10008">
        <ele>147</ele>
        <time>2015-11-01T10:19:19.027Z</time>
      </trkpt>
      <trkpt lat="47.82444" lon="2.10015">
        <ele>148</ele>
        <time>2015-11-01T10:19:18.057Z</time>
      </trkpt>
      <trkpt lat="47.8244" lon="2.10023">
        <ele>148</ele>
        <time>2015-11-01T10:19:17.027Z</time>
      </trkpt>
      <trkpt lat="47.82437" lon="2.10029">
        <ele>148</ele>
        <time>2015-11-01T10:19:16.057Z</time>
      </trkpt>
      <trkpt lat="47.82434" lon="2.10036">
        <ele>148</ele>
        <time>2015-11-01T10:19:15.033Z</time>
      </trkpt>
      <trkpt lat="47.8243" lon="2.10043">
        <ele>148</ele>
        <time>2015-11-01T10:19:14.071Z</time>
      </trkpt>
      <trkpt lat="47.82427" lon="2.1005">
        <ele>148</ele>
        <time>2015-11-01T10:19:13.036Z</time>
      </trkpt>
      <trkpt lat="47.82423" lon="2.10057">
        <ele>147</ele>
        <time>2015-11-01T10:19:12.072Z</time>
      </trkpt>
      <trkpt lat="47.82419" lon="2.10064">
        <ele>148</ele>
        <time>2015-11-01T10:19:11.032Z</time>
      </trkpt>
      <trkpt lat="47.82416" lon="2.1007">
        <ele>147</ele>
        <time>2015-11-01T10:19:10.065Z</time>
      </trkpt>
      <trkpt lat="47.82412" lon="2.10077">
        <ele>147</ele>
        <time>2015-11-01T10:19:09.036Z</time>
      </trkpt>
      <trkpt lat="47.82409" lon="2.10083">
        <ele>148</ele>
        <time>2015-11-01T10:19:08.096Z</time>
      </trkpt>
      <trkpt lat="47.82405" lon="2.10089">
        <ele>148</ele>
        <time>2015-11-01T10:19:07.035Z</time>
      </trkpt>
      <trkpt lat="47.82402" lon="2.10095">
        <ele>148</ele>
        <time>2015-11-01T10:19:06.072Z</time>
      </trkpt>
      <trkpt lat="47.82399" lon="2.10101">
        <ele>148</ele>
        <time>2015-11-01T10:19:05.035Z</time>
      </trkpt>
      <trkpt lat="47.82396" lon="2.10106">
        <ele>148</ele>
        <time>2015-11-01T10:19:04.072Z</time>
      </trkpt>
      <trkpt lat="47.82392" lon="2.10111">
        <ele>148</ele>
        <time>2015-11-01T10:19:03.034Z</time>
      </trkpt>
      <trkpt lat="47.82389" lon="2.10116">
        <ele>148</ele>
        <time>2015-11-01T10:19:02.073Z</time>
      </trkpt>
      <trkpt lat="47.82386" lon="2.10122">
        <ele>148</ele>
        <time>2015-11-01T10:19:01.035Z</time>
      </trkpt>
      <trkpt lat="47.82383" lon="2.10127">
        <ele>148</ele>
        <time>2015-11-01T10:19:00.102Z</time>
      </trkpt>
      <trkpt lat="47.82379" lon="2.10131">
        <ele>148</ele>
        <time>2015-11-01T10:18:59.034Z</time>
      </trkpt>
      <trkpt lat="47.82375" lon="2.10132">
        <ele>148</ele>
        <time>2015-11-01T10:18:58.073Z</time>
      </trkpt>
      <trkpt lat="47.82366" lon="2.1013">
        <ele>148</ele>
        <time>2015-11-01T10:18:56.034Z</time>
      </trkpt>
      <trkpt lat="47.82362" lon="2.10128">
        <ele>148</ele>
        <time>2015-11-01T10:18:55.230Z</time>
      </trkpt>
      <trkpt lat="47.82357" lon="2.10127">
        <ele>148</ele>
        <time>2015-11-01T10:18:54.031Z</time>
      </trkpt>
      <trkpt lat="47.82352" lon="2.10125">
        <ele>148</ele>
        <time>2015-11-01T10:18:53.070Z</time>
      </trkpt>
      <trkpt lat="47.82346" lon="2.10123">
        <ele>148</ele>
        <time>2015-11-01T10:18:52.060Z</time>
      </trkpt>
      <trkpt lat="47.8234" lon="2.1012">
        <ele>148</ele>
        <time>2015-11-01T10:18:51.070Z</time>
      </trkpt>
      <trkpt lat="47.82335" lon="2.10119">
        <ele>148</ele>
        <time>2015-11-01T10:18:50.035Z</time>
      </trkpt>
      <trkpt lat="47.82328" lon="2.10116">
        <ele>148</ele>
        <time>2015-11-01T10:18:49.072Z</time>
      </trkpt>
      <trkpt lat="47.82322" lon="2.10114">
        <ele>148</ele>
        <time>2015-11-01T10:18:48.034Z</time>
      </trkpt>
      <trkpt lat="47.82315" lon="2.10111">
        <ele>148</ele>
        <time>2015-11-01T10:18:47.068Z</time>
      </trkpt>
      <trkpt lat="47.82309" lon="2.10108">
        <ele>148</ele>
        <time>2015-11-01T10:18:46.034Z</time>
      </trkpt>
      <trkpt lat="47.82302" lon="2.10105">
        <ele>148</ele>
        <time>2015-11-01T10:18:45.062Z</time>
      </trkpt>
      <trkpt lat="47.82296" lon="2.10103">
        <ele>149</ele>
        <time>2015-11-01T10:18:44.032Z</time>
      </trkpt>
      <trkpt lat="47.8229" lon="2.101">
        <ele>149</ele>
        <time>2015-11-01T10:18:43.071Z</time>
      </trkpt>
      <trkpt lat="47.82284" lon="2.10098">
        <ele>149</ele>
        <time>2015-11-01T10:18:42.033Z</time>
      </trkpt>
      <trkpt lat="47.82277" lon="2.10097">
        <ele>149</ele>
        <time>2015-11-01T10:18:41.091Z</time>
      </trkpt>
      <trkpt lat="47.82271" lon="2.10095">
        <ele>149</ele>
        <time>2015-11-01T10:18:40.036Z</time>
      </trkpt>
      <trkpt lat="47.82264" lon="2.10094">
        <ele>149</ele>
        <time>2015-11-01T10:18:39.069Z</time>
      </trkpt>
      <trkpt lat="47.82258" lon="2.10093">
        <ele>149</ele>
        <time>2015-11-01T10:18:38.031Z</time>
      </trkpt>
      <trkpt lat="47.82251" lon="2.10092">
        <ele>149</ele>
        <time>2015-11-01T10:18:37.065Z</time>
      </trkpt>
      <trkpt lat="47.82245" lon="2.10092">
        <ele>149</ele>
        <time>2015-11-01T10:18:36.038Z</time>
      </trkpt>
      <trkpt lat="47.82239" lon="2.10092">
        <ele>149</ele>
        <time>2015-11-01T10:18:35.077Z</time>
      </trkpt>
      <trkpt lat="47.82232" lon="2.10091">
        <ele>149</ele>
        <time>2015-11-01T10:18:34.037Z</time>
      </trkpt>
      <trkpt lat="47.82226" lon="2.1009">
        <ele>149</ele>
        <time>2015-11-01T10:18:33.070Z</time>
      </trkpt>
      <trkpt lat="47.82219" lon="2.10088">
        <ele>149</ele>
        <time>2015-11-01T10:18:32.036Z</time>
      </trkpt>
      <trkpt lat="47.82213" lon="2.10087">
        <ele>149</ele>
        <time>2015-11-01T10:18:31.094Z</time>
      </trkpt>
      <trkpt lat="47.82206" lon="2.10087">
        <ele>149</ele>
        <time>2015-11-01T10:18:30.035Z</time>
      </trkpt>
      <trkpt lat="47.822" lon="2.10086">
        <ele>150</ele>
        <time>2015-11-01T10:18:29.066Z</time>
      </trkpt>
      <trkpt lat="47.82193" lon="2.10085">
        <ele>150</ele>
        <time>2015-11-01T10:18:28.034Z</time>
      </trkpt>
      <trkpt lat="47.82187" lon="2.10084">
        <ele>150</ele>
        <time>2015-11-01T10:18:27.069Z</time>
      </trkpt>
      <trkpt lat="47.82181" lon="2.10083">
        <ele>150</ele>
        <time>2015-11-01T10:18:26.035Z</time>
      </trkpt>
      <trkpt lat="47.82174" lon="2.10083">
        <ele>150</ele>
        <time>2015-11-01T10:18:25.069Z</time>
      </trkpt>
      <trkpt lat="47.82168" lon="2.10083">
        <ele>150</ele>
        <time>2015-11-01T10:18:24.033Z</time>
      </trkpt>
      <trkpt lat="47.82162" lon="2.10082">
        <ele>150</ele>
        <time>2015-11-01T10:18:23.121Z</time>
      </trkpt>
      <trkpt lat="47.82156" lon="2.10082">
        <ele>149</ele>
        <time>2015-11-01T10:18:22.032Z</time>
      </trkpt>
      <trkpt lat="47.8215" lon="2.10081">
        <ele>149</ele>
        <time>2015-11-01T10:18:21.070Z</time>
      </trkpt>
      <trkpt lat="47.82144" lon="2.10081">
        <ele>149</ele>
        <time>2015-11-01T10:18:20.036Z</time>
      </trkpt>
      <trkpt lat="47.82138" lon="2.1008">
        <ele>149</ele>
        <time>2015-11-01T10:18:19.069Z</time>
      </trkpt>
      <trkpt lat="47.82132" lon="2.1008">
        <ele>149</ele>
        <time>2015-11-01T10:18:18.036Z</time>
      </trkpt>
      <trkpt lat="47.82127" lon="2.10079">
        <ele>149</ele>
        <time>2015-11-01T10:18:17.069Z</time>
      </trkpt>
      <trkpt lat="47.8212" lon="2.10078">
        <ele>150</ele>
        <time>2015-11-01T10:18:16.037Z</time>
      </trkpt>
      <trkpt lat="47.82114" lon="2.10078">
        <ele>150</ele>
        <time>2015-11-01T10:18:15.071Z</time>
      </trkpt>
      <trkpt lat="47.82108" lon="2.10078">
        <ele>150</ele>
        <time>2015-11-01T10:18:14.036Z</time>
      </trkpt>
      <trkpt lat="47.82103" lon="2.10077">
        <ele>150</ele>
        <time>2015-11-01T10:18:13.067Z</time>
      </trkpt>
      <trkpt lat="47.82097" lon="2.10077">
        <ele>150</ele>
        <time>2015-11-01T10:18:12.036Z</time>
      </trkpt>
      <trkpt lat="47.82092" lon="2.10075">
        <ele>150</ele>
        <time>2015-11-01T10:18:11.071Z</time>
      </trkpt>
      <trkpt lat="47.82088" lon="2.10071">
        <ele>150</ele>
        <time>2015-11-01T10:18:10.036Z</time>
      </trkpt>
      <trkpt lat="47.82086" lon="2.10064">
        <ele>150</ele>
        <time>2015-11-01T10:18:09.069Z</time>
      </trkpt>
      <trkpt lat="47.82085" lon="2.10057">
        <ele>151</ele>
        <time>2015-11-01T10:18:08.034Z</time>
      </trkpt>
      <trkpt lat="47.82085" lon="2.10049">
        <ele>151</ele>
        <time>2015-11-01T10:18:07.068Z</time>
      </trkpt>
      <trkpt lat="47.82085" lon="2.10041">
        <ele>151</ele>
        <time>2015-11-01T10:18:06.028Z</time>
      </trkpt>
      <trkpt lat="47.82085" lon="2.10032">
        <ele>151</ele>
        <time>2015-11-01T10:18:05.207Z</time>
      </trkpt>
      <trkpt lat="47.82085" lon="2.10024">
        <ele>151</ele>
        <time>2015-11-01T10:18:04.033Z</time>
      </trkpt>
      <trkpt lat="47.82085" lon="2.10015">
        <ele>151</ele>
        <time>2015-11-01T10:18:03.071Z</time>
      </trkpt>
      <trkpt lat="47.82086" lon="2.10007">
        <ele>152</ele>
        <time>2015-11-01T10:18:02.035Z</time>
      </trkpt>
      <trkpt lat="47.82086" lon="2.09997">
        <ele>152</ele>
        <time>2015-11-01T10:18:01.069Z</time>
      </trkpt>
      <trkpt lat="47.82085" lon="2.09989">
        <ele>153</ele>
        <time>2015-11-01T10:18:00.065Z</time>
      </trkpt>
      <trkpt lat="47.82085" lon="2.0998">
        <ele>154</ele>
        <time>2015-11-01T10:17:59.069Z</time>
      </trkpt>
      <trkpt lat="47.82085" lon="2.09972">
        <ele>155</ele>
        <time>2015-11-01T10:17:58.035Z</time>
      </trkpt>
      <trkpt lat="47.82084" lon="2.09962">
        <ele>156</ele>
        <time>2015-11-01T10:17:57.067Z</time>
      </trkpt>
      <trkpt lat="47.8208" lon="2.0995">
        <ele>160</ele>
        <time>2015-11-01T10:17:56.033Z</time>
      </trkpt>
      <trkpt lat="47.82078" lon="2.09943">
        <ele>159</ele>
        <time>2015-11-01T10:17:55.069Z</time>
      </trkpt>
      <trkpt lat="47.82075" lon="2.09935">
        <ele>159</ele>
        <time>2015-11-01T10:17:54.033Z</time>
      </trkpt>
      <trkpt lat="47.8207" lon="2.0993">
        <ele>159</ele>
        <time>2015-11-01T10:17:53.226Z</time>
      </trkpt>
      <trkpt lat="47.82064" lon="2.09928">
        <ele>159</ele>
        <time>2015-11-01T10:17:52.034Z</time>
      </trkpt>
      <trkpt lat="47.82057" lon="2.09926">
        <ele>158</ele>
        <time>2015-11-01T10:17:51.067Z</time>
      </trkpt>
      <trkpt lat="47.8205" lon="2.09925">
        <ele>158</ele>
        <time>2015-11-01T10:17:50.031Z</time>
      </trkpt>
      <trkpt lat="47.82043" lon="2.09924">
        <ele>158</ele>
        <time>2015-11-01T10:17:49.109Z</time>
      </trkpt>
      <trkpt lat="47.82036" lon="2.09922">
        <ele>158</ele>
        <time>2015-11-01T10:17:48.036Z</time>
      </trkpt>
      <trkpt lat="47.8203" lon="2.09922">
        <ele>158</ele>
        <time>2015-11-01T10:17:47.071Z</time>
      </trkpt>
      <trkpt lat="47.82023" lon="2.0992">
        <ele>158</ele>
        <time>2015-11-01T10:17:46.032Z</time>
      </trkpt>
      <trkpt lat="47.82016" lon="2.09919">
        <ele>157</ele>
        <time>2015-11-01T10:17:45.071Z</time>
      </trkpt>
      <trkpt lat="47.82009" lon="2.09917">
        <ele>157</ele>
        <time>2015-11-01T10:17:44.082Z</time>
      </trkpt>
      <trkpt lat="47.82002" lon="2.09916">
        <ele>157</ele>
        <time>2015-11-01T10:17:43.072Z</time>
      </trkpt>
      <trkpt lat="47.81996" lon="2.09914">
        <ele>155</ele>
        <time>2015-11-01T10:17:42.036Z</time>
      </trkpt>
      <trkpt lat="47.81989" lon="2.09913">
        <ele>155</ele>
        <time>2015-11-01T10:17:41.068Z</time>
      </trkpt>
      <trkpt lat="47.81982" lon="2.09909">
        <ele>155</ele>
        <time>2015-11-01T10:17:40.033Z</time>
      </trkpt>
      <trkpt lat="47.81975" lon="2.09909">
        <ele>155</ele>
        <time>2015-11-01T10:17:39.069Z</time>
      </trkpt>
      <trkpt lat="47.81968" lon="2.09906">
        <ele>155</ele>
        <time>2015-11-01T10:17:38.039Z</time>
      </trkpt>
      <trkpt lat="47.81961" lon="2.09904">
        <ele>154</ele>
        <time>2015-11-01T10:17:37.079Z</time>
      </trkpt>
      <trkpt lat="47.81954" lon="2.09903">
        <ele>154</ele>
        <time>2015-11-01T10:17:36.038Z</time>
      </trkpt>
      <trkpt lat="47.81947" lon="2.09902">
        <ele>155</ele>
        <time>2015-11-01T10:17:35.075Z</time>
      </trkpt>
      <trkpt lat="47.81941" lon="2.099">
        <ele>154</ele>
        <time>2015-11-01T10:17:34.030Z</time>
      </trkpt>
      <trkpt lat="47.81934" lon="2.09899">
        <ele>154</ele>
        <time>2015-11-01T10:17:33.094Z</time>
      </trkpt>
      <trkpt lat="47.81927" lon="2.09897">
        <ele>153</ele>
        <time>2015-11-01T10:17:32.031Z</time>
      </trkpt>
      <trkpt lat="47.8192" lon="2.09896">
        <ele>153</ele>
        <time>2015-11-01T10:17:31.071Z</time>
      </trkpt>
      <trkpt lat="47.81913" lon="2.09895">
        <ele>153</ele>
        <time>2015-11-01T10:17:30.031Z</time>
      </trkpt>
      <trkpt lat="47.81906" lon="2.09893">
        <ele>152</ele>
        <time>2015-11-01T10:17:29.079Z</time>
      </trkpt>
      <trkpt lat="47.81899" lon="2.09892">
        <ele>152</ele>
        <time>2015-11-01T10:17:28.039Z</time>
      </trkpt>
      <trkpt lat="47.81893" lon="2.0989">
        <ele>153</ele>
        <time>2015-11-01T10:17:27.077Z</time>
      </trkpt>
      <trkpt lat="47.81886" lon="2.09889">
        <ele>152</ele>
        <time>2015-11-01T10:17:26.036Z</time>
      </trkpt>
      <trkpt lat="47.81879" lon="2.09887">
        <ele>152</ele>
        <time>2015-11-01T10:17:25.066Z</time>
      </trkpt>
      <trkpt lat="47.81872" lon="2.09886">
        <ele>153</ele>
        <time>2015-11-01T10:17:24.027Z</time>
      </trkpt>
      <trkpt lat="47.81866" lon="2.09885">
        <ele>152</ele>
        <time>2015-11-01T10:17:23.057Z</time>
      </trkpt>
      <trkpt lat="47.81859" lon="2.09884">
        <ele>152</ele>
        <time>2015-11-01T10:17:22.025Z</time>
      </trkpt>
      <trkpt lat="47.81853" lon="2.09882">
        <ele>152</ele>
        <time>2015-11-01T10:17:21.078Z</time>
      </trkpt>
      <trkpt lat="47.81846" lon="2.09881">
        <ele>151</ele>
        <time>2015-11-01T10:17:20.028Z</time>
      </trkpt>
      <trkpt lat="47.8184" lon="2.09879">
        <ele>152</ele>
        <time>2015-11-01T10:17:19.060Z</time>
      </trkpt>
      <trkpt lat="47.81834" lon="2.09878">
        <ele>152</ele>
        <time>2015-11-01T10:17:18.028Z</time>
      </trkpt>
      <trkpt lat="47.81828" lon="2.09877">
        <ele>152</ele>
        <time>2015-11-01T10:17:17.232Z</time>
      </trkpt>
      <trkpt lat="47.81822" lon="2.09876">
        <ele>152</ele>
        <time>2015-11-01T10:17:16.028Z</time>
      </trkpt>
      <trkpt lat="47.81816" lon="2.09875">
        <ele>151</ele>
        <time>2015-11-01T10:17:15.082Z</time>
      </trkpt>
      <trkpt lat="47.81811" lon="2.09874">
        <ele>151</ele>
        <time>2015-11-01T10:17:14.027Z</time>
      </trkpt>
      <trkpt lat="47.81805" lon="2.09873">
        <ele>151</ele>
        <time>2015-11-01T10:17:13.054Z</time>
      </trkpt>
      <trkpt lat="47.81799" lon="2.09872">
        <ele>151</ele>
        <time>2015-11-01T10:17:12.026Z</time>
      </trkpt>
      <trkpt lat="47.81793" lon="2.0987">
        <ele>151</ele>
        <time>2015-11-01T10:17:11.055Z</time>
      </trkpt>
      <trkpt lat="47.81787" lon="2.09868">
        <ele>151</ele>
        <time>2015-11-01T10:17:10.047Z</time>
      </trkpt>
      <trkpt lat="47.81781" lon="2.09867">
        <ele>151</ele>
        <time>2015-11-01T10:17:09.212Z</time>
      </trkpt>
      <trkpt lat="47.81775" lon="2.09867">
        <ele>151</ele>
        <time>2015-11-01T10:17:08.025Z</time>
      </trkpt>
      <trkpt lat="47.81769" lon="2.09866">
        <ele>151</ele>
        <time>2015-11-01T10:17:07.056Z</time>
      </trkpt>
      <trkpt lat="47.81763" lon="2.09864">
        <ele>151</ele>
        <time>2015-11-01T10:17:06.026Z</time>
      </trkpt>
      <trkpt lat="47.81757" lon="2.09863">
        <ele>151</ele>
        <time>2015-11-01T10:17:05.053Z</time>
      </trkpt>
      <trkpt lat="47.81751" lon="2.09862">
        <ele>150</ele>
        <time>2015-11-01T10:17:04.026Z</time>
      </trkpt>
      <trkpt lat="47.81745" lon="2.09861">
        <ele>151</ele>
        <time>2015-11-01T10:17:03.056Z</time>
      </trkpt>
      <trkpt lat="47.81739" lon="2.0986">
        <ele>150</ele>
        <time>2015-11-01T10:17:02.025Z</time>
      </trkpt>
      <trkpt lat="47.81733" lon="2.09858">
        <ele>150</ele>
        <time>2015-11-01T10:17:01.076Z</time>
      </trkpt>
      <trkpt lat="47.81726" lon="2.09858">
        <ele>151</ele>
        <time>2015-11-01T10:17:00.056Z</time>
      </trkpt>
      <trkpt lat="47.8172" lon="2.09857">
        <ele>151</ele>
        <time>2015-11-01T10:16:59.069Z</time>
      </trkpt>
      <trkpt lat="47.81714" lon="2.09855">
        <ele>151</ele>
        <time>2015-11-01T10:16:58.035Z</time>
      </trkpt>
      <trkpt lat="47.81708" lon="2.09854">
        <ele>151</ele>
        <time>2015-11-01T10:16:57.071Z</time>
      </trkpt>
      <trkpt lat="47.81702" lon="2.09852">
        <ele>151</ele>
        <time>2015-11-01T10:16:56.035Z</time>
      </trkpt>
      <trkpt lat="47.81696" lon="2.09851">
        <ele>151</ele>
        <time>2015-11-01T10:16:55.070Z</time>
      </trkpt>
      <trkpt lat="47.81689" lon="2.0985">
        <ele>151</ele>
        <time>2015-11-01T10:16:54.034Z</time>
      </trkpt>
      <trkpt lat="47.81683" lon="2.09849">
        <ele>151</ele>
        <time>2015-11-01T10:16:53.068Z</time>
      </trkpt>
      <trkpt lat="47.81677" lon="2.09848">
        <ele>150</ele>
        <time>2015-11-01T10:16:52.033Z</time>
      </trkpt>
      <trkpt lat="47.81671" lon="2.09847">
        <ele>150</ele>
        <time>2015-11-01T10:16:51.072Z</time>
      </trkpt>
      <trkpt lat="47.81665" lon="2.09846">
        <ele>150</ele>
        <time>2015-11-01T10:16:50.034Z</time>
      </trkpt>
      <trkpt lat="47.8166" lon="2.09845">
        <ele>150</ele>
        <time>2015-11-01T10:16:49.071Z</time>
      </trkpt>
      <trkpt lat="47.81653" lon="2.09844">
        <ele>150</ele>
        <time>2015-11-01T10:16:48.035Z</time>
      </trkpt>
      <trkpt lat="47.81647" lon="2.09843">
        <ele>150</ele>
        <time>2015-11-01T10:16:47.068Z</time>
      </trkpt>
      <trkpt lat="47.81641" lon="2.09842">
        <ele>150</ele>
        <time>2015-11-01T10:16:46.031Z</time>
      </trkpt>
      <trkpt lat="47.81635" lon="2.09841">
        <ele>150</ele>
        <time>2015-11-01T10:16:45.093Z</time>
      </trkpt>
      <trkpt lat="47.81629" lon="2.0984">
        <ele>151</ele>
        <time>2015-11-01T10:16:44.034Z</time>
      </trkpt>
      <trkpt lat="47.81623" lon="2.09838">
        <ele>151</ele>
        <time>2015-11-01T10:16:43.069Z</time>
      </trkpt>
      <trkpt lat="47.81617" lon="2.09837">
        <ele>151</ele>
        <time>2015-11-01T10:16:42.033Z</time>
      </trkpt>
      <trkpt lat="47.81611" lon="2.09835">
        <ele>152</ele>
        <time>2015-11-01T10:16:41.068Z</time>
      </trkpt>
      <trkpt lat="47.81605" lon="2.09833">
        <ele>152</ele>
        <time>2015-11-01T10:16:40.032Z</time>
      </trkpt>
      <trkpt lat="47.81599" lon="2.09832">
        <ele>151</ele>
        <time>2015-11-01T10:16:39.057Z</time>
      </trkpt>
      <trkpt lat="47.81593" lon="2.09831">
        <ele>152</ele>
        <time>2015-11-01T10:16:38.026Z</time>
      </trkpt>
      <trkpt lat="47.81588" lon="2.0983">
        <ele>151</ele>
        <time>2015-11-01T10:16:37.108Z</time>
      </trkpt>
      <trkpt lat="47.81582" lon="2.09829">
        <ele>151</ele>
        <time>2015-11-01T10:16:36.026Z</time>
      </trkpt>
      <trkpt lat="47.81576" lon="2.09828">
        <ele>151</ele>
        <time>2015-11-01T10:16:35.056Z</time>
      </trkpt>
      <trkpt lat="47.81571" lon="2.09827">
        <ele>151</ele>
        <time>2015-11-01T10:16:34.025Z</time>
      </trkpt>
      <trkpt lat="47.81565" lon="2.09826">
        <ele>151</ele>
        <time>2015-11-01T10:16:33.056Z</time>
      </trkpt>
      <trkpt lat="47.81559" lon="2.09825">
        <ele>151</ele>
        <time>2015-11-01T10:16:32.027Z</time>
      </trkpt>
      <trkpt lat="47.81553" lon="2.09823">
        <ele>151</ele>
        <time>2015-11-01T10:16:31.056Z</time>
      </trkpt>
      <trkpt lat="47.81548" lon="2.09822">
        <ele>151</ele>
        <time>2015-11-01T10:16:30.031Z</time>
      </trkpt>
      <trkpt lat="47.81542" lon="2.09821">
        <ele>151</ele>
        <time>2015-11-01T10:16:29.235Z</time>
      </trkpt>
      <trkpt lat="47.81537" lon="2.0982">
        <ele>151</ele>
        <time>2015-11-01T10:16:28.034Z</time>
      </trkpt>
      <trkpt lat="47.81531" lon="2.09819">
        <ele>151</ele>
        <time>2015-11-01T10:16:27.070Z</time>
      </trkpt>
      <trkpt lat="47.81526" lon="2.09818">
        <ele>151</ele>
        <time>2015-11-01T10:16:26.033Z</time>
      </trkpt>
      <trkpt lat="47.8152" lon="2.09817">
        <ele>151</ele>
        <time>2015-11-01T10:16:25.089Z</time>
      </trkpt>
      <trkpt lat="47.81515" lon="2.09815">
        <ele>151</ele>
        <time>2015-11-01T10:16:24.046Z</time>
      </trkpt>
      <trkpt lat="47.8151" lon="2.09814">
        <ele>151</ele>
        <time>2015-11-01T10:16:23.056Z</time>
      </trkpt>
      <trkpt lat="47.81504" lon="2.09813">
        <ele>151</ele>
        <time>2015-11-01T10:16:22.027Z</time>
      </trkpt>
      <trkpt lat="47.81498" lon="2.09813">
        <ele>151</ele>
        <time>2015-11-01T10:16:21.065Z</time>
      </trkpt>
      <trkpt lat="47.81493" lon="2.09812">
        <ele>151</ele>
        <time>2015-11-01T10:16:20.025Z</time>
      </trkpt>
      <trkpt lat="47.81488" lon="2.09811">
        <ele>152</ele>
        <time>2015-11-01T10:16:19.056Z</time>
      </trkpt>
      <trkpt lat="47.81482" lon="2.0981">
        <ele>152</ele>
        <time>2015-11-01T10:16:18.019Z</time>
      </trkpt>
      <trkpt lat="47.81477" lon="2.09809">
        <ele>152</ele>
        <time>2015-11-01T10:16:17.059Z</time>
      </trkpt>
      <trkpt lat="47.81471" lon="2.09808">
        <ele>152</ele>
        <time>2015-11-01T10:16:16.045Z</time>
      </trkpt>
      <trkpt lat="47.81466" lon="2.09807">
        <ele>152</ele>
        <time>2015-11-01T10:16:15.065Z</time>
      </trkpt>
      <trkpt lat="47.8146" lon="2.09806">
        <ele>152</ele>
        <time>2015-11-01T10:16:14.030Z</time>
      </trkpt>
      <trkpt lat="47.81455" lon="2.09804">
        <ele>152</ele>
        <time>2015-11-01T10:16:13.095Z</time>
      </trkpt>
      <trkpt lat="47.81449" lon="2.09804">
        <ele>152</ele>
        <time>2015-11-01T10:16:12.034Z</time>
      </trkpt>
      <trkpt lat="47.81444" lon="2.09803">
        <ele>152</ele>
        <time>2015-11-01T10:16:11.070Z</time>
      </trkpt>
      <trkpt lat="47.81439" lon="2.09802">
        <ele>152</ele>
        <time>2015-11-01T10:16:10.034Z</time>
      </trkpt>
      <trkpt lat="47.81433" lon="2.098">
        <ele>152</ele>
        <time>2015-11-01T10:16:09.070Z</time>
      </trkpt>
      <trkpt lat="47.81428" lon="2.09799">
        <ele>152</ele>
        <time>2015-11-01T10:16:08.033Z</time>
      </trkpt>
      <trkpt lat="47.81423" lon="2.09798">
        <ele>153</ele>
        <time>2015-11-01T10:16:07.070Z</time>
      </trkpt>
      <trkpt lat="47.81417" lon="2.09797">
        <ele>153</ele>
        <time>2015-11-01T10:16:06.034Z</time>
      </trkpt>
      <trkpt lat="47.81412" lon="2.09796">
        <ele>152</ele>
        <time>2015-11-01T10:16:05.118Z</time>
      </trkpt>
      <trkpt lat="47.81406" lon="2.09796">
        <ele>152</ele>
        <time>2015-11-01T10:16:04.033Z</time>
      </trkpt>
      <trkpt lat="47.81401" lon="2.09794">
        <ele>152</ele>
        <time>2015-11-01T10:16:03.069Z</time>
      </trkpt>
      <trkpt lat="47.81396" lon="2.09793">
        <ele>152</ele>
        <time>2015-11-01T10:16:02.034Z</time>
      </trkpt>
      <trkpt lat="47.8139" lon="2.09793">
        <ele>152</ele>
        <time>2015-11-01T10:16:01.069Z</time>
      </trkpt>
      <trkpt lat="47.81385" lon="2.09792">
        <ele>152</ele>
        <time>2015-11-01T10:16:00.064Z</time>
      </trkpt>
      <trkpt lat="47.81379" lon="2.0979">
        <ele>152</ele>
        <time>2015-11-01T10:15:59.069Z</time>
      </trkpt>
      <trkpt lat="47.81374" lon="2.09789">
        <ele>152</ele>
        <time>2015-11-01T10:15:58.030Z</time>
      </trkpt>
      <trkpt lat="47.81369" lon="2.09787">
        <ele>152</ele>
        <time>2015-11-01T10:15:57.095Z</time>
      </trkpt>
      <trkpt lat="47.81364" lon="2.09786">
        <ele>152</ele>
        <time>2015-11-01T10:15:56.033Z</time>
      </trkpt>
      <trkpt lat="47.81358" lon="2.09785">
        <ele>152</ele>
        <time>2015-11-01T10:15:55.224Z</time>
      </trkpt>
      <trkpt lat="47.81353" lon="2.09784">
        <ele>152</ele>
        <time>2015-11-01T10:15:54.035Z</time>
      </trkpt>
      <trkpt lat="47.81347" lon="2.09783">
        <ele>152</ele>
        <time>2015-11-01T10:15:53.071Z</time>
      </trkpt>
      <trkpt lat="47.81342" lon="2.09781">
        <ele>152</ele>
        <time>2015-11-01T10:15:52.034Z</time>
      </trkpt>
      <trkpt lat="47.81337" lon="2.09781">
        <ele>152</ele>
        <time>2015-11-01T10:15:51.071Z</time>
      </trkpt>
      <trkpt lat="47.81332" lon="2.0978">
        <ele>152</ele>
        <time>2015-11-01T10:15:50.034Z</time>
      </trkpt>
      <trkpt lat="47.81327" lon="2.09779">
        <ele>152</ele>
        <time>2015-11-01T10:15:49.068Z</time>
      </trkpt>
      <trkpt lat="47.81322" lon="2.09779">
        <ele>152</ele>
        <time>2015-11-01T10:15:48.034Z</time>
      </trkpt>
      <trkpt lat="47.81317" lon="2.09778">
        <ele>152</ele>
        <time>2015-11-01T10:15:47.071Z</time>
      </trkpt>
      <trkpt lat="47.81311" lon="2.09777">
        <ele>153</ele>
        <time>2015-11-01T10:15:46.033Z</time>
      </trkpt>
      <trkpt lat="47.81306" lon="2.09776">
        <ele>153</ele>
        <time>2015-11-01T10:15:45.070Z</time>
      </trkpt>
      <trkpt lat="47.813" lon="2.09775">
        <ele>153</ele>
        <time>2015-11-01T10:15:44.036Z</time>
      </trkpt>
      <trkpt lat="47.81295" lon="2.09774">
        <ele>152</ele>
        <time>2015-11-01T10:15:43.067Z</time>
      </trkpt>
      <trkpt lat="47.8129" lon="2.09773">
        <ele>152</ele>
        <time>2015-11-01T10:15:42.031Z</time>
      </trkpt>
      <trkpt lat="47.81284" lon="2.09772">
        <ele>152</ele>
        <time>2015-11-01T10:15:41.092Z</time>
      </trkpt>
      <trkpt lat="47.81279" lon="2.09771">
        <ele>152</ele>
        <time>2015-11-01T10:15:40.025Z</time>
      </trkpt>
      <trkpt lat="47.81273" lon="2.0977">
        <ele>152</ele>
        <time>2015-11-01T10:15:39.056Z</time>
      </trkpt>
      <trkpt lat="47.81268" lon="2.09767">
        <ele>152</ele>
        <time>2015-11-01T10:15:38.025Z</time>
      </trkpt>
      <trkpt lat="47.81262" lon="2.09766">
        <ele>152</ele>
        <time>2015-11-01T10:15:37.055Z</time>
      </trkpt>
      <trkpt lat="47.81257" lon="2.09765">
        <ele>152</ele>
        <time>2015-11-01T10:15:36.026Z</time>
      </trkpt>
      <trkpt lat="47.81251" lon="2.09764">
        <ele>152</ele>
        <time>2015-11-01T10:15:35.055Z</time>
      </trkpt>
      <trkpt lat="47.81246" lon="2.09763">
        <ele>152</ele>
        <time>2015-11-01T10:15:34.026Z</time>
      </trkpt>
      <trkpt lat="47.81241" lon="2.09762">
        <ele>152</ele>
        <time>2015-11-01T10:15:33.057Z</time>
      </trkpt>
      <trkpt lat="47.81236" lon="2.09761">
        <ele>152</ele>
        <time>2015-11-01T10:15:32.026Z</time>
      </trkpt>
      <trkpt lat="47.81231" lon="2.09761">
        <ele>152</ele>
        <time>2015-11-01T10:15:31.057Z</time>
      </trkpt>
      <trkpt lat="47.81226" lon="2.0976">
        <ele>152</ele>
        <time>2015-11-01T10:15:30.026Z</time>
      </trkpt>
      <trkpt lat="47.81221" lon="2.09759">
        <ele>152</ele>
        <time>2015-11-01T10:15:29.056Z</time>
      </trkpt>
      <trkpt lat="47.81216" lon="2.09758">
        <ele>152</ele>
        <time>2015-11-01T10:15:28.023Z</time>
      </trkpt>
      <trkpt lat="47.81211" lon="2.09757">
        <ele>152</ele>
        <time>2015-11-01T10:15:27.055Z</time>
      </trkpt>
      <trkpt lat="47.81206" lon="2.09757">
        <ele>151</ele>
        <time>2015-11-01T10:15:26.025Z</time>
      </trkpt>
      <trkpt lat="47.81201" lon="2.09756">
        <ele>151</ele>
        <time>2015-11-01T10:15:25.078Z</time>
      </trkpt>
      <trkpt lat="47.81196" lon="2.09755">
        <ele>151</ele>
        <time>2015-11-01T10:15:24.025Z</time>
      </trkpt>
      <trkpt lat="47.81191" lon="2.09753">
        <ele>152</ele>
        <time>2015-11-01T10:15:23.069Z</time>
      </trkpt>
      <trkpt lat="47.81186" lon="2.09752">
        <ele>152</ele>
        <time>2015-11-01T10:15:22.035Z</time>
      </trkpt>
      <trkpt lat="47.81181" lon="2.0975">
        <ele>152</ele>
        <time>2015-11-01T10:15:21.069Z</time>
      </trkpt>
      <trkpt lat="47.81175" lon="2.0975">
        <ele>152</ele>
        <time>2015-11-01T10:15:20.035Z</time>
      </trkpt>
      <trkpt lat="47.8117" lon="2.09749">
        <ele>152</ele>
        <time>2015-11-01T10:15:19.069Z</time>
      </trkpt>
      <trkpt lat="47.81165" lon="2.09748">
        <ele>151</ele>
        <time>2015-11-01T10:15:18.034Z</time>
      </trkpt>
      <trkpt lat="47.8116" lon="2.09747">
        <ele>151</ele>
        <time>2015-11-01T10:15:17.068Z</time>
      </trkpt>
      <trkpt lat="47.81155" lon="2.09745">
        <ele>151</ele>
        <time>2015-11-01T10:15:16.034Z</time>
      </trkpt>
      <trkpt lat="47.8115" lon="2.09744">
        <ele>151</ele>
        <time>2015-11-01T10:15:15.069Z</time>
      </trkpt>
      <trkpt lat="47.81145" lon="2.09743">
        <ele>151</ele>
        <time>2015-11-01T10:15:14.033Z</time>
      </trkpt>
      <trkpt lat="47.8114" lon="2.09743">
        <ele>151</ele>
        <time>2015-11-01T10:15:13.077Z</time>
      </trkpt>
      <trkpt lat="47.81135" lon="2.09742">
        <ele>151</ele>
        <time>2015-11-01T10:15:12.037Z</time>
      </trkpt>
      <trkpt lat="47.8113" lon="2.09741">
        <ele>151</ele>
        <time>2015-11-01T10:15:11.075Z</time>
      </trkpt>
      <trkpt lat="47.81126" lon="2.0974">
        <ele>150</ele>
        <time>2015-11-01T10:15:10.030Z</time>
      </trkpt>
      <trkpt lat="47.81121" lon="2.09739">
        <ele>151</ele>
        <time>2015-11-01T10:15:09.092Z</time>
      </trkpt>
      <trkpt lat="47.81116" lon="2.09738">
        <ele>150</ele>
        <time>2015-11-01T10:15:08.035Z</time>
      </trkpt>
      <trkpt lat="47.81111" lon="2.09737">
        <ele>150</ele>
        <time>2015-11-01T10:15:07.066Z</time>
      </trkpt>
      <trkpt lat="47.81106" lon="2.09736">
        <ele>150</ele>
        <time>2015-11-01T10:15:06.029Z</time>
      </trkpt>
      <trkpt lat="47.81101" lon="2.09735">
        <ele>150</ele>
        <time>2015-11-01T10:15:05.069Z</time>
      </trkpt>
      <trkpt lat="47.81096" lon="2.09734">
        <ele>150</ele>
        <time>2015-11-01T10:15:04.032Z</time>
      </trkpt>
      <trkpt lat="47.81091" lon="2.09733">
        <ele>150</ele>
        <time>2015-11-01T10:15:03.056Z</time>
      </trkpt>
      <trkpt lat="47.81086" lon="2.09732">
        <ele>150</ele>
        <time>2015-11-01T10:15:02.026Z</time>
      </trkpt>
      <trkpt lat="47.81081" lon="2.09732">
        <ele>150</ele>
        <time>2015-11-01T10:15:01.056Z</time>
      </trkpt>
      <trkpt lat="47.81076" lon="2.09732">
        <ele>150</ele>
        <time>2015-11-01T10:15:00.024Z</time>
      </trkpt>
      <trkpt lat="47.81071" lon="2.09731">
        <ele>149</ele>
        <time>2015-11-01T10:14:59.055Z</time>
      </trkpt>
      <trkpt lat="47.81066" lon="2.0973">
        <ele>149</ele>
        <time>2015-11-01T10:14:58.025Z</time>
      </trkpt>
      <trkpt lat="47.81062" lon="2.0973">
        <ele>149</ele>
        <time>2015-11-01T10:14:57.057Z</time>
      </trkpt>
      <trkpt lat="47.81057" lon="2.09729">
        <ele>149</ele>
        <time>2015-11-01T10:14:56.026Z</time>
      </trkpt>
      <trkpt lat="47.81051" lon="2.09728">
        <ele>149</ele>
        <time>2015-11-01T10:14:55.073Z</time>
      </trkpt>
      <trkpt lat="47.81046" lon="2.09727">
        <ele>149</ele>
        <time>2015-11-01T10:14:54.027Z</time>
      </trkpt>
      <trkpt lat="47.81041" lon="2.09726">
        <ele>149</ele>
        <time>2015-11-01T10:14:53.075Z</time>
      </trkpt>
      <trkpt lat="47.81035" lon="2.09725">
        <ele>149</ele>
        <time>2015-11-01T10:14:52.025Z</time>
      </trkpt>
      <trkpt lat="47.8103" lon="2.09724">
        <ele>149</ele>
        <time>2015-11-01T10:14:51.104Z</time>
      </trkpt>
      <trkpt lat="47.81024" lon="2.09723">
        <ele>149</ele>
        <time>2015-11-01T10:14:50.026Z</time>
      </trkpt>
      <trkpt lat="47.81019" lon="2.09722">
        <ele>149</ele>
        <time>2015-11-01T10:14:49.055Z</time>
      </trkpt>
      <trkpt lat="47.81013" lon="2.09721">
        <ele>149</ele>
        <time>2015-11-01T10:14:48.025Z</time>
      </trkpt>
      <trkpt lat="47.81008" lon="2.0972">
        <ele>149</ele>
        <time>2015-11-01T10:14:47.057Z</time>
      </trkpt>
      <trkpt lat="47.81002" lon="2.09719">
        <ele>149</ele>
        <time>2015-11-01T10:14:46.026Z</time>
      </trkpt>
      <trkpt lat="47.80997" lon="2.09719">
        <ele>148</ele>
        <time>2015-11-01T10:14:45.060Z</time>
      </trkpt>
      <trkpt lat="47.80991" lon="2.09718">
        <ele>148</ele>
        <time>2015-11-01T10:14:44.037Z</time>
      </trkpt>
      <trkpt lat="47.80985" lon="2.09716">
        <ele>148</ele>
        <time>2015-11-01T10:14:43.064Z</time>
      </trkpt>
      <trkpt lat="47.8098" lon="2.09716">
        <ele>148</ele>
        <time>2015-11-01T10:14:42.030Z</time>
      </trkpt>
      <trkpt lat="47.80974" lon="2.09714">
        <ele>148</ele>
        <time>2015-11-01T10:14:41.063Z</time>
      </trkpt>
      <trkpt lat="47.80969" lon="2.09714">
        <ele>148</ele>
        <time>2015-11-01T10:14:40.035Z</time>
      </trkpt>
      <trkpt lat="47.80963" lon="2.09713">
        <ele>147</ele>
        <time>2015-11-01T10:14:39.067Z</time>
      </trkpt>
      <trkpt lat="47.80958" lon="2.09712">
        <ele>147</ele>
        <time>2015-11-01T10:14:38.030Z</time>
      </trkpt>
      <trkpt lat="47.80952" lon="2.09711">
        <ele>147</ele>
        <time>2015-11-01T10:14:37.070Z</time>
      </trkpt>
      <trkpt lat="47.80947" lon="2.0971">
        <ele>147</ele>
        <time>2015-11-01T10:14:36.031Z</time>
      </trkpt>
      <trkpt lat="47.80941" lon="2.09709">
        <ele>147</ele>
        <time>2015-11-01T10:14:35.066Z</time>
      </trkpt>
      <trkpt lat="47.80936" lon="2.09708">
        <ele>147</ele>
        <time>2015-11-01T10:14:34.032Z</time>
      </trkpt>
      <trkpt lat="47.8093" lon="2.09707">
        <ele>147</ele>
        <time>2015-11-01T10:14:33.068Z</time>
      </trkpt>
      <trkpt lat="47.80925" lon="2.09706">
        <ele>147</ele>
        <time>2015-11-01T10:14:32.058Z</time>
      </trkpt>
      <trkpt lat="47.8092" lon="2.09705">
        <ele>147</ele>
        <time>2015-11-01T10:14:31.074Z</time>
      </trkpt>
      <trkpt lat="47.80914" lon="2.09705">
        <ele>147</ele>
        <time>2015-11-01T10:14:30.035Z</time>
      </trkpt>
      <trkpt lat="47.80909" lon="2.09703">
        <ele>147</ele>
        <time>2015-11-01T10:14:29.070Z</time>
      </trkpt>
      <trkpt lat="47.80903" lon="2.09703">
        <ele>146</ele>
        <time>2015-11-01T10:14:28.036Z</time>
      </trkpt>
      <trkpt lat="47.80898" lon="2.09701">
        <ele>146</ele>
        <time>2015-11-01T10:14:27.225Z</time>
      </trkpt>
      <trkpt lat="47.80893" lon="2.09701">
        <ele>146</ele>
        <time>2015-11-01T10:14:26.035Z</time>
      </trkpt>
      <trkpt lat="47.80888" lon="2.09701">
        <ele>146</ele>
        <time>2015-11-01T10:14:25.069Z</time>
      </trkpt>
      <trkpt lat="47.80882" lon="2.09701">
        <ele>146</ele>
        <time>2015-11-01T10:14:24.033Z</time>
      </trkpt>
      <trkpt lat="47.80877" lon="2.097">
        <ele>145</ele>
        <time>2015-11-01T10:14:23.069Z</time>
      </trkpt>
      <trkpt lat="47.80869" lon="2.09698">
        <ele>145</ele>
        <time>2015-11-01T10:14:21.034Z</time>
      </trkpt>
      <trkpt lat="47.80865" lon="2.09697">
        <ele>145</ele>
        <time>2015-11-01T10:14:20.067Z</time>
      </trkpt>
      <trkpt lat="47.80856" lon="2.09696">
        <ele>145</ele>
        <time>2015-11-01T10:14:18.034Z</time>
      </trkpt>
      <trkpt lat="47.80853" lon="2.09695">
        <ele>145</ele>
        <time>2015-11-01T10:14:17.069Z</time>
      </trkpt>
      <trkpt lat="47.80846" lon="2.09696">
        <ele>145</ele>
        <time>2015-11-01T10:14:15.024Z</time>
      </trkpt>
      <trkpt lat="47.80844" lon="2.097">
        <ele>145</ele>
        <time>2015-11-01T10:14:14.140Z</time>
      </trkpt>
      <trkpt lat="47.80842" lon="2.09713">
        <ele>144</ele>
        <time>2015-11-01T10:14:12.038Z</time>
      </trkpt>
      <trkpt lat="47.80842" lon="2.0972">
        <ele>144</ele>
        <time>2015-11-01T10:14:11.102Z</time>
      </trkpt>
      <trkpt lat="47.80841" lon="2.09729">
        <ele>145</ele>
        <time>2015-11-01T10:14:10.033Z</time>
      </trkpt>
      <trkpt lat="47.80841" lon="2.09737">
        <ele>145</ele>
        <time>2015-11-01T10:14:09.111Z</time>
      </trkpt>
      <trkpt lat="47.80841" lon="2.09745">
        <ele>145</ele>
        <time>2015-11-01T10:14:08.025Z</time>
      </trkpt>
      <trkpt lat="47.8084" lon="2.09753">
        <ele>145</ele>
        <time>2015-11-01T10:14:07.056Z</time>
      </trkpt>
      <trkpt lat="47.8084" lon="2.0976">
        <ele>145</ele>
        <time>2015-11-01T10:14:06.029Z</time>
      </trkpt>
      <trkpt lat="47.8084" lon="2.09769">
        <ele>145</ele>
        <time>2015-11-01T10:14:05.057Z</time>
      </trkpt>
      <trkpt lat="47.80841" lon="2.09779">
        <ele>146</ele>
        <time>2015-11-01T10:14:04.032Z</time>
      </trkpt>
      <trkpt lat="47.8084" lon="2.09786">
        <ele>146</ele>
        <time>2015-11-01T10:14:03.055Z</time>
      </trkpt>
      <trkpt lat="47.8084" lon="2.09794">
        <ele>147</ele>
        <time>2015-11-01T10:14:02.027Z</time>
      </trkpt>
      <trkpt lat="47.8084" lon="2.09803">
        <ele>147</ele>
        <time>2015-11-01T10:14:01.057Z</time>
      </trkpt>
      <trkpt lat="47.8084" lon="2.0981">
        <ele>147</ele>
        <time>2015-11-01T10:14:00.028Z</time>
      </trkpt>
      <trkpt lat="47.8084" lon="2.09818">
        <ele>147</ele>
        <time>2015-11-01T10:13:59.062Z</time>
      </trkpt>
      <trkpt lat="47.80839" lon="2.09826">
        <ele>147</ele>
        <time>2015-11-01T10:13:58.035Z</time>
      </trkpt>
      <trkpt lat="47.80839" lon="2.09833">
        <ele>147</ele>
        <time>2015-11-01T10:13:57.068Z</time>
      </trkpt>
      <trkpt lat="47.80839" lon="2.09841">
        <ele>147</ele>
        <time>2015-11-01T10:13:56.038Z</time>
      </trkpt>
      <trkpt lat="47.80838" lon="2.09849">
        <ele>147</ele>
        <time>2015-11-01T10:13:55.094Z</time>
      </trkpt>
      <trkpt lat="47.80838" lon="2.09857">
        <ele>147</ele>
        <time>2015-11-01T10:13:54.039Z</time>
      </trkpt>
      <trkpt lat="47.80838" lon="2.09866">
        <ele>147</ele>
        <time>2015-11-01T10:13:53.061Z</time>
      </trkpt>
      <trkpt lat="47.80838" lon="2.09874">
        <ele>147</ele>
        <time>2015-11-01T10:13:52.037Z</time>
      </trkpt>
      <trkpt lat="47.80838" lon="2.09882">
        <ele>147</ele>
        <time>2015-11-01T10:13:51.073Z</time>
      </trkpt>
      <trkpt lat="47.80838" lon="2.0989">
        <ele>147</ele>
        <time>2015-11-01T10:13:50.032Z</time>
      </trkpt>
      <trkpt lat="47.80837" lon="2.09899">
        <ele>147</ele>
        <time>2015-11-01T10:13:49.062Z</time>
      </trkpt>
      <trkpt lat="47.80836" lon="2.09908">
        <ele>147</ele>
        <time>2015-11-01T10:13:48.034Z</time>
      </trkpt>
      <trkpt lat="47.80836" lon="2.09916">
        <ele>147</ele>
        <time>2015-11-01T10:13:47.071Z</time>
      </trkpt>
      <trkpt lat="47.80836" lon="2.09925">
        <ele>147</ele>
        <time>2015-11-01T10:13:46.036Z</time>
      </trkpt>
      <trkpt lat="47.80836" lon="2.09934">
        <ele>147</ele>
        <time>2015-11-01T10:13:45.061Z</time>
      </trkpt>
      <trkpt lat="47.80836" lon="2.09942">
        <ele>147</ele>
        <time>2015-11-01T10:13:44.032Z</time>
      </trkpt>
      <trkpt lat="47.80835" lon="2.0995">
        <ele>147</ele>
        <time>2015-11-01T10:13:43.069Z</time>
      </trkpt>
      <trkpt lat="47.80835" lon="2.09959">
        <ele>147</ele>
        <time>2015-11-01T10:13:42.035Z</time>
      </trkpt>
      <trkpt lat="47.80835" lon="2.09967">
        <ele>147</ele>
        <time>2015-11-01T10:13:41.073Z</time>
      </trkpt>
      <trkpt lat="47.80834" lon="2.09975">
        <ele>147</ele>
        <time>2015-11-01T10:13:40.034Z</time>
      </trkpt>
      <trkpt lat="47.80834" lon="2.09983">
        <ele>146</ele>
        <time>2015-11-01T10:13:39.099Z</time>
      </trkpt>
      <trkpt lat="47.80834" lon="2.09991">
        <ele>146</ele>
        <time>2015-11-01T10:13:38.034Z</time>
      </trkpt>
      <trkpt lat="47.80834" lon="2.09999">
        <ele>147</ele>
        <time>2015-11-01T10:13:37.068Z</time>
      </trkpt>
      <trkpt lat="47.80833" lon="2.10007">
        <ele>147</ele>
        <time>2015-11-01T10:13:36.035Z</time>
      </trkpt>
      <trkpt lat="47.80833" lon="2.10016">
        <ele>147</ele>
        <time>2015-11-01T10:13:35.124Z</time>
      </trkpt>
      <trkpt lat="47.80832" lon="2.10025">
        <ele>147</ele>
        <time>2015-11-01T10:13:34.026Z</time>
      </trkpt>
      <trkpt lat="47.80832" lon="2.10035">
        <ele>147</ele>
        <time>2015-11-01T10:13:33.056Z</time>
      </trkpt>
      <trkpt lat="47.80832" lon="2.10044">
        <ele>148</ele>
        <time>2015-11-01T10:13:32.027Z</time>
      </trkpt>
      <trkpt lat="47.80832" lon="2.10052">
        <ele>149</ele>
        <time>2015-11-01T10:13:31.057Z</time>
      </trkpt>
      <trkpt lat="47.80832" lon="2.1006">
        <ele>149</ele>
        <time>2015-11-01T10:13:30.026Z</time>
      </trkpt>
      <trkpt lat="47.80832" lon="2.10068">
        <ele>149</ele>
        <time>2015-11-01T10:13:29.057Z</time>
      </trkpt>
      <trkpt lat="47.80831" lon="2.10076">
        <ele>149</ele>
        <time>2015-11-01T10:13:28.028Z</time>
      </trkpt>
      <trkpt lat="47.80831" lon="2.10084">
        <ele>149</ele>
        <time>2015-11-01T10:13:27.056Z</time>
      </trkpt>
      <trkpt lat="47.80831" lon="2.10092">
        <ele>149</ele>
        <time>2015-11-01T10:13:26.025Z</time>
      </trkpt>
      <trkpt lat="47.8083" lon="2.10099">
        <ele>149</ele>
        <time>2015-11-01T10:13:25.056Z</time>
      </trkpt>
      <trkpt lat="47.8083" lon="2.10107">
        <ele>149</ele>
        <time>2015-11-01T10:13:24.025Z</time>
      </trkpt>
      <trkpt lat="47.8083" lon="2.10114">
        <ele>148</ele>
        <time>2015-11-01T10:13:23.091Z</time>
      </trkpt>
      <trkpt lat="47.80829" lon="2.10122">
        <ele>148</ele>
        <time>2015-11-01T10:13:22.027Z</time>
      </trkpt>
      <trkpt lat="47.80829" lon="2.10131">
        <ele>147</ele>
        <time>2015-11-01T10:13:21.058Z</time>
      </trkpt>
      <trkpt lat="47.80828" lon="2.10139">
        <ele>147</ele>
        <time>2015-11-01T10:13:20.027Z</time>
      </trkpt>
      <trkpt lat="47.80828" lon="2.10148">
        <ele>147</ele>
        <time>2015-11-01T10:13:19.057Z</time>
      </trkpt>
      <trkpt lat="47.80828" lon="2.10156">
        <ele>147</ele>
        <time>2015-11-01T10:13:18.025Z</time>
      </trkpt>
      <trkpt lat="47.80828" lon="2.10164">
        <ele>146</ele>
        <time>2015-11-01T10:13:17.056Z</time>
      </trkpt>
      <trkpt lat="47.80827" lon="2.10172">
        <ele>146</ele>
        <time>2015-11-01T10:13:16.025Z</time>
      </trkpt>
      <trkpt lat="47.80827" lon="2.1018">
        <ele>146</ele>
        <time>2015-11-01T10:13:15.059Z</time>
      </trkpt>
      <trkpt lat="47.80826" lon="2.10188">
        <ele>146</ele>
        <time>2015-11-01T10:13:14.031Z</time>
      </trkpt>
      <trkpt lat="47.80825" lon="2.10196">
        <ele>145</ele>
        <time>2015-11-01T10:13:13.057Z</time>
      </trkpt>
      <trkpt lat="47.80825" lon="2.10203">
        <ele>145</ele>
        <time>2015-11-01T10:13:12.038Z</time>
      </trkpt>
      <trkpt lat="47.80825" lon="2.10211">
        <ele>145</ele>
        <time>2015-11-01T10:13:11.072Z</time>
      </trkpt>
      <trkpt lat="47.80825" lon="2.1022">
        <ele>145</ele>
        <time>2015-11-01T10:13:10.036Z</time>
      </trkpt>
      <trkpt lat="47.80825" lon="2.10227">
        <ele>145</ele>
        <time>2015-11-01T10:13:09.070Z</time>
      </trkpt>
      <trkpt lat="47.80825" lon="2.10236">
        <ele>145</ele>
        <time>2015-11-01T10:13:08.035Z</time>
      </trkpt>
      <trkpt lat="47.80825" lon="2.10244">
        <ele>145</ele>
        <time>2015-11-01T10:13:07.097Z</time>
      </trkpt>
      <trkpt lat="47.80825" lon="2.10252">
        <ele>146</ele>
        <time>2015-11-01T10:13:06.036Z</time>
      </trkpt>
      <trkpt lat="47.80825" lon="2.10261">
        <ele>145</ele>
        <time>2015-11-01T10:13:05.071Z</time>
      </trkpt>
      <trkpt lat="47.80825" lon="2.10269">
        <ele>145</ele>
        <time>2015-11-01T10:13:04.036Z</time>
      </trkpt>
      <trkpt lat="47.80824" lon="2.10277">
        <ele>146</ele>
        <time>2015-11-01T10:13:03.069Z</time>
      </trkpt>
      <trkpt lat="47.80824" lon="2.10285">
        <ele>146</ele>
        <time>2015-11-01T10:13:02.031Z</time>
      </trkpt>
      <trkpt lat="47.80823" lon="2.10294">
        <ele>147</ele>
        <time>2015-11-01T10:13:01.070Z</time>
      </trkpt>
      <trkpt lat="47.80822" lon="2.10302">
        <ele>147</ele>
        <time>2015-11-01T10:13:00.065Z</time>
      </trkpt>
      <trkpt lat="47.80822" lon="2.1031">
        <ele>147</ele>
        <time>2015-11-01T10:12:59.073Z</time>
      </trkpt>
      <trkpt lat="47.80822" lon="2.10319">
        <ele>147</ele>
        <time>2015-11-01T10:12:58.035Z</time>
      </trkpt>
      <trkpt lat="47.80821" lon="2.10327">
        <ele>147</ele>
        <time>2015-11-01T10:12:57.070Z</time>
      </trkpt>
      <trkpt lat="47.80821" lon="2.10336">
        <ele>147</ele>
        <time>2015-11-01T10:12:56.034Z</time>
      </trkpt>
      <trkpt lat="47.80821" lon="2.10343">
        <ele>147</ele>
        <time>2015-11-01T10:12:55.070Z</time>
      </trkpt>
      <trkpt lat="47.8082" lon="2.10352">
        <ele>147</ele>
        <time>2015-11-01T10:12:54.033Z</time>
      </trkpt>
      <trkpt lat="47.8082" lon="2.10361">
        <ele>147</ele>
        <time>2015-11-01T10:12:53.063Z</time>
      </trkpt>
      <trkpt lat="47.8082" lon="2.1037">
        <ele>147</ele>
        <time>2015-11-01T10:12:52.031Z</time>
      </trkpt>
      <trkpt lat="47.80819" lon="2.10378">
        <ele>147</ele>
        <time>2015-11-01T10:12:51.092Z</time>
      </trkpt>
      <trkpt lat="47.80819" lon="2.10387">
        <ele>147</ele>
        <time>2015-11-01T10:12:50.033Z</time>
      </trkpt>
      <trkpt lat="47.80819" lon="2.10395">
        <ele>147</ele>
        <time>2015-11-01T10:12:49.067Z</time>
      </trkpt>
      <trkpt lat="47.80819" lon="2.10403">
        <ele>147</ele>
        <time>2015-11-01T10:12:48.028Z</time>
      </trkpt>
      <trkpt lat="47.80818" lon="2.10412">
        <ele>147</ele>
        <time>2015-11-01T10:12:47.221Z</time>
      </trkpt>
      <trkpt lat="47.80818" lon="2.10421">
        <ele>147</ele>
        <time>2015-11-01T10:12:46.031Z</time>
      </trkpt>
      <trkpt lat="47.80818" lon="2.10431">
        <ele>147</ele>
        <time>2015-11-01T10:12:45.072Z</time>
      </trkpt>
      <trkpt lat="47.80817" lon="2.1044">
        <ele>147</ele>
        <time>2015-11-01T10:12:44.036Z</time>
      </trkpt>
      <trkpt lat="47.80816" lon="2.10448">
        <ele>147</ele>
        <time>2015-11-01T10:12:43.070Z</time>
      </trkpt>
      <trkpt lat="47.80815" lon="2.10457">
        <ele>146</ele>
        <time>2015-11-01T10:12:42.035Z</time>
      </trkpt>
      <trkpt lat="47.80815" lon="2.10465">
        <ele>146</ele>
        <time>2015-11-01T10:12:41.068Z</time>
      </trkpt>
      <trkpt lat="47.80815" lon="2.10473">
        <ele>146</ele>
        <time>2015-11-01T10:12:40.033Z</time>
      </trkpt>
      <trkpt lat="47.80815" lon="2.10482">
        <ele>147</ele>
        <time>2015-11-01T10:12:39.069Z</time>
      </trkpt>
      <trkpt lat="47.80814" lon="2.1049">
        <ele>146</ele>
        <time>2015-11-01T10:12:38.031Z</time>
      </trkpt>
      <trkpt lat="47.80815" lon="2.10498">
        <ele>146</ele>
        <time>2015-11-01T10:12:37.085Z</time>
      </trkpt>
      <trkpt lat="47.80814" lon="2.10507">
        <ele>147</ele>
        <time>2015-11-01T10:12:36.034Z</time>
      </trkpt>
      <trkpt lat="47.80813" lon="2.10514">
        <ele>147</ele>
        <time>2015-11-01T10:12:35.239Z</time>
      </trkpt>
      <trkpt lat="47.80813" lon="2.10522">
        <ele>147</ele>
        <time>2015-11-01T10:12:34.033Z</time>
      </trkpt>
      <trkpt lat="47.80813" lon="2.1053">
        <ele>147</ele>
        <time>2015-11-01T10:12:33.066Z</time>
      </trkpt>
      <trkpt lat="47.80812" lon="2.10539">
        <ele>147</ele>
        <time>2015-11-01T10:12:32.034Z</time>
      </trkpt>
      <trkpt lat="47.80812" lon="2.10547">
        <ele>148</ele>
        <time>2015-11-01T10:12:31.068Z</time>
      </trkpt>
      <trkpt lat="47.80812" lon="2.10555">
        <ele>148</ele>
        <time>2015-11-01T10:12:30.030Z</time>
      </trkpt>
      <trkpt lat="47.80811" lon="2.10564">
        <ele>148</ele>
        <time>2015-11-01T10:12:29.070Z</time>
      </trkpt>
      <trkpt lat="47.80811" lon="2.10572">
        <ele>148</ele>
        <time>2015-11-01T10:12:28.031Z</time>
      </trkpt>
      <trkpt lat="47.80811" lon="2.1058">
        <ele>148</ele>
        <time>2015-11-01T10:12:27.069Z</time>
      </trkpt>
      <trkpt lat="47.80811" lon="2.10588">
        <ele>148</ele>
        <time>2015-11-01T10:12:26.033Z</time>
      </trkpt>
      <trkpt lat="47.80811" lon="2.10597">
        <ele>148</ele>
        <time>2015-11-01T10:12:25.070Z</time>
      </trkpt>
      <trkpt lat="47.8081" lon="2.10605">
        <ele>148</ele>
        <time>2015-11-01T10:12:24.031Z</time>
      </trkpt>
      <trkpt lat="47.8081" lon="2.10613">
        <ele>148</ele>
        <time>2015-11-01T10:12:23.066Z</time>
      </trkpt>
      <trkpt lat="47.8081" lon="2.10621">
        <ele>148</ele>
        <time>2015-11-01T10:12:22.081Z</time>
      </trkpt>
      <trkpt lat="47.8081" lon="2.10628">
        <ele>148</ele>
        <time>2015-11-01T10:12:21.066Z</time>
      </trkpt>
      <trkpt lat="47.8081" lon="2.10642">
        <ele>149</ele>
        <time>2015-11-01T10:12:19.033Z</time>
      </trkpt>
      <trkpt lat="47.80809" lon="2.10646">
        <ele>150</ele>
        <time>2015-11-01T10:12:18.068Z</time>
      </trkpt>
      <trkpt lat="47.80801" lon="2.10652">
        <ele>150</ele>
        <time>2015-11-01T10:12:16.037Z</time>
      </trkpt>
      <trkpt lat="47.80796" lon="2.10651">
        <ele>150</ele>
        <time>2015-11-01T10:12:15.073Z</time>
      </trkpt>
      <trkpt lat="47.80791" lon="2.1065">
        <ele>150</ele>
        <time>2015-11-01T10:12:14.033Z</time>
      </trkpt>
      <trkpt lat="47.80785" lon="2.10649">
        <ele>150</ele>
        <time>2015-11-01T10:12:13.074Z</time>
      </trkpt>
      <trkpt lat="47.80779" lon="2.10647">
        <ele>150</ele>
        <time>2015-11-01T10:12:12.035Z</time>
      </trkpt>
      <trkpt lat="47.80773" lon="2.10645">
        <ele>151</ele>
        <time>2015-11-01T10:12:11.069Z</time>
      </trkpt>
      <trkpt lat="47.80766" lon="2.10644">
        <ele>151</ele>
        <time>2015-11-01T10:12:10.034Z</time>
      </trkpt>
      <trkpt lat="47.80759" lon="2.10642">
        <ele>151</ele>
        <time>2015-11-01T10:12:09.092Z</time>
      </trkpt>
      <trkpt lat="47.80752" lon="2.10641">
        <ele>151</ele>
        <time>2015-11-01T10:12:08.033Z</time>
      </trkpt>
      <trkpt lat="47.80745" lon="2.1064">
        <ele>150</ele>
        <time>2015-11-01T10:12:07.069Z</time>
      </trkpt>
      <trkpt lat="47.80738" lon="2.10638">
        <ele>150</ele>
        <time>2015-11-01T10:12:06.034Z</time>
      </trkpt>
      <trkpt lat="47.80731" lon="2.10636">
        <ele>150</ele>
        <time>2015-11-01T10:12:05.070Z</time>
      </trkpt>
      <trkpt lat="47.80723" lon="2.10633">
        <ele>150</ele>
        <time>2015-11-01T10:12:04.038Z</time>
      </trkpt>
      <trkpt lat="47.80716" lon="2.10629">
        <ele>150</ele>
        <time>2015-11-01T10:12:03.070Z</time>
      </trkpt>
      <trkpt lat="47.8071" lon="2.10622">
        <ele>150</ele>
        <time>2015-11-01T10:12:02.035Z</time>
      </trkpt>
      <trkpt lat="47.80705" lon="2.10614">
        <ele>150</ele>
        <time>2015-11-01T10:12:01.072Z</time>
      </trkpt>
      <trkpt lat="47.80701" lon="2.10604">
        <ele>150</ele>
        <time>2015-11-01T10:12:00.065Z</time>
      </trkpt>
      <trkpt lat="47.80696" lon="2.10594">
        <ele>150</ele>
        <time>2015-11-01T10:11:59.066Z</time>
      </trkpt>
      <trkpt lat="47.80692" lon="2.10585">
        <ele>151</ele>
        <time>2015-11-01T10:11:58.032Z</time>
      </trkpt>
      <trkpt lat="47.80689" lon="2.10575">
        <ele>151</ele>
        <time>2015-11-01T10:11:57.224Z</time>
      </trkpt>
      <trkpt lat="47.80685" lon="2.10565">
        <ele>152</ele>
        <time>2015-11-01T10:11:56.033Z</time>
      </trkpt>
      <trkpt lat="47.80681" lon="2.10556">
        <ele>152</ele>
        <time>2015-11-01T10:11:55.069Z</time>
      </trkpt>
      <trkpt lat="47.80677" lon="2.10547">
        <ele>152</ele>
        <time>2015-11-01T10:11:54.033Z</time>
      </trkpt>
      <trkpt lat="47.80673" lon="2.10537">
        <ele>152</ele>
        <time>2015-11-01T10:11:53.093Z</time>
      </trkpt>
      <trkpt lat="47.80668" lon="2.10528">
        <ele>152</ele>
        <time>2015-11-01T10:11:52.034Z</time>
      </trkpt>
      <trkpt lat="47.80663" lon="2.10518">
        <ele>152</ele>
        <time>2015-11-01T10:11:51.070Z</time>
      </trkpt>
      <trkpt lat="47.80659" lon="2.10509">
        <ele>152</ele>
        <time>2015-11-01T10:11:50.035Z</time>
      </trkpt>
      <trkpt lat="47.80654" lon="2.105">
        <ele>152</ele>
        <time>2015-11-01T10:11:49.065Z</time>
      </trkpt>
      <trkpt lat="47.80648" lon="2.10492">
        <ele>152</ele>
        <time>2015-11-01T10:11:48.033Z</time>
      </trkpt>
      <trkpt lat="47.80642" lon="2.10484">
        <ele>154</ele>
        <time>2015-11-01T10:11:47.070Z</time>
      </trkpt>
      <trkpt lat="47.80635" lon="2.10476">
        <ele>154</ele>
        <time>2015-11-01T10:11:46.035Z</time>
      </trkpt>
      <trkpt lat="47.80628" lon="2.10471">
        <ele>154</ele>
        <time>2015-11-01T10:11:45.233Z</time>
      </trkpt>
      <trkpt lat="47.8062" lon="2.10467">
        <ele>154</ele>
        <time>2015-11-01T10:11:44.034Z</time>
      </trkpt>
      <trkpt lat="47.80612" lon="2.10464">
        <ele>155</ele>
        <time>2015-11-01T10:11:43.067Z</time>
      </trkpt>
      <trkpt lat="47.80604" lon="2.10462">
        <ele>156</ele>
        <time>2015-11-01T10:11:42.029Z</time>
      </trkpt>
      <trkpt lat="47.80597" lon="2.10459">
        <ele>155</ele>
        <time>2015-11-01T10:11:41.068Z</time>
      </trkpt>
      <trkpt lat="47.80589" lon="2.10458">
        <ele>155</ele>
        <time>2015-11-01T10:11:40.034Z</time>
      </trkpt>
      <trkpt lat="47.80582" lon="2.10456">
        <ele>155</ele>
        <time>2015-11-01T10:11:39.070Z</time>
      </trkpt>
      <trkpt lat="47.80575" lon="2.10454">
        <ele>156</ele>
        <time>2015-11-01T10:11:38.033Z</time>
      </trkpt>
      <trkpt lat="47.80568" lon="2.10453">
        <ele>156</ele>
        <time>2015-11-01T10:11:37.094Z</time>
      </trkpt>
      <trkpt lat="47.80561" lon="2.10451">
        <ele>156</ele>
        <time>2015-11-01T10:11:36.034Z</time>
      </trkpt>
      <trkpt lat="47.80553" lon="2.10449">
        <ele>156</ele>
        <time>2015-11-01T10:11:35.070Z</time>
      </trkpt>
      <trkpt lat="47.80544" lon="2.10447">
        <ele>156</ele>
        <time>2015-11-01T10:11:34.034Z</time>
      </trkpt>
      <trkpt lat="47.80535" lon="2.10445">
        <ele>157</ele>
        <time>2015-11-01T10:11:33.095Z</time>
      </trkpt>
      <trkpt lat="47.80535" lon="2.10445">
        <ele>157</ele>
        <time>2015-11-01T10:11:33.034Z</time>
      </trkpt>
      <trkpt lat="47.80525" lon="2.10442">
        <ele>157</ele>
        <time>2015-11-01T10:11:32.225Z</time>
      </trkpt>
      <trkpt lat="47.80525" lon="2.10442">
        <ele>157</ele>
        <time>2015-11-01T10:11:32.035Z</time>
      </trkpt>
      <trkpt lat="47.80516" lon="2.1044">
        <ele>158</ele>
        <time>2015-11-01T10:11:31.094Z</time>
      </trkpt>
      <trkpt lat="47.80516" lon="2.1044">
        <ele>158</ele>
        <time>2015-11-01T10:11:31.036Z</time>
      </trkpt>
      <trkpt lat="47.80506" lon="2.10437">
        <ele>158</ele>
        <time>2015-11-01T10:11:30.097Z</time>
      </trkpt>
      <trkpt lat="47.80506" lon="2.10437">
        <ele>158</ele>
        <time>2015-11-01T10:11:30.034Z</time>
      </trkpt>
      <trkpt lat="47.80496" lon="2.10434">
        <ele>159</ele>
        <time>2015-11-01T10:11:29.077Z</time>
      </trkpt>
      <trkpt lat="47.80496" lon="2.10434">
        <ele>159</ele>
        <time>2015-11-01T10:11:29.034Z</time>
      </trkpt>
      <trkpt lat="47.80486" lon="2.10432">
        <ele>159</ele>
        <time>2015-11-01T10:11:28.100Z</time>
      </trkpt>
      <trkpt lat="47.80486" lon="2.10432">
        <ele>159</ele>
        <time>2015-11-01T10:11:28.035Z</time>
      </trkpt>
      <trkpt lat="47.80476" lon="2.10429">
        <ele>160</ele>
        <time>2015-11-01T10:11:27.095Z</time>
      </trkpt>
      <trkpt lat="47.80476" lon="2.10429">
        <ele>160</ele>
        <time>2015-11-01T10:11:27.031Z</time>
      </trkpt>
      <trkpt lat="47.80466" lon="2.10426">
        <ele>160</ele>
        <time>2015-11-01T10:11:26.071Z</time>
      </trkpt>
      <trkpt lat="47.80466" lon="2.10426">
        <ele>160</ele>
        <time>2015-11-01T10:11:26.029Z</time>
      </trkpt>
      <trkpt lat="47.80456" lon="2.10423">
        <ele>161</ele>
        <time>2015-11-01T10:11:25.094Z</time>
      </trkpt>
      <trkpt lat="47.80456" lon="2.10423">
        <ele>161</ele>
        <time>2015-11-01T10:11:25.033Z</time>
      </trkpt>
      <trkpt lat="47.80446" lon="2.10421">
        <ele>161</ele>
        <time>2015-11-01T10:11:24.123Z</time>
      </trkpt>
      <trkpt lat="47.80446" lon="2.10421">
        <ele>161</ele>
        <time>2015-11-01T10:11:24.025Z</time>
      </trkpt>
      <trkpt lat="47.80436" lon="2.10418">
        <ele>162</ele>
        <time>2015-11-01T10:11:23.132Z</time>
      </trkpt>
      <trkpt lat="47.80436" lon="2.10418">
        <ele>162</ele>
        <time>2015-11-01T10:11:23.025Z</time>
      </trkpt>
      <trkpt lat="47.80426" lon="2.10415">
        <ele>162</ele>
        <time>2015-11-01T10:11:22.117Z</time>
      </trkpt>
      <trkpt lat="47.80426" lon="2.10415">
        <ele>162</ele>
        <time>2015-11-01T10:11:22.026Z</time>
      </trkpt>
      <trkpt lat="47.80417" lon="2.10413">
        <ele>163</ele>
        <time>2015-11-01T10:11:21.137Z</time>
      </trkpt>
      <trkpt lat="47.80417" lon="2.10413">
        <ele>163</ele>
        <time>2015-11-01T10:11:21.025Z</time>
      </trkpt>
      <trkpt lat="47.80407" lon="2.10411">
        <ele>164</ele>
        <time>2015-11-01T10:11:20.082Z</time>
      </trkpt>
      <trkpt lat="47.80407" lon="2.10411">
        <ele>164</ele>
        <time>2015-11-01T10:11:20.024Z</time>
      </trkpt>
      <trkpt lat="47.80398" lon="2.10408">
        <ele>164</ele>
        <time>2015-11-01T10:11:19.083Z</time>
      </trkpt>
      <trkpt lat="47.80398" lon="2.10408">
        <ele>164</ele>
        <time>2015-11-01T10:11:19.027Z</time>
      </trkpt>
      <trkpt lat="47.80389" lon="2.10406">
        <ele>164</ele>
        <time>2015-11-01T10:11:18.054Z</time>
      </trkpt>
      <trkpt lat="47.80381" lon="2.10404">
        <ele>165</ele>
        <time>2015-11-01T10:11:17.027Z</time>
      </trkpt>
      <trkpt lat="47.80373" lon="2.10402">
        <ele>166</ele>
        <time>2015-11-01T10:11:16.085Z</time>
      </trkpt>
      <trkpt lat="47.80365" lon="2.104">
        <ele>167</ele>
        <time>2015-11-01T10:11:15.029Z</time>
      </trkpt>
      <trkpt lat="47.80357" lon="2.10398">
        <ele>167</ele>
        <time>2015-11-01T10:11:14.068Z</time>
      </trkpt>
      <trkpt lat="47.80349" lon="2.10396">
        <ele>167</ele>
        <time>2015-11-01T10:11:13.033Z</time>
      </trkpt>
      <trkpt lat="47.80342" lon="2.10394">
        <ele>168</ele>
        <time>2015-11-01T10:11:12.071Z</time>
      </trkpt>
      <trkpt lat="47.80335" lon="2.10392">
        <ele>168</ele>
        <time>2015-11-01T10:11:11.032Z</time>
      </trkpt>
      <trkpt lat="47.80327" lon="2.1039">
        <ele>168</ele>
        <time>2015-11-01T10:11:10.060Z</time>
      </trkpt>
      <trkpt lat="47.80321" lon="2.10388">
        <ele>168</ele>
        <time>2015-11-01T10:11:09.034Z</time>
      </trkpt>
      <trkpt lat="47.80314" lon="2.10386">
        <ele>169</ele>
        <time>2015-11-01T10:11:08.070Z</time>
      </trkpt>
      <trkpt lat="47.80307" lon="2.10385">
        <ele>169</ele>
        <time>2015-11-01T10:11:07.033Z</time>
      </trkpt>
      <trkpt lat="47.80301" lon="2.10384">
        <ele>169</ele>
        <time>2015-11-01T10:11:06.070Z</time>
      </trkpt>
      <trkpt lat="47.80294" lon="2.10383">
        <ele>169</ele>
        <time>2015-11-01T10:11:05.034Z</time>
      </trkpt>
      <trkpt lat="47.80288" lon="2.10383">
        <ele>169</ele>
        <time>2015-11-01T10:11:04.096Z</time>
      </trkpt>
      <trkpt lat="47.80281" lon="2.10384">
        <ele>169</ele>
        <time>2015-11-01T10:11:03.034Z</time>
      </trkpt>
      <trkpt lat="47.80275" lon="2.10385">
        <ele>170</ele>
        <time>2015-11-01T10:11:02.069Z</time>
      </trkpt>
      <trkpt lat="47.80269" lon="2.10386">
        <ele>170</ele>
        <time>2015-11-01T10:11:01.034Z</time>
      </trkpt>
      <trkpt lat="47.80263" lon="2.10387">
        <ele>170</ele>
        <time>2015-11-01T10:11:00.113Z</time>
      </trkpt>
      <trkpt lat="47.80258" lon="2.10387">
        <ele>170</ele>
        <time>2015-11-01T10:10:59.059Z</time>
      </trkpt>
      <trkpt lat="47.80251" lon="2.10388">
        <ele>170</ele>
        <time>2015-11-01T10:10:58.075Z</time>
      </trkpt>
      <trkpt lat="47.80245" lon="2.10389">
        <ele>170</ele>
        <time>2015-11-01T10:10:57.033Z</time>
      </trkpt>
      <trkpt lat="47.80239" lon="2.10389">
        <ele>170</ele>
        <time>2015-11-01T10:10:56.070Z</time>
      </trkpt>
      <trkpt lat="47.80234" lon="2.10387">
        <ele>170</ele>
        <time>2015-11-01T10:10:55.039Z</time>
      </trkpt>
      <trkpt lat="47.80229" lon="2.10386">
        <ele>170</ele>
        <time>2015-11-01T10:10:54.067Z</time>
      </trkpt>
      <trkpt lat="47.80224" lon="2.10388">
        <ele>170</ele>
        <time>2015-11-01T10:10:53.034Z</time>
      </trkpt>
      <trkpt lat="47.80222" lon="2.10393">
        <ele>169</ele>
        <time>2015-11-01T10:10:52.062Z</time>
      </trkpt>
      <trkpt lat="47.8022" lon="2.10401">
        <ele>170</ele>
        <time>2015-11-01T10:10:51.032Z</time>
      </trkpt>
      <trkpt lat="47.80221" lon="2.10409">
        <ele>170</ele>
        <time>2015-11-01T10:10:50.064Z</time>
      </trkpt>
      <trkpt lat="47.80222" lon="2.10418">
        <ele>170</ele>
        <time>2015-11-01T10:10:49.037Z</time>
      </trkpt>
      <trkpt lat="47.80222" lon="2.10428">
        <ele>170</ele>
        <time>2015-11-01T10:10:48.167Z</time>
      </trkpt>
      <trkpt lat="47.80223" lon="2.10438">
        <ele>171</ele>
        <time>2015-11-01T10:10:47.039Z</time>
      </trkpt>
      <trkpt lat="47.80224" lon="2.10448">
        <ele>171</ele>
        <time>2015-11-01T10:10:46.073Z</time>
      </trkpt>
      <trkpt lat="47.80224" lon="2.10458">
        <ele>171</ele>
        <time>2015-11-01T10:10:45.037Z</time>
      </trkpt>
      <trkpt lat="47.80225" lon="2.10469">
        <ele>171</ele>
        <time>2015-11-01T10:10:44.088Z</time>
      </trkpt>
      <trkpt lat="47.80225" lon="2.10479">
        <ele>171</ele>
        <time>2015-11-01T10:10:43.041Z</time>
      </trkpt>
      <trkpt lat="47.80225" lon="2.10489">
        <ele>171</ele>
        <time>2015-11-01T10:10:42.057Z</time>
      </trkpt>
      <trkpt lat="47.80226" lon="2.10499">
        <ele>172</ele>
        <time>2015-11-01T10:10:41.036Z</time>
      </trkpt>
      <trkpt lat="47.80226" lon="2.1051">
        <ele>172</ele>
        <time>2015-11-01T10:10:40.064Z</time>
      </trkpt>
      <trkpt lat="47.80226" lon="2.1052">
        <ele>172</ele>
        <time>2015-11-01T10:10:39.033Z</time>
      </trkpt>
      <trkpt lat="47.80227" lon="2.1053">
        <ele>172</ele>
        <time>2015-11-01T10:10:38.063Z</time>
      </trkpt>
      <trkpt lat="47.80227" lon="2.1054">
        <ele>172</ele>
        <time>2015-11-01T10:10:37.037Z</time>
      </trkpt>
      <trkpt lat="47.80227" lon="2.1055">
        <ele>173</ele>
        <time>2015-11-01T10:10:36.065Z</time>
      </trkpt>
      <trkpt lat="47.80227" lon="2.1056">
        <ele>173</ele>
        <time>2015-11-01T10:10:35.046Z</time>
      </trkpt>
      <trkpt lat="47.80227" lon="2.10571">
        <ele>173</ele>
        <time>2015-11-01T10:10:34.157Z</time>
      </trkpt>
      <trkpt lat="47.80227" lon="2.10581">
        <ele>173</ele>
        <time>2015-11-01T10:10:33.037Z</time>
      </trkpt>
      <trkpt lat="47.80227" lon="2.10591">
        <ele>173</ele>
        <time>2015-11-01T10:10:32.066Z</time>
      </trkpt>
      <trkpt lat="47.80228" lon="2.10601">
        <ele>173</ele>
        <time>2015-11-01T10:10:31.028Z</time>
      </trkpt>
      <trkpt lat="47.80228" lon="2.10611">
        <ele>173</ele>
        <time>2015-11-01T10:10:30.062Z</time>
      </trkpt>
      <trkpt lat="47.80228" lon="2.10621">
        <ele>173</ele>
        <time>2015-11-01T10:10:29.034Z</time>
      </trkpt>
      <trkpt lat="47.80228" lon="2.10631">
        <ele>173</ele>
        <time>2015-11-01T10:10:28.070Z</time>
      </trkpt>
      <trkpt lat="47.80228" lon="2.1064">
        <ele>173</ele>
        <time>2015-11-01T10:10:27.035Z</time>
      </trkpt>
      <trkpt lat="47.80228" lon="2.10649">
        <ele>173</ele>
        <time>2015-11-01T10:10:26.069Z</time>
      </trkpt>
      <trkpt lat="47.80227" lon="2.10659">
        <ele>174</ele>
        <time>2015-11-01T10:10:25.035Z</time>
      </trkpt>
      <trkpt lat="47.80227" lon="2.10668">
        <ele>173</ele>
        <time>2015-11-01T10:10:24.090Z</time>
      </trkpt>
      <trkpt lat="47.80226" lon="2.10678">
        <ele>173</ele>
        <time>2015-11-01T10:10:23.058Z</time>
      </trkpt>
      <trkpt lat="47.80226" lon="2.10688">
        <ele>173</ele>
        <time>2015-11-01T10:10:22.071Z</time>
      </trkpt>
      <trkpt lat="47.80226" lon="2.10698">
        <ele>173</ele>
        <time>2015-11-01T10:10:21.035Z</time>
      </trkpt>
      <trkpt lat="47.80225" lon="2.10708">
        <ele>173</ele>
        <time>2015-11-01T10:10:20.070Z</time>
      </trkpt>
      <trkpt lat="47.80225" lon="2.10718">
        <ele>173</ele>
        <time>2015-11-01T10:10:19.035Z</time>
      </trkpt>
      <trkpt lat="47.80224" lon="2.10727">
        <ele>173</ele>
        <time>2015-11-01T10:10:18.069Z</time>
      </trkpt>
      <trkpt lat="47.80224" lon="2.10737">
        <ele>173</ele>
        <time>2015-11-01T10:10:17.034Z</time>
      </trkpt>
      <trkpt lat="47.80223" lon="2.10747">
        <ele>172</ele>
        <time>2015-11-01T10:10:16.071Z</time>
      </trkpt>
      <trkpt lat="47.80223" lon="2.10758">
        <ele>172</ele>
        <time>2015-11-01T10:10:15.037Z</time>
      </trkpt>
      <trkpt lat="47.80223" lon="2.10768">
        <ele>172</ele>
        <time>2015-11-01T10:10:14.075Z</time>
      </trkpt>
      <trkpt lat="47.80223" lon="2.10779">
        <ele>173</ele>
        <time>2015-11-01T10:10:13.038Z</time>
      </trkpt>
      <trkpt lat="47.80224" lon="2.1079">
        <ele>173</ele>
        <time>2015-11-01T10:10:12.075Z</time>
      </trkpt>
      <trkpt lat="47.80224" lon="2.10801">
        <ele>173</ele>
        <time>2015-11-01T10:10:11.033Z</time>
      </trkpt>
      <trkpt lat="47.80225" lon="2.10811">
        <ele>173</ele>
        <time>2015-11-01T10:10:10.070Z</time>
      </trkpt>
      <trkpt lat="47.80226" lon="2.10822">
        <ele>173</ele>
        <time>2015-11-01T10:10:09.034Z</time>
      </trkpt>
      <trkpt lat="47.80227" lon="2.10833">
        <ele>173</ele>
        <time>2015-11-01T10:10:08.069Z</time>
      </trkpt>
      <trkpt lat="47.80228" lon="2.10843">
        <ele>174</ele>
        <time>2015-11-01T10:10:07.036Z</time>
      </trkpt>
      <trkpt lat="47.80229" lon="2.10854">
        <ele>174</ele>
        <time>2015-11-01T10:10:06.076Z</time>
      </trkpt>
      <trkpt lat="47.80229" lon="2.10865">
        <ele>174</ele>
        <time>2015-11-01T10:10:05.031Z</time>
      </trkpt>
      <trkpt lat="47.8023" lon="2.10876">
        <ele>174</ele>
        <time>2015-11-01T10:10:04.066Z</time>
      </trkpt>
      <trkpt lat="47.80231" lon="2.10886">
        <ele>174</ele>
        <time>2015-11-01T10:10:03.041Z</time>
      </trkpt>
      <trkpt lat="47.80231" lon="2.10897">
        <ele>174</ele>
        <time>2015-11-01T10:10:02.096Z</time>
      </trkpt>
      <trkpt lat="47.80232" lon="2.10907">
        <ele>173</ele>
        <time>2015-11-01T10:10:01.034Z</time>
      </trkpt>
      <trkpt lat="47.80233" lon="2.10918">
        <ele>173</ele>
        <time>2015-11-01T10:10:00.095Z</time>
      </trkpt>
      <trkpt lat="47.80233" lon="2.10928">
        <ele>173</ele>
        <time>2015-11-01T10:09:59.035Z</time>
      </trkpt>
      <trkpt lat="47.80234" lon="2.10939">
        <ele>172</ele>
        <time>2015-11-01T10:09:58.071Z</time>
      </trkpt>
      <trkpt lat="47.80235" lon="2.10949">
        <ele>173</ele>
        <time>2015-11-01T10:09:57.034Z</time>
      </trkpt>
      <trkpt lat="47.80235" lon="2.1096">
        <ele>173</ele>
        <time>2015-11-01T10:09:56.071Z</time>
      </trkpt>
      <trkpt lat="47.80236" lon="2.10971">
        <ele>173</ele>
        <time>2015-11-01T10:09:55.034Z</time>
      </trkpt>
      <trkpt lat="47.80236" lon="2.10982">
        <ele>173</ele>
        <time>2015-11-01T10:09:54.070Z</time>
      </trkpt>
      <trkpt lat="47.80237" lon="2.10992">
        <ele>173</ele>
        <time>2015-11-01T10:09:53.037Z</time>
      </trkpt>
      <trkpt lat="47.80237" lon="2.11003">
        <ele>173</ele>
        <time>2015-11-01T10:09:52.072Z</time>
      </trkpt>
      <trkpt lat="47.80238" lon="2.11013">
        <ele>173</ele>
        <time>2015-11-01T10:09:51.035Z</time>
      </trkpt>
      <trkpt lat="47.80238" lon="2.11025">
        <ele>173</ele>
        <time>2015-11-01T10:09:50.070Z</time>
      </trkpt>
      <trkpt lat="47.80239" lon="2.11035">
        <ele>173</ele>
        <time>2015-11-01T10:09:49.034Z</time>
      </trkpt>
      <trkpt lat="47.80239" lon="2.11044">
        <ele>173</ele>
        <time>2015-11-01T10:09:48.070Z</time>
      </trkpt>
      <trkpt lat="47.8024" lon="2.11054">
        <ele>173</ele>
        <time>2015-11-01T10:09:47.034Z</time>
      </trkpt>
      <trkpt lat="47.80241" lon="2.11065">
        <ele>173</ele>
        <time>2015-11-01T10:09:46.094Z</time>
      </trkpt>
      <trkpt lat="47.80242" lon="2.11075">
        <ele>173</ele>
        <time>2015-11-01T10:09:45.036Z</time>
      </trkpt>
      <trkpt lat="47.80242" lon="2.11086">
        <ele>174</ele>
        <time>2015-11-01T10:09:44.064Z</time>
      </trkpt>
      <trkpt lat="47.80243" lon="2.11097">
        <ele>173</ele>
        <time>2015-11-01T10:09:43.034Z</time>
      </trkpt>
      <trkpt lat="47.80244" lon="2.11107">
        <ele>174</ele>
        <time>2015-11-01T10:09:42.069Z</time>
      </trkpt>
      <trkpt lat="47.80244" lon="2.11117">
        <ele>174</ele>
        <time>2015-11-01T10:09:41.033Z</time>
      </trkpt>
      <trkpt lat="47.80245" lon="2.11127">
        <ele>174</ele>
        <time>2015-11-01T10:09:40.071Z</time>
      </trkpt>
      <trkpt lat="47.80245" lon="2.11138">
        <ele>174</ele>
        <time>2015-11-01T10:09:39.039Z</time>
      </trkpt>
      <trkpt lat="47.80246" lon="2.11148">
        <ele>174</ele>
        <time>2015-11-01T10:09:38.076Z</time>
      </trkpt>
      <trkpt lat="47.80246" lon="2.11159">
        <ele>174</ele>
        <time>2015-11-01T10:09:37.032Z</time>
      </trkpt>
      <trkpt lat="47.80246" lon="2.11169">
        <ele>174</ele>
        <time>2015-11-01T10:09:36.089Z</time>
      </trkpt>
      <trkpt lat="47.80247" lon="2.11179">
        <ele>174</ele>
        <time>2015-11-01T10:09:35.033Z</time>
      </trkpt>
      <trkpt lat="47.80247" lon="2.1119">
        <ele>174</ele>
        <time>2015-11-01T10:09:34.072Z</time>
      </trkpt>
      <trkpt lat="47.80247" lon="2.112">
        <ele>175</ele>
        <time>2015-11-01T10:09:33.034Z</time>
      </trkpt>
      <trkpt lat="47.80247" lon="2.1121">
        <ele>175</ele>
        <time>2015-11-01T10:09:32.067Z</time>
      </trkpt>
      <trkpt lat="47.80247" lon="2.11221">
        <ele>175</ele>
        <time>2015-11-01T10:09:31.033Z</time>
      </trkpt>
      <trkpt lat="47.80247" lon="2.11231">
        <ele>175</ele>
        <time>2015-11-01T10:09:30.094Z</time>
      </trkpt>
      <trkpt lat="47.80247" lon="2.11241">
        <ele>175</ele>
        <time>2015-11-01T10:09:29.034Z</time>
      </trkpt>
      <trkpt lat="47.80247" lon="2.11251">
        <ele>175</ele>
        <time>2015-11-01T10:09:28.063Z</time>
      </trkpt>
      <trkpt lat="47.80247" lon="2.11262">
        <ele>176</ele>
        <time>2015-11-01T10:09:27.033Z</time>
      </trkpt>
      <trkpt lat="47.80246" lon="2.11272">
        <ele>176</ele>
        <time>2015-11-01T10:09:26.070Z</time>
      </trkpt>
      <trkpt lat="47.80246" lon="2.11281">
        <ele>176</ele>
        <time>2015-11-01T10:09:25.035Z</time>
      </trkpt>
      <trkpt lat="47.80245" lon="2.1129">
        <ele>176</ele>
        <time>2015-11-01T10:09:24.075Z</time>
      </trkpt>
      <trkpt lat="47.80245" lon="2.11299">
        <ele>176</ele>
        <time>2015-11-01T10:09:23.041Z</time>
      </trkpt>
      <trkpt lat="47.80245" lon="2.1131">
        <ele>176</ele>
        <time>2015-11-01T10:09:22.070Z</time>
      </trkpt>
      <trkpt lat="47.80245" lon="2.1132">
        <ele>176</ele>
        <time>2015-11-01T10:09:21.039Z</time>
      </trkpt>
      <trkpt lat="47.80244" lon="2.1133">
        <ele>176</ele>
        <time>2015-11-01T10:09:20.218Z</time>
      </trkpt>
      <trkpt lat="47.80244" lon="2.11339">
        <ele>177</ele>
        <time>2015-11-01T10:09:19.034Z</time>
      </trkpt>
      <trkpt lat="47.80244" lon="2.11349">
        <ele>177</ele>
        <time>2015-11-01T10:09:18.070Z</time>
      </trkpt>
      <trkpt lat="47.80244" lon="2.11359">
        <ele>177</ele>
        <time>2015-11-01T10:09:17.035Z</time>
      </trkpt>
      <trkpt lat="47.80244" lon="2.11368">
        <ele>177</ele>
        <time>2015-11-01T10:09:16.077Z</time>
      </trkpt>
      <trkpt lat="47.80243" lon="2.11378">
        <ele>177</ele>
        <time>2015-11-01T10:09:15.037Z</time>
      </trkpt>
      <trkpt lat="47.80243" lon="2.11388">
        <ele>176</ele>
        <time>2015-11-01T10:09:14.094Z</time>
      </trkpt>
      <trkpt lat="47.80242" lon="2.11397">
        <ele>177</ele>
        <time>2015-11-01T10:09:13.034Z</time>
      </trkpt>
      <trkpt lat="47.80242" lon="2.11407">
        <ele>177</ele>
        <time>2015-11-01T10:09:12.069Z</time>
      </trkpt>
      <trkpt lat="47.80241" lon="2.11417">
        <ele>177</ele>
        <time>2015-11-01T10:09:11.034Z</time>
      </trkpt>
      <trkpt lat="47.80241" lon="2.11426">
        <ele>177</ele>
        <time>2015-11-01T10:09:10.066Z</time>
      </trkpt>
      <trkpt lat="47.8024" lon="2.11435">
        <ele>177</ele>
        <time>2015-11-01T10:09:09.036Z</time>
      </trkpt>
      <trkpt lat="47.8024" lon="2.11445">
        <ele>177</ele>
        <time>2015-11-01T10:09:08.069Z</time>
      </trkpt>
      <trkpt lat="47.8024" lon="2.11455">
        <ele>178</ele>
        <time>2015-11-01T10:09:07.042Z</time>
      </trkpt>
      <trkpt lat="47.8024" lon="2.11464">
        <ele>178</ele>
        <time>2015-11-01T10:09:06.071Z</time>
      </trkpt>
      <trkpt lat="47.8024" lon="2.11473">
        <ele>178</ele>
        <time>2015-11-01T10:09:05.032Z</time>
      </trkpt>
      <trkpt lat="47.80239" lon="2.11483">
        <ele>178</ele>
        <time>2015-11-01T10:09:04.071Z</time>
      </trkpt>
      <trkpt lat="47.80236" lon="2.11492">
        <ele>178</ele>
        <time>2015-11-01T10:09:03.034Z</time>
      </trkpt>
      <trkpt lat="47.80231" lon="2.11499">
        <ele>178</ele>
        <time>2015-11-01T10:09:02.070Z</time>
      </trkpt>
      <trkpt lat="47.80224" lon="2.11503">
        <ele>179</ele>
        <time>2015-11-01T10:09:01.034Z</time>
      </trkpt>
      <trkpt lat="47.80217" lon="2.11505">
        <ele>179</ele>
        <time>2015-11-01T10:09:00.095Z</time>
      </trkpt>
      <trkpt lat="47.8021" lon="2.11505">
        <ele>179</ele>
        <time>2015-11-01T10:08:59.034Z</time>
      </trkpt>
      <trkpt lat="47.80204" lon="2.11506">
        <ele>180</ele>
        <time>2015-11-01T10:08:58.093Z</time>
      </trkpt>
      <trkpt lat="47.80197" lon="2.11506">
        <ele>180</ele>
        <time>2015-11-01T10:08:57.032Z</time>
      </trkpt>
      <trkpt lat="47.8019" lon="2.11507">
        <ele>180</ele>
        <time>2015-11-01T10:08:56.226Z</time>
      </trkpt>
      <trkpt lat="47.80184" lon="2.11508">
        <ele>180</ele>
        <time>2015-11-01T10:08:55.034Z</time>
      </trkpt>
      <trkpt lat="47.80177" lon="2.11508">
        <ele>180</ele>
        <time>2015-11-01T10:08:54.069Z</time>
      </trkpt>
      <trkpt lat="47.8017" lon="2.11509">
        <ele>180</ele>
        <time>2015-11-01T10:08:53.035Z</time>
      </trkpt>
      <trkpt lat="47.80163" lon="2.1151">
        <ele>180</ele>
        <time>2015-11-01T10:08:52.070Z</time>
      </trkpt>
      <trkpt lat="47.80157" lon="2.11511">
        <ele>180</ele>
        <time>2015-11-01T10:08:51.035Z</time>
      </trkpt>
      <trkpt lat="47.8015" lon="2.11512">
        <ele>180</ele>
        <time>2015-11-01T10:08:50.068Z</time>
      </trkpt>
      <trkpt lat="47.80143" lon="2.11513">
        <ele>180</ele>
        <time>2015-11-01T10:08:49.036Z</time>
      </trkpt>
      <trkpt lat="47.80137" lon="2.11514">
        <ele>180</ele>
        <time>2015-11-01T10:08:48.072Z</time>
      </trkpt>
      <trkpt lat="47.8013" lon="2.11514">
        <ele>179</ele>
        <time>2015-11-01T10:08:47.036Z</time>
      </trkpt>
      <trkpt lat="47.80123" lon="2.11515">
        <ele>180</ele>
        <time>2015-11-01T10:08:46.113Z</time>
      </trkpt>
      <trkpt lat="47.80117" lon="2.11516">
        <ele>179</ele>
        <time>2015-11-01T10:08:45.031Z</time>
      </trkpt>
      <trkpt lat="47.8011" lon="2.11518">
        <ele>179</ele>
        <time>2015-11-01T10:08:44.216Z</time>
      </trkpt>
      <trkpt lat="47.80103" lon="2.11519">
        <ele>179</ele>
        <time>2015-11-01T10:08:43.032Z</time>
      </trkpt>
      <trkpt lat="47.80097" lon="2.1152">
        <ele>179</ele>
        <time>2015-11-01T10:08:42.108Z</time>
      </trkpt>
      <trkpt lat="47.80091" lon="2.11521">
        <ele>179</ele>
        <time>2015-11-01T10:08:41.035Z</time>
      </trkpt>
      <trkpt lat="47.80084" lon="2.11522">
        <ele>179</ele>
        <time>2015-11-01T10:08:40.070Z</time>
      </trkpt>
      <trkpt lat="47.80078" lon="2.11522">
        <ele>179</ele>
        <time>2015-11-01T10:08:39.036Z</time>
      </trkpt>
      <trkpt lat="47.80071" lon="2.11523">
        <ele>179</ele>
        <time>2015-11-01T10:08:38.072Z</time>
      </trkpt>
      <trkpt lat="47.80065" lon="2.11524">
        <ele>179</ele>
        <time>2015-11-01T10:08:37.035Z</time>
      </trkpt>
      <trkpt lat="47.80058" lon="2.11525">
        <ele>179</ele>
        <time>2015-11-01T10:08:36.071Z</time>
      </trkpt>
      <trkpt lat="47.80052" lon="2.11525">
        <ele>179</ele>
        <time>2015-11-01T10:08:35.033Z</time>
      </trkpt>
      <trkpt lat="47.80045" lon="2.11526">
        <ele>179</ele>
        <time>2015-11-01T10:08:34.071Z</time>
      </trkpt>
      <trkpt lat="47.80038" lon="2.11528">
        <ele>178</ele>
        <time>2015-11-01T10:08:33.033Z</time>
      </trkpt>
      <trkpt lat="47.80032" lon="2.11529">
        <ele>178</ele>
        <time>2015-11-01T10:08:32.071Z</time>
      </trkpt>
      <trkpt lat="47.80025" lon="2.1153">
        <ele>178</ele>
        <time>2015-11-01T10:08:31.031Z</time>
      </trkpt>
      <trkpt lat="47.80019" lon="2.11532">
        <ele>177</ele>
        <time>2015-11-01T10:08:30.220Z</time>
      </trkpt>
      <trkpt lat="47.80012" lon="2.11533">
        <ele>177</ele>
        <time>2015-11-01T10:08:29.035Z</time>
      </trkpt>
      <trkpt lat="47.80006" lon="2.11534">
        <ele>177</ele>
        <time>2015-11-01T10:08:28.070Z</time>
      </trkpt>
      <trkpt lat="47.79999" lon="2.11535">
        <ele>177</ele>
        <time>2015-11-01T10:08:27.034Z</time>
      </trkpt>
      <trkpt lat="47.79993" lon="2.11536">
        <ele>177</ele>
        <time>2015-11-01T10:08:26.090Z</time>
      </trkpt>
      <trkpt lat="47.79986" lon="2.11536">
        <ele>177</ele>
        <time>2015-11-01T10:08:25.035Z</time>
      </trkpt>
      <trkpt lat="47.79979" lon="2.11537">
        <ele>177</ele>
        <time>2015-11-01T10:08:24.068Z</time>
      </trkpt>
      <trkpt lat="47.79973" lon="2.11538">
        <ele>177</ele>
        <time>2015-11-01T10:08:23.031Z</time>
      </trkpt>
      <trkpt lat="47.79966" lon="2.11537">
        <ele>177</ele>
        <time>2015-11-01T10:08:22.069Z</time>
      </trkpt>
      <trkpt lat="47.79959" lon="2.11538">
        <ele>177</ele>
        <time>2015-11-01T10:08:21.033Z</time>
      </trkpt>
      <trkpt lat="47.79953" lon="2.11538">
        <ele>176</ele>
        <time>2015-11-01T10:08:20.069Z</time>
      </trkpt>
      <trkpt lat="47.79946" lon="2.11538">
        <ele>177</ele>
        <time>2015-11-01T10:08:19.036Z</time>
      </trkpt>
      <trkpt lat="47.79939" lon="2.11539">
        <ele>176</ele>
        <time>2015-11-01T10:08:18.067Z</time>
      </trkpt>
      <trkpt lat="47.79933" lon="2.1154">
        <ele>176</ele>
        <time>2015-11-01T10:08:17.036Z</time>
      </trkpt>
      <trkpt lat="47.79927" lon="2.11541">
        <ele>176</ele>
        <time>2015-11-01T10:08:16.075Z</time>
      </trkpt>
      <trkpt lat="47.7992" lon="2.11543">
        <ele>176</ele>
        <time>2015-11-01T10:08:15.035Z</time>
      </trkpt>
      <trkpt lat="47.79913" lon="2.11542">
        <ele>176</ele>
        <time>2015-11-01T10:08:14.078Z</time>
      </trkpt>
      <trkpt lat="47.79906" lon="2.1154">
        <ele>177</ele>
        <time>2015-11-01T10:08:13.035Z</time>
      </trkpt>
      <trkpt lat="47.79899" lon="2.11539">
        <ele>176</ele>
        <time>2015-11-01T10:08:12.071Z</time>
      </trkpt>
      <trkpt lat="47.79893" lon="2.11537">
        <ele>175</ele>
        <time>2015-11-01T10:08:11.035Z</time>
      </trkpt>
      <trkpt lat="47.79886" lon="2.11535">
        <ele>175</ele>
        <time>2015-11-01T10:08:10.142Z</time>
      </trkpt>
      <trkpt lat="47.7988" lon="2.11532">
        <ele>174</ele>
        <time>2015-11-01T10:08:09.038Z</time>
      </trkpt>
      <trkpt lat="47.79874" lon="2.11528">
        <ele>173</ele>
        <time>2015-11-01T10:08:08.069Z</time>
      </trkpt>
      <trkpt lat="47.79867" lon="2.11524">
        <ele>173</ele>
        <time>2015-11-01T10:08:07.033Z</time>
      </trkpt>
      <trkpt lat="47.7986" lon="2.1152">
        <ele>174</ele>
        <time>2015-11-01T10:08:06.091Z</time>
      </trkpt>
      <trkpt lat="47.79854" lon="2.11516">
        <ele>174</ele>
        <time>2015-11-01T10:08:05.034Z</time>
      </trkpt>
      <trkpt lat="47.79847" lon="2.1151">
        <ele>175</ele>
        <time>2015-11-01T10:08:04.067Z</time>
      </trkpt>
      <trkpt lat="47.79841" lon="2.11504">
        <ele>174</ele>
        <time>2015-11-01T10:08:03.034Z</time>
      </trkpt>
      <trkpt lat="47.79835" lon="2.11499">
        <ele>174</ele>
        <time>2015-11-01T10:08:02.071Z</time>
      </trkpt>
      <trkpt lat="47.79828" lon="2.11493">
        <ele>175</ele>
        <time>2015-11-01T10:08:01.034Z</time>
      </trkpt>
      <trkpt lat="47.79822" lon="2.11488">
        <ele>175</ele>
        <time>2015-11-01T10:08:00.099Z</time>
      </trkpt>
      <trkpt lat="47.79815" lon="2.11483">
        <ele>175</ele>
        <time>2015-11-01T10:07:59.037Z</time>
      </trkpt>
      <trkpt lat="47.79808" lon="2.11478">
        <ele>176</ele>
        <time>2015-11-01T10:07:58.064Z</time>
      </trkpt>
      <trkpt lat="47.79802" lon="2.11473">
        <ele>176</ele>
        <time>2015-11-01T10:07:57.033Z</time>
      </trkpt>
      <trkpt lat="47.79796" lon="2.11467">
        <ele>176</ele>
        <time>2015-11-01T10:07:56.067Z</time>
      </trkpt>
      <trkpt lat="47.79789" lon="2.11463">
        <ele>176</ele>
        <time>2015-11-01T10:07:55.035Z</time>
      </trkpt>
      <trkpt lat="47.79783" lon="2.11458">
        <ele>176</ele>
        <time>2015-11-01T10:07:54.084Z</time>
      </trkpt>
      <trkpt lat="47.79776" lon="2.11453">
        <ele>177</ele>
        <time>2015-11-01T10:07:53.031Z</time>
      </trkpt>
      <trkpt lat="47.7977" lon="2.11448">
        <ele>177</ele>
        <time>2015-11-01T10:07:52.062Z</time>
      </trkpt>
      <trkpt lat="47.79763" lon="2.11443">
        <ele>177</ele>
        <time>2015-11-01T10:07:51.031Z</time>
      </trkpt>
      <trkpt lat="47.79756" lon="2.11438">
        <ele>178</ele>
        <time>2015-11-01T10:07:50.064Z</time>
      </trkpt>
      <trkpt lat="47.7975" lon="2.11433">
        <ele>178</ele>
        <time>2015-11-01T10:07:49.047Z</time>
      </trkpt>
      <trkpt lat="47.79744" lon="2.11429">
        <ele>178</ele>
        <time>2015-11-01T10:07:48.055Z</time>
      </trkpt>
      <trkpt lat="47.79737" lon="2.11425">
        <ele>178</ele>
        <time>2015-11-01T10:07:47.033Z</time>
      </trkpt>
      <trkpt lat="47.79731" lon="2.1142">
        <ele>178</ele>
        <time>2015-11-01T10:07:46.067Z</time>
      </trkpt>
      <trkpt lat="47.79724" lon="2.11416">
        <ele>179</ele>
        <time>2015-11-01T10:07:45.033Z</time>
      </trkpt>
      <trkpt lat="47.79717" lon="2.11411">
        <ele>179</ele>
        <time>2015-11-01T10:07:44.057Z</time>
      </trkpt>
      <trkpt lat="47.7971" lon="2.11407">
        <ele>178</ele>
        <time>2015-11-01T10:07:43.027Z</time>
      </trkpt>
      <trkpt lat="47.79703" lon="2.11403">
        <ele>179</ele>
        <time>2015-11-01T10:07:42.058Z</time>
      </trkpt>
      <trkpt lat="47.79696" lon="2.11399">
        <ele>179</ele>
        <time>2015-11-01T10:07:41.031Z</time>
      </trkpt>
      <trkpt lat="47.7969" lon="2.11395">
        <ele>179</ele>
        <time>2015-11-01T10:07:40.070Z</time>
      </trkpt>
      <trkpt lat="47.79682" lon="2.11391">
        <ele>179</ele>
        <time>2015-11-01T10:07:39.035Z</time>
      </trkpt>
      <trkpt lat="47.79675" lon="2.11388">
        <ele>179</ele>
        <time>2015-11-01T10:07:38.094Z</time>
      </trkpt>
      <trkpt lat="47.79668" lon="2.11386">
        <ele>179</ele>
        <time>2015-11-01T10:07:37.035Z</time>
      </trkpt>
      <trkpt lat="47.79662" lon="2.11383">
        <ele>179</ele>
        <time>2015-11-01T10:07:36.070Z</time>
      </trkpt>
      <trkpt lat="47.79655" lon="2.11382">
        <ele>179</ele>
        <time>2015-11-01T10:07:35.035Z</time>
      </trkpt>
      <trkpt lat="47.79648" lon="2.1138">
        <ele>179</ele>
        <time>2015-11-01T10:07:34.069Z</time>
      </trkpt>
      <trkpt lat="47.7964" lon="2.11378">
        <ele>179</ele>
        <time>2015-11-01T10:07:33.034Z</time>
      </trkpt>
      <trkpt lat="47.79633" lon="2.11377">
        <ele>180</ele>
        <time>2015-11-01T10:07:32.069Z</time>
      </trkpt>
      <trkpt lat="47.79626" lon="2.11376">
        <ele>179</ele>
        <time>2015-11-01T10:07:31.057Z</time>
      </trkpt>
      <trkpt lat="47.79619" lon="2.11375">
        <ele>180</ele>
        <time>2015-11-01T10:07:30.070Z</time>
      </trkpt>
      <trkpt lat="47.79612" lon="2.11373">
        <ele>180</ele>
        <time>2015-11-01T10:07:29.034Z</time>
      </trkpt>
      <trkpt lat="47.79605" lon="2.11372">
        <ele>180</ele>
        <time>2015-11-01T10:07:28.227Z</time>
      </trkpt>
      <trkpt lat="47.79598" lon="2.11371">
        <ele>180</ele>
        <time>2015-11-01T10:07:27.034Z</time>
      </trkpt>
      <trkpt lat="47.79591" lon="2.1137">
        <ele>180</ele>
        <time>2015-11-01T10:07:26.069Z</time>
      </trkpt>
      <trkpt lat="47.79584" lon="2.11368">
        <ele>180</ele>
        <time>2015-11-01T10:07:25.029Z</time>
      </trkpt>
      <trkpt lat="47.79577" lon="2.11366">
        <ele>180</ele>
        <time>2015-11-01T10:07:24.070Z</time>
      </trkpt>
      <trkpt lat="47.7957" lon="2.11364">
        <ele>180</ele>
        <time>2015-11-01T10:07:23.034Z</time>
      </trkpt>
      <trkpt lat="47.79563" lon="2.11362">
        <ele>180</ele>
        <time>2015-11-01T10:07:22.095Z</time>
      </trkpt>
      <trkpt lat="47.79556" lon="2.11359">
        <ele>180</ele>
        <time>2015-11-01T10:07:21.031Z</time>
      </trkpt>
      <trkpt lat="47.79549" lon="2.11356">
        <ele>180</ele>
        <time>2015-11-01T10:07:20.057Z</time>
      </trkpt>
      <trkpt lat="47.79543" lon="2.11353">
        <ele>180</ele>
        <time>2015-11-01T10:07:19.032Z</time>
      </trkpt>
      <trkpt lat="47.79536" lon="2.11348">
        <ele>180</ele>
        <time>2015-11-01T10:07:18.042Z</time>
      </trkpt>
      <trkpt lat="47.7953" lon="2.11343">
        <ele>180</ele>
        <time>2015-11-01T10:07:17.035Z</time>
      </trkpt>
      <trkpt lat="47.79524" lon="2.11338">
        <ele>181</ele>
        <time>2015-11-01T10:07:16.074Z</time>
      </trkpt>
      <trkpt lat="47.79518" lon="2.11331">
        <ele>181</ele>
        <time>2015-11-01T10:07:15.036Z</time>
      </trkpt>
      <trkpt lat="47.79512" lon="2.11325">
        <ele>181</ele>
        <time>2015-11-01T10:07:14.088Z</time>
      </trkpt>
      <trkpt lat="47.79506" lon="2.11318">
        <ele>181</ele>
        <time>2015-11-01T10:07:13.035Z</time>
      </trkpt>
      <trkpt lat="47.79501" lon="2.11312">
        <ele>180</ele>
        <time>2015-11-01T10:07:12.071Z</time>
      </trkpt>
      <trkpt lat="47.79494" lon="2.11307">
        <ele>180</ele>
        <time>2015-11-01T10:07:11.034Z</time>
      </trkpt>
      <trkpt lat="47.79488" lon="2.11302">
        <ele>180</ele>
        <time>2015-11-01T10:07:10.061Z</time>
      </trkpt>
      <trkpt lat="47.79482" lon="2.11296">
        <ele>180</ele>
        <time>2015-11-01T10:07:09.035Z</time>
      </trkpt>
      <trkpt lat="47.79475" lon="2.11292">
        <ele>180</ele>
        <time>2015-11-01T10:07:08.070Z</time>
      </trkpt>
      <trkpt lat="47.79468" lon="2.11288">
        <ele>180</ele>
        <time>2015-11-01T10:07:07.033Z</time>
      </trkpt>
      <trkpt lat="47.79461" lon="2.11285">
        <ele>180</ele>
        <time>2015-11-01T10:07:06.094Z</time>
      </trkpt>
      <trkpt lat="47.79455" lon="2.11283">
        <ele>180</ele>
        <time>2015-11-01T10:07:05.034Z</time>
      </trkpt>
      <trkpt lat="47.79448" lon="2.11281">
        <ele>180</ele>
        <time>2015-11-01T10:07:04.069Z</time>
      </trkpt>
      <trkpt lat="47.79441" lon="2.11279">
        <ele>179</ele>
        <time>2015-11-01T10:07:03.033Z</time>
      </trkpt>
      <trkpt lat="47.79433" lon="2.11277">
        <ele>179</ele>
        <time>2015-11-01T10:07:02.069Z</time>
      </trkpt>
      <trkpt lat="47.79426" lon="2.11275">
        <ele>179</ele>
        <time>2015-11-01T10:07:01.033Z</time>
      </trkpt>
      <trkpt lat="47.79419" lon="2.11273">
        <ele>179</ele>
        <time>2015-11-01T10:07:00.099Z</time>
      </trkpt>
      <trkpt lat="47.79412" lon="2.11271">
        <ele>180</ele>
        <time>2015-11-01T10:06:59.034Z</time>
      </trkpt>
      <trkpt lat="47.79405" lon="2.11269">
        <ele>180</ele>
        <time>2015-11-01T10:06:58.071Z</time>
      </trkpt>
      <trkpt lat="47.79398" lon="2.11267">
        <ele>179</ele>
        <time>2015-11-01T10:06:57.033Z</time>
      </trkpt>
      <trkpt lat="47.79391" lon="2.11265">
        <ele>180</ele>
        <time>2015-11-01T10:06:56.080Z</time>
      </trkpt>
      <trkpt lat="47.79384" lon="2.11263">
        <ele>179</ele>
        <time>2015-11-01T10:06:55.032Z</time>
      </trkpt>
      <trkpt lat="47.79377" lon="2.11262">
        <ele>180</ele>
        <time>2015-11-01T10:06:54.066Z</time>
      </trkpt>
      <trkpt lat="47.7937" lon="2.11259">
        <ele>180</ele>
        <time>2015-11-01T10:06:53.036Z</time>
      </trkpt>
      <trkpt lat="47.79363" lon="2.11258">
        <ele>180</ele>
        <time>2015-11-01T10:06:52.235Z</time>
      </trkpt>
      <trkpt lat="47.79355" lon="2.11256">
        <ele>180</ele>
        <time>2015-11-01T10:06:51.032Z</time>
      </trkpt>
      <trkpt lat="47.79348" lon="2.11255">
        <ele>180</ele>
        <time>2015-11-01T10:06:50.086Z</time>
      </trkpt>
      <trkpt lat="47.79341" lon="2.11255">
        <ele>180</ele>
        <time>2015-11-01T10:06:49.034Z</time>
      </trkpt>
      <trkpt lat="47.79334" lon="2.11255">
        <ele>180</ele>
        <time>2015-11-01T10:06:48.067Z</time>
      </trkpt>
      <trkpt lat="47.79326" lon="2.11255">
        <ele>180</ele>
        <time>2015-11-01T10:06:47.028Z</time>
      </trkpt>
      <trkpt lat="47.79319" lon="2.11256">
        <ele>180</ele>
        <time>2015-11-01T10:06:46.067Z</time>
      </trkpt>
      <trkpt lat="47.79312" lon="2.11257">
        <ele>180</ele>
        <time>2015-11-01T10:06:45.025Z</time>
      </trkpt>
      <trkpt lat="47.79305" lon="2.11257">
        <ele>180</ele>
        <time>2015-11-01T10:06:44.054Z</time>
      </trkpt>
      <trkpt lat="47.79298" lon="2.11259">
        <ele>180</ele>
        <time>2015-11-01T10:06:43.025Z</time>
      </trkpt>
      <trkpt lat="47.79292" lon="2.1126">
        <ele>180</ele>
        <time>2015-11-01T10:06:42.055Z</time>
      </trkpt>
      <trkpt lat="47.79285" lon="2.11262">
        <ele>180</ele>
        <time>2015-11-01T10:06:41.025Z</time>
      </trkpt>
      <trkpt lat="47.79278" lon="2.11264">
        <ele>180</ele>
        <time>2015-11-01T10:06:40.055Z</time>
      </trkpt>
      <trkpt lat="47.79272" lon="2.11266">
        <ele>180</ele>
        <time>2015-11-01T10:06:39.024Z</time>
      </trkpt>
      <trkpt lat="47.79265" lon="2.11268">
        <ele>180</ele>
        <time>2015-11-01T10:06:38.058Z</time>
      </trkpt>
      <trkpt lat="47.79259" lon="2.11269">
        <ele>180</ele>
        <time>2015-11-01T10:06:37.026Z</time>
      </trkpt>
      <trkpt lat="47.79253" lon="2.11271">
        <ele>179</ele>
        <time>2015-11-01T10:06:36.068Z</time>
      </trkpt>
      <trkpt lat="47.79246" lon="2.11273">
        <ele>179</ele>
        <time>2015-11-01T10:06:35.036Z</time>
      </trkpt>
      <trkpt lat="47.7924" lon="2.11275">
        <ele>178</ele>
        <time>2015-11-01T10:06:34.094Z</time>
      </trkpt>
      <trkpt lat="47.79233" lon="2.11276">
        <ele>179</ele>
        <time>2015-11-01T10:06:33.025Z</time>
      </trkpt>
      <trkpt lat="47.79227" lon="2.11278">
        <ele>179</ele>
        <time>2015-11-01T10:06:32.055Z</time>
      </trkpt>
      <trkpt lat="47.7922" lon="2.1128">
        <ele>179</ele>
        <time>2015-11-01T10:06:31.025Z</time>
      </trkpt>
      <trkpt lat="47.79213" lon="2.11282">
        <ele>179</ele>
        <time>2015-11-01T10:06:30.209Z</time>
      </trkpt>
      <trkpt lat="47.79206" lon="2.11283">
        <ele>180</ele>
        <time>2015-11-01T10:06:29.025Z</time>
      </trkpt>
      <trkpt lat="47.792" lon="2.11285">
        <ele>179</ele>
        <time>2015-11-01T10:06:28.055Z</time>
      </trkpt>
      <trkpt lat="47.79193" lon="2.11287">
        <ele>179</ele>
        <time>2015-11-01T10:06:27.028Z</time>
      </trkpt>
      <trkpt lat="47.79186" lon="2.11288">
        <ele>179</ele>
        <time>2015-11-01T10:06:26.057Z</time>
      </trkpt>
      <trkpt lat="47.7918" lon="2.11291">
        <ele>179</ele>
        <time>2015-11-01T10:06:25.026Z</time>
      </trkpt>
      <trkpt lat="47.79173" lon="2.11292">
        <ele>179</ele>
        <time>2015-11-01T10:06:24.061Z</time>
      </trkpt>
      <trkpt lat="47.79167" lon="2.11295">
        <ele>180</ele>
        <time>2015-11-01T10:06:23.032Z</time>
      </trkpt>
      <trkpt lat="47.7916" lon="2.11298">
        <ele>180</ele>
        <time>2015-11-01T10:06:22.064Z</time>
      </trkpt>
      <trkpt lat="47.79154" lon="2.11301">
        <ele>180</ele>
        <time>2015-11-01T10:06:21.034Z</time>
      </trkpt>
      <trkpt lat="47.79148" lon="2.11305">
        <ele>180</ele>
        <time>2015-11-01T10:06:20.072Z</time>
      </trkpt>
      <trkpt lat="47.79142" lon="2.1131">
        <ele>180</ele>
        <time>2015-11-01T10:06:19.035Z</time>
      </trkpt>
      <trkpt lat="47.79137" lon="2.11314">
        <ele>179</ele>
        <time>2015-11-01T10:06:18.047Z</time>
      </trkpt>
      <trkpt lat="47.79131" lon="2.11318">
        <ele>180</ele>
        <time>2015-11-01T10:06:17.038Z</time>
      </trkpt>
      <trkpt lat="47.79125" lon="2.11322">
        <ele>180</ele>
        <time>2015-11-01T10:06:16.073Z</time>
      </trkpt>
      <trkpt lat="47.79119" lon="2.11326">
        <ele>180</ele>
        <time>2015-11-01T10:06:15.038Z</time>
      </trkpt>
      <trkpt lat="47.79112" lon="2.11331">
        <ele>181</ele>
        <time>2015-11-01T10:06:14.072Z</time>
      </trkpt>
      <trkpt lat="47.79107" lon="2.11335">
        <ele>181</ele>
        <time>2015-11-01T10:06:13.034Z</time>
      </trkpt>
      <trkpt lat="47.79101" lon="2.1134">
        <ele>182</ele>
        <time>2015-11-01T10:06:12.070Z</time>
      </trkpt>
      <trkpt lat="47.79095" lon="2.11344">
        <ele>181</ele>
        <time>2015-11-01T10:06:11.033Z</time>
      </trkpt>
      <trkpt lat="47.79089" lon="2.1135">
        <ele>181</ele>
        <time>2015-11-01T10:06:10.068Z</time>
      </trkpt>
      <trkpt lat="47.79083" lon="2.11355">
        <ele>181</ele>
        <time>2015-11-01T10:06:09.034Z</time>
      </trkpt>
      <trkpt lat="47.79078" lon="2.1136">
        <ele>181</ele>
        <time>2015-11-01T10:06:08.068Z</time>
      </trkpt>
      <trkpt lat="47.79072" lon="2.11365">
        <ele>181</ele>
        <time>2015-11-01T10:06:07.033Z</time>
      </trkpt>
      <trkpt lat="47.79066" lon="2.11369">
        <ele>180</ele>
        <time>2015-11-01T10:06:06.065Z</time>
      </trkpt>
      <trkpt lat="47.7906" lon="2.11374">
        <ele>180</ele>
        <time>2015-11-01T10:06:05.034Z</time>
      </trkpt>
      <trkpt lat="47.79054" lon="2.11379">
        <ele>180</ele>
        <time>2015-11-01T10:06:04.062Z</time>
      </trkpt>
      <trkpt lat="47.79049" lon="2.11384">
        <ele>180</ele>
        <time>2015-11-01T10:06:03.033Z</time>
      </trkpt>
      <trkpt lat="47.79043" lon="2.11389">
        <ele>180</ele>
        <time>2015-11-01T10:06:02.093Z</time>
      </trkpt>
      <trkpt lat="47.79037" lon="2.11394">
        <ele>179</ele>
        <time>2015-11-01T10:06:01.032Z</time>
      </trkpt>
      <trkpt lat="47.79031" lon="2.11399">
        <ele>179</ele>
        <time>2015-11-01T10:06:00.098Z</time>
      </trkpt>
      <trkpt lat="47.79026" lon="2.11404">
        <ele>179</ele>
        <time>2015-11-01T10:05:59.033Z</time>
      </trkpt>
      <trkpt lat="47.7902" lon="2.11409">
        <ele>179</ele>
        <time>2015-11-01T10:05:58.066Z</time>
      </trkpt>
      <trkpt lat="47.79014" lon="2.11414">
        <ele>178</ele>
        <time>2015-11-01T10:05:57.034Z</time>
      </trkpt>
      <trkpt lat="47.79008" lon="2.11419">
        <ele>178</ele>
        <time>2015-11-01T10:05:56.068Z</time>
      </trkpt>
      <trkpt lat="47.79001" lon="2.11424">
        <ele>178</ele>
        <time>2015-11-01T10:05:55.033Z</time>
      </trkpt>
      <trkpt lat="47.78995" lon="2.11429">
        <ele>178</ele>
        <time>2015-11-01T10:05:54.223Z</time>
      </trkpt>
      <trkpt lat="47.78989" lon="2.11433">
        <ele>178</ele>
        <time>2015-11-01T10:05:53.029Z</time>
      </trkpt>
      <trkpt lat="47.78982" lon="2.11436">
        <ele>178</ele>
        <time>2015-11-01T10:05:52.058Z</time>
      </trkpt>
      <trkpt lat="47.78975" lon="2.11439">
        <ele>178</ele>
        <time>2015-11-01T10:05:51.032Z</time>
      </trkpt>
      <trkpt lat="47.78968" lon="2.11441">
        <ele>178</ele>
        <time>2015-11-01T10:05:50.132Z</time>
      </trkpt>
      <trkpt lat="47.78961" lon="2.11443">
        <ele>178</ele>
        <time>2015-11-01T10:05:49.033Z</time>
      </trkpt>
      <trkpt lat="47.78954" lon="2.11444">
        <ele>178</ele>
        <time>2015-11-01T10:05:48.068Z</time>
      </trkpt>
      <trkpt lat="47.78948" lon="2.11446">
        <ele>178</ele>
        <time>2015-11-01T10:05:47.033Z</time>
      </trkpt>
      <trkpt lat="47.78941" lon="2.11448">
        <ele>178</ele>
        <time>2015-11-01T10:05:46.087Z</time>
      </trkpt>
      <trkpt lat="47.78934" lon="2.1145">
        <ele>178</ele>
        <time>2015-11-01T10:05:45.033Z</time>
      </trkpt>
      <trkpt lat="47.78927" lon="2.11452">
        <ele>178</ele>
        <time>2015-11-01T10:05:44.068Z</time>
      </trkpt>
      <trkpt lat="47.78919" lon="2.11455">
        <ele>178</ele>
        <time>2015-11-01T10:05:43.034Z</time>
      </trkpt>
      <trkpt lat="47.78912" lon="2.11457">
        <ele>178</ele>
        <time>2015-11-01T10:05:42.068Z</time>
      </trkpt>
      <trkpt lat="47.78905" lon="2.11459">
        <ele>178</ele>
        <time>2015-11-01T10:05:41.033Z</time>
      </trkpt>
      <trkpt lat="47.78898" lon="2.11462">
        <ele>178</ele>
        <time>2015-11-01T10:05:40.069Z</time>
      </trkpt>
      <trkpt lat="47.78891" lon="2.11464">
        <ele>178</ele>
        <time>2015-11-01T10:05:39.036Z</time>
      </trkpt>
      <trkpt lat="47.78884" lon="2.11466">
        <ele>178</ele>
        <time>2015-11-01T10:05:38.069Z</time>
      </trkpt>
      <trkpt lat="47.78877" lon="2.11468">
        <ele>178</ele>
        <time>2015-11-01T10:05:37.037Z</time>
      </trkpt>
      <trkpt lat="47.78871" lon="2.11471">
        <ele>178</ele>
        <time>2015-11-01T10:05:36.070Z</time>
      </trkpt>
      <trkpt lat="47.78864" lon="2.11474">
        <ele>178</ele>
        <time>2015-11-01T10:05:35.033Z</time>
      </trkpt>
      <trkpt lat="47.78857" lon="2.11476">
        <ele>179</ele>
        <time>2015-11-01T10:05:34.065Z</time>
      </trkpt>
      <trkpt lat="47.7885" lon="2.11478">
        <ele>179</ele>
        <time>2015-11-01T10:05:33.034Z</time>
      </trkpt>
      <trkpt lat="47.78844" lon="2.1148">
        <ele>179</ele>
        <time>2015-11-01T10:05:32.070Z</time>
      </trkpt>
      <trkpt lat="47.78837" lon="2.11483">
        <ele>179</ele>
        <time>2015-11-01T10:05:31.033Z</time>
      </trkpt>
      <trkpt lat="47.7883" lon="2.11485">
        <ele>179</ele>
        <time>2015-11-01T10:05:30.094Z</time>
      </trkpt>
      <trkpt lat="47.78823" lon="2.11487">
        <ele>179</ele>
        <time>2015-11-01T10:05:29.033Z</time>
      </trkpt>
      <trkpt lat="47.78817" lon="2.1149">
        <ele>179</ele>
        <time>2015-11-01T10:05:28.070Z</time>
      </trkpt>
      <trkpt lat="47.7881" lon="2.11492">
        <ele>180</ele>
        <time>2015-11-01T10:05:27.034Z</time>
      </trkpt>
      <trkpt lat="47.78804" lon="2.11495">
        <ele>179</ele>
        <time>2015-11-01T10:05:26.069Z</time>
      </trkpt>
      <trkpt lat="47.78798" lon="2.11496">
        <ele>179</ele>
        <time>2015-11-01T10:05:25.034Z</time>
      </trkpt>
      <trkpt lat="47.78791" lon="2.11499">
        <ele>179</ele>
        <time>2015-11-01T10:05:24.070Z</time>
      </trkpt>
      <trkpt lat="47.78785" lon="2.11502">
        <ele>180</ele>
        <time>2015-11-01T10:05:23.035Z</time>
      </trkpt>
      <trkpt lat="47.7878" lon="2.11506">
        <ele>179</ele>
        <time>2015-11-01T10:05:22.070Z</time>
      </trkpt>
      <trkpt lat="47.78774" lon="2.11511">
        <ele>179</ele>
        <time>2015-11-01T10:05:21.051Z</time>
      </trkpt>
      <trkpt lat="47.78769" lon="2.11516">
        <ele>179</ele>
        <time>2015-11-01T10:05:20.072Z</time>
      </trkpt>
      <trkpt lat="47.78764" lon="2.11523">
        <ele>179</ele>
        <time>2015-11-01T10:05:19.033Z</time>
      </trkpt>
      <trkpt lat="47.7876" lon="2.1153">
        <ele>179</ele>
        <time>2015-11-01T10:05:18.070Z</time>
      </trkpt>
      <trkpt lat="47.78756" lon="2.11537">
        <ele>179</ele>
        <time>2015-11-01T10:05:17.034Z</time>
      </trkpt>
      <trkpt lat="47.78752" lon="2.11545">
        <ele>180</ele>
        <time>2015-11-01T10:05:16.053Z</time>
      </trkpt>
      <trkpt lat="47.78749" lon="2.11553">
        <ele>180</ele>
        <time>2015-11-01T10:05:15.038Z</time>
      </trkpt>
      <trkpt lat="47.78745" lon="2.11561">
        <ele>180</ele>
        <time>2015-11-01T10:05:14.104Z</time>
      </trkpt>
      <trkpt lat="47.78742" lon="2.11569">
        <ele>180</ele>
        <time>2015-11-01T10:05:13.038Z</time>
      </trkpt>
      <trkpt lat="47.78738" lon="2.11577">
        <ele>180</ele>
        <time>2015-11-01T10:05:12.075Z</time>
      </trkpt>
      <trkpt lat="47.78735" lon="2.11585">
        <ele>180</ele>
        <time>2015-11-01T10:05:11.035Z</time>
      </trkpt>
      <trkpt lat="47.78731" lon="2.11593">
        <ele>180</ele>
        <time>2015-11-01T10:05:10.070Z</time>
      </trkpt>
      <trkpt lat="47.78727" lon="2.116">
        <ele>180</ele>
        <time>2015-11-01T10:05:09.036Z</time>
      </trkpt>
      <trkpt lat="47.78724" lon="2.11608">
        <ele>181</ele>
        <time>2015-11-01T10:05:08.070Z</time>
      </trkpt>
      <trkpt lat="47.7872" lon="2.11616">
        <ele>181</ele>
        <time>2015-11-01T10:05:07.033Z</time>
      </trkpt>
      <trkpt lat="47.78716" lon="2.11624">
        <ele>181</ele>
        <time>2015-11-01T10:05:06.070Z</time>
      </trkpt>
      <trkpt lat="47.78713" lon="2.11632">
        <ele>180</ele>
        <time>2015-11-01T10:05:05.034Z</time>
      </trkpt>
      <trkpt lat="47.78709" lon="2.11641">
        <ele>181</ele>
        <time>2015-11-01T10:05:04.070Z</time>
      </trkpt>
      <trkpt lat="47.78705" lon="2.11649">
        <ele>181</ele>
        <time>2015-11-01T10:05:03.032Z</time>
      </trkpt>
      <trkpt lat="47.78701" lon="2.11658">
        <ele>181</ele>
        <time>2015-11-01T10:05:02.065Z</time>
      </trkpt>
      <trkpt lat="47.78698" lon="2.11666">
        <ele>181</ele>
        <time>2015-11-01T10:05:01.036Z</time>
      </trkpt>
      <trkpt lat="47.78694" lon="2.11674">
        <ele>181</ele>
        <time>2015-11-01T10:05:00.109Z</time>
      </trkpt>
      <trkpt lat="47.7869" lon="2.11682">
        <ele>181</ele>
        <time>2015-11-01T10:04:59.036Z</time>
      </trkpt>
      <trkpt lat="47.78687" lon="2.1169">
        <ele>181</ele>
        <time>2015-11-01T10:04:58.095Z</time>
      </trkpt>
      <trkpt lat="47.78683" lon="2.11698">
        <ele>182</ele>
        <time>2015-11-01T10:04:57.034Z</time>
      </trkpt>
      <trkpt lat="47.78679" lon="2.11705">
        <ele>182</ele>
        <time>2015-11-01T10:04:56.071Z</time>
      </trkpt>
      <trkpt lat="47.78675" lon="2.11713">
        <ele>182</ele>
        <time>2015-11-01T10:04:55.036Z</time>
      </trkpt>
      <trkpt lat="47.78672" lon="2.1172">
        <ele>183</ele>
        <time>2015-11-01T10:04:54.070Z</time>
      </trkpt>
      <trkpt lat="47.78668" lon="2.11727">
        <ele>183</ele>
        <time>2015-11-01T10:04:53.035Z</time>
      </trkpt>
      <trkpt lat="47.78664" lon="2.11732">
        <ele>183</ele>
        <time>2015-11-01T10:04:52.072Z</time>
      </trkpt>
      <trkpt lat="47.78658" lon="2.11732">
        <ele>184</ele>
        <time>2015-11-01T10:04:51.053Z</time>
      </trkpt>
      <trkpt lat="47.78652" lon="2.11732">
        <ele>185</ele>
        <time>2015-11-01T10:04:50.071Z</time>
      </trkpt>
      <trkpt lat="47.78646" lon="2.1173">
        <ele>184</ele>
        <time>2015-11-01T10:04:49.035Z</time>
      </trkpt>
      <trkpt lat="47.78641" lon="2.11728">
        <ele>185</ele>
        <time>2015-11-01T10:04:48.069Z</time>
      </trkpt>
      <trkpt lat="47.78635" lon="2.11726">
        <ele>185</ele>
        <time>2015-11-01T10:04:47.032Z</time>
      </trkpt>
      <trkpt lat="47.78629" lon="2.11724">
        <ele>185</ele>
        <time>2015-11-01T10:04:46.066Z</time>
      </trkpt>
      <trkpt lat="47.78622" lon="2.11722">
        <ele>185</ele>
        <time>2015-11-01T10:04:45.034Z</time>
      </trkpt>
      <trkpt lat="47.78616" lon="2.1172">
        <ele>186</ele>
        <time>2015-11-01T10:04:44.070Z</time>
      </trkpt>
      <trkpt lat="47.78609" lon="2.11718">
        <ele>186</ele>
        <time>2015-11-01T10:04:43.033Z</time>
      </trkpt>
      <trkpt lat="47.78603" lon="2.11716">
        <ele>186</ele>
        <time>2015-11-01T10:04:42.070Z</time>
      </trkpt>
      <trkpt lat="47.78596" lon="2.11713">
        <ele>186</ele>
        <time>2015-11-01T10:04:41.034Z</time>
      </trkpt>
      <trkpt lat="47.7859" lon="2.11711">
        <ele>186</ele>
        <time>2015-11-01T10:04:40.069Z</time>
      </trkpt>
      <trkpt lat="47.78583" lon="2.11708">
        <ele>186</ele>
        <time>2015-11-01T10:04:39.034Z</time>
      </trkpt>
      <trkpt lat="47.78577" lon="2.11706">
        <ele>186</ele>
        <time>2015-11-01T10:04:38.069Z</time>
      </trkpt>
      <trkpt lat="47.78571" lon="2.11704">
        <ele>186</ele>
        <time>2015-11-01T10:04:37.057Z</time>
      </trkpt>
      <trkpt lat="47.78565" lon="2.11702">
        <ele>186</ele>
        <time>2015-11-01T10:04:36.069Z</time>
      </trkpt>
      <trkpt lat="47.78559" lon="2.11701">
        <ele>186</ele>
        <time>2015-11-01T10:04:35.033Z</time>
      </trkpt>
      <trkpt lat="47.78553" lon="2.11699">
        <ele>186</ele>
        <time>2015-11-01T10:04:34.070Z</time>
      </trkpt>
      <trkpt lat="47.78546" lon="2.11696">
        <ele>186</ele>
        <time>2015-11-01T10:04:33.034Z</time>
      </trkpt>
      <trkpt lat="47.7854" lon="2.11694">
        <ele>186</ele>
        <time>2015-11-01T10:04:32.070Z</time>
      </trkpt>
      <trkpt lat="47.78533" lon="2.11692">
        <ele>186</ele>
        <time>2015-11-01T10:04:31.033Z</time>
      </trkpt>
      <trkpt lat="47.78526" lon="2.1169">
        <ele>186</ele>
        <time>2015-11-01T10:04:30.065Z</time>
      </trkpt>
      <trkpt lat="47.7852" lon="2.11688">
        <ele>186</ele>
        <time>2015-11-01T10:04:29.034Z</time>
      </trkpt>
      <trkpt lat="47.78514" lon="2.11686">
        <ele>186</ele>
        <time>2015-11-01T10:04:28.070Z</time>
      </trkpt>
      <trkpt lat="47.78507" lon="2.11684">
        <ele>186</ele>
        <time>2015-11-01T10:04:27.035Z</time>
      </trkpt>
      <trkpt lat="47.78501" lon="2.11682">
        <ele>186</ele>
        <time>2015-11-01T10:04:26.231Z</time>
      </trkpt>
      <trkpt lat="47.78495" lon="2.11679">
        <ele>186</ele>
        <time>2015-11-01T10:04:25.035Z</time>
      </trkpt>
      <trkpt lat="47.78488" lon="2.11677">
        <ele>186</ele>
        <time>2015-11-01T10:04:24.070Z</time>
      </trkpt>
      <trkpt lat="47.78481" lon="2.11675">
        <ele>185</ele>
        <time>2015-11-01T10:04:23.034Z</time>
      </trkpt>
      <trkpt lat="47.78475" lon="2.11672">
        <ele>185</ele>
        <time>2015-11-01T10:04:22.071Z</time>
      </trkpt>
      <trkpt lat="47.78469" lon="2.11671">
        <ele>186</ele>
        <time>2015-11-01T10:04:21.035Z</time>
      </trkpt>
      <trkpt lat="47.78462" lon="2.11669">
        <ele>185</ele>
        <time>2015-11-01T10:04:20.070Z</time>
      </trkpt>
      <trkpt lat="47.78455" lon="2.11666">
        <ele>186</ele>
        <time>2015-11-01T10:04:19.035Z</time>
      </trkpt>
      <trkpt lat="47.78449" lon="2.11664">
        <ele>186</ele>
        <time>2015-11-01T10:04:18.070Z</time>
      </trkpt>
      <trkpt lat="47.78443" lon="2.11663">
        <ele>186</ele>
        <time>2015-11-01T10:04:17.035Z</time>
      </trkpt>
      <trkpt lat="47.78436" lon="2.1166">
        <ele>186</ele>
        <time>2015-11-01T10:04:16.076Z</time>
      </trkpt>
      <trkpt lat="47.7843" lon="2.11659">
        <ele>186</ele>
        <time>2015-11-01T10:04:15.035Z</time>
      </trkpt>
      <trkpt lat="47.78423" lon="2.11656">
        <ele>186</ele>
        <time>2015-11-01T10:04:14.075Z</time>
      </trkpt>
      <trkpt lat="47.78417" lon="2.11654">
        <ele>186</ele>
        <time>2015-11-01T10:04:13.036Z</time>
      </trkpt>
      <trkpt lat="47.78411" lon="2.11652">
        <ele>186</ele>
        <time>2015-11-01T10:04:12.072Z</time>
      </trkpt>
      <trkpt lat="47.78404" lon="2.1165">
        <ele>186</ele>
        <time>2015-11-01T10:04:11.059Z</time>
      </trkpt>
      <trkpt lat="47.78397" lon="2.11648">
        <ele>186</ele>
        <time>2015-11-01T10:04:10.071Z</time>
      </trkpt>
      <trkpt lat="47.78391" lon="2.11647">
        <ele>186</ele>
        <time>2015-11-01T10:04:09.034Z</time>
      </trkpt>
      <trkpt lat="47.78384" lon="2.11645">
        <ele>186</ele>
        <time>2015-11-01T10:04:08.071Z</time>
      </trkpt>
      <trkpt lat="47.78378" lon="2.11643">
        <ele>186</ele>
        <time>2015-11-01T10:04:07.034Z</time>
      </trkpt>
      <trkpt lat="47.78372" lon="2.11641">
        <ele>186</ele>
        <time>2015-11-01T10:04:06.070Z</time>
      </trkpt>
      <trkpt lat="47.78365" lon="2.11638">
        <ele>186</ele>
        <time>2015-11-01T10:04:05.034Z</time>
      </trkpt>
      <trkpt lat="47.78358" lon="2.11636">
        <ele>186</ele>
        <time>2015-11-01T10:04:04.070Z</time>
      </trkpt>
      <trkpt lat="47.78352" lon="2.11634">
        <ele>186</ele>
        <time>2015-11-01T10:04:03.035Z</time>
      </trkpt>
      <trkpt lat="47.78346" lon="2.11632">
        <ele>186</ele>
        <time>2015-11-01T10:04:02.069Z</time>
      </trkpt>
      <trkpt lat="47.78339" lon="2.1163">
        <ele>186</ele>
        <time>2015-11-01T10:04:01.035Z</time>
      </trkpt>
      <trkpt lat="47.78333" lon="2.11628">
        <ele>186</ele>
        <time>2015-11-01T10:04:00.150Z</time>
      </trkpt>
      <trkpt lat="47.78327" lon="2.11626">
        <ele>186</ele>
        <time>2015-11-01T10:03:59.033Z</time>
      </trkpt>
      <trkpt lat="47.7832" lon="2.11624">
        <ele>186</ele>
        <time>2015-11-01T10:03:58.064Z</time>
      </trkpt>
      <trkpt lat="47.78314" lon="2.11622">
        <ele>186</ele>
        <time>2015-11-01T10:03:57.034Z</time>
      </trkpt>
      <trkpt lat="47.78308" lon="2.1162">
        <ele>186</ele>
        <time>2015-11-01T10:03:56.071Z</time>
      </trkpt>
      <trkpt lat="47.78301" lon="2.11618">
        <ele>186</ele>
        <time>2015-11-01T10:03:55.033Z</time>
      </trkpt>
      <trkpt lat="47.78295" lon="2.11616">
        <ele>186</ele>
        <time>2015-11-01T10:03:54.071Z</time>
      </trkpt>
      <trkpt lat="47.78289" lon="2.11614">
        <ele>186</ele>
        <time>2015-11-01T10:03:53.036Z</time>
      </trkpt>
      <trkpt lat="47.78283" lon="2.11612">
        <ele>186</ele>
        <time>2015-11-01T10:03:52.069Z</time>
      </trkpt>
      <trkpt lat="47.78277" lon="2.1161">
        <ele>186</ele>
        <time>2015-11-01T10:03:51.034Z</time>
      </trkpt>
      <trkpt lat="47.78272" lon="2.11608">
        <ele>186</ele>
        <time>2015-11-01T10:03:50.240Z</time>
      </trkpt>
      <trkpt lat="47.78266" lon="2.11606">
        <ele>186</ele>
        <time>2015-11-01T10:03:49.034Z</time>
      </trkpt>
      <trkpt lat="47.7826" lon="2.11605">
        <ele>185</ele>
        <time>2015-11-01T10:03:48.069Z</time>
      </trkpt>
      <trkpt lat="47.78255" lon="2.11603">
        <ele>186</ele>
        <time>2015-11-01T10:03:47.032Z</time>
      </trkpt>
      <trkpt lat="47.78249" lon="2.11601">
        <ele>185</ele>
        <time>2015-11-01T10:03:46.097Z</time>
      </trkpt>
      <trkpt lat="47.78244" lon="2.11599">
        <ele>185</ele>
        <time>2015-11-01T10:03:45.031Z</time>
      </trkpt>
      <trkpt lat="47.78238" lon="2.11598">
        <ele>185</ele>
        <time>2015-11-01T10:03:44.062Z</time>
      </trkpt>
      <trkpt lat="47.78232" lon="2.11595">
        <ele>185</ele>
        <time>2015-11-01T10:03:43.028Z</time>
      </trkpt>
      <trkpt lat="47.78226" lon="2.11593">
        <ele>185</ele>
        <time>2015-11-01T10:03:42.064Z</time>
      </trkpt>
      <trkpt lat="47.7822" lon="2.11592">
        <ele>185</ele>
        <time>2015-11-01T10:03:41.034Z</time>
      </trkpt>
      <trkpt lat="47.78214" lon="2.1159">
        <ele>184</ele>
        <time>2015-11-01T10:03:40.094Z</time>
      </trkpt>
      <trkpt lat="47.78208" lon="2.11588">
        <ele>184</ele>
        <time>2015-11-01T10:03:39.034Z</time>
      </trkpt>
      <trkpt lat="47.78202" lon="2.11587">
        <ele>184</ele>
        <time>2015-11-01T10:03:38.069Z</time>
      </trkpt>
      <trkpt lat="47.78197" lon="2.11586">
        <ele>184</ele>
        <time>2015-11-01T10:03:37.034Z</time>
      </trkpt>
      <trkpt lat="47.7819" lon="2.11584">
        <ele>184</ele>
        <time>2015-11-01T10:03:36.072Z</time>
      </trkpt>
      <trkpt lat="47.78184" lon="2.11583">
        <ele>183</ele>
        <time>2015-11-01T10:03:35.034Z</time>
      </trkpt>
      <trkpt lat="47.78177" lon="2.11582">
        <ele>183</ele>
        <time>2015-11-01T10:03:34.071Z</time>
      </trkpt>
      <trkpt lat="47.78171" lon="2.11583">
        <ele>183</ele>
        <time>2015-11-01T10:03:33.036Z</time>
      </trkpt>
      <trkpt lat="47.78164" lon="2.11583">
        <ele>183</ele>
        <time>2015-11-01T10:03:32.070Z</time>
      </trkpt>
      <trkpt lat="47.78157" lon="2.11584">
        <ele>183</ele>
        <time>2015-11-01T10:03:31.035Z</time>
      </trkpt>
      <trkpt lat="47.7815" lon="2.11586">
        <ele>182</ele>
        <time>2015-11-01T10:03:30.070Z</time>
      </trkpt>
      <trkpt lat="47.78143" lon="2.11586">
        <ele>184</ele>
        <time>2015-11-01T10:03:29.034Z</time>
      </trkpt>
      <trkpt lat="47.78136" lon="2.11587">
        <ele>184</ele>
        <time>2015-11-01T10:03:28.070Z</time>
      </trkpt>
      <trkpt lat="47.78129" lon="2.11588">
        <ele>184</ele>
        <time>2015-11-01T10:03:27.032Z</time>
      </trkpt>
      <trkpt lat="47.78122" lon="2.11589">
        <ele>184</ele>
        <time>2015-11-01T10:03:26.064Z</time>
      </trkpt>
      <trkpt lat="47.78116" lon="2.1159">
        <ele>184</ele>
        <time>2015-11-01T10:03:25.033Z</time>
      </trkpt>
      <trkpt lat="47.78109" lon="2.11591">
        <ele>184</ele>
        <time>2015-11-01T10:03:24.089Z</time>
      </trkpt>
      <trkpt lat="47.78102" lon="2.11591">
        <ele>184</ele>
        <time>2015-11-01T10:03:23.026Z</time>
      </trkpt>
      <trkpt lat="47.78095" lon="2.11591">
        <ele>184</ele>
        <time>2015-11-01T10:03:22.056Z</time>
      </trkpt>
      <trkpt lat="47.78088" lon="2.1159">
        <ele>183</ele>
        <time>2015-11-01T10:03:21.026Z</time>
      </trkpt>
      <trkpt lat="47.78081" lon="2.1159">
        <ele>184</ele>
        <time>2015-11-01T10:03:20.057Z</time>
      </trkpt>
      <trkpt lat="47.78074" lon="2.1159">
        <ele>184</ele>
        <time>2015-11-01T10:03:19.026Z</time>
      </trkpt>
      <trkpt lat="47.78068" lon="2.1159">
        <ele>184</ele>
        <time>2015-11-01T10:03:18.057Z</time>
      </trkpt>
      <trkpt lat="47.78061" lon="2.11589">
        <ele>184</ele>
        <time>2015-11-01T10:03:17.019Z</time>
      </trkpt>
      <trkpt lat="47.78054" lon="2.11588">
        <ele>184</ele>
        <time>2015-11-01T10:03:16.062Z</time>
      </trkpt>
      <trkpt lat="47.78048" lon="2.11588">
        <ele>184</ele>
        <time>2015-11-01T10:03:15.028Z</time>
      </trkpt>
      <trkpt lat="47.78041" lon="2.11587">
        <ele>183</ele>
        <time>2015-11-01T10:03:14.050Z</time>
      </trkpt>
      <trkpt lat="47.78034" lon="2.11585">
        <ele>183</ele>
        <time>2015-11-01T10:03:13.033Z</time>
      </trkpt>
      <trkpt lat="47.78027" lon="2.11583">
        <ele>183</ele>
        <time>2015-11-01T10:03:12.072Z</time>
      </trkpt>
      <trkpt lat="47.7802" lon="2.11579">
        <ele>183</ele>
        <time>2015-11-01T10:03:11.032Z</time>
      </trkpt>
      <trkpt lat="47.78014" lon="2.11575">
        <ele>184</ele>
        <time>2015-11-01T10:03:10.067Z</time>
      </trkpt>
      <trkpt lat="47.78008" lon="2.11571">
        <ele>184</ele>
        <time>2015-11-01T10:03:09.036Z</time>
      </trkpt>
      <trkpt lat="47.78001" lon="2.11567">
        <ele>184</ele>
        <time>2015-11-01T10:03:08.070Z</time>
      </trkpt>
      <trkpt lat="47.77995" lon="2.11563">
        <ele>184</ele>
        <time>2015-11-01T10:03:07.034Z</time>
      </trkpt>
      <trkpt lat="47.77989" lon="2.11559">
        <ele>184</ele>
        <time>2015-11-01T10:03:06.070Z</time>
      </trkpt>
      <trkpt lat="47.77983" lon="2.11555">
        <ele>184</ele>
        <time>2015-11-01T10:03:05.036Z</time>
      </trkpt>
      <trkpt lat="47.77977" lon="2.11551">
        <ele>184</ele>
        <time>2015-11-01T10:03:04.070Z</time>
      </trkpt>
      <trkpt lat="47.7797" lon="2.11547">
        <ele>184</ele>
        <time>2015-11-01T10:03:03.058Z</time>
      </trkpt>
      <trkpt lat="47.77964" lon="2.11543">
        <ele>184</ele>
        <time>2015-11-01T10:03:02.071Z</time>
      </trkpt>
      <trkpt lat="47.77958" lon="2.11538">
        <ele>184</ele>
        <time>2015-11-01T10:03:01.034Z</time>
      </trkpt>
      <trkpt lat="47.77951" lon="2.11534">
        <ele>185</ele>
        <time>2015-11-01T10:03:00.100Z</time>
      </trkpt>
      <trkpt lat="47.77945" lon="2.1153">
        <ele>184</ele>
        <time>2015-11-01T10:02:59.034Z</time>
      </trkpt>
      <trkpt lat="47.77938" lon="2.11525">
        <ele>184</ele>
        <time>2015-11-01T10:02:58.071Z</time>
      </trkpt>
      <trkpt lat="47.77932" lon="2.11522">
        <ele>184</ele>
        <time>2015-11-01T10:02:57.034Z</time>
      </trkpt>
      <trkpt lat="47.77926" lon="2.11518">
        <ele>184</ele>
        <time>2015-11-01T10:02:56.070Z</time>
      </trkpt>
      <trkpt lat="47.7792" lon="2.11514">
        <ele>184</ele>
        <time>2015-11-01T10:02:55.032Z</time>
      </trkpt>
      <trkpt lat="47.77913" lon="2.1151">
        <ele>184</ele>
        <time>2015-11-01T10:02:54.061Z</time>
      </trkpt>
      <trkpt lat="47.77907" lon="2.11506">
        <ele>184</ele>
        <time>2015-11-01T10:02:53.037Z</time>
      </trkpt>
      <trkpt lat="47.77901" lon="2.11502">
        <ele>184</ele>
        <time>2015-11-01T10:02:52.074Z</time>
      </trkpt>
      <trkpt lat="47.77894" lon="2.11498">
        <ele>183</ele>
        <time>2015-11-01T10:02:51.036Z</time>
      </trkpt>
      <trkpt lat="47.77888" lon="2.11494">
        <ele>183</ele>
        <time>2015-11-01T10:02:50.076Z</time>
      </trkpt>
      <trkpt lat="47.77882" lon="2.1149">
        <ele>183</ele>
        <time>2015-11-01T10:02:49.037Z</time>
      </trkpt>
      <trkpt lat="47.77876" lon="2.11486">
        <ele>183</ele>
        <time>2015-11-01T10:02:48.075Z</time>
      </trkpt>
      <trkpt lat="47.7787" lon="2.11482">
        <ele>183</ele>
        <time>2015-11-01T10:02:47.115Z</time>
      </trkpt>
      <trkpt lat="47.77863" lon="2.11478">
        <ele>183</ele>
        <time>2015-11-01T10:02:46.075Z</time>
      </trkpt>
      <trkpt lat="47.77857" lon="2.11474">
        <ele>183</ele>
        <time>2015-11-01T10:02:45.036Z</time>
      </trkpt>
      <trkpt lat="47.77851" lon="2.1147">
        <ele>182</ele>
        <time>2015-11-01T10:02:44.074Z</time>
      </trkpt>
      <trkpt lat="47.77844" lon="2.11466">
        <ele>182</ele>
        <time>2015-11-01T10:02:43.038Z</time>
      </trkpt>
      <trkpt lat="47.77838" lon="2.11463">
        <ele>182</ele>
        <time>2015-11-01T10:02:42.074Z</time>
      </trkpt>
      <trkpt lat="47.77832" lon="2.11459">
        <ele>181</ele>
        <time>2015-11-01T10:02:41.037Z</time>
      </trkpt>
      <trkpt lat="47.77825" lon="2.11454">
        <ele>182</ele>
        <time>2015-11-01T10:02:40.075Z</time>
      </trkpt>
      <trkpt lat="47.77819" lon="2.1145">
        <ele>182</ele>
        <time>2015-11-01T10:02:39.034Z</time>
      </trkpt>
      <trkpt lat="47.77812" lon="2.11444">
        <ele>182</ele>
        <time>2015-11-01T10:02:38.069Z</time>
      </trkpt>
      <trkpt lat="47.77805" lon="2.1144">
        <ele>182</ele>
        <time>2015-11-01T10:02:37.037Z</time>
      </trkpt>
      <trkpt lat="47.77799" lon="2.11437">
        <ele>183</ele>
        <time>2015-11-01T10:02:36.230Z</time>
      </trkpt>
      <trkpt lat="47.77793" lon="2.11433">
        <ele>182</ele>
        <time>2015-11-01T10:02:35.032Z</time>
      </trkpt>
      <trkpt lat="47.77786" lon="2.11429">
        <ele>182</ele>
        <time>2015-11-01T10:02:34.072Z</time>
      </trkpt>
      <trkpt lat="47.77779" lon="2.11424">
        <ele>183</ele>
        <time>2015-11-01T10:02:33.038Z</time>
      </trkpt>
      <trkpt lat="47.77772" lon="2.11421">
        <ele>183</ele>
        <time>2015-11-01T10:02:32.073Z</time>
      </trkpt>
      <trkpt lat="47.77765" lon="2.11418">
        <ele>183</ele>
        <time>2015-11-01T10:02:31.041Z</time>
      </trkpt>
      <trkpt lat="47.77759" lon="2.11414">
        <ele>183</ele>
        <time>2015-11-01T10:02:30.058Z</time>
      </trkpt>
      <trkpt lat="47.77752" lon="2.11411">
        <ele>183</ele>
        <time>2015-11-01T10:02:29.035Z</time>
      </trkpt>
      <trkpt lat="47.77746" lon="2.11408">
        <ele>183</ele>
        <time>2015-11-01T10:02:28.067Z</time>
      </trkpt>
      <trkpt lat="47.77739" lon="2.11404">
        <ele>183</ele>
        <time>2015-11-01T10:02:27.029Z</time>
      </trkpt>
      <trkpt lat="47.77733" lon="2.11401">
        <ele>183</ele>
        <time>2015-11-01T10:02:26.064Z</time>
      </trkpt>
      <trkpt lat="47.77726" lon="2.11398">
        <ele>183</ele>
        <time>2015-11-01T10:02:25.027Z</time>
      </trkpt>
      <trkpt lat="47.77719" lon="2.11395">
        <ele>183</ele>
        <time>2015-11-01T10:02:24.060Z</time>
      </trkpt>
      <trkpt lat="47.77713" lon="2.11391">
        <ele>183</ele>
        <time>2015-11-01T10:02:23.037Z</time>
      </trkpt>
      <trkpt lat="47.77706" lon="2.11388">
        <ele>183</ele>
        <time>2015-11-01T10:02:22.060Z</time>
      </trkpt>
      <trkpt lat="47.777" lon="2.11385">
        <ele>183</ele>
        <time>2015-11-01T10:02:21.028Z</time>
      </trkpt>
      <trkpt lat="47.77693" lon="2.11382">
        <ele>183</ele>
        <time>2015-11-01T10:02:20.068Z</time>
      </trkpt>
      <trkpt lat="47.77686" lon="2.11378">
        <ele>183</ele>
        <time>2015-11-01T10:02:19.033Z</time>
      </trkpt>
      <trkpt lat="47.77679" lon="2.11375">
        <ele>184</ele>
        <time>2015-11-01T10:02:18.069Z</time>
      </trkpt>
      <trkpt lat="47.77673" lon="2.11372">
        <ele>184</ele>
        <time>2015-11-01T10:02:17.034Z</time>
      </trkpt>
      <trkpt lat="47.77666" lon="2.11368">
        <ele>184</ele>
        <time>2015-11-01T10:02:16.069Z</time>
      </trkpt>
      <trkpt lat="47.77659" lon="2.11366">
        <ele>184</ele>
        <time>2015-11-01T10:02:15.034Z</time>
      </trkpt>
      <trkpt lat="47.77653" lon="2.11364">
        <ele>184</ele>
        <time>2015-11-01T10:02:14.063Z</time>
      </trkpt>
      <trkpt lat="47.77646" lon="2.1136">
        <ele>185</ele>
        <time>2015-11-01T10:02:13.037Z</time>
      </trkpt>
      <trkpt lat="47.77639" lon="2.11357">
        <ele>185</ele>
        <time>2015-11-01T10:02:12.076Z</time>
      </trkpt>
      <trkpt lat="47.77632" lon="2.11354">
        <ele>185</ele>
        <time>2015-11-01T10:02:11.037Z</time>
      </trkpt>
      <trkpt lat="47.77626" lon="2.11351">
        <ele>185</ele>
        <time>2015-11-01T10:02:10.075Z</time>
      </trkpt>
      <trkpt lat="47.77619" lon="2.11348">
        <ele>185</ele>
        <time>2015-11-01T10:02:09.034Z</time>
      </trkpt>
      <trkpt lat="47.77612" lon="2.11345">
        <ele>186</ele>
        <time>2015-11-01T10:02:08.069Z</time>
      </trkpt>
      <trkpt lat="47.77605" lon="2.11342">
        <ele>187</ele>
        <time>2015-11-01T10:02:07.032Z</time>
      </trkpt>
      <trkpt lat="47.77599" lon="2.11339">
        <ele>187</ele>
        <time>2015-11-01T10:02:06.070Z</time>
      </trkpt>
      <trkpt lat="47.77592" lon="2.11336">
        <ele>187</ele>
        <time>2015-11-01T10:02:05.033Z</time>
      </trkpt>
      <trkpt lat="47.77585" lon="2.11333">
        <ele>187</ele>
        <time>2015-11-01T10:02:04.066Z</time>
      </trkpt>
      <trkpt lat="47.77579" lon="2.1133">
        <ele>187</ele>
        <time>2015-11-01T10:02:03.032Z</time>
      </trkpt>
      <trkpt lat="47.77573" lon="2.11326">
        <ele>188</ele>
        <time>2015-11-01T10:02:02.090Z</time>
      </trkpt>
      <trkpt lat="47.77566" lon="2.11324">
        <ele>188</ele>
        <time>2015-11-01T10:02:01.032Z</time>
      </trkpt>
      <trkpt lat="47.7756" lon="2.11321">
        <ele>188</ele>
        <time>2015-11-01T10:02:00.112Z</time>
      </trkpt>
      <trkpt lat="47.77553" lon="2.11318">
        <ele>187</ele>
        <time>2015-11-01T10:01:59.034Z</time>
      </trkpt>
      <trkpt lat="47.77547" lon="2.11315">
        <ele>187</ele>
        <time>2015-11-01T10:01:58.069Z</time>
      </trkpt>
      <trkpt lat="47.77541" lon="2.11313">
        <ele>187</ele>
        <time>2015-11-01T10:01:57.036Z</time>
      </trkpt>
      <trkpt lat="47.77534" lon="2.1131">
        <ele>187</ele>
        <time>2015-11-01T10:01:56.071Z</time>
      </trkpt>
      <trkpt lat="47.77527" lon="2.11309">
        <ele>187</ele>
        <time>2015-11-01T10:01:55.035Z</time>
      </trkpt>
      <trkpt lat="47.77521" lon="2.11307">
        <ele>188</ele>
        <time>2015-11-01T10:01:54.063Z</time>
      </trkpt>
      <trkpt lat="47.77515" lon="2.11304">
        <ele>188</ele>
        <time>2015-11-01T10:01:53.030Z</time>
      </trkpt>
      <trkpt lat="47.77508" lon="2.11302">
        <ele>188</ele>
        <time>2015-11-01T10:01:52.069Z</time>
      </trkpt>
      <trkpt lat="47.77502" lon="2.11299">
        <ele>188</ele>
        <time>2015-11-01T10:01:51.035Z</time>
      </trkpt>
      <trkpt lat="47.77495" lon="2.11296">
        <ele>188</ele>
        <time>2015-11-01T10:01:50.067Z</time>
      </trkpt>
      <trkpt lat="47.77488" lon="2.11293">
        <ele>189</ele>
        <time>2015-11-01T10:01:49.035Z</time>
      </trkpt>
      <trkpt lat="47.77482" lon="2.1129">
        <ele>188</ele>
        <time>2015-11-01T10:01:48.124Z</time>
      </trkpt>
      <trkpt lat="47.77476" lon="2.11289">
        <ele>188</ele>
        <time>2015-11-01T10:01:47.034Z</time>
      </trkpt>
      <trkpt lat="47.77469" lon="2.11286">
        <ele>188</ele>
        <time>2015-11-01T10:01:46.064Z</time>
      </trkpt>
      <trkpt lat="47.77463" lon="2.11284">
        <ele>188</ele>
        <time>2015-11-01T10:01:45.031Z</time>
      </trkpt>
      <trkpt lat="47.77457" lon="2.11282">
        <ele>188</ele>
        <time>2015-11-01T10:01:44.089Z</time>
      </trkpt>
      <trkpt lat="47.7745" lon="2.11281">
        <ele>188</ele>
        <time>2015-11-01T10:01:43.032Z</time>
      </trkpt>
      <trkpt lat="47.77443" lon="2.11281">
        <ele>189</ele>
        <time>2015-11-01T10:01:42.064Z</time>
      </trkpt>
      <trkpt lat="47.77437" lon="2.11282">
        <ele>189</ele>
        <time>2015-11-01T10:01:41.030Z</time>
      </trkpt>
      <trkpt lat="47.7743" lon="2.11282">
        <ele>189</ele>
        <time>2015-11-01T10:01:40.065Z</time>
      </trkpt>
      <trkpt lat="47.77424" lon="2.11283">
        <ele>189</ele>
        <time>2015-11-01T10:01:39.029Z</time>
      </trkpt>
      <trkpt lat="47.77418" lon="2.11284">
        <ele>189</ele>
        <time>2015-11-01T10:01:38.060Z</time>
      </trkpt>
      <trkpt lat="47.77412" lon="2.11285">
        <ele>188</ele>
        <time>2015-11-01T10:01:37.030Z</time>
      </trkpt>
      <trkpt lat="47.77406" lon="2.11285">
        <ele>188</ele>
        <time>2015-11-01T10:01:36.055Z</time>
      </trkpt>
      <trkpt lat="47.774" lon="2.11286">
        <ele>188</ele>
        <time>2015-11-01T10:01:35.025Z</time>
      </trkpt>
      <trkpt lat="47.77393" lon="2.11286">
        <ele>188</ele>
        <time>2015-11-01T10:01:34.062Z</time>
      </trkpt>
      <trkpt lat="47.77387" lon="2.11287">
        <ele>188</ele>
        <time>2015-11-01T10:01:33.032Z</time>
      </trkpt>
      <trkpt lat="47.7738" lon="2.11288">
        <ele>188</ele>
        <time>2015-11-01T10:01:32.070Z</time>
      </trkpt>
      <trkpt lat="47.77374" lon="2.11289">
        <ele>188</ele>
        <time>2015-11-01T10:01:31.034Z</time>
      </trkpt>
      <trkpt lat="47.77368" lon="2.11289">
        <ele>188</ele>
        <time>2015-11-01T10:01:30.069Z</time>
      </trkpt>
      <trkpt lat="47.77361" lon="2.11289">
        <ele>188</ele>
        <time>2015-11-01T10:01:29.032Z</time>
      </trkpt>
      <trkpt lat="47.77355" lon="2.1129">
        <ele>188</ele>
        <time>2015-11-01T10:01:28.095Z</time>
      </trkpt>
      <trkpt lat="47.77349" lon="2.1129">
        <ele>188</ele>
        <time>2015-11-01T10:01:27.033Z</time>
      </trkpt>
      <trkpt lat="47.77343" lon="2.1129">
        <ele>188</ele>
        <time>2015-11-01T10:01:26.066Z</time>
      </trkpt>
      <trkpt lat="47.77336" lon="2.1129">
        <ele>188</ele>
        <time>2015-11-01T10:01:25.032Z</time>
      </trkpt>
      <trkpt lat="47.7733" lon="2.1129">
        <ele>188</ele>
        <time>2015-11-01T10:01:24.068Z</time>
      </trkpt>
      <trkpt lat="47.77323" lon="2.1129">
        <ele>188</ele>
        <time>2015-11-01T10:01:23.032Z</time>
      </trkpt>
      <trkpt lat="47.77317" lon="2.1129">
        <ele>188</ele>
        <time>2015-11-01T10:01:22.149Z</time>
      </trkpt>
      <trkpt lat="47.7731" lon="2.1129">
        <ele>188</ele>
        <time>2015-11-01T10:01:21.026Z</time>
      </trkpt>
      <trkpt lat="47.77304" lon="2.1129">
        <ele>188</ele>
        <time>2015-11-01T10:01:20.054Z</time>
      </trkpt>
      <trkpt lat="47.77297" lon="2.1129">
        <ele>188</ele>
        <time>2015-11-01T10:01:19.026Z</time>
      </trkpt>
      <trkpt lat="47.77291" lon="2.1129">
        <ele>188</ele>
        <time>2015-11-01T10:01:18.057Z</time>
      </trkpt>
      <trkpt lat="47.77285" lon="2.1129">
        <ele>188</ele>
        <time>2015-11-01T10:01:17.025Z</time>
      </trkpt>
      <trkpt lat="47.77279" lon="2.1129">
        <ele>188</ele>
        <time>2015-11-01T10:01:16.056Z</time>
      </trkpt>
      <trkpt lat="47.77272" lon="2.11289">
        <ele>188</ele>
        <time>2015-11-01T10:01:15.025Z</time>
      </trkpt>
      <trkpt lat="47.77266" lon="2.11289">
        <ele>188</ele>
        <time>2015-11-01T10:01:14.061Z</time>
      </trkpt>
      <trkpt lat="47.7726" lon="2.11288">
        <ele>187</ele>
        <time>2015-11-01T10:01:13.027Z</time>
      </trkpt>
      <trkpt lat="47.77254" lon="2.11288">
        <ele>187</ele>
        <time>2015-11-01T10:01:12.064Z</time>
      </trkpt>
      <trkpt lat="47.77248" lon="2.11287">
        <ele>187</ele>
        <time>2015-11-01T10:01:11.033Z</time>
      </trkpt>
      <trkpt lat="47.77241" lon="2.11287">
        <ele>187</ele>
        <time>2015-11-01T10:01:10.072Z</time>
      </trkpt>
      <trkpt lat="47.77236" lon="2.11286">
        <ele>186</ele>
        <time>2015-11-01T10:01:09.034Z</time>
      </trkpt>
      <trkpt lat="47.77229" lon="2.11286">
        <ele>187</ele>
        <time>2015-11-01T10:01:08.069Z</time>
      </trkpt>
      <trkpt lat="47.77223" lon="2.11286">
        <ele>187</ele>
        <time>2015-11-01T10:01:07.034Z</time>
      </trkpt>
      <trkpt lat="47.77217" lon="2.11285">
        <ele>187</ele>
        <time>2015-11-01T10:01:06.070Z</time>
      </trkpt>
      <trkpt lat="47.77211" lon="2.11285">
        <ele>186</ele>
        <time>2015-11-01T10:01:05.034Z</time>
      </trkpt>
      <trkpt lat="47.77204" lon="2.11284">
        <ele>187</ele>
        <time>2015-11-01T10:01:04.071Z</time>
      </trkpt>
      <trkpt lat="47.77198" lon="2.11283">
        <ele>186</ele>
        <time>2015-11-01T10:01:03.031Z</time>
      </trkpt>
      <trkpt lat="47.77191" lon="2.11283">
        <ele>187</ele>
        <time>2015-11-01T10:01:02.090Z</time>
      </trkpt>
      <trkpt lat="47.77185" lon="2.11283">
        <ele>186</ele>
        <time>2015-11-01T10:01:01.034Z</time>
      </trkpt>
      <trkpt lat="47.77179" lon="2.11282">
        <ele>186</ele>
        <time>2015-11-01T10:01:00.115Z</time>
      </trkpt>
      <trkpt lat="47.77173" lon="2.11282">
        <ele>186</ele>
        <time>2015-11-01T10:00:59.035Z</time>
      </trkpt>
      <trkpt lat="47.77166" lon="2.11282">
        <ele>186</ele>
        <time>2015-11-01T10:00:58.070Z</time>
      </trkpt>
      <trkpt lat="47.7716" lon="2.11281">
        <ele>186</ele>
        <time>2015-11-01T10:00:57.035Z</time>
      </trkpt>
      <trkpt lat="47.77153" lon="2.11281">
        <ele>186</ele>
        <time>2015-11-01T10:00:56.080Z</time>
      </trkpt>
      <trkpt lat="47.77147" lon="2.11281">
        <ele>186</ele>
        <time>2015-11-01T10:00:55.054Z</time>
      </trkpt>
      <trkpt lat="47.77141" lon="2.1128">
        <ele>186</ele>
        <time>2015-11-01T10:00:54.071Z</time>
      </trkpt>
      <trkpt lat="47.77134" lon="2.11279">
        <ele>187</ele>
        <time>2015-11-01T10:00:53.034Z</time>
      </trkpt>
      <trkpt lat="47.77128" lon="2.11279">
        <ele>187</ele>
        <time>2015-11-01T10:00:52.072Z</time>
      </trkpt>
      <trkpt lat="47.77122" lon="2.11278">
        <ele>187</ele>
        <time>2015-11-01T10:00:51.038Z</time>
      </trkpt>
      <trkpt lat="47.77116" lon="2.11278">
        <ele>187</ele>
        <time>2015-11-01T10:00:50.069Z</time>
      </trkpt>
      <trkpt lat="47.7711" lon="2.11277">
        <ele>187</ele>
        <time>2015-11-01T10:00:49.033Z</time>
      </trkpt>
      <trkpt lat="47.77104" lon="2.11275">
        <ele>187</ele>
        <time>2015-11-01T10:00:48.069Z</time>
      </trkpt>
      <trkpt lat="47.77097" lon="2.11275">
        <ele>187</ele>
        <time>2015-11-01T10:00:47.034Z</time>
      </trkpt>
      <trkpt lat="47.77091" lon="2.11274">
        <ele>187</ele>
        <time>2015-11-01T10:00:46.219Z</time>
      </trkpt>
      <trkpt lat="47.77085" lon="2.11274">
        <ele>187</ele>
        <time>2015-11-01T10:00:45.037Z</time>
      </trkpt>
      <trkpt lat="47.77078" lon="2.11273">
        <ele>187</ele>
        <time>2015-11-01T10:00:44.071Z</time>
      </trkpt>
      <trkpt lat="47.77072" lon="2.11273">
        <ele>188</ele>
        <time>2015-11-01T10:00:43.037Z</time>
      </trkpt>
      <trkpt lat="47.77066" lon="2.11272">
        <ele>188</ele>
        <time>2015-11-01T10:00:42.073Z</time>
      </trkpt>
      <trkpt lat="47.77059" lon="2.11272">
        <ele>188</ele>
        <time>2015-11-01T10:00:41.035Z</time>
      </trkpt>
      <trkpt lat="47.77053" lon="2.11272">
        <ele>188</ele>
        <time>2015-11-01T10:00:40.072Z</time>
      </trkpt>
      <trkpt lat="47.77047" lon="2.11272">
        <ele>188</ele>
        <time>2015-11-01T10:00:39.036Z</time>
      </trkpt>
      <trkpt lat="47.7704" lon="2.11272">
        <ele>188</ele>
        <time>2015-11-01T10:00:38.069Z</time>
      </trkpt>
      <trkpt lat="47.77034" lon="2.11272">
        <ele>188</ele>
        <time>2015-11-01T10:00:37.036Z</time>
      </trkpt>
      <trkpt lat="47.77028" lon="2.11271">
        <ele>189</ele>
        <time>2015-11-01T10:00:36.090Z</time>
      </trkpt>
      <trkpt lat="47.77022" lon="2.11271">
        <ele>189</ele>
        <time>2015-11-01T10:00:35.036Z</time>
      </trkpt>
      <trkpt lat="47.77016" lon="2.1127">
        <ele>189</ele>
        <time>2015-11-01T10:00:34.071Z</time>
      </trkpt>
      <trkpt lat="47.7701" lon="2.1127">
        <ele>189</ele>
        <time>2015-11-01T10:00:33.037Z</time>
      </trkpt>
      <trkpt lat="47.77004" lon="2.11269">
        <ele>188</ele>
        <time>2015-11-01T10:00:32.229Z</time>
      </trkpt>
      <trkpt lat="47.76999" lon="2.11269">
        <ele>188</ele>
        <time>2015-11-01T10:00:31.060Z</time>
      </trkpt>
      <trkpt lat="47.76993" lon="2.1127">
        <ele>189</ele>
        <time>2015-11-01T10:00:30.067Z</time>
      </trkpt>
      <trkpt lat="47.76987" lon="2.11269">
        <ele>188</ele>
        <time>2015-11-01T10:00:29.033Z</time>
      </trkpt>
      <trkpt lat="47.76982" lon="2.11269">
        <ele>188</ele>
        <time>2015-11-01T10:00:28.071Z</time>
      </trkpt>
      <trkpt lat="47.76977" lon="2.11269">
        <ele>188</ele>
        <time>2015-11-01T10:00:27.033Z</time>
      </trkpt>
      <trkpt lat="47.76971" lon="2.11269">
        <ele>188</ele>
        <time>2015-11-01T10:00:26.073Z</time>
      </trkpt>
      <trkpt lat="47.76966" lon="2.11269">
        <ele>187</ele>
        <time>2015-11-01T10:00:25.033Z</time>
      </trkpt>
      <trkpt lat="47.7696" lon="2.11268">
        <ele>187</ele>
        <time>2015-11-01T10:00:24.071Z</time>
      </trkpt>
      <trkpt lat="47.76954" lon="2.11268">
        <ele>187</ele>
        <time>2015-11-01T10:00:23.036Z</time>
      </trkpt>
      <trkpt lat="47.76948" lon="2.11268">
        <ele>187</ele>
        <time>2015-11-01T10:00:22.071Z</time>
      </trkpt>
      <trkpt lat="47.76943" lon="2.11267">
        <ele>186</ele>
        <time>2015-11-01T10:00:21.034Z</time>
      </trkpt>
      <trkpt lat="47.76938" lon="2.11267">
        <ele>186</ele>
        <time>2015-11-01T10:00:20.069Z</time>
      </trkpt>
      <trkpt lat="47.76932" lon="2.11266">
        <ele>186</ele>
        <time>2015-11-01T10:00:19.034Z</time>
      </trkpt>
      <trkpt lat="47.76926" lon="2.11266">
        <ele>186</ele>
        <time>2015-11-01T10:00:18.071Z</time>
      </trkpt>
      <trkpt lat="47.7692" lon="2.11266">
        <ele>185</ele>
        <time>2015-11-01T10:00:17.032Z</time>
      </trkpt>
      <trkpt lat="47.76914" lon="2.11266">
        <ele>185</ele>
        <time>2015-11-01T10:00:16.073Z</time>
      </trkpt>
      <trkpt lat="47.76909" lon="2.11264">
        <ele>185</ele>
        <time>2015-11-01T10:00:15.034Z</time>
      </trkpt>
      <trkpt lat="47.76904" lon="2.1126">
        <ele>185</ele>
        <time>2015-11-01T10:00:14.074Z</time>
      </trkpt>
      <trkpt lat="47.769" lon="2.11256">
        <ele>184</ele>
        <time>2015-11-01T10:00:13.034Z</time>
      </trkpt>
      <trkpt lat="47.76896" lon="2.11253">
        <ele>184</ele>
        <time>2015-11-01T10:00:12.086Z</time>
      </trkpt>
      <trkpt lat="47.76891" lon="2.11249">
        <ele>184</ele>
        <time>2015-11-01T10:00:11.032Z</time>
      </trkpt>
      <trkpt lat="47.76887" lon="2.11244">
        <ele>183</ele>
        <time>2015-11-01T10:00:10.094Z</time>
      </trkpt>
      <trkpt lat="47.76882" lon="2.1124">
        <ele>183</ele>
        <time>2015-11-01T10:00:09.024Z</time>
      </trkpt>
      <trkpt lat="47.76878" lon="2.11235">
        <ele>183</ele>
        <time>2015-11-01T10:00:08.055Z</time>
      </trkpt>
      <trkpt lat="47.76873" lon="2.11231">
        <ele>183</ele>
        <time>2015-11-01T10:00:07.024Z</time>
      </trkpt>
      <trkpt lat="47.76868" lon="2.11226">
        <ele>183</ele>
        <time>2015-11-01T10:00:06.057Z</time>
      </trkpt>
      <trkpt lat="47.76863" lon="2.11221">
        <ele>183</ele>
        <time>2015-11-01T10:00:05.026Z</time>
      </trkpt>
      <trkpt lat="47.76859" lon="2.11217">
        <ele>183</ele>
        <time>2015-11-01T10:00:04.058Z</time>
      </trkpt>
      <trkpt lat="47.76854" lon="2.11212">
        <ele>183</ele>
        <time>2015-11-01T10:00:03.025Z</time>
      </trkpt>
      <trkpt lat="47.7685" lon="2.11207">
        <ele>182</ele>
        <time>2015-11-01T10:00:02.057Z</time>
      </trkpt>
      <trkpt lat="47.76845" lon="2.11203">
        <ele>182</ele>
        <time>2015-11-01T10:00:01.024Z</time>
      </trkpt>
      <trkpt lat="47.7684" lon="2.11198">
        <ele>182</ele>
        <time>2015-11-01T10:00:00.092Z</time>
      </trkpt>
      <trkpt lat="47.76836" lon="2.11194">
        <ele>182</ele>
        <time>2015-11-01T09:59:59.047Z</time>
      </trkpt>
      <trkpt lat="47.76831" lon="2.11189">
        <ele>182</ele>
        <time>2015-11-01T09:59:58.057Z</time>
      </trkpt>
      <trkpt lat="47.76827" lon="2.11184">
        <ele>182</ele>
        <time>2015-11-01T09:59:57.030Z</time>
      </trkpt>
      <trkpt lat="47.76822" lon="2.1118">
        <ele>182</ele>
        <time>2015-11-01T09:59:56.071Z</time>
      </trkpt>
      <trkpt lat="47.76817" lon="2.11175">
        <ele>182</ele>
        <time>2015-11-01T09:59:55.032Z</time>
      </trkpt>
      <trkpt lat="47.76812" lon="2.1117">
        <ele>181</ele>
        <time>2015-11-01T09:59:54.093Z</time>
      </trkpt>
      <trkpt lat="47.76808" lon="2.11165">
        <ele>181</ele>
        <time>2015-11-01T09:59:53.032Z</time>
      </trkpt>
      <trkpt lat="47.76803" lon="2.11161">
        <ele>180</ele>
        <time>2015-11-01T09:59:52.067Z</time>
      </trkpt>
      <trkpt lat="47.76799" lon="2.11157">
        <ele>179</ele>
        <time>2015-11-01T09:59:51.032Z</time>
      </trkpt>
      <trkpt lat="47.76795" lon="2.11153">
        <ele>179</ele>
        <time>2015-11-01T09:59:50.070Z</time>
      </trkpt>
      <trkpt lat="47.76791" lon="2.11148">
        <ele>179</ele>
        <time>2015-11-01T09:59:49.032Z</time>
      </trkpt>
      <trkpt lat="47.76786" lon="2.11144">
        <ele>179</ele>
        <time>2015-11-01T09:59:48.069Z</time>
      </trkpt>
      <trkpt lat="47.76782" lon="2.1114">
        <ele>179</ele>
        <time>2015-11-01T09:59:47.032Z</time>
      </trkpt>
      <trkpt lat="47.76778" lon="2.11135">
        <ele>178</ele>
        <time>2015-11-01T09:59:46.070Z</time>
      </trkpt>
      <trkpt lat="47.76773" lon="2.11131">
        <ele>179</ele>
        <time>2015-11-01T09:59:45.033Z</time>
      </trkpt>
      <trkpt lat="47.76769" lon="2.11127">
        <ele>178</ele>
        <time>2015-11-01T09:59:44.069Z</time>
      </trkpt>
      <trkpt lat="47.76764" lon="2.11123">
        <ele>178</ele>
        <time>2015-11-01T09:59:43.033Z</time>
      </trkpt>
      <trkpt lat="47.7676" lon="2.11118">
        <ele>178</ele>
        <time>2015-11-01T09:59:42.064Z</time>
      </trkpt>
      <trkpt lat="47.76755" lon="2.11113">
        <ele>178</ele>
        <time>2015-11-01T09:59:41.033Z</time>
      </trkpt>
      <trkpt lat="47.7675" lon="2.11108">
        <ele>178</ele>
        <time>2015-11-01T09:59:40.069Z</time>
      </trkpt>
      <trkpt lat="47.76745" lon="2.11103">
        <ele>178</ele>
        <time>2015-11-01T09:59:39.031Z</time>
      </trkpt>
      <trkpt lat="47.76741" lon="2.11099">
        <ele>178</ele>
        <time>2015-11-01T09:59:38.093Z</time>
      </trkpt>
      <trkpt lat="47.76736" lon="2.11094">
        <ele>177</ele>
        <time>2015-11-01T09:59:37.033Z</time>
      </trkpt>
      <trkpt lat="47.76731" lon="2.11089">
        <ele>178</ele>
        <time>2015-11-01T09:59:36.071Z</time>
      </trkpt>
      <trkpt lat="47.76727" lon="2.11085">
        <ele>178</ele>
        <time>2015-11-01T09:59:35.031Z</time>
      </trkpt>
      <trkpt lat="47.76722" lon="2.1108">
        <ele>178</ele>
        <time>2015-11-01T09:59:34.067Z</time>
      </trkpt>
      <trkpt lat="47.76717" lon="2.11076">
        <ele>178</ele>
        <time>2015-11-01T09:59:33.034Z</time>
      </trkpt>
      <trkpt lat="47.76713" lon="2.11071">
        <ele>178</ele>
        <time>2015-11-01T09:59:32.070Z</time>
      </trkpt>
      <trkpt lat="47.76708" lon="2.11067">
        <ele>178</ele>
        <time>2015-11-01T09:59:31.033Z</time>
      </trkpt>
      <trkpt lat="47.76704" lon="2.11062">
        <ele>178</ele>
        <time>2015-11-01T09:59:30.070Z</time>
      </trkpt>
      <trkpt lat="47.767" lon="2.11057">
        <ele>178</ele>
        <time>2015-11-01T09:59:29.034Z</time>
      </trkpt>
      <trkpt lat="47.76696" lon="2.11053">
        <ele>178</ele>
        <time>2015-11-01T09:59:28.069Z</time>
      </trkpt>
      <trkpt lat="47.76691" lon="2.11049">
        <ele>178</ele>
        <time>2015-11-01T09:59:27.030Z</time>
      </trkpt>
      <trkpt lat="47.76687" lon="2.11044">
        <ele>178</ele>
        <time>2015-11-01T09:59:26.067Z</time>
      </trkpt>
      <trkpt lat="47.76683" lon="2.11041">
        <ele>177</ele>
        <time>2015-11-01T09:59:25.032Z</time>
      </trkpt>
      <trkpt lat="47.76678" lon="2.11037">
        <ele>177</ele>
        <time>2015-11-01T09:59:24.070Z</time>
      </trkpt>
      <trkpt lat="47.76674" lon="2.11033">
        <ele>177</ele>
        <time>2015-11-01T09:59:23.033Z</time>
      </trkpt>
      <trkpt lat="47.7667" lon="2.11029">
        <ele>177</ele>
        <time>2015-11-01T09:59:22.070Z</time>
      </trkpt>
      <trkpt lat="47.76666" lon="2.11025">
        <ele>177</ele>
        <time>2015-11-01T09:59:21.031Z</time>
      </trkpt>
      <trkpt lat="47.76663" lon="2.11021">
        <ele>176</ele>
        <time>2015-11-01T09:59:20.068Z</time>
      </trkpt>
      <trkpt lat="47.76658" lon="2.11017">
        <ele>176</ele>
        <time>2015-11-01T09:59:19.033Z</time>
      </trkpt>
      <trkpt lat="47.76654" lon="2.11013">
        <ele>176</ele>
        <time>2015-11-01T09:59:18.068Z</time>
      </trkpt>
      <trkpt lat="47.7665" lon="2.11009">
        <ele>177</ele>
        <time>2015-11-01T09:59:17.057Z</time>
      </trkpt>
      <trkpt lat="47.76646" lon="2.11005">
        <ele>177</ele>
        <time>2015-11-01T09:59:16.076Z</time>
      </trkpt>
      <trkpt lat="47.76642" lon="2.11001">
        <ele>177</ele>
        <time>2015-11-01T09:59:15.035Z</time>
      </trkpt>
      <trkpt lat="47.76638" lon="2.10997">
        <ele>177</ele>
        <time>2015-11-01T09:59:14.075Z</time>
      </trkpt>
      <trkpt lat="47.76634" lon="2.10993">
        <ele>177</ele>
        <time>2015-11-01T09:59:13.031Z</time>
      </trkpt>
      <trkpt lat="47.76631" lon="2.10989">
        <ele>178</ele>
        <time>2015-11-01T09:59:12.071Z</time>
      </trkpt>
      <trkpt lat="47.76624" lon="2.10982">
        <ele>177</ele>
        <time>2015-11-01T09:59:10.028Z</time>
      </trkpt>
      <trkpt lat="47.7662" lon="2.10978">
        <ele>177</ele>
        <time>2015-11-01T09:59:09.071Z</time>
      </trkpt>
      <trkpt lat="47.76613" lon="2.10971">
        <ele>177</ele>
        <time>2015-11-01T09:59:07.032Z</time>
      </trkpt>
      <trkpt lat="47.7661" lon="2.10968">
        <ele>177</ele>
        <time>2015-11-01T09:59:06.072Z</time>
      </trkpt>
      <trkpt lat="47.76603" lon="2.10961">
        <ele>177</ele>
        <time>2015-11-01T09:59:04.033Z</time>
      </trkpt>
      <trkpt lat="47.766" lon="2.10958">
        <ele>177</ele>
        <time>2015-11-01T09:59:03.069Z</time>
      </trkpt>
      <trkpt lat="47.76593" lon="2.10951">
        <ele>177</ele>
        <time>2015-11-01T09:59:01.058Z</time>
      </trkpt>
      <trkpt lat="47.76589" lon="2.10948">
        <ele>177</ele>
        <time>2015-11-01T09:59:00.104Z</time>
      </trkpt>
      <trkpt lat="47.76582" lon="2.10942">
        <ele>177</ele>
        <time>2015-11-01T09:58:58.034Z</time>
      </trkpt>
      <trkpt lat="47.76579" lon="2.10938">
        <ele>177</ele>
        <time>2015-11-01T09:58:57.072Z</time>
      </trkpt>
      <trkpt lat="47.76572" lon="2.10929">
        <ele>177</ele>
        <time>2015-11-01T09:58:54.031Z</time>
      </trkpt>
      <trkpt lat="47.76571" lon="2.10928">
        <ele>177</ele>
        <time>2015-11-01T09:58:53.071Z</time>
      </trkpt>
      <trkpt lat="47.76565" lon="2.1092">
        <ele>179</ele>
        <time>2015-11-01T09:58:50.033Z</time>
      </trkpt>
      <trkpt lat="47.76562" lon="2.10919">
        <ele>179</ele>
        <time>2015-11-01T09:58:49.073Z</time>
      </trkpt>
      <trkpt lat="47.76557" lon="2.10913">
        <ele>180</ele>
        <time>2015-11-01T09:58:46.035Z</time>
      </trkpt>
      <trkpt lat="47.76554" lon="2.1091">
        <ele>181</ele>
        <time>2015-11-01T09:58:45.128Z</time>
      </trkpt>
      <trkpt lat="47.76548" lon="2.10905">
        <ele>181</ele>
        <time>2015-11-01T09:58:43.029Z</time>
      </trkpt>
      <trkpt lat="47.76546" lon="2.10902">
        <ele>181</ele>
        <time>2015-11-01T09:58:42.067Z</time>
      </trkpt>
      <trkpt lat="47.76539" lon="2.10897">
        <ele>182</ele>
        <time>2015-11-01T09:58:40.034Z</time>
      </trkpt>
      <trkpt lat="47.76537" lon="2.10894">
        <ele>182</ele>
        <time>2015-11-01T09:58:39.071Z</time>
      </trkpt>
      <trkpt lat="47.76531" lon="2.10889">
        <ele>182</ele>
        <time>2015-11-01T09:58:37.034Z</time>
      </trkpt>
      <trkpt lat="47.76529" lon="2.10887">
        <ele>182</ele>
        <time>2015-11-01T09:58:36.069Z</time>
      </trkpt>
      <trkpt lat="47.76523" lon="2.10882">
        <ele>182</ele>
        <time>2015-11-01T09:58:34.033Z</time>
      </trkpt>
      <trkpt lat="47.76519" lon="2.10879">
        <ele>182</ele>
        <time>2015-11-01T09:58:33.072Z</time>
      </trkpt>
      <trkpt lat="47.76514" lon="2.10875">
        <ele>182</ele>
        <time>2015-11-01T09:58:31.033Z</time>
      </trkpt>
      <trkpt lat="47.76512" lon="2.10871">
        <ele>183</ele>
        <time>2015-11-01T09:58:30.115Z</time>
      </trkpt>
      <trkpt lat="47.76507" lon="2.10867">
        <ele>183</ele>
        <time>2015-11-01T09:58:28.033Z</time>
      </trkpt>
      <trkpt lat="47.76504" lon="2.10864">
        <ele>182</ele>
        <time>2015-11-01T09:58:27.065Z</time>
      </trkpt>
      <trkpt lat="47.76498" lon="2.1086">
        <ele>182</ele>
        <time>2015-11-01T09:58:25.033Z</time>
      </trkpt>
      <trkpt lat="47.76494" lon="2.1086">
        <ele>182</ele>
        <time>2015-11-01T09:58:24.213Z</time>
      </trkpt>
      <trkpt lat="47.76487" lon="2.10864">
        <ele>182</ele>
        <time>2015-11-01T09:58:22.035Z</time>
      </trkpt>
      <trkpt lat="47.76483" lon="2.10867">
        <ele>182</ele>
        <time>2015-11-01T09:58:21.068Z</time>
      </trkpt>
      <trkpt lat="47.76479" lon="2.10871">
        <ele>182</ele>
        <time>2015-11-01T09:58:20.029Z</time>
      </trkpt>
      <trkpt lat="47.76475" lon="2.10876">
        <ele>182</ele>
        <time>2015-11-01T09:58:19.067Z</time>
      </trkpt>
      <trkpt lat="47.76471" lon="2.1088">
        <ele>182</ele>
        <time>2015-11-01T09:58:18.033Z</time>
      </trkpt>
      <trkpt lat="47.76466" lon="2.10885">
        <ele>182</ele>
        <time>2015-11-01T09:58:17.074Z</time>
      </trkpt>
      <trkpt lat="47.76461" lon="2.10889">
        <ele>182</ele>
        <time>2015-11-01T09:58:16.038Z</time>
      </trkpt>
      <trkpt lat="47.76457" lon="2.10894">
        <ele>182</ele>
        <time>2015-11-01T09:58:15.078Z</time>
      </trkpt>
      <trkpt lat="47.76453" lon="2.10899">
        <ele>183</ele>
        <time>2015-11-01T09:58:14.035Z</time>
      </trkpt>
      <trkpt lat="47.76449" lon="2.10903">
        <ele>182</ele>
        <time>2015-11-01T09:58:13.115Z</time>
      </trkpt>
      <trkpt lat="47.76445" lon="2.10907">
        <ele>181</ele>
        <time>2015-11-01T09:58:12.034Z</time>
      </trkpt>
      <trkpt lat="47.7644" lon="2.10912">
        <ele>182</ele>
        <time>2015-11-01T09:58:11.064Z</time>
      </trkpt>
      <trkpt lat="47.76436" lon="2.10916">
        <ele>182</ele>
        <time>2015-11-01T09:58:10.032Z</time>
      </trkpt>
      <trkpt lat="47.76431" lon="2.10921">
        <ele>182</ele>
        <time>2015-11-01T09:58:09.071Z</time>
      </trkpt>
      <trkpt lat="47.76427" lon="2.10926">
        <ele>182</ele>
        <time>2015-11-01T09:58:08.032Z</time>
      </trkpt>
      <trkpt lat="47.76423" lon="2.1093">
        <ele>182</ele>
        <time>2015-11-01T09:58:07.070Z</time>
      </trkpt>
      <trkpt lat="47.76419" lon="2.10935">
        <ele>181</ele>
        <time>2015-11-01T09:58:06.032Z</time>
      </trkpt>
      <trkpt lat="47.76415" lon="2.10939">
        <ele>181</ele>
        <time>2015-11-01T09:58:05.068Z</time>
      </trkpt>
      <trkpt lat="47.76411" lon="2.10943">
        <ele>182</ele>
        <time>2015-11-01T09:58:04.033Z</time>
      </trkpt>
      <trkpt lat="47.76407" lon="2.10948">
        <ele>182</ele>
        <time>2015-11-01T09:58:03.071Z</time>
      </trkpt>
      <trkpt lat="47.76402" lon="2.10952">
        <ele>182</ele>
        <time>2015-11-01T09:58:02.035Z</time>
      </trkpt>
      <trkpt lat="47.76399" lon="2.10956">
        <ele>182</ele>
        <time>2015-11-01T09:58:01.069Z</time>
      </trkpt>
      <trkpt lat="47.76395" lon="2.10961">
        <ele>182</ele>
        <time>2015-11-01T09:58:00.064Z</time>
      </trkpt>
      <trkpt lat="47.76391" lon="2.10965">
        <ele>182</ele>
        <time>2015-11-01T09:57:59.066Z</time>
      </trkpt>
      <trkpt lat="47.76387" lon="2.10969">
        <ele>183</ele>
        <time>2015-11-01T09:57:58.032Z</time>
      </trkpt>
      <trkpt lat="47.76383" lon="2.10973">
        <ele>183</ele>
        <time>2015-11-01T09:57:57.093Z</time>
      </trkpt>
      <trkpt lat="47.76379" lon="2.10977">
        <ele>183</ele>
        <time>2015-11-01T09:57:56.031Z</time>
      </trkpt>
      <trkpt lat="47.76374" lon="2.10981">
        <ele>184</ele>
        <time>2015-11-01T09:57:55.065Z</time>
      </trkpt>
      <trkpt lat="47.7637" lon="2.10986">
        <ele>184</ele>
        <time>2015-11-01T09:57:54.032Z</time>
      </trkpt>
      <trkpt lat="47.76365" lon="2.10991">
        <ele>185</ele>
        <time>2015-11-01T09:57:53.070Z</time>
      </trkpt>
      <trkpt lat="47.76361" lon="2.10995">
        <ele>185</ele>
        <time>2015-11-01T09:57:52.032Z</time>
      </trkpt>
      <trkpt lat="47.76356" lon="2.10999">
        <ele>185</ele>
        <time>2015-11-01T09:57:51.067Z</time>
      </trkpt>
      <trkpt lat="47.76352" lon="2.11004">
        <ele>185</ele>
        <time>2015-11-01T09:57:50.034Z</time>
      </trkpt>
      <trkpt lat="47.76348" lon="2.11008">
        <ele>185</ele>
        <time>2015-11-01T09:57:49.069Z</time>
      </trkpt>
      <trkpt lat="47.76344" lon="2.11013">
        <ele>185</ele>
        <time>2015-11-01T09:57:48.033Z</time>
      </trkpt>
      <trkpt lat="47.7634" lon="2.11017">
        <ele>184</ele>
        <time>2015-11-01T09:57:47.071Z</time>
      </trkpt>
      <trkpt lat="47.76336" lon="2.11021">
        <ele>185</ele>
        <time>2015-11-01T09:57:46.031Z</time>
      </trkpt>
      <trkpt lat="47.76331" lon="2.11026">
        <ele>186</ele>
        <time>2015-11-01T09:57:45.068Z</time>
      </trkpt>
      <trkpt lat="47.76327" lon="2.1103">
        <ele>186</ele>
        <time>2015-11-01T09:57:44.033Z</time>
      </trkpt>
      <trkpt lat="47.76323" lon="2.11035">
        <ele>185</ele>
        <time>2015-11-01T09:57:43.069Z</time>
      </trkpt>
      <trkpt lat="47.76319" lon="2.11039">
        <ele>185</ele>
        <time>2015-11-01T09:57:42.034Z</time>
      </trkpt>
      <trkpt lat="47.76314" lon="2.11043">
        <ele>185</ele>
        <time>2015-11-01T09:57:41.091Z</time>
      </trkpt>
      <trkpt lat="47.76309" lon="2.11048">
        <ele>185</ele>
        <time>2015-11-01T09:57:40.035Z</time>
      </trkpt>
      <trkpt lat="47.76305" lon="2.11053">
        <ele>184</ele>
        <time>2015-11-01T09:57:39.067Z</time>
      </trkpt>
      <trkpt lat="47.76301" lon="2.11058">
        <ele>184</ele>
        <time>2015-11-01T09:57:38.034Z</time>
      </trkpt>
      <trkpt lat="47.76297" lon="2.11062">
        <ele>182</ele>
        <time>2015-11-01T09:57:37.215Z</time>
      </trkpt>
      <trkpt lat="47.76293" lon="2.11067">
        <ele>182</ele>
        <time>2015-11-01T09:57:36.033Z</time>
      </trkpt>
      <trkpt lat="47.76289" lon="2.11071">
        <ele>182</ele>
        <time>2015-11-01T09:57:35.068Z</time>
      </trkpt>
      <trkpt lat="47.76285" lon="2.11076">
        <ele>181</ele>
        <time>2015-11-01T09:57:34.034Z</time>
      </trkpt>
      <trkpt lat="47.7628" lon="2.11081">
        <ele>181</ele>
        <time>2015-11-01T09:57:33.071Z</time>
      </trkpt>
      <trkpt lat="47.76275" lon="2.11085">
        <ele>181</ele>
        <time>2015-11-01T09:57:32.033Z</time>
      </trkpt>
      <trkpt lat="47.7627" lon="2.1109">
        <ele>180</ele>
        <time>2015-11-01T09:57:31.067Z</time>
      </trkpt>
      <trkpt lat="47.76266" lon="2.11095">
        <ele>180</ele>
        <time>2015-11-01T09:57:30.032Z</time>
      </trkpt>
      <trkpt lat="47.76261" lon="2.111">
        <ele>179</ele>
        <time>2015-11-01T09:57:29.069Z</time>
      </trkpt>
      <trkpt lat="47.76257" lon="2.11104">
        <ele>179</ele>
        <time>2015-11-01T09:57:28.035Z</time>
      </trkpt>
      <trkpt lat="47.76253" lon="2.11109">
        <ele>178</ele>
        <time>2015-11-01T09:57:27.067Z</time>
      </trkpt>
      <trkpt lat="47.76249" lon="2.11113">
        <ele>177</ele>
        <time>2015-11-01T09:57:26.032Z</time>
      </trkpt>
      <trkpt lat="47.76245" lon="2.11118">
        <ele>177</ele>
        <time>2015-11-01T09:57:25.237Z</time>
      </trkpt>
      <trkpt lat="47.7624" lon="2.11123">
        <ele>176</ele>
        <time>2015-11-01T09:57:24.033Z</time>
      </trkpt>
      <trkpt lat="47.76235" lon="2.11127">
        <ele>176</ele>
        <time>2015-11-01T09:57:23.067Z</time>
      </trkpt>
      <trkpt lat="47.76231" lon="2.11132">
        <ele>176</ele>
        <time>2015-11-01T09:57:22.036Z</time>
      </trkpt>
      <trkpt lat="47.76226" lon="2.11137">
        <ele>176</ele>
        <time>2015-11-01T09:57:21.079Z</time>
      </trkpt>
      <trkpt lat="47.76221" lon="2.11141">
        <ele>176</ele>
        <time>2015-11-01T09:57:20.048Z</time>
      </trkpt>
      <trkpt lat="47.76216" lon="2.11145">
        <ele>176</ele>
        <time>2015-11-01T09:57:19.071Z</time>
      </trkpt>
      <trkpt lat="47.76213" lon="2.1115">
        <ele>177</ele>
        <time>2015-11-01T09:57:18.035Z</time>
      </trkpt>
      <trkpt lat="47.76208" lon="2.11155">
        <ele>177</ele>
        <time>2015-11-01T09:57:17.077Z</time>
      </trkpt>
      <trkpt lat="47.76204" lon="2.11159">
        <ele>177</ele>
        <time>2015-11-01T09:57:16.031Z</time>
      </trkpt>
      <trkpt lat="47.762" lon="2.11163">
        <ele>178</ele>
        <time>2015-11-01T09:57:15.077Z</time>
      </trkpt>
      <trkpt lat="47.76196" lon="2.11168">
        <ele>177</ele>
        <time>2015-11-01T09:57:14.038Z</time>
      </trkpt>
      <trkpt lat="47.76191" lon="2.11173">
        <ele>178</ele>
        <time>2015-11-01T09:57:13.078Z</time>
      </trkpt>
      <trkpt lat="47.76188" lon="2.11178">
        <ele>178</ele>
        <time>2015-11-01T09:57:12.037Z</time>
      </trkpt>
      <trkpt lat="47.76184" lon="2.11182">
        <ele>178</ele>
        <time>2015-11-01T09:57:11.068Z</time>
      </trkpt>
      <trkpt lat="47.76179" lon="2.11186">
        <ele>178</ele>
        <time>2015-11-01T09:57:10.033Z</time>
      </trkpt>
      <trkpt lat="47.76175" lon="2.11191">
        <ele>178</ele>
        <time>2015-11-01T09:57:09.095Z</time>
      </trkpt>
      <trkpt lat="47.76171" lon="2.11194">
        <ele>178</ele>
        <time>2015-11-01T09:57:08.032Z</time>
      </trkpt>
      <trkpt lat="47.76167" lon="2.11198">
        <ele>178</ele>
        <time>2015-11-01T09:57:07.067Z</time>
      </trkpt>
      <trkpt lat="47.76163" lon="2.11203">
        <ele>179</ele>
        <time>2015-11-01T09:57:06.035Z</time>
      </trkpt>
      <trkpt lat="47.76159" lon="2.11207">
        <ele>179</ele>
        <time>2015-11-01T09:57:05.076Z</time>
      </trkpt>
      <trkpt lat="47.76155" lon="2.11211">
        <ele>179</ele>
        <time>2015-11-01T09:57:04.038Z</time>
      </trkpt>
      <trkpt lat="47.76151" lon="2.11215">
        <ele>179</ele>
        <time>2015-11-01T09:57:03.076Z</time>
      </trkpt>
      <trkpt lat="47.76147" lon="2.11219">
        <ele>180</ele>
        <time>2015-11-01T09:57:02.032Z</time>
      </trkpt>
      <trkpt lat="47.76144" lon="2.11222">
        <ele>180</ele>
        <time>2015-11-01T09:57:01.069Z</time>
      </trkpt>
      <trkpt lat="47.7614" lon="2.11226">
        <ele>180</ele>
        <time>2015-11-01T09:57:00.072Z</time>
      </trkpt>
      <trkpt lat="47.76136" lon="2.1123">
        <ele>181</ele>
        <time>2015-11-01T09:56:59.068Z</time>
      </trkpt>
      <trkpt lat="47.76129" lon="2.11239">
        <ele>181</ele>
        <time>2015-11-01T09:56:57.034Z</time>
      </trkpt>
      <trkpt lat="47.76125" lon="2.11243">
        <ele>181</ele>
        <time>2015-11-01T09:56:56.076Z</time>
      </trkpt>
      <trkpt lat="47.76122" lon="2.11247">
        <ele>181</ele>
        <time>2015-11-01T09:56:55.037Z</time>
      </trkpt>
      <trkpt lat="47.76118" lon="2.11252">
        <ele>181</ele>
        <time>2015-11-01T09:56:54.075Z</time>
      </trkpt>
      <trkpt lat="47.76114" lon="2.11256">
        <ele>181</ele>
        <time>2015-11-01T09:56:53.059Z</time>
      </trkpt>
      <trkpt lat="47.7611" lon="2.1126">
        <ele>181</ele>
        <time>2015-11-01T09:56:52.073Z</time>
      </trkpt>
      <trkpt lat="47.76105" lon="2.11268">
        <ele>180</ele>
        <time>2015-11-01T09:56:50.036Z</time>
      </trkpt>
      <trkpt lat="47.76102" lon="2.11271">
        <ele>180</ele>
        <time>2015-11-01T09:56:49.069Z</time>
      </trkpt>
      <trkpt lat="47.76097" lon="2.11276">
        <ele>180</ele>
        <time>2015-11-01T09:56:47.033Z</time>
      </trkpt>
      <trkpt lat="47.76095" lon="2.11278">
        <ele>179</ele>
        <time>2015-11-01T09:56:46.069Z</time>
      </trkpt>
      <trkpt lat="47.76087" lon="2.11277">
        <ele>178</ele>
        <time>2015-11-01T09:56:40.035Z</time>
      </trkpt>
      <trkpt lat="47.76086" lon="2.11276">
        <ele>178</ele>
        <time>2015-11-01T09:56:39.069Z</time>
      </trkpt>
      <trkpt lat="47.76082" lon="2.11268">
        <ele>174</ele>
        <time>2015-11-01T09:54:34.036Z</time>
      </trkpt>
      <trkpt lat="47.76082" lon="2.11268">
        <ele>174</ele>
        <time>2015-11-01T09:54:33.067Z</time>
      </trkpt>
      <trkpt lat="47.76077" lon="2.11266">
        <ele>177</ele>
        <time>2015-11-01T09:52:42.035Z</time>
      </trkpt>
      <trkpt lat="47.76073" lon="2.11261">
        <ele>182</ele>
        <time>2015-11-01T09:52:41.075Z</time>
      </trkpt>
      <trkpt lat="47.76067" lon="2.11256">
        <ele>183</ele>
        <time>2015-11-01T09:52:39.034Z</time>
      </trkpt>
      <trkpt lat="47.76062" lon="2.11254">
        <ele>183</ele>
        <time>2015-11-01T09:52:38.069Z</time>
      </trkpt>
      <trkpt lat="47.76057" lon="2.11252">
        <ele>184</ele>
        <time>2015-11-01T09:52:37.034Z</time>
      </trkpt>
      <trkpt lat="47.7605" lon="2.1125">
        <ele>185</ele>
        <time>2015-11-01T09:52:36.068Z</time>
      </trkpt>
      <trkpt lat="47.76048" lon="2.11249">
        <ele>184</ele>
        <time>2015-11-01T09:52:35.034Z</time>
      </trkpt>
      <trkpt lat="47.76044" lon="2.11249">
        <ele>185</ele>
        <time>2015-11-01T09:52:34.074Z</time>
      </trkpt>
      <trkpt lat="47.76038" lon="2.11246">
        <ele>184</ele>
        <time>2015-11-01T09:52:32.033Z</time>
      </trkpt>
      <trkpt lat="47.76035" lon="2.11245">
        <ele>183</ele>
        <time>2015-11-01T09:52:31.070Z</time>
      </trkpt>
      <trkpt lat="47.76028" lon="2.11246">
        <ele>184</ele>
        <time>2015-11-01T09:52:29.033Z</time>
      </trkpt>
      <trkpt lat="47.76023" lon="2.11243">
        <ele>185</ele>
        <time>2015-11-01T09:52:28.094Z</time>
      </trkpt>
      <trkpt lat="47.76018" lon="2.11242">
        <ele>185</ele>
        <time>2015-11-01T09:52:27.037Z</time>
      </trkpt>
      <trkpt lat="47.76014" lon="2.11241">
        <ele>184</ele>
        <time>2015-11-01T09:52:26.075Z</time>
      </trkpt>
      <trkpt lat="47.76009" lon="2.11239">
        <ele>184</ele>
        <time>2015-11-01T09:52:25.037Z</time>
      </trkpt>
      <trkpt lat="47.76004" lon="2.11237">
        <ele>184</ele>
        <time>2015-11-01T09:52:24.074Z</time>
      </trkpt>
      <trkpt lat="47.75999" lon="2.11235">
        <ele>184</ele>
        <time>2015-11-01T09:52:23.035Z</time>
      </trkpt>
      <trkpt lat="47.75995" lon="2.11235">
        <ele>183</ele>
        <time>2015-11-01T09:52:22.067Z</time>
      </trkpt>
      <trkpt lat="47.75987" lon="2.11235">
        <ele>183</ele>
        <time>2015-11-01T09:52:20.033Z</time>
      </trkpt>
      <trkpt lat="47.75983" lon="2.11234">
        <ele>183</ele>
        <time>2015-11-01T09:52:19.065Z</time>
      </trkpt>
      <trkpt lat="47.75975" lon="2.11233">
        <ele>182</ele>
        <time>2015-11-01T09:52:17.035Z</time>
      </trkpt>
      <trkpt lat="47.7597" lon="2.11231">
        <ele>183</ele>
        <time>2015-11-01T09:52:16.073Z</time>
      </trkpt>
      <trkpt lat="47.75964" lon="2.11229">
        <ele>183</ele>
        <time>2015-11-01T09:52:15.033Z</time>
      </trkpt>
      <trkpt lat="47.7596" lon="2.11228">
        <ele>184</ele>
        <time>2015-11-01T09:52:14.068Z</time>
      </trkpt>
      <trkpt lat="47.75954" lon="2.11226">
        <ele>184</ele>
        <time>2015-11-01T09:52:13.033Z</time>
      </trkpt>
      <trkpt lat="47.75949" lon="2.11225">
        <ele>183</ele>
        <time>2015-11-01T09:52:12.093Z</time>
      </trkpt>
      <trkpt lat="47.75944" lon="2.11223">
        <ele>183</ele>
        <time>2015-11-01T09:52:11.036Z</time>
      </trkpt>
      <trkpt lat="47.75938" lon="2.11223">
        <ele>184</ele>
        <time>2015-11-01T09:52:10.067Z</time>
      </trkpt>
      <trkpt lat="47.75933" lon="2.11221">
        <ele>184</ele>
        <time>2015-11-01T09:52:09.033Z</time>
      </trkpt>
      <trkpt lat="47.75927" lon="2.1122">
        <ele>183</ele>
        <time>2015-11-01T09:52:08.068Z</time>
      </trkpt>
      <trkpt lat="47.75922" lon="2.11218">
        <ele>183</ele>
        <time>2015-11-01T09:52:07.032Z</time>
      </trkpt>
      <trkpt lat="47.75916" lon="2.11216">
        <ele>183</ele>
        <time>2015-11-01T09:52:06.067Z</time>
      </trkpt>
      <trkpt lat="47.7591" lon="2.11213">
        <ele>183</ele>
        <time>2015-11-01T09:52:05.031Z</time>
      </trkpt>
      <trkpt lat="47.75903" lon="2.11211">
        <ele>182</ele>
        <time>2015-11-01T09:52:04.066Z</time>
      </trkpt>
      <trkpt lat="47.75896" lon="2.11208">
        <ele>182</ele>
        <time>2015-11-01T09:52:03.031Z</time>
      </trkpt>
      <trkpt lat="47.75889" lon="2.11205">
        <ele>182</ele>
        <time>2015-11-01T09:52:02.068Z</time>
      </trkpt>
      <trkpt lat="47.75882" lon="2.11204">
        <ele>182</ele>
        <time>2015-11-01T09:52:01.034Z</time>
      </trkpt>
      <trkpt lat="47.75874" lon="2.11201">
        <ele>182</ele>
        <time>2015-11-01T09:52:00.100Z</time>
      </trkpt>
      <trkpt lat="47.75868" lon="2.112">
        <ele>182</ele>
        <time>2015-11-01T09:51:59.034Z</time>
      </trkpt>
      <trkpt lat="47.75861" lon="2.11198">
        <ele>182</ele>
        <time>2015-11-01T09:51:58.069Z</time>
      </trkpt>
      <trkpt lat="47.75856" lon="2.11196">
        <ele>182</ele>
        <time>2015-11-01T09:51:57.034Z</time>
      </trkpt>
      <trkpt lat="47.75851" lon="2.11195">
        <ele>182</ele>
        <time>2015-11-01T09:51:56.093Z</time>
      </trkpt>
      <trkpt lat="47.75845" lon="2.11193">
        <ele>182</ele>
        <time>2015-11-01T09:51:55.032Z</time>
      </trkpt>
      <trkpt lat="47.75839" lon="2.11192">
        <ele>182</ele>
        <time>2015-11-01T09:51:54.067Z</time>
      </trkpt>
      <trkpt lat="47.75832" lon="2.1119">
        <ele>183</ele>
        <time>2015-11-01T09:51:53.034Z</time>
      </trkpt>
      <trkpt lat="47.75825" lon="2.11185">
        <ele>184</ele>
        <time>2015-11-01T09:51:52.068Z</time>
      </trkpt>
      <trkpt lat="47.75818" lon="2.11182">
        <ele>183</ele>
        <time>2015-11-01T09:51:51.034Z</time>
      </trkpt>
      <trkpt lat="47.75811" lon="2.11179">
        <ele>183</ele>
        <time>2015-11-01T09:51:50.069Z</time>
      </trkpt>
      <trkpt lat="47.75804" lon="2.11177">
        <ele>183</ele>
        <time>2015-11-01T09:51:49.032Z</time>
      </trkpt>
      <trkpt lat="47.75795" lon="2.11174">
        <ele>184</ele>
        <time>2015-11-01T09:51:48.067Z</time>
      </trkpt>
      <trkpt lat="47.75787" lon="2.11172">
        <ele>184</ele>
        <time>2015-11-01T09:51:47.032Z</time>
      </trkpt>
      <trkpt lat="47.75779" lon="2.11169">
        <ele>183</ele>
        <time>2015-11-01T09:51:46.067Z</time>
      </trkpt>
      <trkpt lat="47.75771" lon="2.11166">
        <ele>183</ele>
        <time>2015-11-01T09:51:45.033Z</time>
      </trkpt>
      <trkpt lat="47.75762" lon="2.11164">
        <ele>184</ele>
        <time>2015-11-01T09:51:44.220Z</time>
      </trkpt>
      <trkpt lat="47.75762" lon="2.11164">
        <ele>184</ele>
        <time>2015-11-01T09:51:44.031Z</time>
      </trkpt>
      <trkpt lat="47.75752" lon="2.1116">
        <ele>184</ele>
        <time>2015-11-01T09:51:43.095Z</time>
      </trkpt>
      <trkpt lat="47.75752" lon="2.1116">
        <ele>184</ele>
        <time>2015-11-01T09:51:43.033Z</time>
      </trkpt>
      <trkpt lat="47.75743" lon="2.11157">
        <ele>184</ele>
        <time>2015-11-01T09:51:42.093Z</time>
      </trkpt>
      <trkpt lat="47.75743" lon="2.11157">
        <ele>184</ele>
        <time>2015-11-01T09:51:42.032Z</time>
      </trkpt>
      <trkpt lat="47.75734" lon="2.11154">
        <ele>185</ele>
        <time>2015-11-01T09:51:41.095Z</time>
      </trkpt>
      <trkpt lat="47.75734" lon="2.11154">
        <ele>185</ele>
        <time>2015-11-01T09:51:41.032Z</time>
      </trkpt>
      <trkpt lat="47.75725" lon="2.1115">
        <ele>185</ele>
        <time>2015-11-01T09:51:40.113Z</time>
      </trkpt>
      <trkpt lat="47.75725" lon="2.1115">
        <ele>185</ele>
        <time>2015-11-01T09:51:40.029Z</time>
      </trkpt>
      <trkpt lat="47.75716" lon="2.11147">
        <ele>185</ele>
        <time>2015-11-01T09:51:39.100Z</time>
      </trkpt>
      <trkpt lat="47.75716" lon="2.11147">
        <ele>185</ele>
        <time>2015-11-01T09:51:39.034Z</time>
      </trkpt>
      <trkpt lat="47.75706" lon="2.11145">
        <ele>186</ele>
        <time>2015-11-01T09:51:38.093Z</time>
      </trkpt>
      <trkpt lat="47.75706" lon="2.11145">
        <ele>186</ele>
        <time>2015-11-01T09:51:38.034Z</time>
      </trkpt>
      <trkpt lat="47.75697" lon="2.11142">
        <ele>186</ele>
        <time>2015-11-01T09:51:37.093Z</time>
      </trkpt>
      <trkpt lat="47.75697" lon="2.11142">
        <ele>186</ele>
        <time>2015-11-01T09:51:37.032Z</time>
      </trkpt>
      <trkpt lat="47.75688" lon="2.11139">
        <ele>186</ele>
        <time>2015-11-01T09:51:36.110Z</time>
      </trkpt>
      <trkpt lat="47.75688" lon="2.11139">
        <ele>186</ele>
        <time>2015-11-01T09:51:36.033Z</time>
      </trkpt>
      <trkpt lat="47.75679" lon="2.11136">
        <ele>186</ele>
        <time>2015-11-01T09:51:35.128Z</time>
      </trkpt>
      <trkpt lat="47.75679" lon="2.11136">
        <ele>186</ele>
        <time>2015-11-01T09:51:35.033Z</time>
      </trkpt>
      <trkpt lat="47.7567" lon="2.11133">
        <ele>185</ele>
        <time>2015-11-01T09:51:34.092Z</time>
      </trkpt>
      <trkpt lat="47.7567" lon="2.11133">
        <ele>185</ele>
        <time>2015-11-01T09:51:34.033Z</time>
      </trkpt>
      <trkpt lat="47.75661" lon="2.1113">
        <ele>185</ele>
        <time>2015-11-01T09:51:33.095Z</time>
      </trkpt>
      <trkpt lat="47.75661" lon="2.1113">
        <ele>185</ele>
        <time>2015-11-01T09:51:33.034Z</time>
      </trkpt>
      <trkpt lat="47.75652" lon="2.11126">
        <ele>186</ele>
        <time>2015-11-01T09:51:32.076Z</time>
      </trkpt>
      <trkpt lat="47.75652" lon="2.11126">
        <ele>186</ele>
        <time>2015-11-01T09:51:32.034Z</time>
      </trkpt>
      <trkpt lat="47.75644" lon="2.11123">
        <ele>186</ele>
        <time>2015-11-01T09:51:31.093Z</time>
      </trkpt>
      <trkpt lat="47.75644" lon="2.11123">
        <ele>186</ele>
        <time>2015-11-01T09:51:31.032Z</time>
      </trkpt>
      <trkpt lat="47.75635" lon="2.1112">
        <ele>186</ele>
        <time>2015-11-01T09:51:30.093Z</time>
      </trkpt>
      <trkpt lat="47.75635" lon="2.1112">
        <ele>186</ele>
        <time>2015-11-01T09:51:30.033Z</time>
      </trkpt>
      <trkpt lat="47.75626" lon="2.11117">
        <ele>186</ele>
        <time>2015-11-01T09:51:29.095Z</time>
      </trkpt>
      <trkpt lat="47.75626" lon="2.11117">
        <ele>186</ele>
        <time>2015-11-01T09:51:29.032Z</time>
      </trkpt>
      <trkpt lat="47.75616" lon="2.11114">
        <ele>186</ele>
        <time>2015-11-01T09:51:28.095Z</time>
      </trkpt>
      <trkpt lat="47.75616" lon="2.11114">
        <ele>186</ele>
        <time>2015-11-01T09:51:28.032Z</time>
      </trkpt>
      <trkpt lat="47.75607" lon="2.11111">
        <ele>186</ele>
        <time>2015-11-01T09:51:27.095Z</time>
      </trkpt>
      <trkpt lat="47.75607" lon="2.11111">
        <ele>186</ele>
        <time>2015-11-01T09:51:27.033Z</time>
      </trkpt>
      <trkpt lat="47.75598" lon="2.11108">
        <ele>187</ele>
        <time>2015-11-01T09:51:26.140Z</time>
      </trkpt>
      <trkpt lat="47.75598" lon="2.11108">
        <ele>187</ele>
        <time>2015-11-01T09:51:26.033Z</time>
      </trkpt>
      <trkpt lat="47.75588" lon="2.11105">
        <ele>188</ele>
        <time>2015-11-01T09:51:25.092Z</time>
      </trkpt>
      <trkpt lat="47.75588" lon="2.11105">
        <ele>188</ele>
        <time>2015-11-01T09:51:25.032Z</time>
      </trkpt>
      <trkpt lat="47.75579" lon="2.11102">
        <ele>188</ele>
        <time>2015-11-01T09:51:24.151Z</time>
      </trkpt>
      <trkpt lat="47.75579" lon="2.11102">
        <ele>188</ele>
        <time>2015-11-01T09:51:24.034Z</time>
      </trkpt>
      <trkpt lat="47.7557" lon="2.11098">
        <ele>189</ele>
        <time>2015-11-01T09:51:23.094Z</time>
      </trkpt>
      <trkpt lat="47.7557" lon="2.11098">
        <ele>189</ele>
        <time>2015-11-01T09:51:23.032Z</time>
      </trkpt>
      <trkpt lat="47.75561" lon="2.11095">
        <ele>190</ele>
        <time>2015-11-01T09:51:22.095Z</time>
      </trkpt>
      <trkpt lat="47.75561" lon="2.11095">
        <ele>190</ele>
        <time>2015-11-01T09:51:22.033Z</time>
      </trkpt>
      <trkpt lat="47.75552" lon="2.11092">
        <ele>190</ele>
        <time>2015-11-01T09:51:21.099Z</time>
      </trkpt>
      <trkpt lat="47.75552" lon="2.11092">
        <ele>190</ele>
        <time>2015-11-01T09:51:21.034Z</time>
      </trkpt>
      <trkpt lat="47.75542" lon="2.11089">
        <ele>190</ele>
        <time>2015-11-01T09:51:20.069Z</time>
      </trkpt>
      <trkpt lat="47.75534" lon="2.11087">
        <ele>189</ele>
        <time>2015-11-01T09:51:19.035Z</time>
      </trkpt>
      <trkpt lat="47.75525" lon="2.11084">
        <ele>188</ele>
        <time>2015-11-01T09:51:18.075Z</time>
      </trkpt>
      <trkpt lat="47.75517" lon="2.11081">
        <ele>187</ele>
        <time>2015-11-01T09:51:17.035Z</time>
      </trkpt>
      <trkpt lat="47.75507" lon="2.11077">
        <ele>188</ele>
        <time>2015-11-01T09:51:16.074Z</time>
      </trkpt>
      <trkpt lat="47.75499" lon="2.11073">
        <ele>188</ele>
        <time>2015-11-01T09:51:15.031Z</time>
      </trkpt>
      <trkpt lat="47.75491" lon="2.11069">
        <ele>188</ele>
        <time>2015-11-01T09:51:14.242Z</time>
      </trkpt>
      <trkpt lat="47.75483" lon="2.11067">
        <ele>188</ele>
        <time>2015-11-01T09:51:13.035Z</time>
      </trkpt>
      <trkpt lat="47.75475" lon="2.11065">
        <ele>188</ele>
        <time>2015-11-01T09:51:12.067Z</time>
      </trkpt>
      <trkpt lat="47.75467" lon="2.11063">
        <ele>190</ele>
        <time>2015-11-01T09:51:11.032Z</time>
      </trkpt>
      <trkpt lat="47.75461" lon="2.1106">
        <ele>190</ele>
        <time>2015-11-01T09:51:10.074Z</time>
      </trkpt>
      <trkpt lat="47.75455" lon="2.11058">
        <ele>190</ele>
        <time>2015-11-01T09:51:09.037Z</time>
      </trkpt>
      <trkpt lat="47.75449" lon="2.11056">
        <ele>189</ele>
        <time>2015-11-01T09:51:08.065Z</time>
      </trkpt>
      <trkpt lat="47.75443" lon="2.11054">
        <ele>188</ele>
        <time>2015-11-01T09:51:07.033Z</time>
      </trkpt>
      <trkpt lat="47.75438" lon="2.11054">
        <ele>187</ele>
        <time>2015-11-01T09:51:06.066Z</time>
      </trkpt>
      <trkpt lat="47.75432" lon="2.11051">
        <ele>188</ele>
        <time>2015-11-01T09:51:05.033Z</time>
      </trkpt>
      <trkpt lat="47.75425" lon="2.11048">
        <ele>188</ele>
        <time>2015-11-01T09:51:04.070Z</time>
      </trkpt>
      <trkpt lat="47.7542" lon="2.11047">
        <ele>187</ele>
        <time>2015-11-01T09:51:03.045Z</time>
      </trkpt>
      <trkpt lat="47.75413" lon="2.11045">
        <ele>187</ele>
        <time>2015-11-01T09:51:02.074Z</time>
      </trkpt>
      <trkpt lat="47.75408" lon="2.11043">
        <ele>187</ele>
        <time>2015-11-01T09:51:01.035Z</time>
      </trkpt>
      <trkpt lat="47.75403" lon="2.11041">
        <ele>187</ele>
        <time>2015-11-01T09:51:00.109Z</time>
      </trkpt>
      <trkpt lat="47.75398" lon="2.11039">
        <ele>187</ele>
        <time>2015-11-01T09:50:59.034Z</time>
      </trkpt>
      <trkpt lat="47.75393" lon="2.11038">
        <ele>186</ele>
        <time>2015-11-01T09:50:58.094Z</time>
      </trkpt>
      <trkpt lat="47.75387" lon="2.11036">
        <ele>187</ele>
        <time>2015-11-01T09:50:57.038Z</time>
      </trkpt>
      <trkpt lat="47.7538" lon="2.11033">
        <ele>188</ele>
        <time>2015-11-01T09:50:56.074Z</time>
      </trkpt>
      <trkpt lat="47.75375" lon="2.11031">
        <ele>188</ele>
        <time>2015-11-01T09:50:55.034Z</time>
      </trkpt>
      <trkpt lat="47.7537" lon="2.1103">
        <ele>189</ele>
        <time>2015-11-01T09:50:54.068Z</time>
      </trkpt>
      <trkpt lat="47.75365" lon="2.11028">
        <ele>189</ele>
        <time>2015-11-01T09:50:53.034Z</time>
      </trkpt>
      <trkpt lat="47.75359" lon="2.11025">
        <ele>189</ele>
        <time>2015-11-01T09:50:52.070Z</time>
      </trkpt>
      <trkpt lat="47.75353" lon="2.11024">
        <ele>189</ele>
        <time>2015-11-01T09:50:51.035Z</time>
      </trkpt>
      <trkpt lat="47.75348" lon="2.11022">
        <ele>190</ele>
        <time>2015-11-01T09:50:50.069Z</time>
      </trkpt>
      <trkpt lat="47.75343" lon="2.1102">
        <ele>190</ele>
        <time>2015-11-01T09:50:49.035Z</time>
      </trkpt>
      <trkpt lat="47.75338" lon="2.1102">
        <ele>190</ele>
        <time>2015-11-01T09:50:48.067Z</time>
      </trkpt>
      <trkpt lat="47.75333" lon="2.11019">
        <ele>190</ele>
        <time>2015-11-01T09:50:47.032Z</time>
      </trkpt>
      <trkpt lat="47.75328" lon="2.11019">
        <ele>190</ele>
        <time>2015-11-01T09:50:46.067Z</time>
      </trkpt>
      <trkpt lat="47.75322" lon="2.11017">
        <ele>191</ele>
        <time>2015-11-01T09:50:45.032Z</time>
      </trkpt>
      <trkpt lat="47.75315" lon="2.11014">
        <ele>192</ele>
        <time>2015-11-01T09:50:44.067Z</time>
      </trkpt>
      <trkpt lat="47.75309" lon="2.11012">
        <ele>192</ele>
        <time>2015-11-01T09:50:43.031Z</time>
      </trkpt>
      <trkpt lat="47.75303" lon="2.1101">
        <ele>192</ele>
        <time>2015-11-01T09:50:42.092Z</time>
      </trkpt>
      <trkpt lat="47.75297" lon="2.11007">
        <ele>193</ele>
        <time>2015-11-01T09:50:41.034Z</time>
      </trkpt>
      <trkpt lat="47.75292" lon="2.11005">
        <ele>192</ele>
        <time>2015-11-01T09:50:40.093Z</time>
      </trkpt>
      <trkpt lat="47.75286" lon="2.11003">
        <ele>191</ele>
        <time>2015-11-01T09:50:39.032Z</time>
      </trkpt>
      <trkpt lat="47.75282" lon="2.11001">
        <ele>191</ele>
        <time>2015-11-01T09:50:38.068Z</time>
      </trkpt>
      <trkpt lat="47.75275" lon="2.10999">
        <ele>190</ele>
        <time>2015-11-01T09:50:37.037Z</time>
      </trkpt>
      <trkpt lat="47.75269" lon="2.10997">
        <ele>190</ele>
        <time>2015-11-01T09:50:36.069Z</time>
      </trkpt>
      <trkpt lat="47.75263" lon="2.10995">
        <ele>190</ele>
        <time>2015-11-01T09:50:35.048Z</time>
      </trkpt>
      <trkpt lat="47.75257" lon="2.10992">
        <ele>191</ele>
        <time>2015-11-01T09:50:34.068Z</time>
      </trkpt>
      <trkpt lat="47.75251" lon="2.10989">
        <ele>192</ele>
        <time>2015-11-01T09:50:33.033Z</time>
      </trkpt>
      <trkpt lat="47.75244" lon="2.10987">
        <ele>191</ele>
        <time>2015-11-01T09:50:32.068Z</time>
      </trkpt>
      <trkpt lat="47.75239" lon="2.10985">
        <ele>190</ele>
        <time>2015-11-01T09:50:31.033Z</time>
      </trkpt>
      <trkpt lat="47.75233" lon="2.10983">
        <ele>189</ele>
        <time>2015-11-01T09:50:30.069Z</time>
      </trkpt>
      <trkpt lat="47.75226" lon="2.1098">
        <ele>189</ele>
        <time>2015-11-01T09:50:29.035Z</time>
      </trkpt>
      <trkpt lat="47.75219" lon="2.10978">
        <ele>190</ele>
        <time>2015-11-01T09:50:28.070Z</time>
      </trkpt>
      <trkpt lat="47.75213" lon="2.10976">
        <ele>190</ele>
        <time>2015-11-01T09:50:27.034Z</time>
      </trkpt>
      <trkpt lat="47.75206" lon="2.10976">
        <ele>190</ele>
        <time>2015-11-01T09:50:26.091Z</time>
      </trkpt>
      <trkpt lat="47.752" lon="2.10974">
        <ele>190</ele>
        <time>2015-11-01T09:50:25.034Z</time>
      </trkpt>
      <trkpt lat="47.75193" lon="2.10971">
        <ele>190</ele>
        <time>2015-11-01T09:50:24.224Z</time>
      </trkpt>
      <trkpt lat="47.75186" lon="2.10969">
        <ele>190</ele>
        <time>2015-11-01T09:50:23.034Z</time>
      </trkpt>
      <trkpt lat="47.7518" lon="2.10966">
        <ele>192</ele>
        <time>2015-11-01T09:50:22.069Z</time>
      </trkpt>
      <trkpt lat="47.75173" lon="2.10964">
        <ele>193</ele>
        <time>2015-11-01T09:50:21.035Z</time>
      </trkpt>
      <trkpt lat="47.75167" lon="2.10963">
        <ele>193</ele>
        <time>2015-11-01T09:50:20.070Z</time>
      </trkpt>
      <trkpt lat="47.75162" lon="2.10961">
        <ele>194</ele>
        <time>2015-11-01T09:50:19.033Z</time>
      </trkpt>
      <trkpt lat="47.75156" lon="2.1096">
        <ele>194</ele>
        <time>2015-11-01T09:50:18.066Z</time>
      </trkpt>
      <trkpt lat="47.7515" lon="2.10959">
        <ele>195</ele>
        <time>2015-11-01T09:50:17.035Z</time>
      </trkpt>
      <trkpt lat="47.75145" lon="2.10958">
        <ele>194</ele>
        <time>2015-11-01T09:50:16.068Z</time>
      </trkpt>
      <trkpt lat="47.7514" lon="2.10958">
        <ele>193</ele>
        <time>2015-11-01T09:50:15.034Z</time>
      </trkpt>
      <trkpt lat="47.75135" lon="2.10958">
        <ele>193</ele>
        <time>2015-11-01T09:50:14.068Z</time>
      </trkpt>
      <trkpt lat="47.75129" lon="2.10958">
        <ele>193</ele>
        <time>2015-11-01T09:50:13.033Z</time>
      </trkpt>
      <trkpt lat="47.75124" lon="2.10957">
        <ele>193</ele>
        <time>2015-11-01T09:50:12.066Z</time>
      </trkpt>
      <trkpt lat="47.75119" lon="2.10957">
        <ele>193</ele>
        <time>2015-11-01T09:50:11.029Z</time>
      </trkpt>
      <trkpt lat="47.75113" lon="2.10957">
        <ele>192</ele>
        <time>2015-11-01T09:50:10.150Z</time>
      </trkpt>
      <trkpt lat="47.75108" lon="2.10957">
        <ele>191</ele>
        <time>2015-11-01T09:50:09.031Z</time>
      </trkpt>
      <trkpt lat="47.75102" lon="2.10957">
        <ele>191</ele>
        <time>2015-11-01T09:50:08.069Z</time>
      </trkpt>
      <trkpt lat="47.75096" lon="2.10956">
        <ele>190</ele>
        <time>2015-11-01T09:50:07.031Z</time>
      </trkpt>
      <trkpt lat="47.75091" lon="2.10957">
        <ele>189</ele>
        <time>2015-11-01T09:50:06.060Z</time>
      </trkpt>
      <trkpt lat="47.75085" lon="2.10957">
        <ele>188</ele>
        <time>2015-11-01T09:50:05.041Z</time>
      </trkpt>
      <trkpt lat="47.7508" lon="2.10958">
        <ele>187</ele>
        <time>2015-11-01T09:50:04.061Z</time>
      </trkpt>
      <trkpt lat="47.75074" lon="2.10958">
        <ele>187</ele>
        <time>2015-11-01T09:50:03.033Z</time>
      </trkpt>
      <trkpt lat="47.75067" lon="2.10958">
        <ele>189</ele>
        <time>2015-11-01T09:50:02.053Z</time>
      </trkpt>
      <trkpt lat="47.75061" lon="2.10957">
        <ele>189</ele>
        <time>2015-11-01T09:50:01.036Z</time>
      </trkpt>
      <trkpt lat="47.75055" lon="2.10957">
        <ele>190</ele>
        <time>2015-11-01T09:50:00.104Z</time>
      </trkpt>
      <trkpt lat="47.75049" lon="2.10957">
        <ele>190</ele>
        <time>2015-11-01T09:49:59.030Z</time>
      </trkpt>
      <trkpt lat="47.75043" lon="2.10956">
        <ele>191</ele>
        <time>2015-11-01T09:49:58.069Z</time>
      </trkpt>
      <trkpt lat="47.75037" lon="2.10956">
        <ele>190</ele>
        <time>2015-11-01T09:49:57.041Z</time>
      </trkpt>
      <trkpt lat="47.75031" lon="2.10956">
        <ele>190</ele>
        <time>2015-11-01T09:49:56.053Z</time>
      </trkpt>
      <trkpt lat="47.75025" lon="2.10955">
        <ele>191</ele>
        <time>2015-11-01T09:49:55.034Z</time>
      </trkpt>
      <trkpt lat="47.75019" lon="2.10954">
        <ele>191</ele>
        <time>2015-11-01T09:49:54.086Z</time>
      </trkpt>
      <trkpt lat="47.75013" lon="2.10953">
        <ele>192</ele>
        <time>2015-11-01T09:49:53.032Z</time>
      </trkpt>
      <trkpt lat="47.75007" lon="2.10952">
        <ele>193</ele>
        <time>2015-11-01T09:49:52.066Z</time>
      </trkpt>
      <trkpt lat="47.75001" lon="2.10952">
        <ele>192</ele>
        <time>2015-11-01T09:49:51.031Z</time>
      </trkpt>
      <trkpt lat="47.74995" lon="2.10951">
        <ele>193</ele>
        <time>2015-11-01T09:49:50.094Z</time>
      </trkpt>
      <trkpt lat="47.74989" lon="2.1095">
        <ele>193</ele>
        <time>2015-11-01T09:49:49.036Z</time>
      </trkpt>
      <trkpt lat="47.74982" lon="2.10948">
        <ele>195</ele>
        <time>2015-11-01T09:49:48.070Z</time>
      </trkpt>
      <trkpt lat="47.74977" lon="2.10948">
        <ele>194</ele>
        <time>2015-11-01T09:49:47.033Z</time>
      </trkpt>
      <trkpt lat="47.74971" lon="2.10948">
        <ele>195</ele>
        <time>2015-11-01T09:49:46.066Z</time>
      </trkpt>
      <trkpt lat="47.74965" lon="2.10947">
        <ele>194</ele>
        <time>2015-11-01T09:49:45.060Z</time>
      </trkpt>
      <trkpt lat="47.74959" lon="2.10946">
        <ele>194</ele>
        <time>2015-11-01T09:49:44.066Z</time>
      </trkpt>
      <trkpt lat="47.74954" lon="2.10946">
        <ele>192</ele>
        <time>2015-11-01T09:49:43.033Z</time>
      </trkpt>
      <trkpt lat="47.74948" lon="2.10945">
        <ele>192</ele>
        <time>2015-11-01T09:49:42.067Z</time>
      </trkpt>
      <trkpt lat="47.74941" lon="2.10945">
        <ele>192</ele>
        <time>2015-11-01T09:49:41.033Z</time>
      </trkpt>
      <trkpt lat="47.74936" lon="2.10944">
        <ele>191</ele>
        <time>2015-11-01T09:49:40.060Z</time>
      </trkpt>
      <trkpt lat="47.74929" lon="2.10943">
        <ele>192</ele>
        <time>2015-11-01T09:49:39.032Z</time>
      </trkpt>
      <trkpt lat="47.74924" lon="2.10942">
        <ele>192</ele>
        <time>2015-11-01T09:49:38.092Z</time>
      </trkpt>
      <trkpt lat="47.74918" lon="2.10942">
        <ele>191</ele>
        <time>2015-11-01T09:49:37.031Z</time>
      </trkpt>
      <trkpt lat="47.74912" lon="2.1094">
        <ele>191</ele>
        <time>2015-11-01T09:49:36.069Z</time>
      </trkpt>
      <trkpt lat="47.74907" lon="2.1094">
        <ele>191</ele>
        <time>2015-11-01T09:49:35.029Z</time>
      </trkpt>
      <trkpt lat="47.74901" lon="2.10939">
        <ele>191</ele>
        <time>2015-11-01T09:49:34.059Z</time>
      </trkpt>
      <trkpt lat="47.74896" lon="2.10938">
        <ele>190</ele>
        <time>2015-11-01T09:49:33.031Z</time>
      </trkpt>
      <trkpt lat="47.7489" lon="2.10937">
        <ele>191</ele>
        <time>2015-11-01T09:49:32.062Z</time>
      </trkpt>
      <trkpt lat="47.74884" lon="2.10937">
        <ele>190</ele>
        <time>2015-11-01T09:49:31.033Z</time>
      </trkpt>
      <trkpt lat="47.74879" lon="2.10937">
        <ele>190</ele>
        <time>2015-11-01T09:49:30.065Z</time>
      </trkpt>
      <trkpt lat="47.74873" lon="2.10935">
        <ele>189</ele>
        <time>2015-11-01T09:49:29.036Z</time>
      </trkpt>
      <trkpt lat="47.74867" lon="2.10934">
        <ele>190</ele>
        <time>2015-11-01T09:49:28.071Z</time>
      </trkpt>
      <trkpt lat="47.74861" lon="2.10933">
        <ele>190</ele>
        <time>2015-11-01T09:49:27.032Z</time>
      </trkpt>
      <trkpt lat="47.74855" lon="2.10931">
        <ele>190</ele>
        <time>2015-11-01T09:49:26.070Z</time>
      </trkpt>
      <trkpt lat="47.74848" lon="2.10931">
        <ele>190</ele>
        <time>2015-11-01T09:49:25.035Z</time>
      </trkpt>
      <trkpt lat="47.74843" lon="2.10932">
        <ele>190</ele>
        <time>2015-11-01T09:49:24.071Z</time>
      </trkpt>
      <trkpt lat="47.74837" lon="2.10931">
        <ele>189</ele>
        <time>2015-11-01T09:49:23.035Z</time>
      </trkpt>
      <trkpt lat="47.74831" lon="2.10931">
        <ele>190</ele>
        <time>2015-11-01T09:49:22.241Z</time>
      </trkpt>
      <trkpt lat="47.74825" lon="2.1093">
        <ele>191</ele>
        <time>2015-11-01T09:49:21.034Z</time>
      </trkpt>
      <trkpt lat="47.74819" lon="2.10929">
        <ele>191</ele>
        <time>2015-11-01T09:49:20.072Z</time>
      </trkpt>
      <trkpt lat="47.74813" lon="2.10927">
        <ele>191</ele>
        <time>2015-11-01T09:49:19.034Z</time>
      </trkpt>
      <trkpt lat="47.74807" lon="2.10926">
        <ele>191</ele>
        <time>2015-11-01T09:49:18.067Z</time>
      </trkpt>
      <trkpt lat="47.748" lon="2.10925">
        <ele>191</ele>
        <time>2015-11-01T09:49:17.033Z</time>
      </trkpt>
      <trkpt lat="47.74795" lon="2.10923">
        <ele>191</ele>
        <time>2015-11-01T09:49:16.067Z</time>
      </trkpt>
      <trkpt lat="47.7479" lon="2.10922">
        <ele>190</ele>
        <time>2015-11-01T09:49:15.034Z</time>
      </trkpt>
      <trkpt lat="47.74784" lon="2.1092">
        <ele>189</ele>
        <time>2015-11-01T09:49:14.065Z</time>
      </trkpt>
      <trkpt lat="47.74779" lon="2.10917">
        <ele>188</ele>
        <time>2015-11-01T09:49:13.031Z</time>
      </trkpt>
      <trkpt lat="47.74774" lon="2.10915">
        <ele>188</ele>
        <time>2015-11-01T09:49:12.071Z</time>
      </trkpt>
      <trkpt lat="47.74768" lon="2.10913">
        <ele>188</ele>
        <time>2015-11-01T09:49:11.037Z</time>
      </trkpt>
      <trkpt lat="47.74762" lon="2.10909">
        <ele>188</ele>
        <time>2015-11-01T09:49:10.072Z</time>
      </trkpt>
      <trkpt lat="47.74757" lon="2.10908">
        <ele>188</ele>
        <time>2015-11-01T09:49:09.040Z</time>
      </trkpt>
      <trkpt lat="47.74752" lon="2.10907">
        <ele>186</ele>
        <time>2015-11-01T09:49:08.053Z</time>
      </trkpt>
      <trkpt lat="47.74747" lon="2.10905">
        <ele>186</ele>
        <time>2015-11-01T09:49:07.036Z</time>
      </trkpt>
      <trkpt lat="47.74741" lon="2.10902">
        <ele>186</ele>
        <time>2015-11-01T09:49:06.203Z</time>
      </trkpt>
      <trkpt lat="47.74737" lon="2.10902">
        <ele>187</ele>
        <time>2015-11-01T09:49:05.030Z</time>
      </trkpt>
      <trkpt lat="47.74731" lon="2.10898">
        <ele>187</ele>
        <time>2015-11-01T09:49:04.064Z</time>
      </trkpt>
      <trkpt lat="47.74727" lon="2.10896">
        <ele>187</ele>
        <time>2015-11-01T09:49:03.035Z</time>
      </trkpt>
      <trkpt lat="47.74722" lon="2.10895">
        <ele>186</ele>
        <time>2015-11-01T09:49:02.070Z</time>
      </trkpt>
      <trkpt lat="47.74716" lon="2.10893">
        <ele>186</ele>
        <time>2015-11-01T09:49:01.035Z</time>
      </trkpt>
      <trkpt lat="47.74712" lon="2.10892">
        <ele>186</ele>
        <time>2015-11-01T09:49:00.105Z</time>
      </trkpt>
      <trkpt lat="47.74707" lon="2.10889">
        <ele>185</ele>
        <time>2015-11-01T09:48:59.037Z</time>
      </trkpt>
      <trkpt lat="47.74701" lon="2.10887">
        <ele>184</ele>
        <time>2015-11-01T09:48:58.226Z</time>
      </trkpt>
      <trkpt lat="47.74696" lon="2.10884">
        <ele>184</ele>
        <time>2015-11-01T09:48:57.036Z</time>
      </trkpt>
      <trkpt lat="47.74691" lon="2.10883">
        <ele>184</ele>
        <time>2015-11-01T09:48:56.100Z</time>
      </trkpt>
      <trkpt lat="47.74686" lon="2.1088">
        <ele>184</ele>
        <time>2015-11-01T09:48:55.031Z</time>
      </trkpt>
      <trkpt lat="47.7468" lon="2.10877">
        <ele>184</ele>
        <time>2015-11-01T09:48:54.072Z</time>
      </trkpt>
      <trkpt lat="47.74675" lon="2.10875">
        <ele>184</ele>
        <time>2015-11-01T09:48:53.033Z</time>
      </trkpt>
      <trkpt lat="47.74669" lon="2.10872">
        <ele>184</ele>
        <time>2015-11-01T09:48:52.070Z</time>
      </trkpt>
      <trkpt lat="47.74663" lon="2.10869">
        <ele>185</ele>
        <time>2015-11-01T09:48:51.032Z</time>
      </trkpt>
      <trkpt lat="47.74658" lon="2.10868">
        <ele>185</ele>
        <time>2015-11-01T09:48:50.071Z</time>
      </trkpt>
      <trkpt lat="47.74653" lon="2.10866">
        <ele>184</ele>
        <time>2015-11-01T09:48:49.034Z</time>
      </trkpt>
      <trkpt lat="47.74647" lon="2.10863">
        <ele>185</ele>
        <time>2015-11-01T09:48:48.070Z</time>
      </trkpt>
      <trkpt lat="47.74641" lon="2.10861">
        <ele>185</ele>
        <time>2015-11-01T09:48:47.033Z</time>
      </trkpt>
      <trkpt lat="47.74636" lon="2.10859">
        <ele>184</ele>
        <time>2015-11-01T09:48:46.069Z</time>
      </trkpt>
      <trkpt lat="47.74631" lon="2.10857">
        <ele>182</ele>
        <time>2015-11-01T09:48:45.032Z</time>
      </trkpt>
      <trkpt lat="47.74626" lon="2.10855">
        <ele>181</ele>
        <time>2015-11-01T09:48:44.060Z</time>
      </trkpt>
      <trkpt lat="47.74622" lon="2.10854">
        <ele>179</ele>
        <time>2015-11-01T09:48:43.031Z</time>
      </trkpt>
      <trkpt lat="47.74617" lon="2.10852">
        <ele>178</ele>
        <time>2015-11-01T09:48:42.066Z</time>
      </trkpt>
      <trkpt lat="47.74611" lon="2.1085">
        <ele>178</ele>
        <time>2015-11-01T09:48:41.034Z</time>
      </trkpt>
      <trkpt lat="47.74605" lon="2.10847">
        <ele>178</ele>
        <time>2015-11-01T09:48:40.072Z</time>
      </trkpt>
      <trkpt lat="47.746" lon="2.10845">
        <ele>178</ele>
        <time>2015-11-01T09:48:39.035Z</time>
      </trkpt>
      <trkpt lat="47.74594" lon="2.10843">
        <ele>179</ele>
        <time>2015-11-01T09:48:38.071Z</time>
      </trkpt>
      <trkpt lat="47.74588" lon="2.10841">
        <ele>181</ele>
        <time>2015-11-01T09:48:37.034Z</time>
      </trkpt>
      <trkpt lat="47.74583" lon="2.1084">
        <ele>181</ele>
        <time>2015-11-01T09:48:36.072Z</time>
      </trkpt>
      <trkpt lat="47.74577" lon="2.10839">
        <ele>181</ele>
        <time>2015-11-01T09:48:35.033Z</time>
      </trkpt>
      <trkpt lat="47.74572" lon="2.1084">
        <ele>180</ele>
        <time>2015-11-01T09:48:34.070Z</time>
      </trkpt>
      <trkpt lat="47.74567" lon="2.10839">
        <ele>179</ele>
        <time>2015-11-01T09:48:33.034Z</time>
      </trkpt>
      <trkpt lat="47.74562" lon="2.10841">
        <ele>178</ele>
        <time>2015-11-01T09:48:32.069Z</time>
      </trkpt>
      <trkpt lat="47.74556" lon="2.10842">
        <ele>178</ele>
        <time>2015-11-01T09:48:31.035Z</time>
      </trkpt>
      <trkpt lat="47.7455" lon="2.10841">
        <ele>179</ele>
        <time>2015-11-01T09:48:30.069Z</time>
      </trkpt>
      <trkpt lat="47.74546" lon="2.10843">
        <ele>179</ele>
        <time>2015-11-01T09:48:29.036Z</time>
      </trkpt>
      <trkpt lat="47.7454" lon="2.10843">
        <ele>178</ele>
        <time>2015-11-01T09:48:28.068Z</time>
      </trkpt>
      <trkpt lat="47.74534" lon="2.10844">
        <ele>178</ele>
        <time>2015-11-01T09:48:27.033Z</time>
      </trkpt>
      <trkpt lat="47.74529" lon="2.10844">
        <ele>178</ele>
        <time>2015-11-01T09:48:26.067Z</time>
      </trkpt>
      <trkpt lat="47.74524" lon="2.10846">
        <ele>176</ele>
        <time>2015-11-01T09:48:25.031Z</time>
      </trkpt>
      <trkpt lat="47.74518" lon="2.10846">
        <ele>177</ele>
        <time>2015-11-01T09:48:24.110Z</time>
      </trkpt>
      <trkpt lat="47.74512" lon="2.10848">
        <ele>176</ele>
        <time>2015-11-01T09:48:23.032Z</time>
      </trkpt>
      <trkpt lat="47.74505" lon="2.10849">
        <ele>177</ele>
        <time>2015-11-01T09:48:22.067Z</time>
      </trkpt>
      <trkpt lat="47.74499" lon="2.10849">
        <ele>176</ele>
        <time>2015-11-01T09:48:21.034Z</time>
      </trkpt>
      <trkpt lat="47.74492" lon="2.1085">
        <ele>176</ele>
        <time>2015-11-01T09:48:20.067Z</time>
      </trkpt>
      <trkpt lat="47.74486" lon="2.10851">
        <ele>176</ele>
        <time>2015-11-01T09:48:19.030Z</time>
      </trkpt>
      <trkpt lat="47.7448" lon="2.10851">
        <ele>176</ele>
        <time>2015-11-01T09:48:18.067Z</time>
      </trkpt>
      <trkpt lat="47.74475" lon="2.10852">
        <ele>175</ele>
        <time>2015-11-01T09:48:17.033Z</time>
      </trkpt>
      <trkpt lat="47.7447" lon="2.10852">
        <ele>174</ele>
        <time>2015-11-01T09:48:16.068Z</time>
      </trkpt>
      <trkpt lat="47.74465" lon="2.10852">
        <ele>174</ele>
        <time>2015-11-01T09:48:15.034Z</time>
      </trkpt>
      <trkpt lat="47.74459" lon="2.10851">
        <ele>175</ele>
        <time>2015-11-01T09:48:14.068Z</time>
      </trkpt>
      <trkpt lat="47.74453" lon="2.10851">
        <ele>175</ele>
        <time>2015-11-01T09:48:13.104Z</time>
      </trkpt>
      <trkpt lat="47.74448" lon="2.10852">
        <ele>175</ele>
        <time>2015-11-01T09:48:12.067Z</time>
      </trkpt>
      <trkpt lat="47.74442" lon="2.10852">
        <ele>175</ele>
        <time>2015-11-01T09:48:11.033Z</time>
      </trkpt>
      <trkpt lat="47.74437" lon="2.10852">
        <ele>174</ele>
        <time>2015-11-01T09:48:10.068Z</time>
      </trkpt>
      <trkpt lat="47.74433" lon="2.10853">
        <ele>173</ele>
        <time>2015-11-01T09:48:09.034Z</time>
      </trkpt>
      <trkpt lat="47.74427" lon="2.10853">
        <ele>172</ele>
        <time>2015-11-01T09:48:08.091Z</time>
      </trkpt>
      <trkpt lat="47.74422" lon="2.10852">
        <ele>173</ele>
        <time>2015-11-01T09:48:07.035Z</time>
      </trkpt>
      <trkpt lat="47.74417" lon="2.10852">
        <ele>173</ele>
        <time>2015-11-01T09:48:06.217Z</time>
      </trkpt>
      <trkpt lat="47.74411" lon="2.10852">
        <ele>173</ele>
        <time>2015-11-01T09:48:05.035Z</time>
      </trkpt>
      <trkpt lat="47.74406" lon="2.10852">
        <ele>173</ele>
        <time>2015-11-01T09:48:04.067Z</time>
      </trkpt>
      <trkpt lat="47.74401" lon="2.10852">
        <ele>173</ele>
        <time>2015-11-01T09:48:03.034Z</time>
      </trkpt>
      <trkpt lat="47.74395" lon="2.10853">
        <ele>174</ele>
        <time>2015-11-01T09:48:02.065Z</time>
      </trkpt>
      <trkpt lat="47.7439" lon="2.10854">
        <ele>174</ele>
        <time>2015-11-01T09:48:01.031Z</time>
      </trkpt>
      <trkpt lat="47.74385" lon="2.10854">
        <ele>174</ele>
        <time>2015-11-01T09:48:00.111Z</time>
      </trkpt>
      <trkpt lat="47.7438" lon="2.10855">
        <ele>174</ele>
        <time>2015-11-01T09:47:59.034Z</time>
      </trkpt>
      <trkpt lat="47.74375" lon="2.10854">
        <ele>174</ele>
        <time>2015-11-01T09:47:58.065Z</time>
      </trkpt>
      <trkpt lat="47.7437" lon="2.10854">
        <ele>174</ele>
        <time>2015-11-01T09:47:57.030Z</time>
      </trkpt>
      <trkpt lat="47.74365" lon="2.10854">
        <ele>174</ele>
        <time>2015-11-01T09:47:56.060Z</time>
      </trkpt>
      <trkpt lat="47.74361" lon="2.10854">
        <ele>174</ele>
        <time>2015-11-01T09:47:55.035Z</time>
      </trkpt>
      <trkpt lat="47.74356" lon="2.10855">
        <ele>174</ele>
        <time>2015-11-01T09:47:54.061Z</time>
      </trkpt>
      <trkpt lat="47.74351" lon="2.10856">
        <ele>174</ele>
        <time>2015-11-01T09:47:53.030Z</time>
      </trkpt>
      <trkpt lat="47.74347" lon="2.10856">
        <ele>174</ele>
        <time>2015-11-01T09:47:52.078Z</time>
      </trkpt>
      <trkpt lat="47.74342" lon="2.10857">
        <ele>174</ele>
        <time>2015-11-01T09:47:51.034Z</time>
      </trkpt>
      <trkpt lat="47.74337" lon="2.10857">
        <ele>174</ele>
        <time>2015-11-01T09:47:50.061Z</time>
      </trkpt>
      <trkpt lat="47.74333" lon="2.10857">
        <ele>174</ele>
        <time>2015-11-01T09:47:49.031Z</time>
      </trkpt>
      <trkpt lat="47.74329" lon="2.10856">
        <ele>174</ele>
        <time>2015-11-01T09:47:48.068Z</time>
      </trkpt>
      <trkpt lat="47.74322" lon="2.10849">
        <ele>173</ele>
        <time>2015-11-01T09:47:46.032Z</time>
      </trkpt>
      <trkpt lat="47.7432" lon="2.10844">
        <ele>173</ele>
        <time>2015-11-01T09:47:45.066Z</time>
      </trkpt>
      <trkpt lat="47.74316" lon="2.10832">
        <ele>173</ele>
        <time>2015-11-01T09:47:43.033Z</time>
      </trkpt>
      <trkpt lat="47.74315" lon="2.10826">
        <ele>173</ele>
        <time>2015-11-01T09:47:42.067Z</time>
      </trkpt>
      <trkpt lat="47.74314" lon="2.10813">
        <ele>173</ele>
        <time>2015-11-01T09:47:40.034Z</time>
      </trkpt>
      <trkpt lat="47.74313" lon="2.10806">
        <ele>173</ele>
        <time>2015-11-01T09:47:39.067Z</time>
      </trkpt>
      <trkpt lat="47.74313" lon="2.10799">
        <ele>173</ele>
        <time>2015-11-01T09:47:38.034Z</time>
      </trkpt>
      <trkpt lat="47.74312" lon="2.10792">
        <ele>173</ele>
        <time>2015-11-01T09:47:37.068Z</time>
      </trkpt>
      <trkpt lat="47.74311" lon="2.10785">
        <ele>173</ele>
        <time>2015-11-01T09:47:36.034Z</time>
      </trkpt>
      <trkpt lat="47.7431" lon="2.10779">
        <ele>173</ele>
        <time>2015-11-01T09:47:35.071Z</time>
      </trkpt>
      <trkpt lat="47.74309" lon="2.10772">
        <ele>173</ele>
        <time>2015-11-01T09:47:34.037Z</time>
      </trkpt>
      <trkpt lat="47.74308" lon="2.10766">
        <ele>173</ele>
        <time>2015-11-01T09:47:33.071Z</time>
      </trkpt>
      <trkpt lat="47.74306" lon="2.10754">
        <ele>173</ele>
        <time>2015-11-01T09:47:31.057Z</time>
      </trkpt>
      <trkpt lat="47.74305" lon="2.10747">
        <ele>173</ele>
        <time>2015-11-01T09:47:30.068Z</time>
      </trkpt>
      <trkpt lat="47.74302" lon="2.10737">
        <ele>172</ele>
        <time>2015-11-01T09:47:28.031Z</time>
      </trkpt>
      <trkpt lat="47.74301" lon="2.1073">
        <ele>171</ele>
        <time>2015-11-01T09:47:27.069Z</time>
      </trkpt>
      <trkpt lat="47.743" lon="2.10724">
        <ele>172</ele>
        <time>2015-11-01T09:47:26.033Z</time>
      </trkpt>
      <trkpt lat="47.74298" lon="2.10718">
        <ele>172</ele>
        <time>2015-11-01T09:47:25.067Z</time>
      </trkpt>
      <trkpt lat="47.74296" lon="2.10707">
        <ele>171</ele>
        <time>2015-11-01T09:47:23.037Z</time>
      </trkpt>
      <trkpt lat="47.74295" lon="2.107">
        <ele>171</ele>
        <time>2015-11-01T09:47:22.072Z</time>
      </trkpt>
      <trkpt lat="47.74292" lon="2.1069">
        <ele>171</ele>
        <time>2015-11-01T09:47:20.034Z</time>
      </trkpt>
      <trkpt lat="47.7429" lon="2.10682">
        <ele>173</ele>
        <time>2015-11-01T09:47:19.066Z</time>
      </trkpt>
      <trkpt lat="47.74288" lon="2.10677">
        <ele>172</ele>
        <time>2015-11-01T09:47:18.032Z</time>
      </trkpt>
      <trkpt lat="47.74286" lon="2.10671">
        <ele>172</ele>
        <time>2015-11-01T09:47:17.062Z</time>
      </trkpt>
      <trkpt lat="47.74281" lon="2.10661">
        <ele>171</ele>
        <time>2015-11-01T09:47:15.030Z</time>
      </trkpt>
      <trkpt lat="47.74277" lon="2.10655">
        <ele>171</ele>
        <time>2015-11-01T09:47:14.220Z</time>
      </trkpt>
      <trkpt lat="47.74273" lon="2.1065">
        <ele>170</ele>
        <time>2015-11-01T09:47:13.029Z</time>
      </trkpt>
      <trkpt lat="47.7427" lon="2.10646">
        <ele>170</ele>
        <time>2015-11-01T09:47:12.062Z</time>
      </trkpt>
      <trkpt lat="47.74265" lon="2.10639">
        <ele>168</ele>
        <time>2015-11-01T09:47:10.058Z</time>
      </trkpt>
      <trkpt lat="47.74261" lon="2.10633">
        <ele>168</ele>
        <time>2015-11-01T09:47:09.070Z</time>
      </trkpt>
      <trkpt lat="47.74255" lon="2.10625">
        <ele>167</ele>
        <time>2015-11-01T09:47:07.035Z</time>
      </trkpt>
      <trkpt lat="47.74252" lon="2.1062">
        <ele>167</ele>
        <time>2015-11-01T09:47:06.067Z</time>
      </trkpt>
      <trkpt lat="47.74248" lon="2.10615">
        <ele>167</ele>
        <time>2015-11-01T09:47:05.034Z</time>
      </trkpt>
      <trkpt lat="47.74245" lon="2.1061">
        <ele>167</ele>
        <time>2015-11-01T09:47:04.070Z</time>
      </trkpt>
      <trkpt lat="47.74241" lon="2.10605">
        <ele>166</ele>
        <time>2015-11-01T09:47:03.033Z</time>
      </trkpt>
      <trkpt lat="47.74237" lon="2.106">
        <ele>165</ele>
        <time>2015-11-01T09:47:02.070Z</time>
      </trkpt>
      <trkpt lat="47.74234" lon="2.10595">
        <ele>164</ele>
        <time>2015-11-01T09:47:01.036Z</time>
      </trkpt>
      <trkpt lat="47.74231" lon="2.10589">
        <ele>164</ele>
        <time>2015-11-01T09:47:00.153Z</time>
      </trkpt>
      <trkpt lat="47.74228" lon="2.10583">
        <ele>165</ele>
        <time>2015-11-01T09:46:59.038Z</time>
      </trkpt>
      <trkpt lat="47.74227" lon="2.10576">
        <ele>165</ele>
        <time>2015-11-01T09:46:58.078Z</time>
      </trkpt>
      <trkpt lat="47.74227" lon="2.10567">
        <ele>166</ele>
        <time>2015-11-01T09:46:57.037Z</time>
      </trkpt>
      <trkpt lat="47.74229" lon="2.10558">
        <ele>166</ele>
        <time>2015-11-01T09:46:56.071Z</time>
      </trkpt>
      <trkpt lat="47.7423" lon="2.10549">
        <ele>167</ele>
        <time>2015-11-01T09:46:55.035Z</time>
      </trkpt>
      <trkpt lat="47.74232" lon="2.1054">
        <ele>166</ele>
        <time>2015-11-01T09:46:54.096Z</time>
      </trkpt>
      <trkpt lat="47.74233" lon="2.10533">
        <ele>166</ele>
        <time>2015-11-01T09:46:53.035Z</time>
      </trkpt>
      <trkpt lat="47.74234" lon="2.10526">
        <ele>166</ele>
        <time>2015-11-01T09:46:52.103Z</time>
      </trkpt>
      <trkpt lat="47.74236" lon="2.10513">
        <ele>167</ele>
        <time>2015-11-01T09:46:50.038Z</time>
      </trkpt>
      <trkpt lat="47.74237" lon="2.10506">
        <ele>168</ele>
        <time>2015-11-01T09:46:49.125Z</time>
      </trkpt>
      <trkpt lat="47.74239" lon="2.10498">
        <ele>168</ele>
        <time>2015-11-01T09:46:48.037Z</time>
      </trkpt>
      <trkpt lat="47.74242" lon="2.10489">
        <ele>168</ele>
        <time>2015-11-01T09:46:47.074Z</time>
      </trkpt>
      <trkpt lat="47.74243" lon="2.10481">
        <ele>168</ele>
        <time>2015-11-01T09:46:46.035Z</time>
      </trkpt>
      <trkpt lat="47.74245" lon="2.10475">
        <ele>168</ele>
        <time>2015-11-01T09:46:45.069Z</time>
      </trkpt>
      <trkpt lat="47.74247" lon="2.10467">
        <ele>168</ele>
        <time>2015-11-01T09:46:44.035Z</time>
      </trkpt>
      <trkpt lat="47.74249" lon="2.1046">
        <ele>169</ele>
        <time>2015-11-01T09:46:43.074Z</time>
      </trkpt>
      <trkpt lat="47.7425" lon="2.10452">
        <ele>169</ele>
        <time>2015-11-01T09:46:42.037Z</time>
      </trkpt>
      <trkpt lat="47.74252" lon="2.10445">
        <ele>168</ele>
        <time>2015-11-01T09:46:41.074Z</time>
      </trkpt>
      <trkpt lat="47.74253" lon="2.10438">
        <ele>169</ele>
        <time>2015-11-01T09:46:40.036Z</time>
      </trkpt>
      <trkpt lat="47.74255" lon="2.10431">
        <ele>169</ele>
        <time>2015-11-01T09:46:39.241Z</time>
      </trkpt>
      <trkpt lat="47.74256" lon="2.10424">
        <ele>169</ele>
        <time>2015-11-01T09:46:38.037Z</time>
      </trkpt>
      <trkpt lat="47.74258" lon="2.10417">
        <ele>169</ele>
        <time>2015-11-01T09:46:37.075Z</time>
      </trkpt>
      <trkpt lat="47.7426" lon="2.10409">
        <ele>169</ele>
        <time>2015-11-01T09:46:36.034Z</time>
      </trkpt>
      <trkpt lat="47.74261" lon="2.10401">
        <ele>168</ele>
        <time>2015-11-01T09:46:35.068Z</time>
      </trkpt>
      <trkpt lat="47.74264" lon="2.10394">
        <ele>168</ele>
        <time>2015-11-01T09:46:34.034Z</time>
      </trkpt>
      <trkpt lat="47.74266" lon="2.10386">
        <ele>167</ele>
        <time>2015-11-01T09:46:33.093Z</time>
      </trkpt>
      <trkpt lat="47.74268" lon="2.10378">
        <ele>167</ele>
        <time>2015-11-01T09:46:32.035Z</time>
      </trkpt>
      <trkpt lat="47.74269" lon="2.10371">
        <ele>167</ele>
        <time>2015-11-01T09:46:31.071Z</time>
      </trkpt>
      <trkpt lat="47.74269" lon="2.10364">
        <ele>168</ele>
        <time>2015-11-01T09:46:30.041Z</time>
      </trkpt>
      <trkpt lat="47.7427" lon="2.10357">
        <ele>168</ele>
        <time>2015-11-01T09:46:29.124Z</time>
      </trkpt>
      <trkpt lat="47.74271" lon="2.1035">
        <ele>168</ele>
        <time>2015-11-01T09:46:28.035Z</time>
      </trkpt>
      <trkpt lat="47.74272" lon="2.10343">
        <ele>167</ele>
        <time>2015-11-01T09:46:27.067Z</time>
      </trkpt>
      <trkpt lat="47.74273" lon="2.10336">
        <ele>167</ele>
        <time>2015-11-01T09:46:26.033Z</time>
      </trkpt>
      <trkpt lat="47.74275" lon="2.10328">
        <ele>167</ele>
        <time>2015-11-01T09:46:25.070Z</time>
      </trkpt>
      <trkpt lat="47.74277" lon="2.10321">
        <ele>167</ele>
        <time>2015-11-01T09:46:24.034Z</time>
      </trkpt>
      <trkpt lat="47.74278" lon="2.10314">
        <ele>167</ele>
        <time>2015-11-01T09:46:23.068Z</time>
      </trkpt>
      <trkpt lat="47.74279" lon="2.10306">
        <ele>169</ele>
        <time>2015-11-01T09:46:22.034Z</time>
      </trkpt>
      <trkpt lat="47.74281" lon="2.10297">
        <ele>169</ele>
        <time>2015-11-01T09:46:21.109Z</time>
      </trkpt>
      <trkpt lat="47.74281" lon="2.10291">
        <ele>169</ele>
        <time>2015-11-01T09:46:20.036Z</time>
      </trkpt>
      <trkpt lat="47.74281" lon="2.10284">
        <ele>169</ele>
        <time>2015-11-01T09:46:19.065Z</time>
      </trkpt>
      <trkpt lat="47.74283" lon="2.10277">
        <ele>168</ele>
        <time>2015-11-01T09:46:18.034Z</time>
      </trkpt>
      <trkpt lat="47.74283" lon="2.10268">
        <ele>170</ele>
        <time>2015-11-01T09:46:17.071Z</time>
      </trkpt>
      <trkpt lat="47.74284" lon="2.10257">
        <ele>171</ele>
        <time>2015-11-01T09:46:16.034Z</time>
      </trkpt>
      <trkpt lat="47.74284" lon="2.1025">
        <ele>171</ele>
        <time>2015-11-01T09:46:15.065Z</time>
      </trkpt>
      <trkpt lat="47.74284" lon="2.10237">
        <ele>168</ele>
        <time>2015-11-01T09:46:13.032Z</time>
      </trkpt>
      <trkpt lat="47.74284" lon="2.10231">
        <ele>168</ele>
        <time>2015-11-01T09:46:12.087Z</time>
      </trkpt>
      <trkpt lat="47.74285" lon="2.10224">
        <ele>168</ele>
        <time>2015-11-01T09:46:11.037Z</time>
      </trkpt>
      <trkpt lat="47.74285" lon="2.10216">
        <ele>168</ele>
        <time>2015-11-01T09:46:10.072Z</time>
      </trkpt>
      <trkpt lat="47.74284" lon="2.10208">
        <ele>169</ele>
        <time>2015-11-01T09:46:09.035Z</time>
      </trkpt>
      <trkpt lat="47.74283" lon="2.102">
        <ele>170</ele>
        <time>2015-11-01T09:46:08.072Z</time>
      </trkpt>
      <trkpt lat="47.74282" lon="2.10193">
        <ele>170</ele>
        <time>2015-11-01T09:46:07.037Z</time>
      </trkpt>
      <trkpt lat="47.74281" lon="2.10184">
        <ele>170</ele>
        <time>2015-11-01T09:46:06.071Z</time>
      </trkpt>
      <trkpt lat="47.7428" lon="2.10175">
        <ele>171</ele>
        <time>2015-11-01T09:46:05.036Z</time>
      </trkpt>
      <trkpt lat="47.7428" lon="2.10166">
        <ele>173</ele>
        <time>2015-11-01T09:46:04.070Z</time>
      </trkpt>
      <trkpt lat="47.74281" lon="2.10159">
        <ele>172</ele>
        <time>2015-11-01T09:46:03.035Z</time>
      </trkpt>
      <trkpt lat="47.7428" lon="2.10151">
        <ele>173</ele>
        <time>2015-11-01T09:46:02.070Z</time>
      </trkpt>
      <trkpt lat="47.74278" lon="2.1014">
        <ele>177</ele>
        <time>2015-11-01T09:46:01.034Z</time>
      </trkpt>
      <trkpt lat="47.74278" lon="2.10131">
        <ele>176</ele>
        <time>2015-11-01T09:46:00.102Z</time>
      </trkpt>
      <trkpt lat="47.74278" lon="2.10124">
        <ele>176</ele>
        <time>2015-11-01T09:45:59.035Z</time>
      </trkpt>
      <trkpt lat="47.74279" lon="2.10115">
        <ele>175</ele>
        <time>2015-11-01T09:45:58.070Z</time>
      </trkpt>
      <trkpt lat="47.7428" lon="2.10107">
        <ele>175</ele>
        <time>2015-11-01T09:45:57.033Z</time>
      </trkpt>
      <trkpt lat="47.74281" lon="2.10097">
        <ele>174</ele>
        <time>2015-11-01T09:45:56.070Z</time>
      </trkpt>
      <trkpt lat="47.74282" lon="2.1009">
        <ele>173</ele>
        <time>2015-11-01T09:45:55.032Z</time>
      </trkpt>
      <trkpt lat="47.74282" lon="2.10084">
        <ele>173</ele>
        <time>2015-11-01T09:45:54.068Z</time>
      </trkpt>
      <trkpt lat="47.74282" lon="2.10072">
        <ele>171</ele>
        <time>2015-11-01T09:45:52.067Z</time>
      </trkpt>
      <trkpt lat="47.74282" lon="2.10065">
        <ele>170</ele>
        <time>2015-11-01T09:45:51.092Z</time>
      </trkpt>
      <trkpt lat="47.74282" lon="2.10052">
        <ele>169</ele>
        <time>2015-11-01T09:45:49.033Z</time>
      </trkpt>
      <trkpt lat="47.74282" lon="2.10044">
        <ele>169</ele>
        <time>2015-11-01T09:45:48.070Z</time>
      </trkpt>
      <trkpt lat="47.74283" lon="2.10037">
        <ele>168</ele>
        <time>2015-11-01T09:45:47.033Z</time>
      </trkpt>
      <trkpt lat="47.74285" lon="2.10032">
        <ele>168</ele>
        <time>2015-11-01T09:45:46.068Z</time>
      </trkpt>
      <trkpt lat="47.74286" lon="2.10019">
        <ele>168</ele>
        <time>2015-11-01T09:45:44.032Z</time>
      </trkpt>
      <trkpt lat="47.74286" lon="2.10011">
        <ele>168</ele>
        <time>2015-11-01T09:45:43.069Z</time>
      </trkpt>
      <trkpt lat="47.74286" lon="2.10003">
        <ele>168</ele>
        <time>2015-11-01T09:45:42.035Z</time>
      </trkpt>
      <trkpt lat="47.74288" lon="2.09995">
        <ele>168</ele>
        <time>2015-11-01T09:45:41.074Z</time>
      </trkpt>
      <trkpt lat="47.74288" lon="2.09985">
        <ele>169</ele>
        <time>2015-11-01T09:45:40.036Z</time>
      </trkpt>
      <trkpt lat="47.74288" lon="2.09976">
        <ele>170</ele>
        <time>2015-11-01T09:45:39.075Z</time>
      </trkpt>
      <trkpt lat="47.74288" lon="2.09965">
        <ele>169</ele>
        <time>2015-11-01T09:45:37.035Z</time>
      </trkpt>
      <trkpt lat="47.74289" lon="2.09954">
        <ele>171</ele>
        <time>2015-11-01T09:45:36.065Z</time>
      </trkpt>
      <trkpt lat="47.7429" lon="2.09947">
        <ele>171</ele>
        <time>2015-11-01T09:45:35.033Z</time>
      </trkpt>
      <trkpt lat="47.74291" lon="2.09939">
        <ele>171</ele>
        <time>2015-11-01T09:45:34.062Z</time>
      </trkpt>
      <trkpt lat="47.7429" lon="2.09931">
        <ele>172</ele>
        <time>2015-11-01T09:45:33.039Z</time>
      </trkpt>
      <trkpt lat="47.74289" lon="2.09923">
        <ele>173</ele>
        <time>2015-11-01T09:45:32.067Z</time>
      </trkpt>
      <trkpt lat="47.74289" lon="2.0991">
        <ele>173</ele>
        <time>2015-11-01T09:45:30.037Z</time>
      </trkpt>
      <trkpt lat="47.7429" lon="2.09903">
        <ele>173</ele>
        <time>2015-11-01T09:45:29.064Z</time>
      </trkpt>
      <trkpt lat="47.74291" lon="2.09896">
        <ele>173</ele>
        <time>2015-11-01T09:45:28.033Z</time>
      </trkpt>
      <trkpt lat="47.74292" lon="2.09888">
        <ele>173</ele>
        <time>2015-11-01T09:45:27.065Z</time>
      </trkpt>
      <trkpt lat="47.74293" lon="2.0988">
        <ele>173</ele>
        <time>2015-11-01T09:45:26.036Z</time>
      </trkpt>
      <trkpt lat="47.74294" lon="2.09874">
        <ele>173</ele>
        <time>2015-11-01T09:45:25.202Z</time>
      </trkpt>
      <trkpt lat="47.74295" lon="2.09865">
        <ele>173</ele>
        <time>2015-11-01T09:45:24.031Z</time>
      </trkpt>
      <trkpt lat="47.74295" lon="2.09856">
        <ele>175</ele>
        <time>2015-11-01T09:45:23.065Z</time>
      </trkpt>
      <trkpt lat="47.74295" lon="2.09848">
        <ele>175</ele>
        <time>2015-11-01T09:45:22.033Z</time>
      </trkpt>
      <trkpt lat="47.74295" lon="2.09839">
        <ele>177</ele>
        <time>2015-11-01T09:45:21.069Z</time>
      </trkpt>
      <trkpt lat="47.74295" lon="2.09827">
        <ele>172</ele>
        <time>2015-11-01T09:45:19.037Z</time>
      </trkpt>
      <trkpt lat="47.74296" lon="2.09819">
        <ele>172</ele>
        <time>2015-11-01T09:45:18.065Z</time>
      </trkpt>
      <trkpt lat="47.74295" lon="2.09811">
        <ele>171</ele>
        <time>2015-11-01T09:45:17.032Z</time>
      </trkpt>
      <trkpt lat="47.74293" lon="2.09804">
        <ele>171</ele>
        <time>2015-11-01T09:45:16.065Z</time>
      </trkpt>
      <trkpt lat="47.74292" lon="2.09797">
        <ele>171</ele>
        <time>2015-11-01T09:45:15.031Z</time>
      </trkpt>
      <trkpt lat="47.7429" lon="2.0979">
        <ele>170</ele>
        <time>2015-11-01T09:45:14.088Z</time>
      </trkpt>
      <trkpt lat="47.74288" lon="2.09783">
        <ele>171</ele>
        <time>2015-11-01T09:45:13.032Z</time>
      </trkpt>
      <trkpt lat="47.74286" lon="2.09777">
        <ele>171</ele>
        <time>2015-11-01T09:45:12.070Z</time>
      </trkpt>
      <trkpt lat="47.74284" lon="2.09769">
        <ele>171</ele>
        <time>2015-11-01T09:45:11.037Z</time>
      </trkpt>
      <trkpt lat="47.74282" lon="2.09758">
        <ele>173</ele>
        <time>2015-11-01T09:45:10.071Z</time>
      </trkpt>
      <trkpt lat="47.74278" lon="2.09748">
        <ele>177</ele>
        <time>2015-11-01T09:45:09.033Z</time>
      </trkpt>
      <trkpt lat="47.74276" lon="2.09742">
        <ele>177</ele>
        <time>2015-11-01T09:45:08.067Z</time>
      </trkpt>
      <trkpt lat="47.74274" lon="2.09736">
        <ele>177</ele>
        <time>2015-11-01T09:45:07.030Z</time>
      </trkpt>
      <trkpt lat="47.74271" lon="2.09729">
        <ele>178</ele>
        <time>2015-11-01T09:45:06.070Z</time>
      </trkpt>
      <trkpt lat="47.74268" lon="2.09722">
        <ele>178</ele>
        <time>2015-11-01T09:45:05.035Z</time>
      </trkpt>
      <trkpt lat="47.74265" lon="2.09715">
        <ele>177</ele>
        <time>2015-11-01T09:45:04.071Z</time>
      </trkpt>
      <trkpt lat="47.74262" lon="2.0971">
        <ele>178</ele>
        <time>2015-11-01T09:45:03.036Z</time>
      </trkpt>
      <trkpt lat="47.74257" lon="2.09704">
        <ele>178</ele>
        <time>2015-11-01T09:45:02.227Z</time>
      </trkpt>
      <trkpt lat="47.74254" lon="2.09698">
        <ele>178</ele>
        <time>2015-11-01T09:45:01.033Z</time>
      </trkpt>
      <trkpt lat="47.74251" lon="2.09693">
        <ele>179</ele>
        <time>2015-11-01T09:45:00.114Z</time>
      </trkpt>
      <trkpt lat="47.74247" lon="2.09687">
        <ele>178</ele>
        <time>2015-11-01T09:44:59.035Z</time>
      </trkpt>
      <trkpt lat="47.74244" lon="2.09681">
        <ele>178</ele>
        <time>2015-11-01T09:44:58.067Z</time>
      </trkpt>
      <trkpt lat="47.74239" lon="2.09671">
        <ele>176</ele>
        <time>2015-11-01T09:44:56.034Z</time>
      </trkpt>
      <trkpt lat="47.74236" lon="2.09665">
        <ele>177</ele>
        <time>2015-11-01T09:44:55.069Z</time>
      </trkpt>
      <trkpt lat="47.74233" lon="2.09659">
        <ele>176</ele>
        <time>2015-11-01T09:44:54.034Z</time>
      </trkpt>
      <trkpt lat="47.74231" lon="2.09653">
        <ele>176</ele>
        <time>2015-11-01T09:44:53.094Z</time>
      </trkpt>
      <trkpt lat="47.74226" lon="2.09642">
        <ele>175</ele>
        <time>2015-11-01T09:44:51.031Z</time>
      </trkpt>
      <trkpt lat="47.74224" lon="2.09635">
        <ele>175</ele>
        <time>2015-11-01T09:44:50.068Z</time>
      </trkpt>
      <trkpt lat="47.74222" lon="2.0963">
        <ele>176</ele>
        <time>2015-11-01T09:44:49.032Z</time>
      </trkpt>
      <trkpt lat="47.7422" lon="2.09623">
        <ele>175</ele>
        <time>2015-11-01T09:44:48.219Z</time>
      </trkpt>
      <trkpt lat="47.74219" lon="2.09616">
        <ele>175</ele>
        <time>2015-11-01T09:44:47.034Z</time>
      </trkpt>
      <trkpt lat="47.74219" lon="2.09609">
        <ele>175</ele>
        <time>2015-11-01T09:44:46.069Z</time>
      </trkpt>
      <trkpt lat="47.74219" lon="2.09601">
        <ele>176</ele>
        <time>2015-11-01T09:44:45.035Z</time>
      </trkpt>
      <trkpt lat="47.74217" lon="2.09596">
        <ele>175</ele>
        <time>2015-11-01T09:44:44.070Z</time>
      </trkpt>
      <trkpt lat="47.74216" lon="2.09588">
        <ele>175</ele>
        <time>2015-11-01T09:44:43.034Z</time>
      </trkpt>
      <trkpt lat="47.74215" lon="2.09583">
        <ele>175</ele>
        <time>2015-11-01T09:44:42.076Z</time>
      </trkpt>
      <trkpt lat="47.74213" lon="2.09571">
        <ele>173</ele>
        <time>2015-11-01T09:44:40.038Z</time>
      </trkpt>
      <trkpt lat="47.74214" lon="2.09564">
        <ele>173</ele>
        <time>2015-11-01T09:44:39.075Z</time>
      </trkpt>
      <trkpt lat="47.74213" lon="2.09558">
        <ele>172</ele>
        <time>2015-11-01T09:44:38.032Z</time>
      </trkpt>
      <trkpt lat="47.74213" lon="2.0955">
        <ele>173</ele>
        <time>2015-11-01T09:44:37.227Z</time>
      </trkpt>
      <trkpt lat="47.74213" lon="2.09542">
        <ele>172</ele>
        <time>2015-11-01T09:44:36.034Z</time>
      </trkpt>
      <trkpt lat="47.74213" lon="2.09534">
        <ele>173</ele>
        <time>2015-11-01T09:44:35.064Z</time>
      </trkpt>
      <trkpt lat="47.74213" lon="2.09527">
        <ele>173</ele>
        <time>2015-11-01T09:44:34.033Z</time>
      </trkpt>
      <trkpt lat="47.74214" lon="2.09519">
        <ele>172</ele>
        <time>2015-11-01T09:44:33.068Z</time>
      </trkpt>
      <trkpt lat="47.74215" lon="2.09512">
        <ele>172</ele>
        <time>2015-11-01T09:44:32.035Z</time>
      </trkpt>
      <trkpt lat="47.74216" lon="2.09505">
        <ele>172</ele>
        <time>2015-11-01T09:44:31.068Z</time>
      </trkpt>
      <trkpt lat="47.74219" lon="2.09493">
        <ele>170</ele>
        <time>2015-11-01T09:44:29.032Z</time>
      </trkpt>
      <trkpt lat="47.74222" lon="2.09487">
        <ele>170</ele>
        <time>2015-11-01T09:44:28.066Z</time>
      </trkpt>
      <trkpt lat="47.74223" lon="2.0948">
        <ele>171</ele>
        <time>2015-11-01T09:44:27.033Z</time>
      </trkpt>
      <trkpt lat="47.74226" lon="2.09473">
        <ele>171</ele>
        <time>2015-11-01T09:44:26.114Z</time>
      </trkpt>
      <trkpt lat="47.74228" lon="2.09467">
        <ele>172</ele>
        <time>2015-11-01T09:44:25.035Z</time>
      </trkpt>
      <trkpt lat="47.74229" lon="2.09463">
        <ele>172</ele>
        <time>2015-11-01T09:44:24.070Z</time>
      </trkpt>
      <trkpt lat="47.7423" lon="2.09451">
        <ele>174</ele>
        <time>2015-11-01T09:44:22.058Z</time>
      </trkpt>
      <trkpt lat="47.74231" lon="2.09443">
        <ele>175</ele>
        <time>2015-11-01T09:44:21.070Z</time>
      </trkpt>
      <trkpt lat="47.74231" lon="2.09434">
        <ele>178</ele>
        <time>2015-11-01T09:44:20.034Z</time>
      </trkpt>
      <trkpt lat="47.74232" lon="2.09428">
        <ele>178</ele>
        <time>2015-11-01T09:44:19.067Z</time>
      </trkpt>
      <trkpt lat="47.74229" lon="2.09416">
        <ele>183</ele>
        <time>2015-11-01T09:44:18.033Z</time>
      </trkpt>
      <trkpt lat="47.74229" lon="2.09409">
        <ele>183</ele>
        <time>2015-11-01T09:44:17.071Z</time>
      </trkpt>
      <trkpt lat="47.74228" lon="2.09403">
        <ele>183</ele>
        <time>2015-11-01T09:44:16.035Z</time>
      </trkpt>
      <trkpt lat="47.74227" lon="2.09396">
        <ele>183</ele>
        <time>2015-11-01T09:44:15.070Z</time>
      </trkpt>
      <trkpt lat="47.74225" lon="2.09389">
        <ele>184</ele>
        <time>2015-11-01T09:44:14.034Z</time>
      </trkpt>
      <trkpt lat="47.74223" lon="2.09384">
        <ele>183</ele>
        <time>2015-11-01T09:44:13.069Z</time>
      </trkpt>
      <trkpt lat="47.74219" lon="2.09373">
        <ele>182</ele>
        <time>2015-11-01T09:44:11.032Z</time>
      </trkpt>
      <trkpt lat="47.74218" lon="2.09368">
        <ele>182</ele>
        <time>2015-11-01T09:44:10.069Z</time>
      </trkpt>
      <trkpt lat="47.74215" lon="2.09357">
        <ele>181</ele>
        <time>2015-11-01T09:44:08.033Z</time>
      </trkpt>
      <trkpt lat="47.74213" lon="2.09351">
        <ele>180</ele>
        <time>2015-11-01T09:44:07.069Z</time>
      </trkpt>
      <trkpt lat="47.7421" lon="2.0934">
        <ele>179</ele>
        <time>2015-11-01T09:44:05.034Z</time>
      </trkpt>
      <trkpt lat="47.74209" lon="2.09335">
        <ele>178</ele>
        <time>2015-11-01T09:44:04.061Z</time>
      </trkpt>
      <trkpt lat="47.74207" lon="2.09323">
        <ele>177</ele>
        <time>2015-11-01T09:44:02.033Z</time>
      </trkpt>
      <trkpt lat="47.74205" lon="2.09315">
        <ele>177</ele>
        <time>2015-11-01T09:44:01.062Z</time>
      </trkpt>
      <trkpt lat="47.74201" lon="2.09304">
        <ele>178</ele>
        <time>2015-11-01T09:43:59.037Z</time>
      </trkpt>
      <trkpt lat="47.742" lon="2.09297">
        <ele>179</ele>
        <time>2015-11-01T09:43:58.152Z</time>
      </trkpt>
      <trkpt lat="47.74197" lon="2.09287">
        <ele>183</ele>
        <time>2015-11-01T09:43:57.036Z</time>
      </trkpt>
      <trkpt lat="47.74194" lon="2.09278">
        <ele>185</ele>
        <time>2015-11-01T09:43:56.066Z</time>
      </trkpt>
      <trkpt lat="47.74192" lon="2.09271">
        <ele>185</ele>
        <time>2015-11-01T09:43:55.035Z</time>
      </trkpt>
      <trkpt lat="47.74191" lon="2.09265">
        <ele>185</ele>
        <time>2015-11-01T09:43:54.066Z</time>
      </trkpt>
      <trkpt lat="47.74188" lon="2.09257">
        <ele>184</ele>
        <time>2015-11-01T09:43:53.036Z</time>
      </trkpt>
      <trkpt lat="47.74188" lon="2.09251">
        <ele>184</ele>
        <time>2015-11-01T09:43:52.066Z</time>
      </trkpt>
      <trkpt lat="47.74184" lon="2.09239">
        <ele>184</ele>
        <time>2015-11-01T09:43:50.036Z</time>
      </trkpt>
      <trkpt lat="47.74182" lon="2.09234">
        <ele>184</ele>
        <time>2015-11-01T09:43:49.064Z</time>
      </trkpt>
      <trkpt lat="47.74178" lon="2.09224">
        <ele>184</ele>
        <time>2015-11-01T09:43:47.029Z</time>
      </trkpt>
      <trkpt lat="47.74178" lon="2.09218">
        <ele>183</ele>
        <time>2015-11-01T09:43:46.051Z</time>
      </trkpt>
      <trkpt lat="47.74174" lon="2.09207">
        <ele>182</ele>
        <time>2015-11-01T09:43:44.029Z</time>
      </trkpt>
      <trkpt lat="47.74173" lon="2.092">
        <ele>181</ele>
        <time>2015-11-01T09:43:43.070Z</time>
      </trkpt>
      <trkpt lat="47.74171" lon="2.09193">
        <ele>180</ele>
        <time>2015-11-01T09:43:42.032Z</time>
      </trkpt>
      <trkpt lat="47.74171" lon="2.09187">
        <ele>180</ele>
        <time>2015-11-01T09:43:41.074Z</time>
      </trkpt>
      <trkpt lat="47.74169" lon="2.0918">
        <ele>179</ele>
        <time>2015-11-01T09:43:40.035Z</time>
      </trkpt>
      <trkpt lat="47.74167" lon="2.09174">
        <ele>178</ele>
        <time>2015-11-01T09:43:39.071Z</time>
      </trkpt>
      <trkpt lat="47.74164" lon="2.09164">
        <ele>175</ele>
        <time>2015-11-01T09:43:37.034Z</time>
      </trkpt>
      <trkpt lat="47.74161" lon="2.09158">
        <ele>174</ele>
        <time>2015-11-01T09:43:36.068Z</time>
      </trkpt>
      <trkpt lat="47.74157" lon="2.09148">
        <ele>173</ele>
        <time>2015-11-01T09:43:34.038Z</time>
      </trkpt>
      <trkpt lat="47.74155" lon="2.09141">
        <ele>173</ele>
        <time>2015-11-01T09:43:33.083Z</time>
      </trkpt>
      <trkpt lat="47.74154" lon="2.09134">
        <ele>173</ele>
        <time>2015-11-01T09:43:32.037Z</time>
      </trkpt>
      <trkpt lat="47.74152" lon="2.09127">
        <ele>172</ele>
        <time>2015-11-01T09:43:31.068Z</time>
      </trkpt>
      <trkpt lat="47.74148" lon="2.09116">
        <ele>172</ele>
        <time>2015-11-01T09:43:29.034Z</time>
      </trkpt>
      <trkpt lat="47.74147" lon="2.09109">
        <ele>172</ele>
        <time>2015-11-01T09:43:28.063Z</time>
      </trkpt>
      <trkpt lat="47.74146" lon="2.09103">
        <ele>172</ele>
        <time>2015-11-01T09:43:27.032Z</time>
      </trkpt>
      <trkpt lat="47.74144" lon="2.09096">
        <ele>171</ele>
        <time>2015-11-01T09:43:26.071Z</time>
      </trkpt>
      <trkpt lat="47.74142" lon="2.09091">
        <ele>172</ele>
        <time>2015-11-01T09:43:25.101Z</time>
      </trkpt>
      <trkpt lat="47.74141" lon="2.09083">
        <ele>171</ele>
        <time>2015-11-01T09:43:24.219Z</time>
      </trkpt>
      <trkpt lat="47.74141" lon="2.09076">
        <ele>170</ele>
        <time>2015-11-01T09:43:23.038Z</time>
      </trkpt>
      <trkpt lat="47.74141" lon="2.09069">
        <ele>170</ele>
        <time>2015-11-01T09:43:22.069Z</time>
      </trkpt>
      <trkpt lat="47.74141" lon="2.0906">
        <ele>170</ele>
        <time>2015-11-01T09:43:21.036Z</time>
      </trkpt>
      <trkpt lat="47.74139" lon="2.09052">
        <ele>173</ele>
        <time>2015-11-01T09:43:20.071Z</time>
      </trkpt>
      <trkpt lat="47.74139" lon="2.09045">
        <ele>172</ele>
        <time>2015-11-01T09:43:19.039Z</time>
      </trkpt>
      <trkpt lat="47.74137" lon="2.09041">
        <ele>172</ele>
        <time>2015-11-01T09:43:18.063Z</time>
      </trkpt>
      <trkpt lat="47.74136" lon="2.0903">
        <ele>171</ele>
        <time>2015-11-01T09:43:16.033Z</time>
      </trkpt>
      <trkpt lat="47.74136" lon="2.09024">
        <ele>170</ele>
        <time>2015-11-01T09:43:15.062Z</time>
      </trkpt>
      <trkpt lat="47.74136" lon="2.09015">
        <ele>169</ele>
        <time>2015-11-01T09:43:13.034Z</time>
      </trkpt>
      <trkpt lat="47.74135" lon="2.09011">
        <ele>169</ele>
        <time>2015-11-01T09:43:12.068Z</time>
      </trkpt>
      <trkpt lat="47.74132" lon="2.09001">
        <ele>168</ele>
        <time>2015-11-01T09:43:09.036Z</time>
      </trkpt>
      <trkpt lat="47.74131" lon="2.08998">
        <ele>168</ele>
        <time>2015-11-01T09:43:08.070Z</time>
      </trkpt>
      <trkpt lat="47.7413" lon="2.08988">
        <ele>168</ele>
        <time>2015-11-01T09:43:05.033Z</time>
      </trkpt>
      <trkpt lat="47.7413" lon="2.08985">
        <ele>168</ele>
        <time>2015-11-01T09:43:04.067Z</time>
      </trkpt>
      <trkpt lat="47.74124" lon="2.08976">
        <ele>168</ele>
        <time>2015-11-01T09:43:00.039Z</time>
      </trkpt>
      <trkpt lat="47.74123" lon="2.08972">
        <ele>168</ele>
        <time>2015-11-01T09:42:59.064Z</time>
      </trkpt>
      <trkpt lat="47.7412" lon="2.0896">
        <ele>169</ele>
        <time>2015-11-01T09:42:56.032Z</time>
      </trkpt>
      <trkpt lat="47.7412" lon="2.08955">
        <ele>169</ele>
        <time>2015-11-01T09:42:55.067Z</time>
      </trkpt>
      <trkpt lat="47.7412" lon="2.08944">
        <ele>169</ele>
        <time>2015-11-01T09:42:53.034Z</time>
      </trkpt>
      <trkpt lat="47.7412" lon="2.08939">
        <ele>169</ele>
        <time>2015-11-01T09:42:52.067Z</time>
      </trkpt>
      <trkpt lat="47.7412" lon="2.0893">
        <ele>168</ele>
        <time>2015-11-01T09:42:49.032Z</time>
      </trkpt>
      <trkpt lat="47.7412" lon="2.08925">
        <ele>168</ele>
        <time>2015-11-01T09:42:48.068Z</time>
      </trkpt>
      <trkpt lat="47.7412" lon="2.08914">
        <ele>168</ele>
        <time>2015-11-01T09:42:46.032Z</time>
      </trkpt>
      <trkpt lat="47.7412" lon="2.08909">
        <ele>168</ele>
        <time>2015-11-01T09:42:45.064Z</time>
      </trkpt>
      <trkpt lat="47.7412" lon="2.08899">
        <ele>169</ele>
        <time>2015-11-01T09:42:40.034Z</time>
      </trkpt>
      <trkpt lat="47.7412" lon="2.08896">
        <ele>169</ele>
        <time>2015-11-01T09:42:39.068Z</time>
      </trkpt>
      <trkpt lat="47.7412" lon="2.08885">
        <ele>169</ele>
        <time>2015-11-01T09:42:35.031Z</time>
      </trkpt>
      <trkpt lat="47.74119" lon="2.08878">
        <ele>169</ele>
        <time>2015-11-01T09:42:34.068Z</time>
      </trkpt>
      <trkpt lat="47.7412" lon="2.08871">
        <ele>169</ele>
        <time>2015-11-01T09:42:33.033Z</time>
      </trkpt>
      <trkpt lat="47.74118" lon="2.08864">
        <ele>169</ele>
        <time>2015-11-01T09:42:32.069Z</time>
      </trkpt>
      <trkpt lat="47.74117" lon="2.08857">
        <ele>170</ele>
        <time>2015-11-01T09:42:31.034Z</time>
      </trkpt>
      <trkpt lat="47.74118" lon="2.08849">
        <ele>169</ele>
        <time>2015-11-01T09:42:30.070Z</time>
      </trkpt>
      <trkpt lat="47.74119" lon="2.08841">
        <ele>170</ele>
        <time>2015-11-01T09:42:29.034Z</time>
      </trkpt>
      <trkpt lat="47.74119" lon="2.08834">
        <ele>170</ele>
        <time>2015-11-01T09:42:28.068Z</time>
      </trkpt>
      <trkpt lat="47.7412" lon="2.08821">
        <ele>169</ele>
        <time>2015-11-01T09:42:26.065Z</time>
      </trkpt>
      <trkpt lat="47.74121" lon="2.08815">
        <ele>168</ele>
        <time>2015-11-01T09:42:25.074Z</time>
      </trkpt>
      <trkpt lat="47.74121" lon="2.08807">
        <ele>168</ele>
        <time>2015-11-01T09:42:24.035Z</time>
      </trkpt>
      <trkpt lat="47.74121" lon="2.08801">
        <ele>169</ele>
        <time>2015-11-01T09:42:23.070Z</time>
      </trkpt>
      <trkpt lat="47.74122" lon="2.08794">
        <ele>169</ele>
        <time>2015-11-01T09:42:22.034Z</time>
      </trkpt>
      <trkpt lat="47.74124" lon="2.08787">
        <ele>170</ele>
        <time>2015-11-01T09:42:21.066Z</time>
      </trkpt>
      <trkpt lat="47.74125" lon="2.08781">
        <ele>170</ele>
        <time>2015-11-01T09:42:20.028Z</time>
      </trkpt>
      <trkpt lat="47.74127" lon="2.08775">
        <ele>170</ele>
        <time>2015-11-01T09:42:19.092Z</time>
      </trkpt>
      <trkpt lat="47.74131" lon="2.08763">
        <ele>171</ele>
        <time>2015-11-01T09:42:17.036Z</time>
      </trkpt>
      <trkpt lat="47.74132" lon="2.08757">
        <ele>171</ele>
        <time>2015-11-01T09:42:16.120Z</time>
      </trkpt>
      <trkpt lat="47.74133" lon="2.0875">
        <ele>172</ele>
        <time>2015-11-01T09:42:15.037Z</time>
      </trkpt>
      <trkpt lat="47.74135" lon="2.08744">
        <ele>173</ele>
        <time>2015-11-01T09:42:14.080Z</time>
      </trkpt>
      <trkpt lat="47.74137" lon="2.08731">
        <ele>173</ele>
        <time>2015-11-01T09:42:12.065Z</time>
      </trkpt>
      <trkpt lat="47.74137" lon="2.08726">
        <ele>174</ele>
        <time>2015-11-01T09:42:11.069Z</time>
      </trkpt>
      <trkpt lat="47.74136" lon="2.08714">
        <ele>174</ele>
        <time>2015-11-01T09:42:09.033Z</time>
      </trkpt>
      <trkpt lat="47.74135" lon="2.08706">
        <ele>176</ele>
        <time>2015-11-01T09:42:08.086Z</time>
      </trkpt>
      <trkpt lat="47.74134" lon="2.08698">
        <ele>178</ele>
        <time>2015-11-01T09:42:07.035Z</time>
      </trkpt>
      <trkpt lat="47.74132" lon="2.08691">
        <ele>179</ele>
        <time>2015-11-01T09:42:06.071Z</time>
      </trkpt>
      <trkpt lat="47.7413" lon="2.08683">
        <ele>181</ele>
        <time>2015-11-01T09:42:05.033Z</time>
      </trkpt>
      <trkpt lat="47.74128" lon="2.08674">
        <ele>184</ele>
        <time>2015-11-01T09:42:04.070Z</time>
      </trkpt>
      <trkpt lat="47.74126" lon="2.08663">
        <ele>182</ele>
        <time>2015-11-01T09:42:02.034Z</time>
      </trkpt>
      <trkpt lat="47.74125" lon="2.08658">
        <ele>181</ele>
        <time>2015-11-01T09:42:01.066Z</time>
      </trkpt>
      <trkpt lat="47.74119" lon="2.08653">
        <ele>180</ele>
        <time>2015-11-01T09:41:59.032Z</time>
      </trkpt>
      <trkpt lat="47.74116" lon="2.08653">
        <ele>179</ele>
        <time>2015-11-01T09:41:58.071Z</time>
      </trkpt>
      <trkpt lat="47.74108" lon="2.08653">
        <ele>178</ele>
        <time>2015-11-01T09:41:56.027Z</time>
      </trkpt>
      <trkpt lat="47.74104" lon="2.08654">
        <ele>178</ele>
        <time>2015-11-01T09:41:55.065Z</time>
      </trkpt>
      <trkpt lat="47.74095" lon="2.08655">
        <ele>177</ele>
        <time>2015-11-01T09:41:53.024Z</time>
      </trkpt>
      <trkpt lat="47.74091" lon="2.08655">
        <ele>177</ele>
        <time>2015-11-01T09:41:52.056Z</time>
      </trkpt>
      <trkpt lat="47.74086" lon="2.08656">
        <ele>178</ele>
        <time>2015-11-01T09:41:51.024Z</time>
      </trkpt>
      <trkpt lat="47.74081" lon="2.08656">
        <ele>178</ele>
        <time>2015-11-01T09:41:50.060Z</time>
      </trkpt>
      <trkpt lat="47.74076" lon="2.08656">
        <ele>178</ele>
        <time>2015-11-01T09:41:49.044Z</time>
      </trkpt>
      <trkpt lat="47.74071" lon="2.08657">
        <ele>179</ele>
        <time>2015-11-01T09:41:48.054Z</time>
      </trkpt>
      <trkpt lat="47.74066" lon="2.08658">
        <ele>179</ele>
        <time>2015-11-01T09:41:47.023Z</time>
      </trkpt>
      <trkpt lat="47.7406" lon="2.08658">
        <ele>179</ele>
        <time>2015-11-01T09:41:46.054Z</time>
      </trkpt>
      <trkpt lat="47.74055" lon="2.08658">
        <ele>179</ele>
        <time>2015-11-01T09:41:45.022Z</time>
      </trkpt>
      <trkpt lat="47.7405" lon="2.08659">
        <ele>179</ele>
        <time>2015-11-01T09:41:44.056Z</time>
      </trkpt>
      <trkpt lat="47.74045" lon="2.08658">
        <ele>179</ele>
        <time>2015-11-01T09:41:43.031Z</time>
      </trkpt>
      <trkpt lat="47.7404" lon="2.08658">
        <ele>179</ele>
        <time>2015-11-01T09:41:42.061Z</time>
      </trkpt>
      <trkpt lat="47.74035" lon="2.08659">
        <ele>178</ele>
        <time>2015-11-01T09:41:41.032Z</time>
      </trkpt>
      <trkpt lat="47.7403" lon="2.08659">
        <ele>178</ele>
        <time>2015-11-01T09:41:40.065Z</time>
      </trkpt>
      <trkpt lat="47.74021" lon="2.08658">
        <ele>176</ele>
        <time>2015-11-01T09:41:38.031Z</time>
      </trkpt>
      <trkpt lat="47.74017" lon="2.08656">
        <ele>176</ele>
        <time>2015-11-01T09:41:37.062Z</time>
      </trkpt>
      <trkpt lat="47.74013" lon="2.08652">
        <ele>177</ele>
        <time>2015-11-01T09:41:36.033Z</time>
      </trkpt>
      <trkpt lat="47.74009" lon="2.08646">
        <ele>177</ele>
        <time>2015-11-01T09:41:35.067Z</time>
      </trkpt>
      <trkpt lat="47.74006" lon="2.08641">
        <ele>177</ele>
        <time>2015-11-01T09:41:34.033Z</time>
      </trkpt>
      <trkpt lat="47.74003" lon="2.08636">
        <ele>177</ele>
        <time>2015-11-01T09:41:33.070Z</time>
      </trkpt>
      <trkpt lat="47.74002" lon="2.08628">
        <ele>175</ele>
        <time>2015-11-01T09:41:32.040Z</time>
      </trkpt>
      <trkpt lat="47.74" lon="2.08623">
        <ele>175</ele>
        <time>2015-11-01T09:41:31.063Z</time>
      </trkpt>
      <trkpt lat="47.73997" lon="2.08613">
        <ele>172</ele>
        <time>2015-11-01T09:41:29.033Z</time>
      </trkpt>
      <trkpt lat="47.73995" lon="2.08606">
        <ele>172</ele>
        <time>2015-11-01T09:41:28.082Z</time>
      </trkpt>
      <trkpt lat="47.73993" lon="2.08598">
        <ele>172</ele>
        <time>2015-11-01T09:41:27.031Z</time>
      </trkpt>
      <trkpt lat="47.73991" lon="2.08591">
        <ele>171</ele>
        <time>2015-11-01T09:41:26.062Z</time>
      </trkpt>
      <trkpt lat="47.73988" lon="2.08579">
        <ele>168</ele>
        <time>2015-11-01T09:41:24.036Z</time>
      </trkpt>
      <trkpt lat="47.73987" lon="2.08571">
        <ele>168</ele>
        <time>2015-11-01T09:41:23.063Z</time>
      </trkpt>
      <trkpt lat="47.73985" lon="2.08565">
        <ele>168</ele>
        <time>2015-11-01T09:41:22.033Z</time>
      </trkpt>
      <trkpt lat="47.73982" lon="2.08558">
        <ele>169</ele>
        <time>2015-11-01T09:41:21.067Z</time>
      </trkpt>
      <trkpt lat="47.73979" lon="2.08546">
        <ele>167</ele>
        <time>2015-11-01T09:41:19.034Z</time>
      </trkpt>
      <trkpt lat="47.73977" lon="2.08541">
        <ele>166</ele>
        <time>2015-11-01T09:41:18.069Z</time>
      </trkpt>
      <trkpt lat="47.73974" lon="2.08532">
        <ele>168</ele>
        <time>2015-11-01T09:41:17.031Z</time>
      </trkpt>
      <trkpt lat="47.73972" lon="2.08525">
        <ele>169</ele>
        <time>2015-11-01T09:41:16.062Z</time>
      </trkpt>
      <trkpt lat="47.73971" lon="2.08517">
        <ele>169</ele>
        <time>2015-11-01T09:41:15.031Z</time>
      </trkpt>
      <trkpt lat="47.73969" lon="2.0851">
        <ele>170</ele>
        <time>2015-11-01T09:41:14.061Z</time>
      </trkpt>
      <trkpt lat="47.73967" lon="2.08502">
        <ele>169</ele>
        <time>2015-11-01T09:41:13.033Z</time>
      </trkpt>
      <trkpt lat="47.73966" lon="2.08495">
        <ele>169</ele>
        <time>2015-11-01T09:41:12.091Z</time>
      </trkpt>
      <trkpt lat="47.73963" lon="2.08489">
        <ele>169</ele>
        <time>2015-11-01T09:41:11.037Z</time>
      </trkpt>
      <trkpt lat="47.73962" lon="2.08482">
        <ele>168</ele>
        <time>2015-11-01T09:41:10.070Z</time>
      </trkpt>
      <trkpt lat="47.73958" lon="2.08472">
        <ele>167</ele>
        <time>2015-11-01T09:41:08.034Z</time>
      </trkpt>
      <trkpt lat="47.73956" lon="2.08467">
        <ele>167</ele>
        <time>2015-11-01T09:41:07.064Z</time>
      </trkpt>
      <trkpt lat="47.73952" lon="2.08457">
        <ele>167</ele>
        <time>2015-11-01T09:41:05.035Z</time>
      </trkpt>
      <trkpt lat="47.7395" lon="2.08451">
        <ele>168</ele>
        <time>2015-11-01T09:41:04.064Z</time>
      </trkpt>
      <trkpt lat="47.73947" lon="2.08439">
        <ele>168</ele>
        <time>2015-11-01T09:41:02.032Z</time>
      </trkpt>
      <trkpt lat="47.73945" lon="2.08432">
        <ele>168</ele>
        <time>2015-11-01T09:41:01.062Z</time>
      </trkpt>
      <trkpt lat="47.73942" lon="2.0842">
        <ele>168</ele>
        <time>2015-11-01T09:40:59.035Z</time>
      </trkpt>
      <trkpt lat="47.73941" lon="2.08414">
        <ele>168</ele>
        <time>2015-11-01T09:40:58.062Z</time>
      </trkpt>
      <trkpt lat="47.73939" lon="2.08408">
        <ele>168</ele>
        <time>2015-11-01T09:40:57.032Z</time>
      </trkpt>
      <trkpt lat="47.73937" lon="2.08402">
        <ele>168</ele>
        <time>2015-11-01T09:40:56.090Z</time>
      </trkpt>
      <trkpt lat="47.73936" lon="2.08395">
        <ele>168</ele>
        <time>2015-11-01T09:40:55.033Z</time>
      </trkpt>
      <trkpt lat="47.73934" lon="2.08388">
        <ele>168</ele>
        <time>2015-11-01T09:40:54.060Z</time>
      </trkpt>
      <trkpt lat="47.73933" lon="2.08382">
        <ele>168</ele>
        <time>2015-11-01T09:40:53.030Z</time>
      </trkpt>
      <trkpt lat="47.73931" lon="2.08376">
        <ele>168</ele>
        <time>2015-11-01T09:40:52.060Z</time>
      </trkpt>
      <trkpt lat="47.73929" lon="2.0837">
        <ele>168</ele>
        <time>2015-11-01T09:40:51.030Z</time>
      </trkpt>
      <trkpt lat="47.73927" lon="2.08363">
        <ele>168</ele>
        <time>2015-11-01T09:40:50.060Z</time>
      </trkpt>
      <trkpt lat="47.73926" lon="2.08357">
        <ele>168</ele>
        <time>2015-11-01T09:40:49.031Z</time>
      </trkpt>
      <trkpt lat="47.73925" lon="2.0835">
        <ele>168</ele>
        <time>2015-11-01T09:40:48.066Z</time>
      </trkpt>
      <trkpt lat="47.73924" lon="2.08343">
        <ele>168</ele>
        <time>2015-11-01T09:40:47.029Z</time>
      </trkpt>
      <trkpt lat="47.73923" lon="2.08336">
        <ele>168</ele>
        <time>2015-11-01T09:40:46.062Z</time>
      </trkpt>
      <trkpt lat="47.73924" lon="2.08329">
        <ele>168</ele>
        <time>2015-11-01T09:40:45.032Z</time>
      </trkpt>
      <trkpt lat="47.73924" lon="2.08323">
        <ele>168</ele>
        <time>2015-11-01T09:40:44.066Z</time>
      </trkpt>
      <trkpt lat="47.73925" lon="2.08315">
        <ele>168</ele>
        <time>2015-11-01T09:40:43.032Z</time>
      </trkpt>
      <trkpt lat="47.73926" lon="2.08308">
        <ele>168</ele>
        <time>2015-11-01T09:40:42.110Z</time>
      </trkpt>
      <trkpt lat="47.73926" lon="2.08301">
        <ele>168</ele>
        <time>2015-11-01T09:40:41.030Z</time>
      </trkpt>
      <trkpt lat="47.73927" lon="2.08293">
        <ele>168</ele>
        <time>2015-11-01T09:40:40.088Z</time>
      </trkpt>
      <trkpt lat="47.73927" lon="2.08286">
        <ele>168</ele>
        <time>2015-11-01T09:40:39.031Z</time>
      </trkpt>
      <trkpt lat="47.73927" lon="2.08278">
        <ele>168</ele>
        <time>2015-11-01T09:40:38.067Z</time>
      </trkpt>
      <trkpt lat="47.73928" lon="2.0827">
        <ele>168</ele>
        <time>2015-11-01T09:40:37.033Z</time>
      </trkpt>
      <trkpt lat="47.73928" lon="2.08262">
        <ele>168</ele>
        <time>2015-11-01T09:40:36.067Z</time>
      </trkpt>
      <trkpt lat="47.73928" lon="2.08255">
        <ele>168</ele>
        <time>2015-11-01T09:40:35.033Z</time>
      </trkpt>
      <trkpt lat="47.73929" lon="2.08247">
        <ele>168</ele>
        <time>2015-11-01T09:40:34.065Z</time>
      </trkpt>
      <trkpt lat="47.7393" lon="2.0824">
        <ele>169</ele>
        <time>2015-11-01T09:40:33.034Z</time>
      </trkpt>
      <trkpt lat="47.73931" lon="2.08234">
        <ele>169</ele>
        <time>2015-11-01T09:40:32.066Z</time>
      </trkpt>
      <trkpt lat="47.73932" lon="2.08227">
        <ele>169</ele>
        <time>2015-11-01T09:40:31.032Z</time>
      </trkpt>
      <trkpt lat="47.73934" lon="2.08221">
        <ele>171</ele>
        <time>2015-11-01T09:40:30.067Z</time>
      </trkpt>
      <trkpt lat="47.73934" lon="2.08213">
        <ele>172</ele>
        <time>2015-11-01T09:40:29.036Z</time>
      </trkpt>
      <trkpt lat="47.73933" lon="2.08208">
        <ele>174</ele>
        <time>2015-11-01T09:40:28.071Z</time>
      </trkpt>
      <trkpt lat="47.73928" lon="2.08201">
        <ele>175</ele>
        <time>2015-11-01T09:40:26.035Z</time>
      </trkpt>
      <trkpt lat="47.73926" lon="2.08197">
        <ele>175</ele>
        <time>2015-11-01T09:40:25.068Z</time>
      </trkpt>
      <trkpt lat="47.73921" lon="2.08189">
        <ele>174</ele>
        <time>2015-11-01T09:40:23.034Z</time>
      </trkpt>
      <trkpt lat="47.73918" lon="2.08183">
        <ele>174</ele>
        <time>2015-11-01T09:40:22.068Z</time>
      </trkpt>
      <trkpt lat="47.73914" lon="2.08172">
        <ele>175</ele>
        <time>2015-11-01T09:40:20.032Z</time>
      </trkpt>
      <trkpt lat="47.73913" lon="2.08166">
        <ele>173</ele>
        <time>2015-11-01T09:40:19.150Z</time>
      </trkpt>
      <trkpt lat="47.73911" lon="2.08153">
        <ele>173</ele>
        <time>2015-11-01T09:40:17.035Z</time>
      </trkpt>
      <trkpt lat="47.73911" lon="2.08145">
        <ele>173</ele>
        <time>2015-11-01T09:40:16.070Z</time>
      </trkpt>
      <trkpt lat="47.73911" lon="2.08132">
        <ele>173</ele>
        <time>2015-11-01T09:40:14.033Z</time>
      </trkpt>
      <trkpt lat="47.7391" lon="2.08124">
        <ele>174</ele>
        <time>2015-11-01T09:40:13.074Z</time>
      </trkpt>
      <trkpt lat="47.73909" lon="2.08117">
        <ele>175</ele>
        <time>2015-11-01T09:40:12.038Z</time>
      </trkpt>
      <trkpt lat="47.73909" lon="2.08108">
        <ele>178</ele>
        <time>2015-11-01T09:40:11.126Z</time>
      </trkpt>
      <trkpt lat="47.73907" lon="2.08098">
        <ele>181</ele>
        <time>2015-11-01T09:40:10.033Z</time>
      </trkpt>
      <trkpt lat="47.73904" lon="2.0809">
        <ele>183</ele>
        <time>2015-11-01T09:40:09.067Z</time>
      </trkpt>
      <trkpt lat="47.73902" lon="2.08086">
        <ele>182</ele>
        <time>2015-11-01T09:40:08.033Z</time>
      </trkpt>
      <trkpt lat="47.73899" lon="2.08081">
        <ele>182</ele>
        <time>2015-11-01T09:40:07.069Z</time>
      </trkpt>
      <trkpt lat="47.73894" lon="2.08077">
        <ele>179</ele>
        <time>2015-11-01T09:40:05.034Z</time>
      </trkpt>
      <trkpt lat="47.7389" lon="2.08074">
        <ele>179</ele>
        <time>2015-11-01T09:40:04.090Z</time>
      </trkpt>
      <trkpt lat="47.73885" lon="2.08072">
        <ele>179</ele>
        <time>2015-11-01T09:40:03.035Z</time>
      </trkpt>
      <trkpt lat="47.73881" lon="2.08069">
        <ele>181</ele>
        <time>2015-11-01T09:40:02.065Z</time>
      </trkpt>
      <trkpt lat="47.73873" lon="2.08064">
        <ele>180</ele>
        <time>2015-11-01T09:40:00.062Z</time>
      </trkpt>
      <trkpt lat="47.73868" lon="2.0806">
        <ele>180</ele>
        <time>2015-11-01T09:39:59.066Z</time>
      </trkpt>
      <trkpt lat="47.73864" lon="2.08058">
        <ele>180</ele>
        <time>2015-11-01T09:39:58.034Z</time>
      </trkpt>
      <trkpt lat="47.7386" lon="2.08056">
        <ele>179</ele>
        <time>2015-11-01T09:39:57.066Z</time>
      </trkpt>
      <trkpt lat="47.73855" lon="2.08052">
        <ele>181</ele>
        <time>2015-11-01T09:39:56.033Z</time>
      </trkpt>
      <trkpt lat="47.73851" lon="2.08049">
        <ele>181</ele>
        <time>2015-11-01T09:39:55.065Z</time>
      </trkpt>
      <trkpt lat="47.73846" lon="2.08043">
        <ele>182</ele>
        <time>2015-11-01T09:39:54.029Z</time>
      </trkpt>
      <trkpt lat="47.73844" lon="2.08038">
        <ele>182</ele>
        <time>2015-11-01T09:39:53.092Z</time>
      </trkpt>
      <trkpt lat="47.73841" lon="2.08031">
        <ele>181</ele>
        <time>2015-11-01T09:39:52.035Z</time>
      </trkpt>
      <trkpt lat="47.73839" lon="2.08026">
        <ele>180</ele>
        <time>2015-11-01T09:39:51.072Z</time>
      </trkpt>
      <trkpt lat="47.73837" lon="2.08018">
        <ele>179</ele>
        <time>2015-11-01T09:39:50.037Z</time>
      </trkpt>
      <trkpt lat="47.73834" lon="2.08012">
        <ele>180</ele>
        <time>2015-11-01T09:39:49.070Z</time>
      </trkpt>
      <trkpt lat="47.7383" lon="2.08002">
        <ele>180</ele>
        <time>2015-11-01T09:39:47.031Z</time>
      </trkpt>
      <trkpt lat="47.73827" lon="2.07995">
        <ele>182</ele>
        <time>2015-11-01T09:39:46.069Z</time>
      </trkpt>
      <trkpt lat="47.73825" lon="2.07988">
        <ele>182</ele>
        <time>2015-11-01T09:39:45.035Z</time>
      </trkpt>
      <trkpt lat="47.73823" lon="2.07981">
        <ele>182</ele>
        <time>2015-11-01T09:39:44.071Z</time>
      </trkpt>
      <trkpt lat="47.7382" lon="2.07974">
        <ele>183</ele>
        <time>2015-11-01T09:39:43.035Z</time>
      </trkpt>
      <trkpt lat="47.73817" lon="2.07968">
        <ele>183</ele>
        <time>2015-11-01T09:39:42.221Z</time>
      </trkpt>
      <trkpt lat="47.73815" lon="2.07962">
        <ele>183</ele>
        <time>2015-11-01T09:39:41.028Z</time>
      </trkpt>
      <trkpt lat="47.73811" lon="2.07955">
        <ele>184</ele>
        <time>2015-11-01T09:39:40.067Z</time>
      </trkpt>
      <trkpt lat="47.73809" lon="2.0795">
        <ele>183</ele>
        <time>2015-11-01T09:39:39.033Z</time>
      </trkpt>
      <trkpt lat="47.73807" lon="2.07943">
        <ele>184</ele>
        <time>2015-11-01T09:39:38.068Z</time>
      </trkpt>
      <trkpt lat="47.73804" lon="2.07937">
        <ele>184</ele>
        <time>2015-11-01T09:39:37.034Z</time>
      </trkpt>
      <trkpt lat="47.73801" lon="2.07932">
        <ele>183</ele>
        <time>2015-11-01T09:39:36.069Z</time>
      </trkpt>
      <trkpt lat="47.73798" lon="2.07925">
        <ele>184</ele>
        <time>2015-11-01T09:39:35.032Z</time>
      </trkpt>
      <trkpt lat="47.73796" lon="2.07919">
        <ele>184</ele>
        <time>2015-11-01T09:39:34.067Z</time>
      </trkpt>
      <trkpt lat="47.73793" lon="2.07912">
        <ele>184</ele>
        <time>2015-11-01T09:39:33.032Z</time>
      </trkpt>
      <trkpt lat="47.7379" lon="2.07905">
        <ele>184</ele>
        <time>2015-11-01T09:39:32.066Z</time>
      </trkpt>
      <trkpt lat="47.73788" lon="2.07899">
        <ele>185</ele>
        <time>2015-11-01T09:39:31.032Z</time>
      </trkpt>
      <trkpt lat="47.73784" lon="2.0789">
        <ele>186</ele>
        <time>2015-11-01T09:39:30.066Z</time>
      </trkpt>
      <trkpt lat="47.73781" lon="2.07884">
        <ele>186</ele>
        <time>2015-11-01T09:39:29.032Z</time>
      </trkpt>
      <trkpt lat="47.73779" lon="2.07878">
        <ele>186</ele>
        <time>2015-11-01T09:39:28.065Z</time>
      </trkpt>
      <trkpt lat="47.73776" lon="2.07872">
        <ele>185</ele>
        <time>2015-11-01T09:39:27.053Z</time>
      </trkpt>
      <trkpt lat="47.73774" lon="2.07866">
        <ele>184</ele>
        <time>2015-11-01T09:39:26.068Z</time>
      </trkpt>
      <trkpt lat="47.73769" lon="2.07856">
        <ele>182</ele>
        <time>2015-11-01T09:39:24.033Z</time>
      </trkpt>
      <trkpt lat="47.73767" lon="2.07851">
        <ele>181</ele>
        <time>2015-11-01T09:39:23.068Z</time>
      </trkpt>
      <trkpt lat="47.73763" lon="2.07841">
        <ele>178</ele>
        <time>2015-11-01T09:39:21.028Z</time>
      </trkpt>
      <trkpt lat="47.7376" lon="2.07835">
        <ele>177</ele>
        <time>2015-11-01T09:39:20.058Z</time>
      </trkpt>
      <trkpt lat="47.73755" lon="2.07826">
        <ele>175</ele>
        <time>2015-11-01T09:39:18.025Z</time>
      </trkpt>
      <trkpt lat="47.73752" lon="2.0782">
        <ele>175</ele>
        <time>2015-11-01T09:39:17.056Z</time>
      </trkpt>
      <trkpt lat="47.73749" lon="2.07815">
        <ele>174</ele>
        <time>2015-11-01T09:39:16.026Z</time>
      </trkpt>
      <trkpt lat="47.73746" lon="2.07809">
        <ele>174</ele>
        <time>2015-11-01T09:39:15.056Z</time>
      </trkpt>
      <trkpt lat="47.73741" lon="2.07798">
        <ele>174</ele>
        <time>2015-11-01T09:39:13.028Z</time>
      </trkpt>
      <trkpt lat="47.73739" lon="2.07793">
        <ele>173</ele>
        <time>2015-11-01T09:39:12.059Z</time>
      </trkpt>
      <trkpt lat="47.73735" lon="2.07784">
        <ele>172</ele>
        <time>2015-11-01T09:39:10.025Z</time>
      </trkpt>
      <trkpt lat="47.73732" lon="2.07782">
        <ele>173</ele>
        <time>2015-11-01T09:39:09.053Z</time>
      </trkpt>
      <trkpt lat="47.73725" lon="2.07788">
        <ele>171</ele>
        <time>2015-11-01T09:39:06.033Z</time>
      </trkpt>
      <trkpt lat="47.73722" lon="2.07791">
        <ele>172</ele>
        <time>2015-11-01T09:39:05.067Z</time>
      </trkpt>
      <trkpt lat="47.73716" lon="2.07798">
        <ele>172</ele>
        <time>2015-11-01T09:39:03.033Z</time>
      </trkpt>
      <trkpt lat="47.73712" lon="2.07803">
        <ele>173</ele>
        <time>2015-11-01T09:39:02.093Z</time>
      </trkpt>
      <trkpt lat="47.73707" lon="2.07808">
        <ele>173</ele>
        <time>2015-11-01T09:39:01.033Z</time>
      </trkpt>
      <trkpt lat="47.73702" lon="2.07813">
        <ele>174</ele>
        <time>2015-11-01T09:39:00.103Z</time>
      </trkpt>
      <trkpt lat="47.73696" lon="2.07817">
        <ele>175</ele>
        <time>2015-11-01T09:38:59.032Z</time>
      </trkpt>
      <trkpt lat="47.73691" lon="2.07822">
        <ele>175</ele>
        <time>2015-11-01T09:38:58.068Z</time>
      </trkpt>
      <trkpt lat="47.73686" lon="2.07827">
        <ele>175</ele>
        <time>2015-11-01T09:38:57.031Z</time>
      </trkpt>
      <trkpt lat="47.73681" lon="2.07833">
        <ele>175</ele>
        <time>2015-11-01T09:38:56.068Z</time>
      </trkpt>
      <trkpt lat="47.73676" lon="2.07838">
        <ele>175</ele>
        <time>2015-11-01T09:38:55.031Z</time>
      </trkpt>
      <trkpt lat="47.73671" lon="2.07843">
        <ele>175</ele>
        <time>2015-11-01T09:38:54.069Z</time>
      </trkpt>
      <trkpt lat="47.73666" lon="2.07848">
        <ele>175</ele>
        <time>2015-11-01T09:38:53.034Z</time>
      </trkpt>
      <trkpt lat="47.73661" lon="2.07853">
        <ele>174</ele>
        <time>2015-11-01T09:38:52.207Z</time>
      </trkpt>
      <trkpt lat="47.73656" lon="2.07859">
        <ele>174</ele>
        <time>2015-11-01T09:38:51.031Z</time>
      </trkpt>
      <trkpt lat="47.73651" lon="2.07864">
        <ele>174</ele>
        <time>2015-11-01T09:38:50.090Z</time>
      </trkpt>
      <trkpt lat="47.73646" lon="2.07869">
        <ele>174</ele>
        <time>2015-11-01T09:38:49.032Z</time>
      </trkpt>
      <trkpt lat="47.7364" lon="2.07875">
        <ele>174</ele>
        <time>2015-11-01T09:38:48.064Z</time>
      </trkpt>
      <trkpt lat="47.73635" lon="2.07881">
        <ele>174</ele>
        <time>2015-11-01T09:38:47.031Z</time>
      </trkpt>
      <trkpt lat="47.7363" lon="2.07886">
        <ele>174</ele>
        <time>2015-11-01T09:38:46.068Z</time>
      </trkpt>
      <trkpt lat="47.73624" lon="2.07892">
        <ele>174</ele>
        <time>2015-11-01T09:38:45.029Z</time>
      </trkpt>
      <trkpt lat="47.73619" lon="2.07898">
        <ele>174</ele>
        <time>2015-11-01T09:38:44.060Z</time>
      </trkpt>
      <trkpt lat="47.73613" lon="2.07904">
        <ele>174</ele>
        <time>2015-11-01T09:38:43.030Z</time>
      </trkpt>
      <trkpt lat="47.73607" lon="2.0791">
        <ele>174</ele>
        <time>2015-11-01T09:38:42.063Z</time>
      </trkpt>
      <trkpt lat="47.73601" lon="2.07916">
        <ele>174</ele>
        <time>2015-11-01T09:38:41.031Z</time>
      </trkpt>
      <trkpt lat="47.73595" lon="2.07921">
        <ele>174</ele>
        <time>2015-11-01T09:38:40.066Z</time>
      </trkpt>
      <trkpt lat="47.7359" lon="2.07927">
        <ele>174</ele>
        <time>2015-11-01T09:38:39.032Z</time>
      </trkpt>
      <trkpt lat="47.73585" lon="2.07933">
        <ele>172</ele>
        <time>2015-11-01T09:38:38.224Z</time>
      </trkpt>
      <trkpt lat="47.73579" lon="2.07939">
        <ele>172</ele>
        <time>2015-11-01T09:38:37.031Z</time>
      </trkpt>
      <trkpt lat="47.73573" lon="2.07944">
        <ele>172</ele>
        <time>2015-11-01T09:38:36.065Z</time>
      </trkpt>
      <trkpt lat="47.73568" lon="2.0795">
        <ele>172</ele>
        <time>2015-11-01T09:38:35.030Z</time>
      </trkpt>
      <trkpt lat="47.73563" lon="2.07955">
        <ele>172</ele>
        <time>2015-11-01T09:38:34.090Z</time>
      </trkpt>
      <trkpt lat="47.73557" lon="2.07961">
        <ele>171</ele>
        <time>2015-11-01T09:38:33.029Z</time>
      </trkpt>
      <trkpt lat="47.73552" lon="2.07965">
        <ele>171</ele>
        <time>2015-11-01T09:38:32.058Z</time>
      </trkpt>
      <trkpt lat="47.73546" lon="2.0797">
        <ele>171</ele>
        <time>2015-11-01T09:38:31.029Z</time>
      </trkpt>
      <trkpt lat="47.7354" lon="2.07976">
        <ele>171</ele>
        <time>2015-11-01T09:38:30.057Z</time>
      </trkpt>
      <trkpt lat="47.73534" lon="2.07981">
        <ele>171</ele>
        <time>2015-11-01T09:38:29.024Z</time>
      </trkpt>
      <trkpt lat="47.73529" lon="2.07986">
        <ele>171</ele>
        <time>2015-11-01T09:38:28.054Z</time>
      </trkpt>
      <trkpt lat="47.73523" lon="2.07991">
        <ele>171</ele>
        <time>2015-11-01T09:38:27.026Z</time>
      </trkpt>
      <trkpt lat="47.73517" lon="2.07996">
        <ele>171</ele>
        <time>2015-11-01T09:38:26.065Z</time>
      </trkpt>
      <trkpt lat="47.73511" lon="2.08001">
        <ele>171</ele>
        <time>2015-11-01T09:38:25.032Z</time>
      </trkpt>
      <trkpt lat="47.73505" lon="2.08006">
        <ele>171</ele>
        <time>2015-11-01T09:38:24.068Z</time>
      </trkpt>
      <trkpt lat="47.73499" lon="2.08011">
        <ele>170</ele>
        <time>2015-11-01T09:38:23.030Z</time>
      </trkpt>
      <trkpt lat="47.73493" lon="2.08016">
        <ele>170</ele>
        <time>2015-11-01T09:38:22.067Z</time>
      </trkpt>
      <trkpt lat="47.73488" lon="2.08021">
        <ele>170</ele>
        <time>2015-11-01T09:38:21.029Z</time>
      </trkpt>
      <trkpt lat="47.73482" lon="2.08025">
        <ele>170</ele>
        <time>2015-11-01T09:38:20.066Z</time>
      </trkpt>
      <trkpt lat="47.73476" lon="2.0803">
        <ele>170</ele>
        <time>2015-11-01T09:38:19.032Z</time>
      </trkpt>
      <trkpt lat="47.7347" lon="2.08035">
        <ele>170</ele>
        <time>2015-11-01T09:38:18.130Z</time>
      </trkpt>
      <trkpt lat="47.73464" lon="2.0804">
        <ele>170</ele>
        <time>2015-11-01T09:38:17.030Z</time>
      </trkpt>
      <trkpt lat="47.73458" lon="2.08044">
        <ele>170</ele>
        <time>2015-11-01T09:38:16.069Z</time>
      </trkpt>
      <trkpt lat="47.73452" lon="2.08048">
        <ele>171</ele>
        <time>2015-11-01T09:38:15.037Z</time>
      </trkpt>
      <trkpt lat="47.73446" lon="2.08053">
        <ele>171</ele>
        <time>2015-11-01T09:38:14.070Z</time>
      </trkpt>
      <trkpt lat="47.7344" lon="2.08058">
        <ele>171</ele>
        <time>2015-11-01T09:38:13.057Z</time>
      </trkpt>
      <trkpt lat="47.73434" lon="2.08062">
        <ele>172</ele>
        <time>2015-11-01T09:38:12.061Z</time>
      </trkpt>
      <trkpt lat="47.73428" lon="2.08067">
        <ele>172</ele>
        <time>2015-11-01T09:38:11.029Z</time>
      </trkpt>
      <trkpt lat="47.73422" lon="2.08071">
        <ele>172</ele>
        <time>2015-11-01T09:38:10.056Z</time>
      </trkpt>
      <trkpt lat="47.73415" lon="2.08076">
        <ele>172</ele>
        <time>2015-11-01T09:38:09.025Z</time>
      </trkpt>
      <trkpt lat="47.73409" lon="2.08081">
        <ele>173</ele>
        <time>2015-11-01T09:38:08.059Z</time>
      </trkpt>
      <trkpt lat="47.73402" lon="2.08085">
        <ele>174</ele>
        <time>2015-11-01T09:38:07.030Z</time>
      </trkpt>
      <trkpt lat="47.73396" lon="2.0809">
        <ele>174</ele>
        <time>2015-11-01T09:38:06.065Z</time>
      </trkpt>
      <trkpt lat="47.7339" lon="2.08095">
        <ele>174</ele>
        <time>2015-11-01T09:38:05.032Z</time>
      </trkpt>
      <trkpt lat="47.73384" lon="2.08099">
        <ele>173</ele>
        <time>2015-11-01T09:38:04.067Z</time>
      </trkpt>
      <trkpt lat="47.73377" lon="2.08104">
        <ele>174</ele>
        <time>2015-11-01T09:38:03.031Z</time>
      </trkpt>
      <trkpt lat="47.73371" lon="2.08108">
        <ele>174</ele>
        <time>2015-11-01T09:38:02.151Z</time>
      </trkpt>
      <trkpt lat="47.73364" lon="2.08113">
        <ele>174</ele>
        <time>2015-11-01T09:38:01.025Z</time>
      </trkpt>
      <trkpt lat="47.73358" lon="2.08118">
        <ele>174</ele>
        <time>2015-11-01T09:38:00.093Z</time>
      </trkpt>
      <trkpt lat="47.73351" lon="2.08123">
        <ele>174</ele>
        <time>2015-11-01T09:37:59.024Z</time>
      </trkpt>
      <trkpt lat="47.73344" lon="2.08127">
        <ele>174</ele>
        <time>2015-11-01T09:37:58.056Z</time>
      </trkpt>
      <trkpt lat="47.73338" lon="2.08132">
        <ele>174</ele>
        <time>2015-11-01T09:37:57.031Z</time>
      </trkpt>
      <trkpt lat="47.73332" lon="2.08137">
        <ele>174</ele>
        <time>2015-11-01T09:37:56.064Z</time>
      </trkpt>
      <trkpt lat="47.73326" lon="2.08141">
        <ele>174</ele>
        <time>2015-11-01T09:37:55.024Z</time>
      </trkpt>
      <trkpt lat="47.7332" lon="2.08146">
        <ele>174</ele>
        <time>2015-11-01T09:37:54.106Z</time>
      </trkpt>
      <trkpt lat="47.73313" lon="2.0815">
        <ele>175</ele>
        <time>2015-11-01T09:37:53.024Z</time>
      </trkpt>
      <trkpt lat="47.73306" lon="2.08155">
        <ele>175</ele>
        <time>2015-11-01T09:37:52.078Z</time>
      </trkpt>
      <trkpt lat="47.733" lon="2.0816">
        <ele>176</ele>
        <time>2015-11-01T09:37:51.026Z</time>
      </trkpt>
      <trkpt lat="47.73294" lon="2.08164">
        <ele>176</ele>
        <time>2015-11-01T09:37:50.062Z</time>
      </trkpt>
      <trkpt lat="47.73288" lon="2.08169">
        <ele>176</ele>
        <time>2015-11-01T09:37:49.031Z</time>
      </trkpt>
      <trkpt lat="47.73281" lon="2.08172">
        <ele>176</ele>
        <time>2015-11-01T09:37:48.090Z</time>
      </trkpt>
      <trkpt lat="47.73275" lon="2.08176">
        <ele>176</ele>
        <time>2015-11-01T09:37:47.026Z</time>
      </trkpt>
      <trkpt lat="47.73269" lon="2.0818">
        <ele>177</ele>
        <time>2015-11-01T09:37:46.056Z</time>
      </trkpt>
      <trkpt lat="47.73263" lon="2.08184">
        <ele>176</ele>
        <time>2015-11-01T09:37:45.025Z</time>
      </trkpt>
      <trkpt lat="47.73256" lon="2.08189">
        <ele>176</ele>
        <time>2015-11-01T09:37:44.055Z</time>
      </trkpt>
      <trkpt lat="47.7325" lon="2.08193">
        <ele>176</ele>
        <time>2015-11-01T09:37:43.024Z</time>
      </trkpt>
      <trkpt lat="47.73244" lon="2.08197">
        <ele>177</ele>
        <time>2015-11-01T09:37:42.056Z</time>
      </trkpt>
      <trkpt lat="47.73238" lon="2.08202">
        <ele>177</ele>
        <time>2015-11-01T09:37:41.026Z</time>
      </trkpt>
      <trkpt lat="47.73233" lon="2.08206">
        <ele>178</ele>
        <time>2015-11-01T09:37:40.054Z</time>
      </trkpt>
      <trkpt lat="47.73226" lon="2.08209">
        <ele>178</ele>
        <time>2015-11-01T09:37:39.023Z</time>
      </trkpt>
      <trkpt lat="47.7322" lon="2.08214">
        <ele>178</ele>
        <time>2015-11-01T09:37:38.056Z</time>
      </trkpt>
      <trkpt lat="47.73214" lon="2.08218">
        <ele>178</ele>
        <time>2015-11-01T09:37:37.026Z</time>
      </trkpt>
      <trkpt lat="47.73207" lon="2.08222">
        <ele>178</ele>
        <time>2015-11-01T09:37:36.060Z</time>
      </trkpt>
      <trkpt lat="47.73201" lon="2.08227">
        <ele>178</ele>
        <time>2015-11-01T09:37:35.024Z</time>
      </trkpt>
      <trkpt lat="47.73194" lon="2.08232">
        <ele>178</ele>
        <time>2015-11-01T09:37:34.054Z</time>
      </trkpt>
      <trkpt lat="47.73188" lon="2.08236">
        <ele>177</ele>
        <time>2015-11-01T09:37:33.024Z</time>
      </trkpt>
      <trkpt lat="47.73182" lon="2.08241">
        <ele>178</ele>
        <time>2015-11-01T09:37:32.056Z</time>
      </trkpt>
      <trkpt lat="47.73175" lon="2.08245">
        <ele>178</ele>
        <time>2015-11-01T09:37:31.025Z</time>
      </trkpt>
      <trkpt lat="47.73168" lon="2.0825">
        <ele>178</ele>
        <time>2015-11-01T09:37:30.109Z</time>
      </trkpt>
      <trkpt lat="47.73161" lon="2.08255">
        <ele>178</ele>
        <time>2015-11-01T09:37:29.023Z</time>
      </trkpt>
      <trkpt lat="47.73155" lon="2.08259">
        <ele>178</ele>
        <time>2015-11-01T09:37:28.055Z</time>
      </trkpt>
      <trkpt lat="47.73148" lon="2.08264">
        <ele>178</ele>
        <time>2015-11-01T09:37:27.027Z</time>
      </trkpt>
      <trkpt lat="47.73142" lon="2.08268">
        <ele>179</ele>
        <time>2015-11-01T09:37:26.065Z</time>
      </trkpt>
      <trkpt lat="47.73135" lon="2.08273">
        <ele>180</ele>
        <time>2015-11-01T09:37:25.031Z</time>
      </trkpt>
      <trkpt lat="47.73128" lon="2.08278">
        <ele>180</ele>
        <time>2015-11-01T09:37:24.056Z</time>
      </trkpt>
      <trkpt lat="47.73122" lon="2.08282">
        <ele>180</ele>
        <time>2015-11-01T09:37:23.024Z</time>
      </trkpt>
      <trkpt lat="47.73115" lon="2.08287">
        <ele>181</ele>
        <time>2015-11-01T09:37:22.055Z</time>
      </trkpt>
      <trkpt lat="47.73108" lon="2.08292">
        <ele>180</ele>
        <time>2015-11-01T09:37:21.027Z</time>
      </trkpt>
      <trkpt lat="47.73102" lon="2.08296">
        <ele>181</ele>
        <time>2015-11-01T09:37:20.090Z</time>
      </trkpt>
      <trkpt lat="47.73095" lon="2.08301">
        <ele>181</ele>
        <time>2015-11-01T09:37:19.024Z</time>
      </trkpt>
      <trkpt lat="47.73089" lon="2.08306">
        <ele>182</ele>
        <time>2015-11-01T09:37:18.058Z</time>
      </trkpt>
      <trkpt lat="47.73082" lon="2.0831">
        <ele>182</ele>
        <time>2015-11-01T09:37:17.025Z</time>
      </trkpt>
      <trkpt lat="47.73076" lon="2.08315">
        <ele>182</ele>
        <time>2015-11-01T09:37:16.061Z</time>
      </trkpt>
      <trkpt lat="47.7307" lon="2.08319">
        <ele>182</ele>
        <time>2015-11-01T09:37:15.023Z</time>
      </trkpt>
      <trkpt lat="47.73064" lon="2.08324">
        <ele>181</ele>
        <time>2015-11-01T09:37:14.061Z</time>
      </trkpt>
      <trkpt lat="47.73058" lon="2.08327">
        <ele>181</ele>
        <time>2015-11-01T09:37:13.031Z</time>
      </trkpt>
      <trkpt lat="47.73053" lon="2.08331">
        <ele>182</ele>
        <time>2015-11-01T09:37:12.066Z</time>
      </trkpt>
      <trkpt lat="47.73047" lon="2.08335">
        <ele>182</ele>
        <time>2015-11-01T09:37:11.031Z</time>
      </trkpt>
      <trkpt lat="47.73041" lon="2.08339">
        <ele>183</ele>
        <time>2015-11-01T09:37:10.068Z</time>
      </trkpt>
      <trkpt lat="47.73036" lon="2.08343">
        <ele>183</ele>
        <time>2015-11-01T09:37:09.030Z</time>
      </trkpt>
      <trkpt lat="47.73031" lon="2.08347">
        <ele>183</ele>
        <time>2015-11-01T09:37:08.057Z</time>
      </trkpt>
      <trkpt lat="47.73026" lon="2.08351">
        <ele>183</ele>
        <time>2015-11-01T09:37:07.026Z</time>
      </trkpt>
      <trkpt lat="47.7302" lon="2.08355">
        <ele>183</ele>
        <time>2015-11-01T09:37:06.060Z</time>
      </trkpt>
      <trkpt lat="47.73015" lon="2.08359">
        <ele>184</ele>
        <time>2015-11-01T09:37:05.030Z</time>
      </trkpt>
      <trkpt lat="47.73009" lon="2.08363">
        <ele>184</ele>
        <time>2015-11-01T09:37:04.055Z</time>
      </trkpt>
      <trkpt lat="47.73004" lon="2.08367">
        <ele>184</ele>
        <time>2015-11-01T09:37:03.025Z</time>
      </trkpt>
      <trkpt lat="47.72999" lon="2.08371">
        <ele>185</ele>
        <time>2015-11-01T09:37:02.056Z</time>
      </trkpt>
      <trkpt lat="47.72993" lon="2.08375">
        <ele>185</ele>
        <time>2015-11-01T09:37:01.026Z</time>
      </trkpt>
      <trkpt lat="47.72988" lon="2.08378">
        <ele>185</ele>
        <time>2015-11-01T09:37:00.090Z</time>
      </trkpt>
      <trkpt lat="47.72983" lon="2.08381">
        <ele>186</ele>
        <time>2015-11-01T09:36:59.044Z</time>
      </trkpt>
      <trkpt lat="47.72977" lon="2.08385">
        <ele>186</ele>
        <time>2015-11-01T09:36:58.055Z</time>
      </trkpt>
      <trkpt lat="47.72972" lon="2.08388">
        <ele>186</ele>
        <time>2015-11-01T09:36:57.024Z</time>
      </trkpt>
      <trkpt lat="47.72968" lon="2.0839">
        <ele>186</ele>
        <time>2015-11-01T09:36:56.064Z</time>
      </trkpt>
      <trkpt lat="47.7296" lon="2.08394">
        <ele>187</ele>
        <time>2015-11-01T09:36:54.025Z</time>
      </trkpt>
      <trkpt lat="47.72957" lon="2.08393">
        <ele>188</ele>
        <time>2015-11-01T09:36:53.067Z</time>
      </trkpt>
      <trkpt lat="47.72954" lon="2.08383">
        <ele>188</ele>
        <time>2015-11-01T09:36:50.028Z</time>
      </trkpt>
      <trkpt lat="47.72953" lon="2.08379">
        <ele>188</ele>
        <time>2015-11-01T09:36:49.055Z</time>
      </trkpt>
      <trkpt lat="47.72952" lon="2.08366">
        <ele>189</ele>
        <time>2015-11-01T09:36:47.035Z</time>
      </trkpt>
      <trkpt lat="47.72951" lon="2.08359">
        <ele>189</ele>
        <time>2015-11-01T09:36:46.068Z</time>
      </trkpt>
      <trkpt lat="47.7295" lon="2.08352">
        <ele>189</ele>
        <time>2015-11-01T09:36:45.033Z</time>
      </trkpt>
      <trkpt lat="47.7295" lon="2.08344">
        <ele>189</ele>
        <time>2015-11-01T09:36:44.063Z</time>
      </trkpt>
      <trkpt lat="47.72949" lon="2.08335">
        <ele>189</ele>
        <time>2015-11-01T09:36:43.033Z</time>
      </trkpt>
      <trkpt lat="47.72947" lon="2.08327">
        <ele>188</ele>
        <time>2015-11-01T09:36:42.063Z</time>
      </trkpt>
      <trkpt lat="47.72946" lon="2.08318">
        <ele>189</ele>
        <time>2015-11-01T09:36:41.032Z</time>
      </trkpt>
      <trkpt lat="47.72946" lon="2.08309">
        <ele>189</ele>
        <time>2015-11-01T09:36:40.066Z</time>
      </trkpt>
      <trkpt lat="47.72945" lon="2.08301">
        <ele>189</ele>
        <time>2015-11-01T09:36:39.033Z</time>
      </trkpt>
      <trkpt lat="47.72944" lon="2.08293">
        <ele>189</ele>
        <time>2015-11-01T09:36:38.064Z</time>
      </trkpt>
      <trkpt lat="47.72942" lon="2.08285">
        <ele>189</ele>
        <time>2015-11-01T09:36:37.032Z</time>
      </trkpt>
      <trkpt lat="47.72942" lon="2.08276">
        <ele>189</ele>
        <time>2015-11-01T09:36:36.065Z</time>
      </trkpt>
      <trkpt lat="47.72941" lon="2.08268">
        <ele>189</ele>
        <time>2015-11-01T09:36:35.032Z</time>
      </trkpt>
      <trkpt lat="47.7294" lon="2.0826">
        <ele>188</ele>
        <time>2015-11-01T09:36:34.063Z</time>
      </trkpt>
      <trkpt lat="47.72939" lon="2.08251">
        <ele>188</ele>
        <time>2015-11-01T09:36:33.051Z</time>
      </trkpt>
      <trkpt lat="47.72938" lon="2.08242">
        <ele>188</ele>
        <time>2015-11-01T09:36:32.066Z</time>
      </trkpt>
      <trkpt lat="47.72936" lon="2.08234">
        <ele>188</ele>
        <time>2015-11-01T09:36:31.031Z</time>
      </trkpt>
      <trkpt lat="47.72935" lon="2.08224">
        <ele>188</ele>
        <time>2015-11-01T09:36:30.065Z</time>
      </trkpt>
      <trkpt lat="47.72935" lon="2.08216">
        <ele>188</ele>
        <time>2015-11-01T09:36:29.028Z</time>
      </trkpt>
      <trkpt lat="47.72934" lon="2.08206">
        <ele>188</ele>
        <time>2015-11-01T09:36:28.062Z</time>
      </trkpt>
      <trkpt lat="47.72933" lon="2.08197">
        <ele>189</ele>
        <time>2015-11-01T09:36:27.024Z</time>
      </trkpt>
      <trkpt lat="47.72932" lon="2.08188">
        <ele>189</ele>
        <time>2015-11-01T09:36:26.059Z</time>
      </trkpt>
      <trkpt lat="47.72932" lon="2.08178">
        <ele>190</ele>
        <time>2015-11-01T09:36:25.029Z</time>
      </trkpt>
      <trkpt lat="47.72931" lon="2.08169">
        <ele>190</ele>
        <time>2015-11-01T09:36:24.057Z</time>
      </trkpt>
      <trkpt lat="47.72929" lon="2.08159">
        <ele>190</ele>
        <time>2015-11-01T09:36:23.027Z</time>
      </trkpt>
      <trkpt lat="47.72928" lon="2.0815">
        <ele>191</ele>
        <time>2015-11-01T09:36:22.059Z</time>
      </trkpt>
      <trkpt lat="47.72927" lon="2.0814">
        <ele>191</ele>
        <time>2015-11-01T09:36:21.028Z</time>
      </trkpt>
      <trkpt lat="47.72926" lon="2.08131">
        <ele>190</ele>
        <time>2015-11-01T09:36:20.059Z</time>
      </trkpt>
      <trkpt lat="47.72925" lon="2.08121">
        <ele>192</ele>
        <time>2015-11-01T09:36:19.028Z</time>
      </trkpt>
      <trkpt lat="47.72923" lon="2.08113">
        <ele>191</ele>
        <time>2015-11-01T09:36:18.064Z</time>
      </trkpt>
      <trkpt lat="47.72922" lon="2.08104">
        <ele>190</ele>
        <time>2015-11-01T09:36:17.035Z</time>
      </trkpt>
      <trkpt lat="47.72921" lon="2.08095">
        <ele>190</ele>
        <time>2015-11-01T09:36:16.218Z</time>
      </trkpt>
      <trkpt lat="47.7292" lon="2.08086">
        <ele>191</ele>
        <time>2015-11-01T09:36:15.038Z</time>
      </trkpt>
      <trkpt lat="47.7292" lon="2.08077">
        <ele>189</ele>
        <time>2015-11-01T09:36:14.067Z</time>
      </trkpt>
      <trkpt lat="47.72919" lon="2.08068">
        <ele>190</ele>
        <time>2015-11-01T09:36:13.036Z</time>
      </trkpt>
      <trkpt lat="47.72918" lon="2.08059">
        <ele>190</ele>
        <time>2015-11-01T09:36:12.068Z</time>
      </trkpt>
      <trkpt lat="47.72916" lon="2.08051">
        <ele>190</ele>
        <time>2015-11-01T09:36:11.035Z</time>
      </trkpt>
      <trkpt lat="47.72915" lon="2.08044">
        <ele>190</ele>
        <time>2015-11-01T09:36:10.067Z</time>
      </trkpt>
      <trkpt lat="47.72914" lon="2.08035">
        <ele>190</ele>
        <time>2015-11-01T09:36:09.035Z</time>
      </trkpt>
      <trkpt lat="47.72913" lon="2.08027">
        <ele>190</ele>
        <time>2015-11-01T09:36:08.116Z</time>
      </trkpt>
      <trkpt lat="47.72912" lon="2.08019">
        <ele>189</ele>
        <time>2015-11-01T09:36:07.041Z</time>
      </trkpt>
      <trkpt lat="47.72913" lon="2.08011">
        <ele>189</ele>
        <time>2015-11-01T09:36:06.067Z</time>
      </trkpt>
      <trkpt lat="47.72912" lon="2.08002">
        <ele>190</ele>
        <time>2015-11-01T09:36:05.035Z</time>
      </trkpt>
      <trkpt lat="47.72911" lon="2.07993">
        <ele>190</ele>
        <time>2015-11-01T09:36:04.221Z</time>
      </trkpt>
      <trkpt lat="47.7291" lon="2.07984">
        <ele>189</ele>
        <time>2015-11-01T09:36:03.040Z</time>
      </trkpt>
      <trkpt lat="47.72908" lon="2.07976">
        <ele>189</ele>
        <time>2015-11-01T09:36:02.169Z</time>
      </trkpt>
      <trkpt lat="47.72907" lon="2.07967">
        <ele>189</ele>
        <time>2015-11-01T09:36:01.033Z</time>
      </trkpt>
      <trkpt lat="47.72906" lon="2.07957">
        <ele>189</ele>
        <time>2015-11-01T09:36:00.108Z</time>
      </trkpt>
      <trkpt lat="47.72905" lon="2.07949">
        <ele>189</ele>
        <time>2015-11-01T09:35:59.031Z</time>
      </trkpt>
      <trkpt lat="47.72904" lon="2.07941">
        <ele>188</ele>
        <time>2015-11-01T09:35:58.067Z</time>
      </trkpt>
      <trkpt lat="47.72903" lon="2.0793">
        <ele>188</ele>
        <time>2015-11-01T09:35:57.034Z</time>
      </trkpt>
      <trkpt lat="47.72902" lon="2.07922">
        <ele>188</ele>
        <time>2015-11-01T09:35:56.061Z</time>
      </trkpt>
      <trkpt lat="47.72901" lon="2.07912">
        <ele>189</ele>
        <time>2015-11-01T09:35:55.035Z</time>
      </trkpt>
      <trkpt lat="47.72901" lon="2.07903">
        <ele>188</ele>
        <time>2015-11-01T09:35:54.070Z</time>
      </trkpt>
      <trkpt lat="47.729" lon="2.07893">
        <ele>189</ele>
        <time>2015-11-01T09:35:53.034Z</time>
      </trkpt>
      <trkpt lat="47.729" lon="2.07885">
        <ele>188</ele>
        <time>2015-11-01T09:35:52.065Z</time>
      </trkpt>
      <trkpt lat="47.72899" lon="2.07877">
        <ele>188</ele>
        <time>2015-11-01T09:35:51.035Z</time>
      </trkpt>
      <trkpt lat="47.72899" lon="2.07867">
        <ele>188</ele>
        <time>2015-11-01T09:35:50.068Z</time>
      </trkpt>
      <trkpt lat="47.72898" lon="2.07857">
        <ele>189</ele>
        <time>2015-11-01T09:35:49.033Z</time>
      </trkpt>
      <trkpt lat="47.72895" lon="2.07846">
        <ele>191</ele>
        <time>2015-11-01T09:35:48.068Z</time>
      </trkpt>
      <trkpt lat="47.72894" lon="2.07836">
        <ele>191</ele>
        <time>2015-11-01T09:35:47.035Z</time>
      </trkpt>
      <trkpt lat="47.72893" lon="2.07827">
        <ele>191</ele>
        <time>2015-11-01T09:35:46.091Z</time>
      </trkpt>
      <trkpt lat="47.72891" lon="2.07818">
        <ele>191</ele>
        <time>2015-11-01T09:35:45.032Z</time>
      </trkpt>
      <trkpt lat="47.7289" lon="2.0781">
        <ele>190</ele>
        <time>2015-11-01T09:35:44.067Z</time>
      </trkpt>
      <trkpt lat="47.7289" lon="2.07801">
        <ele>191</ele>
        <time>2015-11-01T09:35:43.035Z</time>
      </trkpt>
      <trkpt lat="47.7289" lon="2.07791">
        <ele>192</ele>
        <time>2015-11-01T09:35:42.072Z</time>
      </trkpt>
      <trkpt lat="47.72888" lon="2.07783">
        <ele>191</ele>
        <time>2015-11-01T09:35:41.034Z</time>
      </trkpt>
      <trkpt lat="47.72887" lon="2.07775">
        <ele>190</ele>
        <time>2015-11-01T09:35:40.064Z</time>
      </trkpt>
      <trkpt lat="47.72885" lon="2.07769">
        <ele>190</ele>
        <time>2015-11-01T09:35:39.032Z</time>
      </trkpt>
      <trkpt lat="47.72885" lon="2.0776">
        <ele>190</ele>
        <time>2015-11-01T09:35:38.063Z</time>
      </trkpt>
      <trkpt lat="47.72885" lon="2.07753">
        <ele>190</ele>
        <time>2015-11-01T09:35:37.031Z</time>
      </trkpt>
      <trkpt lat="47.72885" lon="2.07744">
        <ele>189</ele>
        <time>2015-11-01T09:35:36.061Z</time>
      </trkpt>
      <trkpt lat="47.72884" lon="2.07738">
        <ele>189</ele>
        <time>2015-11-01T09:35:35.032Z</time>
      </trkpt>
      <trkpt lat="47.72884" lon="2.07731">
        <ele>189</ele>
        <time>2015-11-01T09:35:34.065Z</time>
      </trkpt>
      <trkpt lat="47.72886" lon="2.07722">
        <ele>189</ele>
        <time>2015-11-01T09:35:33.035Z</time>
      </trkpt>
      <trkpt lat="47.72886" lon="2.07715">
        <ele>188</ele>
        <time>2015-11-01T09:35:32.067Z</time>
      </trkpt>
      <trkpt lat="47.72887" lon="2.07706">
        <ele>189</ele>
        <time>2015-11-01T09:35:31.036Z</time>
      </trkpt>
      <trkpt lat="47.72888" lon="2.07698">
        <ele>189</ele>
        <time>2015-11-01T09:35:30.062Z</time>
      </trkpt>
      <trkpt lat="47.72889" lon="2.07689">
        <ele>189</ele>
        <time>2015-11-01T09:35:29.030Z</time>
      </trkpt>
      <trkpt lat="47.7289" lon="2.07681">
        <ele>189</ele>
        <time>2015-11-01T09:35:28.063Z</time>
      </trkpt>
      <trkpt lat="47.7289" lon="2.07673">
        <ele>189</ele>
        <time>2015-11-01T09:35:27.028Z</time>
      </trkpt>
      <trkpt lat="47.72891" lon="2.07664">
        <ele>188</ele>
        <time>2015-11-01T09:35:26.213Z</time>
      </trkpt>
      <trkpt lat="47.72892" lon="2.07656">
        <ele>188</ele>
        <time>2015-11-01T09:35:25.052Z</time>
      </trkpt>
      <trkpt lat="47.72891" lon="2.07646">
        <ele>188</ele>
        <time>2015-11-01T09:35:24.063Z</time>
      </trkpt>
      <trkpt lat="47.72892" lon="2.07637">
        <ele>189</ele>
        <time>2015-11-01T09:35:23.033Z</time>
      </trkpt>
      <trkpt lat="47.72893" lon="2.07627">
        <ele>190</ele>
        <time>2015-11-01T09:35:22.065Z</time>
      </trkpt>
      <trkpt lat="47.72892" lon="2.07614">
        <ele>189</ele>
        <time>2015-11-01T09:35:20.035Z</time>
      </trkpt>
      <trkpt lat="47.72894" lon="2.07607">
        <ele>188</ele>
        <time>2015-11-01T09:35:19.071Z</time>
      </trkpt>
      <trkpt lat="47.72894" lon="2.076">
        <ele>189</ele>
        <time>2015-11-01T09:35:18.034Z</time>
      </trkpt>
      <trkpt lat="47.72894" lon="2.07592">
        <ele>187</ele>
        <time>2015-11-01T09:35:17.068Z</time>
      </trkpt>
      <trkpt lat="47.72897" lon="2.07582">
        <ele>185</ele>
        <time>2015-11-01T09:35:15.037Z</time>
      </trkpt>
      <trkpt lat="47.72897" lon="2.07573">
        <ele>186</ele>
        <time>2015-11-01T09:35:14.227Z</time>
      </trkpt>
      <trkpt lat="47.72897" lon="2.07566">
        <ele>186</ele>
        <time>2015-11-01T09:35:13.036Z</time>
      </trkpt>
      <trkpt lat="47.72898" lon="2.07557">
        <ele>186</ele>
        <time>2015-11-01T09:35:12.066Z</time>
      </trkpt>
      <trkpt lat="47.72899" lon="2.0755">
        <ele>186</ele>
        <time>2015-11-01T09:35:11.035Z</time>
      </trkpt>
      <trkpt lat="47.72898" lon="2.07542">
        <ele>186</ele>
        <time>2015-11-01T09:35:10.065Z</time>
      </trkpt>
      <trkpt lat="47.72899" lon="2.07534">
        <ele>186</ele>
        <time>2015-11-01T09:35:09.033Z</time>
      </trkpt>
      <trkpt lat="47.729" lon="2.07526">
        <ele>187</ele>
        <time>2015-11-01T09:35:08.066Z</time>
      </trkpt>
      <trkpt lat="47.729" lon="2.07518">
        <ele>186</ele>
        <time>2015-11-01T09:35:07.040Z</time>
      </trkpt>
      <trkpt lat="47.72901" lon="2.0751">
        <ele>187</ele>
        <time>2015-11-01T09:35:06.072Z</time>
      </trkpt>
      <trkpt lat="47.72901" lon="2.07502">
        <ele>186</ele>
        <time>2015-11-01T09:35:05.040Z</time>
      </trkpt>
      <trkpt lat="47.72901" lon="2.07496">
        <ele>186</ele>
        <time>2015-11-01T09:35:04.089Z</time>
      </trkpt>
      <trkpt lat="47.72902" lon="2.07488">
        <ele>186</ele>
        <time>2015-11-01T09:35:03.035Z</time>
      </trkpt>
      <trkpt lat="47.72902" lon="2.07481">
        <ele>185</ele>
        <time>2015-11-01T09:35:02.071Z</time>
      </trkpt>
      <trkpt lat="47.72903" lon="2.07468">
        <ele>185</ele>
        <time>2015-11-01T09:35:00.036Z</time>
      </trkpt>
      <trkpt lat="47.72903" lon="2.0746">
        <ele>185</ele>
        <time>2015-11-01T09:34:59.079Z</time>
      </trkpt>
      <trkpt lat="47.72904" lon="2.07452">
        <ele>185</ele>
        <time>2015-11-01T09:34:58.029Z</time>
      </trkpt>
      <trkpt lat="47.72904" lon="2.07444">
        <ele>185</ele>
        <time>2015-11-01T09:34:57.064Z</time>
      </trkpt>
      <trkpt lat="47.72904" lon="2.07436">
        <ele>186</ele>
        <time>2015-11-01T09:34:56.032Z</time>
      </trkpt>
      <trkpt lat="47.72904" lon="2.07428">
        <ele>186</ele>
        <time>2015-11-01T09:34:55.062Z</time>
      </trkpt>
      <trkpt lat="47.72904" lon="2.07418">
        <ele>187</ele>
        <time>2015-11-01T09:34:54.025Z</time>
      </trkpt>
      <trkpt lat="47.72906" lon="2.07409">
        <ele>187</ele>
        <time>2015-11-01T09:34:53.055Z</time>
      </trkpt>
      <trkpt lat="47.72905" lon="2.07398">
        <ele>188</ele>
        <time>2015-11-01T09:34:52.025Z</time>
      </trkpt>
      <trkpt lat="47.72905" lon="2.07386">
        <ele>190</ele>
        <time>2015-11-01T09:34:51.057Z</time>
      </trkpt>
      <trkpt lat="47.72905" lon="2.07381">
        <ele>190</ele>
        <time>2015-11-01T09:34:50.031Z</time>
      </trkpt>
      <trkpt lat="47.72906" lon="2.07374">
        <ele>190</ele>
        <time>2015-11-01T09:34:49.062Z</time>
      </trkpt>
      <trkpt lat="47.72907" lon="2.07366">
        <ele>190</ele>
        <time>2015-11-01T09:34:48.030Z</time>
      </trkpt>
      <trkpt lat="47.72907" lon="2.07359">
        <ele>190</ele>
        <time>2015-11-01T09:34:47.062Z</time>
      </trkpt>
      <trkpt lat="47.72907" lon="2.07352">
        <ele>190</ele>
        <time>2015-11-01T09:34:46.034Z</time>
      </trkpt>
      <trkpt lat="47.72908" lon="2.07345">
        <ele>190</ele>
        <time>2015-11-01T09:34:45.068Z</time>
      </trkpt>
      <trkpt lat="47.72909" lon="2.07333">
        <ele>190</ele>
        <time>2015-11-01T09:34:43.037Z</time>
      </trkpt>
      <trkpt lat="47.72909" lon="2.07327">
        <ele>190</ele>
        <time>2015-11-01T09:34:42.074Z</time>
      </trkpt>
      <trkpt lat="47.7291" lon="2.07316">
        <ele>190</ele>
        <time>2015-11-01T09:34:40.031Z</time>
      </trkpt>
      <trkpt lat="47.7291" lon="2.07312">
        <ele>190</ele>
        <time>2015-11-01T09:34:39.226Z</time>
      </trkpt>
      <trkpt lat="47.72911" lon="2.07299">
        <ele>190</ele>
        <time>2015-11-01T09:34:37.033Z</time>
      </trkpt>
      <trkpt lat="47.72911" lon="2.07294">
        <ele>190</ele>
        <time>2015-11-01T09:34:36.073Z</time>
      </trkpt>
      <trkpt lat="47.72911" lon="2.07284">
        <ele>190</ele>
        <time>2015-11-01T09:34:34.034Z</time>
      </trkpt>
      <trkpt lat="47.72911" lon="2.0728">
        <ele>190</ele>
        <time>2015-11-01T09:34:33.066Z</time>
      </trkpt>
      <trkpt lat="47.72911" lon="2.07269">
        <ele>189</ele>
        <time>2015-11-01T09:34:31.032Z</time>
      </trkpt>
      <trkpt lat="47.72912" lon="2.07262">
        <ele>189</ele>
        <time>2015-11-01T09:34:30.072Z</time>
      </trkpt>
      <trkpt lat="47.72912" lon="2.0725">
        <ele>189</ele>
        <time>2015-11-01T09:34:28.035Z</time>
      </trkpt>
      <trkpt lat="47.72912" lon="2.07244">
        <ele>189</ele>
        <time>2015-11-01T09:34:27.094Z</time>
      </trkpt>
      <trkpt lat="47.72912" lon="2.07232">
        <ele>189</ele>
        <time>2015-11-01T09:34:25.030Z</time>
      </trkpt>
      <trkpt lat="47.72912" lon="2.07226">
        <ele>188</ele>
        <time>2015-11-01T09:34:24.072Z</time>
      </trkpt>
      <trkpt lat="47.72912" lon="2.07215">
        <ele>188</ele>
        <time>2015-11-01T09:34:22.032Z</time>
      </trkpt>
      <trkpt lat="47.72912" lon="2.07209">
        <ele>188</ele>
        <time>2015-11-01T09:34:21.072Z</time>
      </trkpt>
      <trkpt lat="47.72913" lon="2.07198">
        <ele>187</ele>
        <time>2015-11-01T09:34:19.033Z</time>
      </trkpt>
      <trkpt lat="47.72912" lon="2.07193">
        <ele>186</ele>
        <time>2015-11-01T09:34:18.066Z</time>
      </trkpt>
      <trkpt lat="47.72912" lon="2.07183">
        <ele>188</ele>
        <time>2015-11-01T09:34:16.035Z</time>
      </trkpt>
      <trkpt lat="47.72913" lon="2.07179">
        <ele>187</ele>
        <time>2015-11-01T09:34:15.066Z</time>
      </trkpt>
      <trkpt lat="47.7291" lon="2.07168">
        <ele>185</ele>
        <time>2015-11-01T09:34:10.030Z</time>
      </trkpt>
      <trkpt lat="47.7291" lon="2.07168">
        <ele>184</ele>
        <time>2015-11-01T09:34:09.065Z</time>
      </trkpt>
      <trkpt lat="47.7291" lon="2.07167">
        <ele>185</ele>
        <time>2015-11-01T09:32:34.036Z</time>
      </trkpt>
      <trkpt lat="47.7291" lon="2.07167">
        <ele>185</ele>
        <time>2015-11-01T09:32:33.109Z</time>
      </trkpt>
      <trkpt lat="47.7291" lon="2.07167">
        <ele>185</ele>
        <time>2015-11-01T09:32:33.035Z</time>
      </trkpt>
      <trkpt lat="47.72909" lon="2.07167">
        <ele>185</ele>
        <time>2015-11-01T09:32:32.076Z</time>
      </trkpt>
      <trkpt lat="47.72901" lon="2.07166">
        <ele>184</ele>
        <time>2015-11-01T09:32:27.031Z</time>
      </trkpt>
      <trkpt lat="47.72897" lon="2.07166">
        <ele>184</ele>
        <time>2015-11-01T09:32:26.073Z</time>
      </trkpt>
      <trkpt lat="47.72891" lon="2.07166">
        <ele>184</ele>
        <time>2015-11-01T09:32:24.034Z</time>
      </trkpt>
      <trkpt lat="47.72887" lon="2.07165">
        <ele>184</ele>
        <time>2015-11-01T09:32:23.116Z</time>
      </trkpt>
      <trkpt lat="47.72878" lon="2.07164">
        <ele>184</ele>
        <time>2015-11-01T09:32:21.031Z</time>
      </trkpt>
      <trkpt lat="47.72874" lon="2.07163">
        <ele>184</ele>
        <time>2015-11-01T09:32:20.066Z</time>
      </trkpt>
      <trkpt lat="47.72865" lon="2.07161">
        <ele>185</ele>
        <time>2015-11-01T09:32:18.030Z</time>
      </trkpt>
      <trkpt lat="47.72861" lon="2.07161">
        <ele>185</ele>
        <time>2015-11-01T09:32:17.064Z</time>
      </trkpt>
      <trkpt lat="47.72852" lon="2.07159">
        <ele>185</ele>
        <time>2015-11-01T09:32:15.030Z</time>
      </trkpt>
      <trkpt lat="47.72848" lon="2.07157">
        <ele>185</ele>
        <time>2015-11-01T09:32:14.088Z</time>
      </trkpt>
      <trkpt lat="47.7284" lon="2.07156">
        <ele>186</ele>
        <time>2015-11-01T09:32:12.031Z</time>
      </trkpt>
      <trkpt lat="47.72836" lon="2.07155">
        <ele>185</ele>
        <time>2015-11-01T09:32:11.064Z</time>
      </trkpt>
      <trkpt lat="47.72828" lon="2.07154">
        <ele>185</ele>
        <time>2015-11-01T09:32:09.031Z</time>
      </trkpt>
      <trkpt lat="47.72825" lon="2.07154">
        <ele>185</ele>
        <time>2015-11-01T09:32:08.066Z</time>
      </trkpt>
      <trkpt lat="47.72818" lon="2.07152">
        <ele>186</ele>
        <time>2015-11-01T09:32:06.031Z</time>
      </trkpt>
      <trkpt lat="47.72815" lon="2.07151">
        <ele>186</ele>
        <time>2015-11-01T09:32:05.066Z</time>
      </trkpt>
      <trkpt lat="47.72809" lon="2.07142">
        <ele>185</ele>
        <time>2015-11-01T09:32:02.055Z</time>
      </trkpt>
      <trkpt lat="47.72809" lon="2.07137">
        <ele>185</ele>
        <time>2015-11-01T09:32:01.071Z</time>
      </trkpt>
      <trkpt lat="47.7281" lon="2.07126">
        <ele>185</ele>
        <time>2015-11-01T09:31:59.032Z</time>
      </trkpt>
      <trkpt lat="47.72811" lon="2.0712">
        <ele>186</ele>
        <time>2015-11-01T09:31:58.089Z</time>
      </trkpt>
      <trkpt lat="47.72814" lon="2.07114">
        <ele>186</ele>
        <time>2015-11-01T09:31:57.035Z</time>
      </trkpt>
      <trkpt lat="47.72815" lon="2.07107">
        <ele>185</ele>
        <time>2015-11-01T09:31:56.069Z</time>
      </trkpt>
      <trkpt lat="47.72816" lon="2.071">
        <ele>185</ele>
        <time>2015-11-01T09:31:55.035Z</time>
      </trkpt>
      <trkpt lat="47.72817" lon="2.07093">
        <ele>185</ele>
        <time>2015-11-01T09:31:54.070Z</time>
      </trkpt>
      <trkpt lat="47.72818" lon="2.07086">
        <ele>184</ele>
        <time>2015-11-01T09:31:53.035Z</time>
      </trkpt>
      <trkpt lat="47.72818" lon="2.0708">
        <ele>184</ele>
        <time>2015-11-01T09:31:52.069Z</time>
      </trkpt>
      <trkpt lat="47.72819" lon="2.07073">
        <ele>183</ele>
        <time>2015-11-01T09:31:51.034Z</time>
      </trkpt>
      <trkpt lat="47.72819" lon="2.07066">
        <ele>183</ele>
        <time>2015-11-01T09:31:50.070Z</time>
      </trkpt>
      <trkpt lat="47.72821" lon="2.0706">
        <ele>183</ele>
        <time>2015-11-01T09:31:49.034Z</time>
      </trkpt>
      <trkpt lat="47.72822" lon="2.07052">
        <ele>183</ele>
        <time>2015-11-01T09:31:48.069Z</time>
      </trkpt>
      <trkpt lat="47.72824" lon="2.07045">
        <ele>184</ele>
        <time>2015-11-01T09:31:47.032Z</time>
      </trkpt>
      <trkpt lat="47.72825" lon="2.07039">
        <ele>184</ele>
        <time>2015-11-01T09:31:46.069Z</time>
      </trkpt>
      <trkpt lat="47.72829" lon="2.07028">
        <ele>182</ele>
        <time>2015-11-01T09:31:44.036Z</time>
      </trkpt>
      <trkpt lat="47.7283" lon="2.07022">
        <ele>181</ele>
        <time>2015-11-01T09:31:43.219Z</time>
      </trkpt>
      <trkpt lat="47.72831" lon="2.07015">
        <ele>182</ele>
        <time>2015-11-01T09:31:42.034Z</time>
      </trkpt>
      <trkpt lat="47.72833" lon="2.07008">
        <ele>182</ele>
        <time>2015-11-01T09:31:41.069Z</time>
      </trkpt>
      <trkpt lat="47.72833" lon="2.06996">
        <ele>182</ele>
        <time>2015-11-01T09:31:39.033Z</time>
      </trkpt>
      <trkpt lat="47.72834" lon="2.0699">
        <ele>183</ele>
        <time>2015-11-01T09:31:38.068Z</time>
      </trkpt>
      <trkpt lat="47.72837" lon="2.06979">
        <ele>182</ele>
        <time>2015-11-01T09:31:36.034Z</time>
      </trkpt>
      <trkpt lat="47.72836" lon="2.06975">
        <ele>181</ele>
        <time>2015-11-01T09:31:35.070Z</time>
      </trkpt>
      <trkpt lat="47.72839" lon="2.06964">
        <ele>181</ele>
        <time>2015-11-01T09:31:33.033Z</time>
      </trkpt>
      <trkpt lat="47.7284" lon="2.06959">
        <ele>180</ele>
        <time>2015-11-01T09:31:32.070Z</time>
      </trkpt>
      <trkpt lat="47.7284" lon="2.0695">
        <ele>179</ele>
        <time>2015-11-01T09:31:30.031Z</time>
      </trkpt>
      <trkpt lat="47.7284" lon="2.06944">
        <ele>179</ele>
        <time>2015-11-01T09:31:29.063Z</time>
      </trkpt>
      <trkpt lat="47.72842" lon="2.06934">
        <ele>178</ele>
        <time>2015-11-01T09:31:27.033Z</time>
      </trkpt>
      <trkpt lat="47.72844" lon="2.06928">
        <ele>178</ele>
        <time>2015-11-01T09:31:26.097Z</time>
      </trkpt>
      <trkpt lat="47.72845" lon="2.06919">
        <ele>178</ele>
        <time>2015-11-01T09:31:24.035Z</time>
      </trkpt>
      <trkpt lat="47.72845" lon="2.06913">
        <ele>178</ele>
        <time>2015-11-01T09:31:23.066Z</time>
      </trkpt>
      <trkpt lat="47.72846" lon="2.06905">
        <ele>176</ele>
        <time>2015-11-01T09:31:21.033Z</time>
      </trkpt>
      <trkpt lat="47.72846" lon="2.06897">
        <ele>176</ele>
        <time>2015-11-01T09:31:20.067Z</time>
      </trkpt>
      <trkpt lat="47.72845" lon="2.06889">
        <ele>176</ele>
        <time>2015-11-01T09:31:19.033Z</time>
      </trkpt>
      <trkpt lat="47.72845" lon="2.06882">
        <ele>176</ele>
        <time>2015-11-01T09:31:18.076Z</time>
      </trkpt>
      <trkpt lat="47.72844" lon="2.06874">
        <ele>176</ele>
        <time>2015-11-01T09:31:17.034Z</time>
      </trkpt>
      <trkpt lat="47.72842" lon="2.06867">
        <ele>176</ele>
        <time>2015-11-01T09:31:16.070Z</time>
      </trkpt>
      <trkpt lat="47.7284" lon="2.06861">
        <ele>176</ele>
        <time>2015-11-01T09:31:15.038Z</time>
      </trkpt>
      <trkpt lat="47.72838" lon="2.06855">
        <ele>175</ele>
        <time>2015-11-01T09:31:14.069Z</time>
      </trkpt>
      <trkpt lat="47.72835" lon="2.06843">
        <ele>175</ele>
        <time>2015-11-01T09:31:12.077Z</time>
      </trkpt>
      <trkpt lat="47.72834" lon="2.06836">
        <ele>174</ele>
        <time>2015-11-01T09:31:11.133Z</time>
      </trkpt>
      <trkpt lat="47.72835" lon="2.06829">
        <ele>174</ele>
        <time>2015-11-01T09:31:10.034Z</time>
      </trkpt>
      <trkpt lat="47.72837" lon="2.06822">
        <ele>174</ele>
        <time>2015-11-01T09:31:09.068Z</time>
      </trkpt>
      <trkpt lat="47.72839" lon="2.06815">
        <ele>173</ele>
        <time>2015-11-01T09:31:08.030Z</time>
      </trkpt>
      <trkpt lat="47.72841" lon="2.06808">
        <ele>172</ele>
        <time>2015-11-01T09:31:07.061Z</time>
      </trkpt>
      <trkpt lat="47.72843" lon="2.06802">
        <ele>171</ele>
        <time>2015-11-01T09:31:06.032Z</time>
      </trkpt>
      <trkpt lat="47.72844" lon="2.06797">
        <ele>170</ele>
        <time>2015-11-01T09:31:05.210Z</time>
      </trkpt>
      <trkpt lat="47.72849" lon="2.06785">
        <ele>169</ele>
        <time>2015-11-01T09:31:03.030Z</time>
      </trkpt>
      <trkpt lat="47.7285" lon="2.06779">
        <ele>169</ele>
        <time>2015-11-01T09:31:02.065Z</time>
      </trkpt>
      <trkpt lat="47.72853" lon="2.06767">
        <ele>170</ele>
        <time>2015-11-01T09:31:00.066Z</time>
      </trkpt>
      <trkpt lat="47.72854" lon="2.0676">
        <ele>169</ele>
        <time>2015-11-01T09:30:59.066Z</time>
      </trkpt>
      <trkpt lat="47.72856" lon="2.06748">
        <ele>169</ele>
        <time>2015-11-01T09:30:57.035Z</time>
      </trkpt>
      <trkpt lat="47.72857" lon="2.06742">
        <ele>170</ele>
        <time>2015-11-01T09:30:56.061Z</time>
      </trkpt>
      <trkpt lat="47.7286" lon="2.06732">
        <ele>168</ele>
        <time>2015-11-01T09:30:54.032Z</time>
      </trkpt>
      <trkpt lat="47.72862" lon="2.06726">
        <ele>167</ele>
        <time>2015-11-01T09:30:53.067Z</time>
      </trkpt>
      <trkpt lat="47.72865" lon="2.0672">
        <ele>167</ele>
        <time>2015-11-01T09:30:52.035Z</time>
      </trkpt>
      <trkpt lat="47.72867" lon="2.06714">
        <ele>166</ele>
        <time>2015-11-01T09:30:51.065Z</time>
      </trkpt>
      <trkpt lat="47.72871" lon="2.06703">
        <ele>165</ele>
        <time>2015-11-01T09:30:49.052Z</time>
      </trkpt>
      <trkpt lat="47.7287" lon="2.06697">
        <ele>166</ele>
        <time>2015-11-01T09:30:48.063Z</time>
      </trkpt>
      <trkpt lat="47.7287" lon="2.06689">
        <ele>168</ele>
        <time>2015-11-01T09:30:47.036Z</time>
      </trkpt>
      <trkpt lat="47.72869" lon="2.06683">
        <ele>168</ele>
        <time>2015-11-01T09:30:46.064Z</time>
      </trkpt>
      <trkpt lat="47.72868" lon="2.06674">
        <ele>166</ele>
        <time>2015-11-01T09:30:44.032Z</time>
      </trkpt>
      <trkpt lat="47.72868" lon="2.06668">
        <ele>166</ele>
        <time>2015-11-01T09:30:43.063Z</time>
      </trkpt>
      <trkpt lat="47.7287" lon="2.06656">
        <ele>165</ele>
        <time>2015-11-01T09:30:41.033Z</time>
      </trkpt>
      <trkpt lat="47.7287" lon="2.0665">
        <ele>165</ele>
        <time>2015-11-01T09:30:40.067Z</time>
      </trkpt>
      <trkpt lat="47.7287" lon="2.06638">
        <ele>165</ele>
        <time>2015-11-01T09:30:38.036Z</time>
      </trkpt>
      <trkpt lat="47.72872" lon="2.06632">
        <ele>164</ele>
        <time>2015-11-01T09:30:37.061Z</time>
      </trkpt>
      <trkpt lat="47.72872" lon="2.06619">
        <ele>165</ele>
        <time>2015-11-01T09:30:35.030Z</time>
      </trkpt>
      <trkpt lat="47.72872" lon="2.06612">
        <ele>165</ele>
        <time>2015-11-01T09:30:34.060Z</time>
      </trkpt>
      <trkpt lat="47.72873" lon="2.06604">
        <ele>165</ele>
        <time>2015-11-01T09:30:33.032Z</time>
      </trkpt>
      <trkpt lat="47.72874" lon="2.06598">
        <ele>165</ele>
        <time>2015-11-01T09:30:32.066Z</time>
      </trkpt>
      <trkpt lat="47.72874" lon="2.06585">
        <ele>166</ele>
        <time>2015-11-01T09:30:30.030Z</time>
      </trkpt>
      <trkpt lat="47.72874" lon="2.0658">
        <ele>166</ele>
        <time>2015-11-01T09:30:29.061Z</time>
      </trkpt>
      <trkpt lat="47.72872" lon="2.06567">
        <ele>168</ele>
        <time>2015-11-01T09:30:27.028Z</time>
      </trkpt>
      <trkpt lat="47.72872" lon="2.0656">
        <ele>168</ele>
        <time>2015-11-01T09:30:26.054Z</time>
      </trkpt>
      <trkpt lat="47.72871" lon="2.06549">
        <ele>167</ele>
        <time>2015-11-01T09:30:24.024Z</time>
      </trkpt>
      <trkpt lat="47.7287" lon="2.06541">
        <ele>169</ele>
        <time>2015-11-01T09:30:23.062Z</time>
      </trkpt>
      <trkpt lat="47.7287" lon="2.06532">
        <ele>170</ele>
        <time>2015-11-01T09:30:22.030Z</time>
      </trkpt>
      <trkpt lat="47.7287" lon="2.06525">
        <ele>170</ele>
        <time>2015-11-01T09:30:21.063Z</time>
      </trkpt>
      <trkpt lat="47.7287" lon="2.06518">
        <ele>171</ele>
        <time>2015-11-01T09:30:20.032Z</time>
      </trkpt>
      <trkpt lat="47.72872" lon="2.06509">
        <ele>171</ele>
        <time>2015-11-01T09:30:19.068Z</time>
      </trkpt>
      <trkpt lat="47.7287" lon="2.06501">
        <ele>172</ele>
        <time>2015-11-01T09:30:18.031Z</time>
      </trkpt>
      <trkpt lat="47.7287" lon="2.06493">
        <ele>172</ele>
        <time>2015-11-01T09:30:17.068Z</time>
      </trkpt>
      <trkpt lat="47.7287" lon="2.06485">
        <ele>171</ele>
        <time>2015-11-01T09:30:16.032Z</time>
      </trkpt>
      <trkpt lat="47.72869" lon="2.06477">
        <ele>171</ele>
        <time>2015-11-01T09:30:15.070Z</time>
      </trkpt>
      <trkpt lat="47.72866" lon="2.06465">
        <ele>171</ele>
        <time>2015-11-01T09:30:13.032Z</time>
      </trkpt>
      <trkpt lat="47.72864" lon="2.06459">
        <ele>170</ele>
        <time>2015-11-01T09:30:12.093Z</time>
      </trkpt>
      <trkpt lat="47.72862" lon="2.06452">
        <ele>170</ele>
        <time>2015-11-01T09:30:11.035Z</time>
      </trkpt>
      <trkpt lat="47.72859" lon="2.06446">
        <ele>171</ele>
        <time>2015-11-01T09:30:10.069Z</time>
      </trkpt>
      <trkpt lat="47.72857" lon="2.06439">
        <ele>171</ele>
        <time>2015-11-01T09:30:09.031Z</time>
      </trkpt>
      <trkpt lat="47.72855" lon="2.06433">
        <ele>171</ele>
        <time>2015-11-01T09:30:08.062Z</time>
      </trkpt>
      <trkpt lat="47.72851" lon="2.06422">
        <ele>170</ele>
        <time>2015-11-01T09:30:06.030Z</time>
      </trkpt>
      <trkpt lat="47.7285" lon="2.06416">
        <ele>169</ele>
        <time>2015-11-01T09:30:05.063Z</time>
      </trkpt>
      <trkpt lat="47.72848" lon="2.06406">
        <ele>169</ele>
        <time>2015-11-01T09:30:03.031Z</time>
      </trkpt>
      <trkpt lat="47.72845" lon="2.064">
        <ele>169</ele>
        <time>2015-11-01T09:30:02.080Z</time>
      </trkpt>
      <trkpt lat="47.72842" lon="2.06388">
        <ele>169</ele>
        <time>2015-11-01T09:30:00.071Z</time>
      </trkpt>
      <trkpt lat="47.72841" lon="2.06382">
        <ele>172</ele>
        <time>2015-11-01T09:29:59.066Z</time>
      </trkpt>
      <trkpt lat="47.72842" lon="2.06373">
        <ele>171</ele>
        <time>2015-11-01T09:29:53.032Z</time>
      </trkpt>
      <trkpt lat="47.72843" lon="2.06373">
        <ele>171</ele>
        <time>2015-11-01T09:29:52.067Z</time>
      </trkpt>
      <trkpt lat="47.72851" lon="2.0637">
        <ele>170</ele>
        <time>2015-11-01T09:29:49.032Z</time>
      </trkpt>
      <trkpt lat="47.72856" lon="2.06369">
        <ele>171</ele>
        <time>2015-11-01T09:29:48.071Z</time>
      </trkpt>
      <trkpt lat="47.72861" lon="2.06368">
        <ele>170</ele>
        <time>2015-11-01T09:29:47.032Z</time>
      </trkpt>
      <trkpt lat="47.72866" lon="2.06368">
        <ele>170</ele>
        <time>2015-11-01T09:29:46.093Z</time>
      </trkpt>
      <trkpt lat="47.72871" lon="2.06368">
        <ele>170</ele>
        <time>2015-11-01T09:29:45.033Z</time>
      </trkpt>
      <trkpt lat="47.72875" lon="2.06368">
        <ele>170</ele>
        <time>2015-11-01T09:29:44.073Z</time>
      </trkpt>
      <trkpt lat="47.7288" lon="2.0637">
        <ele>170</ele>
        <time>2015-11-01T09:29:43.032Z</time>
      </trkpt>
      <trkpt lat="47.72885" lon="2.06375">
        <ele>171</ele>
        <time>2015-11-01T09:29:42.060Z</time>
      </trkpt>
      <trkpt lat="47.72887" lon="2.06381">
        <ele>171</ele>
        <time>2015-11-01T09:29:41.028Z</time>
      </trkpt>
      <trkpt lat="47.7289" lon="2.06387">
        <ele>171</ele>
        <time>2015-11-01T09:29:40.055Z</time>
      </trkpt>
      <trkpt lat="47.72893" lon="2.06392">
        <ele>169</ele>
        <time>2015-11-01T09:29:39.026Z</time>
      </trkpt>
      <trkpt lat="47.72898" lon="2.06397">
        <ele>169</ele>
        <time>2015-11-01T09:29:38.059Z</time>
      </trkpt>
      <trkpt lat="47.72904" lon="2.06396">
        <ele>169</ele>
        <time>2015-11-01T09:29:37.027Z</time>
      </trkpt>
      <trkpt lat="47.72908" lon="2.06395">
        <ele>169</ele>
        <time>2015-11-01T09:29:36.055Z</time>
      </trkpt>
      <trkpt lat="47.72914" lon="2.06393">
        <ele>168</ele>
        <time>2015-11-01T09:29:35.029Z</time>
      </trkpt>
      <trkpt lat="47.7292" lon="2.0639">
        <ele>169</ele>
        <time>2015-11-01T09:29:34.064Z</time>
      </trkpt>
      <trkpt lat="47.72925" lon="2.06386">
        <ele>170</ele>
        <time>2015-11-01T09:29:33.034Z</time>
      </trkpt>
      <trkpt lat="47.7293" lon="2.06382">
        <ele>169</ele>
        <time>2015-11-01T09:29:32.233Z</time>
      </trkpt>
      <trkpt lat="47.72935" lon="2.06379">
        <ele>170</ele>
        <time>2015-11-01T09:29:31.029Z</time>
      </trkpt>
      <trkpt lat="47.72941" lon="2.06376">
        <ele>171</ele>
        <time>2015-11-01T09:29:30.080Z</time>
      </trkpt>
      <trkpt lat="47.72947" lon="2.06374">
        <ele>172</ele>
        <time>2015-11-01T09:29:29.024Z</time>
      </trkpt>
      <trkpt lat="47.72952" lon="2.0637">
        <ele>172</ele>
        <time>2015-11-01T09:29:28.061Z</time>
      </trkpt>
      <trkpt lat="47.72959" lon="2.06368">
        <ele>173</ele>
        <time>2015-11-01T09:29:27.041Z</time>
      </trkpt>
      <trkpt lat="47.72963" lon="2.06365">
        <ele>172</ele>
        <time>2015-11-01T09:29:26.061Z</time>
      </trkpt>
      <trkpt lat="47.72969" lon="2.06362">
        <ele>172</ele>
        <time>2015-11-01T09:29:25.036Z</time>
      </trkpt>
      <trkpt lat="47.72974" lon="2.06359">
        <ele>172</ele>
        <time>2015-11-01T09:29:24.061Z</time>
      </trkpt>
      <trkpt lat="47.7298" lon="2.06355">
        <ele>172</ele>
        <time>2015-11-01T09:29:23.032Z</time>
      </trkpt>
      <trkpt lat="47.72986" lon="2.06352">
        <ele>172</ele>
        <time>2015-11-01T09:29:22.064Z</time>
      </trkpt>
      <trkpt lat="47.7299" lon="2.06349">
        <ele>172</ele>
        <time>2015-11-01T09:29:21.026Z</time>
      </trkpt>
      <trkpt lat="47.72997" lon="2.06346">
        <ele>172</ele>
        <time>2015-11-01T09:29:20.210Z</time>
      </trkpt>
      <trkpt lat="47.73003" lon="2.06341">
        <ele>172</ele>
        <time>2015-11-01T09:29:19.028Z</time>
      </trkpt>
      <trkpt lat="47.73008" lon="2.06337">
        <ele>172</ele>
        <time>2015-11-01T09:29:18.058Z</time>
      </trkpt>
      <trkpt lat="47.73014" lon="2.06333">
        <ele>172</ele>
        <time>2015-11-01T09:29:17.042Z</time>
      </trkpt>
      <trkpt lat="47.73019" lon="2.0633">
        <ele>172</ele>
        <time>2015-11-01T09:29:16.058Z</time>
      </trkpt>
      <trkpt lat="47.73024" lon="2.06327">
        <ele>172</ele>
        <time>2015-11-01T09:29:15.026Z</time>
      </trkpt>
      <trkpt lat="47.73029" lon="2.06324">
        <ele>172</ele>
        <time>2015-11-01T09:29:14.061Z</time>
      </trkpt>
      <trkpt lat="47.73035" lon="2.0632">
        <ele>173</ele>
        <time>2015-11-01T09:29:13.039Z</time>
      </trkpt>
      <trkpt lat="47.7304" lon="2.06316">
        <ele>172</ele>
        <time>2015-11-01T09:29:12.068Z</time>
      </trkpt>
      <trkpt lat="47.73048" lon="2.06312">
        <ele>172</ele>
        <time>2015-11-01T09:29:10.035Z</time>
      </trkpt>
      <trkpt lat="47.73052" lon="2.0631">
        <ele>171</ele>
        <time>2015-11-01T09:29:09.081Z</time>
      </trkpt>
      <trkpt lat="47.73056" lon="2.06307">
        <ele>171</ele>
        <time>2015-11-01T09:29:08.024Z</time>
      </trkpt>
      <trkpt lat="47.73062" lon="2.06305">
        <ele>172</ele>
        <time>2015-11-01T09:29:07.053Z</time>
      </trkpt>
      <trkpt lat="47.73066" lon="2.06302">
        <ele>171</ele>
        <time>2015-11-01T09:29:06.023Z</time>
      </trkpt>
      <trkpt lat="47.73071" lon="2.063">
        <ele>172</ele>
        <time>2015-11-01T09:29:05.055Z</time>
      </trkpt>
      <trkpt lat="47.73077" lon="2.06297">
        <ele>172</ele>
        <time>2015-11-01T09:29:04.027Z</time>
      </trkpt>
      <trkpt lat="47.73083" lon="2.06294">
        <ele>172</ele>
        <time>2015-11-01T09:29:03.059Z</time>
      </trkpt>
      <trkpt lat="47.73088" lon="2.06291">
        <ele>171</ele>
        <time>2015-11-01T09:29:02.029Z</time>
      </trkpt>
      <trkpt lat="47.73092" lon="2.06288">
        <ele>171</ele>
        <time>2015-11-01T09:29:01.063Z</time>
      </trkpt>
      <trkpt lat="47.73097" lon="2.06285">
        <ele>170</ele>
        <time>2015-11-01T09:29:00.063Z</time>
      </trkpt>
      <trkpt lat="47.73102" lon="2.06284">
        <ele>171</ele>
        <time>2015-11-01T09:28:59.063Z</time>
      </trkpt>
      <trkpt lat="47.73111" lon="2.0628">
        <ele>170</ele>
        <time>2015-11-01T09:28:57.030Z</time>
      </trkpt>
      <trkpt lat="47.73116" lon="2.06279">
        <ele>170</ele>
        <time>2015-11-01T09:28:56.065Z</time>
      </trkpt>
      <trkpt lat="47.73121" lon="2.06278">
        <ele>170</ele>
        <time>2015-11-01T09:28:55.027Z</time>
      </trkpt>
      <trkpt lat="47.73126" lon="2.06276">
        <ele>169</ele>
        <time>2015-11-01T09:28:54.059Z</time>
      </trkpt>
      <trkpt lat="47.73132" lon="2.06274">
        <ele>170</ele>
        <time>2015-11-01T09:28:53.050Z</time>
      </trkpt>
      <trkpt lat="47.73137" lon="2.06271">
        <ele>169</ele>
        <time>2015-11-01T09:28:52.060Z</time>
      </trkpt>
      <trkpt lat="47.73142" lon="2.0627">
        <ele>170</ele>
        <time>2015-11-01T09:28:51.050Z</time>
      </trkpt>
      <trkpt lat="47.73147" lon="2.06267">
        <ele>170</ele>
        <time>2015-11-01T09:28:50.057Z</time>
      </trkpt>
      <trkpt lat="47.73153" lon="2.06265">
        <ele>170</ele>
        <time>2015-11-01T09:28:49.023Z</time>
      </trkpt>
      <trkpt lat="47.73158" lon="2.06262">
        <ele>169</ele>
        <time>2015-11-01T09:28:48.055Z</time>
      </trkpt>
      <trkpt lat="47.73163" lon="2.06259">
        <ele>170</ele>
        <time>2015-11-01T09:28:47.044Z</time>
      </trkpt>
      <trkpt lat="47.73168" lon="2.06256">
        <ele>169</ele>
        <time>2015-11-01T09:28:46.067Z</time>
      </trkpt>
      <trkpt lat="47.73174" lon="2.06254">
        <ele>170</ele>
        <time>2015-11-01T09:28:45.030Z</time>
      </trkpt>
      <trkpt lat="47.7318" lon="2.06252">
        <ele>170</ele>
        <time>2015-11-01T09:28:44.059Z</time>
      </trkpt>
      <trkpt lat="47.73187" lon="2.06251">
        <ele>171</ele>
        <time>2015-11-01T09:28:43.030Z</time>
      </trkpt>
      <trkpt lat="47.73191" lon="2.0625">
        <ele>170</ele>
        <time>2015-11-01T09:28:42.082Z</time>
      </trkpt>
      <trkpt lat="47.73197" lon="2.06249">
        <ele>170</ele>
        <time>2015-11-01T09:28:41.030Z</time>
      </trkpt>
      <trkpt lat="47.73203" lon="2.06247">
        <ele>170</ele>
        <time>2015-11-01T09:28:40.068Z</time>
      </trkpt>
      <trkpt lat="47.73209" lon="2.06247">
        <ele>170</ele>
        <time>2015-11-01T09:28:39.032Z</time>
      </trkpt>
      <trkpt lat="47.73215" lon="2.06247">
        <ele>169</ele>
        <time>2015-11-01T09:28:38.067Z</time>
      </trkpt>
      <trkpt lat="47.73221" lon="2.06247">
        <ele>168</ele>
        <time>2015-11-01T09:28:37.028Z</time>
      </trkpt>
      <trkpt lat="47.73225" lon="2.06245">
        <ele>167</ele>
        <time>2015-11-01T09:28:36.073Z</time>
      </trkpt>
      <trkpt lat="47.73231" lon="2.06245">
        <ele>168</ele>
        <time>2015-11-01T09:28:35.034Z</time>
      </trkpt>
      <trkpt lat="47.73237" lon="2.06244">
        <ele>168</ele>
        <time>2015-11-01T09:28:34.067Z</time>
      </trkpt>
      <trkpt lat="47.73244" lon="2.06244">
        <ele>169</ele>
        <time>2015-11-01T09:28:33.032Z</time>
      </trkpt>
      <trkpt lat="47.7325" lon="2.06242">
        <ele>169</ele>
        <time>2015-11-01T09:28:32.069Z</time>
      </trkpt>
      <trkpt lat="47.73256" lon="2.06241">
        <ele>170</ele>
        <time>2015-11-01T09:28:31.033Z</time>
      </trkpt>
      <trkpt lat="47.73262" lon="2.06239">
        <ele>169</ele>
        <time>2015-11-01T09:28:30.067Z</time>
      </trkpt>
      <trkpt lat="47.73268" lon="2.06236">
        <ele>169</ele>
        <time>2015-11-01T09:28:29.031Z</time>
      </trkpt>
      <trkpt lat="47.73271" lon="2.06233">
        <ele>168</ele>
        <time>2015-11-01T09:28:28.070Z</time>
      </trkpt>
      <trkpt lat="47.73277" lon="2.0623">
        <ele>167</ele>
        <time>2015-11-01T09:28:27.040Z</time>
      </trkpt>
      <trkpt lat="47.73281" lon="2.06227">
        <ele>166</ele>
        <time>2015-11-01T09:28:26.068Z</time>
      </trkpt>
      <trkpt lat="47.73286" lon="2.06224">
        <ele>167</ele>
        <time>2015-11-01T09:28:25.038Z</time>
      </trkpt>
      <trkpt lat="47.7329" lon="2.0622">
        <ele>166</ele>
        <time>2015-11-01T09:28:24.064Z</time>
      </trkpt>
      <trkpt lat="47.73294" lon="2.06217">
        <ele>165</ele>
        <time>2015-11-01T09:28:23.037Z</time>
      </trkpt>
      <trkpt lat="47.73298" lon="2.06213">
        <ele>164</ele>
        <time>2015-11-01T09:28:22.069Z</time>
      </trkpt>
      <trkpt lat="47.73304" lon="2.0621">
        <ele>164</ele>
        <time>2015-11-01T09:28:21.035Z</time>
      </trkpt>
      <trkpt lat="47.7331" lon="2.06207">
        <ele>165</ele>
        <time>2015-11-01T09:28:20.067Z</time>
      </trkpt>
      <trkpt lat="47.73317" lon="2.06204">
        <ele>165</ele>
        <time>2015-11-01T09:28:19.030Z</time>
      </trkpt>
      <trkpt lat="47.73324" lon="2.06202">
        <ele>165</ele>
        <time>2015-11-01T09:28:18.219Z</time>
      </trkpt>
      <trkpt lat="47.73329" lon="2.06199">
        <ele>164</ele>
        <time>2015-11-01T09:28:17.033Z</time>
      </trkpt>
      <trkpt lat="47.73335" lon="2.06196">
        <ele>165</ele>
        <time>2015-11-01T09:28:16.093Z</time>
      </trkpt>
      <trkpt lat="47.7334" lon="2.06193">
        <ele>166</ele>
        <time>2015-11-01T09:28:15.037Z</time>
      </trkpt>
      <trkpt lat="47.73344" lon="2.06189">
        <ele>165</ele>
        <time>2015-11-01T09:28:14.061Z</time>
      </trkpt>
      <trkpt lat="47.7335" lon="2.06186">
        <ele>166</ele>
        <time>2015-11-01T09:28:13.030Z</time>
      </trkpt>
      <trkpt lat="47.73357" lon="2.06182">
        <ele>167</ele>
        <time>2015-11-01T09:28:12.067Z</time>
      </trkpt>
      <trkpt lat="47.73363" lon="2.06178">
        <ele>168</ele>
        <time>2015-11-01T09:28:11.032Z</time>
      </trkpt>
      <trkpt lat="47.73371" lon="2.06175">
        <ele>170</ele>
        <time>2015-11-01T09:28:10.067Z</time>
      </trkpt>
      <trkpt lat="47.73377" lon="2.06171">
        <ele>170</ele>
        <time>2015-11-01T09:28:09.030Z</time>
      </trkpt>
      <trkpt lat="47.73386" lon="2.06168">
        <ele>171</ele>
        <time>2015-11-01T09:28:08.085Z</time>
      </trkpt>
      <trkpt lat="47.73386" lon="2.06168">
        <ele>171</ele>
        <time>2015-11-01T09:28:08.028Z</time>
      </trkpt>
      <trkpt lat="47.73391" lon="2.06163">
        <ele>171</ele>
        <time>2015-11-01T09:28:07.067Z</time>
      </trkpt>
      <trkpt lat="47.73397" lon="2.06155">
        <ele>171</ele>
        <time>2015-11-01T09:28:05.032Z</time>
      </trkpt>
      <trkpt lat="47.73403" lon="2.06152">
        <ele>170</ele>
        <time>2015-11-01T09:28:04.063Z</time>
      </trkpt>
      <trkpt lat="47.73407" lon="2.06149">
        <ele>169</ele>
        <time>2015-11-01T09:28:03.035Z</time>
      </trkpt>
      <trkpt lat="47.7341" lon="2.06144">
        <ele>169</ele>
        <time>2015-11-01T09:28:02.068Z</time>
      </trkpt>
      <trkpt lat="47.73414" lon="2.06139">
        <ele>169</ele>
        <time>2015-11-01T09:28:01.032Z</time>
      </trkpt>
      <trkpt lat="47.73418" lon="2.06135">
        <ele>167</ele>
        <time>2015-11-01T09:28:00.116Z</time>
      </trkpt>
      <trkpt lat="47.73425" lon="2.06128">
        <ele>165</ele>
        <time>2015-11-01T09:27:58.032Z</time>
      </trkpt>
      <trkpt lat="47.73429" lon="2.06123">
        <ele>164</ele>
        <time>2015-11-01T09:27:57.060Z</time>
      </trkpt>
      <trkpt lat="47.73434" lon="2.0612">
        <ele>164</ele>
        <time>2015-11-01T09:27:56.033Z</time>
      </trkpt>
      <trkpt lat="47.73439" lon="2.06117">
        <ele>165</ele>
        <time>2015-11-01T09:27:55.061Z</time>
      </trkpt>
      <trkpt lat="47.73443" lon="2.06112">
        <ele>165</ele>
        <time>2015-11-01T09:27:54.027Z</time>
      </trkpt>
      <trkpt lat="47.73448" lon="2.06109">
        <ele>165</ele>
        <time>2015-11-01T09:27:53.073Z</time>
      </trkpt>
      <trkpt lat="47.73452" lon="2.06106">
        <ele>165</ele>
        <time>2015-11-01T09:27:52.034Z</time>
      </trkpt>
      <trkpt lat="47.73457" lon="2.06102">
        <ele>165</ele>
        <time>2015-11-01T09:27:51.070Z</time>
      </trkpt>
      <trkpt lat="47.73462" lon="2.06098">
        <ele>164</ele>
        <time>2015-11-01T09:27:50.032Z</time>
      </trkpt>
      <trkpt lat="47.73467" lon="2.06094">
        <ele>164</ele>
        <time>2015-11-01T09:27:49.095Z</time>
      </trkpt>
      <trkpt lat="47.73472" lon="2.06091">
        <ele>164</ele>
        <time>2015-11-01T09:27:48.029Z</time>
      </trkpt>
      <trkpt lat="47.73478" lon="2.06087">
        <ele>164</ele>
        <time>2015-11-01T09:27:47.067Z</time>
      </trkpt>
      <trkpt lat="47.73482" lon="2.06082">
        <ele>163</ele>
        <time>2015-11-01T09:27:46.033Z</time>
      </trkpt>
      <trkpt lat="47.73489" lon="2.06076">
        <ele>164</ele>
        <time>2015-11-01T09:27:45.066Z</time>
      </trkpt>
      <trkpt lat="47.73494" lon="2.06069">
        <ele>164</ele>
        <time>2015-11-01T09:27:44.032Z</time>
      </trkpt>
      <trkpt lat="47.73497" lon="2.06062">
        <ele>164</ele>
        <time>2015-11-01T09:27:43.067Z</time>
      </trkpt>
      <trkpt lat="47.73501" lon="2.06055">
        <ele>165</ele>
        <time>2015-11-01T09:27:42.033Z</time>
      </trkpt>
      <trkpt lat="47.73506" lon="2.0605">
        <ele>165</ele>
        <time>2015-11-01T09:27:41.060Z</time>
      </trkpt>
      <trkpt lat="47.7351" lon="2.06044">
        <ele>166</ele>
        <time>2015-11-01T09:27:40.033Z</time>
      </trkpt>
      <trkpt lat="47.73513" lon="2.06037">
        <ele>167</ele>
        <time>2015-11-01T09:27:39.063Z</time>
      </trkpt>
      <trkpt lat="47.73518" lon="2.06027">
        <ele>167</ele>
        <time>2015-11-01T09:27:37.033Z</time>
      </trkpt>
      <trkpt lat="47.73522" lon="2.06021">
        <ele>166</ele>
        <time>2015-11-01T09:27:36.067Z</time>
      </trkpt>
      <trkpt lat="47.73526" lon="2.06019">
        <ele>166</ele>
        <time>2015-11-01T09:27:35.037Z</time>
      </trkpt>
      <trkpt lat="47.73529" lon="2.06014">
        <ele>165</ele>
        <time>2015-11-01T09:27:34.064Z</time>
      </trkpt>
      <trkpt lat="47.73533" lon="2.0601">
        <ele>165</ele>
        <time>2015-11-01T09:27:33.032Z</time>
      </trkpt>
      <trkpt lat="47.73538" lon="2.06005">
        <ele>166</ele>
        <time>2015-11-01T09:27:32.064Z</time>
      </trkpt>
      <trkpt lat="47.73543" lon="2.06001">
        <ele>166</ele>
        <time>2015-11-01T09:27:31.033Z</time>
      </trkpt>
      <trkpt lat="47.73547" lon="2.05996">
        <ele>166</ele>
        <time>2015-11-01T09:27:30.066Z</time>
      </trkpt>
      <trkpt lat="47.73552" lon="2.05991">
        <ele>165</ele>
        <time>2015-11-01T09:27:29.033Z</time>
      </trkpt>
      <trkpt lat="47.73557" lon="2.05987">
        <ele>165</ele>
        <time>2015-11-01T09:27:28.090Z</time>
      </trkpt>
      <trkpt lat="47.73561" lon="2.05982">
        <ele>165</ele>
        <time>2015-11-01T09:27:27.030Z</time>
      </trkpt>
      <trkpt lat="47.73566" lon="2.05977">
        <ele>164</ele>
        <time>2015-11-01T09:27:26.067Z</time>
      </trkpt>
      <trkpt lat="47.73572" lon="2.05972">
        <ele>165</ele>
        <time>2015-11-01T09:27:25.033Z</time>
      </trkpt>
      <trkpt lat="47.73576" lon="2.05967">
        <ele>166</ele>
        <time>2015-11-01T09:27:24.070Z</time>
      </trkpt>
      <trkpt lat="47.7358" lon="2.05962">
        <ele>165</ele>
        <time>2015-11-01T09:27:23.034Z</time>
      </trkpt>
      <trkpt lat="47.73585" lon="2.05958">
        <ele>166</ele>
        <time>2015-11-01T09:27:22.067Z</time>
      </trkpt>
      <trkpt lat="47.73589" lon="2.05954">
        <ele>166</ele>
        <time>2015-11-01T09:27:21.032Z</time>
      </trkpt>
      <trkpt lat="47.73593" lon="2.05949">
        <ele>165</ele>
        <time>2015-11-01T09:27:20.069Z</time>
      </trkpt>
      <trkpt lat="47.73597" lon="2.05943">
        <ele>165</ele>
        <time>2015-11-01T09:27:19.035Z</time>
      </trkpt>
      <trkpt lat="47.73601" lon="2.05939">
        <ele>165</ele>
        <time>2015-11-01T09:27:18.068Z</time>
      </trkpt>
      <trkpt lat="47.73605" lon="2.05933">
        <ele>164</ele>
        <time>2015-11-01T09:27:17.033Z</time>
      </trkpt>
      <trkpt lat="47.73608" lon="2.05928">
        <ele>164</ele>
        <time>2015-11-01T09:27:16.060Z</time>
      </trkpt>
      <trkpt lat="47.73612" lon="2.05923">
        <ele>164</ele>
        <time>2015-11-01T09:27:15.032Z</time>
      </trkpt>
      <trkpt lat="47.73616" lon="2.05918">
        <ele>164</ele>
        <time>2015-11-01T09:27:14.065Z</time>
      </trkpt>
      <trkpt lat="47.73621" lon="2.05913">
        <ele>164</ele>
        <time>2015-11-01T09:27:13.033Z</time>
      </trkpt>
      <trkpt lat="47.73625" lon="2.05907">
        <ele>164</ele>
        <time>2015-11-01T09:27:12.101Z</time>
      </trkpt>
      <trkpt lat="47.7363" lon="2.05902">
        <ele>164</ele>
        <time>2015-11-01T09:27:11.029Z</time>
      </trkpt>
      <trkpt lat="47.73634" lon="2.05897">
        <ele>164</ele>
        <time>2015-11-01T09:27:10.063Z</time>
      </trkpt>
      <trkpt lat="47.7364" lon="2.05892">
        <ele>164</ele>
        <time>2015-11-01T09:27:09.037Z</time>
      </trkpt>
      <trkpt lat="47.73645" lon="2.05887">
        <ele>164</ele>
        <time>2015-11-01T09:27:08.065Z</time>
      </trkpt>
      <trkpt lat="47.73649" lon="2.05882">
        <ele>164</ele>
        <time>2015-11-01T09:27:07.032Z</time>
      </trkpt>
      <trkpt lat="47.73654" lon="2.05877">
        <ele>164</ele>
        <time>2015-11-01T09:27:06.060Z</time>
      </trkpt>
      <trkpt lat="47.73659" lon="2.05872">
        <ele>164</ele>
        <time>2015-11-01T09:27:05.031Z</time>
      </trkpt>
      <trkpt lat="47.73664" lon="2.05866">
        <ele>164</ele>
        <time>2015-11-01T09:27:04.060Z</time>
      </trkpt>
      <trkpt lat="47.73669" lon="2.05861">
        <ele>164</ele>
        <time>2015-11-01T09:27:03.027Z</time>
      </trkpt>
      <trkpt lat="47.73674" lon="2.05855">
        <ele>164</ele>
        <time>2015-11-01T09:27:02.055Z</time>
      </trkpt>
      <trkpt lat="47.73679" lon="2.0585">
        <ele>164</ele>
        <time>2015-11-01T09:27:01.027Z</time>
      </trkpt>
      <trkpt lat="47.73684" lon="2.05844">
        <ele>164</ele>
        <time>2015-11-01T09:27:00.100Z</time>
      </trkpt>
      <trkpt lat="47.73689" lon="2.05838">
        <ele>164</ele>
        <time>2015-11-01T09:26:59.030Z</time>
      </trkpt>
      <trkpt lat="47.73695" lon="2.05834">
        <ele>165</ele>
        <time>2015-11-01T09:26:58.058Z</time>
      </trkpt>
      <trkpt lat="47.73701" lon="2.05829">
        <ele>166</ele>
        <time>2015-11-01T09:26:57.029Z</time>
      </trkpt>
      <trkpt lat="47.73707" lon="2.05824">
        <ele>166</ele>
        <time>2015-11-01T09:26:56.081Z</time>
      </trkpt>
      <trkpt lat="47.73712" lon="2.05818">
        <ele>167</ele>
        <time>2015-11-01T09:26:55.029Z</time>
      </trkpt>
      <trkpt lat="47.73717" lon="2.05813">
        <ele>166</ele>
        <time>2015-11-01T09:26:54.065Z</time>
      </trkpt>
      <trkpt lat="47.73723" lon="2.0581">
        <ele>166</ele>
        <time>2015-11-01T09:26:53.033Z</time>
      </trkpt>
      <trkpt lat="47.73728" lon="2.05807">
        <ele>165</ele>
        <time>2015-11-01T09:26:52.241Z</time>
      </trkpt>
      <trkpt lat="47.73731" lon="2.05804">
        <ele>165</ele>
        <time>2015-11-01T09:26:51.037Z</time>
      </trkpt>
      <trkpt lat="47.73736" lon="2.05801">
        <ele>164</ele>
        <time>2015-11-01T09:26:50.070Z</time>
      </trkpt>
      <trkpt lat="47.73743" lon="2.05798">
        <ele>167</ele>
        <time>2015-11-01T09:26:49.030Z</time>
      </trkpt>
      <trkpt lat="47.73746" lon="2.05795">
        <ele>166</ele>
        <time>2015-11-01T09:26:48.061Z</time>
      </trkpt>
      <trkpt lat="47.73752" lon="2.05792">
        <ele>166</ele>
        <time>2015-11-01T09:26:47.031Z</time>
      </trkpt>
      <trkpt lat="47.73757" lon="2.05789">
        <ele>166</ele>
        <time>2015-11-01T09:26:46.060Z</time>
      </trkpt>
      <trkpt lat="47.73761" lon="2.05787">
        <ele>166</ele>
        <time>2015-11-01T09:26:45.029Z</time>
      </trkpt>
      <trkpt lat="47.73767" lon="2.05783">
        <ele>166</ele>
        <time>2015-11-01T09:26:44.060Z</time>
      </trkpt>
      <trkpt lat="47.73771" lon="2.05781">
        <ele>165</ele>
        <time>2015-11-01T09:26:43.030Z</time>
      </trkpt>
      <trkpt lat="47.73776" lon="2.05779">
        <ele>163</ele>
        <time>2015-11-01T09:26:42.060Z</time>
      </trkpt>
      <trkpt lat="47.7378" lon="2.05777">
        <ele>163</ele>
        <time>2015-11-01T09:26:41.032Z</time>
      </trkpt>
      <trkpt lat="47.73788" lon="2.05776">
        <ele>163</ele>
        <time>2015-11-01T09:26:40.081Z</time>
      </trkpt>
      <trkpt lat="47.73792" lon="2.05775">
        <ele>162</ele>
        <time>2015-11-01T09:26:39.024Z</time>
      </trkpt>
      <trkpt lat="47.73797" lon="2.05773">
        <ele>162</ele>
        <time>2015-11-01T09:26:38.061Z</time>
      </trkpt>
      <trkpt lat="47.73801" lon="2.05771">
        <ele>162</ele>
        <time>2015-11-01T09:26:37.030Z</time>
      </trkpt>
      <trkpt lat="47.73806" lon="2.05768">
        <ele>163</ele>
        <time>2015-11-01T09:26:36.055Z</time>
      </trkpt>
      <trkpt lat="47.73811" lon="2.05764">
        <ele>164</ele>
        <time>2015-11-01T09:26:35.026Z</time>
      </trkpt>
      <trkpt lat="47.73818" lon="2.05762">
        <ele>165</ele>
        <time>2015-11-01T09:26:34.059Z</time>
      </trkpt>
      <trkpt lat="47.73823" lon="2.0576">
        <ele>164</ele>
        <time>2015-11-01T09:26:33.033Z</time>
      </trkpt>
      <trkpt lat="47.73829" lon="2.05756">
        <ele>164</ele>
        <time>2015-11-01T09:26:32.061Z</time>
      </trkpt>
      <trkpt lat="47.73833" lon="2.05753">
        <ele>163</ele>
        <time>2015-11-01T09:26:31.034Z</time>
      </trkpt>
      <trkpt lat="47.73837" lon="2.05749">
        <ele>162</ele>
        <time>2015-11-01T09:26:30.065Z</time>
      </trkpt>
      <trkpt lat="47.73844" lon="2.05743">
        <ele>162</ele>
        <time>2015-11-01T09:26:29.035Z</time>
      </trkpt>
      <trkpt lat="47.73847" lon="2.05737">
        <ele>162</ele>
        <time>2015-11-01T09:26:28.065Z</time>
      </trkpt>
      <trkpt lat="47.73852" lon="2.05732">
        <ele>162</ele>
        <time>2015-11-01T09:26:27.030Z</time>
      </trkpt>
      <trkpt lat="47.73856" lon="2.05728">
        <ele>163</ele>
        <time>2015-11-01T09:26:26.077Z</time>
      </trkpt>
      <trkpt lat="47.73862" lon="2.05725">
        <ele>164</ele>
        <time>2015-11-01T09:26:25.029Z</time>
      </trkpt>
      <trkpt lat="47.73866" lon="2.05719">
        <ele>163</ele>
        <time>2015-11-01T09:26:24.061Z</time>
      </trkpt>
      <trkpt lat="47.73871" lon="2.05715">
        <ele>162</ele>
        <time>2015-11-01T09:26:23.032Z</time>
      </trkpt>
      <trkpt lat="47.73874" lon="2.0571">
        <ele>161</ele>
        <time>2015-11-01T09:26:22.062Z</time>
      </trkpt>
      <trkpt lat="47.73876" lon="2.05704">
        <ele>162</ele>
        <time>2015-11-01T09:26:21.029Z</time>
      </trkpt>
      <trkpt lat="47.73881" lon="2.05699">
        <ele>162</ele>
        <time>2015-11-01T09:26:20.061Z</time>
      </trkpt>
      <trkpt lat="47.73885" lon="2.05689">
        <ele>160</ele>
        <time>2015-11-01T09:26:18.029Z</time>
      </trkpt>
      <trkpt lat="47.73888" lon="2.05682">
        <ele>161</ele>
        <time>2015-11-01T09:26:17.057Z</time>
      </trkpt>
      <trkpt lat="47.73892" lon="2.05676">
        <ele>161</ele>
        <time>2015-11-01T09:26:16.027Z</time>
      </trkpt>
      <trkpt lat="47.73894" lon="2.05668">
        <ele>161</ele>
        <time>2015-11-01T09:26:15.061Z</time>
      </trkpt>
      <trkpt lat="47.73897" lon="2.0566">
        <ele>161</ele>
        <time>2015-11-01T09:26:14.034Z</time>
      </trkpt>
      <trkpt lat="47.73899" lon="2.05653">
        <ele>162</ele>
        <time>2015-11-01T09:26:13.064Z</time>
      </trkpt>
      <trkpt lat="47.73903" lon="2.05645">
        <ele>162</ele>
        <time>2015-11-01T09:26:12.036Z</time>
      </trkpt>
      <trkpt lat="47.73906" lon="2.05637">
        <ele>162</ele>
        <time>2015-11-01T09:26:11.061Z</time>
      </trkpt>
      <trkpt lat="47.7391" lon="2.0563">
        <ele>162</ele>
        <time>2015-11-01T09:26:10.031Z</time>
      </trkpt>
      <trkpt lat="47.73913" lon="2.05622">
        <ele>162</ele>
        <time>2015-11-01T09:26:09.060Z</time>
      </trkpt>
      <trkpt lat="47.73916" lon="2.05615">
        <ele>162</ele>
        <time>2015-11-01T09:26:08.033Z</time>
      </trkpt>
      <trkpt lat="47.7392" lon="2.05606">
        <ele>162</ele>
        <time>2015-11-01T09:26:07.061Z</time>
      </trkpt>
      <trkpt lat="47.73921" lon="2.05599">
        <ele>162</ele>
        <time>2015-11-01T09:26:06.033Z</time>
      </trkpt>
      <trkpt lat="47.73925" lon="2.05592">
        <ele>162</ele>
        <time>2015-11-01T09:26:05.057Z</time>
      </trkpt>
      <trkpt lat="47.73928" lon="2.05585">
        <ele>163</ele>
        <time>2015-11-01T09:26:04.024Z</time>
      </trkpt>
      <trkpt lat="47.7393" lon="2.05577">
        <ele>163</ele>
        <time>2015-11-01T09:26:03.075Z</time>
      </trkpt>
      <trkpt lat="47.73933" lon="2.05569">
        <ele>163</ele>
        <time>2015-11-01T09:26:02.030Z</time>
      </trkpt>
      <trkpt lat="47.73936" lon="2.05562">
        <ele>162</ele>
        <time>2015-11-01T09:26:01.060Z</time>
      </trkpt>
      <trkpt lat="47.7394" lon="2.05555">
        <ele>162</ele>
        <time>2015-11-01T09:26:00.024Z</time>
      </trkpt>
      <trkpt lat="47.73943" lon="2.05548">
        <ele>162</ele>
        <time>2015-11-01T09:25:59.054Z</time>
      </trkpt>
      <trkpt lat="47.73946" lon="2.05539">
        <ele>162</ele>
        <time>2015-11-01T09:25:58.023Z</time>
      </trkpt>
      <trkpt lat="47.73949" lon="2.05531">
        <ele>162</ele>
        <time>2015-11-01T09:25:57.059Z</time>
      </trkpt>
      <trkpt lat="47.73952" lon="2.05524">
        <ele>162</ele>
        <time>2015-11-01T09:25:56.033Z</time>
      </trkpt>
      <trkpt lat="47.73956" lon="2.05517">
        <ele>162</ele>
        <time>2015-11-01T09:25:55.070Z</time>
      </trkpt>
      <trkpt lat="47.73961" lon="2.0551">
        <ele>162</ele>
        <time>2015-11-01T09:25:54.033Z</time>
      </trkpt>
      <trkpt lat="47.73964" lon="2.05501">
        <ele>162</ele>
        <time>2015-11-01T09:25:53.070Z</time>
      </trkpt>
      <trkpt lat="47.73967" lon="2.05493">
        <ele>162</ele>
        <time>2015-11-01T09:25:52.032Z</time>
      </trkpt>
      <trkpt lat="47.73969" lon="2.05485">
        <ele>163</ele>
        <time>2015-11-01T09:25:51.253Z</time>
      </trkpt>
      <trkpt lat="47.73971" lon="2.05476">
        <ele>164</ele>
        <time>2015-11-01T09:25:50.032Z</time>
      </trkpt>
      <trkpt lat="47.73972" lon="2.05467">
        <ele>165</ele>
        <time>2015-11-01T09:25:49.062Z</time>
      </trkpt>
      <trkpt lat="47.73975" lon="2.0546">
        <ele>166</ele>
        <time>2015-11-01T09:25:48.030Z</time>
      </trkpt>
      <trkpt lat="47.73976" lon="2.05454">
        <ele>165</ele>
        <time>2015-11-01T09:25:47.082Z</time>
      </trkpt>
      <trkpt lat="47.73977" lon="2.05447">
        <ele>165</ele>
        <time>2015-11-01T09:25:46.032Z</time>
      </trkpt>
      <trkpt lat="47.7398" lon="2.05439">
        <ele>165</ele>
        <time>2015-11-01T09:25:45.059Z</time>
      </trkpt>
      <trkpt lat="47.73981" lon="2.05432">
        <ele>165</ele>
        <time>2015-11-01T09:25:44.027Z</time>
      </trkpt>
      <trkpt lat="47.73984" lon="2.05424">
        <ele>165</ele>
        <time>2015-11-01T09:25:43.060Z</time>
      </trkpt>
      <trkpt lat="47.73986" lon="2.05416">
        <ele>164</ele>
        <time>2015-11-01T09:25:42.029Z</time>
      </trkpt>
      <trkpt lat="47.73988" lon="2.05407">
        <ele>164</ele>
        <time>2015-11-01T09:25:41.063Z</time>
      </trkpt>
      <trkpt lat="47.73991" lon="2.05399">
        <ele>164</ele>
        <time>2015-11-01T09:25:40.037Z</time>
      </trkpt>
      <trkpt lat="47.73994" lon="2.0539">
        <ele>164</ele>
        <time>2015-11-01T09:25:39.218Z</time>
      </trkpt>
      <trkpt lat="47.73995" lon="2.05382">
        <ele>165</ele>
        <time>2015-11-01T09:25:38.034Z</time>
      </trkpt>
      <trkpt lat="47.73998" lon="2.05373">
        <ele>165</ele>
        <time>2015-11-01T09:25:37.070Z</time>
      </trkpt>
      <trkpt lat="47.74001" lon="2.05365">
        <ele>165</ele>
        <time>2015-11-01T09:25:36.035Z</time>
      </trkpt>
      <trkpt lat="47.74004" lon="2.05358">
        <ele>164</ele>
        <time>2015-11-01T09:25:35.064Z</time>
      </trkpt>
      <trkpt lat="47.74006" lon="2.05352">
        <ele>164</ele>
        <time>2015-11-01T09:25:34.033Z</time>
      </trkpt>
      <trkpt lat="47.74008" lon="2.05344">
        <ele>163</ele>
        <time>2015-11-01T09:25:33.070Z</time>
      </trkpt>
      <trkpt lat="47.74011" lon="2.05338">
        <ele>163</ele>
        <time>2015-11-01T09:25:32.034Z</time>
      </trkpt>
      <trkpt lat="47.74012" lon="2.05331">
        <ele>162</ele>
        <time>2015-11-01T09:25:31.085Z</time>
      </trkpt>
      <trkpt lat="47.74015" lon="2.05323">
        <ele>162</ele>
        <time>2015-11-01T09:25:30.034Z</time>
      </trkpt>
      <trkpt lat="47.74017" lon="2.05315">
        <ele>162</ele>
        <time>2015-11-01T09:25:29.069Z</time>
      </trkpt>
      <trkpt lat="47.7402" lon="2.05307">
        <ele>162</ele>
        <time>2015-11-01T09:25:28.032Z</time>
      </trkpt>
      <trkpt lat="47.74022" lon="2.05298">
        <ele>162</ele>
        <time>2015-11-01T09:25:27.061Z</time>
      </trkpt>
      <trkpt lat="47.74025" lon="2.0529">
        <ele>162</ele>
        <time>2015-11-01T09:25:26.033Z</time>
      </trkpt>
      <trkpt lat="47.74027" lon="2.05282">
        <ele>162</ele>
        <time>2015-11-01T09:25:25.065Z</time>
      </trkpt>
      <trkpt lat="47.74029" lon="2.05274">
        <ele>162</ele>
        <time>2015-11-01T09:25:24.029Z</time>
      </trkpt>
      <trkpt lat="47.74032" lon="2.05266">
        <ele>162</ele>
        <time>2015-11-01T09:25:23.068Z</time>
      </trkpt>
      <trkpt lat="47.74035" lon="2.05258">
        <ele>162</ele>
        <time>2015-11-01T09:25:22.032Z</time>
      </trkpt>
      <trkpt lat="47.74038" lon="2.05249">
        <ele>162</ele>
        <time>2015-11-01T09:25:21.067Z</time>
      </trkpt>
      <trkpt lat="47.74041" lon="2.05241">
        <ele>163</ele>
        <time>2015-11-01T09:25:20.038Z</time>
      </trkpt>
      <trkpt lat="47.74043" lon="2.05233">
        <ele>161</ele>
        <time>2015-11-01T09:25:19.067Z</time>
      </trkpt>
      <trkpt lat="47.74046" lon="2.05225">
        <ele>162</ele>
        <time>2015-11-01T09:25:18.032Z</time>
      </trkpt>
      <trkpt lat="47.74048" lon="2.05217">
        <ele>162</ele>
        <time>2015-11-01T09:25:17.068Z</time>
      </trkpt>
      <trkpt lat="47.7405" lon="2.0521">
        <ele>161</ele>
        <time>2015-11-01T09:25:16.030Z</time>
      </trkpt>
      <trkpt lat="47.74052" lon="2.05201">
        <ele>162</ele>
        <time>2015-11-01T09:25:15.160Z</time>
      </trkpt>
      <trkpt lat="47.74053" lon="2.05194">
        <ele>162</ele>
        <time>2015-11-01T09:25:14.029Z</time>
      </trkpt>
      <trkpt lat="47.74055" lon="2.05185">
        <ele>162</ele>
        <time>2015-11-01T09:25:13.065Z</time>
      </trkpt>
      <trkpt lat="47.74057" lon="2.05177">
        <ele>162</ele>
        <time>2015-11-01T09:25:12.028Z</time>
      </trkpt>
      <trkpt lat="47.74058" lon="2.05169">
        <ele>163</ele>
        <time>2015-11-01T09:25:11.067Z</time>
      </trkpt>
      <trkpt lat="47.7406" lon="2.05161">
        <ele>163</ele>
        <time>2015-11-01T09:25:10.056Z</time>
      </trkpt>
      <trkpt lat="47.74061" lon="2.05154">
        <ele>164</ele>
        <time>2015-11-01T09:25:09.063Z</time>
      </trkpt>
      <trkpt lat="47.74062" lon="2.05148">
        <ele>163</ele>
        <time>2015-11-01T09:25:08.032Z</time>
      </trkpt>
      <trkpt lat="47.74065" lon="2.05144">
        <ele>164</ele>
        <time>2015-11-01T09:25:07.062Z</time>
      </trkpt>
      <trkpt lat="47.74072" lon="2.05143">
        <ele>164</ele>
        <time>2015-11-01T09:25:05.031Z</time>
      </trkpt>
      <trkpt lat="47.74076" lon="2.05145">
        <ele>163</ele>
        <time>2015-11-01T09:25:04.066Z</time>
      </trkpt>
      <trkpt lat="47.74081" lon="2.05147">
        <ele>163</ele>
        <time>2015-11-01T09:25:03.030Z</time>
      </trkpt>
      <trkpt lat="47.74087" lon="2.05149">
        <ele>162</ele>
        <time>2015-11-01T09:25:02.066Z</time>
      </trkpt>
      <trkpt lat="47.74092" lon="2.05151">
        <ele>162</ele>
        <time>2015-11-01T09:25:01.032Z</time>
      </trkpt>
      <trkpt lat="47.74098" lon="2.05154">
        <ele>163</ele>
        <time>2015-11-01T09:25:00.102Z</time>
      </trkpt>
      <trkpt lat="47.74104" lon="2.05154">
        <ele>163</ele>
        <time>2015-11-01T09:24:59.032Z</time>
      </trkpt>
      <trkpt lat="47.7411" lon="2.05155">
        <ele>163</ele>
        <time>2015-11-01T09:24:58.066Z</time>
      </trkpt>
      <trkpt lat="47.74117" lon="2.05157">
        <ele>164</ele>
        <time>2015-11-01T09:24:57.034Z</time>
      </trkpt>
      <trkpt lat="47.74122" lon="2.05156">
        <ele>163</ele>
        <time>2015-11-01T09:24:56.077Z</time>
      </trkpt>
      <trkpt lat="47.74128" lon="2.05155">
        <ele>163</ele>
        <time>2015-11-01T09:24:55.036Z</time>
      </trkpt>
      <trkpt lat="47.74132" lon="2.05155">
        <ele>162</ele>
        <time>2015-11-01T09:24:54.123Z</time>
      </trkpt>
      <trkpt lat="47.74138" lon="2.05156">
        <ele>162</ele>
        <time>2015-11-01T09:24:53.032Z</time>
      </trkpt>
      <trkpt lat="47.74144" lon="2.05156">
        <ele>162</ele>
        <time>2015-11-01T09:24:52.231Z</time>
      </trkpt>
      <trkpt lat="47.74151" lon="2.05157">
        <ele>162</ele>
        <time>2015-11-01T09:24:51.033Z</time>
      </trkpt>
      <trkpt lat="47.74157" lon="2.05159">
        <ele>162</ele>
        <time>2015-11-01T09:24:50.068Z</time>
      </trkpt>
      <trkpt lat="47.74163" lon="2.0516">
        <ele>161</ele>
        <time>2015-11-01T09:24:49.032Z</time>
      </trkpt>
      <trkpt lat="47.74169" lon="2.05161">
        <ele>161</ele>
        <time>2015-11-01T09:24:48.071Z</time>
      </trkpt>
      <trkpt lat="47.74175" lon="2.05163">
        <ele>161</ele>
        <time>2015-11-01T09:24:47.033Z</time>
      </trkpt>
      <trkpt lat="47.74182" lon="2.05163">
        <ele>161</ele>
        <time>2015-11-01T09:24:46.062Z</time>
      </trkpt>
      <trkpt lat="47.74189" lon="2.05165">
        <ele>161</ele>
        <time>2015-11-01T09:24:45.033Z</time>
      </trkpt>
      <trkpt lat="47.74195" lon="2.05166">
        <ele>161</ele>
        <time>2015-11-01T09:24:44.068Z</time>
      </trkpt>
      <trkpt lat="47.74202" lon="2.05167">
        <ele>161</ele>
        <time>2015-11-01T09:24:43.032Z</time>
      </trkpt>
      <trkpt lat="47.74208" lon="2.05169">
        <ele>160</ele>
        <time>2015-11-01T09:24:42.066Z</time>
      </trkpt>
      <trkpt lat="47.74215" lon="2.05171">
        <ele>160</ele>
        <time>2015-11-01T09:24:41.033Z</time>
      </trkpt>
      <trkpt lat="47.74223" lon="2.05172">
        <ele>160</ele>
        <time>2015-11-01T09:24:40.068Z</time>
      </trkpt>
      <trkpt lat="47.7423" lon="2.05174">
        <ele>160</ele>
        <time>2015-11-01T09:24:39.032Z</time>
      </trkpt>
      <trkpt lat="47.74238" lon="2.05175">
        <ele>160</ele>
        <time>2015-11-01T09:24:38.065Z</time>
      </trkpt>
      <trkpt lat="47.74245" lon="2.05177">
        <ele>161</ele>
        <time>2015-11-01T09:24:37.032Z</time>
      </trkpt>
      <trkpt lat="47.74253" lon="2.05178">
        <ele>161</ele>
        <time>2015-11-01T09:24:36.067Z</time>
      </trkpt>
      <trkpt lat="47.7426" lon="2.0518">
        <ele>161</ele>
        <time>2015-11-01T09:24:35.029Z</time>
      </trkpt>
      <trkpt lat="47.74267" lon="2.05181">
        <ele>161</ele>
        <time>2015-11-01T09:24:34.065Z</time>
      </trkpt>
      <trkpt lat="47.74274" lon="2.05183">
        <ele>161</ele>
        <time>2015-11-01T09:24:33.053Z</time>
      </trkpt>
      <trkpt lat="47.74282" lon="2.05185">
        <ele>161</ele>
        <time>2015-11-01T09:24:32.067Z</time>
      </trkpt>
      <trkpt lat="47.74289" lon="2.05187">
        <ele>162</ele>
        <time>2015-11-01T09:24:31.032Z</time>
      </trkpt>
      <trkpt lat="47.74297" lon="2.05189">
        <ele>162</ele>
        <time>2015-11-01T09:24:30.059Z</time>
      </trkpt>
      <trkpt lat="47.74304" lon="2.0519">
        <ele>162</ele>
        <time>2015-11-01T09:24:29.028Z</time>
      </trkpt>
      <trkpt lat="47.74312" lon="2.05192">
        <ele>163</ele>
        <time>2015-11-01T09:24:28.059Z</time>
      </trkpt>
      <trkpt lat="47.7432" lon="2.05193">
        <ele>163</ele>
        <time>2015-11-01T09:24:27.029Z</time>
      </trkpt>
      <trkpt lat="47.74327" lon="2.05195">
        <ele>163</ele>
        <time>2015-11-01T09:24:26.059Z</time>
      </trkpt>
      <trkpt lat="47.74335" lon="2.05197">
        <ele>164</ele>
        <time>2015-11-01T09:24:25.024Z</time>
      </trkpt>
      <trkpt lat="47.74343" lon="2.052">
        <ele>164</ele>
        <time>2015-11-01T09:24:24.056Z</time>
      </trkpt>
      <trkpt lat="47.74351" lon="2.05202">
        <ele>164</ele>
        <time>2015-11-01T09:24:23.032Z</time>
      </trkpt>
      <trkpt lat="47.74359" lon="2.05204">
        <ele>165</ele>
        <time>2015-11-01T09:24:22.065Z</time>
      </trkpt>
      <trkpt lat="47.74367" lon="2.05206">
        <ele>165</ele>
        <time>2015-11-01T09:24:21.036Z</time>
      </trkpt>
      <trkpt lat="47.74375" lon="2.05207">
        <ele>164</ele>
        <time>2015-11-01T09:24:20.066Z</time>
      </trkpt>
      <trkpt lat="47.74383" lon="2.05207">
        <ele>164</ele>
        <time>2015-11-01T09:24:19.037Z</time>
      </trkpt>
      <trkpt lat="47.7439" lon="2.05207">
        <ele>164</ele>
        <time>2015-11-01T09:24:18.068Z</time>
      </trkpt>
      <trkpt lat="47.74397" lon="2.05206">
        <ele>164</ele>
        <time>2015-11-01T09:24:17.042Z</time>
      </trkpt>
      <trkpt lat="47.74404" lon="2.05205">
        <ele>165</ele>
        <time>2015-11-01T09:24:16.064Z</time>
      </trkpt>
      <trkpt lat="47.74411" lon="2.05204">
        <ele>165</ele>
        <time>2015-11-01T09:24:15.033Z</time>
      </trkpt>
      <trkpt lat="47.74418" lon="2.05204">
        <ele>166</ele>
        <time>2015-11-01T09:24:14.064Z</time>
      </trkpt>
      <trkpt lat="47.74425" lon="2.05204">
        <ele>166</ele>
        <time>2015-11-01T09:24:13.035Z</time>
      </trkpt>
      <trkpt lat="47.74431" lon="2.05204">
        <ele>166</ele>
        <time>2015-11-01T09:24:12.085Z</time>
      </trkpt>
      <trkpt lat="47.74438" lon="2.05204">
        <ele>166</ele>
        <time>2015-11-01T09:24:11.021Z</time>
      </trkpt>
      <trkpt lat="47.74444" lon="2.05204">
        <ele>166</ele>
        <time>2015-11-01T09:24:10.060Z</time>
      </trkpt>
      <trkpt lat="47.74452" lon="2.05203">
        <ele>166</ele>
        <time>2015-11-01T09:24:09.036Z</time>
      </trkpt>
      <trkpt lat="47.74458" lon="2.05203">
        <ele>165</ele>
        <time>2015-11-01T09:24:08.089Z</time>
      </trkpt>
      <trkpt lat="47.74466" lon="2.05203">
        <ele>164</ele>
        <time>2015-11-01T09:24:07.033Z</time>
      </trkpt>
      <trkpt lat="47.74473" lon="2.05203">
        <ele>164</ele>
        <time>2015-11-01T09:24:06.067Z</time>
      </trkpt>
      <trkpt lat="47.7448" lon="2.05202">
        <ele>164</ele>
        <time>2015-11-01T09:24:05.032Z</time>
      </trkpt>
      <trkpt lat="47.74488" lon="2.05201">
        <ele>164</ele>
        <time>2015-11-01T09:24:04.237Z</time>
      </trkpt>
      <trkpt lat="47.74495" lon="2.05201">
        <ele>164</ele>
        <time>2015-11-01T09:24:03.033Z</time>
      </trkpt>
      <trkpt lat="47.74502" lon="2.05201">
        <ele>163</ele>
        <time>2015-11-01T09:24:02.068Z</time>
      </trkpt>
      <trkpt lat="47.74509" lon="2.052">
        <ele>163</ele>
        <time>2015-11-01T09:24:01.025Z</time>
      </trkpt>
      <trkpt lat="47.74517" lon="2.052">
        <ele>163</ele>
        <time>2015-11-01T09:24:00.092Z</time>
      </trkpt>
      <trkpt lat="47.74524" lon="2.052">
        <ele>163</ele>
        <time>2015-11-01T09:23:59.030Z</time>
      </trkpt>
      <trkpt lat="47.74531" lon="2.05201">
        <ele>163</ele>
        <time>2015-11-01T09:23:58.067Z</time>
      </trkpt>
      <trkpt lat="47.74539" lon="2.05201">
        <ele>163</ele>
        <time>2015-11-01T09:23:57.036Z</time>
      </trkpt>
      <trkpt lat="47.74547" lon="2.05201">
        <ele>164</ele>
        <time>2015-11-01T09:23:56.086Z</time>
      </trkpt>
      <trkpt lat="47.74554" lon="2.05201">
        <ele>164</ele>
        <time>2015-11-01T09:23:55.024Z</time>
      </trkpt>
      <trkpt lat="47.74561" lon="2.052">
        <ele>164</ele>
        <time>2015-11-01T09:23:54.061Z</time>
      </trkpt>
      <trkpt lat="47.74569" lon="2.05201">
        <ele>164</ele>
        <time>2015-11-01T09:23:53.030Z</time>
      </trkpt>
      <trkpt lat="47.74576" lon="2.05201">
        <ele>164</ele>
        <time>2015-11-01T09:23:52.065Z</time>
      </trkpt>
      <trkpt lat="47.74583" lon="2.05202">
        <ele>163</ele>
        <time>2015-11-01T09:23:51.031Z</time>
      </trkpt>
      <trkpt lat="47.74591" lon="2.05204">
        <ele>163</ele>
        <time>2015-11-01T09:23:50.067Z</time>
      </trkpt>
      <trkpt lat="47.74598" lon="2.05207">
        <ele>163</ele>
        <time>2015-11-01T09:23:49.030Z</time>
      </trkpt>
      <trkpt lat="47.74605" lon="2.0521">
        <ele>163</ele>
        <time>2015-11-01T09:23:48.065Z</time>
      </trkpt>
      <trkpt lat="47.74612" lon="2.05214">
        <ele>163</ele>
        <time>2015-11-01T09:23:47.030Z</time>
      </trkpt>
      <trkpt lat="47.74619" lon="2.05219">
        <ele>163</ele>
        <time>2015-11-01T09:23:46.065Z</time>
      </trkpt>
      <trkpt lat="47.74626" lon="2.05223">
        <ele>163</ele>
        <time>2015-11-01T09:23:45.026Z</time>
      </trkpt>
      <trkpt lat="47.74633" lon="2.05228">
        <ele>163</ele>
        <time>2015-11-01T09:23:44.057Z</time>
      </trkpt>
      <trkpt lat="47.74641" lon="2.05232">
        <ele>163</ele>
        <time>2015-11-01T09:23:43.026Z</time>
      </trkpt>
      <trkpt lat="47.74648" lon="2.05237">
        <ele>163</ele>
        <time>2015-11-01T09:23:42.064Z</time>
      </trkpt>
      <trkpt lat="47.74655" lon="2.05242">
        <ele>163</ele>
        <time>2015-11-01T09:23:41.031Z</time>
      </trkpt>
      <trkpt lat="47.74662" lon="2.05247">
        <ele>163</ele>
        <time>2015-11-01T09:23:40.239Z</time>
      </trkpt>
      <trkpt lat="47.7467" lon="2.05251">
        <ele>163</ele>
        <time>2015-11-01T09:23:39.029Z</time>
      </trkpt>
      <trkpt lat="47.74677" lon="2.05256">
        <ele>163</ele>
        <time>2015-11-01T09:23:38.067Z</time>
      </trkpt>
      <trkpt lat="47.74684" lon="2.0526">
        <ele>163</ele>
        <time>2015-11-01T09:23:37.032Z</time>
      </trkpt>
      <trkpt lat="47.74692" lon="2.05265">
        <ele>163</ele>
        <time>2015-11-01T09:23:36.068Z</time>
      </trkpt>
      <trkpt lat="47.74699" lon="2.0527">
        <ele>163</ele>
        <time>2015-11-01T09:23:35.032Z</time>
      </trkpt>
      <trkpt lat="47.74707" lon="2.05275">
        <ele>163</ele>
        <time>2015-11-01T09:23:34.067Z</time>
      </trkpt>
      <trkpt lat="47.74714" lon="2.0528">
        <ele>163</ele>
        <time>2015-11-01T09:23:33.032Z</time>
      </trkpt>
      <trkpt lat="47.74722" lon="2.05284">
        <ele>163</ele>
        <time>2015-11-01T09:23:32.068Z</time>
      </trkpt>
      <trkpt lat="47.74729" lon="2.05289">
        <ele>163</ele>
        <time>2015-11-01T09:23:31.031Z</time>
      </trkpt>
      <trkpt lat="47.74737" lon="2.05294">
        <ele>164</ele>
        <time>2015-11-01T09:23:30.092Z</time>
      </trkpt>
      <trkpt lat="47.74744" lon="2.05299">
        <ele>164</ele>
        <time>2015-11-01T09:23:29.031Z</time>
      </trkpt>
      <trkpt lat="47.74751" lon="2.05304">
        <ele>163</ele>
        <time>2015-11-01T09:23:28.065Z</time>
      </trkpt>
      <trkpt lat="47.74759" lon="2.05308">
        <ele>163</ele>
        <time>2015-11-01T09:23:27.031Z</time>
      </trkpt>
      <trkpt lat="47.74766" lon="2.05312">
        <ele>164</ele>
        <time>2015-11-01T09:23:26.066Z</time>
      </trkpt>
      <trkpt lat="47.74773" lon="2.05316">
        <ele>164</ele>
        <time>2015-11-01T09:23:25.032Z</time>
      </trkpt>
      <trkpt lat="47.7478" lon="2.0532">
        <ele>164</ele>
        <time>2015-11-01T09:23:24.064Z</time>
      </trkpt>
      <trkpt lat="47.74788" lon="2.05324">
        <ele>164</ele>
        <time>2015-11-01T09:23:23.032Z</time>
      </trkpt>
      <trkpt lat="47.74795" lon="2.05328">
        <ele>164</ele>
        <time>2015-11-01T09:23:22.068Z</time>
      </trkpt>
      <trkpt lat="47.74802" lon="2.05332">
        <ele>164</ele>
        <time>2015-11-01T09:23:21.032Z</time>
      </trkpt>
      <trkpt lat="47.7481" lon="2.05337">
        <ele>165</ele>
        <time>2015-11-01T09:23:20.066Z</time>
      </trkpt>
      <trkpt lat="47.74817" lon="2.05342">
        <ele>165</ele>
        <time>2015-11-01T09:23:19.032Z</time>
      </trkpt>
      <trkpt lat="47.74824" lon="2.05345">
        <ele>166</ele>
        <time>2015-11-01T09:23:18.066Z</time>
      </trkpt>
      <trkpt lat="47.7483" lon="2.0535">
        <ele>166</ele>
        <time>2015-11-01T09:23:17.032Z</time>
      </trkpt>
      <trkpt lat="47.74837" lon="2.05354">
        <ele>166</ele>
        <time>2015-11-01T09:23:16.067Z</time>
      </trkpt>
      <trkpt lat="47.74844" lon="2.05357">
        <ele>166</ele>
        <time>2015-11-01T09:23:15.031Z</time>
      </trkpt>
      <trkpt lat="47.74851" lon="2.05361">
        <ele>165</ele>
        <time>2015-11-01T09:23:14.092Z</time>
      </trkpt>
      <trkpt lat="47.74858" lon="2.05365">
        <ele>166</ele>
        <time>2015-11-01T09:23:13.034Z</time>
      </trkpt>
      <trkpt lat="47.74866" lon="2.05368">
        <ele>165</ele>
        <time>2015-11-01T09:23:12.068Z</time>
      </trkpt>
      <trkpt lat="47.74873" lon="2.05372">
        <ele>167</ele>
        <time>2015-11-01T09:23:11.032Z</time>
      </trkpt>
      <trkpt lat="47.7488" lon="2.05376">
        <ele>167</ele>
        <time>2015-11-01T09:23:10.068Z</time>
      </trkpt>
      <trkpt lat="47.74887" lon="2.05378">
        <ele>167</ele>
        <time>2015-11-01T09:23:09.032Z</time>
      </trkpt>
      <trkpt lat="47.74895" lon="2.05381">
        <ele>168</ele>
        <time>2015-11-01T09:23:08.068Z</time>
      </trkpt>
      <trkpt lat="47.74902" lon="2.05384">
        <ele>168</ele>
        <time>2015-11-01T09:23:07.030Z</time>
      </trkpt>
      <trkpt lat="47.74911" lon="2.05384">
        <ele>168</ele>
        <time>2015-11-01T09:23:06.067Z</time>
      </trkpt>
      <trkpt lat="47.7492" lon="2.05385">
        <ele>169</ele>
        <time>2015-11-01T09:23:05.032Z</time>
      </trkpt>
      <trkpt lat="47.74928" lon="2.05384">
        <ele>170</ele>
        <time>2015-11-01T09:23:04.065Z</time>
      </trkpt>
      <trkpt lat="47.74937" lon="2.05381">
        <ele>170</ele>
        <time>2015-11-01T09:23:03.033Z</time>
      </trkpt>
      <trkpt lat="47.74943" lon="2.05379">
        <ele>171</ele>
        <time>2015-11-01T09:23:02.068Z</time>
      </trkpt>
      <trkpt lat="47.7495" lon="2.05376">
        <ele>172</ele>
        <time>2015-11-01T09:23:01.032Z</time>
      </trkpt>
      <trkpt lat="47.74956" lon="2.05373">
        <ele>172</ele>
        <time>2015-11-01T09:23:00.101Z</time>
      </trkpt>
      <trkpt lat="47.7496" lon="2.05368">
        <ele>172</ele>
        <time>2015-11-01T09:22:59.032Z</time>
      </trkpt>
      <trkpt lat="47.74965" lon="2.05364">
        <ele>171</ele>
        <time>2015-11-01T09:22:58.103Z</time>
      </trkpt>
      <trkpt lat="47.74971" lon="2.05362">
        <ele>171</ele>
        <time>2015-11-01T09:22:57.036Z</time>
      </trkpt>
      <trkpt lat="47.74978" lon="2.05358">
        <ele>172</ele>
        <time>2015-11-01T09:22:56.074Z</time>
      </trkpt>
      <trkpt lat="47.74984" lon="2.05355">
        <ele>172</ele>
        <time>2015-11-01T09:22:55.032Z</time>
      </trkpt>
      <trkpt lat="47.74992" lon="2.0535">
        <ele>172</ele>
        <time>2015-11-01T09:22:54.067Z</time>
      </trkpt>
      <trkpt lat="47.74998" lon="2.05346">
        <ele>173</ele>
        <time>2015-11-01T09:22:53.033Z</time>
      </trkpt>
      <trkpt lat="47.75005" lon="2.05341">
        <ele>173</ele>
        <time>2015-11-01T09:22:52.067Z</time>
      </trkpt>
      <trkpt lat="47.75012" lon="2.05338">
        <ele>173</ele>
        <time>2015-11-01T09:22:51.033Z</time>
      </trkpt>
      <trkpt lat="47.75019" lon="2.05333">
        <ele>173</ele>
        <time>2015-11-01T09:22:50.065Z</time>
      </trkpt>
      <trkpt lat="47.75025" lon="2.05329">
        <ele>174</ele>
        <time>2015-11-01T09:22:49.031Z</time>
      </trkpt>
      <trkpt lat="47.75031" lon="2.05325">
        <ele>173</ele>
        <time>2015-11-01T09:22:48.066Z</time>
      </trkpt>
      <trkpt lat="47.75037" lon="2.05321">
        <ele>173</ele>
        <time>2015-11-01T09:22:47.034Z</time>
      </trkpt>
      <trkpt lat="47.75044" lon="2.05318">
        <ele>174</ele>
        <time>2015-11-01T09:22:46.067Z</time>
      </trkpt>
      <trkpt lat="47.75051" lon="2.05314">
        <ele>174</ele>
        <time>2015-11-01T09:22:45.032Z</time>
      </trkpt>
      <trkpt lat="47.75057" lon="2.0531">
        <ele>174</ele>
        <time>2015-11-01T09:22:44.065Z</time>
      </trkpt>
      <trkpt lat="47.75065" lon="2.05308">
        <ele>175</ele>
        <time>2015-11-01T09:22:43.033Z</time>
      </trkpt>
      <trkpt lat="47.75071" lon="2.05305">
        <ele>175</ele>
        <time>2015-11-01T09:22:42.090Z</time>
      </trkpt>
      <trkpt lat="47.75078" lon="2.05303">
        <ele>174</ele>
        <time>2015-11-01T09:22:41.032Z</time>
      </trkpt>
      <trkpt lat="47.75085" lon="2.05301">
        <ele>173</ele>
        <time>2015-11-01T09:22:40.065Z</time>
      </trkpt>
      <trkpt lat="47.75091" lon="2.05301">
        <ele>174</ele>
        <time>2015-11-01T09:22:39.033Z</time>
      </trkpt>
      <trkpt lat="47.75097" lon="2.05301">
        <ele>174</ele>
        <time>2015-11-01T09:22:38.087Z</time>
      </trkpt>
      <trkpt lat="47.75104" lon="2.05302">
        <ele>174</ele>
        <time>2015-11-01T09:22:37.034Z</time>
      </trkpt>
      <trkpt lat="47.75111" lon="2.05303">
        <ele>173</ele>
        <time>2015-11-01T09:22:36.067Z</time>
      </trkpt>
      <trkpt lat="47.75116" lon="2.05305">
        <ele>173</ele>
        <time>2015-11-01T09:22:35.032Z</time>
      </trkpt>
      <trkpt lat="47.75121" lon="2.05307">
        <ele>173</ele>
        <time>2015-11-01T09:22:34.067Z</time>
      </trkpt>
      <trkpt lat="47.75126" lon="2.0531">
        <ele>174</ele>
        <time>2015-11-01T09:22:33.032Z</time>
      </trkpt>
      <trkpt lat="47.7513" lon="2.05312">
        <ele>173</ele>
        <time>2015-11-01T09:22:32.068Z</time>
      </trkpt>
      <trkpt lat="47.75135" lon="2.05314">
        <ele>172</ele>
        <time>2015-11-01T09:22:31.033Z</time>
      </trkpt>
      <trkpt lat="47.75141" lon="2.05317">
        <ele>172</ele>
        <time>2015-11-01T09:22:30.067Z</time>
      </trkpt>
      <trkpt lat="47.75147" lon="2.05319">
        <ele>172</ele>
        <time>2015-11-01T09:22:29.034Z</time>
      </trkpt>
      <trkpt lat="47.75152" lon="2.05321">
        <ele>172</ele>
        <time>2015-11-01T09:22:28.066Z</time>
      </trkpt>
      <trkpt lat="47.75158" lon="2.05323">
        <ele>171</ele>
        <time>2015-11-01T09:22:27.033Z</time>
      </trkpt>
      <trkpt lat="47.75164" lon="2.05325">
        <ele>172</ele>
        <time>2015-11-01T09:22:26.065Z</time>
      </trkpt>
      <trkpt lat="47.75169" lon="2.05328">
        <ele>173</ele>
        <time>2015-11-01T09:22:25.031Z</time>
      </trkpt>
      <trkpt lat="47.75173" lon="2.05331">
        <ele>173</ele>
        <time>2015-11-01T09:22:24.061Z</time>
      </trkpt>
      <trkpt lat="47.75179" lon="2.05333">
        <ele>173</ele>
        <time>2015-11-01T09:22:23.033Z</time>
      </trkpt>
      <trkpt lat="47.75185" lon="2.05335">
        <ele>172</ele>
        <time>2015-11-01T09:22:22.067Z</time>
      </trkpt>
      <trkpt lat="47.7519" lon="2.05337">
        <ele>171</ele>
        <time>2015-11-01T09:22:21.055Z</time>
      </trkpt>
      <trkpt lat="47.75196" lon="2.0534">
        <ele>172</ele>
        <time>2015-11-01T09:22:20.068Z</time>
      </trkpt>
      <trkpt lat="47.75201" lon="2.05341">
        <ele>171</ele>
        <time>2015-11-01T09:22:19.032Z</time>
      </trkpt>
      <trkpt lat="47.75207" lon="2.05344">
        <ele>172</ele>
        <time>2015-11-01T09:22:18.067Z</time>
      </trkpt>
      <trkpt lat="47.75214" lon="2.05347">
        <ele>172</ele>
        <time>2015-11-01T09:22:17.030Z</time>
      </trkpt>
      <trkpt lat="47.7522" lon="2.0535">
        <ele>172</ele>
        <time>2015-11-01T09:22:16.127Z</time>
      </trkpt>
      <trkpt lat="47.75226" lon="2.05352">
        <ele>172</ele>
        <time>2015-11-01T09:22:15.032Z</time>
      </trkpt>
      <trkpt lat="47.75232" lon="2.05354">
        <ele>172</ele>
        <time>2015-11-01T09:22:14.061Z</time>
      </trkpt>
      <trkpt lat="47.75238" lon="2.05357">
        <ele>171</ele>
        <time>2015-11-01T09:22:13.032Z</time>
      </trkpt>
      <trkpt lat="47.75245" lon="2.05358">
        <ele>171</ele>
        <time>2015-11-01T09:22:12.127Z</time>
      </trkpt>
      <trkpt lat="47.75251" lon="2.0536">
        <ele>171</ele>
        <time>2015-11-01T09:22:11.034Z</time>
      </trkpt>
      <trkpt lat="47.75257" lon="2.05363">
        <ele>171</ele>
        <time>2015-11-01T09:22:10.058Z</time>
      </trkpt>
      <trkpt lat="47.75264" lon="2.05365">
        <ele>171</ele>
        <time>2015-11-01T09:22:09.032Z</time>
      </trkpt>
      <trkpt lat="47.7527" lon="2.05368">
        <ele>171</ele>
        <time>2015-11-01T09:22:08.062Z</time>
      </trkpt>
      <trkpt lat="47.75277" lon="2.05371">
        <ele>172</ele>
        <time>2015-11-01T09:22:07.037Z</time>
      </trkpt>
      <trkpt lat="47.75282" lon="2.05373">
        <ele>172</ele>
        <time>2015-11-01T09:22:06.064Z</time>
      </trkpt>
      <trkpt lat="47.75288" lon="2.05377">
        <ele>173</ele>
        <time>2015-11-01T09:22:05.030Z</time>
      </trkpt>
      <trkpt lat="47.75294" lon="2.0538">
        <ele>173</ele>
        <time>2015-11-01T09:22:04.063Z</time>
      </trkpt>
      <trkpt lat="47.753" lon="2.05384">
        <ele>174</ele>
        <time>2015-11-01T09:22:03.031Z</time>
      </trkpt>
      <trkpt lat="47.75305" lon="2.05388">
        <ele>174</ele>
        <time>2015-11-01T09:22:02.065Z</time>
      </trkpt>
      <trkpt lat="47.75312" lon="2.05391">
        <ele>175</ele>
        <time>2015-11-01T09:22:01.031Z</time>
      </trkpt>
      <trkpt lat="47.75318" lon="2.05395">
        <ele>175</ele>
        <time>2015-11-01T09:22:00.063Z</time>
      </trkpt>
      <trkpt lat="47.75325" lon="2.05399">
        <ele>176</ele>
        <time>2015-11-01T09:21:59.033Z</time>
      </trkpt>
      <trkpt lat="47.75331" lon="2.05403">
        <ele>176</ele>
        <time>2015-11-01T09:21:58.068Z</time>
      </trkpt>
      <trkpt lat="47.75337" lon="2.05408">
        <ele>177</ele>
        <time>2015-11-01T09:21:57.030Z</time>
      </trkpt>
      <trkpt lat="47.75344" lon="2.05413">
        <ele>177</ele>
        <time>2015-11-01T09:21:56.065Z</time>
      </trkpt>
      <trkpt lat="47.75351" lon="2.05416">
        <ele>177</ele>
        <time>2015-11-01T09:21:55.036Z</time>
      </trkpt>
      <trkpt lat="47.75359" lon="2.05418">
        <ele>178</ele>
        <time>2015-11-01T09:21:54.065Z</time>
      </trkpt>
      <trkpt lat="47.75366" lon="2.05416">
        <ele>179</ele>
        <time>2015-11-01T09:21:53.030Z</time>
      </trkpt>
      <trkpt lat="47.75373" lon="2.05414">
        <ele>180</ele>
        <time>2015-11-01T09:21:52.081Z</time>
      </trkpt>
      <trkpt lat="47.75379" lon="2.05407">
        <ele>181</ele>
        <time>2015-11-01T09:21:51.031Z</time>
      </trkpt>
      <trkpt lat="47.75381" lon="2.054">
        <ele>181</ele>
        <time>2015-11-01T09:21:50.061Z</time>
      </trkpt>
      <trkpt lat="47.75383" lon="2.05393">
        <ele>181</ele>
        <time>2015-11-01T09:21:49.032Z</time>
      </trkpt>
      <trkpt lat="47.75385" lon="2.05386">
        <ele>181</ele>
        <time>2015-11-01T09:21:48.059Z</time>
      </trkpt>
      <trkpt lat="47.75388" lon="2.05379">
        <ele>181</ele>
        <time>2015-11-01T09:21:47.025Z</time>
      </trkpt>
      <trkpt lat="47.75391" lon="2.05372">
        <ele>181</ele>
        <time>2015-11-01T09:21:46.052Z</time>
      </trkpt>
      <trkpt lat="47.75392" lon="2.05364">
        <ele>181</ele>
        <time>2015-11-01T09:21:45.022Z</time>
      </trkpt>
      <trkpt lat="47.75394" lon="2.05356">
        <ele>181</ele>
        <time>2015-11-01T09:21:44.071Z</time>
      </trkpt>
      <trkpt lat="47.75395" lon="2.05348">
        <ele>181</ele>
        <time>2015-11-01T09:21:43.022Z</time>
      </trkpt>
      <trkpt lat="47.75396" lon="2.05339">
        <ele>180</ele>
        <time>2015-11-01T09:21:42.052Z</time>
      </trkpt>
      <trkpt lat="47.75398" lon="2.0533">
        <ele>180</ele>
        <time>2015-11-01T09:21:41.025Z</time>
      </trkpt>
      <trkpt lat="47.75398" lon="2.05321">
        <ele>179</ele>
        <time>2015-11-01T09:21:40.054Z</time>
      </trkpt>
      <trkpt lat="47.754" lon="2.05312">
        <ele>179</ele>
        <time>2015-11-01T09:21:39.024Z</time>
      </trkpt>
      <trkpt lat="47.75402" lon="2.05303">
        <ele>179</ele>
        <time>2015-11-01T09:21:38.053Z</time>
      </trkpt>
      <trkpt lat="47.75404" lon="2.05294">
        <ele>180</ele>
        <time>2015-11-01T09:21:37.021Z</time>
      </trkpt>
      <trkpt lat="47.75407" lon="2.05284">
        <ele>180</ele>
        <time>2015-11-01T09:21:36.067Z</time>
      </trkpt>
      <trkpt lat="47.75409" lon="2.05275">
        <ele>180</ele>
        <time>2015-11-01T09:21:35.032Z</time>
      </trkpt>
      <trkpt lat="47.75411" lon="2.05265">
        <ele>180</ele>
        <time>2015-11-01T09:21:34.066Z</time>
      </trkpt>
      <trkpt lat="47.75414" lon="2.05255">
        <ele>181</ele>
        <time>2015-11-01T09:21:33.040Z</time>
      </trkpt>
      <trkpt lat="47.75417" lon="2.05246">
        <ele>181</ele>
        <time>2015-11-01T09:21:32.069Z</time>
      </trkpt>
      <trkpt lat="47.75419" lon="2.05237">
        <ele>181</ele>
        <time>2015-11-01T09:21:31.032Z</time>
      </trkpt>
      <trkpt lat="47.75422" lon="2.05229">
        <ele>182</ele>
        <time>2015-11-01T09:21:30.067Z</time>
      </trkpt>
      <trkpt lat="47.75424" lon="2.05219">
        <ele>182</ele>
        <time>2015-11-01T09:21:29.031Z</time>
      </trkpt>
      <trkpt lat="47.75427" lon="2.0521">
        <ele>182</ele>
        <time>2015-11-01T09:21:28.093Z</time>
      </trkpt>
      <trkpt lat="47.7543" lon="2.05202">
        <ele>182</ele>
        <time>2015-11-01T09:21:27.030Z</time>
      </trkpt>
      <trkpt lat="47.75431" lon="2.05193">
        <ele>181</ele>
        <time>2015-11-01T09:21:26.068Z</time>
      </trkpt>
      <trkpt lat="47.75435" lon="2.05185">
        <ele>182</ele>
        <time>2015-11-01T09:21:25.028Z</time>
      </trkpt>
      <trkpt lat="47.75438" lon="2.05176">
        <ele>182</ele>
        <time>2015-11-01T09:21:24.060Z</time>
      </trkpt>
      <trkpt lat="47.75441" lon="2.05168">
        <ele>182</ele>
        <time>2015-11-01T09:21:23.031Z</time>
      </trkpt>
      <trkpt lat="47.75444" lon="2.0516">
        <ele>182</ele>
        <time>2015-11-01T09:21:22.057Z</time>
      </trkpt>
      <trkpt lat="47.75447" lon="2.05152">
        <ele>182</ele>
        <time>2015-11-01T09:21:21.023Z</time>
      </trkpt>
      <trkpt lat="47.7545" lon="2.05143">
        <ele>182</ele>
        <time>2015-11-01T09:21:20.053Z</time>
      </trkpt>
      <trkpt lat="47.75453" lon="2.05135">
        <ele>182</ele>
        <time>2015-11-01T09:21:19.024Z</time>
      </trkpt>
      <trkpt lat="47.75456" lon="2.05127">
        <ele>182</ele>
        <time>2015-11-01T09:21:18.055Z</time>
      </trkpt>
      <trkpt lat="47.7546" lon="2.05119">
        <ele>182</ele>
        <time>2015-11-01T09:21:17.024Z</time>
      </trkpt>
      <trkpt lat="47.75463" lon="2.05111">
        <ele>182</ele>
        <time>2015-11-01T09:21:16.055Z</time>
      </trkpt>
      <trkpt lat="47.75467" lon="2.05105">
        <ele>182</ele>
        <time>2015-11-01T09:21:15.024Z</time>
      </trkpt>
      <trkpt lat="47.7547" lon="2.05098">
        <ele>182</ele>
        <time>2015-11-01T09:21:14.053Z</time>
      </trkpt>
      <trkpt lat="47.75474" lon="2.05091">
        <ele>182</ele>
        <time>2015-11-01T09:21:13.023Z</time>
      </trkpt>
      <trkpt lat="47.75477" lon="2.05085">
        <ele>182</ele>
        <time>2015-11-01T09:21:12.054Z</time>
      </trkpt>
      <trkpt lat="47.7548" lon="2.05079">
        <ele>182</ele>
        <time>2015-11-01T09:21:11.030Z</time>
      </trkpt>
      <trkpt lat="47.75484" lon="2.05074">
        <ele>182</ele>
        <time>2015-11-01T09:21:10.228Z</time>
      </trkpt>
      <trkpt lat="47.75486" lon="2.05068">
        <ele>182</ele>
        <time>2015-11-01T09:21:09.033Z</time>
      </trkpt>
      <trkpt lat="47.75489" lon="2.05062">
        <ele>182</ele>
        <time>2015-11-01T09:21:08.071Z</time>
      </trkpt>
      <trkpt lat="47.75492" lon="2.05056">
        <ele>182</ele>
        <time>2015-11-01T09:21:07.059Z</time>
      </trkpt>
      <trkpt lat="47.75495" lon="2.0505">
        <ele>182</ele>
        <time>2015-11-01T09:21:06.096Z</time>
      </trkpt>
      <trkpt lat="47.75499" lon="2.05044">
        <ele>182</ele>
        <time>2015-11-01T09:21:05.035Z</time>
      </trkpt>
      <trkpt lat="47.75502" lon="2.05038">
        <ele>182</ele>
        <time>2015-11-01T09:21:04.076Z</time>
      </trkpt>
      <trkpt lat="47.75505" lon="2.05032">
        <ele>181</ele>
        <time>2015-11-01T09:21:03.086Z</time>
      </trkpt>
      <trkpt lat="47.75507" lon="2.05025">
        <ele>180</ele>
        <time>2015-11-01T09:21:02.059Z</time>
      </trkpt>
      <trkpt lat="47.7551" lon="2.05019">
        <ele>180</ele>
        <time>2015-11-01T09:21:01.033Z</time>
      </trkpt>
      <trkpt lat="47.75514" lon="2.05012">
        <ele>180</ele>
        <time>2015-11-01T09:21:00.059Z</time>
      </trkpt>
      <trkpt lat="47.75517" lon="2.05007">
        <ele>181</ele>
        <time>2015-11-01T09:20:59.029Z</time>
      </trkpt>
      <trkpt lat="47.7552" lon="2.05001">
        <ele>180</ele>
        <time>2015-11-01T09:20:58.071Z</time>
      </trkpt>
      <trkpt lat="47.75523" lon="2.04994">
        <ele>180</ele>
        <time>2015-11-01T09:20:57.027Z</time>
      </trkpt>
      <trkpt lat="47.75526" lon="2.04988">
        <ele>179</ele>
        <time>2015-11-01T09:20:56.069Z</time>
      </trkpt>
      <trkpt lat="47.75529" lon="2.04982">
        <ele>179</ele>
        <time>2015-11-01T09:20:55.032Z</time>
      </trkpt>
      <trkpt lat="47.75532" lon="2.04977">
        <ele>179</ele>
        <time>2015-11-01T09:20:54.074Z</time>
      </trkpt>
      <trkpt lat="47.75535" lon="2.04972">
        <ele>179</ele>
        <time>2015-11-01T09:20:53.033Z</time>
      </trkpt>
      <trkpt lat="47.75538" lon="2.04966">
        <ele>179</ele>
        <time>2015-11-01T09:20:52.069Z</time>
      </trkpt>
      <trkpt lat="47.75542" lon="2.04961">
        <ele>178</ele>
        <time>2015-11-01T09:20:51.033Z</time>
      </trkpt>
      <trkpt lat="47.75545" lon="2.04955">
        <ele>178</ele>
        <time>2015-11-01T09:20:50.056Z</time>
      </trkpt>
      <trkpt lat="47.75548" lon="2.04949">
        <ele>178</ele>
        <time>2015-11-01T09:20:49.025Z</time>
      </trkpt>
      <trkpt lat="47.75552" lon="2.04943">
        <ele>178</ele>
        <time>2015-11-01T09:20:48.056Z</time>
      </trkpt>
      <trkpt lat="47.75555" lon="2.04937">
        <ele>178</ele>
        <time>2015-11-01T09:20:47.023Z</time>
      </trkpt>
      <trkpt lat="47.75559" lon="2.04931">
        <ele>179</ele>
        <time>2015-11-01T09:20:46.065Z</time>
      </trkpt>
      <trkpt lat="47.75562" lon="2.04925">
        <ele>179</ele>
        <time>2015-11-01T09:20:45.025Z</time>
      </trkpt>
      <trkpt lat="47.75565" lon="2.04919">
        <ele>179</ele>
        <time>2015-11-01T09:20:44.055Z</time>
      </trkpt>
      <trkpt lat="47.75569" lon="2.04913">
        <ele>179</ele>
        <time>2015-11-01T09:20:43.023Z</time>
      </trkpt>
      <trkpt lat="47.75572" lon="2.04907">
        <ele>180</ele>
        <time>2015-11-01T09:20:42.056Z</time>
      </trkpt>
      <trkpt lat="47.75575" lon="2.04901">
        <ele>180</ele>
        <time>2015-11-01T09:20:41.027Z</time>
      </trkpt>
      <trkpt lat="47.75578" lon="2.04895">
        <ele>180</ele>
        <time>2015-11-01T09:20:40.046Z</time>
      </trkpt>
      <trkpt lat="47.75581" lon="2.04888">
        <ele>179</ele>
        <time>2015-11-01T09:20:39.032Z</time>
      </trkpt>
      <trkpt lat="47.75584" lon="2.04882">
        <ele>179</ele>
        <time>2015-11-01T09:20:38.067Z</time>
      </trkpt>
      <trkpt lat="47.75587" lon="2.04876">
        <ele>179</ele>
        <time>2015-11-01T09:20:37.031Z</time>
      </trkpt>
      <trkpt lat="47.7559" lon="2.0487">
        <ele>179</ele>
        <time>2015-11-01T09:20:36.237Z</time>
      </trkpt>
      <trkpt lat="47.75594" lon="2.04863">
        <ele>179</ele>
        <time>2015-11-01T09:20:35.033Z</time>
      </trkpt>
      <trkpt lat="47.75598" lon="2.04856">
        <ele>179</ele>
        <time>2015-11-01T09:20:34.070Z</time>
      </trkpt>
      <trkpt lat="47.75601" lon="2.04849">
        <ele>179</ele>
        <time>2015-11-01T09:20:33.031Z</time>
      </trkpt>
      <trkpt lat="47.75605" lon="2.04843">
        <ele>179</ele>
        <time>2015-11-01T09:20:32.068Z</time>
      </trkpt>
      <trkpt lat="47.75608" lon="2.04836">
        <ele>179</ele>
        <time>2015-11-01T09:20:31.076Z</time>
      </trkpt>
      <trkpt lat="47.75612" lon="2.04829">
        <ele>179</ele>
        <time>2015-11-01T09:20:30.066Z</time>
      </trkpt>
      <trkpt lat="47.75616" lon="2.04823">
        <ele>179</ele>
        <time>2015-11-01T09:20:29.034Z</time>
      </trkpt>
      <trkpt lat="47.75619" lon="2.04816">
        <ele>178</ele>
        <time>2015-11-01T09:20:28.068Z</time>
      </trkpt>
      <trkpt lat="47.75623" lon="2.0481">
        <ele>178</ele>
        <time>2015-11-01T09:20:27.031Z</time>
      </trkpt>
      <trkpt lat="47.75627" lon="2.04803">
        <ele>178</ele>
        <time>2015-11-01T09:20:26.068Z</time>
      </trkpt>
      <trkpt lat="47.7563" lon="2.04796">
        <ele>178</ele>
        <time>2015-11-01T09:20:25.030Z</time>
      </trkpt>
      <trkpt lat="47.75634" lon="2.04789">
        <ele>178</ele>
        <time>2015-11-01T09:20:24.068Z</time>
      </trkpt>
      <trkpt lat="47.75638" lon="2.04782">
        <ele>178</ele>
        <time>2015-11-01T09:20:23.031Z</time>
      </trkpt>
      <trkpt lat="47.75641" lon="2.04775">
        <ele>178</ele>
        <time>2015-11-01T09:20:22.068Z</time>
      </trkpt>
      <trkpt lat="47.75645" lon="2.04768">
        <ele>178</ele>
        <time>2015-11-01T09:20:21.030Z</time>
      </trkpt>
      <trkpt lat="47.75649" lon="2.04761">
        <ele>177</ele>
        <time>2015-11-01T09:20:20.086Z</time>
      </trkpt>
      <trkpt lat="47.75652" lon="2.04755">
        <ele>177</ele>
        <time>2015-11-01T09:20:19.030Z</time>
      </trkpt>
      <trkpt lat="47.75656" lon="2.04748">
        <ele>177</ele>
        <time>2015-11-01T09:20:18.068Z</time>
      </trkpt>
      <trkpt lat="47.75659" lon="2.04741">
        <ele>177</ele>
        <time>2015-11-01T09:20:17.031Z</time>
      </trkpt>
      <trkpt lat="47.75663" lon="2.04734">
        <ele>178</ele>
        <time>2015-11-01T09:20:16.097Z</time>
      </trkpt>
      <trkpt lat="47.75666" lon="2.04728">
        <ele>178</ele>
        <time>2015-11-01T09:20:15.023Z</time>
      </trkpt>
      <trkpt lat="47.7567" lon="2.04721">
        <ele>178</ele>
        <time>2015-11-01T09:20:14.053Z</time>
      </trkpt>
      <trkpt lat="47.75674" lon="2.04715">
        <ele>177</ele>
        <time>2015-11-01T09:20:13.021Z</time>
      </trkpt>
      <trkpt lat="47.75677" lon="2.04708">
        <ele>177</ele>
        <time>2015-11-01T09:20:12.050Z</time>
      </trkpt>
      <trkpt lat="47.75681" lon="2.04701">
        <ele>177</ele>
        <time>2015-11-01T09:20:11.021Z</time>
      </trkpt>
      <trkpt lat="47.75684" lon="2.04694">
        <ele>177</ele>
        <time>2015-11-01T09:20:10.053Z</time>
      </trkpt>
      <trkpt lat="47.75688" lon="2.04687">
        <ele>177</ele>
        <time>2015-11-01T09:20:09.021Z</time>
      </trkpt>
      <trkpt lat="47.75692" lon="2.04681">
        <ele>177</ele>
        <time>2015-11-01T09:20:08.052Z</time>
      </trkpt>
      <trkpt lat="47.75695" lon="2.04674">
        <ele>177</ele>
        <time>2015-11-01T09:20:07.023Z</time>
      </trkpt>
      <trkpt lat="47.75699" lon="2.04667">
        <ele>177</ele>
        <time>2015-11-01T09:20:06.057Z</time>
      </trkpt>
      <trkpt lat="47.75703" lon="2.04661">
        <ele>177</ele>
        <time>2015-11-01T09:20:05.032Z</time>
      </trkpt>
      <trkpt lat="47.75707" lon="2.04655">
        <ele>177</ele>
        <time>2015-11-01T09:20:04.095Z</time>
      </trkpt>
      <trkpt lat="47.7571" lon="2.04648">
        <ele>177</ele>
        <time>2015-11-01T09:20:03.031Z</time>
      </trkpt>
      <trkpt lat="47.75714" lon="2.04642">
        <ele>177</ele>
        <time>2015-11-01T09:20:02.066Z</time>
      </trkpt>
      <trkpt lat="47.75717" lon="2.04636">
        <ele>177</ele>
        <time>2015-11-01T09:20:01.032Z</time>
      </trkpt>
      <trkpt lat="47.75721" lon="2.0463">
        <ele>177</ele>
        <time>2015-11-01T09:20:00.097Z</time>
      </trkpt>
      <trkpt lat="47.75724" lon="2.04625">
        <ele>177</ele>
        <time>2015-11-01T09:19:59.036Z</time>
      </trkpt>
      <trkpt lat="47.75727" lon="2.04621">
        <ele>176</ele>
        <time>2015-11-01T09:19:58.064Z</time>
      </trkpt>
      <trkpt lat="47.75732" lon="2.0461">
        <ele>176</ele>
        <time>2015-11-01T09:19:56.031Z</time>
      </trkpt>
      <trkpt lat="47.75735" lon="2.04604">
        <ele>176</ele>
        <time>2015-11-01T09:19:55.070Z</time>
      </trkpt>
      <trkpt lat="47.75738" lon="2.04598">
        <ele>176</ele>
        <time>2015-11-01T09:19:54.032Z</time>
      </trkpt>
      <trkpt lat="47.75741" lon="2.04592">
        <ele>176</ele>
        <time>2015-11-01T09:19:53.107Z</time>
      </trkpt>
      <trkpt lat="47.75744" lon="2.04586">
        <ele>176</ele>
        <time>2015-11-01T09:19:52.030Z</time>
      </trkpt>
      <trkpt lat="47.75747" lon="2.0458">
        <ele>176</ele>
        <time>2015-11-01T09:19:51.070Z</time>
      </trkpt>
      <trkpt lat="47.75752" lon="2.0457">
        <ele>176</ele>
        <time>2015-11-01T09:19:49.031Z</time>
      </trkpt>
      <trkpt lat="47.75754" lon="2.04565">
        <ele>176</ele>
        <time>2015-11-01T09:19:48.062Z</time>
      </trkpt>
      <trkpt lat="47.75759" lon="2.04555">
        <ele>176</ele>
        <time>2015-11-01T09:19:46.031Z</time>
      </trkpt>
      <trkpt lat="47.75761" lon="2.04551">
        <ele>176</ele>
        <time>2015-11-01T09:19:45.067Z</time>
      </trkpt>
      <trkpt lat="47.75764" lon="2.04544">
        <ele>175</ele>
        <time>2015-11-01T09:19:43.027Z</time>
      </trkpt>
      <trkpt lat="47.75767" lon="2.04543">
        <ele>175</ele>
        <time>2015-11-01T09:19:42.118Z</time>
      </trkpt>
      <trkpt lat="47.75774" lon="2.0454">
        <ele>175</ele>
        <time>2015-11-01T09:19:38.031Z</time>
      </trkpt>
      <trkpt lat="47.75775" lon="2.0454">
        <ele>174</ele>
        <time>2015-11-01T09:19:37.093Z</time>
      </trkpt>
      <trkpt lat="47.75774" lon="2.04539">
        <ele>175</ele>
        <time>2015-11-01T09:19:29.031Z</time>
      </trkpt>
      <trkpt lat="47.75774" lon="2.04539">
        <ele>175</ele>
        <time>2015-11-01T09:19:28.067Z</time>
      </trkpt>
      <trkpt lat="47.75774" lon="2.0454">
        <ele>175</ele>
        <time>2015-11-01T09:19:21.033Z</time>
      </trkpt>
      <trkpt lat="47.75774" lon="2.0454">
        <ele>175</ele>
        <time>2015-11-01T09:19:20.054Z</time>
      </trkpt>
      <trkpt lat="47.75774" lon="2.04539">
        <ele>175</ele>
        <time>2015-11-01T09:19:05.031Z</time>
      </trkpt>
      <trkpt lat="47.75774" lon="2.0454">
        <ele>175</ele>
        <time>2015-11-01T09:19:04.067Z</time>
      </trkpt>
      <trkpt lat="47.7577" lon="2.04541">
        <ele>175</ele>
        <time>2015-11-01T09:18:48.033Z</time>
      </trkpt>
      <trkpt lat="47.7577" lon="2.04542">
        <ele>175</ele>
        <time>2015-11-01T09:18:47.066Z</time>
      </trkpt>
      <trkpt lat="47.75769" lon="2.04542">
        <ele>175</ele>
        <time>2015-11-01T09:18:36.031Z</time>
      </trkpt>
      <trkpt lat="47.75769" lon="2.04542">
        <ele>175</ele>
        <time>2015-11-01T09:18:35.065Z</time>
      </trkpt>
      <trkpt lat="47.75772" lon="2.04535">
        <ele>176</ele>
        <time>2015-11-01T09:16:36.032Z</time>
      </trkpt>
      <trkpt lat="47.75772" lon="2.04535">
        <ele>176</ele>
        <time>2015-11-01T09:16:35.150Z</time>
      </trkpt>
      <trkpt lat="47.75772" lon="2.04535">
        <ele>175</ele>
        <time>2015-11-01T09:16:26.060Z</time>
      </trkpt>
      <trkpt lat="47.75772" lon="2.04535">
        <ele>175</ele>
        <time>2015-11-01T09:16:25.067Z</time>
      </trkpt>
      <trkpt lat="47.75772" lon="2.04536">
        <ele>174</ele>
        <time>2015-11-01T09:16:20.022Z</time>
      </trkpt>
      <trkpt lat="47.75772" lon="2.04536">
        <ele>174</ele>
        <time>2015-11-01T09:16:19.047Z</time>
      </trkpt>
      <trkpt lat="47.75772" lon="2.04535">
        <ele>174</ele>
        <time>2015-11-01T09:16:15.021Z</time>
      </trkpt>
      <trkpt lat="47.75772" lon="2.04535">
        <ele>173</ele>
        <time>2015-11-01T09:16:14.051Z</time>
      </trkpt>
      <trkpt lat="47.75769" lon="2.04537">
        <ele>174</ele>
        <time>2015-11-01T09:15:03.025Z</time>
      </trkpt>
      <trkpt lat="47.75769" lon="2.04538">
        <ele>174</ele>
        <time>2015-11-01T09:15:02.098Z</time>
      </trkpt>
      <trkpt lat="47.75769" lon="2.04537">
        <ele>174</ele>
        <time>2015-11-01T09:14:49.028Z</time>
      </trkpt>
      <trkpt lat="47.75768" lon="2.04537">
        <ele>174</ele>
        <time>2015-11-01T09:14:48.056Z</time>
      </trkpt>
      <trkpt lat="47.75764" lon="2.04538">
        <ele>174</ele>
        <time>2015-11-01T09:14:07.016Z</time>
      </trkpt>
      <trkpt lat="47.75764" lon="2.04537">
        <ele>174</ele>
        <time>2015-11-01T09:14:06.051Z</time>
      </trkpt>
      <trkpt lat="47.75764" lon="2.04538">
        <ele>176</ele>
        <time>2015-11-01T09:13:48.035Z</time>
      </trkpt>
      <trkpt lat="47.75764" lon="2.04538">
        <ele>175</ele>
        <time>2015-11-01T09:13:47.085Z</time>
      </trkpt>
      <trkpt lat="47.75764" lon="2.04538">
        <ele>175</ele>
        <time>2015-11-01T09:13:47.027Z</time>
      </trkpt>
      <trkpt lat="47.75764" lon="2.04538">
        <ele>175</ele>
        <time>2015-11-01T09:13:46.058Z</time>
      </trkpt>
      <trkpt lat="47.75764" lon="2.04538">
        <ele>175</ele>
        <time>2015-11-01T09:13:46.023Z</time>
      </trkpt>
      <trkpt lat="47.75764" lon="2.04538">
        <ele>175</ele>
        <time>2015-11-01T09:13:45.082Z</time>
      </trkpt>
      <trkpt lat="47.75764" lon="2.04537">
        <ele>175</ele>
        <time>2015-11-01T09:13:26.035Z</time>
      </trkpt>
      <trkpt lat="47.75765" lon="2.04536">
        <ele>175</ele>
        <time>2015-11-01T09:13:25.078Z</time>
      </trkpt>
      <trkpt lat="47.75765" lon="2.04538">
        <ele>174</ele>
        <time>2015-11-01T09:13:08.093Z</time>
      </trkpt>
      <trkpt lat="47.75766" lon="2.04537">
        <ele>174</ele>
        <time>2015-11-01T09:13:06.049Z</time>
      </trkpt>
      <trkpt lat="47.75766" lon="2.04537">
        <ele>173</ele>
        <time>2015-11-01T09:13:05.020Z</time>
      </trkpt>
      <trkpt lat="47.75768" lon="2.04538">
        <ele>174</ele>
        <time>2015-11-01T09:13:04.064Z</time>
      </trkpt>
      <trkpt lat="47.75775" lon="2.04542">
        <ele>176</ele>
        <time>2015-11-01T09:12:42.031Z</time>
      </trkpt>
      <trkpt lat="47.75775" lon="2.04541">
        <ele>177</ele>
        <time>2015-11-01T09:12:41.067Z</time>
      </trkpt>
      <trkpt lat="47.75778" lon="2.04543">
        <ele>180</ele>
        <time>2015-11-01T09:11:59.141Z</time>
      </trkpt>
      <trkpt lat="47.75778" lon="2.04543">
        <ele>180</ele>
        <time>2015-11-01T09:11:59.021Z</time>
      </trkpt>
      <trkpt lat="47.75779" lon="2.04543">
        <ele>181</ele>
        <time>2015-11-01T09:11:58.062Z</time>
      </trkpt>
      <trkpt lat="47.75787" lon="2.04543">
        <ele>181</ele>
        <time>2015-11-01T09:11:52.030Z</time>
      </trkpt>
      <trkpt lat="47.7579" lon="2.04542">
        <ele>182</ele>
        <time>2015-11-01T09:11:51.067Z</time>
      </trkpt>
      <trkpt lat="47.75799" lon="2.04541">
        <ele>182</ele>
        <time>2015-11-01T09:11:49.034Z</time>
      </trkpt>
      <trkpt lat="47.75804" lon="2.04542">
        <ele>183</ele>
        <time>2015-11-01T09:11:48.073Z</time>
      </trkpt>
      <trkpt lat="47.75811" lon="2.0454">
        <ele>183</ele>
        <time>2015-11-01T09:11:47.031Z</time>
      </trkpt>
      <trkpt lat="47.75816" lon="2.04539">
        <ele>184</ele>
        <time>2015-11-01T09:11:46.066Z</time>
      </trkpt>
      <trkpt lat="47.75823" lon="2.04539">
        <ele>184</ele>
        <time>2015-11-01T09:11:45.029Z</time>
      </trkpt>
      <trkpt lat="47.75829" lon="2.04538">
        <ele>184</ele>
        <time>2015-11-01T09:11:44.056Z</time>
      </trkpt>
      <trkpt lat="47.75835" lon="2.04538">
        <ele>185</ele>
        <time>2015-11-01T09:11:43.031Z</time>
      </trkpt>
      <trkpt lat="47.75841" lon="2.04537">
        <ele>185</ele>
        <time>2015-11-01T09:11:42.073Z</time>
      </trkpt>
      <trkpt lat="47.75848" lon="2.04536">
        <ele>186</ele>
        <time>2015-11-01T09:11:41.036Z</time>
      </trkpt>
      <trkpt lat="47.75856" lon="2.04533">
        <ele>187</ele>
        <time>2015-11-01T09:11:40.098Z</time>
      </trkpt>
      <trkpt lat="47.75864" lon="2.0453">
        <ele>188</ele>
        <time>2015-11-01T09:11:39.038Z</time>
      </trkpt>
      <trkpt lat="47.75871" lon="2.04529">
        <ele>189</ele>
        <time>2015-11-01T09:11:38.243Z</time>
      </trkpt>
      <trkpt lat="47.75877" lon="2.04527">
        <ele>189</ele>
        <time>2015-11-01T09:11:37.025Z</time>
      </trkpt>
      <trkpt lat="47.75882" lon="2.04525">
        <ele>189</ele>
        <time>2015-11-01T09:11:36.054Z</time>
      </trkpt>
      <trkpt lat="47.7589" lon="2.0452">
        <ele>188</ele>
        <time>2015-11-01T09:11:33.021Z</time>
      </trkpt>
      <trkpt lat="47.75897" lon="2.04521">
        <ele>188</ele>
        <time>2015-11-01T09:11:32.054Z</time>
      </trkpt>
      <trkpt lat="47.759" lon="2.04522">
        <ele>187</ele>
        <time>2015-11-01T09:11:31.024Z</time>
      </trkpt>
      <trkpt lat="47.75911" lon="2.04523">
        <ele>188</ele>
        <time>2015-11-01T09:11:30.052Z</time>
      </trkpt>
      <trkpt lat="47.75918" lon="2.04522">
        <ele>186</ele>
        <time>2015-11-01T09:11:28.060Z</time>
      </trkpt>
      <trkpt lat="47.75924" lon="2.04522">
        <ele>185</ele>
        <time>2015-11-01T09:11:27.069Z</time>
      </trkpt>
      <trkpt lat="47.75932" lon="2.04518">
        <ele>183</ele>
        <time>2015-11-01T09:11:25.032Z</time>
      </trkpt>
      <trkpt lat="47.75938" lon="2.04515">
        <ele>182</ele>
        <time>2015-11-01T09:11:24.076Z</time>
      </trkpt>
      <trkpt lat="47.75944" lon="2.04516">
        <ele>182</ele>
        <time>2015-11-01T09:11:23.037Z</time>
      </trkpt>
      <trkpt lat="47.7595" lon="2.04517">
        <ele>182</ele>
        <time>2015-11-01T09:11:22.078Z</time>
      </trkpt>
      <trkpt lat="47.75957" lon="2.04516">
        <ele>183</ele>
        <time>2015-11-01T09:11:21.033Z</time>
      </trkpt>
      <trkpt lat="47.75963" lon="2.04515">
        <ele>183</ele>
        <time>2015-11-01T09:11:20.070Z</time>
      </trkpt>
      <trkpt lat="47.75968" lon="2.04512">
        <ele>183</ele>
        <time>2015-11-01T09:11:19.033Z</time>
      </trkpt>
      <trkpt lat="47.75972" lon="2.04509">
        <ele>182</ele>
        <time>2015-11-01T09:11:18.068Z</time>
      </trkpt>
      <trkpt lat="47.75979" lon="2.04502">
        <ele>180</ele>
        <time>2015-11-01T09:11:16.031Z</time>
      </trkpt>
      <trkpt lat="47.75984" lon="2.04499">
        <ele>181</ele>
        <time>2015-11-01T09:11:15.115Z</time>
      </trkpt>
      <trkpt lat="47.75989" lon="2.04494">
        <ele>180</ele>
        <time>2015-11-01T09:11:14.030Z</time>
      </trkpt>
      <trkpt lat="47.75994" lon="2.0449">
        <ele>180</ele>
        <time>2015-11-01T09:11:13.214Z</time>
      </trkpt>
      <trkpt lat="47.75999" lon="2.04486">
        <ele>180</ele>
        <time>2015-11-01T09:11:12.030Z</time>
      </trkpt>
      <trkpt lat="47.76003" lon="2.04482">
        <ele>181</ele>
        <time>2015-11-01T09:11:11.064Z</time>
      </trkpt>
      <trkpt lat="47.76008" lon="2.04478">
        <ele>181</ele>
        <time>2015-11-01T09:11:10.026Z</time>
      </trkpt>
      <trkpt lat="47.76012" lon="2.04473">
        <ele>181</ele>
        <time>2015-11-01T09:11:09.072Z</time>
      </trkpt>
      <trkpt lat="47.76017" lon="2.04469">
        <ele>181</ele>
        <time>2015-11-01T09:11:08.023Z</time>
      </trkpt>
      <trkpt lat="47.76022" lon="2.04464">
        <ele>181</ele>
        <time>2015-11-01T09:11:07.052Z</time>
      </trkpt>
      <trkpt lat="47.76027" lon="2.0446">
        <ele>181</ele>
        <time>2015-11-01T09:11:06.023Z</time>
      </trkpt>
      <trkpt lat="47.76032" lon="2.04456">
        <ele>181</ele>
        <time>2015-11-01T09:11:05.052Z</time>
      </trkpt>
      <trkpt lat="47.76036" lon="2.04451">
        <ele>181</ele>
        <time>2015-11-01T09:11:04.022Z</time>
      </trkpt>
      <trkpt lat="47.76041" lon="2.04446">
        <ele>181</ele>
        <time>2015-11-01T09:11:03.052Z</time>
      </trkpt>
      <trkpt lat="47.76046" lon="2.04442">
        <ele>181</ele>
        <time>2015-11-01T09:11:02.021Z</time>
      </trkpt>
      <trkpt lat="47.76051" lon="2.04438">
        <ele>181</ele>
        <time>2015-11-01T09:11:01.052Z</time>
      </trkpt>
      <trkpt lat="47.76056" lon="2.04434">
        <ele>181</ele>
        <time>2015-11-01T09:11:00.023Z</time>
      </trkpt>
      <trkpt lat="47.76061" lon="2.04429">
        <ele>181</ele>
        <time>2015-11-01T09:10:59.053Z</time>
      </trkpt>
      <trkpt lat="47.76065" lon="2.04425">
        <ele>181</ele>
        <time>2015-11-01T09:10:58.029Z</time>
      </trkpt>
      <trkpt lat="47.7607" lon="2.04421">
        <ele>181</ele>
        <time>2015-11-01T09:10:57.066Z</time>
      </trkpt>
      <trkpt lat="47.76074" lon="2.04417">
        <ele>181</ele>
        <time>2015-11-01T09:10:56.030Z</time>
      </trkpt>
      <trkpt lat="47.76079" lon="2.04412">
        <ele>181</ele>
        <time>2015-11-01T09:10:55.065Z</time>
      </trkpt>
      <trkpt lat="47.76084" lon="2.04408">
        <ele>181</ele>
        <time>2015-11-01T09:10:54.026Z</time>
      </trkpt>
      <trkpt lat="47.76088" lon="2.04405">
        <ele>180</ele>
        <time>2015-11-01T09:10:53.082Z</time>
      </trkpt>
      <trkpt lat="47.76093" lon="2.044">
        <ele>180</ele>
        <time>2015-11-01T09:10:52.030Z</time>
      </trkpt>
      <trkpt lat="47.76098" lon="2.04396">
        <ele>181</ele>
        <time>2015-11-01T09:10:51.110Z</time>
      </trkpt>
      <trkpt lat="47.76103" lon="2.04392">
        <ele>181</ele>
        <time>2015-11-01T09:10:50.030Z</time>
      </trkpt>
      <trkpt lat="47.76108" lon="2.04388">
        <ele>180</ele>
        <time>2015-11-01T09:10:49.065Z</time>
      </trkpt>
      <trkpt lat="47.76112" lon="2.04385">
        <ele>180</ele>
        <time>2015-11-01T09:10:48.029Z</time>
      </trkpt>
      <trkpt lat="47.76118" lon="2.04382">
        <ele>180</ele>
        <time>2015-11-01T09:10:47.062Z</time>
      </trkpt>
      <trkpt lat="47.76122" lon="2.04378">
        <ele>180</ele>
        <time>2015-11-01T09:10:46.030Z</time>
      </trkpt>
      <trkpt lat="47.76127" lon="2.04373">
        <ele>180</ele>
        <time>2015-11-01T09:10:45.063Z</time>
      </trkpt>
      <trkpt lat="47.76132" lon="2.0437">
        <ele>179</ele>
        <time>2015-11-01T09:10:44.031Z</time>
      </trkpt>
      <trkpt lat="47.76137" lon="2.04366">
        <ele>179</ele>
        <time>2015-11-01T09:10:43.065Z</time>
      </trkpt>
      <trkpt lat="47.76141" lon="2.04363">
        <ele>178</ele>
        <time>2015-11-01T09:10:42.031Z</time>
      </trkpt>
      <trkpt lat="47.76146" lon="2.0436">
        <ele>177</ele>
        <time>2015-11-01T09:10:41.069Z</time>
      </trkpt>
      <trkpt lat="47.76151" lon="2.04356">
        <ele>178</ele>
        <time>2015-11-01T09:10:40.032Z</time>
      </trkpt>
      <trkpt lat="47.76155" lon="2.04352">
        <ele>177</ele>
        <time>2015-11-01T09:10:39.065Z</time>
      </trkpt>
      <trkpt lat="47.76158" lon="2.04349">
        <ele>176</ele>
        <time>2015-11-01T09:10:38.025Z</time>
      </trkpt>
      <trkpt lat="47.76162" lon="2.04344">
        <ele>176</ele>
        <time>2015-11-01T09:10:37.054Z</time>
      </trkpt>
      <trkpt lat="47.76165" lon="2.04338">
        <ele>176</ele>
        <time>2015-11-01T09:10:36.023Z</time>
      </trkpt>
      <trkpt lat="47.7617" lon="2.04335">
        <ele>176</ele>
        <time>2015-11-01T09:10:35.053Z</time>
      </trkpt>
      <trkpt lat="47.76174" lon="2.04331">
        <ele>176</ele>
        <time>2015-11-01T09:10:34.021Z</time>
      </trkpt>
      <trkpt lat="47.76179" lon="2.04328">
        <ele>176</ele>
        <time>2015-11-01T09:10:33.051Z</time>
      </trkpt>
      <trkpt lat="47.76184" lon="2.04327">
        <ele>175</ele>
        <time>2015-11-01T09:10:32.022Z</time>
      </trkpt>
      <trkpt lat="47.76188" lon="2.04322">
        <ele>175</ele>
        <time>2015-11-01T09:10:31.054Z</time>
      </trkpt>
      <trkpt lat="47.76195" lon="2.04315">
        <ele>174</ele>
        <time>2015-11-01T09:10:29.022Z</time>
      </trkpt>
      <trkpt lat="47.76199" lon="2.04309">
        <ele>174</ele>
        <time>2015-11-01T09:10:28.056Z</time>
      </trkpt>
      <trkpt lat="47.76202" lon="2.04304">
        <ele>175</ele>
        <time>2015-11-01T09:10:27.031Z</time>
      </trkpt>
      <trkpt lat="47.76207" lon="2.043">
        <ele>174</ele>
        <time>2015-11-01T09:10:26.066Z</time>
      </trkpt>
      <trkpt lat="47.76211" lon="2.04296">
        <ele>174</ele>
        <time>2015-11-01T09:10:25.021Z</time>
      </trkpt>
      <trkpt lat="47.76215" lon="2.04291">
        <ele>174</ele>
        <time>2015-11-01T09:10:24.075Z</time>
      </trkpt>
      <trkpt lat="47.76219" lon="2.04287">
        <ele>175</ele>
        <time>2015-11-01T09:10:23.032Z</time>
      </trkpt>
      <trkpt lat="47.76223" lon="2.04283">
        <ele>174</ele>
        <time>2015-11-01T09:10:22.066Z</time>
      </trkpt>
      <trkpt lat="47.76228" lon="2.04279">
        <ele>175</ele>
        <time>2015-11-01T09:10:21.031Z</time>
      </trkpt>
      <trkpt lat="47.76232" lon="2.04274">
        <ele>175</ele>
        <time>2015-11-01T09:10:20.054Z</time>
      </trkpt>
      <trkpt lat="47.76239" lon="2.04268">
        <ele>175</ele>
        <time>2015-11-01T09:10:18.023Z</time>
      </trkpt>
      <trkpt lat="47.76244" lon="2.04264">
        <ele>175</ele>
        <time>2015-11-01T09:10:17.098Z</time>
      </trkpt>
      <trkpt lat="47.76249" lon="2.04261">
        <ele>175</ele>
        <time>2015-11-01T09:10:16.041Z</time>
      </trkpt>
      <trkpt lat="47.76252" lon="2.04257">
        <ele>175</ele>
        <time>2015-11-01T09:10:15.053Z</time>
      </trkpt>
      <trkpt lat="47.76257" lon="2.04253">
        <ele>175</ele>
        <time>2015-11-01T09:10:14.020Z</time>
      </trkpt>
      <trkpt lat="47.76261" lon="2.04248">
        <ele>174</ele>
        <time>2015-11-01T09:10:13.200Z</time>
      </trkpt>
      <trkpt lat="47.76266" lon="2.04244">
        <ele>174</ele>
        <time>2015-11-01T09:10:12.022Z</time>
      </trkpt>
      <trkpt lat="47.76271" lon="2.0424">
        <ele>175</ele>
        <time>2015-11-01T09:10:11.071Z</time>
      </trkpt>
      <trkpt lat="47.76276" lon="2.04235">
        <ele>174</ele>
        <time>2015-11-01T09:10:10.025Z</time>
      </trkpt>
      <trkpt lat="47.76281" lon="2.04232">
        <ele>174</ele>
        <time>2015-11-01T09:10:09.066Z</time>
      </trkpt>
      <trkpt lat="47.76285" lon="2.04227">
        <ele>174</ele>
        <time>2015-11-01T09:10:08.030Z</time>
      </trkpt>
      <trkpt lat="47.7629" lon="2.04223">
        <ele>174</ele>
        <time>2015-11-01T09:10:07.053Z</time>
      </trkpt>
      <trkpt lat="47.76294" lon="2.04219">
        <ele>173</ele>
        <time>2015-11-01T09:10:06.024Z</time>
      </trkpt>
      <trkpt lat="47.76299" lon="2.04215">
        <ele>173</ele>
        <time>2015-11-01T09:10:05.053Z</time>
      </trkpt>
      <trkpt lat="47.76303" lon="2.04211">
        <ele>173</ele>
        <time>2015-11-01T09:10:04.023Z</time>
      </trkpt>
      <trkpt lat="47.76307" lon="2.04207">
        <ele>172</ele>
        <time>2015-11-01T09:10:03.054Z</time>
      </trkpt>
      <trkpt lat="47.76311" lon="2.04202">
        <ele>172</ele>
        <time>2015-11-01T09:10:02.023Z</time>
      </trkpt>
      <trkpt lat="47.76315" lon="2.04198">
        <ele>172</ele>
        <time>2015-11-01T09:10:01.054Z</time>
      </trkpt>
      <trkpt lat="47.76319" lon="2.04193">
        <ele>173</ele>
        <time>2015-11-01T09:10:00.025Z</time>
      </trkpt>
      <trkpt lat="47.76323" lon="2.04191">
        <ele>172</ele>
        <time>2015-11-01T09:09:59.055Z</time>
      </trkpt>
      <trkpt lat="47.7633" lon="2.04185">
        <ele>171</ele>
        <time>2015-11-01T09:09:57.033Z</time>
      </trkpt>
      <trkpt lat="47.76334" lon="2.04182">
        <ele>171</ele>
        <time>2015-11-01T09:09:56.068Z</time>
      </trkpt>
      <trkpt lat="47.7634" lon="2.04178">
        <ele>171</ele>
        <time>2015-11-01T09:09:55.056Z</time>
      </trkpt>
      <trkpt lat="47.76344" lon="2.04174">
        <ele>171</ele>
        <time>2015-11-01T09:09:54.067Z</time>
      </trkpt>
      <trkpt lat="47.76349" lon="2.04169">
        <ele>171</ele>
        <time>2015-11-01T09:09:53.032Z</time>
      </trkpt>
      <trkpt lat="47.76353" lon="2.04166">
        <ele>171</ele>
        <time>2015-11-01T09:09:52.068Z</time>
      </trkpt>
      <trkpt lat="47.76357" lon="2.04163">
        <ele>171</ele>
        <time>2015-11-01T09:09:51.034Z</time>
      </trkpt>
      <trkpt lat="47.76362" lon="2.04159">
        <ele>171</ele>
        <time>2015-11-01T09:09:50.139Z</time>
      </trkpt>
      <trkpt lat="47.76367" lon="2.04151">
        <ele>170</ele>
        <time>2015-11-01T09:09:48.031Z</time>
      </trkpt>
      <trkpt lat="47.76371" lon="2.04148">
        <ele>170</ele>
        <time>2015-11-01T09:09:47.067Z</time>
      </trkpt>
      <trkpt lat="47.76375" lon="2.04144">
        <ele>170</ele>
        <time>2015-11-01T09:09:46.031Z</time>
      </trkpt>
      <trkpt lat="47.7638" lon="2.0414">
        <ele>170</ele>
        <time>2015-11-01T09:09:45.071Z</time>
      </trkpt>
      <trkpt lat="47.76385" lon="2.04136">
        <ele>170</ele>
        <time>2015-11-01T09:09:44.036Z</time>
      </trkpt>
      <trkpt lat="47.76389" lon="2.04132">
        <ele>170</ele>
        <time>2015-11-01T09:09:43.069Z</time>
      </trkpt>
      <trkpt lat="47.76394" lon="2.04126">
        <ele>170</ele>
        <time>2015-11-01T09:09:42.034Z</time>
      </trkpt>
      <trkpt lat="47.76399" lon="2.04122">
        <ele>171</ele>
        <time>2015-11-01T09:09:41.062Z</time>
      </trkpt>
      <trkpt lat="47.76403" lon="2.04118">
        <ele>169</ele>
        <time>2015-11-01T09:09:40.031Z</time>
      </trkpt>
      <trkpt lat="47.76407" lon="2.04115">
        <ele>170</ele>
        <time>2015-11-01T09:09:39.074Z</time>
      </trkpt>
      <trkpt lat="47.76412" lon="2.0411">
        <ele>169</ele>
        <time>2015-11-01T09:09:38.025Z</time>
      </trkpt>
      <trkpt lat="47.76415" lon="2.04105">
        <ele>169</ele>
        <time>2015-11-01T09:09:37.054Z</time>
      </trkpt>
      <trkpt lat="47.76419" lon="2.04101">
        <ele>168</ele>
        <time>2015-11-01T09:09:36.025Z</time>
      </trkpt>
      <trkpt lat="47.76423" lon="2.04097">
        <ele>168</ele>
        <time>2015-11-01T09:09:35.054Z</time>
      </trkpt>
      <trkpt lat="47.76427" lon="2.04093">
        <ele>167</ele>
        <time>2015-11-01T09:09:34.025Z</time>
      </trkpt>
      <trkpt lat="47.76432" lon="2.04088">
        <ele>167</ele>
        <time>2015-11-01T09:09:33.052Z</time>
      </trkpt>
      <trkpt lat="47.76435" lon="2.04082">
        <ele>167</ele>
        <time>2015-11-01T09:09:32.023Z</time>
      </trkpt>
      <trkpt lat="47.76439" lon="2.04077">
        <ele>167</ele>
        <time>2015-11-01T09:09:31.054Z</time>
      </trkpt>
      <trkpt lat="47.76442" lon="2.04072">
        <ele>167</ele>
        <time>2015-11-01T09:09:30.023Z</time>
      </trkpt>
      <trkpt lat="47.76446" lon="2.04066">
        <ele>166</ele>
        <time>2015-11-01T09:09:29.052Z</time>
      </trkpt>
      <trkpt lat="47.76449" lon="2.04061">
        <ele>167</ele>
        <time>2015-11-01T09:09:28.047Z</time>
      </trkpt>
      <trkpt lat="47.76453" lon="2.04056">
        <ele>167</ele>
        <time>2015-11-01T09:09:27.069Z</time>
      </trkpt>
      <trkpt lat="47.76457" lon="2.04051">
        <ele>167</ele>
        <time>2015-11-01T09:09:26.031Z</time>
      </trkpt>
      <trkpt lat="47.76461" lon="2.04045">
        <ele>167</ele>
        <time>2015-11-01T09:09:25.062Z</time>
      </trkpt>
      <trkpt lat="47.76465" lon="2.04039">
        <ele>168</ele>
        <time>2015-11-01T09:09:24.036Z</time>
      </trkpt>
      <trkpt lat="47.76469" lon="2.04033">
        <ele>168</ele>
        <time>2015-11-01T09:09:23.074Z</time>
      </trkpt>
      <trkpt lat="47.76473" lon="2.04027">
        <ele>168</ele>
        <time>2015-11-01T09:09:22.024Z</time>
      </trkpt>
      <trkpt lat="47.76477" lon="2.0402">
        <ele>168</ele>
        <time>2015-11-01T09:09:21.071Z</time>
      </trkpt>
      <trkpt lat="47.76482" lon="2.04014">
        <ele>168</ele>
        <time>2015-11-01T09:09:20.030Z</time>
      </trkpt>
      <trkpt lat="47.76487" lon="2.04007">
        <ele>168</ele>
        <time>2015-11-01T09:09:19.066Z</time>
      </trkpt>
      <trkpt lat="47.76491" lon="2.04001">
        <ele>168</ele>
        <time>2015-11-01T09:09:18.030Z</time>
      </trkpt>
      <trkpt lat="47.76494" lon="2.03995">
        <ele>167</ele>
        <time>2015-11-01T09:09:17.227Z</time>
      </trkpt>
      <trkpt lat="47.76498" lon="2.03987">
        <ele>167</ele>
        <time>2015-11-01T09:09:16.032Z</time>
      </trkpt>
      <trkpt lat="47.76501" lon="2.03979">
        <ele>167</ele>
        <time>2015-11-01T09:09:15.073Z</time>
      </trkpt>
      <trkpt lat="47.76506" lon="2.03971">
        <ele>166</ele>
        <time>2015-11-01T09:09:14.035Z</time>
      </trkpt>
      <trkpt lat="47.7651" lon="2.03963">
        <ele>167</ele>
        <time>2015-11-01T09:09:13.119Z</time>
      </trkpt>
      <trkpt lat="47.76513" lon="2.03953">
        <ele>167</ele>
        <time>2015-11-01T09:09:12.026Z</time>
      </trkpt>
      <trkpt lat="47.76517" lon="2.03943">
        <ele>168</ele>
        <time>2015-11-01T09:09:11.074Z</time>
      </trkpt>
      <trkpt lat="47.76519" lon="2.03934">
        <ele>167</ele>
        <time>2015-11-01T09:09:10.037Z</time>
      </trkpt>
      <trkpt lat="47.76521" lon="2.03925">
        <ele>167</ele>
        <time>2015-11-01T09:09:09.072Z</time>
      </trkpt>
      <trkpt lat="47.76524" lon="2.03915">
        <ele>167</ele>
        <time>2015-11-01T09:09:08.034Z</time>
      </trkpt>
      <trkpt lat="47.76526" lon="2.03906">
        <ele>167</ele>
        <time>2015-11-01T09:09:07.076Z</time>
      </trkpt>
      <trkpt lat="47.76527" lon="2.03896">
        <ele>167</ele>
        <time>2015-11-01T09:09:06.025Z</time>
      </trkpt>
      <trkpt lat="47.76528" lon="2.03887">
        <ele>166</ele>
        <time>2015-11-01T09:09:05.056Z</time>
      </trkpt>
      <trkpt lat="47.76531" lon="2.03877">
        <ele>166</ele>
        <time>2015-11-01T09:09:04.024Z</time>
      </trkpt>
      <trkpt lat="47.76533" lon="2.03868">
        <ele>167</ele>
        <time>2015-11-01T09:09:03.059Z</time>
      </trkpt>
      <trkpt lat="47.76536" lon="2.03859">
        <ele>167</ele>
        <time>2015-11-01T09:09:02.026Z</time>
      </trkpt>
      <trkpt lat="47.76541" lon="2.03855">
        <ele>166</ele>
        <time>2015-11-01T09:09:01.058Z</time>
      </trkpt>
      <trkpt lat="47.76548" lon="2.03851">
        <ele>167</ele>
        <time>2015-11-01T09:09:00.026Z</time>
      </trkpt>
      <trkpt lat="47.76554" lon="2.03847">
        <ele>168</ele>
        <time>2015-11-01T09:08:59.068Z</time>
      </trkpt>
      <trkpt lat="47.7656" lon="2.03843">
        <ele>167</ele>
        <time>2015-11-01T09:08:58.028Z</time>
      </trkpt>
      <trkpt lat="47.76567" lon="2.03841">
        <ele>168</ele>
        <time>2015-11-01T09:08:57.069Z</time>
      </trkpt>
      <trkpt lat="47.76573" lon="2.03838">
        <ele>168</ele>
        <time>2015-11-01T09:08:56.029Z</time>
      </trkpt>
      <trkpt lat="47.76579" lon="2.03834">
        <ele>169</ele>
        <time>2015-11-01T09:08:55.067Z</time>
      </trkpt>
      <trkpt lat="47.76586" lon="2.03832">
        <ele>169</ele>
        <time>2015-11-01T09:08:54.032Z</time>
      </trkpt>
      <trkpt lat="47.76593" lon="2.03829">
        <ele>171</ele>
        <time>2015-11-01T09:08:53.211Z</time>
      </trkpt>
      <trkpt lat="47.766" lon="2.03826">
        <ele>170</ele>
        <time>2015-11-01T09:08:52.032Z</time>
      </trkpt>
      <trkpt lat="47.76607" lon="2.03825">
        <ele>170</ele>
        <time>2015-11-01T09:08:51.066Z</time>
      </trkpt>
      <trkpt lat="47.76614" lon="2.03824">
        <ele>171</ele>
        <time>2015-11-01T09:08:50.029Z</time>
      </trkpt>
      <trkpt lat="47.7662" lon="2.03823">
        <ele>171</ele>
        <time>2015-11-01T09:08:49.064Z</time>
      </trkpt>
      <trkpt lat="47.76626" lon="2.03823">
        <ele>171</ele>
        <time>2015-11-01T09:08:48.030Z</time>
      </trkpt>
      <trkpt lat="47.76632" lon="2.03823">
        <ele>172</ele>
        <time>2015-11-01T09:08:47.067Z</time>
      </trkpt>
      <trkpt lat="47.76638" lon="2.03823">
        <ele>173</ele>
        <time>2015-11-01T09:08:46.053Z</time>
      </trkpt>
      <trkpt lat="47.76643" lon="2.03825">
        <ele>173</ele>
        <time>2015-11-01T09:08:45.059Z</time>
      </trkpt>
      <trkpt lat="47.76649" lon="2.03825">
        <ele>173</ele>
        <time>2015-11-01T09:08:44.028Z</time>
      </trkpt>
      <trkpt lat="47.76654" lon="2.03824">
        <ele>172</ele>
        <time>2015-11-01T09:08:43.064Z</time>
      </trkpt>
      <trkpt lat="47.76661" lon="2.03819">
        <ele>173</ele>
        <time>2015-11-01T09:08:41.030Z</time>
      </trkpt>
      <trkpt lat="47.76662" lon="2.03814">
        <ele>173</ele>
        <time>2015-11-01T09:08:40.060Z</time>
      </trkpt>
      <trkpt lat="47.76663" lon="2.03804">
        <ele>174</ele>
        <time>2015-11-01T09:08:38.022Z</time>
      </trkpt>
      <trkpt lat="47.76662" lon="2.03799">
        <ele>174</ele>
        <time>2015-11-01T09:08:37.054Z</time>
      </trkpt>
      <trkpt lat="47.76662" lon="2.03787">
        <ele>174</ele>
        <time>2015-11-01T09:08:35.022Z</time>
      </trkpt>
      <trkpt lat="47.76662" lon="2.0378">
        <ele>174</ele>
        <time>2015-11-01T09:08:34.051Z</time>
      </trkpt>
      <trkpt lat="47.76661" lon="2.03771">
        <ele>174</ele>
        <time>2015-11-01T09:08:33.021Z</time>
      </trkpt>
      <trkpt lat="47.76661" lon="2.03762">
        <ele>174</ele>
        <time>2015-11-01T09:08:32.052Z</time>
      </trkpt>
      <trkpt lat="47.7666" lon="2.03753">
        <ele>173</ele>
        <time>2015-11-01T09:08:31.021Z</time>
      </trkpt>
      <trkpt lat="47.7666" lon="2.03745">
        <ele>173</ele>
        <time>2015-11-01T09:08:30.072Z</time>
      </trkpt>
      <trkpt lat="47.7666" lon="2.03736">
        <ele>173</ele>
        <time>2015-11-01T09:08:29.021Z</time>
      </trkpt>
      <trkpt lat="47.76659" lon="2.03727">
        <ele>173</ele>
        <time>2015-11-01T09:08:28.057Z</time>
      </trkpt>
      <trkpt lat="47.76659" lon="2.03718">
        <ele>173</ele>
        <time>2015-11-01T09:08:27.030Z</time>
      </trkpt>
      <trkpt lat="47.76658" lon="2.0371">
        <ele>173</ele>
        <time>2015-11-01T09:08:26.064Z</time>
      </trkpt>
      <trkpt lat="47.76658" lon="2.03702">
        <ele>172</ele>
        <time>2015-11-01T09:08:25.029Z</time>
      </trkpt>
      <trkpt lat="47.76658" lon="2.03694">
        <ele>172</ele>
        <time>2015-11-01T09:08:24.066Z</time>
      </trkpt>
      <trkpt lat="47.76657" lon="2.03686">
        <ele>172</ele>
        <time>2015-11-01T09:08:23.030Z</time>
      </trkpt>
      <trkpt lat="47.76656" lon="2.03677">
        <ele>172</ele>
        <time>2015-11-01T09:08:22.064Z</time>
      </trkpt>
      <trkpt lat="47.76656" lon="2.03668">
        <ele>172</ele>
        <time>2015-11-01T09:08:21.030Z</time>
      </trkpt>
      <trkpt lat="47.76656" lon="2.03659">
        <ele>172</ele>
        <time>2015-11-01T09:08:20.064Z</time>
      </trkpt>
      <trkpt lat="47.76655" lon="2.03649">
        <ele>171</ele>
        <time>2015-11-01T09:08:19.028Z</time>
      </trkpt>
      <trkpt lat="47.76655" lon="2.03639">
        <ele>171</ele>
        <time>2015-11-01T09:08:18.067Z</time>
      </trkpt>
      <trkpt lat="47.76654" lon="2.0363">
        <ele>172</ele>
        <time>2015-11-01T09:08:17.031Z</time>
      </trkpt>
      <trkpt lat="47.76654" lon="2.03621">
        <ele>171</ele>
        <time>2015-11-01T09:08:16.066Z</time>
      </trkpt>
      <trkpt lat="47.76654" lon="2.03612">
        <ele>171</ele>
        <time>2015-11-01T09:08:15.029Z</time>
      </trkpt>
      <trkpt lat="47.76653" lon="2.03603">
        <ele>170</ele>
        <time>2015-11-01T09:08:14.079Z</time>
      </trkpt>
      <trkpt lat="47.76652" lon="2.03593">
        <ele>170</ele>
        <time>2015-11-01T09:08:13.030Z</time>
      </trkpt>
      <trkpt lat="47.76652" lon="2.03583">
        <ele>171</ele>
        <time>2015-11-01T09:08:12.064Z</time>
      </trkpt>
      <trkpt lat="47.76652" lon="2.03573">
        <ele>171</ele>
        <time>2015-11-01T09:08:11.032Z</time>
      </trkpt>
      <trkpt lat="47.76651" lon="2.03563">
        <ele>171</ele>
        <time>2015-11-01T09:08:10.067Z</time>
      </trkpt>
      <trkpt lat="47.76651" lon="2.03553">
        <ele>172</ele>
        <time>2015-11-01T09:08:09.029Z</time>
      </trkpt>
      <trkpt lat="47.7665" lon="2.03544">
        <ele>172</ele>
        <time>2015-11-01T09:08:08.062Z</time>
      </trkpt>
      <trkpt lat="47.76649" lon="2.03534">
        <ele>172</ele>
        <time>2015-11-01T09:08:07.024Z</time>
      </trkpt>
      <trkpt lat="47.76649" lon="2.03524">
        <ele>172</ele>
        <time>2015-11-01T09:08:06.058Z</time>
      </trkpt>
      <trkpt lat="47.76648" lon="2.03513">
        <ele>172</ele>
        <time>2015-11-01T09:08:05.021Z</time>
      </trkpt>
      <trkpt lat="47.76648" lon="2.03506">
        <ele>170</ele>
        <time>2015-11-01T09:08:04.107Z</time>
      </trkpt>
      <trkpt lat="47.76647" lon="2.03497">
        <ele>171</ele>
        <time>2015-11-01T09:08:03.020Z</time>
      </trkpt>
      <trkpt lat="47.76646" lon="2.03487">
        <ele>170</ele>
        <time>2015-11-01T09:08:02.058Z</time>
      </trkpt>
      <trkpt lat="47.76646" lon="2.03476">
        <ele>171</ele>
        <time>2015-11-01T09:08:01.024Z</time>
      </trkpt>
      <trkpt lat="47.76645" lon="2.03466">
        <ele>170</ele>
        <time>2015-11-01T09:08:00.096Z</time>
      </trkpt>
      <trkpt lat="47.76645" lon="2.03457">
        <ele>170</ele>
        <time>2015-11-01T09:07:59.026Z</time>
      </trkpt>
      <trkpt lat="47.76644" lon="2.03448">
        <ele>170</ele>
        <time>2015-11-01T09:07:58.078Z</time>
      </trkpt>
      <trkpt lat="47.76643" lon="2.03438">
        <ele>170</ele>
        <time>2015-11-01T09:07:57.034Z</time>
      </trkpt>
      <trkpt lat="47.76643" lon="2.03428">
        <ele>170</ele>
        <time>2015-11-01T09:07:56.074Z</time>
      </trkpt>
      <trkpt lat="47.76642" lon="2.03419">
        <ele>169</ele>
        <time>2015-11-01T09:07:55.036Z</time>
      </trkpt>
      <trkpt lat="47.7664" lon="2.0341">
        <ele>169</ele>
        <time>2015-11-01T09:07:54.073Z</time>
      </trkpt>
      <trkpt lat="47.7664" lon="2.03401">
        <ele>169</ele>
        <time>2015-11-01T09:07:53.034Z</time>
      </trkpt>
      <trkpt lat="47.7664" lon="2.03391">
        <ele>169</ele>
        <time>2015-11-01T09:07:52.065Z</time>
      </trkpt>
      <trkpt lat="47.7664" lon="2.03383">
        <ele>170</ele>
        <time>2015-11-01T09:07:51.031Z</time>
      </trkpt>
      <trkpt lat="47.7664" lon="2.03374">
        <ele>170</ele>
        <time>2015-11-01T09:07:50.065Z</time>
      </trkpt>
      <trkpt lat="47.76639" lon="2.03365">
        <ele>170</ele>
        <time>2015-11-01T09:07:49.032Z</time>
      </trkpt>
      <trkpt lat="47.76639" lon="2.03355">
        <ele>170</ele>
        <time>2015-11-01T09:07:48.070Z</time>
      </trkpt>
      <trkpt lat="47.76639" lon="2.03346">
        <ele>170</ele>
        <time>2015-11-01T09:07:47.033Z</time>
      </trkpt>
      <trkpt lat="47.76639" lon="2.03335">
        <ele>171</ele>
        <time>2015-11-01T09:07:46.066Z</time>
      </trkpt>
      <trkpt lat="47.76638" lon="2.03326">
        <ele>171</ele>
        <time>2015-11-01T09:07:45.032Z</time>
      </trkpt>
      <trkpt lat="47.76639" lon="2.03316">
        <ele>171</ele>
        <time>2015-11-01T09:07:44.067Z</time>
      </trkpt>
      <trkpt lat="47.76639" lon="2.03306">
        <ele>171</ele>
        <time>2015-11-01T09:07:43.028Z</time>
      </trkpt>
      <trkpt lat="47.7664" lon="2.03295">
        <ele>171</ele>
        <time>2015-11-01T09:07:42.080Z</time>
      </trkpt>
      <trkpt lat="47.76641" lon="2.03286">
        <ele>171</ele>
        <time>2015-11-01T09:07:41.030Z</time>
      </trkpt>
      <trkpt lat="47.76642" lon="2.03276">
        <ele>172</ele>
        <time>2015-11-01T09:07:40.065Z</time>
      </trkpt>
      <trkpt lat="47.76643" lon="2.03267">
        <ele>172</ele>
        <time>2015-11-01T09:07:39.022Z</time>
      </trkpt>
      <trkpt lat="47.76644" lon="2.03256">
        <ele>172</ele>
        <time>2015-11-01T09:07:38.051Z</time>
      </trkpt>
      <trkpt lat="47.76645" lon="2.03247">
        <ele>172</ele>
        <time>2015-11-01T09:07:37.021Z</time>
      </trkpt>
      <trkpt lat="47.76646" lon="2.03238">
        <ele>172</ele>
        <time>2015-11-01T09:07:36.051Z</time>
      </trkpt>
      <trkpt lat="47.76647" lon="2.0323">
        <ele>173</ele>
        <time>2015-11-01T09:07:35.023Z</time>
      </trkpt>
      <trkpt lat="47.76648" lon="2.0322">
        <ele>173</ele>
        <time>2015-11-01T09:07:34.051Z</time>
      </trkpt>
      <trkpt lat="47.76649" lon="2.03211">
        <ele>173</ele>
        <time>2015-11-01T09:07:33.023Z</time>
      </trkpt>
      <trkpt lat="47.7665" lon="2.03202">
        <ele>173</ele>
        <time>2015-11-01T09:07:32.052Z</time>
      </trkpt>
      <trkpt lat="47.76652" lon="2.03193">
        <ele>173</ele>
        <time>2015-11-01T09:07:31.021Z</time>
      </trkpt>
      <trkpt lat="47.76653" lon="2.03183">
        <ele>173</ele>
        <time>2015-11-01T09:07:30.050Z</time>
      </trkpt>
      <trkpt lat="47.76654" lon="2.03175">
        <ele>173</ele>
        <time>2015-11-01T09:07:29.043Z</time>
      </trkpt>
      <trkpt lat="47.76655" lon="2.03166">
        <ele>173</ele>
        <time>2015-11-01T09:07:28.075Z</time>
      </trkpt>
      <trkpt lat="47.76656" lon="2.03157">
        <ele>173</ele>
        <time>2015-11-01T09:07:27.030Z</time>
      </trkpt>
      <trkpt lat="47.76657" lon="2.03148">
        <ele>173</ele>
        <time>2015-11-01T09:07:26.081Z</time>
      </trkpt>
      <trkpt lat="47.76658" lon="2.03139">
        <ele>173</ele>
        <time>2015-11-01T09:07:25.030Z</time>
      </trkpt>
      <trkpt lat="47.76659" lon="2.03131">
        <ele>173</ele>
        <time>2015-11-01T09:07:24.066Z</time>
      </trkpt>
      <trkpt lat="47.7666" lon="2.03123">
        <ele>173</ele>
        <time>2015-11-01T09:07:23.030Z</time>
      </trkpt>
      <trkpt lat="47.76661" lon="2.03114">
        <ele>173</ele>
        <time>2015-11-01T09:07:22.064Z</time>
      </trkpt>
      <trkpt lat="47.76662" lon="2.03107">
        <ele>173</ele>
        <time>2015-11-01T09:07:21.032Z</time>
      </trkpt>
      <trkpt lat="47.76663" lon="2.031">
        <ele>173</ele>
        <time>2015-11-01T09:07:20.066Z</time>
      </trkpt>
      <trkpt lat="47.76663" lon="2.03093">
        <ele>173</ele>
        <time>2015-11-01T09:07:19.030Z</time>
      </trkpt>
      <trkpt lat="47.76664" lon="2.03086">
        <ele>174</ele>
        <time>2015-11-01T09:07:18.066Z</time>
      </trkpt>
      <trkpt lat="47.76664" lon="2.03079">
        <ele>174</ele>
        <time>2015-11-01T09:07:17.031Z</time>
      </trkpt>
      <trkpt lat="47.76664" lon="2.03072">
        <ele>176</ele>
        <time>2015-11-01T09:07:16.092Z</time>
      </trkpt>
      <trkpt lat="47.7666" lon="2.03063">
        <ele>176</ele>
        <time>2015-11-01T09:07:14.031Z</time>
      </trkpt>
      <trkpt lat="47.76658" lon="2.03062">
        <ele>176</ele>
        <time>2015-11-01T09:07:13.067Z</time>
      </trkpt>
      <trkpt lat="47.76651" lon="2.03064">
        <ele>177</ele>
        <time>2015-11-01T09:07:10.048Z</time>
      </trkpt>
      <trkpt lat="47.76647" lon="2.03063">
        <ele>177</ele>
        <time>2015-11-01T09:07:09.231Z</time>
      </trkpt>
      <trkpt lat="47.7664" lon="2.03063">
        <ele>177</ele>
        <time>2015-11-01T09:07:07.023Z</time>
      </trkpt>
      <trkpt lat="47.76635" lon="2.03063">
        <ele>178</ele>
        <time>2015-11-01T09:07:06.054Z</time>
      </trkpt>
      <trkpt lat="47.76627" lon="2.03064">
        <ele>179</ele>
        <time>2015-11-01T09:07:04.022Z</time>
      </trkpt>
      <trkpt lat="47.76623" lon="2.03064">
        <ele>178</ele>
        <time>2015-11-01T09:07:03.050Z</time>
      </trkpt>
      <trkpt lat="47.76614" lon="2.03065">
        <ele>179</ele>
        <time>2015-11-01T09:07:01.022Z</time>
      </trkpt>
      <trkpt lat="47.7661" lon="2.03065">
        <ele>179</ele>
        <time>2015-11-01T09:07:00.082Z</time>
      </trkpt>
      <trkpt lat="47.76605" lon="2.03065">
        <ele>180</ele>
        <time>2015-11-01T09:06:59.023Z</time>
      </trkpt>
      <trkpt lat="47.766" lon="2.03065">
        <ele>180</ele>
        <time>2015-11-01T09:06:58.054Z</time>
      </trkpt>
      <trkpt lat="47.76595" lon="2.03065">
        <ele>180</ele>
        <time>2015-11-01T09:06:57.030Z</time>
      </trkpt>
      <trkpt lat="47.76591" lon="2.03066">
        <ele>179</ele>
        <time>2015-11-01T09:06:56.075Z</time>
      </trkpt>
      <trkpt lat="47.76586" lon="2.03066">
        <ele>179</ele>
        <time>2015-11-01T09:06:55.034Z</time>
      </trkpt>
      <trkpt lat="47.76581" lon="2.03065">
        <ele>178</ele>
        <time>2015-11-01T09:06:54.064Z</time>
      </trkpt>
      <trkpt lat="47.76575" lon="2.03064">
        <ele>178</ele>
        <time>2015-11-01T09:06:53.033Z</time>
      </trkpt>
      <trkpt lat="47.7657" lon="2.03063">
        <ele>178</ele>
        <time>2015-11-01T09:06:52.067Z</time>
      </trkpt>
      <trkpt lat="47.76564" lon="2.03065">
        <ele>177</ele>
        <time>2015-11-01T09:06:51.033Z</time>
      </trkpt>
      <trkpt lat="47.76559" lon="2.03062">
        <ele>176</ele>
        <time>2015-11-01T09:06:50.067Z</time>
      </trkpt>
      <trkpt lat="47.76551" lon="2.03061">
        <ele>174</ele>
        <time>2015-11-01T09:06:48.035Z</time>
      </trkpt>
      <trkpt lat="47.76546" lon="2.03061">
        <ele>172</ele>
        <time>2015-11-01T09:06:47.074Z</time>
      </trkpt>
      <trkpt lat="47.76542" lon="2.0306">
        <ele>172</ele>
        <time>2015-11-01T09:06:46.032Z</time>
      </trkpt>
      <trkpt lat="47.76539" lon="2.03062">
        <ele>170</ele>
        <time>2015-11-01T09:06:45.062Z</time>
      </trkpt>
      <trkpt lat="47.76531" lon="2.0306">
        <ele>166</ele>
        <time>2015-11-01T09:06:43.030Z</time>
      </trkpt>
      <trkpt lat="47.76525" lon="2.03059">
        <ele>166</ele>
        <time>2015-11-01T09:06:42.064Z</time>
      </trkpt>
      <trkpt lat="47.7652" lon="2.03058">
        <ele>166</ele>
        <time>2015-11-01T09:06:41.028Z</time>
      </trkpt>
      <trkpt lat="47.76515" lon="2.03056">
        <ele>166</ele>
        <time>2015-11-01T09:06:40.070Z</time>
      </trkpt>
      <trkpt lat="47.7651" lon="2.03055">
        <ele>166</ele>
        <time>2015-11-01T09:06:39.025Z</time>
      </trkpt>
      <trkpt lat="47.76503" lon="2.03054">
        <ele>166</ele>
        <time>2015-11-01T09:06:38.062Z</time>
      </trkpt>
      <trkpt lat="47.76498" lon="2.03053">
        <ele>165</ele>
        <time>2015-11-01T09:06:37.021Z</time>
      </trkpt>
      <trkpt lat="47.76491" lon="2.03051">
        <ele>164</ele>
        <time>2015-11-01T09:06:36.053Z</time>
      </trkpt>
      <trkpt lat="47.76485" lon="2.03049">
        <ele>164</ele>
        <time>2015-11-01T09:06:35.021Z</time>
      </trkpt>
      <trkpt lat="47.76478" lon="2.03046">
        <ele>164</ele>
        <time>2015-11-01T09:06:34.054Z</time>
      </trkpt>
      <trkpt lat="47.7647" lon="2.03042">
        <ele>164</ele>
        <time>2015-11-01T09:06:33.021Z</time>
      </trkpt>
      <trkpt lat="47.76465" lon="2.03041">
        <ele>163</ele>
        <time>2015-11-01T09:06:32.051Z</time>
      </trkpt>
      <trkpt lat="47.76461" lon="2.03041">
        <ele>164</ele>
        <time>2015-11-01T09:06:31.023Z</time>
      </trkpt>
      <trkpt lat="47.76456" lon="2.03042">
        <ele>164</ele>
        <time>2015-11-01T09:06:30.051Z</time>
      </trkpt>
      <trkpt lat="47.76449" lon="2.03041">
        <ele>166</ele>
        <time>2015-11-01T09:06:28.026Z</time>
      </trkpt>
      <trkpt lat="47.76446" lon="2.03041">
        <ele>165</ele>
        <time>2015-11-01T09:06:27.074Z</time>
      </trkpt>
      <trkpt lat="47.76444" lon="2.03031">
        <ele>164</ele>
        <time>2015-11-01T09:06:24.071Z</time>
      </trkpt>
      <trkpt lat="47.76443" lon="2.03026">
        <ele>163</ele>
        <time>2015-11-01T09:06:23.060Z</time>
      </trkpt>
      <trkpt lat="47.76438" lon="2.03017">
        <ele>163</ele>
        <time>2015-11-01T09:06:21.028Z</time>
      </trkpt>
      <trkpt lat="47.76435" lon="2.03012">
        <ele>163</ele>
        <time>2015-11-01T09:06:20.221Z</time>
      </trkpt>
      <trkpt lat="47.76432" lon="2.03006">
        <ele>163</ele>
        <time>2015-11-01T09:06:19.022Z</time>
      </trkpt>
      <trkpt lat="47.76429" lon="2.03">
        <ele>162</ele>
        <time>2015-11-01T09:06:18.071Z</time>
      </trkpt>
      <trkpt lat="47.76426" lon="2.02992">
        <ele>162</ele>
        <time>2015-11-01T09:06:17.020Z</time>
      </trkpt>
      <trkpt lat="47.76422" lon="2.02986">
        <ele>163</ele>
        <time>2015-11-01T09:06:16.051Z</time>
      </trkpt>
      <trkpt lat="47.76419" lon="2.02979">
        <ele>163</ele>
        <time>2015-11-01T09:06:15.021Z</time>
      </trkpt>
      <trkpt lat="47.76415" lon="2.02972">
        <ele>162</ele>
        <time>2015-11-01T09:06:14.050Z</time>
      </trkpt>
      <trkpt lat="47.76411" lon="2.02966">
        <ele>162</ele>
        <time>2015-11-01T09:06:13.020Z</time>
      </trkpt>
      <trkpt lat="47.76407" lon="2.02959">
        <ele>163</ele>
        <time>2015-11-01T09:06:12.057Z</time>
      </trkpt>
      <trkpt lat="47.76404" lon="2.02953">
        <ele>162</ele>
        <time>2015-11-01T09:06:11.022Z</time>
      </trkpt>
      <trkpt lat="47.76398" lon="2.02951">
        <ele>162</ele>
        <time>2015-11-01T09:06:10.055Z</time>
      </trkpt>
      <trkpt lat="47.76394" lon="2.0295">
        <ele>162</ele>
        <time>2015-11-01T09:06:09.023Z</time>
      </trkpt>
      <trkpt lat="47.7639" lon="2.02951">
        <ele>162</ele>
        <time>2015-11-01T09:06:08.064Z</time>
      </trkpt>
      <trkpt lat="47.76385" lon="2.02951">
        <ele>161</ele>
        <time>2015-11-01T09:06:07.022Z</time>
      </trkpt>
      <trkpt lat="47.76381" lon="2.02946">
        <ele>162</ele>
        <time>2015-11-01T09:06:06.052Z</time>
      </trkpt>
      <trkpt lat="47.76377" lon="2.02941">
        <ele>162</ele>
        <time>2015-11-01T09:06:05.021Z</time>
      </trkpt>
      <trkpt lat="47.76373" lon="2.02936">
        <ele>162</ele>
        <time>2015-11-01T09:06:04.051Z</time>
      </trkpt>
      <trkpt lat="47.76369" lon="2.0293">
        <ele>163</ele>
        <time>2015-11-01T09:06:03.021Z</time>
      </trkpt>
      <trkpt lat="47.76365" lon="2.02924">
        <ele>162</ele>
        <time>2015-11-01T09:06:02.068Z</time>
      </trkpt>
      <trkpt lat="47.76361" lon="2.02917">
        <ele>161</ele>
        <time>2015-11-01T09:06:01.023Z</time>
      </trkpt>
      <trkpt lat="47.7636" lon="2.02909">
        <ele>161</ele>
        <time>2015-11-01T09:06:00.085Z</time>
      </trkpt>
      <trkpt lat="47.7636" lon="2.02901">
        <ele>161</ele>
        <time>2015-11-01T09:05:59.022Z</time>
      </trkpt>
      <trkpt lat="47.7636" lon="2.02893">
        <ele>161</ele>
        <time>2015-11-01T09:05:58.057Z</time>
      </trkpt>
      <trkpt lat="47.76363" lon="2.02884">
        <ele>162</ele>
        <time>2015-11-01T09:05:57.030Z</time>
      </trkpt>
      <trkpt lat="47.76363" lon="2.02875">
        <ele>161</ele>
        <time>2015-11-01T09:05:56.066Z</time>
      </trkpt>
      <trkpt lat="47.76362" lon="2.02867">
        <ele>161</ele>
        <time>2015-11-01T09:05:55.032Z</time>
      </trkpt>
      <trkpt lat="47.76363" lon="2.02859">
        <ele>162</ele>
        <time>2015-11-01T09:05:54.068Z</time>
      </trkpt>
      <trkpt lat="47.76364" lon="2.0285">
        <ele>163</ele>
        <time>2015-11-01T09:05:53.033Z</time>
      </trkpt>
      <trkpt lat="47.76366" lon="2.02841">
        <ele>163</ele>
        <time>2015-11-01T09:05:52.065Z</time>
      </trkpt>
      <trkpt lat="47.76367" lon="2.02828">
        <ele>165</ele>
        <time>2015-11-01T09:05:51.031Z</time>
      </trkpt>
      <trkpt lat="47.76368" lon="2.0282">
        <ele>165</ele>
        <time>2015-11-01T09:05:50.062Z</time>
      </trkpt>
      <trkpt lat="47.76367" lon="2.02814">
        <ele>166</ele>
        <time>2015-11-01T09:05:49.029Z</time>
      </trkpt>
      <trkpt lat="47.76366" lon="2.02809">
        <ele>166</ele>
        <time>2015-11-01T09:05:48.067Z</time>
      </trkpt>
      <trkpt lat="47.76362" lon="2.02801">
        <ele>166</ele>
        <time>2015-11-01T09:05:46.024Z</time>
      </trkpt>
      <trkpt lat="47.76361" lon="2.02797">
        <ele>166</ele>
        <time>2015-11-01T09:05:45.054Z</time>
      </trkpt>
      <trkpt lat="47.76357" lon="2.02787">
        <ele>165</ele>
        <time>2015-11-01T09:05:41.021Z</time>
      </trkpt>
      <trkpt lat="47.76356" lon="2.02786">
        <ele>165</ele>
        <time>2015-11-01T09:05:40.048Z</time>
      </trkpt>
      <trkpt lat="47.7635" lon="2.02777">
        <ele>163</ele>
        <time>2015-11-01T09:05:32.020Z</time>
      </trkpt>
      <trkpt lat="47.76348" lon="2.02773">
        <ele>163</ele>
        <time>2015-11-01T09:05:31.194Z</time>
      </trkpt>
      <trkpt lat="47.76343" lon="2.02763">
        <ele>163</ele>
        <time>2015-11-01T09:05:29.020Z</time>
      </trkpt>
      <trkpt lat="47.76341" lon="2.02757">
        <ele>163</ele>
        <time>2015-11-01T09:05:28.104Z</time>
      </trkpt>
      <trkpt lat="47.76338" lon="2.0275">
        <ele>164</ele>
        <time>2015-11-01T09:05:27.033Z</time>
      </trkpt>
      <trkpt lat="47.76335" lon="2.02743">
        <ele>163</ele>
        <time>2015-11-01T09:05:26.064Z</time>
      </trkpt>
      <trkpt lat="47.76332" lon="2.02736">
        <ele>163</ele>
        <time>2015-11-01T09:05:25.029Z</time>
      </trkpt>
      <trkpt lat="47.76328" lon="2.0273">
        <ele>163</ele>
        <time>2015-11-01T09:05:24.065Z</time>
      </trkpt>
      <trkpt lat="47.76325" lon="2.02722">
        <ele>163</ele>
        <time>2015-11-01T09:05:23.028Z</time>
      </trkpt>
      <trkpt lat="47.76322" lon="2.02715">
        <ele>163</ele>
        <time>2015-11-01T09:05:22.065Z</time>
      </trkpt>
      <trkpt lat="47.76319" lon="2.02706">
        <ele>164</ele>
        <time>2015-11-01T09:05:21.031Z</time>
      </trkpt>
      <trkpt lat="47.76317" lon="2.02698">
        <ele>164</ele>
        <time>2015-11-01T09:05:20.075Z</time>
      </trkpt>
      <trkpt lat="47.76314" lon="2.02692">
        <ele>164</ele>
        <time>2015-11-01T09:05:19.034Z</time>
      </trkpt>
      <trkpt lat="47.76312" lon="2.02687">
        <ele>164</ele>
        <time>2015-11-01T09:05:18.071Z</time>
      </trkpt>
      <trkpt lat="47.76307" lon="2.02677">
        <ele>164</ele>
        <time>2015-11-01T09:05:16.034Z</time>
      </trkpt>
      <trkpt lat="47.76304" lon="2.0267">
        <ele>165</ele>
        <time>2015-11-01T09:05:15.070Z</time>
      </trkpt>
      <trkpt lat="47.76301" lon="2.02663">
        <ele>167</ele>
        <time>2015-11-01T09:05:14.032Z</time>
      </trkpt>
      <trkpt lat="47.76299" lon="2.02657">
        <ele>166</ele>
        <time>2015-11-01T09:05:13.066Z</time>
      </trkpt>
      <trkpt lat="47.76296" lon="2.02651">
        <ele>166</ele>
        <time>2015-11-01T09:05:12.034Z</time>
      </trkpt>
      <trkpt lat="47.76293" lon="2.02644">
        <ele>167</ele>
        <time>2015-11-01T09:05:11.093Z</time>
      </trkpt>
      <trkpt lat="47.7629" lon="2.02638">
        <ele>167</ele>
        <time>2015-11-01T09:05:10.030Z</time>
      </trkpt>
      <trkpt lat="47.76288" lon="2.02632">
        <ele>167</ele>
        <time>2015-11-01T09:05:09.230Z</time>
      </trkpt>
      <trkpt lat="47.76284" lon="2.02626">
        <ele>166</ele>
        <time>2015-11-01T09:05:08.034Z</time>
      </trkpt>
      <trkpt lat="47.76282" lon="2.0262">
        <ele>166</ele>
        <time>2015-11-01T09:05:07.053Z</time>
      </trkpt>
      <trkpt lat="47.76279" lon="2.02613">
        <ele>167</ele>
        <time>2015-11-01T09:05:06.021Z</time>
      </trkpt>
      <trkpt lat="47.76277" lon="2.02607">
        <ele>167</ele>
        <time>2015-11-01T09:05:05.073Z</time>
      </trkpt>
      <trkpt lat="47.76274" lon="2.02601">
        <ele>167</ele>
        <time>2015-11-01T09:05:04.020Z</time>
      </trkpt>
      <trkpt lat="47.76271" lon="2.02594">
        <ele>167</ele>
        <time>2015-11-01T09:05:03.050Z</time>
      </trkpt>
      <trkpt lat="47.76269" lon="2.02588">
        <ele>167</ele>
        <time>2015-11-01T09:05:02.020Z</time>
      </trkpt>
      <trkpt lat="47.76266" lon="2.02582">
        <ele>167</ele>
        <time>2015-11-01T09:05:01.050Z</time>
      </trkpt>
      <trkpt lat="47.76261" lon="2.02572">
        <ele>166</ele>
        <time>2015-11-01T09:04:59.019Z</time>
      </trkpt>
      <trkpt lat="47.76259" lon="2.02566">
        <ele>167</ele>
        <time>2015-11-01T09:04:58.055Z</time>
      </trkpt>
      <trkpt lat="47.76254" lon="2.02555">
        <ele>166</ele>
        <time>2015-11-01T09:04:56.030Z</time>
      </trkpt>
      <trkpt lat="47.76252" lon="2.02549">
        <ele>166</ele>
        <time>2015-11-01T09:04:55.071Z</time>
      </trkpt>
      <trkpt lat="47.76249" lon="2.02544">
        <ele>166</ele>
        <time>2015-11-01T09:04:54.028Z</time>
      </trkpt>
      <trkpt lat="47.76246" lon="2.02539">
        <ele>165</ele>
        <time>2015-11-01T09:04:53.065Z</time>
      </trkpt>
      <trkpt lat="47.76243" lon="2.02532">
        <ele>166</ele>
        <time>2015-11-01T09:04:52.029Z</time>
      </trkpt>
      <trkpt lat="47.7624" lon="2.02526">
        <ele>166</ele>
        <time>2015-11-01T09:04:51.065Z</time>
      </trkpt>
      <trkpt lat="47.76237" lon="2.02519">
        <ele>165</ele>
        <time>2015-11-01T09:04:50.029Z</time>
      </trkpt>
      <trkpt lat="47.76235" lon="2.02514">
        <ele>166</ele>
        <time>2015-11-01T09:04:49.067Z</time>
      </trkpt>
      <trkpt lat="47.76232" lon="2.02508">
        <ele>165</ele>
        <time>2015-11-01T09:04:48.030Z</time>
      </trkpt>
      <trkpt lat="47.7623" lon="2.02501">
        <ele>165</ele>
        <time>2015-11-01T09:04:47.065Z</time>
      </trkpt>
      <trkpt lat="47.76227" lon="2.02495">
        <ele>165</ele>
        <time>2015-11-01T09:04:46.028Z</time>
      </trkpt>
      <trkpt lat="47.76225" lon="2.02489">
        <ele>165</ele>
        <time>2015-11-01T09:04:45.070Z</time>
      </trkpt>
      <trkpt lat="47.76223" lon="2.02483">
        <ele>165</ele>
        <time>2015-11-01T09:04:44.055Z</time>
      </trkpt>
      <trkpt lat="47.76221" lon="2.02477">
        <ele>165</ele>
        <time>2015-11-01T09:04:43.072Z</time>
      </trkpt>
      <trkpt lat="47.76217" lon="2.02471">
        <ele>165</ele>
        <time>2015-11-01T09:04:41.029Z</time>
      </trkpt>
      <trkpt lat="47.76215" lon="2.02469">
        <ele>164</ele>
        <time>2015-11-01T09:04:40.059Z</time>
      </trkpt>
      <trkpt lat="47.76209" lon="2.02462">
        <ele>165</ele>
        <time>2015-11-01T09:04:36.022Z</time>
      </trkpt>
      <trkpt lat="47.76208" lon="2.02457">
        <ele>165</ele>
        <time>2015-11-01T09:04:35.052Z</time>
      </trkpt>
      <trkpt lat="47.76212" lon="2.02446">
        <ele>166</ele>
        <time>2015-11-01T09:04:33.020Z</time>
      </trkpt>
      <trkpt lat="47.76216" lon="2.02443">
        <ele>166</ele>
        <time>2015-11-01T09:04:32.050Z</time>
      </trkpt>
      <trkpt lat="47.76221" lon="2.02441">
        <ele>166</ele>
        <time>2015-11-01T09:04:31.021Z</time>
      </trkpt>
      <trkpt lat="47.76226" lon="2.02439">
        <ele>166</ele>
        <time>2015-11-01T09:04:30.050Z</time>
      </trkpt>
      <trkpt lat="47.76231" lon="2.02437">
        <ele>167</ele>
        <time>2015-11-01T09:04:29.022Z</time>
      </trkpt>
      <trkpt lat="47.76238" lon="2.02435">
        <ele>167</ele>
        <time>2015-11-01T09:04:28.219Z</time>
      </trkpt>
      <trkpt lat="47.76245" lon="2.02433">
        <ele>167</ele>
        <time>2015-11-01T09:04:27.029Z</time>
      </trkpt>
      <trkpt lat="47.76252" lon="2.0243">
        <ele>167</ele>
        <time>2015-11-01T09:04:26.065Z</time>
      </trkpt>
      <trkpt lat="47.76259" lon="2.02428">
        <ele>167</ele>
        <time>2015-11-01T09:04:25.031Z</time>
      </trkpt>
      <trkpt lat="47.76266" lon="2.02425">
        <ele>168</ele>
        <time>2015-11-01T09:04:24.067Z</time>
      </trkpt>
      <trkpt lat="47.76273" lon="2.02422">
        <ele>168</ele>
        <time>2015-11-01T09:04:23.031Z</time>
      </trkpt>
      <trkpt lat="47.7628" lon="2.02418">
        <ele>168</ele>
        <time>2015-11-01T09:04:22.065Z</time>
      </trkpt>
      <trkpt lat="47.76286" lon="2.02415">
        <ele>169</ele>
        <time>2015-11-01T09:04:21.031Z</time>
      </trkpt>
      <trkpt lat="47.76293" lon="2.0241">
        <ele>169</ele>
        <time>2015-11-01T09:04:20.066Z</time>
      </trkpt>
      <trkpt lat="47.76299" lon="2.02405">
        <ele>169</ele>
        <time>2015-11-01T09:04:19.033Z</time>
      </trkpt>
      <trkpt lat="47.76306" lon="2.024">
        <ele>169</ele>
        <time>2015-11-01T09:04:18.064Z</time>
      </trkpt>
      <trkpt lat="47.76312" lon="2.02394">
        <ele>169</ele>
        <time>2015-11-01T09:04:17.031Z</time>
      </trkpt>
      <trkpt lat="47.76318" lon="2.02388">
        <ele>169</ele>
        <time>2015-11-01T09:04:16.223Z</time>
      </trkpt>
      <trkpt lat="47.76323" lon="2.02381">
        <ele>170</ele>
        <time>2015-11-01T09:04:15.032Z</time>
      </trkpt>
      <trkpt lat="47.76329" lon="2.02375">
        <ele>170</ele>
        <time>2015-11-01T09:04:14.064Z</time>
      </trkpt>
      <trkpt lat="47.76334" lon="2.02368">
        <ele>169</ele>
        <time>2015-11-01T09:04:13.032Z</time>
      </trkpt>
      <trkpt lat="47.76339" lon="2.02362">
        <ele>170</ele>
        <time>2015-11-01T09:04:12.067Z</time>
      </trkpt>
      <trkpt lat="47.76345" lon="2.02356">
        <ele>171</ele>
        <time>2015-11-01T09:04:11.032Z</time>
      </trkpt>
      <trkpt lat="47.7635" lon="2.02349">
        <ele>171</ele>
        <time>2015-11-01T09:04:10.065Z</time>
      </trkpt>
      <trkpt lat="47.76355" lon="2.02343">
        <ele>171</ele>
        <time>2015-11-01T09:04:09.022Z</time>
      </trkpt>
      <trkpt lat="47.76359" lon="2.02336">
        <ele>171</ele>
        <time>2015-11-01T09:04:08.065Z</time>
      </trkpt>
      <trkpt lat="47.76364" lon="2.02329">
        <ele>171</ele>
        <time>2015-11-01T09:04:07.048Z</time>
      </trkpt>
      <trkpt lat="47.76368" lon="2.02323">
        <ele>170</ele>
        <time>2015-11-01T09:04:06.055Z</time>
      </trkpt>
      <trkpt lat="47.76372" lon="2.02315">
        <ele>171</ele>
        <time>2015-11-01T09:04:05.022Z</time>
      </trkpt>
      <trkpt lat="47.76376" lon="2.02309">
        <ele>171</ele>
        <time>2015-11-01T09:04:04.056Z</time>
      </trkpt>
      <trkpt lat="47.7638" lon="2.02303">
        <ele>171</ele>
        <time>2015-11-01T09:04:03.021Z</time>
      </trkpt>
      <trkpt lat="47.76384" lon="2.02297">
        <ele>170</ele>
        <time>2015-11-01T09:04:02.051Z</time>
      </trkpt>
      <trkpt lat="47.76389" lon="2.02291">
        <ele>171</ele>
        <time>2015-11-01T09:04:01.021Z</time>
      </trkpt>
      <trkpt lat="47.76392" lon="2.02285">
        <ele>171</ele>
        <time>2015-11-01T09:04:00.093Z</time>
      </trkpt>
      <trkpt lat="47.76394" lon="2.02279">
        <ele>171</ele>
        <time>2015-11-01T09:03:59.021Z</time>
      </trkpt>
      <trkpt lat="47.76398" lon="2.02272">
        <ele>172</ele>
        <time>2015-11-01T09:03:58.060Z</time>
      </trkpt>
      <trkpt lat="47.76401" lon="2.02265">
        <ele>172</ele>
        <time>2015-11-01T09:03:57.038Z</time>
      </trkpt>
      <trkpt lat="47.76403" lon="2.02258">
        <ele>172</ele>
        <time>2015-11-01T09:03:56.065Z</time>
      </trkpt>
      <trkpt lat="47.76406" lon="2.02252">
        <ele>171</ele>
        <time>2015-11-01T09:03:55.033Z</time>
      </trkpt>
      <trkpt lat="47.76408" lon="2.02246">
        <ele>171</ele>
        <time>2015-11-01T09:03:54.065Z</time>
      </trkpt>
      <trkpt lat="47.76412" lon="2.0224">
        <ele>171</ele>
        <time>2015-11-01T09:03:53.034Z</time>
      </trkpt>
      <trkpt lat="47.76415" lon="2.02233">
        <ele>172</ele>
        <time>2015-11-01T09:03:52.066Z</time>
      </trkpt>
      <trkpt lat="47.76418" lon="2.02228">
        <ele>172</ele>
        <time>2015-11-01T09:03:51.038Z</time>
      </trkpt>
      <trkpt lat="47.76421" lon="2.02223">
        <ele>172</ele>
        <time>2015-11-01T09:03:50.074Z</time>
      </trkpt>
      <trkpt lat="47.76425" lon="2.02219">
        <ele>173</ele>
        <time>2015-11-01T09:03:49.037Z</time>
      </trkpt>
      <trkpt lat="47.76428" lon="2.02215">
        <ele>173</ele>
        <time>2015-11-01T09:03:48.071Z</time>
      </trkpt>
      <trkpt lat="47.76434" lon="2.02206">
        <ele>173</ele>
        <time>2015-11-01T09:03:46.030Z</time>
      </trkpt>
      <trkpt lat="47.76437" lon="2.022">
        <ele>173</ele>
        <time>2015-11-01T09:03:45.058Z</time>
      </trkpt>
      <trkpt lat="47.76441" lon="2.02188">
        <ele>173</ele>
        <time>2015-11-01T09:03:43.027Z</time>
      </trkpt>
      <trkpt lat="47.76442" lon="2.02182">
        <ele>173</ele>
        <time>2015-11-01T09:03:42.061Z</time>
      </trkpt>
      <trkpt lat="47.76444" lon="2.02169">
        <ele>172</ele>
        <time>2015-11-01T09:03:40.029Z</time>
      </trkpt>
      <trkpt lat="47.76444" lon="2.02162">
        <ele>172</ele>
        <time>2015-11-01T09:03:39.052Z</time>
      </trkpt>
      <trkpt lat="47.76446" lon="2.02149">
        <ele>171</ele>
        <time>2015-11-01T09:03:37.024Z</time>
      </trkpt>
      <trkpt lat="47.76447" lon="2.02142">
        <ele>170</ele>
        <time>2015-11-01T09:03:36.051Z</time>
      </trkpt>
      <trkpt lat="47.76448" lon="2.02135">
        <ele>170</ele>
        <time>2015-11-01T09:03:35.022Z</time>
      </trkpt>
      <trkpt lat="47.76449" lon="2.02127">
        <ele>170</ele>
        <time>2015-11-01T09:03:34.052Z</time>
      </trkpt>
      <trkpt lat="47.76453" lon="2.02118">
        <ele>170</ele>
        <time>2015-11-01T09:03:33.024Z</time>
      </trkpt>
      <trkpt lat="47.76452" lon="2.02109">
        <ele>172</ele>
        <time>2015-11-01T09:03:32.053Z</time>
      </trkpt>
      <trkpt lat="47.76452" lon="2.02102">
        <ele>173</ele>
        <time>2015-11-01T09:03:30.022Z</time>
      </trkpt>
      <trkpt lat="47.76453" lon="2.02095">
        <ele>172</ele>
        <time>2015-11-01T09:03:29.057Z</time>
      </trkpt>
      <trkpt lat="47.76454" lon="2.02088">
        <ele>173</ele>
        <time>2015-11-01T09:03:28.029Z</time>
      </trkpt>
      <trkpt lat="47.76455" lon="2.02081">
        <ele>173</ele>
        <time>2015-11-01T09:03:27.063Z</time>
      </trkpt>
      <trkpt lat="47.76456" lon="2.02074">
        <ele>173</ele>
        <time>2015-11-01T09:03:26.027Z</time>
      </trkpt>
      <trkpt lat="47.76457" lon="2.02069">
        <ele>173</ele>
        <time>2015-11-01T09:03:25.069Z</time>
      </trkpt>
      <trkpt lat="47.76457" lon="2.02057">
        <ele>175</ele>
        <time>2015-11-01T09:03:23.031Z</time>
      </trkpt>
      <trkpt lat="47.76456" lon="2.02053">
        <ele>175</ele>
        <time>2015-11-01T09:03:22.064Z</time>
      </trkpt>
      <trkpt lat="47.7646" lon="2.02043">
        <ele>173</ele>
        <time>2015-11-01T09:02:34.021Z</time>
      </trkpt>
      <trkpt lat="47.7646" lon="2.0204">
        <ele>173</ele>
        <time>2015-11-01T09:02:33.052Z</time>
      </trkpt>
      <trkpt lat="47.76461" lon="2.02028">
        <ele>174</ele>
        <time>2015-11-01T09:02:29.023Z</time>
      </trkpt>
      <trkpt lat="47.7646" lon="2.02022">
        <ele>175</ele>
        <time>2015-11-01T09:02:28.203Z</time>
      </trkpt>
      <trkpt lat="47.76459" lon="2.02012">
        <ele>174</ele>
        <time>2015-11-01T09:02:26.031Z</time>
      </trkpt>
      <trkpt lat="47.76459" lon="2.02005">
        <ele>174</ele>
        <time>2015-11-01T09:02:25.073Z</time>
      </trkpt>
      <trkpt lat="47.76459" lon="2.01997">
        <ele>174</ele>
        <time>2015-11-01T09:02:24.034Z</time>
      </trkpt>
      <trkpt lat="47.76459" lon="2.01989">
        <ele>174</ele>
        <time>2015-11-01T09:02:23.068Z</time>
      </trkpt>
      <trkpt lat="47.76459" lon="2.01981">
        <ele>175</ele>
        <time>2015-11-01T09:02:22.025Z</time>
      </trkpt>
      <trkpt lat="47.76458" lon="2.01974">
        <ele>175</ele>
        <time>2015-11-01T09:02:21.063Z</time>
      </trkpt>
      <trkpt lat="47.76459" lon="2.01967">
        <ele>175</ele>
        <time>2015-11-01T09:02:20.026Z</time>
      </trkpt>
      <trkpt lat="47.76459" lon="2.01959">
        <ele>175</ele>
        <time>2015-11-01T09:02:19.064Z</time>
      </trkpt>
      <trkpt lat="47.76459" lon="2.0195">
        <ele>176</ele>
        <time>2015-11-01T09:02:18.068Z</time>
      </trkpt>
      <trkpt lat="47.7646" lon="2.01944">
        <ele>174</ele>
        <time>2015-11-01T09:02:17.068Z</time>
      </trkpt>
      <trkpt lat="47.76461" lon="2.01936">
        <ele>175</ele>
        <time>2015-11-01T09:02:16.032Z</time>
      </trkpt>
      <trkpt lat="47.76461" lon="2.01928">
        <ele>175</ele>
        <time>2015-11-01T09:02:15.231Z</time>
      </trkpt>
      <trkpt lat="47.76461" lon="2.01921">
        <ele>175</ele>
        <time>2015-11-01T09:02:14.052Z</time>
      </trkpt>
      <trkpt lat="47.76462" lon="2.01911">
        <ele>174</ele>
        <time>2015-11-01T09:02:13.061Z</time>
      </trkpt>
      <trkpt lat="47.76463" lon="2.01902">
        <ele>174</ele>
        <time>2015-11-01T09:02:12.031Z</time>
      </trkpt>
      <trkpt lat="47.76464" lon="2.01893">
        <ele>174</ele>
        <time>2015-11-01T09:02:11.090Z</time>
      </trkpt>
      <trkpt lat="47.76465" lon="2.01883">
        <ele>174</ele>
        <time>2015-11-01T09:02:10.029Z</time>
      </trkpt>
      <trkpt lat="47.76466" lon="2.01874">
        <ele>175</ele>
        <time>2015-11-01T09:02:09.069Z</time>
      </trkpt>
      <trkpt lat="47.76467" lon="2.01866">
        <ele>175</ele>
        <time>2015-11-01T09:02:08.030Z</time>
      </trkpt>
      <trkpt lat="47.76468" lon="2.01857">
        <ele>175</ele>
        <time>2015-11-01T09:02:07.051Z</time>
      </trkpt>
      <trkpt lat="47.7647" lon="2.01849">
        <ele>175</ele>
        <time>2015-11-01T09:02:06.024Z</time>
      </trkpt>
      <trkpt lat="47.76471" lon="2.0184">
        <ele>174</ele>
        <time>2015-11-01T09:02:05.053Z</time>
      </trkpt>
      <trkpt lat="47.76472" lon="2.01831">
        <ele>175</ele>
        <time>2015-11-01T09:02:04.023Z</time>
      </trkpt>
      <trkpt lat="47.76473" lon="2.01822">
        <ele>175</ele>
        <time>2015-11-01T09:02:03.051Z</time>
      </trkpt>
      <trkpt lat="47.76474" lon="2.01813">
        <ele>175</ele>
        <time>2015-11-01T09:02:02.021Z</time>
      </trkpt>
      <trkpt lat="47.76476" lon="2.01804">
        <ele>175</ele>
        <time>2015-11-01T09:02:01.051Z</time>
      </trkpt>
      <trkpt lat="47.76478" lon="2.01795">
        <ele>175</ele>
        <time>2015-11-01T09:02:00.024Z</time>
      </trkpt>
      <trkpt lat="47.7648" lon="2.01787">
        <ele>175</ele>
        <time>2015-11-01T09:01:59.050Z</time>
      </trkpt>
      <trkpt lat="47.76481" lon="2.01778">
        <ele>175</ele>
        <time>2015-11-01T09:01:58.027Z</time>
      </trkpt>
      <trkpt lat="47.76483" lon="2.0177">
        <ele>175</ele>
        <time>2015-11-01T09:01:57.062Z</time>
      </trkpt>
      <trkpt lat="47.76485" lon="2.01762">
        <ele>175</ele>
        <time>2015-11-01T09:01:56.029Z</time>
      </trkpt>
      <trkpt lat="47.76486" lon="2.01753">
        <ele>176</ele>
        <time>2015-11-01T09:01:55.066Z</time>
      </trkpt>
      <trkpt lat="47.76487" lon="2.01744">
        <ele>176</ele>
        <time>2015-11-01T09:01:54.030Z</time>
      </trkpt>
      <trkpt lat="47.76488" lon="2.01736">
        <ele>176</ele>
        <time>2015-11-01T09:01:53.065Z</time>
      </trkpt>
      <trkpt lat="47.76489" lon="2.01729">
        <ele>176</ele>
        <time>2015-11-01T09:01:52.029Z</time>
      </trkpt>
      <trkpt lat="47.76488" lon="2.01722">
        <ele>177</ele>
        <time>2015-11-01T09:01:51.063Z</time>
      </trkpt>
      <trkpt lat="47.76488" lon="2.01714">
        <ele>176</ele>
        <time>2015-11-01T09:01:50.027Z</time>
      </trkpt>
      <trkpt lat="47.76489" lon="2.01707">
        <ele>177</ele>
        <time>2015-11-01T09:01:49.229Z</time>
      </trkpt>
      <trkpt lat="47.76488" lon="2.01699">
        <ele>177</ele>
        <time>2015-11-01T09:01:48.031Z</time>
      </trkpt>
      <trkpt lat="47.76488" lon="2.0169">
        <ele>177</ele>
        <time>2015-11-01T09:01:47.065Z</time>
      </trkpt>
      <trkpt lat="47.76488" lon="2.01682">
        <ele>177</ele>
        <time>2015-11-01T09:01:46.030Z</time>
      </trkpt>
      <trkpt lat="47.76487" lon="2.01674">
        <ele>176</ele>
        <time>2015-11-01T09:01:45.065Z</time>
      </trkpt>
      <trkpt lat="47.76487" lon="2.01665">
        <ele>176</ele>
        <time>2015-11-01T09:01:44.029Z</time>
      </trkpt>
      <trkpt lat="47.76486" lon="2.01657">
        <ele>176</ele>
        <time>2015-11-01T09:01:43.063Z</time>
      </trkpt>
      <trkpt lat="47.76486" lon="2.01649">
        <ele>176</ele>
        <time>2015-11-01T09:01:42.030Z</time>
      </trkpt>
      <trkpt lat="47.76485" lon="2.01641">
        <ele>177</ele>
        <time>2015-11-01T09:01:41.060Z</time>
      </trkpt>
      <trkpt lat="47.76483" lon="2.01634">
        <ele>176</ele>
        <time>2015-11-01T09:01:40.029Z</time>
      </trkpt>
      <trkpt lat="47.76481" lon="2.01627">
        <ele>176</ele>
        <time>2015-11-01T09:01:39.090Z</time>
      </trkpt>
      <trkpt lat="47.76479" lon="2.01621">
        <ele>176</ele>
        <time>2015-11-01T09:01:38.022Z</time>
      </trkpt>
      <trkpt lat="47.76477" lon="2.01615">
        <ele>176</ele>
        <time>2015-11-01T09:01:37.053Z</time>
      </trkpt>
      <trkpt lat="47.76484" lon="2.01608">
        <ele>177</ele>
        <time>2015-11-01T09:01:34.042Z</time>
      </trkpt>
      <trkpt lat="47.76488" lon="2.01609">
        <ele>177</ele>
        <time>2015-11-01T09:01:33.050Z</time>
      </trkpt>
      <trkpt lat="47.76496" lon="2.01613">
        <ele>177</ele>
        <time>2015-11-01T09:01:31.021Z</time>
      </trkpt>
      <trkpt lat="47.765" lon="2.01613">
        <ele>177</ele>
        <time>2015-11-01T09:01:30.054Z</time>
      </trkpt>
      <trkpt lat="47.76509" lon="2.01613">
        <ele>177</ele>
        <time>2015-11-01T09:01:28.022Z</time>
      </trkpt>
      <trkpt lat="47.76514" lon="2.01614">
        <ele>177</ele>
        <time>2015-11-01T09:01:27.054Z</time>
      </trkpt>
      <trkpt lat="47.76518" lon="2.01613">
        <ele>177</ele>
        <time>2015-11-01T09:01:26.022Z</time>
      </trkpt>
      <trkpt lat="47.76524" lon="2.01613">
        <ele>177</ele>
        <time>2015-11-01T09:01:25.052Z</time>
      </trkpt>
      <trkpt lat="47.76528" lon="2.01612">
        <ele>177</ele>
        <time>2015-11-01T09:01:24.027Z</time>
      </trkpt>
      <trkpt lat="47.76533" lon="2.01611">
        <ele>177</ele>
        <time>2015-11-01T09:01:23.155Z</time>
      </trkpt>
      <trkpt lat="47.76538" lon="2.0161">
        <ele>177</ele>
        <time>2015-11-01T09:01:22.030Z</time>
      </trkpt>
      <trkpt lat="47.76543" lon="2.01609">
        <ele>177</ele>
        <time>2015-11-01T09:01:21.093Z</time>
      </trkpt>
      <trkpt lat="47.76548" lon="2.01608">
        <ele>177</ele>
        <time>2015-11-01T09:01:20.031Z</time>
      </trkpt>
      <trkpt lat="47.76553" lon="2.01607">
        <ele>177</ele>
        <time>2015-11-01T09:01:19.066Z</time>
      </trkpt>
      <trkpt lat="47.76558" lon="2.01606">
        <ele>176</ele>
        <time>2015-11-01T09:01:18.027Z</time>
      </trkpt>
      <trkpt lat="47.76563" lon="2.01605">
        <ele>177</ele>
        <time>2015-11-01T09:01:17.065Z</time>
      </trkpt>
      <trkpt lat="47.76568" lon="2.01604">
        <ele>177</ele>
        <time>2015-11-01T09:01:16.056Z</time>
      </trkpt>
      <trkpt lat="47.76573" lon="2.01603">
        <ele>178</ele>
        <time>2015-11-01T09:01:15.066Z</time>
      </trkpt>
      <trkpt lat="47.76578" lon="2.01602">
        <ele>178</ele>
        <time>2015-11-01T09:01:14.030Z</time>
      </trkpt>
      <trkpt lat="47.76584" lon="2.01602">
        <ele>178</ele>
        <time>2015-11-01T09:01:13.086Z</time>
      </trkpt>
      <trkpt lat="47.76589" lon="2.016">
        <ele>178</ele>
        <time>2015-11-01T09:01:12.031Z</time>
      </trkpt>
      <trkpt lat="47.76593" lon="2.01599">
        <ele>177</ele>
        <time>2015-11-01T09:01:11.138Z</time>
      </trkpt>
      <trkpt lat="47.76599" lon="2.01599">
        <ele>178</ele>
        <time>2015-11-01T09:01:10.028Z</time>
      </trkpt>
      <trkpt lat="47.76603" lon="2.01598">
        <ele>177</ele>
        <time>2015-11-01T09:01:09.051Z</time>
      </trkpt>
      <trkpt lat="47.76608" lon="2.01598">
        <ele>177</ele>
        <time>2015-11-01T09:01:08.019Z</time>
      </trkpt>
      <trkpt lat="47.76613" lon="2.01597">
        <ele>177</ele>
        <time>2015-11-01T09:01:07.052Z</time>
      </trkpt>
      <trkpt lat="47.76619" lon="2.01597">
        <ele>177</ele>
        <time>2015-11-01T09:01:06.020Z</time>
      </trkpt>
      <trkpt lat="47.76624" lon="2.01598">
        <ele>179</ele>
        <time>2015-11-01T09:01:05.051Z</time>
      </trkpt>
      <trkpt lat="47.76629" lon="2.01599">
        <ele>179</ele>
        <time>2015-11-01T09:01:04.061Z</time>
      </trkpt>
      <trkpt lat="47.76634" lon="2.01599">
        <ele>179</ele>
        <time>2015-11-01T09:01:03.052Z</time>
      </trkpt>
      <trkpt lat="47.76639" lon="2.01599">
        <ele>179</ele>
        <time>2015-11-01T09:01:02.020Z</time>
      </trkpt>
      <trkpt lat="47.76644" lon="2.01599">
        <ele>179</ele>
        <time>2015-11-01T09:01:01.053Z</time>
      </trkpt>
      <trkpt lat="47.76649" lon="2.01599">
        <ele>179</ele>
        <time>2015-11-01T09:01:00.024Z</time>
      </trkpt>
      <trkpt lat="47.76654" lon="2.016">
        <ele>179</ele>
        <time>2015-11-01T09:00:59.051Z</time>
      </trkpt>
      <trkpt lat="47.76658" lon="2.01601">
        <ele>178</ele>
        <time>2015-11-01T09:00:58.027Z</time>
      </trkpt>
      <trkpt lat="47.76663" lon="2.01603">
        <ele>178</ele>
        <time>2015-11-01T09:00:57.085Z</time>
      </trkpt>
      <trkpt lat="47.76668" lon="2.01606">
        <ele>178</ele>
        <time>2015-11-01T09:00:56.029Z</time>
      </trkpt>
      <trkpt lat="47.76673" lon="2.01608">
        <ele>178</ele>
        <time>2015-11-01T09:00:55.066Z</time>
      </trkpt>
      <trkpt lat="47.76678" lon="2.0161">
        <ele>178</ele>
        <time>2015-11-01T09:00:54.031Z</time>
      </trkpt>
      <trkpt lat="47.76682" lon="2.01613">
        <ele>178</ele>
        <time>2015-11-01T09:00:53.063Z</time>
      </trkpt>
      <trkpt lat="47.76687" lon="2.01616">
        <ele>178</ele>
        <time>2015-11-01T09:00:52.033Z</time>
      </trkpt>
      <trkpt lat="47.76691" lon="2.01619">
        <ele>178</ele>
        <time>2015-11-01T09:00:51.065Z</time>
      </trkpt>
      <trkpt lat="47.76695" lon="2.01623">
        <ele>178</ele>
        <time>2015-11-01T09:00:50.030Z</time>
      </trkpt>
      <trkpt lat="47.76699" lon="2.01627">
        <ele>178</ele>
        <time>2015-11-01T09:00:49.065Z</time>
      </trkpt>
      <trkpt lat="47.76703" lon="2.01631">
        <ele>178</ele>
        <time>2015-11-01T09:00:48.032Z</time>
      </trkpt>
      <trkpt lat="47.76707" lon="2.01637">
        <ele>178</ele>
        <time>2015-11-01T09:00:47.065Z</time>
      </trkpt>
      <trkpt lat="47.76711" lon="2.01641">
        <ele>178</ele>
        <time>2015-11-01T09:00:46.026Z</time>
      </trkpt>
      <trkpt lat="47.76714" lon="2.01646">
        <ele>178</ele>
        <time>2015-11-01T09:00:45.063Z</time>
      </trkpt>
      <trkpt lat="47.76718" lon="2.01651">
        <ele>178</ele>
        <time>2015-11-01T09:00:44.030Z</time>
      </trkpt>
      <trkpt lat="47.76721" lon="2.01656">
        <ele>178</ele>
        <time>2015-11-01T09:00:43.065Z</time>
      </trkpt>
      <trkpt lat="47.76725" lon="2.01662">
        <ele>179</ele>
        <time>2015-11-01T09:00:42.031Z</time>
      </trkpt>
      <trkpt lat="47.76729" lon="2.01667">
        <ele>179</ele>
        <time>2015-11-01T09:00:41.089Z</time>
      </trkpt>
      <trkpt lat="47.76733" lon="2.01672">
        <ele>180</ele>
        <time>2015-11-01T09:00:40.029Z</time>
      </trkpt>
      <trkpt lat="47.76737" lon="2.01677">
        <ele>180</ele>
        <time>2015-11-01T09:00:39.065Z</time>
      </trkpt>
      <trkpt lat="47.76743" lon="2.01679">
        <ele>180</ele>
        <time>2015-11-01T09:00:38.029Z</time>
      </trkpt>
      <trkpt lat="47.76748" lon="2.01678">
        <ele>180</ele>
        <time>2015-11-01T09:00:37.070Z</time>
      </trkpt>
      <trkpt lat="47.76753" lon="2.01674">
        <ele>180</ele>
        <time>2015-11-01T09:00:36.023Z</time>
      </trkpt>
      <trkpt lat="47.76756" lon="2.0167">
        <ele>180</ele>
        <time>2015-11-01T09:00:35.050Z</time>
      </trkpt>
      <trkpt lat="47.76762" lon="2.01662">
        <ele>180</ele>
        <time>2015-11-01T09:00:33.023Z</time>
      </trkpt>
      <trkpt lat="47.76765" lon="2.01657">
        <ele>180</ele>
        <time>2015-11-01T09:00:32.053Z</time>
      </trkpt>
      <trkpt lat="47.76768" lon="2.01651">
        <ele>180</ele>
        <time>2015-11-01T09:00:31.022Z</time>
      </trkpt>
      <trkpt lat="47.76772" lon="2.01646">
        <ele>180</ele>
        <time>2015-11-01T09:00:30.052Z</time>
      </trkpt>
      <trkpt lat="47.76778" lon="2.01637">
        <ele>180</ele>
        <time>2015-11-01T09:00:28.026Z</time>
      </trkpt>
      <trkpt lat="47.76781" lon="2.01631">
        <ele>180</ele>
        <time>2015-11-01T09:00:27.066Z</time>
      </trkpt>
      <trkpt lat="47.76784" lon="2.01626">
        <ele>180</ele>
        <time>2015-11-01T09:00:26.030Z</time>
      </trkpt>
      <trkpt lat="47.76788" lon="2.01621">
        <ele>180</ele>
        <time>2015-11-01T09:00:25.063Z</time>
      </trkpt>
      <trkpt lat="47.76792" lon="2.01616">
        <ele>180</ele>
        <time>2015-11-01T09:00:24.035Z</time>
      </trkpt>
      <trkpt lat="47.76795" lon="2.0161">
        <ele>179</ele>
        <time>2015-11-01T09:00:23.072Z</time>
      </trkpt>
      <trkpt lat="47.768" lon="2.01605">
        <ele>180</ele>
        <time>2015-11-01T09:00:22.035Z</time>
      </trkpt>
      <trkpt lat="47.76804" lon="2.01599">
        <ele>180</ele>
        <time>2015-11-01T09:00:21.219Z</time>
      </trkpt>
      <trkpt lat="47.76809" lon="2.01594">
        <ele>180</ele>
        <time>2015-11-01T09:00:20.052Z</time>
      </trkpt>
      <trkpt lat="47.76814" lon="2.01587">
        <ele>180</ele>
        <time>2015-11-01T09:00:19.065Z</time>
      </trkpt>
      <trkpt lat="47.76818" lon="2.01581">
        <ele>180</ele>
        <time>2015-11-01T09:00:18.030Z</time>
      </trkpt>
      <trkpt lat="47.76823" lon="2.01574">
        <ele>180</ele>
        <time>2015-11-01T09:00:17.065Z</time>
      </trkpt>
      <trkpt lat="47.76827" lon="2.01568">
        <ele>180</ele>
        <time>2015-11-01T09:00:16.028Z</time>
      </trkpt>
      <trkpt lat="47.76831" lon="2.01562">
        <ele>179</ele>
        <time>2015-11-01T09:00:15.072Z</time>
      </trkpt>
      <trkpt lat="47.76835" lon="2.01555">
        <ele>179</ele>
        <time>2015-11-01T09:00:14.031Z</time>
      </trkpt>
      <trkpt lat="47.76839" lon="2.01549">
        <ele>179</ele>
        <time>2015-11-01T09:00:13.069Z</time>
      </trkpt>
      <trkpt lat="47.76843" lon="2.01543">
        <ele>179</ele>
        <time>2015-11-01T09:00:12.031Z</time>
      </trkpt>
      <trkpt lat="47.76847" lon="2.01536">
        <ele>179</ele>
        <time>2015-11-01T09:00:11.067Z</time>
      </trkpt>
      <trkpt lat="47.76851" lon="2.01531">
        <ele>179</ele>
        <time>2015-11-01T09:00:10.028Z</time>
      </trkpt>
      <trkpt lat="47.76855" lon="2.01525">
        <ele>179</ele>
        <time>2015-11-01T09:00:09.204Z</time>
      </trkpt>
      <trkpt lat="47.7686" lon="2.01519">
        <ele>180</ele>
        <time>2015-11-01T09:00:08.021Z</time>
      </trkpt>
      <trkpt lat="47.76863" lon="2.01513">
        <ele>180</ele>
        <time>2015-11-01T09:00:07.052Z</time>
      </trkpt>
      <trkpt lat="47.76867" lon="2.01506">
        <ele>179</ele>
        <time>2015-11-01T09:00:06.022Z</time>
      </trkpt>
      <trkpt lat="47.76872" lon="2.015">
        <ele>179</ele>
        <time>2015-11-01T09:00:05.052Z</time>
      </trkpt>
      <trkpt lat="47.76876" lon="2.01492">
        <ele>180</ele>
        <time>2015-11-01T09:00:04.021Z</time>
      </trkpt>
      <trkpt lat="47.7688" lon="2.01486">
        <ele>180</ele>
        <time>2015-11-01T09:00:03.053Z</time>
      </trkpt>
      <trkpt lat="47.76885" lon="2.01479">
        <ele>180</ele>
        <time>2015-11-01T09:00:02.021Z</time>
      </trkpt>
      <trkpt lat="47.76889" lon="2.01473">
        <ele>180</ele>
        <time>2015-11-01T09:00:01.053Z</time>
      </trkpt>
      <trkpt lat="47.76893" lon="2.01467">
        <ele>179</ele>
        <time>2015-11-01T09:00:00.028Z</time>
      </trkpt>
      <trkpt lat="47.76898" lon="2.01461">
        <ele>179</ele>
        <time>2015-11-01T08:59:59.067Z</time>
      </trkpt>
      <trkpt lat="47.76902" lon="2.01454">
        <ele>179</ele>
        <time>2015-11-01T08:59:58.025Z</time>
      </trkpt>
      <trkpt lat="47.76907" lon="2.01448">
        <ele>179</ele>
        <time>2015-11-01T08:59:57.063Z</time>
      </trkpt>
      <trkpt lat="47.76912" lon="2.01442">
        <ele>180</ele>
        <time>2015-11-01T08:59:56.076Z</time>
      </trkpt>
      <trkpt lat="47.76916" lon="2.01437">
        <ele>179</ele>
        <time>2015-11-01T08:59:55.064Z</time>
      </trkpt>
      <trkpt lat="47.7692" lon="2.01431">
        <ele>179</ele>
        <time>2015-11-01T08:59:54.029Z</time>
      </trkpt>
      <trkpt lat="47.76925" lon="2.01426">
        <ele>179</ele>
        <time>2015-11-01T08:59:53.064Z</time>
      </trkpt>
      <trkpt lat="47.7693" lon="2.01421">
        <ele>179</ele>
        <time>2015-11-01T08:59:52.030Z</time>
      </trkpt>
      <trkpt lat="47.76935" lon="2.01416">
        <ele>179</ele>
        <time>2015-11-01T08:59:51.081Z</time>
      </trkpt>
      <trkpt lat="47.76939" lon="2.01411">
        <ele>179</ele>
        <time>2015-11-01T08:59:50.028Z</time>
      </trkpt>
      <trkpt lat="47.76944" lon="2.01406">
        <ele>179</ele>
        <time>2015-11-01T08:59:49.060Z</time>
      </trkpt>
      <trkpt lat="47.76949" lon="2.01401">
        <ele>179</ele>
        <time>2015-11-01T08:59:48.026Z</time>
      </trkpt>
      <trkpt lat="47.76954" lon="2.01397">
        <ele>179</ele>
        <time>2015-11-01T08:59:47.064Z</time>
      </trkpt>
      <trkpt lat="47.76959" lon="2.01392">
        <ele>178</ele>
        <time>2015-11-01T08:59:46.029Z</time>
      </trkpt>
      <trkpt lat="47.76964" lon="2.01387">
        <ele>179</ele>
        <time>2015-11-01T08:59:45.064Z</time>
      </trkpt>
      <trkpt lat="47.76968" lon="2.01382">
        <ele>179</ele>
        <time>2015-11-01T08:59:44.030Z</time>
      </trkpt>
      <trkpt lat="47.76973" lon="2.01378">
        <ele>178</ele>
        <time>2015-11-01T08:59:43.082Z</time>
      </trkpt>
      <trkpt lat="47.76978" lon="2.01373">
        <ele>178</ele>
        <time>2015-11-01T08:59:42.028Z</time>
      </trkpt>
      <trkpt lat="47.76983" lon="2.01369">
        <ele>178</ele>
        <time>2015-11-01T08:59:41.065Z</time>
      </trkpt>
      <trkpt lat="47.76988" lon="2.01365">
        <ele>178</ele>
        <time>2015-11-01T08:59:40.029Z</time>
      </trkpt>
      <trkpt lat="47.76993" lon="2.0136">
        <ele>178</ele>
        <time>2015-11-01T08:59:39.063Z</time>
      </trkpt>
      <trkpt lat="47.76998" lon="2.01356">
        <ele>178</ele>
        <time>2015-11-01T08:59:38.025Z</time>
      </trkpt>
      <trkpt lat="47.77003" lon="2.01352">
        <ele>178</ele>
        <time>2015-11-01T08:59:37.050Z</time>
      </trkpt>
      <trkpt lat="47.77009" lon="2.01348">
        <ele>178</ele>
        <time>2015-11-01T08:59:36.020Z</time>
      </trkpt>
      <trkpt lat="47.77014" lon="2.01343">
        <ele>179</ele>
        <time>2015-11-01T08:59:35.050Z</time>
      </trkpt>
      <trkpt lat="47.7702" lon="2.0134">
        <ele>179</ele>
        <time>2015-11-01T08:59:34.021Z</time>
      </trkpt>
      <trkpt lat="47.77026" lon="2.01335">
        <ele>179</ele>
        <time>2015-11-01T08:59:33.051Z</time>
      </trkpt>
      <trkpt lat="47.77031" lon="2.01331">
        <ele>179</ele>
        <time>2015-11-01T08:59:32.021Z</time>
      </trkpt>
      <trkpt lat="47.77037" lon="2.01326">
        <ele>179</ele>
        <time>2015-11-01T08:59:31.040Z</time>
      </trkpt>
      <trkpt lat="47.77042" lon="2.01321">
        <ele>179</ele>
        <time>2015-11-01T08:59:30.021Z</time>
      </trkpt>
      <trkpt lat="47.77048" lon="2.01317">
        <ele>179</ele>
        <time>2015-11-01T08:59:29.048Z</time>
      </trkpt>
      <trkpt lat="47.77053" lon="2.01312">
        <ele>179</ele>
        <time>2015-11-01T08:59:28.026Z</time>
      </trkpt>
      <trkpt lat="47.77058" lon="2.01307">
        <ele>179</ele>
        <time>2015-11-01T08:59:27.064Z</time>
      </trkpt>
      <trkpt lat="47.77064" lon="2.01302">
        <ele>179</ele>
        <time>2015-11-01T08:59:26.025Z</time>
      </trkpt>
      <trkpt lat="47.7707" lon="2.01297">
        <ele>180</ele>
        <time>2015-11-01T08:59:25.065Z</time>
      </trkpt>
      <trkpt lat="47.77075" lon="2.01292">
        <ele>179</ele>
        <time>2015-11-01T08:59:24.031Z</time>
      </trkpt>
      <trkpt lat="47.7708" lon="2.01287">
        <ele>179</ele>
        <time>2015-11-01T08:59:23.065Z</time>
      </trkpt>
      <trkpt lat="47.77086" lon="2.01281">
        <ele>179</ele>
        <time>2015-11-01T08:59:22.030Z</time>
      </trkpt>
      <trkpt lat="47.77091" lon="2.01276">
        <ele>179</ele>
        <time>2015-11-01T08:59:21.065Z</time>
      </trkpt>
      <trkpt lat="47.77096" lon="2.01271">
        <ele>179</ele>
        <time>2015-11-01T08:59:20.031Z</time>
      </trkpt>
      <trkpt lat="47.77101" lon="2.01266">
        <ele>179</ele>
        <time>2015-11-01T08:59:19.066Z</time>
      </trkpt>
      <trkpt lat="47.77106" lon="2.01261">
        <ele>178</ele>
        <time>2015-11-01T08:59:18.030Z</time>
      </trkpt>
      <trkpt lat="47.77111" lon="2.01256">
        <ele>178</ele>
        <time>2015-11-01T08:59:17.062Z</time>
      </trkpt>
      <trkpt lat="47.77116" lon="2.01251">
        <ele>178</ele>
        <time>2015-11-01T08:59:16.030Z</time>
      </trkpt>
      <trkpt lat="47.77121" lon="2.01246">
        <ele>178</ele>
        <time>2015-11-01T08:59:15.066Z</time>
      </trkpt>
      <trkpt lat="47.77126" lon="2.01241">
        <ele>178</ele>
        <time>2015-11-01T08:59:14.031Z</time>
      </trkpt>
      <trkpt lat="47.77131" lon="2.01236">
        <ele>179</ele>
        <time>2015-11-01T08:59:13.066Z</time>
      </trkpt>
      <trkpt lat="47.77136" lon="2.0123">
        <ele>179</ele>
        <time>2015-11-01T08:59:12.030Z</time>
      </trkpt>
      <trkpt lat="47.77141" lon="2.01226">
        <ele>178</ele>
        <time>2015-11-01T08:59:11.083Z</time>
      </trkpt>
      <trkpt lat="47.77145" lon="2.01221">
        <ele>178</ele>
        <time>2015-11-01T08:59:10.024Z</time>
      </trkpt>
      <trkpt lat="47.77151" lon="2.01216">
        <ele>178</ele>
        <time>2015-11-01T08:59:09.051Z</time>
      </trkpt>
      <trkpt lat="47.77155" lon="2.01211">
        <ele>178</ele>
        <time>2015-11-01T08:59:08.020Z</time>
      </trkpt>
      <trkpt lat="47.7716" lon="2.01206">
        <ele>178</ele>
        <time>2015-11-01T08:59:07.051Z</time>
      </trkpt>
      <trkpt lat="47.77165" lon="2.01201">
        <ele>178</ele>
        <time>2015-11-01T08:59:06.022Z</time>
      </trkpt>
      <trkpt lat="47.7717" lon="2.01196">
        <ele>178</ele>
        <time>2015-11-01T08:59:05.050Z</time>
      </trkpt>
      <trkpt lat="47.77175" lon="2.01191">
        <ele>178</ele>
        <time>2015-11-01T08:59:04.021Z</time>
      </trkpt>
      <trkpt lat="47.77179" lon="2.01186">
        <ele>178</ele>
        <time>2015-11-01T08:59:03.053Z</time>
      </trkpt>
      <trkpt lat="47.77184" lon="2.01181">
        <ele>178</ele>
        <time>2015-11-01T08:59:02.021Z</time>
      </trkpt>
      <trkpt lat="47.77189" lon="2.01176">
        <ele>179</ele>
        <time>2015-11-01T08:59:01.053Z</time>
      </trkpt>
      <trkpt lat="47.77194" lon="2.01171">
        <ele>179</ele>
        <time>2015-11-01T08:59:00.022Z</time>
      </trkpt>
      <trkpt lat="47.77199" lon="2.01166">
        <ele>179</ele>
        <time>2015-11-01T08:58:59.053Z</time>
      </trkpt>
      <trkpt lat="47.77204" lon="2.01162">
        <ele>179</ele>
        <time>2015-11-01T08:58:58.028Z</time>
      </trkpt>
      <trkpt lat="47.7721" lon="2.01156">
        <ele>179</ele>
        <time>2015-11-01T08:58:57.066Z</time>
      </trkpt>
      <trkpt lat="47.77215" lon="2.01151">
        <ele>179</ele>
        <time>2015-11-01T08:58:56.029Z</time>
      </trkpt>
      <trkpt lat="47.7722" lon="2.01146">
        <ele>179</ele>
        <time>2015-11-01T08:58:55.219Z</time>
      </trkpt>
      <trkpt lat="47.77225" lon="2.01141">
        <ele>179</ele>
        <time>2015-11-01T08:58:54.022Z</time>
      </trkpt>
      <trkpt lat="47.7723" lon="2.01136">
        <ele>179</ele>
        <time>2015-11-01T08:58:53.052Z</time>
      </trkpt>
      <trkpt lat="47.77235" lon="2.01131">
        <ele>179</ele>
        <time>2015-11-01T08:58:52.022Z</time>
      </trkpt>
      <trkpt lat="47.7724" lon="2.01126">
        <ele>179</ele>
        <time>2015-11-01T08:58:51.053Z</time>
      </trkpt>
      <trkpt lat="47.77245" lon="2.01121">
        <ele>179</ele>
        <time>2015-11-01T08:58:50.022Z</time>
      </trkpt>
      <trkpt lat="47.7725" lon="2.01116">
        <ele>179</ele>
        <time>2015-11-01T08:58:49.051Z</time>
      </trkpt>
      <trkpt lat="47.77256" lon="2.01111">
        <ele>179</ele>
        <time>2015-11-01T08:58:48.019Z</time>
      </trkpt>
      <trkpt lat="47.77261" lon="2.01105">
        <ele>179</ele>
        <time>2015-11-01T08:58:47.049Z</time>
      </trkpt>
      <trkpt lat="47.77267" lon="2.011">
        <ele>179</ele>
        <time>2015-11-01T08:58:46.026Z</time>
      </trkpt>
      <trkpt lat="47.77272" lon="2.01095">
        <ele>179</ele>
        <time>2015-11-01T08:58:45.056Z</time>
      </trkpt>
      <trkpt lat="47.77277" lon="2.0109">
        <ele>179</ele>
        <time>2015-11-01T08:58:44.027Z</time>
      </trkpt>
      <trkpt lat="47.77282" lon="2.01086">
        <ele>178</ele>
        <time>2015-11-01T08:58:43.062Z</time>
      </trkpt>
      <trkpt lat="47.77287" lon="2.0108">
        <ele>178</ele>
        <time>2015-11-01T08:58:42.027Z</time>
      </trkpt>
      <trkpt lat="47.77293" lon="2.01076">
        <ele>178</ele>
        <time>2015-11-01T08:58:41.140Z</time>
      </trkpt>
      <trkpt lat="47.77298" lon="2.0107">
        <ele>179</ele>
        <time>2015-11-01T08:58:40.030Z</time>
      </trkpt>
      <trkpt lat="47.77303" lon="2.01065">
        <ele>179</ele>
        <time>2015-11-01T08:58:39.087Z</time>
      </trkpt>
      <trkpt lat="47.77308" lon="2.0106">
        <ele>179</ele>
        <time>2015-11-01T08:58:38.026Z</time>
      </trkpt>
      <trkpt lat="47.77313" lon="2.01055">
        <ele>179</ele>
        <time>2015-11-01T08:58:37.051Z</time>
      </trkpt>
      <trkpt lat="47.77318" lon="2.0105">
        <ele>179</ele>
        <time>2015-11-01T08:58:36.021Z</time>
      </trkpt>
      <trkpt lat="47.77324" lon="2.01045">
        <ele>179</ele>
        <time>2015-11-01T08:58:35.051Z</time>
      </trkpt>
      <trkpt lat="47.7733" lon="2.0104">
        <ele>179</ele>
        <time>2015-11-01T08:58:34.020Z</time>
      </trkpt>
      <trkpt lat="47.77335" lon="2.01035">
        <ele>179</ele>
        <time>2015-11-01T08:58:33.050Z</time>
      </trkpt>
      <trkpt lat="47.7734" lon="2.01029">
        <ele>179</ele>
        <time>2015-11-01T08:58:32.021Z</time>
      </trkpt>
      <trkpt lat="47.77345" lon="2.01023">
        <ele>179</ele>
        <time>2015-11-01T08:58:31.051Z</time>
      </trkpt>
      <trkpt lat="47.7735" lon="2.01018">
        <ele>179</ele>
        <time>2015-11-01T08:58:30.021Z</time>
      </trkpt>
      <trkpt lat="47.77355" lon="2.01012">
        <ele>179</ele>
        <time>2015-11-01T08:58:29.049Z</time>
      </trkpt>
      <trkpt lat="47.7736" lon="2.01007">
        <ele>179</ele>
        <time>2015-11-01T08:58:28.026Z</time>
      </trkpt>
      <trkpt lat="47.77365" lon="2.01001">
        <ele>179</ele>
        <time>2015-11-01T08:58:27.065Z</time>
      </trkpt>
      <trkpt lat="47.7737" lon="2.00996">
        <ele>179</ele>
        <time>2015-11-01T08:58:26.030Z</time>
      </trkpt>
      <trkpt lat="47.77375" lon="2.00991">
        <ele>179</ele>
        <time>2015-11-01T08:58:25.064Z</time>
      </trkpt>
      <trkpt lat="47.77379" lon="2.00985">
        <ele>179</ele>
        <time>2015-11-01T08:58:24.030Z</time>
      </trkpt>
      <trkpt lat="47.77384" lon="2.0098">
        <ele>179</ele>
        <time>2015-11-01T08:58:23.082Z</time>
      </trkpt>
      <trkpt lat="47.77389" lon="2.00975">
        <ele>179</ele>
        <time>2015-11-01T08:58:22.026Z</time>
      </trkpt>
      <trkpt lat="47.77394" lon="2.0097">
        <ele>179</ele>
        <time>2015-11-01T08:58:21.064Z</time>
      </trkpt>
      <trkpt lat="47.77398" lon="2.00965">
        <ele>179</ele>
        <time>2015-11-01T08:58:20.030Z</time>
      </trkpt>
      <trkpt lat="47.77403" lon="2.0096">
        <ele>179</ele>
        <time>2015-11-01T08:58:19.066Z</time>
      </trkpt>
      <trkpt lat="47.77408" lon="2.00954">
        <ele>179</ele>
        <time>2015-11-01T08:58:18.031Z</time>
      </trkpt>
      <trkpt lat="47.77413" lon="2.00949">
        <ele>178</ele>
        <time>2015-11-01T08:58:17.065Z</time>
      </trkpt>
      <trkpt lat="47.77417" lon="2.00943">
        <ele>178</ele>
        <time>2015-11-01T08:58:16.030Z</time>
      </trkpt>
      <trkpt lat="47.77422" lon="2.00938">
        <ele>178</ele>
        <time>2015-11-01T08:58:15.064Z</time>
      </trkpt>
      <trkpt lat="47.77427" lon="2.00932">
        <ele>178</ele>
        <time>2015-11-01T08:58:14.030Z</time>
      </trkpt>
      <trkpt lat="47.77431" lon="2.00926">
        <ele>178</ele>
        <time>2015-11-01T08:58:13.061Z</time>
      </trkpt>
      <trkpt lat="47.77436" lon="2.00921">
        <ele>178</ele>
        <time>2015-11-01T08:58:12.027Z</time>
      </trkpt>
      <trkpt lat="47.77441" lon="2.00915">
        <ele>178</ele>
        <time>2015-11-01T08:58:11.064Z</time>
      </trkpt>
      <trkpt lat="47.77445" lon="2.0091">
        <ele>178</ele>
        <time>2015-11-01T08:58:10.029Z</time>
      </trkpt>
      <trkpt lat="47.7745" lon="2.00904">
        <ele>178</ele>
        <time>2015-11-01T08:58:09.065Z</time>
      </trkpt>
      <trkpt lat="47.77454" lon="2.00898">
        <ele>178</ele>
        <time>2015-11-01T08:58:08.030Z</time>
      </trkpt>
      <trkpt lat="47.77458" lon="2.00892">
        <ele>178</ele>
        <time>2015-11-01T08:58:07.071Z</time>
      </trkpt>
      <trkpt lat="47.77462" lon="2.00886">
        <ele>178</ele>
        <time>2015-11-01T08:58:06.020Z</time>
      </trkpt>
      <trkpt lat="47.77466" lon="2.0088">
        <ele>178</ele>
        <time>2015-11-01T08:58:05.071Z</time>
      </trkpt>
      <trkpt lat="47.7747" lon="2.00875">
        <ele>178</ele>
        <time>2015-11-01T08:58:04.012Z</time>
      </trkpt>
      <trkpt lat="47.77475" lon="2.00869">
        <ele>178</ele>
        <time>2015-11-01T08:58:03.053Z</time>
      </trkpt>
      <trkpt lat="47.77479" lon="2.00863">
        <ele>178</ele>
        <time>2015-11-01T08:58:02.020Z</time>
      </trkpt>
      <trkpt lat="47.77483" lon="2.00858">
        <ele>178</ele>
        <time>2015-11-01T08:58:01.054Z</time>
      </trkpt>
      <trkpt lat="47.77487" lon="2.00852">
        <ele>177</ele>
        <time>2015-11-01T08:58:00.033Z</time>
      </trkpt>
      <trkpt lat="47.77491" lon="2.00846">
        <ele>177</ele>
        <time>2015-11-01T08:57:59.052Z</time>
      </trkpt>
      <trkpt lat="47.77495" lon="2.0084">
        <ele>177</ele>
        <time>2015-11-01T08:57:58.027Z</time>
      </trkpt>
      <trkpt lat="47.77499" lon="2.00835">
        <ele>177</ele>
        <time>2015-11-01T08:57:57.064Z</time>
      </trkpt>
      <trkpt lat="47.77503" lon="2.00829">
        <ele>177</ele>
        <time>2015-11-01T08:57:56.028Z</time>
      </trkpt>
      <trkpt lat="47.77507" lon="2.00823">
        <ele>177</ele>
        <time>2015-11-01T08:57:55.064Z</time>
      </trkpt>
      <trkpt lat="47.77511" lon="2.00817">
        <ele>178</ele>
        <time>2015-11-01T08:57:54.029Z</time>
      </trkpt>
      <trkpt lat="47.77516" lon="2.00811">
        <ele>177</ele>
        <time>2015-11-01T08:57:53.071Z</time>
      </trkpt>
      <trkpt lat="47.7752" lon="2.00805">
        <ele>177</ele>
        <time>2015-11-01T08:57:52.029Z</time>
      </trkpt>
      <trkpt lat="47.77523" lon="2.00799">
        <ele>177</ele>
        <time>2015-11-01T08:57:51.080Z</time>
      </trkpt>
      <trkpt lat="47.77528" lon="2.00793">
        <ele>177</ele>
        <time>2015-11-01T08:57:50.027Z</time>
      </trkpt>
      <trkpt lat="47.77531" lon="2.00787">
        <ele>177</ele>
        <time>2015-11-01T08:57:49.065Z</time>
      </trkpt>
      <trkpt lat="47.77536" lon="2.00782">
        <ele>176</ele>
        <time>2015-11-01T08:57:48.030Z</time>
      </trkpt>
      <trkpt lat="47.7754" lon="2.00776">
        <ele>177</ele>
        <time>2015-11-01T08:57:47.064Z</time>
      </trkpt>
      <trkpt lat="47.77544" lon="2.0077">
        <ele>177</ele>
        <time>2015-11-01T08:57:46.021Z</time>
      </trkpt>
      <trkpt lat="47.77548" lon="2.00764">
        <ele>176</ele>
        <time>2015-11-01T08:57:45.051Z</time>
      </trkpt>
      <trkpt lat="47.77552" lon="2.00758">
        <ele>177</ele>
        <time>2015-11-01T08:57:44.021Z</time>
      </trkpt>
      <trkpt lat="47.77556" lon="2.00752">
        <ele>177</ele>
        <time>2015-11-01T08:57:43.050Z</time>
      </trkpt>
      <trkpt lat="47.7756" lon="2.00746">
        <ele>177</ele>
        <time>2015-11-01T08:57:42.019Z</time>
      </trkpt>
      <trkpt lat="47.77565" lon="2.0074">
        <ele>177</ele>
        <time>2015-11-01T08:57:41.195Z</time>
      </trkpt>
      <trkpt lat="47.77569" lon="2.00734">
        <ele>177</ele>
        <time>2015-11-01T08:57:40.042Z</time>
      </trkpt>
      <trkpt lat="47.77573" lon="2.00728">
        <ele>177</ele>
        <time>2015-11-01T08:57:39.052Z</time>
      </trkpt>
      <trkpt lat="47.77577" lon="2.00722">
        <ele>177</ele>
        <time>2015-11-01T08:57:38.022Z</time>
      </trkpt>
      <trkpt lat="47.77581" lon="2.00716">
        <ele>177</ele>
        <time>2015-11-01T08:57:37.050Z</time>
      </trkpt>
      <trkpt lat="47.77585" lon="2.0071">
        <ele>177</ele>
        <time>2015-11-01T08:57:36.020Z</time>
      </trkpt>
      <trkpt lat="47.7759" lon="2.00704">
        <ele>177</ele>
        <time>2015-11-01T08:57:35.068Z</time>
      </trkpt>
      <trkpt lat="47.77594" lon="2.00697">
        <ele>177</ele>
        <time>2015-11-01T08:57:34.019Z</time>
      </trkpt>
      <trkpt lat="47.77597" lon="2.00691">
        <ele>177</ele>
        <time>2015-11-01T08:57:33.051Z</time>
      </trkpt>
      <trkpt lat="47.77602" lon="2.00685">
        <ele>177</ele>
        <time>2015-11-01T08:57:32.022Z</time>
      </trkpt>
      <trkpt lat="47.77606" lon="2.00678">
        <ele>177</ele>
        <time>2015-11-01T08:57:31.052Z</time>
      </trkpt>
      <trkpt lat="47.7761" lon="2.00672">
        <ele>177</ele>
        <time>2015-11-01T08:57:30.021Z</time>
      </trkpt>
      <trkpt lat="47.77614" lon="2.00666">
        <ele>177</ele>
        <time>2015-11-01T08:57:29.051Z</time>
      </trkpt>
      <trkpt lat="47.77618" lon="2.0066">
        <ele>177</ele>
        <time>2015-11-01T08:57:28.027Z</time>
      </trkpt>
      <trkpt lat="47.77622" lon="2.00654">
        <ele>177</ele>
        <time>2015-11-01T08:57:27.063Z</time>
      </trkpt>
      <trkpt lat="47.77626" lon="2.00648">
        <ele>177</ele>
        <time>2015-11-01T08:57:26.029Z</time>
      </trkpt>
      <trkpt lat="47.7763" lon="2.00642">
        <ele>177</ele>
        <time>2015-11-01T08:57:25.062Z</time>
      </trkpt>
      <trkpt lat="47.77634" lon="2.00636">
        <ele>177</ele>
        <time>2015-11-01T08:57:24.030Z</time>
      </trkpt>
      <trkpt lat="47.77638" lon="2.00631">
        <ele>177</ele>
        <time>2015-11-01T08:57:23.066Z</time>
      </trkpt>
      <trkpt lat="47.77643" lon="2.00626">
        <ele>177</ele>
        <time>2015-11-01T08:57:22.030Z</time>
      </trkpt>
      <trkpt lat="47.77647" lon="2.0062">
        <ele>178</ele>
        <time>2015-11-01T08:57:21.066Z</time>
      </trkpt>
      <trkpt lat="47.77652" lon="2.00615">
        <ele>178</ele>
        <time>2015-11-01T08:57:20.031Z</time>
      </trkpt>
      <trkpt lat="47.77656" lon="2.00609">
        <ele>178</ele>
        <time>2015-11-01T08:57:19.081Z</time>
      </trkpt>
      <trkpt lat="47.77661" lon="2.00604">
        <ele>178</ele>
        <time>2015-11-01T08:57:18.026Z</time>
      </trkpt>
      <trkpt lat="47.77665" lon="2.00599">
        <ele>178</ele>
        <time>2015-11-01T08:57:17.064Z</time>
      </trkpt>
      <trkpt lat="47.7767" lon="2.00594">
        <ele>177</ele>
        <time>2015-11-01T08:57:16.030Z</time>
      </trkpt>
      <trkpt lat="47.77675" lon="2.00589">
        <ele>177</ele>
        <time>2015-11-01T08:57:15.065Z</time>
      </trkpt>
      <trkpt lat="47.77679" lon="2.00584">
        <ele>177</ele>
        <time>2015-11-01T08:57:14.031Z</time>
      </trkpt>
      <trkpt lat="47.77684" lon="2.00579">
        <ele>178</ele>
        <time>2015-11-01T08:57:13.065Z</time>
      </trkpt>
      <trkpt lat="47.77688" lon="2.00574">
        <ele>178</ele>
        <time>2015-11-01T08:57:12.020Z</time>
      </trkpt>
      <trkpt lat="47.77693" lon="2.00569">
        <ele>177</ele>
        <time>2015-11-01T08:57:11.050Z</time>
      </trkpt>
      <trkpt lat="47.77697" lon="2.00564">
        <ele>177</ele>
        <time>2015-11-01T08:57:10.019Z</time>
      </trkpt>
      <trkpt lat="47.77702" lon="2.00559">
        <ele>177</ele>
        <time>2015-11-01T08:57:09.049Z</time>
      </trkpt>
      <trkpt lat="47.77706" lon="2.00555">
        <ele>177</ele>
        <time>2015-11-01T08:57:08.020Z</time>
      </trkpt>
      <trkpt lat="47.77711" lon="2.0055">
        <ele>177</ele>
        <time>2015-11-01T08:57:07.049Z</time>
      </trkpt>
      <trkpt lat="47.77716" lon="2.00545">
        <ele>177</ele>
        <time>2015-11-01T08:57:06.019Z</time>
      </trkpt>
      <trkpt lat="47.7772" lon="2.0054">
        <ele>178</ele>
        <time>2015-11-01T08:57:05.049Z</time>
      </trkpt>
      <trkpt lat="47.77725" lon="2.00535">
        <ele>178</ele>
        <time>2015-11-01T08:57:04.011Z</time>
      </trkpt>
      <trkpt lat="47.77729" lon="2.0053">
        <ele>178</ele>
        <time>2015-11-01T08:57:03.076Z</time>
      </trkpt>
      <trkpt lat="47.77734" lon="2.00525">
        <ele>178</ele>
        <time>2015-11-01T08:57:02.021Z</time>
      </trkpt>
      <trkpt lat="47.77739" lon="2.0052">
        <ele>178</ele>
        <time>2015-11-01T08:57:01.053Z</time>
      </trkpt>
      <trkpt lat="47.77743" lon="2.00515">
        <ele>177</ele>
        <time>2015-11-01T08:57:00.080Z</time>
      </trkpt>
      <trkpt lat="47.77748" lon="2.0051">
        <ele>178</ele>
        <time>2015-11-01T08:56:59.049Z</time>
      </trkpt>
      <trkpt lat="47.77753" lon="2.00505">
        <ele>178</ele>
        <time>2015-11-01T08:56:58.026Z</time>
      </trkpt>
      <trkpt lat="47.77757" lon="2.005">
        <ele>178</ele>
        <time>2015-11-01T08:56:57.065Z</time>
      </trkpt>
      <trkpt lat="47.77761" lon="2.00495">
        <ele>178</ele>
        <time>2015-11-01T08:56:56.029Z</time>
      </trkpt>
      <trkpt lat="47.77766" lon="2.00491">
        <ele>177</ele>
        <time>2015-11-01T08:56:55.064Z</time>
      </trkpt>
      <trkpt lat="47.77771" lon="2.00486">
        <ele>178</ele>
        <time>2015-11-01T08:56:54.030Z</time>
      </trkpt>
      <trkpt lat="47.77775" lon="2.00481">
        <ele>178</ele>
        <time>2015-11-01T08:56:53.060Z</time>
      </trkpt>
      <trkpt lat="47.7778" lon="2.00476">
        <ele>178</ele>
        <time>2015-11-01T08:56:52.028Z</time>
      </trkpt>
      <trkpt lat="47.77784" lon="2.00472">
        <ele>177</ele>
        <time>2015-11-01T08:56:51.065Z</time>
      </trkpt>
      <trkpt lat="47.77789" lon="2.00467">
        <ele>178</ele>
        <time>2015-11-01T08:56:50.030Z</time>
      </trkpt>
      <trkpt lat="47.77793" lon="2.00462">
        <ele>178</ele>
        <time>2015-11-01T08:56:49.090Z</time>
      </trkpt>
      <trkpt lat="47.77797" lon="2.00458">
        <ele>177</ele>
        <time>2015-11-01T08:56:48.028Z</time>
      </trkpt>
      <trkpt lat="47.77802" lon="2.00453">
        <ele>177</ele>
        <time>2015-11-01T08:56:47.082Z</time>
      </trkpt>
      <trkpt lat="47.77806" lon="2.00448">
        <ele>177</ele>
        <time>2015-11-01T08:56:46.025Z</time>
      </trkpt>
      <trkpt lat="47.77811" lon="2.00444">
        <ele>177</ele>
        <time>2015-11-01T08:56:45.063Z</time>
      </trkpt>
      <trkpt lat="47.77815" lon="2.00439">
        <ele>177</ele>
        <time>2015-11-01T08:56:44.030Z</time>
      </trkpt>
      <trkpt lat="47.77819" lon="2.00435">
        <ele>177</ele>
        <time>2015-11-01T08:56:43.063Z</time>
      </trkpt>
      <trkpt lat="47.77824" lon="2.0043">
        <ele>177</ele>
        <time>2015-11-01T08:56:42.026Z</time>
      </trkpt>
      <trkpt lat="47.77828" lon="2.00426">
        <ele>177</ele>
        <time>2015-11-01T08:56:41.062Z</time>
      </trkpt>
      <trkpt lat="47.77833" lon="2.00422">
        <ele>177</ele>
        <time>2015-11-01T08:56:40.028Z</time>
      </trkpt>
      <trkpt lat="47.77837" lon="2.00417">
        <ele>177</ele>
        <time>2015-11-01T08:56:39.079Z</time>
      </trkpt>
      <trkpt lat="47.77841" lon="2.00413">
        <ele>177</ele>
        <time>2015-11-01T08:56:38.027Z</time>
      </trkpt>
      <trkpt lat="47.77845" lon="2.00408">
        <ele>177</ele>
        <time>2015-11-01T08:56:37.048Z</time>
      </trkpt>
      <trkpt lat="47.7785" lon="2.00404">
        <ele>177</ele>
        <time>2015-11-01T08:56:36.019Z</time>
      </trkpt>
      <trkpt lat="47.77854" lon="2.004">
        <ele>177</ele>
        <time>2015-11-01T08:56:35.047Z</time>
      </trkpt>
      <trkpt lat="47.77858" lon="2.00396">
        <ele>177</ele>
        <time>2015-11-01T08:56:34.020Z</time>
      </trkpt>
      <trkpt lat="47.77862" lon="2.00392">
        <ele>176</ele>
        <time>2015-11-01T08:56:33.049Z</time>
      </trkpt>
      <trkpt lat="47.77866" lon="2.00388">
        <ele>176</ele>
        <time>2015-11-01T08:56:32.021Z</time>
      </trkpt>
      <trkpt lat="47.77871" lon="2.00384">
        <ele>177</ele>
        <time>2015-11-01T08:56:31.049Z</time>
      </trkpt>
      <trkpt lat="47.77875" lon="2.00379">
        <ele>177</ele>
        <time>2015-11-01T08:56:30.021Z</time>
      </trkpt>
      <trkpt lat="47.77879" lon="2.00375">
        <ele>177</ele>
        <time>2015-11-01T08:56:29.047Z</time>
      </trkpt>
      <trkpt lat="47.77887" lon="2.0037">
        <ele>177</ele>
        <time>2015-11-01T08:56:27.029Z</time>
      </trkpt>
      <trkpt lat="47.77891" lon="2.0037">
        <ele>177</ele>
        <time>2015-11-01T08:56:26.088Z</time>
      </trkpt>
      <trkpt lat="47.779" lon="2.00373">
        <ele>177</ele>
        <time>2015-11-01T08:56:24.031Z</time>
      </trkpt>
      <trkpt lat="47.77905" lon="2.00375">
        <ele>177</ele>
        <time>2015-11-01T08:56:23.064Z</time>
      </trkpt>
      <trkpt lat="47.7791" lon="2.00376">
        <ele>178</ele>
        <time>2015-11-01T08:56:22.029Z</time>
      </trkpt>
      <trkpt lat="47.77915" lon="2.00379">
        <ele>178</ele>
        <time>2015-11-01T08:56:21.061Z</time>
      </trkpt>
      <trkpt lat="47.7792" lon="2.0038">
        <ele>178</ele>
        <time>2015-11-01T08:56:20.029Z</time>
      </trkpt>
      <trkpt lat="47.77925" lon="2.00382">
        <ele>178</ele>
        <time>2015-11-01T08:56:19.062Z</time>
      </trkpt>
      <trkpt lat="47.77931" lon="2.00384">
        <ele>178</ele>
        <time>2015-11-01T08:56:18.028Z</time>
      </trkpt>
      <trkpt lat="47.77936" lon="2.00386">
        <ele>179</ele>
        <time>2015-11-01T08:56:17.063Z</time>
      </trkpt>
      <trkpt lat="47.77941" lon="2.00389">
        <ele>179</ele>
        <time>2015-11-01T08:56:16.029Z</time>
      </trkpt>
      <trkpt lat="47.77946" lon="2.00391">
        <ele>179</ele>
        <time>2015-11-01T08:56:15.055Z</time>
      </trkpt>
      <trkpt lat="47.77951" lon="2.00393">
        <ele>179</ele>
        <time>2015-11-01T08:56:14.026Z</time>
      </trkpt>
      <trkpt lat="47.77956" lon="2.00395">
        <ele>179</ele>
        <time>2015-11-01T08:56:13.064Z</time>
      </trkpt>
      <trkpt lat="47.77961" lon="2.00397">
        <ele>179</ele>
        <time>2015-11-01T08:56:12.029Z</time>
      </trkpt>
      <trkpt lat="47.77966" lon="2.00398">
        <ele>179</ele>
        <time>2015-11-01T08:56:11.065Z</time>
      </trkpt>
      <trkpt lat="47.77971" lon="2.004">
        <ele>179</ele>
        <time>2015-11-01T08:56:10.030Z</time>
      </trkpt>
      <trkpt lat="47.77976" lon="2.00401">
        <ele>179</ele>
        <time>2015-11-01T08:56:09.049Z</time>
      </trkpt>
      <trkpt lat="47.77981" lon="2.00403">
        <ele>179</ele>
        <time>2015-11-01T08:56:08.020Z</time>
      </trkpt>
      <trkpt lat="47.77985" lon="2.00405">
        <ele>179</ele>
        <time>2015-11-01T08:56:07.048Z</time>
      </trkpt>
      <trkpt lat="47.7799" lon="2.00406">
        <ele>179</ele>
        <time>2015-11-01T08:56:06.020Z</time>
      </trkpt>
      <trkpt lat="47.77995" lon="2.00408">
        <ele>179</ele>
        <time>2015-11-01T08:56:05.064Z</time>
      </trkpt>
      <trkpt lat="47.78004" lon="2.0041">
        <ele>179</ele>
        <time>2015-11-01T08:56:03.021Z</time>
      </trkpt>
      <trkpt lat="47.78008" lon="2.00411">
        <ele>179</ele>
        <time>2015-11-01T08:56:02.099Z</time>
      </trkpt>
      <trkpt lat="47.78016" lon="2.00414">
        <ele>178</ele>
        <time>2015-11-01T08:56:00.025Z</time>
      </trkpt>
      <trkpt lat="47.78019" lon="2.00416">
        <ele>178</ele>
        <time>2015-11-01T08:55:59.051Z</time>
      </trkpt>
      <trkpt lat="47.78027" lon="2.00418">
        <ele>178</ele>
        <time>2015-11-01T08:55:57.030Z</time>
      </trkpt>
      <trkpt lat="47.78031" lon="2.0042">
        <ele>178</ele>
        <time>2015-11-01T08:55:56.067Z</time>
      </trkpt>
      <trkpt lat="47.7804" lon="2.00423">
        <ele>178</ele>
        <time>2015-11-01T08:55:54.029Z</time>
      </trkpt>
      <trkpt lat="47.78045" lon="2.00425">
        <ele>178</ele>
        <time>2015-11-01T08:55:53.063Z</time>
      </trkpt>
      <trkpt lat="47.78053" lon="2.00428">
        <ele>177</ele>
        <time>2015-11-01T08:55:51.028Z</time>
      </trkpt>
      <trkpt lat="47.78057" lon="2.00429">
        <ele>177</ele>
        <time>2015-11-01T08:55:50.065Z</time>
      </trkpt>
      <trkpt lat="47.78063" lon="2.00421">
        <ele>177</ele>
        <time>2015-11-01T08:55:47.032Z</time>
      </trkpt>
      <trkpt lat="47.78064" lon="2.00417">
        <ele>178</ele>
        <time>2015-11-01T08:55:46.065Z</time>
      </trkpt>
      <trkpt lat="47.78066" lon="2.00407">
        <ele>177</ele>
        <time>2015-11-01T08:55:44.052Z</time>
      </trkpt>
      <trkpt lat="47.78068" lon="2.00402">
        <ele>177</ele>
        <time>2015-11-01T08:55:43.065Z</time>
      </trkpt>
      <trkpt lat="47.78071" lon="2.0039">
        <ele>177</ele>
        <time>2015-11-01T08:55:41.029Z</time>
      </trkpt>
      <trkpt lat="47.78072" lon="2.00383">
        <ele>177</ele>
        <time>2015-11-01T08:55:40.066Z</time>
      </trkpt>
      <trkpt lat="47.78074" lon="2.00376">
        <ele>177</ele>
        <time>2015-11-01T08:55:39.028Z</time>
      </trkpt>
      <trkpt lat="47.78076" lon="2.00369">
        <ele>176</ele>
        <time>2015-11-01T08:55:38.050Z</time>
      </trkpt>
      <trkpt lat="47.78078" lon="2.00362">
        <ele>176</ele>
        <time>2015-11-01T08:55:37.020Z</time>
      </trkpt>
      <trkpt lat="47.7808" lon="2.00354">
        <ele>176</ele>
        <time>2015-11-01T08:55:36.204Z</time>
      </trkpt>
      <trkpt lat="47.78081" lon="2.00346">
        <ele>176</ele>
        <time>2015-11-01T08:55:35.021Z</time>
      </trkpt>
      <trkpt lat="47.78083" lon="2.00338">
        <ele>176</ele>
        <time>2015-11-01T08:55:34.050Z</time>
      </trkpt>
      <trkpt lat="47.78085" lon="2.00331">
        <ele>176</ele>
        <time>2015-11-01T08:55:33.020Z</time>
      </trkpt>
      <trkpt lat="47.78086" lon="2.00322">
        <ele>176</ele>
        <time>2015-11-01T08:55:32.048Z</time>
      </trkpt>
      <trkpt lat="47.78088" lon="2.00314">
        <ele>176</ele>
        <time>2015-11-01T08:55:31.020Z</time>
      </trkpt>
      <trkpt lat="47.7809" lon="2.00307">
        <ele>175</ele>
        <time>2015-11-01T08:55:30.050Z</time>
      </trkpt>
      <trkpt lat="47.78092" lon="2.003">
        <ele>175</ele>
        <time>2015-11-01T08:55:29.019Z</time>
      </trkpt>
      <trkpt lat="47.78094" lon="2.00291">
        <ele>175</ele>
        <time>2015-11-01T08:55:28.069Z</time>
      </trkpt>
      <trkpt lat="47.78096" lon="2.00283">
        <ele>176</ele>
        <time>2015-11-01T08:55:27.027Z</time>
      </trkpt>
      <trkpt lat="47.78098" lon="2.00275">
        <ele>175</ele>
        <time>2015-11-01T08:55:26.064Z</time>
      </trkpt>
      <trkpt lat="47.781" lon="2.00267">
        <ele>176</ele>
        <time>2015-11-01T08:55:25.031Z</time>
      </trkpt>
      <trkpt lat="47.78102" lon="2.00259">
        <ele>176</ele>
        <time>2015-11-01T08:55:24.064Z</time>
      </trkpt>
      <trkpt lat="47.78104" lon="2.00251">
        <ele>175</ele>
        <time>2015-11-01T08:55:23.031Z</time>
      </trkpt>
      <trkpt lat="47.78106" lon="2.00243">
        <ele>175</ele>
        <time>2015-11-01T08:55:22.066Z</time>
      </trkpt>
      <trkpt lat="47.78109" lon="2.00234">
        <ele>176</ele>
        <time>2015-11-01T08:55:21.032Z</time>
      </trkpt>
      <trkpt lat="47.78111" lon="2.00229">
        <ele>176</ele>
        <time>2015-11-01T08:55:20.066Z</time>
      </trkpt>
      <trkpt lat="47.78114" lon="2.00222">
        <ele>176</ele>
        <time>2015-11-01T08:55:19.032Z</time>
      </trkpt>
      <trkpt lat="47.78117" lon="2.00216">
        <ele>174</ele>
        <time>2015-11-01T08:55:18.090Z</time>
      </trkpt>
      <trkpt lat="47.7812" lon="2.0021">
        <ele>175</ele>
        <time>2015-11-01T08:55:17.033Z</time>
      </trkpt>
      <trkpt lat="47.78123" lon="2.00203">
        <ele>175</ele>
        <time>2015-11-01T08:55:16.070Z</time>
      </trkpt>
      <trkpt lat="47.78127" lon="2.00195">
        <ele>176</ele>
        <time>2015-11-01T08:55:15.033Z</time>
      </trkpt>
      <trkpt lat="47.78131" lon="2.00187">
        <ele>177</ele>
        <time>2015-11-01T08:55:14.068Z</time>
      </trkpt>
      <trkpt lat="47.78133" lon="2.00179">
        <ele>175</ele>
        <time>2015-11-01T08:55:13.032Z</time>
      </trkpt>
      <trkpt lat="47.78136" lon="2.00171">
        <ele>175</ele>
        <time>2015-11-01T08:55:12.086Z</time>
      </trkpt>
      <trkpt lat="47.7814" lon="2.00166">
        <ele>174</ele>
        <time>2015-11-01T08:55:11.030Z</time>
      </trkpt>
      <trkpt lat="47.78144" lon="2.00159">
        <ele>174</ele>
        <time>2015-11-01T08:55:10.060Z</time>
      </trkpt>
      <trkpt lat="47.78145" lon="2.00152">
        <ele>174</ele>
        <time>2015-11-01T08:55:09.024Z</time>
      </trkpt>
      <trkpt lat="47.78148" lon="2.00146">
        <ele>175</ele>
        <time>2015-11-01T08:55:08.052Z</time>
      </trkpt>
      <trkpt lat="47.7815" lon="2.00136">
        <ele>174</ele>
        <time>2015-11-01T08:55:07.024Z</time>
      </trkpt>
      <trkpt lat="47.78153" lon="2.00131">
        <ele>172</ele>
        <time>2015-11-01T08:55:06.052Z</time>
      </trkpt>
      <trkpt lat="47.78156" lon="2.0012">
        <ele>172</ele>
        <time>2015-11-01T08:55:05.021Z</time>
      </trkpt>
      <trkpt lat="47.78159" lon="2.00112">
        <ele>172</ele>
        <time>2015-11-01T08:55:04.078Z</time>
      </trkpt>
      <trkpt lat="47.78162" lon="2.00104">
        <ele>172</ele>
        <time>2015-11-01T08:55:03.021Z</time>
      </trkpt>
      <trkpt lat="47.78165" lon="2.00097">
        <ele>172</ele>
        <time>2015-11-01T08:55:02.052Z</time>
      </trkpt>
      <trkpt lat="47.78168" lon="2.00089">
        <ele>172</ele>
        <time>2015-11-01T08:55:01.022Z</time>
      </trkpt>
      <trkpt lat="47.7817" lon="2.00081">
        <ele>172</ele>
        <time>2015-11-01T08:55:00.092Z</time>
      </trkpt>
      <trkpt lat="47.78173" lon="2.00076">
        <ele>172</ele>
        <time>2015-11-01T08:54:59.036Z</time>
      </trkpt>
      <trkpt lat="47.78174" lon="2.00068">
        <ele>174</ele>
        <time>2015-11-01T08:54:58.061Z</time>
      </trkpt>
      <trkpt lat="47.78176" lon="2.00061">
        <ele>175</ele>
        <time>2015-11-01T08:54:57.031Z</time>
      </trkpt>
      <trkpt lat="47.78179" lon="2.00054">
        <ele>174</ele>
        <time>2015-11-01T08:54:56.090Z</time>
      </trkpt>
      <trkpt lat="47.78183" lon="2.00045">
        <ele>175</ele>
        <time>2015-11-01T08:54:55.023Z</time>
      </trkpt>
      <trkpt lat="47.78186" lon="2.00039">
        <ele>175</ele>
        <time>2015-11-01T08:54:54.053Z</time>
      </trkpt>
      <trkpt lat="47.78188" lon="2.0003">
        <ele>175</ele>
        <time>2015-11-01T08:54:53.022Z</time>
      </trkpt>
      <trkpt lat="47.78191" lon="2.00021">
        <ele>174</ele>
        <time>2015-11-01T08:54:52.055Z</time>
      </trkpt>
      <trkpt lat="47.78196" lon="2.00013">
        <ele>174</ele>
        <time>2015-11-01T08:54:51.019Z</time>
      </trkpt>
      <trkpt lat="47.78201" lon="2.00007">
        <ele>177</ele>
        <time>2015-11-01T08:54:50.053Z</time>
      </trkpt>
      <trkpt lat="47.78205" lon="2.00001">
        <ele>176</ele>
        <time>2015-11-01T08:54:49.023Z</time>
      </trkpt>
      <trkpt lat="47.78208" lon="1.99996">
        <ele>176</ele>
        <time>2015-11-01T08:54:48.208Z</time>
      </trkpt>
      <trkpt lat="47.78211" lon="1.99988">
        <ele>176</ele>
        <time>2015-11-01T08:54:47.022Z</time>
      </trkpt>
      <trkpt lat="47.78213" lon="1.99981">
        <ele>176</ele>
        <time>2015-11-01T08:54:46.064Z</time>
      </trkpt>
      <trkpt lat="47.78216" lon="1.99974">
        <ele>174</ele>
        <time>2015-11-01T08:54:45.027Z</time>
      </trkpt>
      <trkpt lat="47.7822" lon="1.99967">
        <ele>174</ele>
        <time>2015-11-01T08:54:44.077Z</time>
      </trkpt>
      <trkpt lat="47.78224" lon="1.99956">
        <ele>175</ele>
        <time>2015-11-01T08:54:43.084Z</time>
      </trkpt>
      <trkpt lat="47.78227" lon="1.99948">
        <ele>175</ele>
        <time>2015-11-01T08:54:42.070Z</time>
      </trkpt>
      <trkpt lat="47.78231" lon="1.99942">
        <ele>176</ele>
        <time>2015-11-01T08:54:41.036Z</time>
      </trkpt>
      <trkpt lat="47.78238" lon="1.99936">
        <ele>177</ele>
        <time>2015-11-01T08:54:40.133Z</time>
      </trkpt>
      <trkpt lat="47.7824" lon="1.99931">
        <ele>178</ele>
        <time>2015-11-01T08:54:39.035Z</time>
      </trkpt>
      <trkpt lat="47.78241" lon="1.99923">
        <ele>177</ele>
        <time>2015-11-01T08:54:38.062Z</time>
      </trkpt>
      <trkpt lat="47.78244" lon="1.99915">
        <ele>176</ele>
        <time>2015-11-01T08:54:37.031Z</time>
      </trkpt>
      <trkpt lat="47.78247" lon="1.99909">
        <ele>177</ele>
        <time>2015-11-01T08:54:36.063Z</time>
      </trkpt>
      <trkpt lat="47.78249" lon="1.999">
        <ele>177</ele>
        <time>2015-11-01T08:54:35.033Z</time>
      </trkpt>
      <trkpt lat="47.78253" lon="1.99894">
        <ele>177</ele>
        <time>2015-11-01T08:54:34.065Z</time>
      </trkpt>
      <trkpt lat="47.78256" lon="1.99886">
        <ele>178</ele>
        <time>2015-11-01T08:54:33.032Z</time>
      </trkpt>
      <trkpt lat="47.78258" lon="1.99881">
        <ele>177</ele>
        <time>2015-11-01T08:54:32.071Z</time>
      </trkpt>
      <trkpt lat="47.78261" lon="1.99875">
        <ele>176</ele>
        <time>2015-11-01T08:54:31.039Z</time>
      </trkpt>
      <trkpt lat="47.78265" lon="1.99868">
        <ele>176</ele>
        <time>2015-11-01T08:54:30.067Z</time>
      </trkpt>
      <trkpt lat="47.78267" lon="1.9986">
        <ele>176</ele>
        <time>2015-11-01T08:54:29.042Z</time>
      </trkpt>
      <trkpt lat="47.78273" lon="1.99854">
        <ele>177</ele>
        <time>2015-11-01T08:54:28.070Z</time>
      </trkpt>
      <trkpt lat="47.78277" lon="1.99845">
        <ele>180</ele>
        <time>2015-11-01T08:54:27.042Z</time>
      </trkpt>
      <trkpt lat="47.78282" lon="1.99837">
        <ele>180</ele>
        <time>2015-11-01T08:54:26.071Z</time>
      </trkpt>
      <trkpt lat="47.78285" lon="1.99827">
        <ele>177</ele>
        <time>2015-11-01T08:54:23.039Z</time>
      </trkpt>
      <trkpt lat="47.78288" lon="1.99818">
        <ele>176</ele>
        <time>2015-11-01T08:54:22.067Z</time>
      </trkpt>
      <trkpt lat="47.7829" lon="1.99811">
        <ele>176</ele>
        <time>2015-11-01T08:54:21.024Z</time>
      </trkpt>
      <trkpt lat="47.7829" lon="1.99802">
        <ele>175</ele>
        <time>2015-11-01T08:54:20.062Z</time>
      </trkpt>
      <trkpt lat="47.78291" lon="1.99792">
        <ele>176</ele>
        <time>2015-11-01T08:54:19.034Z</time>
      </trkpt>
      <trkpt lat="47.78294" lon="1.99785">
        <ele>176</ele>
        <time>2015-11-01T08:54:18.070Z</time>
      </trkpt>
      <trkpt lat="47.78297" lon="1.99782">
        <ele>176</ele>
        <time>2015-11-01T08:54:17.034Z</time>
      </trkpt>
      <trkpt lat="47.783" lon="1.99775">
        <ele>175</ele>
        <time>2015-11-01T08:54:16.067Z</time>
      </trkpt>
      <trkpt lat="47.78305" lon="1.99766">
        <ele>175</ele>
        <time>2015-11-01T08:54:15.032Z</time>
      </trkpt>
      <trkpt lat="47.78311" lon="1.99757">
        <ele>175</ele>
        <time>2015-11-01T08:54:14.091Z</time>
      </trkpt>
      <trkpt lat="47.78311" lon="1.99757">
        <ele>175</ele>
        <time>2015-11-01T08:54:14.033Z</time>
      </trkpt>
      <trkpt lat="47.78314" lon="1.99748">
        <ele>175</ele>
        <time>2015-11-01T08:54:13.131Z</time>
      </trkpt>
      <trkpt lat="47.78314" lon="1.99739">
        <ele>174</ele>
        <time>2015-11-01T08:54:12.034Z</time>
      </trkpt>
      <trkpt lat="47.78315" lon="1.99734">
        <ele>173</ele>
        <time>2015-11-01T08:54:11.066Z</time>
      </trkpt>
      <trkpt lat="47.78318" lon="1.99726">
        <ele>173</ele>
        <time>2015-11-01T08:54:10.030Z</time>
      </trkpt>
      <trkpt lat="47.78322" lon="1.99722">
        <ele>173</ele>
        <time>2015-11-01T08:54:09.073Z</time>
      </trkpt>
      <trkpt lat="47.78324" lon="1.99712">
        <ele>173</ele>
        <time>2015-11-01T08:54:08.036Z</time>
      </trkpt>
      <trkpt lat="47.78326" lon="1.99705">
        <ele>172</ele>
        <time>2015-11-01T08:54:07.069Z</time>
      </trkpt>
      <trkpt lat="47.78328" lon="1.997">
        <ele>171</ele>
        <time>2015-11-01T08:54:06.031Z</time>
      </trkpt>
      <trkpt lat="47.78332" lon="1.99693">
        <ele>172</ele>
        <time>2015-11-01T08:54:05.055Z</time>
      </trkpt>
      <trkpt lat="47.78336" lon="1.99686">
        <ele>174</ele>
        <time>2015-11-01T08:54:04.025Z</time>
      </trkpt>
      <trkpt lat="47.78338" lon="1.9968">
        <ele>175</ele>
        <time>2015-11-01T08:54:03.056Z</time>
      </trkpt>
      <trkpt lat="47.78341" lon="1.99671">
        <ele>175</ele>
        <time>2015-11-01T08:54:02.036Z</time>
      </trkpt>
      <trkpt lat="47.78348" lon="1.99665">
        <ele>174</ele>
        <time>2015-11-01T08:54:01.070Z</time>
      </trkpt>
      <trkpt lat="47.7835" lon="1.99658">
        <ele>179</ele>
        <time>2015-11-01T08:54:00.059Z</time>
      </trkpt>
      <trkpt lat="47.78353" lon="1.99649">
        <ele>180</ele>
        <time>2015-11-01T08:53:59.219Z</time>
      </trkpt>
      <trkpt lat="47.78357" lon="1.99643">
        <ele>180</ele>
        <time>2015-11-01T08:53:58.024Z</time>
      </trkpt>
      <trkpt lat="47.7836" lon="1.99635">
        <ele>180</ele>
        <time>2015-11-01T08:53:57.056Z</time>
      </trkpt>
      <trkpt lat="47.78364" lon="1.99628">
        <ele>180</ele>
        <time>2015-11-01T08:53:56.024Z</time>
      </trkpt>
      <trkpt lat="47.78369" lon="1.99621">
        <ele>181</ele>
        <time>2015-11-01T08:53:55.057Z</time>
      </trkpt>
      <trkpt lat="47.78371" lon="1.99616">
        <ele>180</ele>
        <time>2015-11-01T08:53:54.025Z</time>
      </trkpt>
      <trkpt lat="47.78378" lon="1.99607">
        <ele>183</ele>
        <time>2015-11-01T08:53:53.074Z</time>
      </trkpt>
      <trkpt lat="47.78378" lon="1.99607">
        <ele>183</ele>
        <time>2015-11-01T08:53:53.030Z</time>
      </trkpt>
      <trkpt lat="47.78386" lon="1.99599">
        <ele>185</ele>
        <time>2015-11-01T08:53:52.101Z</time>
      </trkpt>
      <trkpt lat="47.78386" lon="1.99599">
        <ele>185</ele>
        <time>2015-11-01T08:53:52.049Z</time>
      </trkpt>
      <trkpt lat="47.78388" lon="1.99593">
        <ele>186</ele>
        <time>2015-11-01T08:53:51.059Z</time>
      </trkpt>
      <trkpt lat="47.78391" lon="1.99584">
        <ele>186</ele>
        <time>2015-11-01T08:53:50.024Z</time>
      </trkpt>
      <trkpt lat="47.78394" lon="1.99578">
        <ele>186</ele>
        <time>2015-11-01T08:53:49.059Z</time>
      </trkpt>
      <trkpt lat="47.78395" lon="1.99569">
        <ele>184</ele>
        <time>2015-11-01T08:53:47.025Z</time>
      </trkpt>
      <trkpt lat="47.78395" lon="1.99559">
        <ele>183</ele>
        <time>2015-11-01T08:53:46.061Z</time>
      </trkpt>
      <trkpt lat="47.78397" lon="1.9955">
        <ele>182</ele>
        <time>2015-11-01T08:53:44.024Z</time>
      </trkpt>
      <trkpt lat="47.784" lon="1.99544">
        <ele>182</ele>
        <time>2015-11-01T08:53:43.070Z</time>
      </trkpt>
      <trkpt lat="47.78402" lon="1.99537">
        <ele>181</ele>
        <time>2015-11-01T08:53:42.026Z</time>
      </trkpt>
      <trkpt lat="47.78403" lon="1.9953">
        <ele>181</ele>
        <time>2015-11-01T08:53:41.054Z</time>
      </trkpt>
      <trkpt lat="47.78408" lon="1.99523">
        <ele>182</ele>
        <time>2015-11-01T08:53:40.025Z</time>
      </trkpt>
      <trkpt lat="47.78411" lon="1.99516">
        <ele>181</ele>
        <time>2015-11-01T08:53:39.055Z</time>
      </trkpt>
      <trkpt lat="47.78414" lon="1.99511">
        <ele>180</ele>
        <time>2015-11-01T08:53:38.023Z</time>
      </trkpt>
      <trkpt lat="47.78418" lon="1.99505">
        <ele>179</ele>
        <time>2015-11-01T08:53:37.052Z</time>
      </trkpt>
      <trkpt lat="47.78423" lon="1.99499">
        <ele>179</ele>
        <time>2015-11-01T08:53:36.023Z</time>
      </trkpt>
      <trkpt lat="47.78428" lon="1.99494">
        <ele>178</ele>
        <time>2015-11-01T08:53:35.056Z</time>
      </trkpt>
      <trkpt lat="47.78434" lon="1.99488">
        <ele>179</ele>
        <time>2015-11-01T08:53:34.026Z</time>
      </trkpt>
      <trkpt lat="47.78437" lon="1.99483">
        <ele>177</ele>
        <time>2015-11-01T08:53:33.056Z</time>
      </trkpt>
      <trkpt lat="47.78441" lon="1.99477">
        <ele>176</ele>
        <time>2015-11-01T08:53:32.025Z</time>
      </trkpt>
      <trkpt lat="47.78445" lon="1.99472">
        <ele>175</ele>
        <time>2015-11-01T08:53:31.055Z</time>
      </trkpt>
      <trkpt lat="47.78453" lon="1.99466">
        <ele>176</ele>
        <time>2015-11-01T08:53:30.024Z</time>
      </trkpt>
      <trkpt lat="47.78456" lon="1.99461">
        <ele>176</ele>
        <time>2015-11-01T08:53:29.057Z</time>
      </trkpt>
      <trkpt lat="47.78461" lon="1.99455">
        <ele>176</ele>
        <time>2015-11-01T08:53:28.021Z</time>
      </trkpt>
      <trkpt lat="47.78464" lon="1.99451">
        <ele>175</ele>
        <time>2015-11-01T08:53:27.056Z</time>
      </trkpt>
      <trkpt lat="47.78468" lon="1.9944">
        <ele>174</ele>
        <time>2015-11-01T08:53:25.022Z</time>
      </trkpt>
      <trkpt lat="47.78475" lon="1.99433">
        <ele>176</ele>
        <time>2015-11-01T08:53:24.202Z</time>
      </trkpt>
      <trkpt lat="47.78477" lon="1.99427">
        <ele>176</ele>
        <time>2015-11-01T08:53:23.025Z</time>
      </trkpt>
      <trkpt lat="47.78482" lon="1.99425">
        <ele>176</ele>
        <time>2015-11-01T08:53:22.053Z</time>
      </trkpt>
      <trkpt lat="47.78488" lon="1.99419">
        <ele>175</ele>
        <time>2015-11-01T08:53:21.024Z</time>
      </trkpt>
      <trkpt lat="47.7849" lon="1.99415">
        <ele>174</ele>
        <time>2015-11-01T08:53:20.055Z</time>
      </trkpt>
      <trkpt lat="47.78494" lon="1.99409">
        <ele>174</ele>
        <time>2015-11-01T08:53:19.025Z</time>
      </trkpt>
      <trkpt lat="47.78498" lon="1.99403">
        <ele>174</ele>
        <time>2015-11-01T08:53:18.056Z</time>
      </trkpt>
      <trkpt lat="47.785" lon="1.99398">
        <ele>173</ele>
        <time>2015-11-01T08:53:17.023Z</time>
      </trkpt>
      <trkpt lat="47.78503" lon="1.99395">
        <ele>174</ele>
        <time>2015-11-01T08:53:16.055Z</time>
      </trkpt>
      <trkpt lat="47.78508" lon="1.99385">
        <ele>173</ele>
        <time>2015-11-01T08:53:14.023Z</time>
      </trkpt>
      <trkpt lat="47.78516" lon="1.9938">
        <ele>174</ele>
        <time>2015-11-01T08:53:13.056Z</time>
      </trkpt>
      <trkpt lat="47.78521" lon="1.99372">
        <ele>174</ele>
        <time>2015-11-01T08:53:12.037Z</time>
      </trkpt>
      <trkpt lat="47.78521" lon="1.99364">
        <ele>174</ele>
        <time>2015-11-01T08:53:11.056Z</time>
      </trkpt>
      <trkpt lat="47.78526" lon="1.99354">
        <ele>173</ele>
        <time>2015-11-01T08:53:09.026Z</time>
      </trkpt>
      <trkpt lat="47.78529" lon="1.99347">
        <ele>174</ele>
        <time>2015-11-01T08:53:08.057Z</time>
      </trkpt>
      <trkpt lat="47.78535" lon="1.99341">
        <ele>174</ele>
        <time>2015-11-01T08:53:07.032Z</time>
      </trkpt>
      <trkpt lat="47.78537" lon="1.99335">
        <ele>175</ele>
        <time>2015-11-01T08:53:06.055Z</time>
      </trkpt>
      <trkpt lat="47.7854" lon="1.99329">
        <ele>175</ele>
        <time>2015-11-01T08:53:05.027Z</time>
      </trkpt>
      <trkpt lat="47.78547" lon="1.99323">
        <ele>175</ele>
        <time>2015-11-01T08:53:04.059Z</time>
      </trkpt>
      <trkpt lat="47.78551" lon="1.99317">
        <ele>174</ele>
        <time>2015-11-01T08:53:03.025Z</time>
      </trkpt>
      <trkpt lat="47.78557" lon="1.9931">
        <ele>173</ele>
        <time>2015-11-01T08:53:02.058Z</time>
      </trkpt>
      <trkpt lat="47.78563" lon="1.99302">
        <ele>174</ele>
        <time>2015-11-01T08:53:01.025Z</time>
      </trkpt>
      <trkpt lat="47.78568" lon="1.99296">
        <ele>174</ele>
        <time>2015-11-01T08:53:00.092Z</time>
      </trkpt>
      <trkpt lat="47.78569" lon="1.9929">
        <ele>173</ele>
        <time>2015-11-01T08:52:59.027Z</time>
      </trkpt>
      <trkpt lat="47.78571" lon="1.99285">
        <ele>173</ele>
        <time>2015-11-01T08:52:58.056Z</time>
      </trkpt>
      <trkpt lat="47.78578" lon="1.99277">
        <ele>173</ele>
        <time>2015-11-01T08:52:56.025Z</time>
      </trkpt>
      <trkpt lat="47.78583" lon="1.99271">
        <ele>173</ele>
        <time>2015-11-01T08:52:55.053Z</time>
      </trkpt>
      <trkpt lat="47.78587" lon="1.99265">
        <ele>173</ele>
        <time>2015-11-01T08:52:54.025Z</time>
      </trkpt>
      <trkpt lat="47.78594" lon="1.99259">
        <ele>174</ele>
        <time>2015-11-01T08:52:53.055Z</time>
      </trkpt>
      <trkpt lat="47.78598" lon="1.99255">
        <ele>173</ele>
        <time>2015-11-01T08:52:52.021Z</time>
      </trkpt>
      <trkpt lat="47.78602" lon="1.9925">
        <ele>175</ele>
        <time>2015-11-01T08:52:51.054Z</time>
      </trkpt>
      <trkpt lat="47.78607" lon="1.99246">
        <ele>175</ele>
        <time>2015-11-01T08:52:50.026Z</time>
      </trkpt>
      <trkpt lat="47.78613" lon="1.9924">
        <ele>174</ele>
        <time>2015-11-01T08:52:49.081Z</time>
      </trkpt>
      <trkpt lat="47.78617" lon="1.99232">
        <ele>175</ele>
        <time>2015-11-01T08:52:48.029Z</time>
      </trkpt>
      <trkpt lat="47.78621" lon="1.99226">
        <ele>174</ele>
        <time>2015-11-01T08:52:47.075Z</time>
      </trkpt>
      <trkpt lat="47.78624" lon="1.99221">
        <ele>175</ele>
        <time>2015-11-01T08:52:46.025Z</time>
      </trkpt>
      <trkpt lat="47.78627" lon="1.99214">
        <ele>177</ele>
        <time>2015-11-01T08:52:45.056Z</time>
      </trkpt>
      <trkpt lat="47.78632" lon="1.99208">
        <ele>177</ele>
        <time>2015-11-01T08:52:44.024Z</time>
      </trkpt>
      <trkpt lat="47.78635" lon="1.99201">
        <ele>177</ele>
        <time>2015-11-01T08:52:43.061Z</time>
      </trkpt>
      <trkpt lat="47.7864" lon="1.99195">
        <ele>177</ele>
        <time>2015-11-01T08:52:42.027Z</time>
      </trkpt>
      <trkpt lat="47.78645" lon="1.99191">
        <ele>177</ele>
        <time>2015-11-01T08:52:41.061Z</time>
      </trkpt>
      <trkpt lat="47.78648" lon="1.99184">
        <ele>176</ele>
        <time>2015-11-01T08:52:40.028Z</time>
      </trkpt>
      <trkpt lat="47.78653" lon="1.99179">
        <ele>177</ele>
        <time>2015-11-01T08:52:39.057Z</time>
      </trkpt>
      <trkpt lat="47.78658" lon="1.99174">
        <ele>178</ele>
        <time>2015-11-01T08:52:38.023Z</time>
      </trkpt>
      <trkpt lat="47.78663" lon="1.99168">
        <ele>179</ele>
        <time>2015-11-01T08:52:37.056Z</time>
      </trkpt>
      <trkpt lat="47.78666" lon="1.99164">
        <ele>180</ele>
        <time>2015-11-01T08:52:36.024Z</time>
      </trkpt>
      <trkpt lat="47.78671" lon="1.99158">
        <ele>178</ele>
        <time>2015-11-01T08:52:35.223Z</time>
      </trkpt>
      <trkpt lat="47.78676" lon="1.99153">
        <ele>178</ele>
        <time>2015-11-01T08:52:34.027Z</time>
      </trkpt>
      <trkpt lat="47.78679" lon="1.99149">
        <ele>178</ele>
        <time>2015-11-01T08:52:33.057Z</time>
      </trkpt>
      <trkpt lat="47.78683" lon="1.99145">
        <ele>177</ele>
        <time>2015-11-01T08:52:32.028Z</time>
      </trkpt>
      <trkpt lat="47.78687" lon="1.99139">
        <ele>177</ele>
        <time>2015-11-01T08:52:31.059Z</time>
      </trkpt>
      <trkpt lat="47.78692" lon="1.99133">
        <ele>176</ele>
        <time>2015-11-01T08:52:30.025Z</time>
      </trkpt>
      <trkpt lat="47.78697" lon="1.99127">
        <ele>175</ele>
        <time>2015-11-01T08:52:29.055Z</time>
      </trkpt>
      <trkpt lat="47.78702" lon="1.99121">
        <ele>174</ele>
        <time>2015-11-01T08:52:28.045Z</time>
      </trkpt>
      <trkpt lat="47.78706" lon="1.99117">
        <ele>174</ele>
        <time>2015-11-01T08:52:27.053Z</time>
      </trkpt>
      <trkpt lat="47.7871" lon="1.99114">
        <ele>175</ele>
        <time>2015-11-01T08:52:26.024Z</time>
      </trkpt>
      <trkpt lat="47.78714" lon="1.99108">
        <ele>177</ele>
        <time>2015-11-01T08:52:25.054Z</time>
      </trkpt>
      <trkpt lat="47.78716" lon="1.99104">
        <ele>177</ele>
        <time>2015-11-01T08:52:24.023Z</time>
      </trkpt>
      <trkpt lat="47.78719" lon="1.99098">
        <ele>177</ele>
        <time>2015-11-01T08:52:23.052Z</time>
      </trkpt>
      <trkpt lat="47.78721" lon="1.99092">
        <ele>176</ele>
        <time>2015-11-01T08:52:22.022Z</time>
      </trkpt>
      <trkpt lat="47.78724" lon="1.99086">
        <ele>176</ele>
        <time>2015-11-01T08:52:21.052Z</time>
      </trkpt>
      <trkpt lat="47.78729" lon="1.99077">
        <ele>175</ele>
        <time>2015-11-01T08:52:20.024Z</time>
      </trkpt>
      <trkpt lat="47.78731" lon="1.99071">
        <ele>174</ele>
        <time>2015-11-01T08:52:19.076Z</time>
      </trkpt>
      <trkpt lat="47.78734" lon="1.99066">
        <ele>173</ele>
        <time>2015-11-01T08:52:18.026Z</time>
      </trkpt>
      <trkpt lat="47.7873" lon="1.9905">
        <ele>173</ele>
        <time>2015-11-01T08:52:17.141Z</time>
      </trkpt>
      <trkpt lat="47.7873" lon="1.9905">
        <ele>173</ele>
        <time>2015-11-01T08:52:17.035Z</time>
      </trkpt>
      <trkpt lat="47.78728" lon="1.99044">
        <ele>173</ele>
        <time>2015-11-01T08:52:16.068Z</time>
      </trkpt>
      <trkpt lat="47.78724" lon="1.99034">
        <ele>175</ele>
        <time>2015-11-01T08:52:15.030Z</time>
      </trkpt>
      <trkpt lat="47.78717" lon="1.99023">
        <ele>176</ele>
        <time>2015-11-01T08:52:14.065Z</time>
      </trkpt>
      <trkpt lat="47.78715" lon="1.99013">
        <ele>177</ele>
        <time>2015-11-01T08:52:13.030Z</time>
      </trkpt>
      <trkpt lat="47.78714" lon="1.99012">
        <ele>176</ele>
        <time>2015-11-01T08:52:12.063Z</time>
      </trkpt>
      <trkpt lat="47.78709" lon="1.99003">
        <ele>178</ele>
        <time>2015-11-01T08:52:09.029Z</time>
      </trkpt>
      <trkpt lat="47.78707" lon="1.98993">
        <ele>179</ele>
        <time>2015-11-01T08:52:08.055Z</time>
      </trkpt>
      <trkpt lat="47.78702" lon="1.98984">
        <ele>177</ele>
        <time>2015-11-01T08:52:07.055Z</time>
      </trkpt>
      <trkpt lat="47.78698" lon="1.98976">
        <ele>177</ele>
        <time>2015-11-01T08:52:06.065Z</time>
      </trkpt>
      <trkpt lat="47.78694" lon="1.98968">
        <ele>178</ele>
        <time>2015-11-01T08:52:05.024Z</time>
      </trkpt>
      <trkpt lat="47.78693" lon="1.98964">
        <ele>176</ele>
        <time>2015-11-01T08:52:04.055Z</time>
      </trkpt>
      <trkpt lat="47.78689" lon="1.98957">
        <ele>177</ele>
        <time>2015-11-01T08:52:03.024Z</time>
      </trkpt>
      <trkpt lat="47.78683" lon="1.98945">
        <ele>177</ele>
        <time>2015-11-01T08:52:02.079Z</time>
      </trkpt>
      <trkpt lat="47.78683" lon="1.98945">
        <ele>177</ele>
        <time>2015-11-01T08:52:02.025Z</time>
      </trkpt>
      <trkpt lat="47.7868" lon="1.98936">
        <ele>176</ele>
        <time>2015-11-01T08:52:01.054Z</time>
      </trkpt>
      <trkpt lat="47.78678" lon="1.98927">
        <ele>176</ele>
        <time>2015-11-01T08:52:00.026Z</time>
      </trkpt>
      <trkpt lat="47.78675" lon="1.98917">
        <ele>177</ele>
        <time>2015-11-01T08:51:59.205Z</time>
      </trkpt>
      <trkpt lat="47.78671" lon="1.98909">
        <ele>178</ele>
        <time>2015-11-01T08:51:58.026Z</time>
      </trkpt>
      <trkpt lat="47.78667" lon="1.98901">
        <ele>179</ele>
        <time>2015-11-01T08:51:57.069Z</time>
      </trkpt>
      <trkpt lat="47.78664" lon="1.98897">
        <ele>180</ele>
        <time>2015-11-01T08:51:56.028Z</time>
      </trkpt>
      <trkpt lat="47.78659" lon="1.9889">
        <ele>180</ele>
        <time>2015-11-01T08:51:55.065Z</time>
      </trkpt>
      <trkpt lat="47.78656" lon="1.98884">
        <ele>179</ele>
        <time>2015-11-01T08:51:54.030Z</time>
      </trkpt>
      <trkpt lat="47.78653" lon="1.98881">
        <ele>179</ele>
        <time>2015-11-01T08:51:53.068Z</time>
      </trkpt>
      <trkpt lat="47.78649" lon="1.9887">
        <ele>182</ele>
        <time>2015-11-01T08:51:52.030Z</time>
      </trkpt>
      <trkpt lat="47.78646" lon="1.98867">
        <ele>182</ele>
        <time>2015-11-01T08:51:51.085Z</time>
      </trkpt>
      <trkpt lat="47.78643" lon="1.9886">
        <ele>181</ele>
        <time>2015-11-01T08:51:50.029Z</time>
      </trkpt>
      <trkpt lat="47.78641" lon="1.98854">
        <ele>181</ele>
        <time>2015-11-01T08:51:49.073Z</time>
      </trkpt>
      <trkpt lat="47.78638" lon="1.98845">
        <ele>182</ele>
        <time>2015-11-01T08:51:48.025Z</time>
      </trkpt>
      <trkpt lat="47.78635" lon="1.98838">
        <ele>182</ele>
        <time>2015-11-01T08:51:47.053Z</time>
      </trkpt>
      <trkpt lat="47.78632" lon="1.98831">
        <ele>182</ele>
        <time>2015-11-01T08:51:46.021Z</time>
      </trkpt>
      <trkpt lat="47.78628" lon="1.98824">
        <ele>182</ele>
        <time>2015-11-01T08:51:45.053Z</time>
      </trkpt>
      <trkpt lat="47.78625" lon="1.98816">
        <ele>182</ele>
        <time>2015-11-01T08:51:44.020Z</time>
      </trkpt>
      <trkpt lat="47.78622" lon="1.98805">
        <ele>183</ele>
        <time>2015-11-01T08:51:43.053Z</time>
      </trkpt>
      <trkpt lat="47.78619" lon="1.98799">
        <ele>183</ele>
        <time>2015-11-01T08:51:42.018Z</time>
      </trkpt>
      <trkpt lat="47.78616" lon="1.98792">
        <ele>183</ele>
        <time>2015-11-01T08:51:41.056Z</time>
      </trkpt>
      <trkpt lat="47.78613" lon="1.98785">
        <ele>183</ele>
        <time>2015-11-01T08:51:40.026Z</time>
      </trkpt>
      <trkpt lat="47.7861" lon="1.98778">
        <ele>183</ele>
        <time>2015-11-01T08:51:39.060Z</time>
      </trkpt>
      <trkpt lat="47.78607" lon="1.98771">
        <ele>182</ele>
        <time>2015-11-01T08:51:38.021Z</time>
      </trkpt>
      <trkpt lat="47.78605" lon="1.98764">
        <ele>182</ele>
        <time>2015-11-01T08:51:37.055Z</time>
      </trkpt>
      <trkpt lat="47.786" lon="1.98753">
        <ele>181</ele>
        <time>2015-11-01T08:51:35.021Z</time>
      </trkpt>
      <trkpt lat="47.78597" lon="1.98746">
        <ele>181</ele>
        <time>2015-11-01T08:51:34.057Z</time>
      </trkpt>
      <trkpt lat="47.78595" lon="1.98738">
        <ele>179</ele>
        <time>2015-11-01T08:51:33.020Z</time>
      </trkpt>
      <trkpt lat="47.78594" lon="1.98731">
        <ele>179</ele>
        <time>2015-11-01T08:51:32.071Z</time>
      </trkpt>
      <trkpt lat="47.78592" lon="1.98722">
        <ele>178</ele>
        <time>2015-11-01T08:51:31.023Z</time>
      </trkpt>
      <trkpt lat="47.78592" lon="1.98716">
        <ele>178</ele>
        <time>2015-11-01T08:51:30.083Z</time>
      </trkpt>
      <trkpt lat="47.7859" lon="1.98706">
        <ele>180</ele>
        <time>2015-11-01T08:51:29.029Z</time>
      </trkpt>
      <trkpt lat="47.78591" lon="1.98699">
        <ele>181</ele>
        <time>2015-11-01T08:51:28.056Z</time>
      </trkpt>
      <trkpt lat="47.78592" lon="1.98689">
        <ele>179</ele>
        <time>2015-11-01T08:51:26.023Z</time>
      </trkpt>
      <trkpt lat="47.78591" lon="1.98682">
        <ele>177</ele>
        <time>2015-11-01T08:51:25.059Z</time>
      </trkpt>
      <trkpt lat="47.7859" lon="1.98675">
        <ele>177</ele>
        <time>2015-11-01T08:51:24.033Z</time>
      </trkpt>
      <trkpt lat="47.78589" lon="1.98665">
        <ele>175</ele>
        <time>2015-11-01T08:51:23.070Z</time>
      </trkpt>
      <trkpt lat="47.78588" lon="1.98656">
        <ele>173</ele>
        <time>2015-11-01T08:51:22.032Z</time>
      </trkpt>
      <trkpt lat="47.78586" lon="1.98643">
        <ele>175</ele>
        <time>2015-11-01T08:51:21.139Z</time>
      </trkpt>
      <trkpt lat="47.78586" lon="1.98643">
        <ele>175</ele>
        <time>2015-11-01T08:51:21.030Z</time>
      </trkpt>
      <trkpt lat="47.78586" lon="1.98631">
        <ele>176</ele>
        <time>2015-11-01T08:51:20.066Z</time>
      </trkpt>
      <trkpt lat="47.78585" lon="1.98626">
        <ele>175</ele>
        <time>2015-11-01T08:51:19.027Z</time>
      </trkpt>
      <trkpt lat="47.78585" lon="1.98622">
        <ele>174</ele>
        <time>2015-11-01T08:51:18.060Z</time>
      </trkpt>
      <trkpt lat="47.78584" lon="1.9861">
        <ele>173</ele>
        <time>2015-11-01T08:51:16.026Z</time>
      </trkpt>
      <trkpt lat="47.78584" lon="1.98601">
        <ele>172</ele>
        <time>2015-11-01T08:51:15.063Z</time>
      </trkpt>
      <trkpt lat="47.78584" lon="1.98592">
        <ele>172</ele>
        <time>2015-11-01T08:51:14.028Z</time>
      </trkpt>
      <trkpt lat="47.78582" lon="1.98585">
        <ele>171</ele>
        <time>2015-11-01T08:51:13.068Z</time>
      </trkpt>
      <trkpt lat="47.78581" lon="1.98577">
        <ele>171</ele>
        <time>2015-11-01T08:51:12.029Z</time>
      </trkpt>
      <trkpt lat="47.78579" lon="1.9857">
        <ele>170</ele>
        <time>2015-11-01T08:51:11.069Z</time>
      </trkpt>
      <trkpt lat="47.78577" lon="1.9856">
        <ele>173</ele>
        <time>2015-11-01T08:51:10.031Z</time>
      </trkpt>
      <trkpt lat="47.78574" lon="1.9855">
        <ele>176</ele>
        <time>2015-11-01T08:51:09.082Z</time>
      </trkpt>
      <trkpt lat="47.78571" lon="1.9854">
        <ele>179</ele>
        <time>2015-11-01T08:51:08.028Z</time>
      </trkpt>
      <trkpt lat="47.78569" lon="1.98534">
        <ele>178</ele>
        <time>2015-11-01T08:51:07.062Z</time>
      </trkpt>
      <trkpt lat="47.78567" lon="1.98526">
        <ele>178</ele>
        <time>2015-11-01T08:51:06.026Z</time>
      </trkpt>
      <trkpt lat="47.78564" lon="1.9852">
        <ele>178</ele>
        <time>2015-11-01T08:51:05.059Z</time>
      </trkpt>
      <trkpt lat="47.78558" lon="1.98511">
        <ele>177</ele>
        <time>2015-11-01T08:51:03.021Z</time>
      </trkpt>
      <trkpt lat="47.78556" lon="1.98506">
        <ele>177</ele>
        <time>2015-11-01T08:51:02.051Z</time>
      </trkpt>
      <trkpt lat="47.78552" lon="1.98499">
        <ele>176</ele>
        <time>2015-11-01T08:51:01.019Z</time>
      </trkpt>
      <trkpt lat="47.78548" lon="1.98493">
        <ele>176</ele>
        <time>2015-11-01T08:51:00.099Z</time>
      </trkpt>
      <trkpt lat="47.78543" lon="1.98486">
        <ele>176</ele>
        <time>2015-11-01T08:50:59.022Z</time>
      </trkpt>
      <trkpt lat="47.7854" lon="1.98479">
        <ele>176</ele>
        <time>2015-11-01T08:50:58.054Z</time>
      </trkpt>
      <trkpt lat="47.78536" lon="1.98473">
        <ele>176</ele>
        <time>2015-11-01T08:50:57.027Z</time>
      </trkpt>
      <trkpt lat="47.78532" lon="1.98467">
        <ele>175</ele>
        <time>2015-11-01T08:50:56.051Z</time>
      </trkpt>
      <trkpt lat="47.78528" lon="1.9846">
        <ele>175</ele>
        <time>2015-11-01T08:50:55.021Z</time>
      </trkpt>
      <trkpt lat="47.78525" lon="1.98457">
        <ele>174</ele>
        <time>2015-11-01T08:50:54.053Z</time>
      </trkpt>
      <trkpt lat="47.78521" lon="1.98452">
        <ele>173</ele>
        <time>2015-11-01T08:50:53.021Z</time>
      </trkpt>
      <trkpt lat="47.78516" lon="1.98446">
        <ele>173</ele>
        <time>2015-11-01T08:50:52.056Z</time>
      </trkpt>
      <trkpt lat="47.78509" lon="1.98438">
        <ele>172</ele>
        <time>2015-11-01T08:50:51.025Z</time>
      </trkpt>
      <trkpt lat="47.78506" lon="1.98435">
        <ele>172</ele>
        <time>2015-11-01T08:50:50.056Z</time>
      </trkpt>
      <trkpt lat="47.78503" lon="1.98429">
        <ele>173</ele>
        <time>2015-11-01T08:50:49.024Z</time>
      </trkpt>
      <trkpt lat="47.785" lon="1.98424">
        <ele>175</ele>
        <time>2015-11-01T08:50:48.077Z</time>
      </trkpt>
      <trkpt lat="47.78496" lon="1.98413">
        <ele>176</ele>
        <time>2015-11-01T08:50:47.025Z</time>
      </trkpt>
      <trkpt lat="47.78492" lon="1.98411">
        <ele>175</ele>
        <time>2015-11-01T08:50:46.073Z</time>
      </trkpt>
      <trkpt lat="47.78488" lon="1.98402">
        <ele>177</ele>
        <time>2015-11-01T08:50:45.021Z</time>
      </trkpt>
      <trkpt lat="47.78484" lon="1.98395">
        <ele>176</ele>
        <time>2015-11-01T08:50:44.052Z</time>
      </trkpt>
      <trkpt lat="47.7848" lon="1.9839">
        <ele>176</ele>
        <time>2015-11-01T08:50:43.020Z</time>
      </trkpt>
      <trkpt lat="47.78475" lon="1.98383">
        <ele>176</ele>
        <time>2015-11-01T08:50:42.055Z</time>
      </trkpt>
      <trkpt lat="47.78472" lon="1.98382">
        <ele>175</ele>
        <time>2015-11-01T08:50:41.023Z</time>
      </trkpt>
      <trkpt lat="47.78467" lon="1.98377">
        <ele>176</ele>
        <time>2015-11-01T08:50:40.054Z</time>
      </trkpt>
      <trkpt lat="47.78463" lon="1.9837">
        <ele>176</ele>
        <time>2015-11-01T08:50:39.023Z</time>
      </trkpt>
      <trkpt lat="47.78455" lon="1.9836">
        <ele>178</ele>
        <time>2015-11-01T08:50:38.056Z</time>
      </trkpt>
      <trkpt lat="47.7845" lon="1.98353">
        <ele>179</ele>
        <time>2015-11-01T08:50:37.024Z</time>
      </trkpt>
      <trkpt lat="47.78446" lon="1.98345">
        <ele>178</ele>
        <time>2015-11-01T08:50:36.057Z</time>
      </trkpt>
      <trkpt lat="47.78441" lon="1.98344">
        <ele>178</ele>
        <time>2015-11-01T08:50:35.024Z</time>
      </trkpt>
      <trkpt lat="47.78437" lon="1.98339">
        <ele>177</ele>
        <time>2015-11-01T08:50:34.061Z</time>
      </trkpt>
      <trkpt lat="47.78432" lon="1.98334">
        <ele>177</ele>
        <time>2015-11-01T08:50:33.026Z</time>
      </trkpt>
      <trkpt lat="47.78428" lon="1.98331">
        <ele>176</ele>
        <time>2015-11-01T08:50:32.060Z</time>
      </trkpt>
      <trkpt lat="47.78423" lon="1.98326">
        <ele>175</ele>
        <time>2015-11-01T08:50:31.031Z</time>
      </trkpt>
      <trkpt lat="47.78418" lon="1.98321">
        <ele>175</ele>
        <time>2015-11-01T08:50:30.065Z</time>
      </trkpt>
      <trkpt lat="47.78414" lon="1.98316">
        <ele>174</ele>
        <time>2015-11-01T08:50:29.032Z</time>
      </trkpt>
      <trkpt lat="47.78409" lon="1.98306">
        <ele>175</ele>
        <time>2015-11-01T08:50:28.057Z</time>
      </trkpt>
      <trkpt lat="47.78408" lon="1.98302">
        <ele>178</ele>
        <time>2015-11-01T08:50:27.026Z</time>
      </trkpt>
      <trkpt lat="47.78403" lon="1.98296">
        <ele>178</ele>
        <time>2015-11-01T08:50:26.061Z</time>
      </trkpt>
      <trkpt lat="47.784" lon="1.9829">
        <ele>179</ele>
        <time>2015-11-01T08:50:25.029Z</time>
      </trkpt>
      <trkpt lat="47.78396" lon="1.98286">
        <ele>180</ele>
        <time>2015-11-01T08:50:24.069Z</time>
      </trkpt>
      <trkpt lat="47.78392" lon="1.98279">
        <ele>181</ele>
        <time>2015-11-01T08:50:23.029Z</time>
      </trkpt>
      <trkpt lat="47.78387" lon="1.98274">
        <ele>181</ele>
        <time>2015-11-01T08:50:22.224Z</time>
      </trkpt>
      <trkpt lat="47.78383" lon="1.98271">
        <ele>180</ele>
        <time>2015-11-01T08:50:21.029Z</time>
      </trkpt>
      <trkpt lat="47.78379" lon="1.98264">
        <ele>180</ele>
        <time>2015-11-01T08:50:20.061Z</time>
      </trkpt>
      <trkpt lat="47.78374" lon="1.98259">
        <ele>180</ele>
        <time>2015-11-01T08:50:19.029Z</time>
      </trkpt>
      <trkpt lat="47.78369" lon="1.98254">
        <ele>180</ele>
        <time>2015-11-01T08:50:18.057Z</time>
      </trkpt>
      <trkpt lat="47.78364" lon="1.98248">
        <ele>180</ele>
        <time>2015-11-01T08:50:17.027Z</time>
      </trkpt>
      <trkpt lat="47.7836" lon="1.98245">
        <ele>181</ele>
        <time>2015-11-01T08:50:16.083Z</time>
      </trkpt>
      <trkpt lat="47.78355" lon="1.9824">
        <ele>180</ele>
        <time>2015-11-01T08:50:15.030Z</time>
      </trkpt>
      <trkpt lat="47.7835" lon="1.98235">
        <ele>180</ele>
        <time>2015-11-01T08:50:14.063Z</time>
      </trkpt>
      <trkpt lat="47.78346" lon="1.9823">
        <ele>181</ele>
        <time>2015-11-01T08:50:13.027Z</time>
      </trkpt>
      <trkpt lat="47.78341" lon="1.98225">
        <ele>181</ele>
        <time>2015-11-01T08:50:12.064Z</time>
      </trkpt>
      <trkpt lat="47.78337" lon="1.98222">
        <ele>180</ele>
        <time>2015-11-01T08:50:11.028Z</time>
      </trkpt>
      <trkpt lat="47.78332" lon="1.98217">
        <ele>180</ele>
        <time>2015-11-01T08:50:10.058Z</time>
      </trkpt>
      <trkpt lat="47.78327" lon="1.98212">
        <ele>180</ele>
        <time>2015-11-01T08:50:09.026Z</time>
      </trkpt>
      <trkpt lat="47.78322" lon="1.98207">
        <ele>180</ele>
        <time>2015-11-01T08:50:08.233Z</time>
      </trkpt>
      <trkpt lat="47.78317" lon="1.98202">
        <ele>180</ele>
        <time>2015-11-01T08:50:07.029Z</time>
      </trkpt>
      <trkpt lat="47.78311" lon="1.98197">
        <ele>179</ele>
        <time>2015-11-01T08:50:06.058Z</time>
      </trkpt>
      <trkpt lat="47.78306" lon="1.98194">
        <ele>178</ele>
        <time>2015-11-01T08:50:05.029Z</time>
      </trkpt>
      <trkpt lat="47.78301" lon="1.9819">
        <ele>179</ele>
        <time>2015-11-01T08:50:04.111Z</time>
      </trkpt>
      <trkpt lat="47.78296" lon="1.98187">
        <ele>178</ele>
        <time>2015-11-01T08:50:03.029Z</time>
      </trkpt>
      <trkpt lat="47.78291" lon="1.98182">
        <ele>179</ele>
        <time>2015-11-01T08:50:02.062Z</time>
      </trkpt>
      <trkpt lat="47.78286" lon="1.98179">
        <ele>178</ele>
        <time>2015-11-01T08:50:01.029Z</time>
      </trkpt>
      <trkpt lat="47.7828" lon="1.98175">
        <ele>178</ele>
        <time>2015-11-01T08:50:00.139Z</time>
      </trkpt>
      <trkpt lat="47.78276" lon="1.98171">
        <ele>177</ele>
        <time>2015-11-01T08:49:59.028Z</time>
      </trkpt>
      <trkpt lat="47.78271" lon="1.98167">
        <ele>177</ele>
        <time>2015-11-01T08:49:58.058Z</time>
      </trkpt>
      <trkpt lat="47.78267" lon="1.98161">
        <ele>176</ele>
        <time>2015-11-01T08:49:57.028Z</time>
      </trkpt>
      <trkpt lat="47.78263" lon="1.98157">
        <ele>175</ele>
        <time>2015-11-01T08:49:56.063Z</time>
      </trkpt>
      <trkpt lat="47.78259" lon="1.98153">
        <ele>175</ele>
        <time>2015-11-01T08:49:55.029Z</time>
      </trkpt>
      <trkpt lat="47.78254" lon="1.98148">
        <ele>174</ele>
        <time>2015-11-01T08:49:54.069Z</time>
      </trkpt>
      <trkpt lat="47.7825" lon="1.98141">
        <ele>176</ele>
        <time>2015-11-01T08:49:53.028Z</time>
      </trkpt>
      <trkpt lat="47.78247" lon="1.98136">
        <ele>175</ele>
        <time>2015-11-01T08:49:52.060Z</time>
      </trkpt>
      <trkpt lat="47.78245" lon="1.98126">
        <ele>177</ele>
        <time>2015-11-01T08:49:51.029Z</time>
      </trkpt>
      <trkpt lat="47.78243" lon="1.9812">
        <ele>177</ele>
        <time>2015-11-01T08:49:50.060Z</time>
      </trkpt>
      <trkpt lat="47.7824" lon="1.98114">
        <ele>177</ele>
        <time>2015-11-01T08:49:49.032Z</time>
      </trkpt>
      <trkpt lat="47.78234" lon="1.98102">
        <ele>177</ele>
        <time>2015-11-01T08:49:48.060Z</time>
      </trkpt>
      <trkpt lat="47.78234" lon="1.98102">
        <ele>177</ele>
        <time>2015-11-01T08:49:48.027Z</time>
      </trkpt>
      <trkpt lat="47.78233" lon="1.98085">
        <ele>182</ele>
        <time>2015-11-01T08:49:47.073Z</time>
      </trkpt>
      <trkpt lat="47.7823" lon="1.98083">
        <ele>181</ele>
        <time>2015-11-01T08:49:46.028Z</time>
      </trkpt>
      <trkpt lat="47.78226" lon="1.98079">
        <ele>180</ele>
        <time>2015-11-01T08:49:45.064Z</time>
      </trkpt>
      <trkpt lat="47.78224" lon="1.98074">
        <ele>180</ele>
        <time>2015-11-01T08:49:44.030Z</time>
      </trkpt>
      <trkpt lat="47.78221" lon="1.98068">
        <ele>180</ele>
        <time>2015-11-01T08:49:43.071Z</time>
      </trkpt>
      <trkpt lat="47.78219" lon="1.98063">
        <ele>179</ele>
        <time>2015-11-01T08:49:42.033Z</time>
      </trkpt>
      <trkpt lat="47.78218" lon="1.98055">
        <ele>181</ele>
        <time>2015-11-01T08:49:41.055Z</time>
      </trkpt>
      <trkpt lat="47.78215" lon="1.98046">
        <ele>181</ele>
        <time>2015-11-01T08:49:40.034Z</time>
      </trkpt>
      <trkpt lat="47.78212" lon="1.98038">
        <ele>181</ele>
        <time>2015-11-01T08:49:39.086Z</time>
      </trkpt>
      <trkpt lat="47.78207" lon="1.98028">
        <ele>180</ele>
        <time>2015-11-01T08:49:37.032Z</time>
      </trkpt>
      <trkpt lat="47.78205" lon="1.98024">
        <ele>179</ele>
        <time>2015-11-01T08:49:36.141Z</time>
      </trkpt>
      <trkpt lat="47.78203" lon="1.98016">
        <ele>177</ele>
        <time>2015-11-01T08:49:34.037Z</time>
      </trkpt>
      <trkpt lat="47.78201" lon="1.98014">
        <ele>177</ele>
        <time>2015-11-01T08:49:33.063Z</time>
      </trkpt>
      <trkpt lat="47.78199" lon="1.98002">
        <ele>178</ele>
        <time>2015-11-01T08:49:29.037Z</time>
      </trkpt>
      <trkpt lat="47.78202" lon="1.97996">
        <ele>175</ele>
        <time>2015-11-01T08:49:28.065Z</time>
      </trkpt>
      <trkpt lat="47.78208" lon="1.97996">
        <ele>176</ele>
        <time>2015-11-01T08:49:27.023Z</time>
      </trkpt>
      <trkpt lat="47.78215" lon="1.97995">
        <ele>178</ele>
        <time>2015-11-01T08:49:26.071Z</time>
      </trkpt>
      <trkpt lat="47.7822" lon="1.97988">
        <ele>179</ele>
        <time>2015-11-01T08:49:24.033Z</time>
      </trkpt>
      <trkpt lat="47.78227" lon="1.97985">
        <ele>182</ele>
        <time>2015-11-01T08:49:23.086Z</time>
      </trkpt>
      <trkpt lat="47.78232" lon="1.97978">
        <ele>182</ele>
        <time>2015-11-01T08:49:22.033Z</time>
      </trkpt>
      <trkpt lat="47.78236" lon="1.9797">
        <ele>181</ele>
        <time>2015-11-01T08:49:21.139Z</time>
      </trkpt>
      <trkpt lat="47.78243" lon="1.97964">
        <ele>181</ele>
        <time>2015-11-01T08:49:20.029Z</time>
      </trkpt>
      <trkpt lat="47.78246" lon="1.97959">
        <ele>181</ele>
        <time>2015-11-01T08:49:19.060Z</time>
      </trkpt>
      <trkpt lat="47.78252" lon="1.97953">
        <ele>181</ele>
        <time>2015-11-01T08:49:17.024Z</time>
      </trkpt>
      <trkpt lat="47.78261" lon="1.97947">
        <ele>181</ele>
        <time>2015-11-01T08:49:16.139Z</time>
      </trkpt>
      <trkpt lat="47.78261" lon="1.97947">
        <ele>181</ele>
        <time>2015-11-01T08:49:16.033Z</time>
      </trkpt>
      <trkpt lat="47.78267" lon="1.97941">
        <ele>180</ele>
        <time>2015-11-01T08:49:15.064Z</time>
      </trkpt>
      <trkpt lat="47.78271" lon="1.97936">
        <ele>180</ele>
        <time>2015-11-01T08:49:14.031Z</time>
      </trkpt>
      <trkpt lat="47.78274" lon="1.9793">
        <ele>179</ele>
        <time>2015-11-01T08:49:13.062Z</time>
      </trkpt>
      <trkpt lat="47.78278" lon="1.97918">
        <ele>177</ele>
        <time>2015-11-01T08:49:10.028Z</time>
      </trkpt>
      <trkpt lat="47.78282" lon="1.97913">
        <ele>178</ele>
        <time>2015-11-01T08:49:09.061Z</time>
      </trkpt>
      <trkpt lat="47.78286" lon="1.97908">
        <ele>177</ele>
        <time>2015-11-01T08:49:08.029Z</time>
      </trkpt>
      <trkpt lat="47.78292" lon="1.97901">
        <ele>178</ele>
        <time>2015-11-01T08:49:07.083Z</time>
      </trkpt>
      <trkpt lat="47.78298" lon="1.97897">
        <ele>179</ele>
        <time>2015-11-01T08:49:06.028Z</time>
      </trkpt>
      <trkpt lat="47.78303" lon="1.97891">
        <ele>178</ele>
        <time>2015-11-01T08:49:05.061Z</time>
      </trkpt>
      <trkpt lat="47.78309" lon="1.97883">
        <ele>178</ele>
        <time>2015-11-01T08:49:04.033Z</time>
      </trkpt>
      <trkpt lat="47.78312" lon="1.97879">
        <ele>179</ele>
        <time>2015-11-01T08:49:03.065Z</time>
      </trkpt>
      <trkpt lat="47.78318" lon="1.97874">
        <ele>180</ele>
        <time>2015-11-01T08:49:02.034Z</time>
      </trkpt>
      <trkpt lat="47.78323" lon="1.97868">
        <ele>180</ele>
        <time>2015-11-01T08:49:01.065Z</time>
      </trkpt>
      <trkpt lat="47.78329" lon="1.97864">
        <ele>181</ele>
        <time>2015-11-01T08:49:00.067Z</time>
      </trkpt>
      <trkpt lat="47.78338" lon="1.97858">
        <ele>182</ele>
        <time>2015-11-01T08:48:59.064Z</time>
      </trkpt>
      <trkpt lat="47.78346" lon="1.97852">
        <ele>183</ele>
        <time>2015-11-01T08:48:58.032Z</time>
      </trkpt>
      <trkpt lat="47.78351" lon="1.97846">
        <ele>185</ele>
        <time>2015-11-01T08:48:57.066Z</time>
      </trkpt>
      <trkpt lat="47.78358" lon="1.97841">
        <ele>186</ele>
        <time>2015-11-01T08:48:56.034Z</time>
      </trkpt>
      <trkpt lat="47.78362" lon="1.97834">
        <ele>186</ele>
        <time>2015-11-01T08:48:55.065Z</time>
      </trkpt>
      <trkpt lat="47.78366" lon="1.97831">
        <ele>185</ele>
        <time>2015-11-01T08:48:54.032Z</time>
      </trkpt>
      <trkpt lat="47.78369" lon="1.97826">
        <ele>185</ele>
        <time>2015-11-01T08:48:53.066Z</time>
      </trkpt>
      <trkpt lat="47.78371" lon="1.9782">
        <ele>185</ele>
        <time>2015-11-01T08:48:52.035Z</time>
      </trkpt>
      <trkpt lat="47.78377" lon="1.97812">
        <ele>184</ele>
        <time>2015-11-01T08:48:51.113Z</time>
      </trkpt>
      <trkpt lat="47.78379" lon="1.97805">
        <ele>183</ele>
        <time>2015-11-01T08:48:50.036Z</time>
      </trkpt>
      <trkpt lat="47.7838" lon="1.97798">
        <ele>182</ele>
        <time>2015-11-01T08:48:49.065Z</time>
      </trkpt>
      <trkpt lat="47.78384" lon="1.97792">
        <ele>183</ele>
        <time>2015-11-01T08:48:48.035Z</time>
      </trkpt>
      <trkpt lat="47.78389" lon="1.97785">
        <ele>184</ele>
        <time>2015-11-01T08:48:47.069Z</time>
      </trkpt>
      <trkpt lat="47.78397" lon="1.97782">
        <ele>185</ele>
        <time>2015-11-01T08:48:46.037Z</time>
      </trkpt>
      <trkpt lat="47.78402" lon="1.97775">
        <ele>184</ele>
        <time>2015-11-01T08:48:45.061Z</time>
      </trkpt>
      <trkpt lat="47.78405" lon="1.97768">
        <ele>184</ele>
        <time>2015-11-01T08:48:44.031Z</time>
      </trkpt>
      <trkpt lat="47.78412" lon="1.97758">
        <ele>185</ele>
        <time>2015-11-01T08:48:43.139Z</time>
      </trkpt>
      <trkpt lat="47.78412" lon="1.97758">
        <ele>185</ele>
        <time>2015-11-01T08:48:43.031Z</time>
      </trkpt>
      <trkpt lat="47.78415" lon="1.97752">
        <ele>186</ele>
        <time>2015-11-01T08:48:42.071Z</time>
      </trkpt>
      <trkpt lat="47.78416" lon="1.97741">
        <ele>185</ele>
        <time>2015-11-01T08:48:40.030Z</time>
      </trkpt>
      <trkpt lat="47.78418" lon="1.97733">
        <ele>185</ele>
        <time>2015-11-01T08:48:39.065Z</time>
      </trkpt>
      <trkpt lat="47.78424" lon="1.97723">
        <ele>185</ele>
        <time>2015-11-01T08:48:37.036Z</time>
      </trkpt>
      <trkpt lat="47.78423" lon="1.97715">
        <ele>184</ele>
        <time>2015-11-01T08:48:36.065Z</time>
      </trkpt>
      <trkpt lat="47.78428" lon="1.97708">
        <ele>185</ele>
        <time>2015-11-01T08:48:35.038Z</time>
      </trkpt>
      <trkpt lat="47.78432" lon="1.977">
        <ele>186</ele>
        <time>2015-11-01T08:48:34.065Z</time>
      </trkpt>
      <trkpt lat="47.78436" lon="1.9769">
        <ele>185</ele>
        <time>2015-11-01T08:48:32.034Z</time>
      </trkpt>
      <trkpt lat="47.78439" lon="1.97685">
        <ele>184</ele>
        <time>2015-11-01T08:48:31.064Z</time>
      </trkpt>
      <trkpt lat="47.78441" lon="1.97677">
        <ele>183</ele>
        <time>2015-11-01T08:48:30.034Z</time>
      </trkpt>
      <trkpt lat="47.78444" lon="1.97669">
        <ele>184</ele>
        <time>2015-11-01T08:48:29.083Z</time>
      </trkpt>
      <trkpt lat="47.78445" lon="1.97662">
        <ele>182</ele>
        <time>2015-11-01T08:48:28.027Z</time>
      </trkpt>
      <trkpt lat="47.78449" lon="1.97656">
        <ele>182</ele>
        <time>2015-11-01T08:48:27.063Z</time>
      </trkpt>
      <trkpt lat="47.78453" lon="1.97648">
        <ele>183</ele>
        <time>2015-11-01T08:48:26.031Z</time>
      </trkpt>
      <trkpt lat="47.78457" lon="1.97642">
        <ele>185</ele>
        <time>2015-11-01T08:48:25.060Z</time>
      </trkpt>
      <trkpt lat="47.7846" lon="1.97637">
        <ele>183</ele>
        <time>2015-11-01T08:48:24.026Z</time>
      </trkpt>
      <trkpt lat="47.78462" lon="1.9763">
        <ele>183</ele>
        <time>2015-11-01T08:48:23.073Z</time>
      </trkpt>
      <trkpt lat="47.78464" lon="1.97624">
        <ele>183</ele>
        <time>2015-11-01T08:48:22.093Z</time>
      </trkpt>
      <trkpt lat="47.78466" lon="1.97619">
        <ele>184</ele>
        <time>2015-11-01T08:48:21.217Z</time>
      </trkpt>
      <trkpt lat="47.7847" lon="1.97613">
        <ele>184</ele>
        <time>2015-11-01T08:48:20.034Z</time>
      </trkpt>
      <trkpt lat="47.78475" lon="1.97608">
        <ele>185</ele>
        <time>2015-11-01T08:48:19.089Z</time>
      </trkpt>
      <trkpt lat="47.78478" lon="1.97604">
        <ele>185</ele>
        <time>2015-11-01T08:48:18.035Z</time>
      </trkpt>
      <trkpt lat="47.78482" lon="1.97599">
        <ele>185</ele>
        <time>2015-11-01T08:48:17.108Z</time>
      </trkpt>
      <trkpt lat="47.78487" lon="1.97593">
        <ele>186</ele>
        <time>2015-11-01T08:48:16.038Z</time>
      </trkpt>
      <trkpt lat="47.78491" lon="1.97586">
        <ele>186</ele>
        <time>2015-11-01T08:48:15.073Z</time>
      </trkpt>
      <trkpt lat="47.78495" lon="1.97582">
        <ele>185</ele>
        <time>2015-11-01T08:48:14.039Z</time>
      </trkpt>
      <trkpt lat="47.785" lon="1.97577">
        <ele>186</ele>
        <time>2015-11-01T08:48:13.073Z</time>
      </trkpt>
      <trkpt lat="47.78502" lon="1.9757">
        <ele>185</ele>
        <time>2015-11-01T08:48:12.039Z</time>
      </trkpt>
      <trkpt lat="47.78504" lon="1.97564">
        <ele>184</ele>
        <time>2015-11-01T08:48:11.065Z</time>
      </trkpt>
      <trkpt lat="47.78507" lon="1.97558">
        <ele>184</ele>
        <time>2015-11-01T08:48:10.032Z</time>
      </trkpt>
      <trkpt lat="47.7851" lon="1.97553">
        <ele>184</ele>
        <time>2015-11-01T08:48:09.239Z</time>
      </trkpt>
      <trkpt lat="47.78515" lon="1.97548">
        <ele>184</ele>
        <time>2015-11-01T08:48:08.031Z</time>
      </trkpt>
      <trkpt lat="47.78515" lon="1.97544">
        <ele>183</ele>
        <time>2015-11-01T08:48:07.063Z</time>
      </trkpt>
      <trkpt lat="47.78519" lon="1.97533">
        <ele>182</ele>
        <time>2015-11-01T08:48:05.035Z</time>
      </trkpt>
      <trkpt lat="47.78524" lon="1.9753">
        <ele>182</ele>
        <time>2015-11-01T08:48:04.072Z</time>
      </trkpt>
      <trkpt lat="47.78527" lon="1.97524">
        <ele>181</ele>
        <time>2015-11-01T08:48:03.055Z</time>
      </trkpt>
      <trkpt lat="47.78528" lon="1.97518">
        <ele>182</ele>
        <time>2015-11-01T08:48:02.068Z</time>
      </trkpt>
      <trkpt lat="47.78528" lon="1.97507">
        <ele>179</ele>
        <time>2015-11-01T08:48:00.070Z</time>
      </trkpt>
      <trkpt lat="47.78528" lon="1.97503">
        <ele>178</ele>
        <time>2015-11-01T08:47:59.066Z</time>
      </trkpt>
      <trkpt lat="47.78533" lon="1.97492">
        <ele>176</ele>
        <time>2015-11-01T08:47:56.034Z</time>
      </trkpt>
      <trkpt lat="47.78536" lon="1.97491">
        <ele>176</ele>
        <time>2015-11-01T08:47:55.213Z</time>
      </trkpt>
      <trkpt lat="47.78543" lon="1.97484">
        <ele>175</ele>
        <time>2015-11-01T08:47:52.034Z</time>
      </trkpt>
      <trkpt lat="47.78545" lon="1.97479">
        <ele>176</ele>
        <time>2015-11-01T08:47:51.070Z</time>
      </trkpt>
      <trkpt lat="47.7855" lon="1.97469">
        <ele>173</ele>
        <time>2015-11-01T08:46:16.025Z</time>
      </trkpt>
      <trkpt lat="47.7855" lon="1.97469">
        <ele>173</ele>
        <time>2015-11-01T08:46:15.077Z</time>
      </trkpt>
      <trkpt lat="47.78542" lon="1.97474">
        <ele>175</ele>
        <time>2015-11-01T08:45:21.030Z</time>
      </trkpt>
      <trkpt lat="47.78543" lon="1.97473">
        <ele>174</ele>
        <time>2015-11-01T08:45:20.065Z</time>
      </trkpt>
      <trkpt lat="47.78549" lon="1.9747">
        <ele>181</ele>
        <time>2015-11-01T08:45:01.018Z</time>
      </trkpt>
      <trkpt lat="47.78543" lon="1.97468">
        <ele>182</ele>
        <time>2015-11-01T08:45:00.115Z</time>
      </trkpt>
      <trkpt lat="47.78543" lon="1.97468">
        <ele>182</ele>
        <time>2015-11-01T08:45:00.026Z</time>
      </trkpt>
      <trkpt lat="47.78548" lon="1.97467">
        <ele>183</ele>
        <time>2015-11-01T08:44:59.055Z</time>
      </trkpt>
      <trkpt lat="47.78557" lon="1.97464">
        <ele>186</ele>
        <time>2015-11-01T08:44:58.023Z</time>
      </trkpt>
      <trkpt lat="47.78567" lon="1.97467">
        <ele>190</ele>
        <time>2015-11-01T08:44:57.055Z</time>
      </trkpt>
      <trkpt lat="47.78568" lon="1.97467">
        <ele>190</ele>
        <time>2015-11-01T08:44:56.023Z</time>
      </trkpt>
      <trkpt lat="47.78571" lon="1.97468">
        <ele>190</ele>
        <time>2015-11-01T08:44:55.058Z</time>
      </trkpt>
      <trkpt lat="47.78577" lon="1.97459">
        <ele>188</ele>
        <time>2015-11-01T08:44:51.021Z</time>
      </trkpt>
      <trkpt lat="47.78577" lon="1.97457">
        <ele>188</ele>
        <time>2015-11-01T08:44:50.054Z</time>
      </trkpt>
      <trkpt lat="47.78582" lon="1.97448">
        <ele>184</ele>
        <time>2015-11-01T08:44:45.033Z</time>
      </trkpt>
      <trkpt lat="47.78587" lon="1.97446">
        <ele>185</ele>
        <time>2015-11-01T08:44:44.064Z</time>
      </trkpt>
      <trkpt lat="47.78591" lon="1.97442">
        <ele>184</ele>
        <time>2015-11-01T08:44:43.027Z</time>
      </trkpt>
      <trkpt lat="47.78596" lon="1.97438">
        <ele>184</ele>
        <time>2015-11-01T08:44:42.061Z</time>
      </trkpt>
      <trkpt lat="47.786" lon="1.97436">
        <ele>185</ele>
        <time>2015-11-01T08:44:41.030Z</time>
      </trkpt>
      <trkpt lat="47.78604" lon="1.97433">
        <ele>184</ele>
        <time>2015-11-01T08:44:40.105Z</time>
      </trkpt>
      <trkpt lat="47.78609" lon="1.97426">
        <ele>179</ele>
        <time>2015-11-01T08:44:38.036Z</time>
      </trkpt>
      <trkpt lat="47.78612" lon="1.97424">
        <ele>177</ele>
        <time>2015-11-01T08:44:37.089Z</time>
      </trkpt>
      <trkpt lat="47.78615" lon="1.97416">
        <ele>175</ele>
        <time>2015-11-01T08:44:35.030Z</time>
      </trkpt>
      <trkpt lat="47.78619" lon="1.97411">
        <ele>173</ele>
        <time>2015-11-01T08:44:34.059Z</time>
      </trkpt>
      <trkpt lat="47.78623" lon="1.97408">
        <ele>173</ele>
        <time>2015-11-01T08:44:33.028Z</time>
      </trkpt>
      <trkpt lat="47.78627" lon="1.97403">
        <ele>173</ele>
        <time>2015-11-01T08:44:32.057Z</time>
      </trkpt>
      <trkpt lat="47.78634" lon="1.97395">
        <ele>173</ele>
        <time>2015-11-01T08:44:30.020Z</time>
      </trkpt>
      <trkpt lat="47.78642" lon="1.97393">
        <ele>176</ele>
        <time>2015-11-01T08:44:29.051Z</time>
      </trkpt>
      <trkpt lat="47.78645" lon="1.97389">
        <ele>176</ele>
        <time>2015-11-01T08:44:28.022Z</time>
      </trkpt>
      <trkpt lat="47.78647" lon="1.97386">
        <ele>176</ele>
        <time>2015-11-01T08:44:27.050Z</time>
      </trkpt>
      <trkpt lat="47.78653" lon="1.97382">
        <ele>175</ele>
        <time>2015-11-01T08:44:26.021Z</time>
      </trkpt>
      <trkpt lat="47.78657" lon="1.9738">
        <ele>174</ele>
        <time>2015-11-01T08:44:25.205Z</time>
      </trkpt>
      <trkpt lat="47.78662" lon="1.97378">
        <ele>174</ele>
        <time>2015-11-01T08:44:24.026Z</time>
      </trkpt>
      <trkpt lat="47.78665" lon="1.97375">
        <ele>175</ele>
        <time>2015-11-01T08:44:23.064Z</time>
      </trkpt>
      <trkpt lat="47.7867" lon="1.97368">
        <ele>175</ele>
        <time>2015-11-01T08:44:21.029Z</time>
      </trkpt>
      <trkpt lat="47.78676" lon="1.97364">
        <ele>174</ele>
        <time>2015-11-01T08:44:20.056Z</time>
      </trkpt>
      <trkpt lat="47.7868" lon="1.9736">
        <ele>174</ele>
        <time>2015-11-01T08:44:19.025Z</time>
      </trkpt>
      <trkpt lat="47.78686" lon="1.97354">
        <ele>172</ele>
        <time>2015-11-01T08:44:18.065Z</time>
      </trkpt>
      <trkpt lat="47.78689" lon="1.9735">
        <ele>172</ele>
        <time>2015-11-01T08:44:17.023Z</time>
      </trkpt>
      <trkpt lat="47.78693" lon="1.97346">
        <ele>171</ele>
        <time>2015-11-01T08:44:16.052Z</time>
      </trkpt>
      <trkpt lat="47.787" lon="1.9734">
        <ele>169</ele>
        <time>2015-11-01T08:44:15.023Z</time>
      </trkpt>
      <trkpt lat="47.78704" lon="1.97337">
        <ele>169</ele>
        <time>2015-11-01T08:44:14.052Z</time>
      </trkpt>
      <trkpt lat="47.78709" lon="1.9733">
        <ele>169</ele>
        <time>2015-11-01T08:44:12.021Z</time>
      </trkpt>
      <trkpt lat="47.78713" lon="1.97327">
        <ele>170</ele>
        <time>2015-11-01T08:44:11.072Z</time>
      </trkpt>
      <trkpt lat="47.78717" lon="1.97323">
        <ele>170</ele>
        <time>2015-11-01T08:44:10.022Z</time>
      </trkpt>
      <trkpt lat="47.78724" lon="1.97319">
        <ele>170</ele>
        <time>2015-11-01T08:44:09.052Z</time>
      </trkpt>
      <trkpt lat="47.7873" lon="1.97315">
        <ele>170</ele>
        <time>2015-11-01T08:44:08.023Z</time>
      </trkpt>
      <trkpt lat="47.78736" lon="1.97311">
        <ele>170</ele>
        <time>2015-11-01T08:44:07.060Z</time>
      </trkpt>
      <trkpt lat="47.78741" lon="1.97307">
        <ele>170</ele>
        <time>2015-11-01T08:44:06.029Z</time>
      </trkpt>
      <trkpt lat="47.78746" lon="1.97305">
        <ele>170</ele>
        <time>2015-11-01T08:44:05.057Z</time>
      </trkpt>
      <trkpt lat="47.78751" lon="1.97301">
        <ele>170</ele>
        <time>2015-11-01T08:44:04.028Z</time>
      </trkpt>
      <trkpt lat="47.78755" lon="1.97295">
        <ele>168</ele>
        <time>2015-11-01T08:44:03.056Z</time>
      </trkpt>
      <trkpt lat="47.78762" lon="1.97291">
        <ele>167</ele>
        <time>2015-11-01T08:44:02.024Z</time>
      </trkpt>
      <trkpt lat="47.78767" lon="1.97288">
        <ele>167</ele>
        <time>2015-11-01T08:44:01.059Z</time>
      </trkpt>
      <trkpt lat="47.78773" lon="1.97283">
        <ele>167</ele>
        <time>2015-11-01T08:44:00.100Z</time>
      </trkpt>
      <trkpt lat="47.78779" lon="1.97279">
        <ele>167</ele>
        <time>2015-11-01T08:43:59.056Z</time>
      </trkpt>
      <trkpt lat="47.78783" lon="1.97275">
        <ele>168</ele>
        <time>2015-11-01T08:43:58.026Z</time>
      </trkpt>
      <trkpt lat="47.78787" lon="1.97273">
        <ele>167</ele>
        <time>2015-11-01T08:43:57.217Z</time>
      </trkpt>
      <trkpt lat="47.78792" lon="1.97269">
        <ele>167</ele>
        <time>2015-11-01T08:43:56.030Z</time>
      </trkpt>
      <trkpt lat="47.78797" lon="1.97265">
        <ele>167</ele>
        <time>2015-11-01T08:43:55.081Z</time>
      </trkpt>
      <trkpt lat="47.78803" lon="1.97261">
        <ele>168</ele>
        <time>2015-11-01T08:43:54.030Z</time>
      </trkpt>
      <trkpt lat="47.78809" lon="1.97257">
        <ele>169</ele>
        <time>2015-11-01T08:43:53.064Z</time>
      </trkpt>
      <trkpt lat="47.78813" lon="1.97254">
        <ele>169</ele>
        <time>2015-11-01T08:43:52.030Z</time>
      </trkpt>
      <trkpt lat="47.78818" lon="1.97251">
        <ele>169</ele>
        <time>2015-11-01T08:43:51.067Z</time>
      </trkpt>
      <trkpt lat="47.78824" lon="1.97247">
        <ele>169</ele>
        <time>2015-11-01T08:43:50.031Z</time>
      </trkpt>
      <trkpt lat="47.7883" lon="1.97243">
        <ele>169</ele>
        <time>2015-11-01T08:43:49.065Z</time>
      </trkpt>
      <trkpt lat="47.78836" lon="1.97238">
        <ele>169</ele>
        <time>2015-11-01T08:43:48.029Z</time>
      </trkpt>
      <trkpt lat="47.7884" lon="1.97234">
        <ele>169</ele>
        <time>2015-11-01T08:43:47.064Z</time>
      </trkpt>
      <trkpt lat="47.78847" lon="1.97229">
        <ele>168</ele>
        <time>2015-11-01T08:43:46.031Z</time>
      </trkpt>
      <trkpt lat="47.78851" lon="1.97225">
        <ele>168</ele>
        <time>2015-11-01T08:43:45.053Z</time>
      </trkpt>
      <trkpt lat="47.78857" lon="1.97222">
        <ele>168</ele>
        <time>2015-11-01T08:43:44.024Z</time>
      </trkpt>
      <trkpt lat="47.78862" lon="1.97217">
        <ele>167</ele>
        <time>2015-11-01T08:43:43.065Z</time>
      </trkpt>
      <trkpt lat="47.78868" lon="1.97212">
        <ele>167</ele>
        <time>2015-11-01T08:43:42.022Z</time>
      </trkpt>
      <trkpt lat="47.78874" lon="1.97209">
        <ele>167</ele>
        <time>2015-11-01T08:43:41.067Z</time>
      </trkpt>
      <trkpt lat="47.78878" lon="1.97205">
        <ele>167</ele>
        <time>2015-11-01T08:43:40.029Z</time>
      </trkpt>
      <trkpt lat="47.78885" lon="1.97201">
        <ele>167</ele>
        <time>2015-11-01T08:43:39.083Z</time>
      </trkpt>
      <trkpt lat="47.78891" lon="1.97197">
        <ele>167</ele>
        <time>2015-11-01T08:43:38.026Z</time>
      </trkpt>
      <trkpt lat="47.78898" lon="1.97192">
        <ele>169</ele>
        <time>2015-11-01T08:43:37.050Z</time>
      </trkpt>
      <trkpt lat="47.78903" lon="1.97189">
        <ele>169</ele>
        <time>2015-11-01T08:43:36.020Z</time>
      </trkpt>
      <trkpt lat="47.78908" lon="1.97185">
        <ele>169</ele>
        <time>2015-11-01T08:43:35.048Z</time>
      </trkpt>
      <trkpt lat="47.78913" lon="1.9718">
        <ele>168</ele>
        <time>2015-11-01T08:43:34.019Z</time>
      </trkpt>
      <trkpt lat="47.78917" lon="1.97176">
        <ele>168</ele>
        <time>2015-11-01T08:43:33.049Z</time>
      </trkpt>
      <trkpt lat="47.78923" lon="1.97172">
        <ele>168</ele>
        <time>2015-11-01T08:43:32.020Z</time>
      </trkpt>
      <trkpt lat="47.78928" lon="1.97167">
        <ele>168</ele>
        <time>2015-11-01T08:43:31.053Z</time>
      </trkpt>
      <trkpt lat="47.78932" lon="1.97163">
        <ele>166</ele>
        <time>2015-11-01T08:43:30.022Z</time>
      </trkpt>
      <trkpt lat="47.78938" lon="1.97158">
        <ele>167</ele>
        <time>2015-11-01T08:43:29.052Z</time>
      </trkpt>
      <trkpt lat="47.78943" lon="1.97154">
        <ele>167</ele>
        <time>2015-11-01T08:43:28.027Z</time>
      </trkpt>
      <trkpt lat="47.78949" lon="1.9715">
        <ele>167</ele>
        <time>2015-11-01T08:43:27.062Z</time>
      </trkpt>
      <trkpt lat="47.78954" lon="1.97145">
        <ele>167</ele>
        <time>2015-11-01T08:43:26.020Z</time>
      </trkpt>
      <trkpt lat="47.78963" lon="1.97141">
        <ele>169</ele>
        <time>2015-11-01T08:43:25.060Z</time>
      </trkpt>
      <trkpt lat="47.78968" lon="1.97137">
        <ele>168</ele>
        <time>2015-11-01T08:43:24.030Z</time>
      </trkpt>
      <trkpt lat="47.78974" lon="1.97133">
        <ele>168</ele>
        <time>2015-11-01T08:43:23.078Z</time>
      </trkpt>
      <trkpt lat="47.78977" lon="1.97127">
        <ele>166</ele>
        <time>2015-11-01T08:43:22.031Z</time>
      </trkpt>
      <trkpt lat="47.78982" lon="1.97123">
        <ele>167</ele>
        <time>2015-11-01T08:43:21.219Z</time>
      </trkpt>
      <trkpt lat="47.78988" lon="1.97119">
        <ele>168</ele>
        <time>2015-11-01T08:43:20.029Z</time>
      </trkpt>
      <trkpt lat="47.78995" lon="1.97115">
        <ele>170</ele>
        <time>2015-11-01T08:43:19.064Z</time>
      </trkpt>
      <trkpt lat="47.79" lon="1.9711">
        <ele>170</ele>
        <time>2015-11-01T08:43:18.031Z</time>
      </trkpt>
      <trkpt lat="47.79005" lon="1.97108">
        <ele>170</ele>
        <time>2015-11-01T08:43:17.064Z</time>
      </trkpt>
      <trkpt lat="47.7901" lon="1.97104">
        <ele>170</ele>
        <time>2015-11-01T08:43:16.029Z</time>
      </trkpt>
      <trkpt lat="47.79016" lon="1.97101">
        <ele>170</ele>
        <time>2015-11-01T08:43:15.065Z</time>
      </trkpt>
      <trkpt lat="47.79023" lon="1.97097">
        <ele>170</ele>
        <time>2015-11-01T08:43:14.030Z</time>
      </trkpt>
      <trkpt lat="47.79029" lon="1.97093">
        <ele>170</ele>
        <time>2015-11-01T08:43:13.061Z</time>
      </trkpt>
      <trkpt lat="47.79036" lon="1.97089">
        <ele>170</ele>
        <time>2015-11-01T08:43:12.036Z</time>
      </trkpt>
      <trkpt lat="47.79042" lon="1.97086">
        <ele>170</ele>
        <time>2015-11-01T08:43:11.060Z</time>
      </trkpt>
      <trkpt lat="47.79047" lon="1.97082">
        <ele>171</ele>
        <time>2015-11-01T08:43:10.029Z</time>
      </trkpt>
      <trkpt lat="47.79054" lon="1.97079">
        <ele>171</ele>
        <time>2015-11-01T08:43:09.220Z</time>
      </trkpt>
      <trkpt lat="47.79058" lon="1.97077">
        <ele>169</ele>
        <time>2015-11-01T08:43:08.029Z</time>
      </trkpt>
      <trkpt lat="47.79064" lon="1.97074">
        <ele>169</ele>
        <time>2015-11-01T08:43:07.085Z</time>
      </trkpt>
      <trkpt lat="47.7907" lon="1.97071">
        <ele>169</ele>
        <time>2015-11-01T08:43:06.033Z</time>
      </trkpt>
      <trkpt lat="47.79078" lon="1.97071">
        <ele>170</ele>
        <time>2015-11-01T08:43:05.056Z</time>
      </trkpt>
      <trkpt lat="47.79084" lon="1.97068">
        <ele>170</ele>
        <time>2015-11-01T08:43:04.029Z</time>
      </trkpt>
      <trkpt lat="47.7909" lon="1.97066">
        <ele>170</ele>
        <time>2015-11-01T08:43:03.064Z</time>
      </trkpt>
      <trkpt lat="47.79096" lon="1.97063">
        <ele>171</ele>
        <time>2015-11-01T08:43:02.036Z</time>
      </trkpt>
      <trkpt lat="47.79101" lon="1.9706">
        <ele>171</ele>
        <time>2015-11-01T08:43:01.065Z</time>
      </trkpt>
      <trkpt lat="47.79109" lon="1.97057">
        <ele>172</ele>
        <time>2015-11-01T08:43:00.026Z</time>
      </trkpt>
      <trkpt lat="47.79118" lon="1.97055">
        <ele>173</ele>
        <time>2015-11-01T08:42:59.081Z</time>
      </trkpt>
      <trkpt lat="47.79118" lon="1.97055">
        <ele>173</ele>
        <time>2015-11-01T08:42:59.025Z</time>
      </trkpt>
      <trkpt lat="47.79124" lon="1.97051">
        <ele>172</ele>
        <time>2015-11-01T08:42:58.065Z</time>
      </trkpt>
      <trkpt lat="47.79129" lon="1.97049">
        <ele>172</ele>
        <time>2015-11-01T08:42:57.033Z</time>
      </trkpt>
      <trkpt lat="47.79134" lon="1.97046">
        <ele>173</ele>
        <time>2015-11-01T08:42:56.151Z</time>
      </trkpt>
      <trkpt lat="47.79139" lon="1.97043">
        <ele>172</ele>
        <time>2015-11-01T08:42:55.028Z</time>
      </trkpt>
      <trkpt lat="47.79145" lon="1.9704">
        <ele>172</ele>
        <time>2015-11-01T08:42:54.084Z</time>
      </trkpt>
      <trkpt lat="47.7915" lon="1.97039">
        <ele>172</ele>
        <time>2015-11-01T08:42:53.034Z</time>
      </trkpt>
      <trkpt lat="47.79156" lon="1.97036">
        <ele>172</ele>
        <time>2015-11-01T08:42:52.062Z</time>
      </trkpt>
      <trkpt lat="47.7916" lon="1.97033">
        <ele>171</ele>
        <time>2015-11-01T08:42:51.031Z</time>
      </trkpt>
      <trkpt lat="47.79166" lon="1.97031">
        <ele>172</ele>
        <time>2015-11-01T08:42:50.066Z</time>
      </trkpt>
      <trkpt lat="47.79173" lon="1.97028">
        <ele>172</ele>
        <time>2015-11-01T08:42:49.038Z</time>
      </trkpt>
      <trkpt lat="47.79178" lon="1.97025">
        <ele>172</ele>
        <time>2015-11-01T08:42:48.063Z</time>
      </trkpt>
      <trkpt lat="47.79184" lon="1.97022">
        <ele>172</ele>
        <time>2015-11-01T08:42:47.048Z</time>
      </trkpt>
      <trkpt lat="47.79189" lon="1.97019">
        <ele>172</ele>
        <time>2015-11-01T08:42:46.086Z</time>
      </trkpt>
      <trkpt lat="47.79194" lon="1.97017">
        <ele>171</ele>
        <time>2015-11-01T08:42:45.026Z</time>
      </trkpt>
      <trkpt lat="47.792" lon="1.97013">
        <ele>171</ele>
        <time>2015-11-01T08:42:44.065Z</time>
      </trkpt>
      <trkpt lat="47.79206" lon="1.97009">
        <ele>171</ele>
        <time>2015-11-01T08:42:43.037Z</time>
      </trkpt>
      <trkpt lat="47.79211" lon="1.97007">
        <ele>172</ele>
        <time>2015-11-01T08:42:42.066Z</time>
      </trkpt>
      <trkpt lat="47.79217" lon="1.97005">
        <ele>171</ele>
        <time>2015-11-01T08:42:41.030Z</time>
      </trkpt>
      <trkpt lat="47.79222" lon="1.97003">
        <ele>171</ele>
        <time>2015-11-01T08:42:40.059Z</time>
      </trkpt>
      <trkpt lat="47.79228" lon="1.97">
        <ele>171</ele>
        <time>2015-11-01T08:42:39.031Z</time>
      </trkpt>
      <trkpt lat="47.79233" lon="1.96999">
        <ele>171</ele>
        <time>2015-11-01T08:42:38.061Z</time>
      </trkpt>
      <trkpt lat="47.79238" lon="1.96996">
        <ele>171</ele>
        <time>2015-11-01T08:42:37.032Z</time>
      </trkpt>
      <trkpt lat="47.79244" lon="1.96994">
        <ele>171</ele>
        <time>2015-11-01T08:42:36.061Z</time>
      </trkpt>
      <trkpt lat="47.79251" lon="1.96992">
        <ele>171</ele>
        <time>2015-11-01T08:42:35.032Z</time>
      </trkpt>
      <trkpt lat="47.79258" lon="1.9699">
        <ele>171</ele>
        <time>2015-11-01T08:42:34.063Z</time>
      </trkpt>
      <trkpt lat="47.79267" lon="1.96991">
        <ele>174</ele>
        <time>2015-11-01T08:42:33.030Z</time>
      </trkpt>
      <trkpt lat="47.79276" lon="1.96989">
        <ele>175</ele>
        <time>2015-11-01T08:42:32.220Z</time>
      </trkpt>
      <trkpt lat="47.79282" lon="1.96987">
        <ele>175</ele>
        <time>2015-11-01T08:42:31.035Z</time>
      </trkpt>
      <trkpt lat="47.79288" lon="1.96985">
        <ele>175</ele>
        <time>2015-11-01T08:42:30.087Z</time>
      </trkpt>
      <trkpt lat="47.79295" lon="1.96983">
        <ele>175</ele>
        <time>2015-11-01T08:42:29.036Z</time>
      </trkpt>
      <trkpt lat="47.79302" lon="1.96981">
        <ele>175</ele>
        <time>2015-11-01T08:42:28.063Z</time>
      </trkpt>
      <trkpt lat="47.79307" lon="1.96976">
        <ele>176</ele>
        <time>2015-11-01T08:42:27.028Z</time>
      </trkpt>
      <trkpt lat="47.79313" lon="1.96974">
        <ele>175</ele>
        <time>2015-11-01T08:42:26.065Z</time>
      </trkpt>
      <trkpt lat="47.79318" lon="1.96971">
        <ele>175</ele>
        <time>2015-11-01T08:42:25.029Z</time>
      </trkpt>
      <trkpt lat="47.79325" lon="1.96968">
        <ele>175</ele>
        <time>2015-11-01T08:42:24.087Z</time>
      </trkpt>
      <trkpt lat="47.79331" lon="1.96964">
        <ele>174</ele>
        <time>2015-11-01T08:42:23.034Z</time>
      </trkpt>
      <trkpt lat="47.79336" lon="1.96962">
        <ele>174</ele>
        <time>2015-11-01T08:42:22.064Z</time>
      </trkpt>
      <trkpt lat="47.79342" lon="1.96959">
        <ele>174</ele>
        <time>2015-11-01T08:42:21.032Z</time>
      </trkpt>
      <trkpt lat="47.79348" lon="1.96957">
        <ele>175</ele>
        <time>2015-11-01T08:42:20.058Z</time>
      </trkpt>
      <trkpt lat="47.79354" lon="1.96954">
        <ele>175</ele>
        <time>2015-11-01T08:42:19.032Z</time>
      </trkpt>
      <trkpt lat="47.7936" lon="1.9695">
        <ele>175</ele>
        <time>2015-11-01T08:42:18.054Z</time>
      </trkpt>
      <trkpt lat="47.79366" lon="1.96948">
        <ele>175</ele>
        <time>2015-11-01T08:42:17.025Z</time>
      </trkpt>
      <trkpt lat="47.79371" lon="1.96945">
        <ele>176</ele>
        <time>2015-11-01T08:42:16.058Z</time>
      </trkpt>
      <trkpt lat="47.79378" lon="1.96941">
        <ele>174</ele>
        <time>2015-11-01T08:42:14.028Z</time>
      </trkpt>
      <trkpt lat="47.79384" lon="1.96937">
        <ele>173</ele>
        <time>2015-11-01T08:42:13.104Z</time>
      </trkpt>
      <trkpt lat="47.79387" lon="1.96933">
        <ele>171</ele>
        <time>2015-11-01T08:42:12.026Z</time>
      </trkpt>
      <trkpt lat="47.79392" lon="1.96931">
        <ele>171</ele>
        <time>2015-11-01T08:42:11.055Z</time>
      </trkpt>
      <trkpt lat="47.79399" lon="1.9693">
        <ele>171</ele>
        <time>2015-11-01T08:42:10.023Z</time>
      </trkpt>
      <trkpt lat="47.79404" lon="1.96928">
        <ele>171</ele>
        <time>2015-11-01T08:42:09.069Z</time>
      </trkpt>
      <trkpt lat="47.7941" lon="1.96926">
        <ele>171</ele>
        <time>2015-11-01T08:42:08.018Z</time>
      </trkpt>
      <trkpt lat="47.79417" lon="1.96923">
        <ele>171</ele>
        <time>2015-11-01T08:42:07.049Z</time>
      </trkpt>
      <trkpt lat="47.79425" lon="1.96922">
        <ele>172</ele>
        <time>2015-11-01T08:42:06.020Z</time>
      </trkpt>
      <trkpt lat="47.7943" lon="1.9692">
        <ele>172</ele>
        <time>2015-11-01T08:42:05.052Z</time>
      </trkpt>
      <trkpt lat="47.79437" lon="1.96917">
        <ele>172</ele>
        <time>2015-11-01T08:42:04.021Z</time>
      </trkpt>
      <trkpt lat="47.79442" lon="1.96915">
        <ele>171</ele>
        <time>2015-11-01T08:42:03.051Z</time>
      </trkpt>
      <trkpt lat="47.79447" lon="1.96909">
        <ele>171</ele>
        <time>2015-11-01T08:42:02.022Z</time>
      </trkpt>
      <trkpt lat="47.79452" lon="1.96906">
        <ele>171</ele>
        <time>2015-11-01T08:42:01.051Z</time>
      </trkpt>
      <trkpt lat="47.79457" lon="1.96903">
        <ele>171</ele>
        <time>2015-11-01T08:42:00.025Z</time>
      </trkpt>
      <trkpt lat="47.79462" lon="1.96901">
        <ele>171</ele>
        <time>2015-11-01T08:41:59.049Z</time>
      </trkpt>
      <trkpt lat="47.79469" lon="1.96896">
        <ele>171</ele>
        <time>2015-11-01T08:41:58.028Z</time>
      </trkpt>
      <trkpt lat="47.79476" lon="1.96893">
        <ele>171</ele>
        <time>2015-11-01T08:41:57.067Z</time>
      </trkpt>
      <trkpt lat="47.79483" lon="1.96891">
        <ele>171</ele>
        <time>2015-11-01T08:41:56.032Z</time>
      </trkpt>
      <trkpt lat="47.79489" lon="1.96886">
        <ele>172</ele>
        <time>2015-11-01T08:41:55.068Z</time>
      </trkpt>
      <trkpt lat="47.79495" lon="1.96883">
        <ele>170</ele>
        <time>2015-11-01T08:41:54.031Z</time>
      </trkpt>
      <trkpt lat="47.79504" lon="1.96879">
        <ele>170</ele>
        <time>2015-11-01T08:41:53.085Z</time>
      </trkpt>
      <trkpt lat="47.79511" lon="1.96876">
        <ele>170</ele>
        <time>2015-11-01T08:41:52.029Z</time>
      </trkpt>
      <trkpt lat="47.79517" lon="1.96872">
        <ele>169</ele>
        <time>2015-11-01T08:41:51.053Z</time>
      </trkpt>
      <trkpt lat="47.79523" lon="1.96868">
        <ele>168</ele>
        <time>2015-11-01T08:41:50.021Z</time>
      </trkpt>
      <trkpt lat="47.79529" lon="1.96865">
        <ele>167</ele>
        <time>2015-11-01T08:41:49.048Z</time>
      </trkpt>
      <trkpt lat="47.79534" lon="1.96861">
        <ele>166</ele>
        <time>2015-11-01T08:41:48.020Z</time>
      </trkpt>
      <trkpt lat="47.79541" lon="1.96858">
        <ele>166</ele>
        <time>2015-11-01T08:41:47.051Z</time>
      </trkpt>
      <trkpt lat="47.79546" lon="1.96856">
        <ele>167</ele>
        <time>2015-11-01T08:41:46.020Z</time>
      </trkpt>
      <trkpt lat="47.7955" lon="1.96856">
        <ele>168</ele>
        <time>2015-11-01T08:41:45.052Z</time>
      </trkpt>
      <trkpt lat="47.79558" lon="1.96851">
        <ele>168</ele>
        <time>2015-11-01T08:41:43.021Z</time>
      </trkpt>
      <trkpt lat="47.79561" lon="1.9685">
        <ele>168</ele>
        <time>2015-11-01T08:41:42.053Z</time>
      </trkpt>
      <trkpt lat="47.79568" lon="1.96847">
        <ele>167</ele>
        <time>2015-11-01T08:41:40.019Z</time>
      </trkpt>
      <trkpt lat="47.79572" lon="1.96845">
        <ele>168</ele>
        <time>2015-11-01T08:41:39.063Z</time>
      </trkpt>
      <trkpt lat="47.79576" lon="1.96842">
        <ele>168</ele>
        <time>2015-11-01T08:41:38.018Z</time>
      </trkpt>
      <trkpt lat="47.79581" lon="1.9684">
        <ele>168</ele>
        <time>2015-11-01T08:41:37.072Z</time>
      </trkpt>
      <trkpt lat="47.79585" lon="1.96837">
        <ele>168</ele>
        <time>2015-11-01T08:41:36.020Z</time>
      </trkpt>
      <trkpt lat="47.7959" lon="1.96835">
        <ele>167</ele>
        <time>2015-11-01T08:41:35.050Z</time>
      </trkpt>
      <trkpt lat="47.79595" lon="1.96833">
        <ele>167</ele>
        <time>2015-11-01T08:41:34.020Z</time>
      </trkpt>
      <trkpt lat="47.79601" lon="1.9683">
        <ele>168</ele>
        <time>2015-11-01T08:41:33.050Z</time>
      </trkpt>
      <trkpt lat="47.79607" lon="1.96827">
        <ele>168</ele>
        <time>2015-11-01T08:41:32.019Z</time>
      </trkpt>
      <trkpt lat="47.79613" lon="1.96825">
        <ele>168</ele>
        <time>2015-11-01T08:41:31.051Z</time>
      </trkpt>
      <trkpt lat="47.79619" lon="1.96822">
        <ele>168</ele>
        <time>2015-11-01T08:41:30.022Z</time>
      </trkpt>
      <trkpt lat="47.79625" lon="1.96821">
        <ele>169</ele>
        <time>2015-11-01T08:41:29.051Z</time>
      </trkpt>
      <trkpt lat="47.7963" lon="1.96818">
        <ele>168</ele>
        <time>2015-11-01T08:41:28.023Z</time>
      </trkpt>
      <trkpt lat="47.79636" lon="1.96816">
        <ele>169</ele>
        <time>2015-11-01T08:41:27.048Z</time>
      </trkpt>
      <trkpt lat="47.79642" lon="1.96813">
        <ele>168</ele>
        <time>2015-11-01T08:41:26.020Z</time>
      </trkpt>
      <trkpt lat="47.79649" lon="1.9681">
        <ele>169</ele>
        <time>2015-11-01T08:41:25.055Z</time>
      </trkpt>
      <trkpt lat="47.79655" lon="1.96807">
        <ele>169</ele>
        <time>2015-11-01T08:41:24.029Z</time>
      </trkpt>
      <trkpt lat="47.79661" lon="1.96804">
        <ele>169</ele>
        <time>2015-11-01T08:41:23.062Z</time>
      </trkpt>
      <trkpt lat="47.79668" lon="1.96802">
        <ele>170</ele>
        <time>2015-11-01T08:41:22.024Z</time>
      </trkpt>
      <trkpt lat="47.79675" lon="1.96799">
        <ele>170</ele>
        <time>2015-11-01T08:41:21.091Z</time>
      </trkpt>
      <trkpt lat="47.79681" lon="1.96797">
        <ele>170</ele>
        <time>2015-11-01T08:41:20.028Z</time>
      </trkpt>
      <trkpt lat="47.79687" lon="1.96794">
        <ele>171</ele>
        <time>2015-11-01T08:41:19.065Z</time>
      </trkpt>
      <trkpt lat="47.79693" lon="1.96792">
        <ele>170</ele>
        <time>2015-11-01T08:41:18.026Z</time>
      </trkpt>
      <trkpt lat="47.79699" lon="1.96789">
        <ele>170</ele>
        <time>2015-11-01T08:41:17.061Z</time>
      </trkpt>
      <trkpt lat="47.79705" lon="1.96786">
        <ele>170</ele>
        <time>2015-11-01T08:41:16.029Z</time>
      </trkpt>
      <trkpt lat="47.79711" lon="1.96783">
        <ele>170</ele>
        <time>2015-11-01T08:41:15.064Z</time>
      </trkpt>
      <trkpt lat="47.79717" lon="1.96781">
        <ele>170</ele>
        <time>2015-11-01T08:41:14.028Z</time>
      </trkpt>
      <trkpt lat="47.79723" lon="1.96779">
        <ele>170</ele>
        <time>2015-11-01T08:41:13.064Z</time>
      </trkpt>
      <trkpt lat="47.79728" lon="1.96777">
        <ele>170</ele>
        <time>2015-11-01T08:41:12.029Z</time>
      </trkpt>
      <trkpt lat="47.79734" lon="1.96775">
        <ele>171</ele>
        <time>2015-11-01T08:41:11.065Z</time>
      </trkpt>
      <trkpt lat="47.79741" lon="1.96774">
        <ele>170</ele>
        <time>2015-11-01T08:41:10.029Z</time>
      </trkpt>
      <trkpt lat="47.79747" lon="1.96773">
        <ele>171</ele>
        <time>2015-11-01T08:41:09.052Z</time>
      </trkpt>
      <trkpt lat="47.79753" lon="1.96772">
        <ele>171</ele>
        <time>2015-11-01T08:41:08.021Z</time>
      </trkpt>
      <trkpt lat="47.79759" lon="1.96771">
        <ele>172</ele>
        <time>2015-11-01T08:41:07.050Z</time>
      </trkpt>
      <trkpt lat="47.79765" lon="1.96769">
        <ele>172</ele>
        <time>2015-11-01T08:41:06.019Z</time>
      </trkpt>
      <trkpt lat="47.79772" lon="1.96767">
        <ele>172</ele>
        <time>2015-11-01T08:41:05.067Z</time>
      </trkpt>
      <trkpt lat="47.79779" lon="1.96766">
        <ele>173</ele>
        <time>2015-11-01T08:41:04.020Z</time>
      </trkpt>
      <trkpt lat="47.79785" lon="1.96765">
        <ele>173</ele>
        <time>2015-11-01T08:41:03.050Z</time>
      </trkpt>
      <trkpt lat="47.79791" lon="1.96763">
        <ele>173</ele>
        <time>2015-11-01T08:41:02.022Z</time>
      </trkpt>
      <trkpt lat="47.79797" lon="1.96762">
        <ele>175</ele>
        <time>2015-11-01T08:41:01.051Z</time>
      </trkpt>
      <trkpt lat="47.79804" lon="1.9676">
        <ele>176</ele>
        <time>2015-11-01T08:41:00.026Z</time>
      </trkpt>
      <trkpt lat="47.7981" lon="1.96758">
        <ele>177</ele>
        <time>2015-11-01T08:40:59.049Z</time>
      </trkpt>
      <trkpt lat="47.79816" lon="1.96757">
        <ele>177</ele>
        <time>2015-11-01T08:40:58.047Z</time>
      </trkpt>
      <trkpt lat="47.79822" lon="1.96756">
        <ele>179</ele>
        <time>2015-11-01T08:40:57.062Z</time>
      </trkpt>
      <trkpt lat="47.79827" lon="1.96754">
        <ele>179</ele>
        <time>2015-11-01T08:40:56.028Z</time>
      </trkpt>
      <trkpt lat="47.79833" lon="1.96752">
        <ele>179</ele>
        <time>2015-11-01T08:40:55.220Z</time>
      </trkpt>
      <trkpt lat="47.79839" lon="1.96751">
        <ele>179</ele>
        <time>2015-11-01T08:40:54.030Z</time>
      </trkpt>
      <trkpt lat="47.79845" lon="1.9675">
        <ele>181</ele>
        <time>2015-11-01T08:40:53.083Z</time>
      </trkpt>
      <trkpt lat="47.79852" lon="1.96749">
        <ele>181</ele>
        <time>2015-11-01T08:40:52.029Z</time>
      </trkpt>
      <trkpt lat="47.79858" lon="1.96748">
        <ele>181</ele>
        <time>2015-11-01T08:40:51.064Z</time>
      </trkpt>
      <trkpt lat="47.79864" lon="1.96747">
        <ele>181</ele>
        <time>2015-11-01T08:40:50.029Z</time>
      </trkpt>
      <trkpt lat="47.7987" lon="1.96745">
        <ele>181</ele>
        <time>2015-11-01T08:40:49.083Z</time>
      </trkpt>
      <trkpt lat="47.79876" lon="1.96742">
        <ele>182</ele>
        <time>2015-11-01T08:40:48.031Z</time>
      </trkpt>
      <trkpt lat="47.79882" lon="1.96741">
        <ele>182</ele>
        <time>2015-11-01T08:40:47.065Z</time>
      </trkpt>
      <trkpt lat="47.79888" lon="1.96738">
        <ele>183</ele>
        <time>2015-11-01T08:40:46.026Z</time>
      </trkpt>
      <trkpt lat="47.79895" lon="1.96736">
        <ele>185</ele>
        <time>2015-11-01T08:40:45.060Z</time>
      </trkpt>
      <trkpt lat="47.79902" lon="1.96735">
        <ele>187</ele>
        <time>2015-11-01T08:40:44.033Z</time>
      </trkpt>
      <trkpt lat="47.79909" lon="1.96733">
        <ele>187</ele>
        <time>2015-11-01T08:40:43.065Z</time>
      </trkpt>
      <trkpt lat="47.79916" lon="1.96732">
        <ele>188</ele>
        <time>2015-11-01T08:40:42.030Z</time>
      </trkpt>
      <trkpt lat="47.7992" lon="1.96733">
        <ele>189</ele>
        <time>2015-11-01T08:40:41.064Z</time>
      </trkpt>
      <trkpt lat="47.79927" lon="1.96732">
        <ele>190</ele>
        <time>2015-11-01T08:40:40.029Z</time>
      </trkpt>
      <trkpt lat="47.79932" lon="1.96731">
        <ele>190</ele>
        <time>2015-11-01T08:40:39.066Z</time>
      </trkpt>
      <trkpt lat="47.79939" lon="1.96729">
        <ele>190</ele>
        <time>2015-11-01T08:40:38.030Z</time>
      </trkpt>
      <trkpt lat="47.79944" lon="1.96728">
        <ele>190</ele>
        <time>2015-11-01T08:40:37.053Z</time>
      </trkpt>
      <trkpt lat="47.79953" lon="1.96723">
        <ele>185</ele>
        <time>2015-11-01T08:40:35.023Z</time>
      </trkpt>
      <trkpt lat="47.79958" lon="1.96722">
        <ele>185</ele>
        <time>2015-11-01T08:40:34.050Z</time>
      </trkpt>
      <trkpt lat="47.79964" lon="1.9672">
        <ele>185</ele>
        <time>2015-11-01T08:40:33.020Z</time>
      </trkpt>
      <trkpt lat="47.79973" lon="1.96718">
        <ele>184</ele>
        <time>2015-11-01T08:40:32.124Z</time>
      </trkpt>
      <trkpt lat="47.79973" lon="1.96718">
        <ele>184</ele>
        <time>2015-11-01T08:40:32.021Z</time>
      </trkpt>
      <trkpt lat="47.79981" lon="1.96718">
        <ele>187</ele>
        <time>2015-11-01T08:40:31.052Z</time>
      </trkpt>
      <trkpt lat="47.79987" lon="1.96714">
        <ele>186</ele>
        <time>2015-11-01T08:40:29.021Z</time>
      </trkpt>
      <trkpt lat="47.79993" lon="1.96713">
        <ele>185</ele>
        <time>2015-11-01T08:40:28.059Z</time>
      </trkpt>
      <trkpt lat="47.79999" lon="1.9671">
        <ele>185</ele>
        <time>2015-11-01T08:40:27.033Z</time>
      </trkpt>
      <trkpt lat="47.80004" lon="1.96707">
        <ele>185</ele>
        <time>2015-11-01T08:40:26.071Z</time>
      </trkpt>
      <trkpt lat="47.80011" lon="1.96707">
        <ele>186</ele>
        <time>2015-11-01T08:40:25.032Z</time>
      </trkpt>
      <trkpt lat="47.80016" lon="1.96706">
        <ele>186</ele>
        <time>2015-11-01T08:40:24.071Z</time>
      </trkpt>
      <trkpt lat="47.80023" lon="1.96702">
        <ele>186</ele>
        <time>2015-11-01T08:40:23.033Z</time>
      </trkpt>
      <trkpt lat="47.80032" lon="1.96701">
        <ele>187</ele>
        <time>2015-11-01T08:40:22.098Z</time>
      </trkpt>
      <trkpt lat="47.80032" lon="1.96701">
        <ele>187</ele>
        <time>2015-11-01T08:40:22.033Z</time>
      </trkpt>
      <trkpt lat="47.80037" lon="1.967">
        <ele>187</ele>
        <time>2015-11-01T08:40:21.069Z</time>
      </trkpt>
      <trkpt lat="47.80045" lon="1.96696">
        <ele>187</ele>
        <time>2015-11-01T08:40:19.031Z</time>
      </trkpt>
      <trkpt lat="47.80051" lon="1.96694">
        <ele>186</ele>
        <time>2015-11-01T08:40:18.067Z</time>
      </trkpt>
      <trkpt lat="47.80059" lon="1.9669">
        <ele>185</ele>
        <time>2015-11-01T08:40:16.030Z</time>
      </trkpt>
      <trkpt lat="47.80064" lon="1.96687">
        <ele>185</ele>
        <time>2015-11-01T08:40:15.065Z</time>
      </trkpt>
      <trkpt lat="47.80071" lon="1.96687">
        <ele>185</ele>
        <time>2015-11-01T08:40:14.026Z</time>
      </trkpt>
      <trkpt lat="47.80076" lon="1.96685">
        <ele>184</ele>
        <time>2015-11-01T08:40:13.061Z</time>
      </trkpt>
      <trkpt lat="47.80081" lon="1.96682">
        <ele>182</ele>
        <time>2015-11-01T08:40:12.030Z</time>
      </trkpt>
      <trkpt lat="47.80086" lon="1.96681">
        <ele>182</ele>
        <time>2015-11-01T08:40:11.062Z</time>
      </trkpt>
      <trkpt lat="47.80093" lon="1.96679">
        <ele>182</ele>
        <time>2015-11-01T08:40:10.020Z</time>
      </trkpt>
      <trkpt lat="47.80099" lon="1.96678">
        <ele>183</ele>
        <time>2015-11-01T08:40:09.050Z</time>
      </trkpt>
      <trkpt lat="47.80105" lon="1.96676">
        <ele>183</ele>
        <time>2015-11-01T08:40:08.022Z</time>
      </trkpt>
      <trkpt lat="47.80112" lon="1.96671">
        <ele>183</ele>
        <time>2015-11-01T08:40:07.088Z</time>
      </trkpt>
      <trkpt lat="47.80116" lon="1.96669">
        <ele>183</ele>
        <time>2015-11-01T08:40:06.020Z</time>
      </trkpt>
      <trkpt lat="47.80121" lon="1.96666">
        <ele>183</ele>
        <time>2015-11-01T08:40:05.051Z</time>
      </trkpt>
      <trkpt lat="47.80126" lon="1.96665">
        <ele>184</ele>
        <time>2015-11-01T08:40:04.020Z</time>
      </trkpt>
      <trkpt lat="47.80133" lon="1.96662">
        <ele>184</ele>
        <time>2015-11-01T08:40:03.051Z</time>
      </trkpt>
      <trkpt lat="47.80139" lon="1.9666">
        <ele>183</ele>
        <time>2015-11-01T08:40:02.021Z</time>
      </trkpt>
      <trkpt lat="47.80145" lon="1.96659">
        <ele>183</ele>
        <time>2015-11-01T08:40:01.050Z</time>
      </trkpt>
      <trkpt lat="47.80153" lon="1.96655">
        <ele>183</ele>
        <time>2015-11-01T08:40:00.024Z</time>
      </trkpt>
      <trkpt lat="47.80156" lon="1.9665">
        <ele>181</ele>
        <time>2015-11-01T08:39:59.051Z</time>
      </trkpt>
      <trkpt lat="47.80161" lon="1.96648">
        <ele>182</ele>
        <time>2015-11-01T08:39:58.024Z</time>
      </trkpt>
      <trkpt lat="47.80168" lon="1.96649">
        <ele>182</ele>
        <time>2015-11-01T08:39:57.066Z</time>
      </trkpt>
      <trkpt lat="47.80173" lon="1.96649">
        <ele>182</ele>
        <time>2015-11-01T08:39:56.032Z</time>
      </trkpt>
      <trkpt lat="47.80179" lon="1.96646">
        <ele>183</ele>
        <time>2015-11-01T08:39:55.066Z</time>
      </trkpt>
      <trkpt lat="47.80184" lon="1.96646">
        <ele>184</ele>
        <time>2015-11-01T08:39:54.032Z</time>
      </trkpt>
      <trkpt lat="47.80189" lon="1.96644">
        <ele>184</ele>
        <time>2015-11-01T08:39:53.065Z</time>
      </trkpt>
      <trkpt lat="47.80195" lon="1.96642">
        <ele>183</ele>
        <time>2015-11-01T08:39:52.031Z</time>
      </trkpt>
      <trkpt lat="47.80202" lon="1.96641">
        <ele>183</ele>
        <time>2015-11-01T08:39:51.066Z</time>
      </trkpt>
      <trkpt lat="47.80208" lon="1.96636">
        <ele>180</ele>
        <time>2015-11-01T08:39:50.032Z</time>
      </trkpt>
      <trkpt lat="47.80211" lon="1.96637">
        <ele>179</ele>
        <time>2015-11-01T08:39:49.067Z</time>
      </trkpt>
      <trkpt lat="47.80218" lon="1.96635">
        <ele>180</ele>
        <time>2015-11-01T08:39:48.032Z</time>
      </trkpt>
      <trkpt lat="47.80227" lon="1.96632">
        <ele>181</ele>
        <time>2015-11-01T08:39:47.065Z</time>
      </trkpt>
      <trkpt lat="47.80234" lon="1.96631">
        <ele>182</ele>
        <time>2015-11-01T08:39:46.030Z</time>
      </trkpt>
      <trkpt lat="47.80243" lon="1.9663">
        <ele>184</ele>
        <time>2015-11-01T08:39:45.067Z</time>
      </trkpt>
      <trkpt lat="47.80246" lon="1.96629">
        <ele>183</ele>
        <time>2015-11-01T08:39:44.033Z</time>
      </trkpt>
      <trkpt lat="47.80254" lon="1.96628">
        <ele>183</ele>
        <time>2015-11-01T08:39:43.066Z</time>
      </trkpt>
      <trkpt lat="47.80256" lon="1.96624">
        <ele>183</ele>
        <time>2015-11-01T08:39:42.027Z</time>
      </trkpt>
      <trkpt lat="47.80261" lon="1.96621">
        <ele>182</ele>
        <time>2015-11-01T08:39:41.240Z</time>
      </trkpt>
      <trkpt lat="47.8027" lon="1.96617">
        <ele>180</ele>
        <time>2015-11-01T08:39:39.031Z</time>
      </trkpt>
      <trkpt lat="47.80276" lon="1.96614">
        <ele>179</ele>
        <time>2015-11-01T08:39:38.064Z</time>
      </trkpt>
      <trkpt lat="47.80282" lon="1.96613">
        <ele>179</ele>
        <time>2015-11-01T08:39:37.019Z</time>
      </trkpt>
      <trkpt lat="47.80286" lon="1.96609">
        <ele>179</ele>
        <time>2015-11-01T08:39:36.050Z</time>
      </trkpt>
      <trkpt lat="47.80292" lon="1.96607">
        <ele>179</ele>
        <time>2015-11-01T08:39:35.020Z</time>
      </trkpt>
      <trkpt lat="47.80297" lon="1.96605">
        <ele>179</ele>
        <time>2015-11-01T08:39:34.051Z</time>
      </trkpt>
      <trkpt lat="47.80302" lon="1.96604">
        <ele>181</ele>
        <time>2015-11-01T08:39:33.020Z</time>
      </trkpt>
      <trkpt lat="47.80308" lon="1.966">
        <ele>179</ele>
        <time>2015-11-01T08:39:32.050Z</time>
      </trkpt>
      <trkpt lat="47.80315" lon="1.96597">
        <ele>177</ele>
        <time>2015-11-01T08:39:31.020Z</time>
      </trkpt>
      <trkpt lat="47.80321" lon="1.96596">
        <ele>181</ele>
        <time>2015-11-01T08:39:30.050Z</time>
      </trkpt>
      <trkpt lat="47.80324" lon="1.96596">
        <ele>181</ele>
        <time>2015-11-01T08:39:29.018Z</time>
      </trkpt>
      <trkpt lat="47.8033" lon="1.96595">
        <ele>181</ele>
        <time>2015-11-01T08:39:28.054Z</time>
      </trkpt>
      <trkpt lat="47.80336" lon="1.96593">
        <ele>181</ele>
        <time>2015-11-01T08:39:27.032Z</time>
      </trkpt>
      <trkpt lat="47.80342" lon="1.9659">
        <ele>183</ele>
        <time>2015-11-01T08:39:26.064Z</time>
      </trkpt>
      <trkpt lat="47.80349" lon="1.96589">
        <ele>184</ele>
        <time>2015-11-01T08:39:25.026Z</time>
      </trkpt>
      <trkpt lat="47.80358" lon="1.96585">
        <ele>185</ele>
        <time>2015-11-01T08:39:24.100Z</time>
      </trkpt>
      <trkpt lat="47.80362" lon="1.96582">
        <ele>183</ele>
        <time>2015-11-01T08:39:23.031Z</time>
      </trkpt>
      <trkpt lat="47.8037" lon="1.96579">
        <ele>182</ele>
        <time>2015-11-01T08:39:22.069Z</time>
      </trkpt>
      <trkpt lat="47.80376" lon="1.96577">
        <ele>182</ele>
        <time>2015-11-01T08:39:21.031Z</time>
      </trkpt>
      <trkpt lat="47.8038" lon="1.96576">
        <ele>182</ele>
        <time>2015-11-01T08:39:20.063Z</time>
      </trkpt>
      <trkpt lat="47.80387" lon="1.96571">
        <ele>180</ele>
        <time>2015-11-01T08:39:18.029Z</time>
      </trkpt>
      <trkpt lat="47.80393" lon="1.96569">
        <ele>179</ele>
        <time>2015-11-01T08:39:17.104Z</time>
      </trkpt>
      <trkpt lat="47.80401" lon="1.96566">
        <ele>179</ele>
        <time>2015-11-01T08:39:16.029Z</time>
      </trkpt>
      <trkpt lat="47.80406" lon="1.96565">
        <ele>180</ele>
        <time>2015-11-01T08:39:15.064Z</time>
      </trkpt>
      <trkpt lat="47.80413" lon="1.96561">
        <ele>179</ele>
        <time>2015-11-01T08:39:14.029Z</time>
      </trkpt>
      <trkpt lat="47.80419" lon="1.96562">
        <ele>179</ele>
        <time>2015-11-01T08:39:13.064Z</time>
      </trkpt>
      <trkpt lat="47.80426" lon="1.9656">
        <ele>179</ele>
        <time>2015-11-01T08:39:12.031Z</time>
      </trkpt>
      <trkpt lat="47.80432" lon="1.96562">
        <ele>179</ele>
        <time>2015-11-01T08:39:11.065Z</time>
      </trkpt>
      <trkpt lat="47.80438" lon="1.96559">
        <ele>178</ele>
        <time>2015-11-01T08:39:10.026Z</time>
      </trkpt>
      <trkpt lat="47.80444" lon="1.96557">
        <ele>180</ele>
        <time>2015-11-01T08:39:09.072Z</time>
      </trkpt>
      <trkpt lat="47.80447" lon="1.96557">
        <ele>180</ele>
        <time>2015-11-01T08:39:08.021Z</time>
      </trkpt>
      <trkpt lat="47.80452" lon="1.96555">
        <ele>181</ele>
        <time>2015-11-01T08:39:07.050Z</time>
      </trkpt>
      <trkpt lat="47.80459" lon="1.96554">
        <ele>181</ele>
        <time>2015-11-01T08:39:06.021Z</time>
      </trkpt>
      <trkpt lat="47.80463" lon="1.96553">
        <ele>182</ele>
        <time>2015-11-01T08:39:05.050Z</time>
      </trkpt>
      <trkpt lat="47.80471" lon="1.96551">
        <ele>183</ele>
        <time>2015-11-01T08:39:04.021Z</time>
      </trkpt>
      <trkpt lat="47.80477" lon="1.9655">
        <ele>183</ele>
        <time>2015-11-01T08:39:03.053Z</time>
      </trkpt>
      <trkpt lat="47.8048" lon="1.96548">
        <ele>181</ele>
        <time>2015-11-01T08:39:02.019Z</time>
      </trkpt>
      <trkpt lat="47.80485" lon="1.96545">
        <ele>180</ele>
        <time>2015-11-01T08:39:01.050Z</time>
      </trkpt>
      <trkpt lat="47.80491" lon="1.96542">
        <ele>181</ele>
        <time>2015-11-01T08:39:00.024Z</time>
      </trkpt>
      <trkpt lat="47.80496" lon="1.96539">
        <ele>180</ele>
        <time>2015-11-01T08:38:59.049Z</time>
      </trkpt>
      <trkpt lat="47.80502" lon="1.96535">
        <ele>182</ele>
        <time>2015-11-01T08:38:58.027Z</time>
      </trkpt>
      <trkpt lat="47.80508" lon="1.96532">
        <ele>183</ele>
        <time>2015-11-01T08:38:57.065Z</time>
      </trkpt>
      <trkpt lat="47.80517" lon="1.96531">
        <ele>184</ele>
        <time>2015-11-01T08:38:56.031Z</time>
      </trkpt>
      <trkpt lat="47.80524" lon="1.96527">
        <ele>185</ele>
        <time>2015-11-01T08:38:55.065Z</time>
      </trkpt>
      <trkpt lat="47.80531" lon="1.96523">
        <ele>186</ele>
        <time>2015-11-01T08:38:54.027Z</time>
      </trkpt>
      <trkpt lat="47.8054" lon="1.9652">
        <ele>186</ele>
        <time>2015-11-01T08:38:53.141Z</time>
      </trkpt>
      <trkpt lat="47.8054" lon="1.9652">
        <ele>186</ele>
        <time>2015-11-01T08:38:53.025Z</time>
      </trkpt>
      <trkpt lat="47.80549" lon="1.96517">
        <ele>186</ele>
        <time>2015-11-01T08:38:52.064Z</time>
      </trkpt>
      <trkpt lat="47.80555" lon="1.96514">
        <ele>185</ele>
        <time>2015-11-01T08:38:51.030Z</time>
      </trkpt>
      <trkpt lat="47.80561" lon="1.96512">
        <ele>186</ele>
        <time>2015-11-01T08:38:50.065Z</time>
      </trkpt>
      <trkpt lat="47.80566" lon="1.9651">
        <ele>185</ele>
        <time>2015-11-01T08:38:49.032Z</time>
      </trkpt>
      <trkpt lat="47.80572" lon="1.96507">
        <ele>184</ele>
        <time>2015-11-01T08:38:48.082Z</time>
      </trkpt>
      <trkpt lat="47.8058" lon="1.96505">
        <ele>182</ele>
        <time>2015-11-01T08:38:45.026Z</time>
      </trkpt>
      <trkpt lat="47.80581" lon="1.96505">
        <ele>183</ele>
        <time>2015-11-01T08:38:44.056Z</time>
      </trkpt>
      <trkpt lat="47.80588" lon="1.96501">
        <ele>183</ele>
        <time>2015-11-01T08:38:43.027Z</time>
      </trkpt>
      <trkpt lat="47.80596" lon="1.96494">
        <ele>184</ele>
        <time>2015-11-01T08:38:42.090Z</time>
      </trkpt>
      <trkpt lat="47.80596" lon="1.96494">
        <ele>184</ele>
        <time>2015-11-01T08:38:42.028Z</time>
      </trkpt>
      <trkpt lat="47.80603" lon="1.96491">
        <ele>183</ele>
        <time>2015-11-01T08:38:41.066Z</time>
      </trkpt>
      <trkpt lat="47.8061" lon="1.96487">
        <ele>182</ele>
        <time>2015-11-01T08:38:40.029Z</time>
      </trkpt>
      <trkpt lat="47.80615" lon="1.96484">
        <ele>181</ele>
        <time>2015-11-01T08:38:39.063Z</time>
      </trkpt>
      <trkpt lat="47.80621" lon="1.96479">
        <ele>182</ele>
        <time>2015-11-01T08:38:38.029Z</time>
      </trkpt>
      <trkpt lat="47.80629" lon="1.96478">
        <ele>183</ele>
        <time>2015-11-01T08:38:37.121Z</time>
      </trkpt>
      <trkpt lat="47.80635" lon="1.96473">
        <ele>182</ele>
        <time>2015-11-01T08:38:36.020Z</time>
      </trkpt>
      <trkpt lat="47.80647" lon="1.96467">
        <ele>183</ele>
        <time>2015-11-01T08:38:35.051Z</time>
      </trkpt>
      <trkpt lat="47.80651" lon="1.96462">
        <ele>183</ele>
        <time>2015-11-01T08:38:34.020Z</time>
      </trkpt>
      <trkpt lat="47.80657" lon="1.9646">
        <ele>184</ele>
        <time>2015-11-01T08:38:33.050Z</time>
      </trkpt>
      <trkpt lat="47.80661" lon="1.96458">
        <ele>184</ele>
        <time>2015-11-01T08:38:32.021Z</time>
      </trkpt>
      <trkpt lat="47.80666" lon="1.96454">
        <ele>181</ele>
        <time>2015-11-01T08:38:31.050Z</time>
      </trkpt>
      <trkpt lat="47.80669" lon="1.96445">
        <ele>173</ele>
        <time>2015-11-01T08:38:27.060Z</time>
      </trkpt>
      <trkpt lat="47.80673" lon="1.96443">
        <ele>173</ele>
        <time>2015-11-01T08:38:26.071Z</time>
      </trkpt>
      <trkpt lat="47.80681" lon="1.9644">
        <ele>173</ele>
        <time>2015-11-01T08:38:25.034Z</time>
      </trkpt>
      <trkpt lat="47.80686" lon="1.96436">
        <ele>173</ele>
        <time>2015-11-01T08:38:24.065Z</time>
      </trkpt>
      <trkpt lat="47.80692" lon="1.96434">
        <ele>173</ele>
        <time>2015-11-01T08:38:23.030Z</time>
      </trkpt>
      <trkpt lat="47.807" lon="1.96432">
        <ele>173</ele>
        <time>2015-11-01T08:38:22.064Z</time>
      </trkpt>
      <trkpt lat="47.80709" lon="1.96427">
        <ele>172</ele>
        <time>2015-11-01T08:38:20.029Z</time>
      </trkpt>
      <trkpt lat="47.8071" lon="1.96426">
        <ele>171</ele>
        <time>2015-11-01T08:38:19.063Z</time>
      </trkpt>
      <trkpt lat="47.80719" lon="1.96423">
        <ele>173</ele>
        <time>2015-11-01T08:38:17.033Z</time>
      </trkpt>
      <trkpt lat="47.80723" lon="1.96422">
        <ele>173</ele>
        <time>2015-11-01T08:38:16.100Z</time>
      </trkpt>
      <trkpt lat="47.80728" lon="1.96419">
        <ele>173</ele>
        <time>2015-11-01T08:38:15.031Z</time>
      </trkpt>
      <trkpt lat="47.80733" lon="1.96418">
        <ele>174</ele>
        <time>2015-11-01T08:38:14.139Z</time>
      </trkpt>
      <trkpt lat="47.8074" lon="1.96412">
        <ele>174</ele>
        <time>2015-11-01T08:38:12.027Z</time>
      </trkpt>
      <trkpt lat="47.80745" lon="1.96409">
        <ele>173</ele>
        <time>2015-11-01T08:38:11.082Z</time>
      </trkpt>
      <trkpt lat="47.80749" lon="1.96407">
        <ele>173</ele>
        <time>2015-11-01T08:38:10.029Z</time>
      </trkpt>
      <trkpt lat="47.80754" lon="1.96406">
        <ele>173</ele>
        <time>2015-11-01T08:38:09.052Z</time>
      </trkpt>
      <trkpt lat="47.8076" lon="1.96403">
        <ele>172</ele>
        <time>2015-11-01T08:38:08.021Z</time>
      </trkpt>
      <trkpt lat="47.80766" lon="1.964">
        <ele>170</ele>
        <time>2015-11-01T08:38:07.054Z</time>
      </trkpt>
      <trkpt lat="47.8077" lon="1.96398">
        <ele>170</ele>
        <time>2015-11-01T08:38:06.020Z</time>
      </trkpt>
      <trkpt lat="47.80775" lon="1.96395">
        <ele>169</ele>
        <time>2015-11-01T08:38:05.049Z</time>
      </trkpt>
      <trkpt lat="47.80784" lon="1.96392">
        <ele>167</ele>
        <time>2015-11-01T08:38:03.019Z</time>
      </trkpt>
      <trkpt lat="47.80788" lon="1.96395">
        <ele>167</ele>
        <time>2015-11-01T08:38:02.090Z</time>
      </trkpt>
      <trkpt lat="47.80791" lon="1.96407">
        <ele>166</ele>
        <time>2015-11-01T08:38:00.026Z</time>
      </trkpt>
      <trkpt lat="47.80791" lon="1.96414">
        <ele>166</ele>
        <time>2015-11-01T08:37:59.053Z</time>
      </trkpt>
      <trkpt lat="47.8079" lon="1.96426">
        <ele>164</ele>
        <time>2015-11-01T08:37:57.030Z</time>
      </trkpt>
      <trkpt lat="47.8079" lon="1.96434">
        <ele>164</ele>
        <time>2015-11-01T08:37:56.060Z</time>
      </trkpt>
      <trkpt lat="47.80791" lon="1.96441">
        <ele>163</ele>
        <time>2015-11-01T08:37:55.027Z</time>
      </trkpt>
      <trkpt lat="47.80792" lon="1.96448">
        <ele>164</ele>
        <time>2015-11-01T08:37:54.063Z</time>
      </trkpt>
      <trkpt lat="47.80795" lon="1.96454">
        <ele>164</ele>
        <time>2015-11-01T08:37:53.026Z</time>
      </trkpt>
      <trkpt lat="47.80799" lon="1.96458">
        <ele>164</ele>
        <time>2015-11-01T08:37:52.063Z</time>
      </trkpt>
      <trkpt lat="47.80804" lon="1.96459">
        <ele>163</ele>
        <time>2015-11-01T08:37:51.027Z</time>
      </trkpt>
      <trkpt lat="47.80809" lon="1.96459">
        <ele>163</ele>
        <time>2015-11-01T08:37:50.093Z</time>
      </trkpt>
      <trkpt lat="47.80814" lon="1.96459">
        <ele>163</ele>
        <time>2015-11-01T08:37:49.022Z</time>
      </trkpt>
      <trkpt lat="47.80819" lon="1.96458">
        <ele>163</ele>
        <time>2015-11-01T08:37:48.060Z</time>
      </trkpt>
      <trkpt lat="47.80825" lon="1.96457">
        <ele>163</ele>
        <time>2015-11-01T08:37:47.027Z</time>
      </trkpt>
      <trkpt lat="47.8083" lon="1.96456">
        <ele>163</ele>
        <time>2015-11-01T08:37:46.062Z</time>
      </trkpt>
      <trkpt lat="47.80835" lon="1.96455">
        <ele>163</ele>
        <time>2015-11-01T08:37:45.026Z</time>
      </trkpt>
      <trkpt lat="47.80841" lon="1.96454">
        <ele>162</ele>
        <time>2015-11-01T08:37:44.062Z</time>
      </trkpt>
      <trkpt lat="47.80846" lon="1.96454">
        <ele>162</ele>
        <time>2015-11-01T08:37:43.027Z</time>
      </trkpt>
      <trkpt lat="47.80852" lon="1.96453">
        <ele>162</ele>
        <time>2015-11-01T08:37:42.063Z</time>
      </trkpt>
      <trkpt lat="47.80858" lon="1.96452">
        <ele>162</ele>
        <time>2015-11-01T08:37:41.026Z</time>
      </trkpt>
      <trkpt lat="47.80863" lon="1.96451">
        <ele>162</ele>
        <time>2015-11-01T08:37:40.054Z</time>
      </trkpt>
      <trkpt lat="47.80869" lon="1.96451">
        <ele>162</ele>
        <time>2015-11-01T08:37:39.029Z</time>
      </trkpt>
      <trkpt lat="47.80875" lon="1.9645">
        <ele>162</ele>
        <time>2015-11-01T08:37:38.062Z</time>
      </trkpt>
      <trkpt lat="47.80881" lon="1.96448">
        <ele>162</ele>
        <time>2015-11-01T08:37:37.018Z</time>
      </trkpt>
      <trkpt lat="47.80887" lon="1.96446">
        <ele>162</ele>
        <time>2015-11-01T08:37:36.047Z</time>
      </trkpt>
      <trkpt lat="47.80892" lon="1.96445">
        <ele>161</ele>
        <time>2015-11-01T08:37:35.019Z</time>
      </trkpt>
      <trkpt lat="47.80898" lon="1.96444">
        <ele>161</ele>
        <time>2015-11-01T08:37:34.070Z</time>
      </trkpt>
      <trkpt lat="47.80904" lon="1.96442">
        <ele>161</ele>
        <time>2015-11-01T08:37:33.020Z</time>
      </trkpt>
      <trkpt lat="47.80909" lon="1.96442">
        <ele>161</ele>
        <time>2015-11-01T08:37:32.050Z</time>
      </trkpt>
      <trkpt lat="47.80914" lon="1.96446">
        <ele>160</ele>
        <time>2015-11-01T08:37:31.017Z</time>
      </trkpt>
      <trkpt lat="47.80917" lon="1.96451">
        <ele>161</ele>
        <time>2015-11-01T08:37:30.096Z</time>
      </trkpt>
      <trkpt lat="47.80917" lon="1.96458">
        <ele>160</ele>
        <time>2015-11-01T08:37:29.020Z</time>
      </trkpt>
      <trkpt lat="47.80917" lon="1.96466">
        <ele>161</ele>
        <time>2015-11-01T08:37:28.053Z</time>
      </trkpt>
      <trkpt lat="47.80917" lon="1.96474">
        <ele>161</ele>
        <time>2015-11-01T08:37:27.025Z</time>
      </trkpt>
      <trkpt lat="47.80917" lon="1.96482">
        <ele>162</ele>
        <time>2015-11-01T08:37:26.062Z</time>
      </trkpt>
      <trkpt lat="47.80917" lon="1.9649">
        <ele>161</ele>
        <time>2015-11-01T08:37:25.028Z</time>
      </trkpt>
      <trkpt lat="47.80917" lon="1.96499">
        <ele>162</ele>
        <time>2015-11-01T08:37:24.061Z</time>
      </trkpt>
      <trkpt lat="47.80917" lon="1.96507">
        <ele>161</ele>
        <time>2015-11-01T08:37:23.028Z</time>
      </trkpt>
      <trkpt lat="47.80917" lon="1.96515">
        <ele>161</ele>
        <time>2015-11-01T08:37:22.220Z</time>
      </trkpt>
      <trkpt lat="47.80917" lon="1.96523">
        <ele>161</ele>
        <time>2015-11-01T08:37:21.025Z</time>
      </trkpt>
      <trkpt lat="47.80917" lon="1.96532">
        <ele>161</ele>
        <time>2015-11-01T08:37:20.063Z</time>
      </trkpt>
      <trkpt lat="47.80917" lon="1.9654">
        <ele>161</ele>
        <time>2015-11-01T08:37:19.027Z</time>
      </trkpt>
      <trkpt lat="47.80917" lon="1.96548">
        <ele>161</ele>
        <time>2015-11-01T08:37:18.085Z</time>
      </trkpt>
      <trkpt lat="47.80917" lon="1.96556">
        <ele>160</ele>
        <time>2015-11-01T08:37:17.023Z</time>
      </trkpt>
      <trkpt lat="47.80918" lon="1.96564">
        <ele>160</ele>
        <time>2015-11-01T08:37:16.062Z</time>
      </trkpt>
      <trkpt lat="47.80917" lon="1.96573">
        <ele>160</ele>
        <time>2015-11-01T08:37:15.027Z</time>
      </trkpt>
      <trkpt lat="47.80918" lon="1.96581">
        <ele>160</ele>
        <time>2015-11-01T08:37:14.062Z</time>
      </trkpt>
      <trkpt lat="47.80918" lon="1.96589">
        <ele>161</ele>
        <time>2015-11-01T08:37:13.028Z</time>
      </trkpt>
      <trkpt lat="47.80918" lon="1.96598">
        <ele>161</ele>
        <time>2015-11-01T08:37:12.064Z</time>
      </trkpt>
      <trkpt lat="47.80917" lon="1.96606">
        <ele>161</ele>
        <time>2015-11-01T08:37:11.029Z</time>
      </trkpt>
      <trkpt lat="47.80917" lon="1.96614">
        <ele>161</ele>
        <time>2015-11-01T08:37:10.062Z</time>
      </trkpt>
      <trkpt lat="47.80917" lon="1.96623">
        <ele>161</ele>
        <time>2015-11-01T08:37:09.020Z</time>
      </trkpt>
      <trkpt lat="47.80917" lon="1.96631">
        <ele>161</ele>
        <time>2015-11-01T08:37:08.049Z</time>
      </trkpt>
      <trkpt lat="47.80917" lon="1.96639">
        <ele>161</ele>
        <time>2015-11-01T08:37:07.018Z</time>
      </trkpt>
      <trkpt lat="47.80917" lon="1.96647">
        <ele>160</ele>
        <time>2015-11-01T08:37:06.049Z</time>
      </trkpt>
      <trkpt lat="47.80917" lon="1.96655">
        <ele>161</ele>
        <time>2015-11-01T08:37:05.018Z</time>
      </trkpt>
      <trkpt lat="47.80917" lon="1.96664">
        <ele>161</ele>
        <time>2015-11-01T08:37:04.049Z</time>
      </trkpt>
      <trkpt lat="47.80917" lon="1.96672">
        <ele>161</ele>
        <time>2015-11-01T08:37:03.018Z</time>
      </trkpt>
      <trkpt lat="47.80918" lon="1.9668">
        <ele>161</ele>
        <time>2015-11-01T08:37:02.072Z</time>
      </trkpt>
      <trkpt lat="47.80918" lon="1.96688">
        <ele>161</ele>
        <time>2015-11-01T08:37:01.020Z</time>
      </trkpt>
      <trkpt lat="47.80918" lon="1.96697">
        <ele>160</ele>
        <time>2015-11-01T08:37:00.096Z</time>
      </trkpt>
      <trkpt lat="47.80918" lon="1.96704">
        <ele>160</ele>
        <time>2015-11-01T08:36:59.019Z</time>
      </trkpt>
      <trkpt lat="47.80918" lon="1.96714">
        <ele>160</ele>
        <time>2015-11-01T08:36:58.053Z</time>
      </trkpt>
      <trkpt lat="47.80918" lon="1.96722">
        <ele>160</ele>
        <time>2015-11-01T08:36:57.027Z</time>
      </trkpt>
      <trkpt lat="47.80918" lon="1.96731">
        <ele>160</ele>
        <time>2015-11-01T08:36:56.055Z</time>
      </trkpt>
      <trkpt lat="47.80918" lon="1.96739">
        <ele>160</ele>
        <time>2015-11-01T08:36:55.058Z</time>
      </trkpt>
      <trkpt lat="47.80918" lon="1.96748">
        <ele>160</ele>
        <time>2015-11-01T08:36:54.078Z</time>
      </trkpt>
      <trkpt lat="47.80918" lon="1.96757">
        <ele>160</ele>
        <time>2015-11-01T08:36:53.026Z</time>
      </trkpt>
      <trkpt lat="47.80918" lon="1.96765">
        <ele>160</ele>
        <time>2015-11-01T08:36:52.059Z</time>
      </trkpt>
      <trkpt lat="47.80918" lon="1.96773">
        <ele>160</ele>
        <time>2015-11-01T08:36:51.031Z</time>
      </trkpt>
      <trkpt lat="47.80918" lon="1.96781">
        <ele>160</ele>
        <time>2015-11-01T08:36:50.064Z</time>
      </trkpt>
      <trkpt lat="47.80918" lon="1.9679">
        <ele>159</ele>
        <time>2015-11-01T08:36:49.030Z</time>
      </trkpt>
      <trkpt lat="47.80918" lon="1.96799">
        <ele>159</ele>
        <time>2015-11-01T08:36:48.064Z</time>
      </trkpt>
      <trkpt lat="47.80918" lon="1.96808">
        <ele>159</ele>
        <time>2015-11-01T08:36:47.026Z</time>
      </trkpt>
      <trkpt lat="47.80918" lon="1.96816">
        <ele>159</ele>
        <time>2015-11-01T08:36:46.232Z</time>
      </trkpt>
      <trkpt lat="47.80918" lon="1.96825">
        <ele>158</ele>
        <time>2015-11-01T08:36:45.023Z</time>
      </trkpt>
      <trkpt lat="47.80919" lon="1.96833">
        <ele>158</ele>
        <time>2015-11-01T08:36:44.065Z</time>
      </trkpt>
      <trkpt lat="47.80919" lon="1.96842">
        <ele>157</ele>
        <time>2015-11-01T08:36:43.031Z</time>
      </trkpt>
      <trkpt lat="47.80918" lon="1.9685">
        <ele>157</ele>
        <time>2015-11-01T08:36:42.067Z</time>
      </trkpt>
      <trkpt lat="47.80918" lon="1.96859">
        <ele>157</ele>
        <time>2015-11-01T08:36:41.034Z</time>
      </trkpt>
      <trkpt lat="47.80918" lon="1.96868">
        <ele>156</ele>
        <time>2015-11-01T08:36:40.069Z</time>
      </trkpt>
      <trkpt lat="47.80918" lon="1.96876">
        <ele>156</ele>
        <time>2015-11-01T08:36:39.030Z</time>
      </trkpt>
      <trkpt lat="47.80918" lon="1.96886">
        <ele>156</ele>
        <time>2015-11-01T08:36:38.080Z</time>
      </trkpt>
      <trkpt lat="47.80918" lon="1.96895">
        <ele>156</ele>
        <time>2015-11-01T08:36:37.018Z</time>
      </trkpt>
      <trkpt lat="47.80918" lon="1.96904">
        <ele>156</ele>
        <time>2015-11-01T08:36:36.047Z</time>
      </trkpt>
      <trkpt lat="47.80917" lon="1.96912">
        <ele>155</ele>
        <time>2015-11-01T08:36:35.016Z</time>
      </trkpt>
      <trkpt lat="47.80917" lon="1.96921">
        <ele>155</ele>
        <time>2015-11-01T08:36:34.200Z</time>
      </trkpt>
      <trkpt lat="47.80917" lon="1.9693">
        <ele>155</ele>
        <time>2015-11-01T08:36:33.017Z</time>
      </trkpt>
      <trkpt lat="47.80917" lon="1.96939">
        <ele>154</ele>
        <time>2015-11-01T08:36:32.048Z</time>
      </trkpt>
      <trkpt lat="47.80917" lon="1.96948">
        <ele>154</ele>
        <time>2015-11-01T08:36:31.018Z</time>
      </trkpt>
      <trkpt lat="47.80917" lon="1.96955">
        <ele>154</ele>
        <time>2015-11-01T08:36:30.071Z</time>
      </trkpt>
      <trkpt lat="47.80917" lon="1.96962">
        <ele>154</ele>
        <time>2015-11-01T08:36:29.018Z</time>
      </trkpt>
      <trkpt lat="47.80917" lon="1.96968">
        <ele>155</ele>
        <time>2015-11-01T08:36:28.053Z</time>
      </trkpt>
      <trkpt lat="47.80918" lon="1.9698">
        <ele>155</ele>
        <time>2015-11-01T08:36:26.027Z</time>
      </trkpt>
      <trkpt lat="47.80918" lon="1.96986">
        <ele>155</ele>
        <time>2015-11-01T08:36:25.124Z</time>
      </trkpt>
      <trkpt lat="47.80918" lon="1.96998">
        <ele>155</ele>
        <time>2015-11-01T08:36:23.028Z</time>
      </trkpt>
      <trkpt lat="47.80918" lon="1.97005">
        <ele>156</ele>
        <time>2015-11-01T08:36:22.063Z</time>
      </trkpt>
      <trkpt lat="47.80918" lon="1.97012">
        <ele>156</ele>
        <time>2015-11-01T08:36:21.028Z</time>
      </trkpt>
      <trkpt lat="47.80918" lon="1.97019">
        <ele>156</ele>
        <time>2015-11-01T08:36:20.227Z</time>
      </trkpt>
      <trkpt lat="47.80919" lon="1.97026">
        <ele>156</ele>
        <time>2015-11-01T08:36:19.027Z</time>
      </trkpt>
      <trkpt lat="47.80919" lon="1.97034">
        <ele>156</ele>
        <time>2015-11-01T08:36:18.086Z</time>
      </trkpt>
      <trkpt lat="47.8092" lon="1.97042">
        <ele>156</ele>
        <time>2015-11-01T08:36:17.026Z</time>
      </trkpt>
      <trkpt lat="47.80922" lon="1.97049">
        <ele>156</ele>
        <time>2015-11-01T08:36:16.081Z</time>
      </trkpt>
      <trkpt lat="47.80927" lon="1.97054">
        <ele>157</ele>
        <time>2015-11-01T08:36:15.027Z</time>
      </trkpt>
      <trkpt lat="47.80931" lon="1.97057">
        <ele>157</ele>
        <time>2015-11-01T08:36:14.122Z</time>
      </trkpt>
      <trkpt lat="47.80937" lon="1.97059">
        <ele>156</ele>
        <time>2015-11-01T08:36:13.035Z</time>
      </trkpt>
      <trkpt lat="47.80942" lon="1.97062">
        <ele>156</ele>
        <time>2015-11-01T08:36:12.063Z</time>
      </trkpt>
      <trkpt lat="47.80948" lon="1.97064">
        <ele>157</ele>
        <time>2015-11-01T08:36:11.037Z</time>
      </trkpt>
      <trkpt lat="47.80953" lon="1.97067">
        <ele>156</ele>
        <time>2015-11-01T08:36:10.210Z</time>
      </trkpt>
      <trkpt lat="47.80958" lon="1.9707">
        <ele>156</ele>
        <time>2015-11-01T08:36:09.018Z</time>
      </trkpt>
      <trkpt lat="47.80963" lon="1.97073">
        <ele>156</ele>
        <time>2015-11-01T08:36:08.047Z</time>
      </trkpt>
      <trkpt lat="47.80968" lon="1.97077">
        <ele>155</ele>
        <time>2015-11-01T08:36:07.019Z</time>
      </trkpt>
      <trkpt lat="47.80974" lon="1.9708">
        <ele>155</ele>
        <time>2015-11-01T08:36:06.048Z</time>
      </trkpt>
      <trkpt lat="47.80979" lon="1.97083">
        <ele>155</ele>
        <time>2015-11-01T08:36:05.018Z</time>
      </trkpt>
      <trkpt lat="47.80984" lon="1.97086">
        <ele>154</ele>
        <time>2015-11-01T08:36:04.050Z</time>
      </trkpt>
      <trkpt lat="47.80989" lon="1.9709">
        <ele>154</ele>
        <time>2015-11-01T08:36:03.021Z</time>
      </trkpt>
      <trkpt lat="47.80995" lon="1.97093">
        <ele>154</ele>
        <time>2015-11-01T08:36:02.051Z</time>
      </trkpt>
      <trkpt lat="47.81" lon="1.97096">
        <ele>154</ele>
        <time>2015-11-01T08:36:01.018Z</time>
      </trkpt>
      <trkpt lat="47.81005" lon="1.971">
        <ele>154</ele>
        <time>2015-11-01T08:36:00.085Z</time>
      </trkpt>
      <trkpt lat="47.8101" lon="1.97104">
        <ele>154</ele>
        <time>2015-11-01T08:35:59.018Z</time>
      </trkpt>
      <trkpt lat="47.81016" lon="1.97108">
        <ele>154</ele>
        <time>2015-11-01T08:35:58.071Z</time>
      </trkpt>
      <trkpt lat="47.81021" lon="1.97111">
        <ele>154</ele>
        <time>2015-11-01T08:35:57.024Z</time>
      </trkpt>
      <trkpt lat="47.81026" lon="1.97114">
        <ele>154</ele>
        <time>2015-11-01T08:35:56.222Z</time>
      </trkpt>
      <trkpt lat="47.81031" lon="1.97117">
        <ele>155</ele>
        <time>2015-11-01T08:35:55.027Z</time>
      </trkpt>
      <trkpt lat="47.81036" lon="1.97121">
        <ele>154</ele>
        <time>2015-11-01T08:35:54.062Z</time>
      </trkpt>
      <trkpt lat="47.81041" lon="1.97125">
        <ele>154</ele>
        <time>2015-11-01T08:35:53.028Z</time>
      </trkpt>
      <trkpt lat="47.81047" lon="1.97129">
        <ele>155</ele>
        <time>2015-11-01T08:35:52.062Z</time>
      </trkpt>
      <trkpt lat="47.81052" lon="1.97132">
        <ele>154</ele>
        <time>2015-11-01T08:35:51.027Z</time>
      </trkpt>
      <trkpt lat="47.81057" lon="1.97135">
        <ele>154</ele>
        <time>2015-11-01T08:35:50.063Z</time>
      </trkpt>
      <trkpt lat="47.81063" lon="1.9714">
        <ele>154</ele>
        <time>2015-11-01T08:35:49.026Z</time>
      </trkpt>
      <trkpt lat="47.81068" lon="1.97143">
        <ele>154</ele>
        <time>2015-11-01T08:35:48.060Z</time>
      </trkpt>
      <trkpt lat="47.81073" lon="1.97147">
        <ele>154</ele>
        <time>2015-11-01T08:35:47.027Z</time>
      </trkpt>
      <trkpt lat="47.81078" lon="1.97152">
        <ele>154</ele>
        <time>2015-11-01T08:35:46.062Z</time>
      </trkpt>
      <trkpt lat="47.81083" lon="1.97155">
        <ele>154</ele>
        <time>2015-11-01T08:35:45.027Z</time>
      </trkpt>
      <trkpt lat="47.81089" lon="1.97159">
        <ele>154</ele>
        <time>2015-11-01T08:35:44.062Z</time>
      </trkpt>
      <trkpt lat="47.81094" lon="1.97163">
        <ele>154</ele>
        <time>2015-11-01T08:35:43.027Z</time>
      </trkpt>
      <trkpt lat="47.81099" lon="1.97166">
        <ele>154</ele>
        <time>2015-11-01T08:35:42.085Z</time>
      </trkpt>
      <trkpt lat="47.81104" lon="1.9717">
        <ele>154</ele>
        <time>2015-11-01T08:35:41.025Z</time>
      </trkpt>
      <trkpt lat="47.81109" lon="1.97173">
        <ele>154</ele>
        <time>2015-11-01T08:35:40.067Z</time>
      </trkpt>
      <trkpt lat="47.81114" lon="1.97177">
        <ele>154</ele>
        <time>2015-11-01T08:35:39.029Z</time>
      </trkpt>
      <trkpt lat="47.8112" lon="1.97181">
        <ele>154</ele>
        <time>2015-11-01T08:35:38.063Z</time>
      </trkpt>
      <trkpt lat="47.81125" lon="1.97184">
        <ele>154</ele>
        <time>2015-11-01T08:35:37.017Z</time>
      </trkpt>
      <trkpt lat="47.81131" lon="1.97188">
        <ele>154</ele>
        <time>2015-11-01T08:35:36.048Z</time>
      </trkpt>
      <trkpt lat="47.81136" lon="1.97193">
        <ele>155</ele>
        <time>2015-11-01T08:35:35.017Z</time>
      </trkpt>
      <trkpt lat="47.81141" lon="1.97196">
        <ele>154</ele>
        <time>2015-11-01T08:35:34.064Z</time>
      </trkpt>
      <trkpt lat="47.81147" lon="1.972">
        <ele>154</ele>
        <time>2015-11-01T08:35:33.020Z</time>
      </trkpt>
      <trkpt lat="47.81153" lon="1.97203">
        <ele>155</ele>
        <time>2015-11-01T08:35:32.052Z</time>
      </trkpt>
      <trkpt lat="47.81158" lon="1.97207">
        <ele>155</ele>
        <time>2015-11-01T08:35:31.020Z</time>
      </trkpt>
      <trkpt lat="47.81163" lon="1.9721">
        <ele>155</ele>
        <time>2015-11-01T08:35:30.048Z</time>
      </trkpt>
      <trkpt lat="47.81169" lon="1.97214">
        <ele>155</ele>
        <time>2015-11-01T08:35:29.018Z</time>
      </trkpt>
      <trkpt lat="47.81174" lon="1.97218">
        <ele>155</ele>
        <time>2015-11-01T08:35:28.054Z</time>
      </trkpt>
      <trkpt lat="47.81179" lon="1.97222">
        <ele>155</ele>
        <time>2015-11-01T08:35:27.028Z</time>
      </trkpt>
      <trkpt lat="47.81184" lon="1.97226">
        <ele>155</ele>
        <time>2015-11-01T08:35:26.083Z</time>
      </trkpt>
      <trkpt lat="47.81189" lon="1.9723">
        <ele>156</ele>
        <time>2015-11-01T08:35:25.023Z</time>
      </trkpt>
      <trkpt lat="47.81194" lon="1.97234">
        <ele>156</ele>
        <time>2015-11-01T08:35:24.066Z</time>
      </trkpt>
      <trkpt lat="47.81199" lon="1.97237">
        <ele>156</ele>
        <time>2015-11-01T08:35:23.027Z</time>
      </trkpt>
      <trkpt lat="47.81205" lon="1.97241">
        <ele>156</ele>
        <time>2015-11-01T08:35:22.064Z</time>
      </trkpt>
      <trkpt lat="47.8121" lon="1.97245">
        <ele>156</ele>
        <time>2015-11-01T08:35:21.025Z</time>
      </trkpt>
      <trkpt lat="47.81215" lon="1.97249">
        <ele>157</ele>
        <time>2015-11-01T08:35:20.066Z</time>
      </trkpt>
      <trkpt lat="47.81219" lon="1.97253">
        <ele>158</ele>
        <time>2015-11-01T08:35:19.024Z</time>
      </trkpt>
      <trkpt lat="47.81224" lon="1.97256">
        <ele>158</ele>
        <time>2015-11-01T08:35:18.066Z</time>
      </trkpt>
      <trkpt lat="47.81228" lon="1.9726">
        <ele>157</ele>
        <time>2015-11-01T08:35:17.025Z</time>
      </trkpt>
      <trkpt lat="47.81233" lon="1.97262">
        <ele>158</ele>
        <time>2015-11-01T08:35:16.060Z</time>
      </trkpt>
      <trkpt lat="47.81238" lon="1.97265">
        <ele>158</ele>
        <time>2015-11-01T08:35:15.029Z</time>
      </trkpt>
      <trkpt lat="47.81244" lon="1.97267">
        <ele>160</ele>
        <time>2015-11-01T08:35:14.065Z</time>
      </trkpt>
      <trkpt lat="47.81249" lon="1.97267">
        <ele>161</ele>
        <time>2015-11-01T08:35:13.030Z</time>
      </trkpt>
      <trkpt lat="47.81253" lon="1.97265">
        <ele>161</ele>
        <time>2015-11-01T08:35:12.053Z</time>
      </trkpt>
      <trkpt lat="47.81257" lon="1.97259">
        <ele>160</ele>
        <time>2015-11-01T08:35:11.020Z</time>
      </trkpt>
      <trkpt lat="47.8126" lon="1.97253">
        <ele>161</ele>
        <time>2015-11-01T08:35:10.078Z</time>
      </trkpt>
      <trkpt lat="47.81262" lon="1.97246">
        <ele>161</ele>
        <time>2015-11-01T08:35:09.019Z</time>
      </trkpt>
      <trkpt lat="47.81264" lon="1.97238">
        <ele>161</ele>
        <time>2015-11-01T08:35:08.050Z</time>
      </trkpt>
      <trkpt lat="47.81266" lon="1.9723">
        <ele>162</ele>
        <time>2015-11-01T08:35:07.022Z</time>
      </trkpt>
      <trkpt lat="47.81267" lon="1.97223">
        <ele>162</ele>
        <time>2015-11-01T08:35:06.051Z</time>
      </trkpt>
      <trkpt lat="47.81269" lon="1.97215">
        <ele>160</ele>
        <time>2015-11-01T08:35:05.020Z</time>
      </trkpt>
      <trkpt lat="47.81271" lon="1.97207">
        <ele>159</ele>
        <time>2015-11-01T08:35:04.051Z</time>
      </trkpt>
      <trkpt lat="47.81273" lon="1.972">
        <ele>159</ele>
        <time>2015-11-01T08:35:03.020Z</time>
      </trkpt>
      <trkpt lat="47.81275" lon="1.97192">
        <ele>159</ele>
        <time>2015-11-01T08:35:02.051Z</time>
      </trkpt>
      <trkpt lat="47.81277" lon="1.97185">
        <ele>158</ele>
        <time>2015-11-01T08:35:01.021Z</time>
      </trkpt>
      <trkpt lat="47.81279" lon="1.97178">
        <ele>158</ele>
        <time>2015-11-01T08:35:00.090Z</time>
      </trkpt>
      <trkpt lat="47.81281" lon="1.9717">
        <ele>158</ele>
        <time>2015-11-01T08:34:59.018Z</time>
      </trkpt>
      <trkpt lat="47.81283" lon="1.97162">
        <ele>158</ele>
        <time>2015-11-01T08:34:58.054Z</time>
      </trkpt>
      <trkpt lat="47.81285" lon="1.97155">
        <ele>158</ele>
        <time>2015-11-01T08:34:57.025Z</time>
      </trkpt>
      <trkpt lat="47.81287" lon="1.97147">
        <ele>158</ele>
        <time>2015-11-01T08:34:56.060Z</time>
      </trkpt>
      <trkpt lat="47.81289" lon="1.9714">
        <ele>158</ele>
        <time>2015-11-01T08:34:55.024Z</time>
      </trkpt>
      <trkpt lat="47.81291" lon="1.97133">
        <ele>158</ele>
        <time>2015-11-01T08:34:54.061Z</time>
      </trkpt>
      <trkpt lat="47.81294" lon="1.97126">
        <ele>158</ele>
        <time>2015-11-01T08:34:53.025Z</time>
      </trkpt>
      <trkpt lat="47.81296" lon="1.97119">
        <ele>157</ele>
        <time>2015-11-01T08:34:52.062Z</time>
      </trkpt>
      <trkpt lat="47.81298" lon="1.97112">
        <ele>157</ele>
        <time>2015-11-01T08:34:51.025Z</time>
      </trkpt>
      <trkpt lat="47.813" lon="1.97104">
        <ele>157</ele>
        <time>2015-11-01T08:34:50.063Z</time>
      </trkpt>
      <trkpt lat="47.81302" lon="1.97097">
        <ele>157</ele>
        <time>2015-11-01T08:34:49.027Z</time>
      </trkpt>
      <trkpt lat="47.81304" lon="1.97089">
        <ele>157</ele>
        <time>2015-11-01T08:34:48.076Z</time>
      </trkpt>
      <trkpt lat="47.81306" lon="1.97082">
        <ele>157</ele>
        <time>2015-11-01T08:34:47.026Z</time>
      </trkpt>
      <trkpt lat="47.81308" lon="1.97074">
        <ele>157</ele>
        <time>2015-11-01T08:34:46.064Z</time>
      </trkpt>
      <trkpt lat="47.8131" lon="1.97067">
        <ele>157</ele>
        <time>2015-11-01T08:34:45.026Z</time>
      </trkpt>
      <trkpt lat="47.81312" lon="1.97059">
        <ele>157</ele>
        <time>2015-11-01T08:34:44.058Z</time>
      </trkpt>
      <trkpt lat="47.81314" lon="1.97053">
        <ele>157</ele>
        <time>2015-11-01T08:34:43.026Z</time>
      </trkpt>
      <trkpt lat="47.81317" lon="1.97045">
        <ele>157</ele>
        <time>2015-11-01T08:34:42.062Z</time>
      </trkpt>
      <trkpt lat="47.81319" lon="1.97038">
        <ele>156</ele>
        <time>2015-11-01T08:34:41.024Z</time>
      </trkpt>
      <trkpt lat="47.81321" lon="1.9703">
        <ele>157</ele>
        <time>2015-11-01T08:34:40.104Z</time>
      </trkpt>
      <trkpt lat="47.81323" lon="1.97022">
        <ele>156</ele>
        <time>2015-11-01T08:34:39.029Z</time>
      </trkpt>
      <trkpt lat="47.81325" lon="1.97015">
        <ele>156</ele>
        <time>2015-11-01T08:34:38.063Z</time>
      </trkpt>
      <trkpt lat="47.81326" lon="1.97008">
        <ele>156</ele>
        <time>2015-11-01T08:34:37.020Z</time>
      </trkpt>
      <trkpt lat="47.81329" lon="1.97001">
        <ele>156</ele>
        <time>2015-11-01T08:34:36.051Z</time>
      </trkpt>
      <trkpt lat="47.81331" lon="1.96994">
        <ele>155</ele>
        <time>2015-11-01T08:34:35.020Z</time>
      </trkpt>
      <trkpt lat="47.81332" lon="1.96987">
        <ele>155</ele>
        <time>2015-11-01T08:34:34.050Z</time>
      </trkpt>
      <trkpt lat="47.81334" lon="1.9698">
        <ele>155</ele>
        <time>2015-11-01T08:34:33.019Z</time>
      </trkpt>
      <trkpt lat="47.81336" lon="1.96972">
        <ele>154</ele>
        <time>2015-11-01T08:34:32.050Z</time>
      </trkpt>
      <trkpt lat="47.81338" lon="1.96965">
        <ele>154</ele>
        <time>2015-11-01T08:34:31.019Z</time>
      </trkpt>
      <trkpt lat="47.8134" lon="1.96958">
        <ele>154</ele>
        <time>2015-11-01T08:34:30.192Z</time>
      </trkpt>
      <trkpt lat="47.81342" lon="1.96951">
        <ele>154</ele>
        <time>2015-11-01T08:34:29.019Z</time>
      </trkpt>
      <trkpt lat="47.81344" lon="1.96943">
        <ele>154</ele>
        <time>2015-11-01T08:34:28.071Z</time>
      </trkpt>
      <trkpt lat="47.81345" lon="1.96935">
        <ele>153</ele>
        <time>2015-11-01T08:34:27.030Z</time>
      </trkpt>
      <trkpt lat="47.81347" lon="1.96928">
        <ele>153</ele>
        <time>2015-11-01T08:34:26.063Z</time>
      </trkpt>
      <trkpt lat="47.81348" lon="1.9692">
        <ele>152</ele>
        <time>2015-11-01T08:34:25.028Z</time>
      </trkpt>
      <trkpt lat="47.8135" lon="1.96914">
        <ele>153</ele>
        <time>2015-11-01T08:34:24.065Z</time>
      </trkpt>
      <trkpt lat="47.81352" lon="1.96906">
        <ele>152</ele>
        <time>2015-11-01T08:34:23.029Z</time>
      </trkpt>
      <trkpt lat="47.81354" lon="1.969">
        <ele>152</ele>
        <time>2015-11-01T08:34:22.061Z</time>
      </trkpt>
      <trkpt lat="47.81356" lon="1.96892">
        <ele>151</ele>
        <time>2015-11-01T08:34:21.025Z</time>
      </trkpt>
      <trkpt lat="47.81358" lon="1.96885">
        <ele>151</ele>
        <time>2015-11-01T08:34:20.061Z</time>
      </trkpt>
      <trkpt lat="47.8136" lon="1.96878">
        <ele>151</ele>
        <time>2015-11-01T08:34:19.026Z</time>
      </trkpt>
      <trkpt lat="47.81362" lon="1.96871">
        <ele>151</ele>
        <time>2015-11-01T08:34:18.064Z</time>
      </trkpt>
      <trkpt lat="47.81364" lon="1.96864">
        <ele>151</ele>
        <time>2015-11-01T08:34:17.029Z</time>
      </trkpt>
      <trkpt lat="47.81366" lon="1.96858">
        <ele>151</ele>
        <time>2015-11-01T08:34:16.221Z</time>
      </trkpt>
      <trkpt lat="47.81368" lon="1.96851">
        <ele>151</ele>
        <time>2015-11-01T08:34:15.030Z</time>
      </trkpt>
      <trkpt lat="47.81371" lon="1.96844">
        <ele>151</ele>
        <time>2015-11-01T08:34:14.065Z</time>
      </trkpt>
      <trkpt lat="47.81374" lon="1.96838">
        <ele>152</ele>
        <time>2015-11-01T08:34:13.032Z</time>
      </trkpt>
      <trkpt lat="47.81378" lon="1.96833">
        <ele>152</ele>
        <time>2015-11-01T08:34:12.086Z</time>
      </trkpt>
      <trkpt lat="47.81382" lon="1.96828">
        <ele>152</ele>
        <time>2015-11-01T08:34:11.030Z</time>
      </trkpt>
      <trkpt lat="47.81386" lon="1.96823">
        <ele>152</ele>
        <time>2015-11-01T08:34:10.070Z</time>
      </trkpt>
      <trkpt lat="47.8139" lon="1.96818">
        <ele>153</ele>
        <time>2015-11-01T08:34:09.018Z</time>
      </trkpt>
      <trkpt lat="47.81395" lon="1.96814">
        <ele>154</ele>
        <time>2015-11-01T08:34:08.050Z</time>
      </trkpt>
      <trkpt lat="47.81399" lon="1.9681">
        <ele>154</ele>
        <time>2015-11-01T08:34:07.019Z</time>
      </trkpt>
      <trkpt lat="47.81403" lon="1.96805">
        <ele>154</ele>
        <time>2015-11-01T08:34:06.047Z</time>
      </trkpt>
      <trkpt lat="47.81407" lon="1.968">
        <ele>154</ele>
        <time>2015-11-01T08:34:05.020Z</time>
      </trkpt>
      <trkpt lat="47.81411" lon="1.96796">
        <ele>154</ele>
        <time>2015-11-01T08:34:04.048Z</time>
      </trkpt>
      <trkpt lat="47.81415" lon="1.96791">
        <ele>154</ele>
        <time>2015-11-01T08:34:03.019Z</time>
      </trkpt>
      <trkpt lat="47.8142" lon="1.96786">
        <ele>155</ele>
        <time>2015-11-01T08:34:02.048Z</time>
      </trkpt>
      <trkpt lat="47.81424" lon="1.96781">
        <ele>155</ele>
        <time>2015-11-01T08:34:01.017Z</time>
      </trkpt>
      <trkpt lat="47.81428" lon="1.96777">
        <ele>155</ele>
        <time>2015-11-01T08:34:00.092Z</time>
      </trkpt>
      <trkpt lat="47.81432" lon="1.96773">
        <ele>156</ele>
        <time>2015-11-01T08:33:59.017Z</time>
      </trkpt>
      <trkpt lat="47.81436" lon="1.96768">
        <ele>156</ele>
        <time>2015-11-01T08:33:58.056Z</time>
      </trkpt>
      <trkpt lat="47.81441" lon="1.96764">
        <ele>156</ele>
        <time>2015-11-01T08:33:57.027Z</time>
      </trkpt>
      <trkpt lat="47.81447" lon="1.96759">
        <ele>158</ele>
        <time>2015-11-01T08:33:56.082Z</time>
      </trkpt>
      <trkpt lat="47.81452" lon="1.96754">
        <ele>160</ele>
        <time>2015-11-01T08:33:55.028Z</time>
      </trkpt>
      <trkpt lat="47.81457" lon="1.96749">
        <ele>162</ele>
        <time>2015-11-01T08:33:54.061Z</time>
      </trkpt>
      <trkpt lat="47.81462" lon="1.96744">
        <ele>163</ele>
        <time>2015-11-01T08:33:53.022Z</time>
      </trkpt>
      <trkpt lat="47.81466" lon="1.9674">
        <ele>162</ele>
        <time>2015-11-01T08:33:52.050Z</time>
      </trkpt>
      <trkpt lat="47.81468" lon="1.96733">
        <ele>161</ele>
        <time>2015-11-01T08:33:51.019Z</time>
      </trkpt>
      <trkpt lat="47.81472" lon="1.96727">
        <ele>162</ele>
        <time>2015-11-01T08:33:50.050Z</time>
      </trkpt>
      <trkpt lat="47.81476" lon="1.96722">
        <ele>161</ele>
        <time>2015-11-01T08:33:49.021Z</time>
      </trkpt>
      <trkpt lat="47.8148" lon="1.96718">
        <ele>161</ele>
        <time>2015-11-01T08:33:48.052Z</time>
      </trkpt>
      <trkpt lat="47.81485" lon="1.96714">
        <ele>161</ele>
        <time>2015-11-01T08:33:47.020Z</time>
      </trkpt>
      <trkpt lat="47.8149" lon="1.96709">
        <ele>162</ele>
        <time>2015-11-01T08:33:46.050Z</time>
      </trkpt>
      <trkpt lat="47.81494" lon="1.96704">
        <ele>162</ele>
        <time>2015-11-01T08:33:45.018Z</time>
      </trkpt>
      <trkpt lat="47.81498" lon="1.96699">
        <ele>161</ele>
        <time>2015-11-01T08:33:44.054Z</time>
      </trkpt>
      <trkpt lat="47.81503" lon="1.96697">
        <ele>161</ele>
        <time>2015-11-01T08:33:43.024Z</time>
      </trkpt>
      <trkpt lat="47.81506" lon="1.96693">
        <ele>161</ele>
        <time>2015-11-01T08:33:42.062Z</time>
      </trkpt>
      <trkpt lat="47.81512" lon="1.96686">
        <ele>159</ele>
        <time>2015-11-01T08:33:40.028Z</time>
      </trkpt>
      <trkpt lat="47.81517" lon="1.96683">
        <ele>158</ele>
        <time>2015-11-01T08:33:39.064Z</time>
      </trkpt>
      <trkpt lat="47.8152" lon="1.96678">
        <ele>159</ele>
        <time>2015-11-01T08:33:38.028Z</time>
      </trkpt>
      <trkpt lat="47.81525" lon="1.96675">
        <ele>159</ele>
        <time>2015-11-01T08:33:37.051Z</time>
      </trkpt>
      <trkpt lat="47.8153" lon="1.96671">
        <ele>160</ele>
        <time>2015-11-01T08:33:36.022Z</time>
      </trkpt>
      <trkpt lat="47.81534" lon="1.96668">
        <ele>159</ele>
        <time>2015-11-01T08:33:35.072Z</time>
      </trkpt>
      <trkpt lat="47.81539" lon="1.96664">
        <ele>159</ele>
        <time>2015-11-01T08:33:34.022Z</time>
      </trkpt>
      <trkpt lat="47.81543" lon="1.9666">
        <ele>160</ele>
        <time>2015-11-01T08:33:33.052Z</time>
      </trkpt>
      <trkpt lat="47.81546" lon="1.96654">
        <ele>160</ele>
        <time>2015-11-01T08:33:32.021Z</time>
      </trkpt>
      <trkpt lat="47.8155" lon="1.9665">
        <ele>160</ele>
        <time>2015-11-01T08:33:31.053Z</time>
      </trkpt>
      <trkpt lat="47.81555" lon="1.96647">
        <ele>160</ele>
        <time>2015-11-01T08:33:30.020Z</time>
      </trkpt>
      <trkpt lat="47.81559" lon="1.96644">
        <ele>159</ele>
        <time>2015-11-01T08:33:29.051Z</time>
      </trkpt>
      <trkpt lat="47.81566" lon="1.96639">
        <ele>159</ele>
        <time>2015-11-01T08:33:27.022Z</time>
      </trkpt>
      <trkpt lat="47.81569" lon="1.96638">
        <ele>158</ele>
        <time>2015-11-01T08:33:26.141Z</time>
      </trkpt>
      <trkpt lat="47.81576" lon="1.96639">
        <ele>158</ele>
        <time>2015-11-01T08:33:24.027Z</time>
      </trkpt>
      <trkpt lat="47.8158" lon="1.9664">
        <ele>157</ele>
        <time>2015-11-01T08:33:23.063Z</time>
      </trkpt>
      <trkpt lat="47.81585" lon="1.96643">
        <ele>158</ele>
        <time>2015-11-01T08:33:22.029Z</time>
      </trkpt>
      <trkpt lat="47.8159" lon="1.96641">
        <ele>159</ele>
        <time>2015-11-01T08:33:21.065Z</time>
      </trkpt>
      <trkpt lat="47.81597" lon="1.96641">
        <ele>162</ele>
        <time>2015-11-01T08:33:20.031Z</time>
      </trkpt>
      <trkpt lat="47.81603" lon="1.96639">
        <ele>163</ele>
        <time>2015-11-01T08:33:19.088Z</time>
      </trkpt>
      <trkpt lat="47.8161" lon="1.96639">
        <ele>160</ele>
        <time>2015-11-01T08:33:17.026Z</time>
      </trkpt>
      <trkpt lat="47.81615" lon="1.96642">
        <ele>160</ele>
        <time>2015-11-01T08:33:16.065Z</time>
      </trkpt>
      <trkpt lat="47.81621" lon="1.96643">
        <ele>157</ele>
        <time>2015-11-01T08:33:14.029Z</time>
      </trkpt>
      <trkpt lat="47.81626" lon="1.96644">
        <ele>157</ele>
        <time>2015-11-01T08:33:13.064Z</time>
      </trkpt>
      <trkpt lat="47.8163" lon="1.96647">
        <ele>158</ele>
        <time>2015-11-01T08:33:12.029Z</time>
      </trkpt>
      <trkpt lat="47.81634" lon="1.9665">
        <ele>158</ele>
        <time>2015-11-01T08:33:11.103Z</time>
      </trkpt>
      <trkpt lat="47.81641" lon="1.96656">
        <ele>157</ele>
        <time>2015-11-01T08:33:09.023Z</time>
      </trkpt>
      <trkpt lat="47.81644" lon="1.9666">
        <ele>156</ele>
        <time>2015-11-01T08:33:08.054Z</time>
      </trkpt>
      <trkpt lat="47.81651" lon="1.96664">
        <ele>156</ele>
        <time>2015-11-01T08:33:06.022Z</time>
      </trkpt>
      <trkpt lat="47.81659" lon="1.96666">
        <ele>160</ele>
        <time>2015-11-01T08:33:05.054Z</time>
      </trkpt>
      <trkpt lat="47.81664" lon="1.96668">
        <ele>160</ele>
        <time>2015-11-01T08:33:04.020Z</time>
      </trkpt>
      <trkpt lat="47.81669" lon="1.96671">
        <ele>160</ele>
        <time>2015-11-01T08:33:03.075Z</time>
      </trkpt>
      <trkpt lat="47.81673" lon="1.96676">
        <ele>160</ele>
        <time>2015-11-01T08:33:02.038Z</time>
      </trkpt>
      <trkpt lat="47.81676" lon="1.9668">
        <ele>160</ele>
        <time>2015-11-01T08:33:01.053Z</time>
      </trkpt>
      <trkpt lat="47.8168" lon="1.96683">
        <ele>160</ele>
        <time>2015-11-01T08:33:00.029Z</time>
      </trkpt>
      <trkpt lat="47.81685" lon="1.96683">
        <ele>159</ele>
        <time>2015-11-01T08:32:59.050Z</time>
      </trkpt>
      <trkpt lat="47.8169" lon="1.96687">
        <ele>159</ele>
        <time>2015-11-01T08:32:58.025Z</time>
      </trkpt>
      <trkpt lat="47.81694" lon="1.9669">
        <ele>159</ele>
        <time>2015-11-01T08:32:57.064Z</time>
      </trkpt>
      <trkpt lat="47.81698" lon="1.96694">
        <ele>158</ele>
        <time>2015-11-01T08:32:56.028Z</time>
      </trkpt>
      <trkpt lat="47.81704" lon="1.96696">
        <ele>160</ele>
        <time>2015-11-01T08:32:55.127Z</time>
      </trkpt>
      <trkpt lat="47.81709" lon="1.96699">
        <ele>161</ele>
        <time>2015-11-01T08:32:54.026Z</time>
      </trkpt>
      <trkpt lat="47.81714" lon="1.96704">
        <ele>163</ele>
        <time>2015-11-01T08:32:53.063Z</time>
      </trkpt>
      <trkpt lat="47.81719" lon="1.96707">
        <ele>162</ele>
        <time>2015-11-01T08:32:52.029Z</time>
      </trkpt>
      <trkpt lat="47.81724" lon="1.9671">
        <ele>162</ele>
        <time>2015-11-01T08:32:51.211Z</time>
      </trkpt>
      <trkpt lat="47.81729" lon="1.96714">
        <ele>162</ele>
        <time>2015-11-01T08:32:50.029Z</time>
      </trkpt>
      <trkpt lat="47.81733" lon="1.96715">
        <ele>159</ele>
        <time>2015-11-01T08:32:49.065Z</time>
      </trkpt>
      <trkpt lat="47.81739" lon="1.96718">
        <ele>159</ele>
        <time>2015-11-01T08:32:48.029Z</time>
      </trkpt>
      <trkpt lat="47.81745" lon="1.9672">
        <ele>160</ele>
        <time>2015-11-01T08:32:47.092Z</time>
      </trkpt>
      <trkpt lat="47.81749" lon="1.96726">
        <ele>159</ele>
        <time>2015-11-01T08:32:46.026Z</time>
      </trkpt>
      <trkpt lat="47.81754" lon="1.96725">
        <ele>159</ele>
        <time>2015-11-01T08:32:45.062Z</time>
      </trkpt>
      <trkpt lat="47.81763" lon="1.96727">
        <ele>157</ele>
        <time>2015-11-01T08:32:43.027Z</time>
      </trkpt>
      <trkpt lat="47.81768" lon="1.96729">
        <ele>157</ele>
        <time>2015-11-01T08:32:42.063Z</time>
      </trkpt>
      <trkpt lat="47.81776" lon="1.96733">
        <ele>155</ele>
        <time>2015-11-01T08:32:40.027Z</time>
      </trkpt>
      <trkpt lat="47.81781" lon="1.96734">
        <ele>155</ele>
        <time>2015-11-01T08:32:39.053Z</time>
      </trkpt>
      <trkpt lat="47.81787" lon="1.96736">
        <ele>153</ele>
        <time>2015-11-01T08:32:38.028Z</time>
      </trkpt>
      <trkpt lat="47.81791" lon="1.96738">
        <ele>151</ele>
        <time>2015-11-01T08:32:37.054Z</time>
      </trkpt>
      <trkpt lat="47.81797" lon="1.9674">
        <ele>151</ele>
        <time>2015-11-01T08:32:36.021Z</time>
      </trkpt>
      <trkpt lat="47.81807" lon="1.96737">
        <ele>153</ele>
        <time>2015-11-01T08:32:35.057Z</time>
      </trkpt>
      <trkpt lat="47.81813" lon="1.96735">
        <ele>153</ele>
        <time>2015-11-01T08:32:34.021Z</time>
      </trkpt>
      <trkpt lat="47.8182" lon="1.96731">
        <ele>152</ele>
        <time>2015-11-01T08:32:33.049Z</time>
      </trkpt>
      <trkpt lat="47.81826" lon="1.96727">
        <ele>151</ele>
        <time>2015-11-01T08:32:32.018Z</time>
      </trkpt>
      <trkpt lat="47.81832" lon="1.96722">
        <ele>151</ele>
        <time>2015-11-01T08:32:31.074Z</time>
      </trkpt>
      <trkpt lat="47.8184" lon="1.96718">
        <ele>151</ele>
        <time>2015-11-01T08:32:29.020Z</time>
      </trkpt>
      <trkpt lat="47.81842" lon="1.96716">
        <ele>150</ele>
        <time>2015-11-01T08:32:28.219Z</time>
      </trkpt>
      <trkpt lat="47.81847" lon="1.96706">
        <ele>143</ele>
        <time>2015-11-01T08:32:23.028Z</time>
      </trkpt>
      <trkpt lat="47.81852" lon="1.96702">
        <ele>143</ele>
        <time>2015-11-01T08:32:22.066Z</time>
      </trkpt>
      <trkpt lat="47.81856" lon="1.96698">
        <ele>143</ele>
        <time>2015-11-01T08:32:21.026Z</time>
      </trkpt>
      <trkpt lat="47.81859" lon="1.96694">
        <ele>142</ele>
        <time>2015-11-01T08:32:20.064Z</time>
      </trkpt>
      <trkpt lat="47.81862" lon="1.96689">
        <ele>142</ele>
        <time>2015-11-01T08:32:19.023Z</time>
      </trkpt>
      <trkpt lat="47.81866" lon="1.96682">
        <ele>143</ele>
        <time>2015-11-01T08:32:18.055Z</time>
      </trkpt>
      <trkpt lat="47.81869" lon="1.96677">
        <ele>143</ele>
        <time>2015-11-01T08:32:17.027Z</time>
      </trkpt>
      <trkpt lat="47.81872" lon="1.96671">
        <ele>143</ele>
        <time>2015-11-01T08:32:16.057Z</time>
      </trkpt>
      <trkpt lat="47.81875" lon="1.96667">
        <ele>142</ele>
        <time>2015-11-01T08:32:15.054Z</time>
      </trkpt>
      <trkpt lat="47.81879" lon="1.96662">
        <ele>143</ele>
        <time>2015-11-01T08:32:14.140Z</time>
      </trkpt>
      <trkpt lat="47.81884" lon="1.96658">
        <ele>143</ele>
        <time>2015-11-01T08:32:13.028Z</time>
      </trkpt>
      <trkpt lat="47.81888" lon="1.96654">
        <ele>144</ele>
        <time>2015-11-01T08:32:12.065Z</time>
      </trkpt>
      <trkpt lat="47.81892" lon="1.9665">
        <ele>145</ele>
        <time>2015-11-01T08:32:11.022Z</time>
      </trkpt>
      <trkpt lat="47.81896" lon="1.96646">
        <ele>145</ele>
        <time>2015-11-01T08:32:10.055Z</time>
      </trkpt>
      <trkpt lat="47.819" lon="1.96643">
        <ele>145</ele>
        <time>2015-11-01T08:32:09.024Z</time>
      </trkpt>
      <trkpt lat="47.81905" lon="1.96639">
        <ele>145</ele>
        <time>2015-11-01T08:32:08.057Z</time>
      </trkpt>
      <trkpt lat="47.8191" lon="1.96636">
        <ele>145</ele>
        <time>2015-11-01T08:32:07.022Z</time>
      </trkpt>
      <trkpt lat="47.81914" lon="1.96632">
        <ele>145</ele>
        <time>2015-11-01T08:32:06.062Z</time>
      </trkpt>
      <trkpt lat="47.81923" lon="1.96629">
        <ele>146</ele>
        <time>2015-11-01T08:32:04.033Z</time>
      </trkpt>
      <trkpt lat="47.81927" lon="1.96628">
        <ele>146</ele>
        <time>2015-11-01T08:32:03.069Z</time>
      </trkpt>
      <trkpt lat="47.81932" lon="1.96629">
        <ele>146</ele>
        <time>2015-11-01T08:32:02.034Z</time>
      </trkpt>
      <trkpt lat="47.81936" lon="1.96631">
        <ele>146</ele>
        <time>2015-11-01T08:32:01.065Z</time>
      </trkpt>
      <trkpt lat="47.81944" lon="1.96634">
        <ele>146</ele>
        <time>2015-11-01T08:31:59.027Z</time>
      </trkpt>
      <trkpt lat="47.81949" lon="1.96636">
        <ele>147</ele>
        <time>2015-11-01T08:31:58.059Z</time>
      </trkpt>
      <trkpt lat="47.81954" lon="1.96638">
        <ele>147</ele>
        <time>2015-11-01T08:31:57.027Z</time>
      </trkpt>
      <trkpt lat="47.81958" lon="1.9664">
        <ele>147</ele>
        <time>2015-11-01T08:31:56.064Z</time>
      </trkpt>
      <trkpt lat="47.81963" lon="1.96643">
        <ele>146</ele>
        <time>2015-11-01T08:31:55.026Z</time>
      </trkpt>
      <trkpt lat="47.81968" lon="1.96645">
        <ele>147</ele>
        <time>2015-11-01T08:31:54.066Z</time>
      </trkpt>
      <trkpt lat="47.81972" lon="1.96648">
        <ele>147</ele>
        <time>2015-11-01T08:31:53.029Z</time>
      </trkpt>
      <trkpt lat="47.81977" lon="1.96651">
        <ele>147</ele>
        <time>2015-11-01T08:31:52.066Z</time>
      </trkpt>
      <trkpt lat="47.81981" lon="1.96654">
        <ele>147</ele>
        <time>2015-11-01T08:31:51.026Z</time>
      </trkpt>
      <trkpt lat="47.81986" lon="1.96656">
        <ele>148</ele>
        <time>2015-11-01T08:31:50.066Z</time>
      </trkpt>
      <trkpt lat="47.8199" lon="1.96659">
        <ele>149</ele>
        <time>2015-11-01T08:31:49.055Z</time>
      </trkpt>
      <trkpt lat="47.81994" lon="1.96662">
        <ele>149</ele>
        <time>2015-11-01T08:31:48.064Z</time>
      </trkpt>
      <trkpt lat="47.81999" lon="1.96664">
        <ele>149</ele>
        <time>2015-11-01T08:31:47.025Z</time>
      </trkpt>
      <trkpt lat="47.82004" lon="1.96667">
        <ele>150</ele>
        <time>2015-11-01T08:31:46.084Z</time>
      </trkpt>
      <trkpt lat="47.82009" lon="1.96669">
        <ele>150</ele>
        <time>2015-11-01T08:31:45.026Z</time>
      </trkpt>
      <trkpt lat="47.82013" lon="1.96671">
        <ele>151</ele>
        <time>2015-11-01T08:31:44.060Z</time>
      </trkpt>
      <trkpt lat="47.82018" lon="1.96673">
        <ele>152</ele>
        <time>2015-11-01T08:31:43.027Z</time>
      </trkpt>
      <trkpt lat="47.82023" lon="1.96675">
        <ele>153</ele>
        <time>2015-11-01T08:31:42.084Z</time>
      </trkpt>
      <trkpt lat="47.82027" lon="1.96678">
        <ele>154</ele>
        <time>2015-11-01T08:31:41.026Z</time>
      </trkpt>
      <trkpt lat="47.82032" lon="1.96681">
        <ele>156</ele>
        <time>2015-11-01T08:31:40.065Z</time>
      </trkpt>
      <trkpt lat="47.82037" lon="1.96684">
        <ele>158</ele>
        <time>2015-11-01T08:31:39.029Z</time>
      </trkpt>
      <trkpt lat="47.82043" lon="1.96685">
        <ele>160</ele>
        <time>2015-11-01T08:31:38.247Z</time>
      </trkpt>
      <trkpt lat="47.82048" lon="1.96687">
        <ele>162</ele>
        <time>2015-11-01T08:31:37.045Z</time>
      </trkpt>
      <trkpt lat="47.82054" lon="1.96689">
        <ele>164</ele>
        <time>2015-11-01T08:31:36.066Z</time>
      </trkpt>
      <trkpt lat="47.8206" lon="1.9669">
        <ele>166</ele>
        <time>2015-11-01T08:31:35.031Z</time>
      </trkpt>
      <trkpt lat="47.82062" lon="1.96692">
        <ele>165</ele>
        <time>2015-11-01T08:31:34.064Z</time>
      </trkpt>
      <trkpt lat="47.82068" lon="1.96698">
        <ele>166</ele>
        <time>2015-11-01T08:31:32.031Z</time>
      </trkpt>
      <trkpt lat="47.82074" lon="1.96702">
        <ele>167</ele>
        <time>2015-11-01T08:31:31.064Z</time>
      </trkpt>
      <trkpt lat="47.8208" lon="1.96705">
        <ele>168</ele>
        <time>2015-11-01T08:31:29.031Z</time>
      </trkpt>
      <trkpt lat="47.82085" lon="1.96707">
        <ele>168</ele>
        <time>2015-11-01T08:31:28.071Z</time>
      </trkpt>
      <trkpt lat="47.82091" lon="1.96709">
        <ele>169</ele>
        <time>2015-11-01T08:31:27.032Z</time>
      </trkpt>
      <trkpt lat="47.82096" lon="1.96712">
        <ele>169</ele>
        <time>2015-11-01T08:31:26.063Z</time>
      </trkpt>
      <trkpt lat="47.82103" lon="1.96715">
        <ele>169</ele>
        <time>2015-11-01T08:31:24.028Z</time>
      </trkpt>
      <trkpt lat="47.82105" lon="1.96721">
        <ele>167</ele>
        <time>2015-11-01T08:31:23.065Z</time>
      </trkpt>
      <trkpt lat="47.82111" lon="1.96725">
        <ele>167</ele>
        <time>2015-11-01T08:31:21.030Z</time>
      </trkpt>
      <trkpt lat="47.82114" lon="1.96727">
        <ele>167</ele>
        <time>2015-11-01T08:31:20.077Z</time>
      </trkpt>
      <trkpt lat="47.82121" lon="1.96732">
        <ele>169</ele>
        <time>2015-11-01T08:31:17.028Z</time>
      </trkpt>
      <trkpt lat="47.82122" lon="1.96736">
        <ele>168</ele>
        <time>2015-11-01T08:31:16.064Z</time>
      </trkpt>
      <trkpt lat="47.82124" lon="1.96745">
        <ele>169</ele>
        <time>2015-11-01T08:31:14.026Z</time>
      </trkpt>
      <trkpt lat="47.82126" lon="1.9675">
        <ele>169</ele>
        <time>2015-11-01T08:31:13.058Z</time>
      </trkpt>
      <trkpt lat="47.82132" lon="1.96756">
        <ele>168</ele>
        <time>2015-11-01T08:31:11.029Z</time>
      </trkpt>
      <trkpt lat="47.82136" lon="1.9676">
        <ele>166</ele>
        <time>2015-11-01T08:31:10.061Z</time>
      </trkpt>
      <trkpt lat="47.8214" lon="1.96771">
        <ele>161</ele>
        <time>2015-11-01T08:31:07.058Z</time>
      </trkpt>
      <trkpt lat="47.82142" lon="1.96776">
        <ele>159</ele>
        <time>2015-11-01T08:31:06.066Z</time>
      </trkpt>
      <trkpt lat="47.82146" lon="1.96783">
        <ele>157</ele>
        <time>2015-11-01T08:31:04.036Z</time>
      </trkpt>
      <trkpt lat="47.82151" lon="1.96789">
        <ele>159</ele>
        <time>2015-11-01T08:31:03.069Z</time>
      </trkpt>
      <trkpt lat="47.82155" lon="1.96791">
        <ele>159</ele>
        <time>2015-11-01T08:31:02.035Z</time>
      </trkpt>
      <trkpt lat="47.82161" lon="1.96792">
        <ele>159</ele>
        <time>2015-11-01T08:31:01.071Z</time>
      </trkpt>
      <trkpt lat="47.82167" lon="1.96795">
        <ele>159</ele>
        <time>2015-11-01T08:31:00.042Z</time>
      </trkpt>
      <trkpt lat="47.82175" lon="1.96793">
        <ele>159</ele>
        <time>2015-11-01T08:30:59.122Z</time>
      </trkpt>
      <trkpt lat="47.82181" lon="1.96787">
        <ele>157</ele>
        <time>2015-11-01T08:30:57.034Z</time>
      </trkpt>
      <trkpt lat="47.82189" lon="1.96787">
        <ele>158</ele>
        <time>2015-11-01T08:30:56.061Z</time>
      </trkpt>
      <trkpt lat="47.82192" lon="1.96786">
        <ele>157</ele>
        <time>2015-11-01T08:30:55.036Z</time>
      </trkpt>
      <trkpt lat="47.82199" lon="1.96783">
        <ele>158</ele>
        <time>2015-11-01T08:30:54.065Z</time>
      </trkpt>
      <trkpt lat="47.82206" lon="1.96779">
        <ele>159</ele>
        <time>2015-11-01T08:30:52.029Z</time>
      </trkpt>
      <trkpt lat="47.82211" lon="1.96777">
        <ele>162</ele>
        <time>2015-11-01T08:30:51.092Z</time>
      </trkpt>
      <trkpt lat="47.82219" lon="1.96771">
        <ele>163</ele>
        <time>2015-11-01T08:30:50.030Z</time>
      </trkpt>
      <trkpt lat="47.8222" lon="1.96765">
        <ele>161</ele>
        <time>2015-11-01T08:30:49.066Z</time>
      </trkpt>
      <trkpt lat="47.82228" lon="1.96767">
        <ele>155</ele>
        <time>2015-11-01T08:30:40.029Z</time>
      </trkpt>
      <trkpt lat="47.8223" lon="1.96773">
        <ele>155</ele>
        <time>2015-11-01T08:30:39.065Z</time>
      </trkpt>
      <trkpt lat="47.82229" lon="1.96786">
        <ele>155</ele>
        <time>2015-11-01T08:30:37.032Z</time>
      </trkpt>
      <trkpt lat="47.82229" lon="1.96792">
        <ele>155</ele>
        <time>2015-11-01T08:30:36.063Z</time>
      </trkpt>
      <trkpt lat="47.82229" lon="1.968">
        <ele>155</ele>
        <time>2015-11-01T08:30:35.033Z</time>
      </trkpt>
      <trkpt lat="47.82229" lon="1.96807">
        <ele>155</ele>
        <time>2015-11-01T08:30:34.240Z</time>
      </trkpt>
      <trkpt lat="47.82229" lon="1.96814">
        <ele>153</ele>
        <time>2015-11-01T08:30:33.016Z</time>
      </trkpt>
      <trkpt lat="47.82227" lon="1.96821">
        <ele>152</ele>
        <time>2015-11-01T08:30:32.048Z</time>
      </trkpt>
      <trkpt lat="47.82224" lon="1.9683">
        <ele>151</ele>
        <time>2015-11-01T08:30:31.020Z</time>
      </trkpt>
      <trkpt lat="47.82222" lon="1.96838">
        <ele>151</ele>
        <time>2015-11-01T08:30:30.068Z</time>
      </trkpt>
      <trkpt lat="47.82224" lon="1.9685">
        <ele>152</ele>
        <time>2015-11-01T08:30:28.027Z</time>
      </trkpt>
      <trkpt lat="47.82225" lon="1.96859">
        <ele>151</ele>
        <time>2015-11-01T08:30:27.073Z</time>
      </trkpt>
      <trkpt lat="47.82225" lon="1.96869">
        <ele>155</ele>
        <time>2015-11-01T08:30:25.028Z</time>
      </trkpt>
      <trkpt lat="47.82223" lon="1.96874">
        <ele>155</ele>
        <time>2015-11-01T08:30:24.064Z</time>
      </trkpt>
      <trkpt lat="47.82226" lon="1.96884">
        <ele>154</ele>
        <time>2015-11-01T08:30:21.023Z</time>
      </trkpt>
      <trkpt lat="47.82226" lon="1.96892">
        <ele>153</ele>
        <time>2015-11-01T08:30:20.061Z</time>
      </trkpt>
      <trkpt lat="47.82231" lon="1.96901">
        <ele>153</ele>
        <time>2015-11-01T08:30:18.027Z</time>
      </trkpt>
      <trkpt lat="47.82232" lon="1.96905">
        <ele>153</ele>
        <time>2015-11-01T08:30:17.062Z</time>
      </trkpt>
      <trkpt lat="47.82234" lon="1.96915">
        <ele>153</ele>
        <time>2015-11-01T08:30:14.052Z</time>
      </trkpt>
      <trkpt lat="47.82242" lon="1.96914">
        <ele>157</ele>
        <time>2015-11-01T08:30:13.060Z</time>
      </trkpt>
      <trkpt lat="47.82248" lon="1.96912">
        <ele>158</ele>
        <time>2015-11-01T08:30:12.023Z</time>
      </trkpt>
      <trkpt lat="47.82252" lon="1.96907">
        <ele>159</ele>
        <time>2015-11-01T08:30:11.064Z</time>
      </trkpt>
      <trkpt lat="47.82254" lon="1.96902">
        <ele>158</ele>
        <time>2015-11-01T08:30:10.026Z</time>
      </trkpt>
      <trkpt lat="47.82255" lon="1.96899">
        <ele>159</ele>
        <time>2015-11-01T08:30:09.047Z</time>
      </trkpt>
      <trkpt lat="47.8226" lon="1.96888">
        <ele>163</ele>
        <time>2015-11-01T08:30:07.016Z</time>
      </trkpt>
      <trkpt lat="47.82265" lon="1.96877">
        <ele>164</ele>
        <time>2015-11-01T08:30:06.048Z</time>
      </trkpt>
      <trkpt lat="47.82266" lon="1.96871">
        <ele>165</ele>
        <time>2015-11-01T08:30:05.018Z</time>
      </trkpt>
      <trkpt lat="47.82267" lon="1.96866">
        <ele>166</ele>
        <time>2015-11-01T08:30:04.051Z</time>
      </trkpt>
      <trkpt lat="47.82265" lon="1.96858">
        <ele>164</ele>
        <time>2015-11-01T08:30:03.022Z</time>
      </trkpt>
      <trkpt lat="47.82266" lon="1.96852">
        <ele>163</ele>
        <time>2015-11-01T08:30:02.054Z</time>
      </trkpt>
      <trkpt lat="47.8227" lon="1.96842">
        <ele>164</ele>
        <time>2015-11-01T08:30:01.018Z</time>
      </trkpt>
      <trkpt lat="47.82271" lon="1.96836">
        <ele>164</ele>
        <time>2015-11-01T08:30:00.085Z</time>
      </trkpt>
      <trkpt lat="47.82273" lon="1.96828">
        <ele>165</ele>
        <time>2015-11-01T08:29:59.022Z</time>
      </trkpt>
      <trkpt lat="47.82276" lon="1.96822">
        <ele>165</ele>
        <time>2015-11-01T08:29:58.054Z</time>
      </trkpt>
      <trkpt lat="47.8228" lon="1.96813">
        <ele>162</ele>
        <time>2015-11-01T08:29:56.022Z</time>
      </trkpt>
      <trkpt lat="47.82282" lon="1.96807">
        <ele>162</ele>
        <time>2015-11-01T08:29:55.059Z</time>
      </trkpt>
      <trkpt lat="47.82288" lon="1.96798">
        <ele>156</ele>
        <time>2015-11-01T08:29:52.018Z</time>
      </trkpt>
      <trkpt lat="47.82285" lon="1.96787">
        <ele>157</ele>
        <time>2015-11-01T08:29:51.052Z</time>
      </trkpt>
      <trkpt lat="47.82283" lon="1.96774">
        <ele>157</ele>
        <time>2015-11-01T08:29:50.017Z</time>
      </trkpt>
      <trkpt lat="47.82282" lon="1.96762">
        <ele>157</ele>
        <time>2015-11-01T08:29:49.048Z</time>
      </trkpt>
      <trkpt lat="47.82283" lon="1.96755">
        <ele>157</ele>
        <time>2015-11-01T08:29:48.018Z</time>
      </trkpt>
      <trkpt lat="47.8228" lon="1.96747">
        <ele>158</ele>
        <time>2015-11-01T08:29:47.052Z</time>
      </trkpt>
      <trkpt lat="47.8228" lon="1.96739">
        <ele>158</ele>
        <time>2015-11-01T08:29:46.020Z</time>
      </trkpt>
      <trkpt lat="47.8228" lon="1.96727">
        <ele>159</ele>
        <time>2015-11-01T08:29:45.052Z</time>
      </trkpt>
      <trkpt lat="47.82286" lon="1.96718">
        <ele>161</ele>
        <time>2015-11-01T08:29:42.049Z</time>
      </trkpt>
      <trkpt lat="47.82287" lon="1.96712">
        <ele>161</ele>
        <time>2015-11-01T08:29:41.051Z</time>
      </trkpt>
      <trkpt lat="47.8229" lon="1.967">
        <ele>159</ele>
        <time>2015-11-01T08:29:38.018Z</time>
      </trkpt>
      <trkpt lat="47.82291" lon="1.96693">
        <ele>158</ele>
        <time>2015-11-01T08:29:37.090Z</time>
      </trkpt>
      <trkpt lat="47.82296" lon="1.96687">
        <ele>157</ele>
        <time>2015-11-01T08:29:35.017Z</time>
      </trkpt>
      <trkpt lat="47.82296" lon="1.96681">
        <ele>156</ele>
        <time>2015-11-01T08:29:34.049Z</time>
      </trkpt>
      <trkpt lat="47.82298" lon="1.96672">
        <ele>157</ele>
        <time>2015-11-01T08:29:33.017Z</time>
      </trkpt>
      <trkpt lat="47.82301" lon="1.96669">
        <ele>158</ele>
        <time>2015-11-01T08:29:32.049Z</time>
      </trkpt>
      <trkpt lat="47.82308" lon="1.96661">
        <ele>159</ele>
        <time>2015-11-01T08:29:30.018Z</time>
      </trkpt>
      <trkpt lat="47.82313" lon="1.96657">
        <ele>161</ele>
        <time>2015-11-01T08:29:29.049Z</time>
      </trkpt>
      <trkpt lat="47.8232" lon="1.96652">
        <ele>162</ele>
        <time>2015-11-01T08:29:27.024Z</time>
      </trkpt>
      <trkpt lat="47.82324" lon="1.96649">
        <ele>162</ele>
        <time>2015-11-01T08:29:26.061Z</time>
      </trkpt>
      <trkpt lat="47.8233" lon="1.96646">
        <ele>162</ele>
        <time>2015-11-01T08:29:24.029Z</time>
      </trkpt>
      <trkpt lat="47.82333" lon="1.96646">
        <ele>161</ele>
        <time>2015-11-01T08:29:23.066Z</time>
      </trkpt>
      <trkpt lat="47.82339" lon="1.96641">
        <ele>162</ele>
        <time>2015-11-01T08:29:20.027Z</time>
      </trkpt>
      <trkpt lat="47.82344" lon="1.96639">
        <ele>164</ele>
        <time>2015-11-01T08:29:19.062Z</time>
      </trkpt>
      <trkpt lat="47.8235" lon="1.96633">
        <ele>164</ele>
        <time>2015-11-01T08:29:16.029Z</time>
      </trkpt>
      <trkpt lat="47.82354" lon="1.96635">
        <ele>164</ele>
        <time>2015-11-01T08:29:15.066Z</time>
      </trkpt>
      <trkpt lat="47.82363" lon="1.96632">
        <ele>166</ele>
        <time>2015-11-01T08:29:13.030Z</time>
      </trkpt>
      <trkpt lat="47.82367" lon="1.96633">
        <ele>166</ele>
        <time>2015-11-01T08:29:12.062Z</time>
      </trkpt>
      <trkpt lat="47.82373" lon="1.96631">
        <ele>168</ele>
        <time>2015-11-01T08:29:10.024Z</time>
      </trkpt>
      <trkpt lat="47.82376" lon="1.9663">
        <ele>169</ele>
        <time>2015-11-01T08:29:09.052Z</time>
      </trkpt>
      <trkpt lat="47.82385" lon="1.9663">
        <ele>170</ele>
        <time>2015-11-01T08:29:06.018Z</time>
      </trkpt>
      <trkpt lat="47.82386" lon="1.9663">
        <ele>168</ele>
        <time>2015-11-01T08:29:05.049Z</time>
      </trkpt>
      <trkpt lat="47.82394" lon="1.9663">
        <ele>167</ele>
        <time>2015-11-01T08:29:02.017Z</time>
      </trkpt>
      <trkpt lat="47.82398" lon="1.96629">
        <ele>166</ele>
        <time>2015-11-01T08:29:01.049Z</time>
      </trkpt>
      <trkpt lat="47.82405" lon="1.96629">
        <ele>166</ele>
        <time>2015-11-01T08:28:59.020Z</time>
      </trkpt>
      <trkpt lat="47.8241" lon="1.9663">
        <ele>167</ele>
        <time>2015-11-01T08:28:58.053Z</time>
      </trkpt>
      <trkpt lat="47.82415" lon="1.96633">
        <ele>167</ele>
        <time>2015-11-01T08:28:56.029Z</time>
      </trkpt>
      <trkpt lat="47.82419" lon="1.96635">
        <ele>165</ele>
        <time>2015-11-01T08:28:55.078Z</time>
      </trkpt>
      <trkpt lat="47.82426" lon="1.96634">
        <ele>166</ele>
        <time>2015-11-01T08:28:53.027Z</time>
      </trkpt>
      <trkpt lat="47.8243" lon="1.96635">
        <ele>167</ele>
        <time>2015-11-01T08:28:52.063Z</time>
      </trkpt>
      <trkpt lat="47.82438" lon="1.96634">
        <ele>167</ele>
        <time>2015-11-01T08:28:50.027Z</time>
      </trkpt>
      <trkpt lat="47.82441" lon="1.96635">
        <ele>167</ele>
        <time>2015-11-01T08:28:49.067Z</time>
      </trkpt>
      <trkpt lat="47.82447" lon="1.96635">
        <ele>166</ele>
        <time>2015-11-01T08:28:48.029Z</time>
      </trkpt>
      <trkpt lat="47.82451" lon="1.96633">
        <ele>165</ele>
        <time>2015-11-01T08:28:47.064Z</time>
      </trkpt>
      <trkpt lat="47.82459" lon="1.9663">
        <ele>162</ele>
        <time>2015-11-01T08:28:44.020Z</time>
      </trkpt>
      <trkpt lat="47.82462" lon="1.96626">
        <ele>160</ele>
        <time>2015-11-01T08:28:43.060Z</time>
      </trkpt>
      <trkpt lat="47.82469" lon="1.96625">
        <ele>159</ele>
        <time>2015-11-01T08:28:41.021Z</time>
      </trkpt>
      <trkpt lat="47.82474" lon="1.96623">
        <ele>159</ele>
        <time>2015-11-01T08:28:40.074Z</time>
      </trkpt>
      <trkpt lat="47.82478" lon="1.96616">
        <ele>159</ele>
        <time>2015-11-01T08:28:39.040Z</time>
      </trkpt>
      <trkpt lat="47.82482" lon="1.96611">
        <ele>161</ele>
        <time>2015-11-01T08:28:38.051Z</time>
      </trkpt>
      <trkpt lat="47.82485" lon="1.96604">
        <ele>161</ele>
        <time>2015-11-01T08:28:37.020Z</time>
      </trkpt>
      <trkpt lat="47.8249" lon="1.96602">
        <ele>163</ele>
        <time>2015-11-01T08:28:36.049Z</time>
      </trkpt>
      <trkpt lat="47.82498" lon="1.966">
        <ele>163</ele>
        <time>2015-11-01T08:28:34.018Z</time>
      </trkpt>
      <trkpt lat="47.82503" lon="1.96596">
        <ele>162</ele>
        <time>2015-11-01T08:28:33.053Z</time>
      </trkpt>
      <trkpt lat="47.82509" lon="1.96595">
        <ele>162</ele>
        <time>2015-11-01T08:28:32.018Z</time>
      </trkpt>
      <trkpt lat="47.82513" lon="1.96595">
        <ele>163</ele>
        <time>2015-11-01T08:28:31.050Z</time>
      </trkpt>
      <trkpt lat="47.82517" lon="1.96592">
        <ele>165</ele>
        <time>2015-11-01T08:28:30.017Z</time>
      </trkpt>
      <trkpt lat="47.82523" lon="1.96591">
        <ele>166</ele>
        <time>2015-11-01T08:28:29.049Z</time>
      </trkpt>
      <trkpt lat="47.82527" lon="1.96588">
        <ele>167</ele>
        <time>2015-11-01T08:28:28.020Z</time>
      </trkpt>
      <trkpt lat="47.82531" lon="1.96586">
        <ele>167</ele>
        <time>2015-11-01T08:28:27.056Z</time>
      </trkpt>
      <trkpt lat="47.82538" lon="1.96585">
        <ele>169</ele>
        <time>2015-11-01T08:28:26.031Z</time>
      </trkpt>
      <trkpt lat="47.82543" lon="1.96584">
        <ele>167</ele>
        <time>2015-11-01T08:28:25.057Z</time>
      </trkpt>
      <trkpt lat="47.8255" lon="1.96584">
        <ele>167</ele>
        <time>2015-11-01T08:28:24.026Z</time>
      </trkpt>
      <trkpt lat="47.82557" lon="1.96582">
        <ele>166</ele>
        <time>2015-11-01T08:28:23.084Z</time>
      </trkpt>
      <trkpt lat="47.82559" lon="1.9658">
        <ele>167</ele>
        <time>2015-11-01T08:28:22.031Z</time>
      </trkpt>
      <trkpt lat="47.82562" lon="1.96579">
        <ele>167</ele>
        <time>2015-11-01T08:28:21.071Z</time>
      </trkpt>
      <trkpt lat="47.82568" lon="1.96581">
        <ele>169</ele>
        <time>2015-11-01T08:28:19.030Z</time>
      </trkpt>
      <trkpt lat="47.82572" lon="1.96582">
        <ele>168</ele>
        <time>2015-11-01T08:28:18.098Z</time>
      </trkpt>
      <trkpt lat="47.82579" lon="1.96582">
        <ele>165</ele>
        <time>2015-11-01T08:28:16.028Z</time>
      </trkpt>
      <trkpt lat="47.82584" lon="1.96585">
        <ele>164</ele>
        <time>2015-11-01T08:28:15.062Z</time>
      </trkpt>
      <trkpt lat="47.8259" lon="1.96585">
        <ele>164</ele>
        <time>2015-11-01T08:28:14.023Z</time>
      </trkpt>
      <trkpt lat="47.82597" lon="1.96584">
        <ele>164</ele>
        <time>2015-11-01T08:28:13.078Z</time>
      </trkpt>
      <trkpt lat="47.82603" lon="1.96585">
        <ele>164</ele>
        <time>2015-11-01T08:28:12.028Z</time>
      </trkpt>
      <trkpt lat="47.82608" lon="1.96584">
        <ele>165</ele>
        <time>2015-11-01T08:28:11.064Z</time>
      </trkpt>
      <trkpt lat="47.82616" lon="1.96585">
        <ele>166</ele>
        <time>2015-11-01T08:28:10.026Z</time>
      </trkpt>
      <trkpt lat="47.82619" lon="1.96584">
        <ele>165</ele>
        <time>2015-11-01T08:28:09.048Z</time>
      </trkpt>
      <trkpt lat="47.82627" lon="1.96582">
        <ele>163</ele>
        <time>2015-11-01T08:28:07.018Z</time>
      </trkpt>
      <trkpt lat="47.82634" lon="1.96579">
        <ele>163</ele>
        <time>2015-11-01T08:28:06.049Z</time>
      </trkpt>
      <trkpt lat="47.82642" lon="1.96573">
        <ele>163</ele>
        <time>2015-11-01T08:28:04.019Z</time>
      </trkpt>
      <trkpt lat="47.82646" lon="1.96571">
        <ele>163</ele>
        <time>2015-11-01T08:28:03.049Z</time>
      </trkpt>
      <trkpt lat="47.82651" lon="1.96568">
        <ele>162</ele>
        <time>2015-11-01T08:28:01.050Z</time>
      </trkpt>
      <trkpt lat="47.82654" lon="1.96567">
        <ele>163</ele>
        <time>2015-11-01T08:28:00.085Z</time>
      </trkpt>
      <trkpt lat="47.8266" lon="1.9657">
        <ele>161</ele>
        <time>2015-11-01T08:27:58.018Z</time>
      </trkpt>
      <trkpt lat="47.82663" lon="1.96573">
        <ele>161</ele>
        <time>2015-11-01T08:27:57.074Z</time>
      </trkpt>
      <trkpt lat="47.82672" lon="1.96578">
        <ele>155</ele>
        <time>2015-11-01T08:27:52.027Z</time>
      </trkpt>
      <trkpt lat="47.82674" lon="1.96578">
        <ele>153</ele>
        <time>2015-11-01T08:27:51.064Z</time>
      </trkpt>
      <trkpt lat="47.82681" lon="1.96585">
        <ele>153</ele>
        <time>2015-11-01T08:27:47.026Z</time>
      </trkpt>
      <trkpt lat="47.82682" lon="1.96586">
        <ele>150</ele>
        <time>2015-11-01T08:27:46.063Z</time>
      </trkpt>
      <trkpt lat="47.82689" lon="1.96593">
        <ele>153</ele>
        <time>2015-11-01T08:27:43.025Z</time>
      </trkpt>
      <trkpt lat="47.82693" lon="1.96594">
        <ele>152</ele>
        <time>2015-11-01T08:27:42.062Z</time>
      </trkpt>
      <trkpt lat="47.82698" lon="1.96598">
        <ele>152</ele>
        <time>2015-11-01T08:27:40.037Z</time>
      </trkpt>
      <trkpt lat="47.82698" lon="1.96601">
        <ele>151</ele>
        <time>2015-11-01T08:27:39.062Z</time>
      </trkpt>
      <trkpt lat="47.82704" lon="1.96609">
        <ele>151</ele>
        <time>2015-11-01T08:27:37.018Z</time>
      </trkpt>
      <trkpt lat="47.82707" lon="1.96611">
        <ele>150</ele>
        <time>2015-11-01T08:27:36.051Z</time>
      </trkpt>
      <trkpt lat="47.82715" lon="1.96613">
        <ele>149</ele>
        <time>2015-11-01T08:27:33.018Z</time>
      </trkpt>
      <trkpt lat="47.82718" lon="1.96614">
        <ele>149</ele>
        <time>2015-11-01T08:27:32.058Z</time>
      </trkpt>
      <trkpt lat="47.82725" lon="1.96612">
        <ele>145</ele>
        <time>2015-11-01T08:27:27.019Z</time>
      </trkpt>
      <trkpt lat="47.82727" lon="1.96614">
        <ele>146</ele>
        <time>2015-11-01T08:27:26.060Z</time>
      </trkpt>
      <trkpt lat="47.82734" lon="1.96619">
        <ele>147</ele>
        <time>2015-11-01T08:27:24.024Z</time>
      </trkpt>
      <trkpt lat="47.82738" lon="1.9662">
        <ele>147</ele>
        <time>2015-11-01T08:27:23.072Z</time>
      </trkpt>
      <trkpt lat="47.82743" lon="1.96624">
        <ele>146</ele>
        <time>2015-11-01T08:27:21.024Z</time>
      </trkpt>
      <trkpt lat="47.82746" lon="1.96626">
        <ele>146</ele>
        <time>2015-11-01T08:27:20.071Z</time>
      </trkpt>
      <trkpt lat="47.82755" lon="1.96628">
        <ele>143</ele>
        <time>2015-11-01T08:27:17.026Z</time>
      </trkpt>
      <trkpt lat="47.82757" lon="1.96629">
        <ele>141</ele>
        <time>2015-11-01T08:27:16.063Z</time>
      </trkpt>
      <trkpt lat="47.82764" lon="1.9663">
        <ele>140</ele>
        <time>2015-11-01T08:27:14.036Z</time>
      </trkpt>
      <trkpt lat="47.82769" lon="1.96632">
        <ele>140</ele>
        <time>2015-11-01T08:27:13.083Z</time>
      </trkpt>
      <trkpt lat="47.82773" lon="1.96634">
        <ele>140</ele>
        <time>2015-11-01T08:27:12.028Z</time>
      </trkpt>
      <trkpt lat="47.82778" lon="1.96637">
        <ele>139</ele>
        <time>2015-11-01T08:27:11.062Z</time>
      </trkpt>
      <trkpt lat="47.82784" lon="1.96637">
        <ele>140</ele>
        <time>2015-11-01T08:27:10.037Z</time>
      </trkpt>
      <trkpt lat="47.8279" lon="1.96639">
        <ele>141</ele>
        <time>2015-11-01T08:27:09.050Z</time>
      </trkpt>
      <trkpt lat="47.82794" lon="1.96638">
        <ele>142</ele>
        <time>2015-11-01T08:27:08.018Z</time>
      </trkpt>
      <trkpt lat="47.82799" lon="1.96639">
        <ele>142</ele>
        <time>2015-11-01T08:27:07.048Z</time>
      </trkpt>
      <trkpt lat="47.82806" lon="1.96643">
        <ele>144</ele>
        <time>2015-11-01T08:27:05.018Z</time>
      </trkpt>
      <trkpt lat="47.82812" lon="1.96647">
        <ele>147</ele>
        <time>2015-11-01T08:27:04.069Z</time>
      </trkpt>
      <trkpt lat="47.82816" lon="1.96648">
        <ele>147</ele>
        <time>2015-11-01T08:27:03.018Z</time>
      </trkpt>
      <trkpt lat="47.82821" lon="1.96648">
        <ele>147</ele>
        <time>2015-11-01T08:27:02.053Z</time>
      </trkpt>
      <trkpt lat="47.82828" lon="1.96649">
        <ele>144</ele>
        <time>2015-11-01T08:27:00.024Z</time>
      </trkpt>
      <trkpt lat="47.82835" lon="1.9665">
        <ele>143</ele>
        <time>2015-11-01T08:26:59.048Z</time>
      </trkpt>
      <trkpt lat="47.8284" lon="1.9665">
        <ele>142</ele>
        <time>2015-11-01T08:26:58.019Z</time>
      </trkpt>
      <trkpt lat="47.82847" lon="1.96653">
        <ele>141</ele>
        <time>2015-11-01T08:26:57.053Z</time>
      </trkpt>
      <trkpt lat="47.82851" lon="1.96654">
        <ele>141</ele>
        <time>2015-11-01T08:26:56.028Z</time>
      </trkpt>
      <trkpt lat="47.82855" lon="1.96656">
        <ele>140</ele>
        <time>2015-11-01T08:26:55.055Z</time>
      </trkpt>
      <trkpt lat="47.82861" lon="1.96657">
        <ele>140</ele>
        <time>2015-11-01T08:26:53.026Z</time>
      </trkpt>
      <trkpt lat="47.82866" lon="1.96658">
        <ele>139</ele>
        <time>2015-11-01T08:26:52.063Z</time>
      </trkpt>
      <trkpt lat="47.82871" lon="1.96659">
        <ele>139</ele>
        <time>2015-11-01T08:26:51.028Z</time>
      </trkpt>
      <trkpt lat="47.82876" lon="1.96657">
        <ele>137</ele>
        <time>2015-11-01T08:26:50.063Z</time>
      </trkpt>
      <trkpt lat="47.82881" lon="1.96656">
        <ele>136</ele>
        <time>2015-11-01T08:26:49.029Z</time>
      </trkpt>
      <trkpt lat="47.82887" lon="1.96659">
        <ele>136</ele>
        <time>2015-11-01T08:26:48.080Z</time>
      </trkpt>
      <trkpt lat="47.82893" lon="1.96661">
        <ele>137</ele>
        <time>2015-11-01T08:26:47.028Z</time>
      </trkpt>
      <trkpt lat="47.82898" lon="1.96665">
        <ele>138</ele>
        <time>2015-11-01T08:26:46.063Z</time>
      </trkpt>
      <trkpt lat="47.82906" lon="1.96667">
        <ele>137</ele>
        <time>2015-11-01T08:26:44.028Z</time>
      </trkpt>
      <trkpt lat="47.8291" lon="1.9667">
        <ele>138</ele>
        <time>2015-11-01T08:26:43.063Z</time>
      </trkpt>
      <trkpt lat="47.82916" lon="1.9667">
        <ele>138</ele>
        <time>2015-11-01T08:26:42.027Z</time>
      </trkpt>
      <trkpt lat="47.82923" lon="1.96668">
        <ele>138</ele>
        <time>2015-11-01T08:26:41.063Z</time>
      </trkpt>
      <trkpt lat="47.82928" lon="1.96659">
        <ele>138</ele>
        <time>2015-11-01T08:26:39.024Z</time>
      </trkpt>
      <trkpt lat="47.82931" lon="1.96654">
        <ele>138</ele>
        <time>2015-11-01T08:26:38.054Z</time>
      </trkpt>
      <trkpt lat="47.82933" lon="1.96648">
        <ele>138</ele>
        <time>2015-11-01T08:26:37.038Z</time>
      </trkpt>
      <trkpt lat="47.82936" lon="1.96644">
        <ele>140</ele>
        <time>2015-11-01T08:26:36.049Z</time>
      </trkpt>
      <trkpt lat="47.82939" lon="1.96633">
        <ele>141</ele>
        <time>2015-11-01T08:26:34.016Z</time>
      </trkpt>
      <trkpt lat="47.82941" lon="1.96629">
        <ele>141</ele>
        <time>2015-11-01T08:26:33.051Z</time>
      </trkpt>
      <trkpt lat="47.82943" lon="1.9662">
        <ele>140</ele>
        <time>2015-11-01T08:26:22.023Z</time>
      </trkpt>
      <trkpt lat="47.82943" lon="1.96618">
        <ele>140</ele>
        <time>2015-11-01T08:26:21.063Z</time>
      </trkpt>
      <trkpt lat="47.82949" lon="1.96609">
        <ele>141</ele>
        <time>2015-11-01T08:26:18.028Z</time>
      </trkpt>
      <trkpt lat="47.82952" lon="1.96608">
        <ele>140</ele>
        <time>2015-11-01T08:26:17.063Z</time>
      </trkpt>
      <trkpt lat="47.82958" lon="1.9661">
        <ele>140</ele>
        <time>2015-11-01T08:26:15.030Z</time>
      </trkpt>
      <trkpt lat="47.82961" lon="1.96613">
        <ele>140</ele>
        <time>2015-11-01T08:26:14.141Z</time>
      </trkpt>
      <trkpt lat="47.82967" lon="1.96618">
        <ele>140</ele>
        <time>2015-11-01T08:26:12.024Z</time>
      </trkpt>
      <trkpt lat="47.8297" lon="1.96621">
        <ele>140</ele>
        <time>2015-11-01T08:26:11.064Z</time>
      </trkpt>
      <trkpt lat="47.82977" lon="1.96625">
        <ele>140</ele>
        <time>2015-11-01T08:26:09.017Z</time>
      </trkpt>
      <trkpt lat="47.8298" lon="1.96628">
        <ele>140</ele>
        <time>2015-11-01T08:26:08.050Z</time>
      </trkpt>
      <trkpt lat="47.82987" lon="1.96634">
        <ele>140</ele>
        <time>2015-11-01T08:26:06.019Z</time>
      </trkpt>
      <trkpt lat="47.82991" lon="1.96636">
        <ele>141</ele>
        <time>2015-11-01T08:26:05.053Z</time>
      </trkpt>
      <trkpt lat="47.82998" lon="1.96642">
        <ele>140</ele>
        <time>2015-11-01T08:26:03.014Z</time>
      </trkpt>
      <trkpt lat="47.83002" lon="1.96645">
        <ele>140</ele>
        <time>2015-11-01T08:26:02.049Z</time>
      </trkpt>
      <trkpt lat="47.83009" lon="1.96651">
        <ele>140</ele>
        <time>2015-11-01T08:26:00.025Z</time>
      </trkpt>
      <trkpt lat="47.83012" lon="1.96654">
        <ele>139</ele>
        <time>2015-11-01T08:25:59.047Z</time>
      </trkpt>
      <trkpt lat="47.8302" lon="1.9666">
        <ele>139</ele>
        <time>2015-11-01T08:25:57.021Z</time>
      </trkpt>
      <trkpt lat="47.83024" lon="1.96662">
        <ele>138</ele>
        <time>2015-11-01T08:25:56.070Z</time>
      </trkpt>
      <trkpt lat="47.83032" lon="1.96667">
        <ele>139</ele>
        <time>2015-11-01T08:25:54.023Z</time>
      </trkpt>
      <trkpt lat="47.83036" lon="1.9667">
        <ele>139</ele>
        <time>2015-11-01T08:25:53.054Z</time>
      </trkpt>
      <trkpt lat="47.83042" lon="1.96674">
        <ele>141</ele>
        <time>2015-11-01T08:25:51.019Z</time>
      </trkpt>
      <trkpt lat="47.83044" lon="1.96672">
        <ele>141</ele>
        <time>2015-11-01T08:25:50.049Z</time>
      </trkpt>
      <trkpt lat="47.83172" lon="1.96757">
        <ele>97.1</ele>
      </trkpt>
      <trkpt lat="47.83127" lon="1.96955">
        <ele>101.2</ele>
      </trkpt>
      <trkpt lat="47.83199" lon="1.96938">
        <ele>98.4</ele>
      </trkpt>
      <trkpt lat="47.83222" lon="1.97119">
        <ele>96.2</ele>
      </trkpt>
      <trkpt lat="47.8326" lon="1.97363">
        <ele>96.8</ele>
      </trkpt>
      <trkpt lat="47.8334" lon="1.97442">
        <ele>99.1</ele>
      </trkpt>
      <trkpt lat="47.83477" lon="1.97459">
        <ele>95.1</ele>
      </trkpt>
      <trkpt lat="47.84248" lon="1.98433">
        <ele>93</ele>
      </trkpt>
      <trkpt lat="47.84318" lon="1.98563">
        <ele>93.1</ele>
      </trkpt>
      <trkpt lat="47.84497" lon="1.98673">
        <ele>95</ele>
      </trkpt>
      <trkpt lat="47.84514" lon="1.9871">
        <ele>95.2</ele>
      </trkpt>
      <trkpt lat="47.84469" lon="1.98783">
        <ele>95.6</ele>
      </trkpt>
      <trkpt lat="47.84469" lon="1.99117">
        <ele>99.1</ele>
      </trkpt>
      <trkpt lat="47.84719" lon="1.99297">
        <ele>95.3</ele>
      </trkpt>
      <trkpt lat="47.84892" lon="1.99472">
        <ele>94.8</ele>
      </trkpt>
      <trkpt lat="47.84824" lon="1.99711">
        <ele>95.1</ele>
      </trkpt>
      <trkpt lat="47.84744" lon="1.99675">
        <ele>95.9</ele>
      </trkpt>
      <trkpt lat="47.84664" lon="1.99923">
        <ele>96</ele>
      </trkpt>
      <trkpt lat="47.84621" lon="1.99886">
        <ele>95.1</ele>
      </trkpt>
      <trkpt lat="47.84503" lon="2.00272">
        <ele>99.8</ele>
      </trkpt>
      <trkpt lat="47.84495" lon="2.00284">
        <ele>100.2</ele>
      </trkpt>
      <trkpt lat="47.8451" lon="2.00242">
        <ele>98.6</ele>
      </trkpt>
      <trkpt lat="47.84521" lon="2.00242">
        <ele>98.8</ele>
      </trkpt>
      <trkpt lat="47.84581" lon="2.00282">
        <ele>100.4</ele>
      </trkpt>
      <trkpt lat="47.84656" lon="2.0029">
        <ele>99.6</ele>
      </trkpt>
      <trkpt lat="47.84721" lon="2.00495">
        <ele>96.4</ele>
      </trkpt>
      <trkpt lat="47.84894" lon="2.0079">
        <ele>97</ele>
      </trkpt>
      <trkpt lat="47.84726" lon="2.01089">
        <ele>95.2</ele>
      </trkpt>
      <trkpt lat="47.84498" lon="2.01773">
        <ele>94.7</ele>
      </trkpt>
      <trkpt lat="47.84473" lon="2.02258">
        <ele>95.1</ele>
      </trkpt>
      <trkpt lat="47.84477" lon="2.02283">
        <ele>95.4</ele>
      </trkpt>
      <trkpt lat="47.84551" lon="2.02277">
        <ele>95.9</ele>
      </trkpt>
    </trkseg>
  </trk>
</gpx>